<?xml version="1.0" encoding="UTF-8" standalone="no" ?>
<gpx xmlns="http://www.topografix.com/GPX/1/1" xmlns:xsi="http://www.w3.org/2001/XMLSchema-instance" xsi:schemaLocation="http://www.topografix.com/GPX/1/1 http://www.topografix.com/GPX/1/1/gpx.xsd" version="1.1" creator="VisuGPX - https://www.visugpx.com">
  <metadata>
    <name>83 - M - le Muy</name>
    <desc><![CDATA[83 - M - le Muy - sur la piste des deux rivières]]></desc>
  </metadata>
  <trk>
    <name><![CDATA[le Muy - sur la piste des deux rivières 2025-02-26-01]]></name>
    <trkseg>
      <trkpt lat="43.47649" lon="6.56526">
        <ele>33.4</ele>
        <time>2025-02-26T13:01:56Z</time>
      </trkpt>
      <trkpt lat="43.47649" lon="6.56526">
        <ele>33.4</ele>
        <time>2025-02-26T13:01:57Z</time>
      </trkpt>
      <trkpt lat="43.47648" lon="6.56526">
        <ele>33.3</ele>
        <time>2025-02-26T13:01:58Z</time>
      </trkpt>
      <trkpt lat="43.47648" lon="6.56526">
        <ele>33.3</ele>
        <time>2025-02-26T13:01:59Z</time>
      </trkpt>
      <trkpt lat="43.47648" lon="6.56525">
        <ele>33.3</ele>
        <time>2025-02-26T13:02:00Z</time>
      </trkpt>
      <trkpt lat="43.47648" lon="6.56524">
        <ele>33.3</ele>
        <time>2025-02-26T13:02:01Z</time>
      </trkpt>
      <trkpt lat="43.47648" lon="6.56523">
        <ele>33.3</ele>
        <time>2025-02-26T13:02:02Z</time>
      </trkpt>
      <trkpt lat="43.47649" lon="6.56522">
        <ele>33.3</ele>
        <time>2025-02-26T13:02:03Z</time>
      </trkpt>
      <trkpt lat="43.47648" lon="6.56521">
        <ele>33.3</ele>
        <time>2025-02-26T13:02:04Z</time>
      </trkpt>
      <trkpt lat="43.47649" lon="6.5652">
        <ele>33.3</ele>
        <time>2025-02-26T13:02:05Z</time>
      </trkpt>
      <trkpt lat="43.4765" lon="6.5652">
        <ele>33.5</ele>
        <time>2025-02-26T13:02:06Z</time>
      </trkpt>
      <trkpt lat="43.47649" lon="6.56516">
        <ele>33.7</ele>
        <time>2025-02-26T13:02:07Z</time>
      </trkpt>
      <trkpt lat="43.47649" lon="6.56517">
        <ele>33.6</ele>
        <time>2025-02-26T13:02:08Z</time>
      </trkpt>
      <trkpt lat="43.47649" lon="6.56519">
        <ele>33.7</ele>
        <time>2025-02-26T13:02:09Z</time>
      </trkpt>
      <trkpt lat="43.47648" lon="6.56517">
        <ele>33.9</ele>
        <time>2025-02-26T13:02:10Z</time>
      </trkpt>
      <trkpt lat="43.47648" lon="6.56516">
        <ele>33.9</ele>
        <time>2025-02-26T13:02:11Z</time>
      </trkpt>
      <trkpt lat="43.47648" lon="6.56514">
        <ele>34</ele>
        <time>2025-02-26T13:02:12Z</time>
      </trkpt>
      <trkpt lat="43.47648" lon="6.56513">
        <ele>34</ele>
        <time>2025-02-26T13:02:13Z</time>
      </trkpt>
      <trkpt lat="43.47648" lon="6.56513">
        <ele>34.1</ele>
        <time>2025-02-26T13:02:14Z</time>
      </trkpt>
      <trkpt lat="43.47649" lon="6.56516">
        <ele>34.1</ele>
        <time>2025-02-26T13:02:15Z</time>
      </trkpt>
      <trkpt lat="43.47649" lon="6.56516">
        <ele>34</ele>
        <time>2025-02-26T13:02:16Z</time>
      </trkpt>
      <trkpt lat="43.47649" lon="6.56516">
        <ele>34</ele>
        <time>2025-02-26T13:02:17Z</time>
      </trkpt>
      <trkpt lat="43.47649" lon="6.56517">
        <ele>34</ele>
        <time>2025-02-26T13:02:18Z</time>
      </trkpt>
      <trkpt lat="43.47649" lon="6.56518">
        <ele>34</ele>
        <time>2025-02-26T13:02:19Z</time>
      </trkpt>
      <trkpt lat="43.47649" lon="6.5652">
        <ele>33.9</ele>
        <time>2025-02-26T13:02:20Z</time>
      </trkpt>
      <trkpt lat="43.47649" lon="6.5652">
        <ele>33.9</ele>
        <time>2025-02-26T13:02:21Z</time>
      </trkpt>
      <trkpt lat="43.47649" lon="6.56521">
        <ele>34.1</ele>
        <time>2025-02-26T13:02:22Z</time>
      </trkpt>
      <trkpt lat="43.47649" lon="6.56521">
        <ele>34.2</ele>
        <time>2025-02-26T13:02:23Z</time>
      </trkpt>
      <trkpt lat="43.47649" lon="6.56521">
        <ele>34.1</ele>
        <time>2025-02-26T13:02:24Z</time>
      </trkpt>
      <trkpt lat="43.47649" lon="6.56522">
        <ele>34</ele>
        <time>2025-02-26T13:02:25Z</time>
      </trkpt>
      <trkpt lat="43.4765" lon="6.56522">
        <ele>34</ele>
        <time>2025-02-26T13:02:26Z</time>
      </trkpt>
      <trkpt lat="43.47651" lon="6.56521">
        <ele>34.1</ele>
        <time>2025-02-26T13:02:27Z</time>
      </trkpt>
      <trkpt lat="43.47652" lon="6.56522">
        <ele>34.3</ele>
        <time>2025-02-26T13:02:28Z</time>
      </trkpt>
      <trkpt lat="43.47653" lon="6.56522">
        <ele>34.4</ele>
        <time>2025-02-26T13:02:29Z</time>
      </trkpt>
      <trkpt lat="43.47654" lon="6.56522">
        <ele>34.5</ele>
        <time>2025-02-26T13:02:30Z</time>
      </trkpt>
      <trkpt lat="43.47655" lon="6.56522">
        <ele>34.4</ele>
        <time>2025-02-26T13:02:31Z</time>
      </trkpt>
      <trkpt lat="43.47656" lon="6.56522">
        <ele>34.3</ele>
        <time>2025-02-26T13:02:32Z</time>
      </trkpt>
      <trkpt lat="43.47656" lon="6.56523">
        <ele>34.4</ele>
        <time>2025-02-26T13:02:33Z</time>
      </trkpt>
      <trkpt lat="43.47657" lon="6.56522">
        <ele>34.4</ele>
        <time>2025-02-26T13:02:34Z</time>
      </trkpt>
      <trkpt lat="43.47657" lon="6.56523">
        <ele>34.4</ele>
        <time>2025-02-26T13:02:35Z</time>
      </trkpt>
      <trkpt lat="43.47657" lon="6.56522">
        <ele>34.2</ele>
        <time>2025-02-26T13:02:36Z</time>
      </trkpt>
      <trkpt lat="43.47656" lon="6.56522">
        <ele>34.1</ele>
        <time>2025-02-26T13:02:37Z</time>
      </trkpt>
      <trkpt lat="43.47655" lon="6.56522">
        <ele>34</ele>
        <time>2025-02-26T13:02:38Z</time>
      </trkpt>
      <trkpt lat="43.47655" lon="6.56522">
        <ele>34.1</ele>
        <time>2025-02-26T13:02:39Z</time>
      </trkpt>
      <trkpt lat="43.47654" lon="6.56522">
        <ele>34.2</ele>
        <time>2025-02-26T13:02:40Z</time>
      </trkpt>
      <trkpt lat="43.47653" lon="6.56521">
        <ele>34.2</ele>
        <time>2025-02-26T13:02:41Z</time>
      </trkpt>
      <trkpt lat="43.47651" lon="6.56521">
        <ele>34.2</ele>
        <time>2025-02-26T13:02:42Z</time>
      </trkpt>
      <trkpt lat="43.47651" lon="6.56521">
        <ele>34.2</ele>
        <time>2025-02-26T13:02:43Z</time>
      </trkpt>
      <trkpt lat="43.4765" lon="6.56521">
        <ele>34.2</ele>
        <time>2025-02-26T13:02:44Z</time>
      </trkpt>
      <trkpt lat="43.4765" lon="6.5652">
        <ele>34.2</ele>
        <time>2025-02-26T13:02:45Z</time>
      </trkpt>
      <trkpt lat="43.4765" lon="6.56519">
        <ele>34.2</ele>
        <time>2025-02-26T13:02:46Z</time>
      </trkpt>
      <trkpt lat="43.47649" lon="6.56519">
        <ele>34.2</ele>
        <time>2025-02-26T13:02:47Z</time>
      </trkpt>
      <trkpt lat="43.47649" lon="6.56518">
        <ele>34.3</ele>
        <time>2025-02-26T13:02:48Z</time>
      </trkpt>
      <trkpt lat="43.47649" lon="6.56519">
        <ele>34.2</ele>
        <time>2025-02-26T13:02:49Z</time>
      </trkpt>
      <trkpt lat="43.47648" lon="6.5652">
        <ele>34.2</ele>
        <time>2025-02-26T13:02:50Z</time>
      </trkpt>
      <trkpt lat="43.47648" lon="6.5652">
        <ele>34.1</ele>
        <time>2025-02-26T13:02:51Z</time>
      </trkpt>
      <trkpt lat="43.47648" lon="6.56521">
        <ele>34.1</ele>
        <time>2025-02-26T13:02:52Z</time>
      </trkpt>
      <trkpt lat="43.47648" lon="6.56521">
        <ele>33.9</ele>
        <time>2025-02-26T13:02:53Z</time>
      </trkpt>
      <trkpt lat="43.47648" lon="6.5652">
        <ele>34.1</ele>
        <time>2025-02-26T13:02:54Z</time>
      </trkpt>
      <trkpt lat="43.47648" lon="6.5652">
        <ele>34.1</ele>
        <time>2025-02-26T13:02:55Z</time>
      </trkpt>
      <trkpt lat="43.47648" lon="6.56519">
        <ele>34.2</ele>
        <time>2025-02-26T13:02:56Z</time>
      </trkpt>
      <trkpt lat="43.47648" lon="6.56518">
        <ele>34.2</ele>
        <time>2025-02-26T13:02:57Z</time>
      </trkpt>
      <trkpt lat="43.47649" lon="6.56518">
        <ele>34.2</ele>
        <time>2025-02-26T13:02:58Z</time>
      </trkpt>
      <trkpt lat="43.47649" lon="6.56518">
        <ele>34.1</ele>
        <time>2025-02-26T13:02:59Z</time>
      </trkpt>
      <trkpt lat="43.47649" lon="6.56517">
        <ele>34.2</ele>
        <time>2025-02-26T13:03:00Z</time>
      </trkpt>
      <trkpt lat="43.47649" lon="6.56516">
        <ele>34.3</ele>
        <time>2025-02-26T13:03:01Z</time>
      </trkpt>
      <trkpt lat="43.47649" lon="6.56514">
        <ele>34.2</ele>
        <time>2025-02-26T13:03:02Z</time>
      </trkpt>
      <trkpt lat="43.47648" lon="6.56514">
        <ele>34.2</ele>
        <time>2025-02-26T13:03:03Z</time>
      </trkpt>
      <trkpt lat="43.47648" lon="6.56513">
        <ele>34</ele>
        <time>2025-02-26T13:03:04Z</time>
      </trkpt>
      <trkpt lat="43.47648" lon="6.56513">
        <ele>33.9</ele>
        <time>2025-02-26T13:03:05Z</time>
      </trkpt>
      <trkpt lat="43.47648" lon="6.56512">
        <ele>33.8</ele>
        <time>2025-02-26T13:03:06Z</time>
      </trkpt>
      <trkpt lat="43.47647" lon="6.56512">
        <ele>33.7</ele>
        <time>2025-02-26T13:03:07Z</time>
      </trkpt>
      <trkpt lat="43.47647" lon="6.56511">
        <ele>33.7</ele>
        <time>2025-02-26T13:03:08Z</time>
      </trkpt>
      <trkpt lat="43.47646" lon="6.5651">
        <ele>33.8</ele>
        <time>2025-02-26T13:03:09Z</time>
      </trkpt>
      <trkpt lat="43.47646" lon="6.5651">
        <ele>33.9</ele>
        <time>2025-02-26T13:03:10Z</time>
      </trkpt>
      <trkpt lat="43.47645" lon="6.56509">
        <ele>33.8</ele>
        <time>2025-02-26T13:03:11Z</time>
      </trkpt>
      <trkpt lat="43.47644" lon="6.5651">
        <ele>33.8</ele>
        <time>2025-02-26T13:03:12Z</time>
      </trkpt>
      <trkpt lat="43.47643" lon="6.5651">
        <ele>33.7</ele>
        <time>2025-02-26T13:03:13Z</time>
      </trkpt>
      <trkpt lat="43.47643" lon="6.56511">
        <ele>33.8</ele>
        <time>2025-02-26T13:03:14Z</time>
      </trkpt>
      <trkpt lat="43.47643" lon="6.56511">
        <ele>33.9</ele>
        <time>2025-02-26T13:03:15Z</time>
      </trkpt>
      <trkpt lat="43.47642" lon="6.56512">
        <ele>34</ele>
        <time>2025-02-26T13:03:16Z</time>
      </trkpt>
      <trkpt lat="43.47642" lon="6.56512">
        <ele>34</ele>
        <time>2025-02-26T13:03:17Z</time>
      </trkpt>
      <trkpt lat="43.47641" lon="6.56511">
        <ele>34</ele>
        <time>2025-02-26T13:03:18Z</time>
      </trkpt>
      <trkpt lat="43.47641" lon="6.56511">
        <ele>34.1</ele>
        <time>2025-02-26T13:03:19Z</time>
      </trkpt>
      <trkpt lat="43.4764" lon="6.56511">
        <ele>34</ele>
        <time>2025-02-26T13:03:20Z</time>
      </trkpt>
      <trkpt lat="43.47639" lon="6.5651">
        <ele>34</ele>
        <time>2025-02-26T13:03:21Z</time>
      </trkpt>
      <trkpt lat="43.47638" lon="6.5651">
        <ele>34</ele>
        <time>2025-02-26T13:03:22Z</time>
      </trkpt>
      <trkpt lat="43.47638" lon="6.5651">
        <ele>34</ele>
        <time>2025-02-26T13:03:23Z</time>
      </trkpt>
      <trkpt lat="43.47638" lon="6.5651">
        <ele>34</ele>
        <time>2025-02-26T13:03:24Z</time>
      </trkpt>
      <trkpt lat="43.47637" lon="6.5651">
        <ele>34.1</ele>
        <time>2025-02-26T13:03:25Z</time>
      </trkpt>
      <trkpt lat="43.47637" lon="6.5651">
        <ele>34.1</ele>
        <time>2025-02-26T13:03:26Z</time>
      </trkpt>
      <trkpt lat="43.47637" lon="6.56509">
        <ele>34.2</ele>
        <time>2025-02-26T13:03:27Z</time>
      </trkpt>
      <trkpt lat="43.47636" lon="6.56509">
        <ele>34.3</ele>
        <time>2025-02-26T13:03:28Z</time>
      </trkpt>
      <trkpt lat="43.47636" lon="6.56509">
        <ele>34.3</ele>
        <time>2025-02-26T13:03:29Z</time>
      </trkpt>
      <trkpt lat="43.47635" lon="6.56509">
        <ele>34.4</ele>
        <time>2025-02-26T13:03:30Z</time>
      </trkpt>
      <trkpt lat="43.47634" lon="6.56509">
        <ele>34.5</ele>
        <time>2025-02-26T13:03:31Z</time>
      </trkpt>
      <trkpt lat="43.47634" lon="6.56509">
        <ele>34.6</ele>
        <time>2025-02-26T13:03:32Z</time>
      </trkpt>
      <trkpt lat="43.47633" lon="6.56509">
        <ele>34.6</ele>
        <time>2025-02-26T13:03:33Z</time>
      </trkpt>
      <trkpt lat="43.47632" lon="6.56509">
        <ele>34.7</ele>
        <time>2025-02-26T13:03:34Z</time>
      </trkpt>
      <trkpt lat="43.47632" lon="6.5651">
        <ele>34.6</ele>
        <time>2025-02-26T13:03:35Z</time>
      </trkpt>
      <trkpt lat="43.47632" lon="6.5651">
        <ele>34.7</ele>
        <time>2025-02-26T13:03:36Z</time>
      </trkpt>
      <trkpt lat="43.47631" lon="6.5651">
        <ele>34.7</ele>
        <time>2025-02-26T13:03:37Z</time>
      </trkpt>
      <trkpt lat="43.47631" lon="6.5651">
        <ele>34.6</ele>
        <time>2025-02-26T13:03:38Z</time>
      </trkpt>
      <trkpt lat="43.47631" lon="6.5651">
        <ele>34.7</ele>
        <time>2025-02-26T13:03:39Z</time>
      </trkpt>
      <trkpt lat="43.47631" lon="6.5651">
        <ele>34.6</ele>
        <time>2025-02-26T13:03:40Z</time>
      </trkpt>
      <trkpt lat="43.4763" lon="6.5651">
        <ele>34.5</ele>
        <time>2025-02-26T13:03:41Z</time>
      </trkpt>
      <trkpt lat="43.4763" lon="6.5651">
        <ele>34.4</ele>
        <time>2025-02-26T13:03:42Z</time>
      </trkpt>
      <trkpt lat="43.4763" lon="6.5651">
        <ele>34.4</ele>
        <time>2025-02-26T13:03:43Z</time>
      </trkpt>
      <trkpt lat="43.4763" lon="6.56509">
        <ele>34.2</ele>
        <time>2025-02-26T13:03:44Z</time>
      </trkpt>
      <trkpt lat="43.4763" lon="6.56509">
        <ele>34.2</ele>
        <time>2025-02-26T13:03:45Z</time>
      </trkpt>
      <trkpt lat="43.4763" lon="6.5651">
        <ele>34.2</ele>
        <time>2025-02-26T13:03:46Z</time>
      </trkpt>
      <trkpt lat="43.4763" lon="6.5651">
        <ele>34.2</ele>
        <time>2025-02-26T13:03:47Z</time>
      </trkpt>
      <trkpt lat="43.47629" lon="6.5651">
        <ele>34.2</ele>
        <time>2025-02-26T13:03:48Z</time>
      </trkpt>
      <trkpt lat="43.47629" lon="6.5651">
        <ele>34.1</ele>
        <time>2025-02-26T13:03:49Z</time>
      </trkpt>
      <trkpt lat="43.47629" lon="6.5651">
        <ele>34.1</ele>
        <time>2025-02-26T13:03:50Z</time>
      </trkpt>
      <trkpt lat="43.47629" lon="6.5651">
        <ele>34.1</ele>
        <time>2025-02-26T13:03:51Z</time>
      </trkpt>
      <trkpt lat="43.47629" lon="6.5651">
        <ele>34</ele>
        <time>2025-02-26T13:03:52Z</time>
      </trkpt>
      <trkpt lat="43.4763" lon="6.5651">
        <ele>34.1</ele>
        <time>2025-02-26T13:03:53Z</time>
      </trkpt>
      <trkpt lat="43.4763" lon="6.5651">
        <ele>34.2</ele>
        <time>2025-02-26T13:03:54Z</time>
      </trkpt>
      <trkpt lat="43.47629" lon="6.5651">
        <ele>34.3</ele>
        <time>2025-02-26T13:03:55Z</time>
      </trkpt>
      <trkpt lat="43.47629" lon="6.56509">
        <ele>34.2</ele>
        <time>2025-02-26T13:03:56Z</time>
      </trkpt>
      <trkpt lat="43.47628" lon="6.56509">
        <ele>34.1</ele>
        <time>2025-02-26T13:03:57Z</time>
      </trkpt>
      <trkpt lat="43.47628" lon="6.56509">
        <ele>34.1</ele>
        <time>2025-02-26T13:03:58Z</time>
      </trkpt>
      <trkpt lat="43.47628" lon="6.56509">
        <ele>34.2</ele>
        <time>2025-02-26T13:03:59Z</time>
      </trkpt>
      <trkpt lat="43.47628" lon="6.56509">
        <ele>34.3</ele>
        <time>2025-02-26T13:04:00Z</time>
      </trkpt>
      <trkpt lat="43.47628" lon="6.56509">
        <ele>34.4</ele>
        <time>2025-02-26T13:04:01Z</time>
      </trkpt>
      <trkpt lat="43.47628" lon="6.56509">
        <ele>34.4</ele>
        <time>2025-02-26T13:04:02Z</time>
      </trkpt>
      <trkpt lat="43.47628" lon="6.56509">
        <ele>34.4</ele>
        <time>2025-02-26T13:04:03Z</time>
      </trkpt>
      <trkpt lat="43.47628" lon="6.56509">
        <ele>34.3</ele>
        <time>2025-02-26T13:04:04Z</time>
      </trkpt>
      <trkpt lat="43.47628" lon="6.56509">
        <ele>34.3</ele>
        <time>2025-02-26T13:04:05Z</time>
      </trkpt>
      <trkpt lat="43.47627" lon="6.56509">
        <ele>34.3</ele>
        <time>2025-02-26T13:04:06Z</time>
      </trkpt>
      <trkpt lat="43.47627" lon="6.56509">
        <ele>34.3</ele>
        <time>2025-02-26T13:04:07Z</time>
      </trkpt>
      <trkpt lat="43.47627" lon="6.56509">
        <ele>34.3</ele>
        <time>2025-02-26T13:04:08Z</time>
      </trkpt>
      <trkpt lat="43.47627" lon="6.56509">
        <ele>34.3</ele>
        <time>2025-02-26T13:04:09Z</time>
      </trkpt>
      <trkpt lat="43.47627" lon="6.56509">
        <ele>34.2</ele>
        <time>2025-02-26T13:04:10Z</time>
      </trkpt>
      <trkpt lat="43.47627" lon="6.5651">
        <ele>34.2</ele>
        <time>2025-02-26T13:04:11Z</time>
      </trkpt>
      <trkpt lat="43.47627" lon="6.5651">
        <ele>34.2</ele>
        <time>2025-02-26T13:04:12Z</time>
      </trkpt>
      <trkpt lat="43.47627" lon="6.5651">
        <ele>34.2</ele>
        <time>2025-02-26T13:04:13Z</time>
      </trkpt>
      <trkpt lat="43.47627" lon="6.5651">
        <ele>34.2</ele>
        <time>2025-02-26T13:04:14Z</time>
      </trkpt>
      <trkpt lat="43.47627" lon="6.5651">
        <ele>34.2</ele>
        <time>2025-02-26T13:04:15Z</time>
      </trkpt>
      <trkpt lat="43.47627" lon="6.5651">
        <ele>34.2</ele>
        <time>2025-02-26T13:04:16Z</time>
      </trkpt>
      <trkpt lat="43.47627" lon="6.5651">
        <ele>34.3</ele>
        <time>2025-02-26T13:04:17Z</time>
      </trkpt>
      <trkpt lat="43.47627" lon="6.5651">
        <ele>34.4</ele>
        <time>2025-02-26T13:04:18Z</time>
      </trkpt>
      <trkpt lat="43.47627" lon="6.5651">
        <ele>34.4</ele>
        <time>2025-02-26T13:04:19Z</time>
      </trkpt>
      <trkpt lat="43.47627" lon="6.5651">
        <ele>34.3</ele>
        <time>2025-02-26T13:04:20Z</time>
      </trkpt>
      <trkpt lat="43.47627" lon="6.5651">
        <ele>34.2</ele>
        <time>2025-02-26T13:04:21Z</time>
      </trkpt>
      <trkpt lat="43.47627" lon="6.5651">
        <ele>34.2</ele>
        <time>2025-02-26T13:04:22Z</time>
      </trkpt>
      <trkpt lat="43.47627" lon="6.56511">
        <ele>34.1</ele>
        <time>2025-02-26T13:04:23Z</time>
      </trkpt>
      <trkpt lat="43.47627" lon="6.56511">
        <ele>34.1</ele>
        <time>2025-02-26T13:04:24Z</time>
      </trkpt>
      <trkpt lat="43.47626" lon="6.5651">
        <ele>34.2</ele>
        <time>2025-02-26T13:04:25Z</time>
      </trkpt>
      <trkpt lat="43.47627" lon="6.56509">
        <ele>34.3</ele>
        <time>2025-02-26T13:04:26Z</time>
      </trkpt>
      <trkpt lat="43.47626" lon="6.56509">
        <ele>34.4</ele>
        <time>2025-02-26T13:04:27Z</time>
      </trkpt>
      <trkpt lat="43.47626" lon="6.56509">
        <ele>34.4</ele>
        <time>2025-02-26T13:04:28Z</time>
      </trkpt>
      <trkpt lat="43.47626" lon="6.56509">
        <ele>34.3</ele>
        <time>2025-02-26T13:04:29Z</time>
      </trkpt>
      <trkpt lat="43.47626" lon="6.56509">
        <ele>34.4</ele>
        <time>2025-02-26T13:04:30Z</time>
      </trkpt>
      <trkpt lat="43.47626" lon="6.56509">
        <ele>34.4</ele>
        <time>2025-02-26T13:04:31Z</time>
      </trkpt>
      <trkpt lat="43.47626" lon="6.56509">
        <ele>34.3</ele>
        <time>2025-02-26T13:04:32Z</time>
      </trkpt>
      <trkpt lat="43.47626" lon="6.56509">
        <ele>34.3</ele>
        <time>2025-02-26T13:04:33Z</time>
      </trkpt>
      <trkpt lat="43.47626" lon="6.56509">
        <ele>34.1</ele>
        <time>2025-02-26T13:04:34Z</time>
      </trkpt>
      <trkpt lat="43.47626" lon="6.56509">
        <ele>34.2</ele>
        <time>2025-02-26T13:04:35Z</time>
      </trkpt>
      <trkpt lat="43.47626" lon="6.56509">
        <ele>34.2</ele>
        <time>2025-02-26T13:04:36Z</time>
      </trkpt>
      <trkpt lat="43.47626" lon="6.5651">
        <ele>34.2</ele>
        <time>2025-02-26T13:04:37Z</time>
      </trkpt>
      <trkpt lat="43.47626" lon="6.5651">
        <ele>34.3</ele>
        <time>2025-02-26T13:04:38Z</time>
      </trkpt>
      <trkpt lat="43.47625" lon="6.5651">
        <ele>34.3</ele>
        <time>2025-02-26T13:04:39Z</time>
      </trkpt>
      <trkpt lat="43.47626" lon="6.5651">
        <ele>34.3</ele>
        <time>2025-02-26T13:04:40Z</time>
      </trkpt>
      <trkpt lat="43.47626" lon="6.5651">
        <ele>34.4</ele>
        <time>2025-02-26T13:04:41Z</time>
      </trkpt>
      <trkpt lat="43.47626" lon="6.5651">
        <ele>34.4</ele>
        <time>2025-02-26T13:04:42Z</time>
      </trkpt>
      <trkpt lat="43.47625" lon="6.5651">
        <ele>34.5</ele>
        <time>2025-02-26T13:04:43Z</time>
      </trkpt>
      <trkpt lat="43.47625" lon="6.5651">
        <ele>34.5</ele>
        <time>2025-02-26T13:04:44Z</time>
      </trkpt>
      <trkpt lat="43.47625" lon="6.5651">
        <ele>34.5</ele>
        <time>2025-02-26T13:04:45Z</time>
      </trkpt>
      <trkpt lat="43.47625" lon="6.5651">
        <ele>34.6</ele>
        <time>2025-02-26T13:04:46Z</time>
      </trkpt>
      <trkpt lat="43.47625" lon="6.5651">
        <ele>34.7</ele>
        <time>2025-02-26T13:04:47Z</time>
      </trkpt>
      <trkpt lat="43.47624" lon="6.5651">
        <ele>34.8</ele>
        <time>2025-02-26T13:04:48Z</time>
      </trkpt>
      <trkpt lat="43.47624" lon="6.5651">
        <ele>34.8</ele>
        <time>2025-02-26T13:04:49Z</time>
      </trkpt>
      <trkpt lat="43.47624" lon="6.5651">
        <ele>34.7</ele>
        <time>2025-02-26T13:04:50Z</time>
      </trkpt>
      <trkpt lat="43.47624" lon="6.56509">
        <ele>34.7</ele>
        <time>2025-02-26T13:04:51Z</time>
      </trkpt>
      <trkpt lat="43.47624" lon="6.56509">
        <ele>34.7</ele>
        <time>2025-02-26T13:04:52Z</time>
      </trkpt>
      <trkpt lat="43.47624" lon="6.56509">
        <ele>34.6</ele>
        <time>2025-02-26T13:04:53Z</time>
      </trkpt>
      <trkpt lat="43.47623" lon="6.56509">
        <ele>34.7</ele>
        <time>2025-02-26T13:04:54Z</time>
      </trkpt>
      <trkpt lat="43.47624" lon="6.56509">
        <ele>34.7</ele>
        <time>2025-02-26T13:04:55Z</time>
      </trkpt>
      <trkpt lat="43.47624" lon="6.56509">
        <ele>34.6</ele>
        <time>2025-02-26T13:04:56Z</time>
      </trkpt>
      <trkpt lat="43.47624" lon="6.56509">
        <ele>34.6</ele>
        <time>2025-02-26T13:04:57Z</time>
      </trkpt>
      <trkpt lat="43.47624" lon="6.56509">
        <ele>34.6</ele>
        <time>2025-02-26T13:04:58Z</time>
      </trkpt>
      <trkpt lat="43.47623" lon="6.56509">
        <ele>34.5</ele>
        <time>2025-02-26T13:04:59Z</time>
      </trkpt>
      <trkpt lat="43.47623" lon="6.56509">
        <ele>34.5</ele>
        <time>2025-02-26T13:05:00Z</time>
      </trkpt>
      <trkpt lat="43.47623" lon="6.56508">
        <ele>34.5</ele>
        <time>2025-02-26T13:05:01Z</time>
      </trkpt>
      <trkpt lat="43.47623" lon="6.56508">
        <ele>34.5</ele>
        <time>2025-02-26T13:05:02Z</time>
      </trkpt>
      <trkpt lat="43.47623" lon="6.56508">
        <ele>34.6</ele>
        <time>2025-02-26T13:05:03Z</time>
      </trkpt>
      <trkpt lat="43.47623" lon="6.56508">
        <ele>34.6</ele>
        <time>2025-02-26T13:05:04Z</time>
      </trkpt>
      <trkpt lat="43.47623" lon="6.56508">
        <ele>34.5</ele>
        <time>2025-02-26T13:05:05Z</time>
      </trkpt>
      <trkpt lat="43.47623" lon="6.56508">
        <ele>34.5</ele>
        <time>2025-02-26T13:05:06Z</time>
      </trkpt>
      <trkpt lat="43.47623" lon="6.56508">
        <ele>34.5</ele>
        <time>2025-02-26T13:05:07Z</time>
      </trkpt>
      <trkpt lat="43.47623" lon="6.56508">
        <ele>34.5</ele>
        <time>2025-02-26T13:05:08Z</time>
      </trkpt>
      <trkpt lat="43.47623" lon="6.56508">
        <ele>34.5</ele>
        <time>2025-02-26T13:05:09Z</time>
      </trkpt>
      <trkpt lat="43.47623" lon="6.56508">
        <ele>34.5</ele>
        <time>2025-02-26T13:05:10Z</time>
      </trkpt>
      <trkpt lat="43.47623" lon="6.56508">
        <ele>34.6</ele>
        <time>2025-02-26T13:05:11Z</time>
      </trkpt>
      <trkpt lat="43.47623" lon="6.56508">
        <ele>34.6</ele>
        <time>2025-02-26T13:05:12Z</time>
      </trkpt>
      <trkpt lat="43.47623" lon="6.56508">
        <ele>34.6</ele>
        <time>2025-02-26T13:05:13Z</time>
      </trkpt>
      <trkpt lat="43.47623" lon="6.56508">
        <ele>34.6</ele>
        <time>2025-02-26T13:05:14Z</time>
      </trkpt>
      <trkpt lat="43.47623" lon="6.56508">
        <ele>34.6</ele>
        <time>2025-02-26T13:05:15Z</time>
      </trkpt>
      <trkpt lat="43.47623" lon="6.56508">
        <ele>34.6</ele>
        <time>2025-02-26T13:05:16Z</time>
      </trkpt>
      <trkpt lat="43.47623" lon="6.56508">
        <ele>34.6</ele>
        <time>2025-02-26T13:05:17Z</time>
      </trkpt>
      <trkpt lat="43.47623" lon="6.56508">
        <ele>34.6</ele>
        <time>2025-02-26T13:05:18Z</time>
      </trkpt>
      <trkpt lat="43.47623" lon="6.56508">
        <ele>34.5</ele>
        <time>2025-02-26T13:05:19Z</time>
      </trkpt>
      <trkpt lat="43.47623" lon="6.56508">
        <ele>34.5</ele>
        <time>2025-02-26T13:05:20Z</time>
      </trkpt>
      <trkpt lat="43.47623" lon="6.56508">
        <ele>34.5</ele>
        <time>2025-02-26T13:05:21Z</time>
      </trkpt>
      <trkpt lat="43.47622" lon="6.56508">
        <ele>34.4</ele>
        <time>2025-02-26T13:05:22Z</time>
      </trkpt>
      <trkpt lat="43.47622" lon="6.56508">
        <ele>34.5</ele>
        <time>2025-02-26T13:05:23Z</time>
      </trkpt>
      <trkpt lat="43.47622" lon="6.56508">
        <ele>34.5</ele>
        <time>2025-02-26T13:05:24Z</time>
      </trkpt>
      <trkpt lat="43.47622" lon="6.56508">
        <ele>34.5</ele>
        <time>2025-02-26T13:05:25Z</time>
      </trkpt>
      <trkpt lat="43.47622" lon="6.56509">
        <ele>34.5</ele>
        <time>2025-02-26T13:05:26Z</time>
      </trkpt>
      <trkpt lat="43.47622" lon="6.56508">
        <ele>34.5</ele>
        <time>2025-02-26T13:05:27Z</time>
      </trkpt>
      <trkpt lat="43.47622" lon="6.56509">
        <ele>34.4</ele>
        <time>2025-02-26T13:05:28Z</time>
      </trkpt>
      <trkpt lat="43.47622" lon="6.56509">
        <ele>34.4</ele>
        <time>2025-02-26T13:05:29Z</time>
      </trkpt>
      <trkpt lat="43.47622" lon="6.56509">
        <ele>34.4</ele>
        <time>2025-02-26T13:05:30Z</time>
      </trkpt>
      <trkpt lat="43.47622" lon="6.56509">
        <ele>34.3</ele>
        <time>2025-02-26T13:05:31Z</time>
      </trkpt>
      <trkpt lat="43.47622" lon="6.56509">
        <ele>34.3</ele>
        <time>2025-02-26T13:05:32Z</time>
      </trkpt>
      <trkpt lat="43.47622" lon="6.56509">
        <ele>34.3</ele>
        <time>2025-02-26T13:05:33Z</time>
      </trkpt>
      <trkpt lat="43.47622" lon="6.56509">
        <ele>34.4</ele>
        <time>2025-02-26T13:05:34Z</time>
      </trkpt>
      <trkpt lat="43.47622" lon="6.56509">
        <ele>34.5</ele>
        <time>2025-02-26T13:05:35Z</time>
      </trkpt>
      <trkpt lat="43.47622" lon="6.56509">
        <ele>34.6</ele>
        <time>2025-02-26T13:05:36Z</time>
      </trkpt>
      <trkpt lat="43.47622" lon="6.56509">
        <ele>34.7</ele>
        <time>2025-02-26T13:05:37Z</time>
      </trkpt>
      <trkpt lat="43.47622" lon="6.5651">
        <ele>34.7</ele>
        <time>2025-02-26T13:05:38Z</time>
      </trkpt>
      <trkpt lat="43.47622" lon="6.56509">
        <ele>34.8</ele>
        <time>2025-02-26T13:05:39Z</time>
      </trkpt>
      <trkpt lat="43.47622" lon="6.56509">
        <ele>34.8</ele>
        <time>2025-02-26T13:05:40Z</time>
      </trkpt>
      <trkpt lat="43.47622" lon="6.5651">
        <ele>34.8</ele>
        <time>2025-02-26T13:05:41Z</time>
      </trkpt>
      <trkpt lat="43.47622" lon="6.5651">
        <ele>34.8</ele>
        <time>2025-02-26T13:05:42Z</time>
      </trkpt>
      <trkpt lat="43.47622" lon="6.5651">
        <ele>34.8</ele>
        <time>2025-02-26T13:05:43Z</time>
      </trkpt>
      <trkpt lat="43.47622" lon="6.5651">
        <ele>34.9</ele>
        <time>2025-02-26T13:05:44Z</time>
      </trkpt>
      <trkpt lat="43.47622" lon="6.5651">
        <ele>34.9</ele>
        <time>2025-02-26T13:05:45Z</time>
      </trkpt>
      <trkpt lat="43.47622" lon="6.5651">
        <ele>34.9</ele>
        <time>2025-02-26T13:05:46Z</time>
      </trkpt>
      <trkpt lat="43.47622" lon="6.5651">
        <ele>34.9</ele>
        <time>2025-02-26T13:05:47Z</time>
      </trkpt>
      <trkpt lat="43.47622" lon="6.5651">
        <ele>34.9</ele>
        <time>2025-02-26T13:05:48Z</time>
      </trkpt>
      <trkpt lat="43.47623" lon="6.5651">
        <ele>35</ele>
        <time>2025-02-26T13:05:49Z</time>
      </trkpt>
      <trkpt lat="43.47622" lon="6.56511">
        <ele>35</ele>
        <time>2025-02-26T13:05:50Z</time>
      </trkpt>
      <trkpt lat="43.47622" lon="6.56511">
        <ele>35</ele>
        <time>2025-02-26T13:05:51Z</time>
      </trkpt>
      <trkpt lat="43.47622" lon="6.56511">
        <ele>35</ele>
        <time>2025-02-26T13:05:52Z</time>
      </trkpt>
      <trkpt lat="43.47622" lon="6.56511">
        <ele>34.9</ele>
        <time>2025-02-26T13:05:53Z</time>
      </trkpt>
      <trkpt lat="43.47622" lon="6.56511">
        <ele>34.9</ele>
        <time>2025-02-26T13:05:54Z</time>
      </trkpt>
      <trkpt lat="43.47622" lon="6.56511">
        <ele>34.8</ele>
        <time>2025-02-26T13:05:55Z</time>
      </trkpt>
      <trkpt lat="43.47622" lon="6.56511">
        <ele>34.7</ele>
        <time>2025-02-26T13:05:56Z</time>
      </trkpt>
      <trkpt lat="43.47622" lon="6.56511">
        <ele>34.7</ele>
        <time>2025-02-26T13:05:57Z</time>
      </trkpt>
      <trkpt lat="43.47623" lon="6.56511">
        <ele>34.6</ele>
        <time>2025-02-26T13:05:58Z</time>
      </trkpt>
      <trkpt lat="43.47622" lon="6.56511">
        <ele>34.6</ele>
        <time>2025-02-26T13:05:59Z</time>
      </trkpt>
      <trkpt lat="43.47621" lon="6.56511">
        <ele>34.5</ele>
        <time>2025-02-26T13:06:00Z</time>
      </trkpt>
      <trkpt lat="43.47621" lon="6.56511">
        <ele>34.5</ele>
        <time>2025-02-26T13:06:01Z</time>
      </trkpt>
      <trkpt lat="43.47621" lon="6.56511">
        <ele>34.4</ele>
        <time>2025-02-26T13:06:02Z</time>
      </trkpt>
      <trkpt lat="43.47621" lon="6.56511">
        <ele>34.4</ele>
        <time>2025-02-26T13:06:03Z</time>
      </trkpt>
      <trkpt lat="43.47621" lon="6.56511">
        <ele>34.5</ele>
        <time>2025-02-26T13:06:04Z</time>
      </trkpt>
      <trkpt lat="43.47621" lon="6.56511">
        <ele>34.5</ele>
        <time>2025-02-26T13:06:05Z</time>
      </trkpt>
      <trkpt lat="43.47621" lon="6.56511">
        <ele>34.5</ele>
        <time>2025-02-26T13:06:06Z</time>
      </trkpt>
      <trkpt lat="43.47621" lon="6.56511">
        <ele>34.6</ele>
        <time>2025-02-26T13:06:07Z</time>
      </trkpt>
      <trkpt lat="43.47621" lon="6.56511">
        <ele>34.5</ele>
        <time>2025-02-26T13:06:08Z</time>
      </trkpt>
      <trkpt lat="43.47621" lon="6.56511">
        <ele>34.5</ele>
        <time>2025-02-26T13:06:09Z</time>
      </trkpt>
      <trkpt lat="43.47621" lon="6.56511">
        <ele>34.5</ele>
        <time>2025-02-26T13:06:10Z</time>
      </trkpt>
      <trkpt lat="43.47621" lon="6.56511">
        <ele>34.5</ele>
        <time>2025-02-26T13:06:11Z</time>
      </trkpt>
      <trkpt lat="43.4762" lon="6.56511">
        <ele>34.5</ele>
        <time>2025-02-26T13:06:12Z</time>
      </trkpt>
      <trkpt lat="43.4762" lon="6.56511">
        <ele>34.5</ele>
        <time>2025-02-26T13:06:13Z</time>
      </trkpt>
      <trkpt lat="43.4762" lon="6.56511">
        <ele>34.5</ele>
        <time>2025-02-26T13:06:14Z</time>
      </trkpt>
      <trkpt lat="43.4762" lon="6.56511">
        <ele>34.5</ele>
        <time>2025-02-26T13:06:15Z</time>
      </trkpt>
      <trkpt lat="43.4762" lon="6.56511">
        <ele>34.5</ele>
        <time>2025-02-26T13:06:16Z</time>
      </trkpt>
      <trkpt lat="43.4762" lon="6.56511">
        <ele>34.5</ele>
        <time>2025-02-26T13:06:17Z</time>
      </trkpt>
      <trkpt lat="43.4762" lon="6.56511">
        <ele>34.5</ele>
        <time>2025-02-26T13:06:18Z</time>
      </trkpt>
      <trkpt lat="43.4762" lon="6.56511">
        <ele>34.4</ele>
        <time>2025-02-26T13:06:19Z</time>
      </trkpt>
      <trkpt lat="43.4762" lon="6.56511">
        <ele>34.4</ele>
        <time>2025-02-26T13:06:20Z</time>
      </trkpt>
      <trkpt lat="43.47619" lon="6.56511">
        <ele>34.4</ele>
        <time>2025-02-26T13:06:21Z</time>
      </trkpt>
      <trkpt lat="43.47618" lon="6.56511">
        <ele>34.4</ele>
        <time>2025-02-26T13:06:22Z</time>
      </trkpt>
      <trkpt lat="43.47618" lon="6.56511">
        <ele>34.4</ele>
        <time>2025-02-26T13:06:23Z</time>
      </trkpt>
      <trkpt lat="43.47617" lon="6.56511">
        <ele>34.4</ele>
        <time>2025-02-26T13:06:24Z</time>
      </trkpt>
      <trkpt lat="43.47617" lon="6.5651">
        <ele>34.3</ele>
        <time>2025-02-26T13:06:25Z</time>
      </trkpt>
      <trkpt lat="43.47616" lon="6.5651">
        <ele>34.2</ele>
        <time>2025-02-26T13:06:26Z</time>
      </trkpt>
      <trkpt lat="43.47615" lon="6.56511">
        <ele>34.1</ele>
        <time>2025-02-26T13:06:27Z</time>
      </trkpt>
      <trkpt lat="43.47614" lon="6.56511">
        <ele>34.2</ele>
        <time>2025-02-26T13:06:28Z</time>
      </trkpt>
      <trkpt lat="43.47612" lon="6.56511">
        <ele>34.2</ele>
        <time>2025-02-26T13:06:29Z</time>
      </trkpt>
      <trkpt lat="43.47611" lon="6.56512">
        <ele>34.2</ele>
        <time>2025-02-26T13:06:30Z</time>
      </trkpt>
      <trkpt lat="43.4761" lon="6.56513">
        <ele>34.2</ele>
        <time>2025-02-26T13:06:31Z</time>
      </trkpt>
      <trkpt lat="43.47609" lon="6.56515">
        <ele>34.1</ele>
        <time>2025-02-26T13:06:32Z</time>
      </trkpt>
      <trkpt lat="43.47609" lon="6.56516">
        <ele>33.9</ele>
        <time>2025-02-26T13:06:33Z</time>
      </trkpt>
      <trkpt lat="43.47609" lon="6.56517">
        <ele>33.9</ele>
        <time>2025-02-26T13:06:34Z</time>
      </trkpt>
      <trkpt lat="43.47609" lon="6.56519">
        <ele>33.7</ele>
        <time>2025-02-26T13:06:35Z</time>
      </trkpt>
      <trkpt lat="43.4761" lon="6.5652">
        <ele>33.6</ele>
        <time>2025-02-26T13:06:36Z</time>
      </trkpt>
      <trkpt lat="43.4761" lon="6.56521">
        <ele>33.5</ele>
        <time>2025-02-26T13:06:37Z</time>
      </trkpt>
      <trkpt lat="43.4761" lon="6.56521">
        <ele>33.4</ele>
        <time>2025-02-26T13:06:38Z</time>
      </trkpt>
      <trkpt lat="43.47611" lon="6.56522">
        <ele>33.3</ele>
        <time>2025-02-26T13:06:39Z</time>
      </trkpt>
      <trkpt lat="43.47611" lon="6.56523">
        <ele>33.2</ele>
        <time>2025-02-26T13:06:40Z</time>
      </trkpt>
      <trkpt lat="43.47611" lon="6.56523">
        <ele>33.2</ele>
        <time>2025-02-26T13:06:41Z</time>
      </trkpt>
      <trkpt lat="43.47611" lon="6.56524">
        <ele>33.3</ele>
        <time>2025-02-26T13:06:42Z</time>
      </trkpt>
      <trkpt lat="43.47611" lon="6.56525">
        <ele>33.2</ele>
        <time>2025-02-26T13:06:43Z</time>
      </trkpt>
      <trkpt lat="43.47612" lon="6.56526">
        <ele>33.3</ele>
        <time>2025-02-26T13:06:44Z</time>
      </trkpt>
      <trkpt lat="43.47612" lon="6.56526">
        <ele>33.4</ele>
        <time>2025-02-26T13:06:45Z</time>
      </trkpt>
      <trkpt lat="43.47614" lon="6.56527">
        <ele>33.4</ele>
        <time>2025-02-26T13:06:46Z</time>
      </trkpt>
      <trkpt lat="43.47615" lon="6.56528">
        <ele>33.4</ele>
        <time>2025-02-26T13:06:47Z</time>
      </trkpt>
      <trkpt lat="43.47616" lon="6.56528">
        <ele>33.4</ele>
        <time>2025-02-26T13:06:48Z</time>
      </trkpt>
      <trkpt lat="43.47618" lon="6.56528">
        <ele>33.2</ele>
        <time>2025-02-26T13:06:49Z</time>
      </trkpt>
      <trkpt lat="43.47619" lon="6.56528">
        <ele>33.1</ele>
        <time>2025-02-26T13:06:50Z</time>
      </trkpt>
      <trkpt lat="43.4762" lon="6.56528">
        <ele>33</ele>
        <time>2025-02-26T13:06:51Z</time>
      </trkpt>
      <trkpt lat="43.47621" lon="6.56528">
        <ele>33.1</ele>
        <time>2025-02-26T13:06:52Z</time>
      </trkpt>
      <trkpt lat="43.47622" lon="6.56529">
        <ele>33</ele>
        <time>2025-02-26T13:06:53Z</time>
      </trkpt>
      <trkpt lat="43.47624" lon="6.5653">
        <ele>33</ele>
        <time>2025-02-26T13:06:54Z</time>
      </trkpt>
      <trkpt lat="43.47625" lon="6.56531">
        <ele>33.1</ele>
        <time>2025-02-26T13:06:55Z</time>
      </trkpt>
      <trkpt lat="43.47625" lon="6.56531">
        <ele>33.2</ele>
        <time>2025-02-26T13:06:56Z</time>
      </trkpt>
      <trkpt lat="43.47626" lon="6.56532">
        <ele>33.1</ele>
        <time>2025-02-26T13:06:57Z</time>
      </trkpt>
      <trkpt lat="43.47627" lon="6.56532">
        <ele>33</ele>
        <time>2025-02-26T13:06:58Z</time>
      </trkpt>
      <trkpt lat="43.47628" lon="6.56533">
        <ele>33</ele>
        <time>2025-02-26T13:06:59Z</time>
      </trkpt>
      <trkpt lat="43.47629" lon="6.56533">
        <ele>33</ele>
        <time>2025-02-26T13:07:00Z</time>
      </trkpt>
      <trkpt lat="43.4763" lon="6.56533">
        <ele>33</ele>
        <time>2025-02-26T13:07:01Z</time>
      </trkpt>
      <trkpt lat="43.47631" lon="6.56534">
        <ele>33</ele>
        <time>2025-02-26T13:07:02Z</time>
      </trkpt>
      <trkpt lat="43.47632" lon="6.56535">
        <ele>33</ele>
        <time>2025-02-26T13:07:03Z</time>
      </trkpt>
      <trkpt lat="43.47633" lon="6.56535">
        <ele>33</ele>
        <time>2025-02-26T13:07:04Z</time>
      </trkpt>
      <trkpt lat="43.47634" lon="6.56536">
        <ele>32.9</ele>
        <time>2025-02-26T13:07:05Z</time>
      </trkpt>
      <trkpt lat="43.47636" lon="6.56536">
        <ele>32.9</ele>
        <time>2025-02-26T13:07:06Z</time>
      </trkpt>
      <trkpt lat="43.47637" lon="6.56536">
        <ele>32.8</ele>
        <time>2025-02-26T13:07:07Z</time>
      </trkpt>
      <trkpt lat="43.47638" lon="6.56536">
        <ele>32.8</ele>
        <time>2025-02-26T13:07:08Z</time>
      </trkpt>
      <trkpt lat="43.47639" lon="6.56536">
        <ele>32.8</ele>
        <time>2025-02-26T13:07:09Z</time>
      </trkpt>
      <trkpt lat="43.4764" lon="6.56536">
        <ele>32.7</ele>
        <time>2025-02-26T13:07:10Z</time>
      </trkpt>
      <trkpt lat="43.47641" lon="6.56536">
        <ele>32.6</ele>
        <time>2025-02-26T13:07:11Z</time>
      </trkpt>
      <trkpt lat="43.47642" lon="6.56536">
        <ele>32.6</ele>
        <time>2025-02-26T13:07:12Z</time>
      </trkpt>
      <trkpt lat="43.47643" lon="6.56536">
        <ele>32.6</ele>
        <time>2025-02-26T13:07:13Z</time>
      </trkpt>
      <trkpt lat="43.47644" lon="6.56537">
        <ele>32</ele>
        <time>2025-02-26T13:07:14Z</time>
      </trkpt>
      <trkpt lat="43.47645" lon="6.56537">
        <ele>32</ele>
        <time>2025-02-26T13:07:15Z</time>
      </trkpt>
      <trkpt lat="43.47646" lon="6.56538">
        <ele>32.2</ele>
        <time>2025-02-26T13:07:16Z</time>
      </trkpt>
      <trkpt lat="43.47647" lon="6.56539">
        <ele>32.3</ele>
        <time>2025-02-26T13:07:17Z</time>
      </trkpt>
      <trkpt lat="43.47647" lon="6.56539">
        <ele>32.2</ele>
        <time>2025-02-26T13:07:18Z</time>
      </trkpt>
      <trkpt lat="43.47648" lon="6.56539">
        <ele>32.2</ele>
        <time>2025-02-26T13:07:19Z</time>
      </trkpt>
      <trkpt lat="43.4765" lon="6.56538">
        <ele>32.2</ele>
        <time>2025-02-26T13:07:20Z</time>
      </trkpt>
      <trkpt lat="43.47651" lon="6.56538">
        <ele>32.2</ele>
        <time>2025-02-26T13:07:21Z</time>
      </trkpt>
      <trkpt lat="43.47652" lon="6.56538">
        <ele>32.2</ele>
        <time>2025-02-26T13:07:22Z</time>
      </trkpt>
      <trkpt lat="43.47653" lon="6.56538">
        <ele>32.2</ele>
        <time>2025-02-26T13:07:23Z</time>
      </trkpt>
      <trkpt lat="43.47654" lon="6.56538">
        <ele>32.2</ele>
        <time>2025-02-26T13:07:24Z</time>
      </trkpt>
      <trkpt lat="43.47655" lon="6.56537">
        <ele>32.2</ele>
        <time>2025-02-26T13:07:25Z</time>
      </trkpt>
      <trkpt lat="43.47656" lon="6.56537">
        <ele>32.2</ele>
        <time>2025-02-26T13:07:26Z</time>
      </trkpt>
      <trkpt lat="43.47656" lon="6.56537">
        <ele>32.1</ele>
        <time>2025-02-26T13:07:27Z</time>
      </trkpt>
      <trkpt lat="43.47658" lon="6.56537">
        <ele>32.1</ele>
        <time>2025-02-26T13:07:28Z</time>
      </trkpt>
      <trkpt lat="43.47659" lon="6.56537">
        <ele>31.9</ele>
        <time>2025-02-26T13:07:29Z</time>
      </trkpt>
      <trkpt lat="43.4766" lon="6.56538">
        <ele>31.8</ele>
        <time>2025-02-26T13:07:30Z</time>
      </trkpt>
      <trkpt lat="43.47661" lon="6.56538">
        <ele>31.7</ele>
        <time>2025-02-26T13:07:31Z</time>
      </trkpt>
      <trkpt lat="43.47662" lon="6.56538">
        <ele>31.7</ele>
        <time>2025-02-26T13:07:32Z</time>
      </trkpt>
      <trkpt lat="43.47663" lon="6.56538">
        <ele>31.5</ele>
        <time>2025-02-26T13:07:33Z</time>
      </trkpt>
      <trkpt lat="43.47664" lon="6.56538">
        <ele>31.5</ele>
        <time>2025-02-26T13:07:34Z</time>
      </trkpt>
      <trkpt lat="43.47665" lon="6.56538">
        <ele>31.4</ele>
        <time>2025-02-26T13:07:35Z</time>
      </trkpt>
      <trkpt lat="43.47666" lon="6.56537">
        <ele>31.4</ele>
        <time>2025-02-26T13:07:36Z</time>
      </trkpt>
      <trkpt lat="43.47666" lon="6.56537">
        <ele>31.3</ele>
        <time>2025-02-26T13:07:37Z</time>
      </trkpt>
      <trkpt lat="43.47667" lon="6.56537">
        <ele>31.2</ele>
        <time>2025-02-26T13:07:38Z</time>
      </trkpt>
      <trkpt lat="43.47666" lon="6.56536">
        <ele>31.2</ele>
        <time>2025-02-26T13:07:39Z</time>
      </trkpt>
      <trkpt lat="43.47667" lon="6.56536">
        <ele>31.1</ele>
        <time>2025-02-26T13:07:40Z</time>
      </trkpt>
      <trkpt lat="43.47668" lon="6.56536">
        <ele>31</ele>
        <time>2025-02-26T13:07:41Z</time>
      </trkpt>
      <trkpt lat="43.4767" lon="6.56535">
        <ele>30.9</ele>
        <time>2025-02-26T13:07:42Z</time>
      </trkpt>
      <trkpt lat="43.47672" lon="6.56534">
        <ele>30.9</ele>
        <time>2025-02-26T13:07:43Z</time>
      </trkpt>
      <trkpt lat="43.47673" lon="6.56534">
        <ele>30.8</ele>
        <time>2025-02-26T13:07:44Z</time>
      </trkpt>
      <trkpt lat="43.47675" lon="6.56533">
        <ele>30.8</ele>
        <time>2025-02-26T13:07:45Z</time>
      </trkpt>
      <trkpt lat="43.47676" lon="6.56532">
        <ele>30.8</ele>
        <time>2025-02-26T13:07:46Z</time>
      </trkpt>
      <trkpt lat="43.47677" lon="6.56531">
        <ele>30.8</ele>
        <time>2025-02-26T13:07:47Z</time>
      </trkpt>
      <trkpt lat="43.47678" lon="6.5653">
        <ele>30.7</ele>
        <time>2025-02-26T13:07:48Z</time>
      </trkpt>
      <trkpt lat="43.47679" lon="6.5653">
        <ele>30.7</ele>
        <time>2025-02-26T13:07:49Z</time>
      </trkpt>
      <trkpt lat="43.4768" lon="6.56529">
        <ele>30.7</ele>
        <time>2025-02-26T13:07:50Z</time>
      </trkpt>
      <trkpt lat="43.47681" lon="6.56528">
        <ele>30.7</ele>
        <time>2025-02-26T13:07:51Z</time>
      </trkpt>
      <trkpt lat="43.47683" lon="6.56528">
        <ele>30.6</ele>
        <time>2025-02-26T13:07:52Z</time>
      </trkpt>
      <trkpt lat="43.47685" lon="6.56527">
        <ele>30.6</ele>
        <time>2025-02-26T13:07:53Z</time>
      </trkpt>
      <trkpt lat="43.47686" lon="6.56527">
        <ele>30.5</ele>
        <time>2025-02-26T13:07:54Z</time>
      </trkpt>
      <trkpt lat="43.47687" lon="6.56526">
        <ele>30.5</ele>
        <time>2025-02-26T13:07:55Z</time>
      </trkpt>
      <trkpt lat="43.47688" lon="6.56525">
        <ele>30.3</ele>
        <time>2025-02-26T13:07:56Z</time>
      </trkpt>
      <trkpt lat="43.47689" lon="6.56525">
        <ele>30.3</ele>
        <time>2025-02-26T13:07:57Z</time>
      </trkpt>
      <trkpt lat="43.47691" lon="6.56526">
        <ele>30.2</ele>
        <time>2025-02-26T13:07:58Z</time>
      </trkpt>
      <trkpt lat="43.47692" lon="6.56526">
        <ele>30.1</ele>
        <time>2025-02-26T13:07:59Z</time>
      </trkpt>
      <trkpt lat="43.47693" lon="6.56525">
        <ele>30.1</ele>
        <time>2025-02-26T13:08:00Z</time>
      </trkpt>
      <trkpt lat="43.47695" lon="6.56525">
        <ele>30.1</ele>
        <time>2025-02-26T13:08:01Z</time>
      </trkpt>
      <trkpt lat="43.47696" lon="6.56524">
        <ele>30.1</ele>
        <time>2025-02-26T13:08:02Z</time>
      </trkpt>
      <trkpt lat="43.47697" lon="6.56524">
        <ele>30.1</ele>
        <time>2025-02-26T13:08:03Z</time>
      </trkpt>
      <trkpt lat="43.47699" lon="6.56523">
        <ele>30.1</ele>
        <time>2025-02-26T13:08:04Z</time>
      </trkpt>
      <trkpt lat="43.477" lon="6.56524">
        <ele>30.1</ele>
        <time>2025-02-26T13:08:05Z</time>
      </trkpt>
      <trkpt lat="43.47702" lon="6.56524">
        <ele>30.1</ele>
        <time>2025-02-26T13:08:06Z</time>
      </trkpt>
      <trkpt lat="43.47703" lon="6.56523">
        <ele>30.1</ele>
        <time>2025-02-26T13:08:07Z</time>
      </trkpt>
      <trkpt lat="43.47704" lon="6.56523">
        <ele>30.1</ele>
        <time>2025-02-26T13:08:08Z</time>
      </trkpt>
      <trkpt lat="43.47706" lon="6.56523">
        <ele>30.1</ele>
        <time>2025-02-26T13:08:09Z</time>
      </trkpt>
      <trkpt lat="43.47707" lon="6.56522">
        <ele>30</ele>
        <time>2025-02-26T13:08:10Z</time>
      </trkpt>
      <trkpt lat="43.47708" lon="6.56522">
        <ele>30</ele>
        <time>2025-02-26T13:08:11Z</time>
      </trkpt>
      <trkpt lat="43.4771" lon="6.56522">
        <ele>30</ele>
        <time>2025-02-26T13:08:12Z</time>
      </trkpt>
      <trkpt lat="43.47711" lon="6.56521">
        <ele>30</ele>
        <time>2025-02-26T13:08:13Z</time>
      </trkpt>
      <trkpt lat="43.47712" lon="6.56521">
        <ele>30</ele>
        <time>2025-02-26T13:08:14Z</time>
      </trkpt>
      <trkpt lat="43.47713" lon="6.56521">
        <ele>30</ele>
        <time>2025-02-26T13:08:15Z</time>
      </trkpt>
      <trkpt lat="43.47715" lon="6.56521">
        <ele>30.2</ele>
        <time>2025-02-26T13:08:16Z</time>
      </trkpt>
      <trkpt lat="43.47716" lon="6.5652">
        <ele>30.2</ele>
        <time>2025-02-26T13:08:17Z</time>
      </trkpt>
      <trkpt lat="43.47717" lon="6.5652">
        <ele>30.4</ele>
        <time>2025-02-26T13:08:18Z</time>
      </trkpt>
      <trkpt lat="43.47718" lon="6.5652">
        <ele>30.4</ele>
        <time>2025-02-26T13:08:19Z</time>
      </trkpt>
      <trkpt lat="43.4772" lon="6.56519">
        <ele>30.5</ele>
        <time>2025-02-26T13:08:20Z</time>
      </trkpt>
      <trkpt lat="43.47721" lon="6.56519">
        <ele>30.5</ele>
        <time>2025-02-26T13:08:21Z</time>
      </trkpt>
      <trkpt lat="43.47722" lon="6.56519">
        <ele>30.6</ele>
        <time>2025-02-26T13:08:22Z</time>
      </trkpt>
      <trkpt lat="43.47723" lon="6.56519">
        <ele>30.6</ele>
        <time>2025-02-26T13:08:23Z</time>
      </trkpt>
      <trkpt lat="43.47724" lon="6.56518">
        <ele>30.6</ele>
        <time>2025-02-26T13:08:24Z</time>
      </trkpt>
      <trkpt lat="43.47725" lon="6.56518">
        <ele>30.8</ele>
        <time>2025-02-26T13:08:25Z</time>
      </trkpt>
      <trkpt lat="43.47727" lon="6.56518">
        <ele>30.8</ele>
        <time>2025-02-26T13:08:26Z</time>
      </trkpt>
      <trkpt lat="43.47728" lon="6.56518">
        <ele>30.8</ele>
        <time>2025-02-26T13:08:27Z</time>
      </trkpt>
      <trkpt lat="43.47729" lon="6.56518">
        <ele>30.7</ele>
        <time>2025-02-26T13:08:28Z</time>
      </trkpt>
      <trkpt lat="43.47731" lon="6.56517">
        <ele>30.7</ele>
        <time>2025-02-26T13:08:29Z</time>
      </trkpt>
      <trkpt lat="43.47732" lon="6.56518">
        <ele>30.7</ele>
        <time>2025-02-26T13:08:30Z</time>
      </trkpt>
      <trkpt lat="43.47733" lon="6.56518">
        <ele>30.8</ele>
        <time>2025-02-26T13:08:31Z</time>
      </trkpt>
      <trkpt lat="43.47735" lon="6.56518">
        <ele>31</ele>
        <time>2025-02-26T13:08:32Z</time>
      </trkpt>
      <trkpt lat="43.47735" lon="6.56519">
        <ele>31</ele>
        <time>2025-02-26T13:08:33Z</time>
      </trkpt>
      <trkpt lat="43.47736" lon="6.56519">
        <ele>31.1</ele>
        <time>2025-02-26T13:08:34Z</time>
      </trkpt>
      <trkpt lat="43.47738" lon="6.5652">
        <ele>31.2</ele>
        <time>2025-02-26T13:08:35Z</time>
      </trkpt>
      <trkpt lat="43.47738" lon="6.5652">
        <ele>31.2</ele>
        <time>2025-02-26T13:08:36Z</time>
      </trkpt>
      <trkpt lat="43.47739" lon="6.5652">
        <ele>31.2</ele>
        <time>2025-02-26T13:08:37Z</time>
      </trkpt>
      <trkpt lat="43.47739" lon="6.56522">
        <ele>31.2</ele>
        <time>2025-02-26T13:08:38Z</time>
      </trkpt>
      <trkpt lat="43.47739" lon="6.56523">
        <ele>31</ele>
        <time>2025-02-26T13:08:39Z</time>
      </trkpt>
      <trkpt lat="43.4774" lon="6.56523">
        <ele>30.9</ele>
        <time>2025-02-26T13:08:40Z</time>
      </trkpt>
      <trkpt lat="43.4774" lon="6.56524">
        <ele>30.9</ele>
        <time>2025-02-26T13:08:41Z</time>
      </trkpt>
      <trkpt lat="43.4774" lon="6.56526">
        <ele>30.8</ele>
        <time>2025-02-26T13:08:42Z</time>
      </trkpt>
      <trkpt lat="43.4774" lon="6.56527">
        <ele>30.7</ele>
        <time>2025-02-26T13:08:43Z</time>
      </trkpt>
      <trkpt lat="43.4774" lon="6.56528">
        <ele>30.7</ele>
        <time>2025-02-26T13:08:44Z</time>
      </trkpt>
      <trkpt lat="43.47741" lon="6.56529">
        <ele>30.7</ele>
        <time>2025-02-26T13:08:45Z</time>
      </trkpt>
      <trkpt lat="43.47741" lon="6.5653">
        <ele>30.6</ele>
        <time>2025-02-26T13:08:46Z</time>
      </trkpt>
      <trkpt lat="43.47741" lon="6.56531">
        <ele>30.5</ele>
        <time>2025-02-26T13:08:47Z</time>
      </trkpt>
      <trkpt lat="43.47741" lon="6.56532">
        <ele>30.5</ele>
        <time>2025-02-26T13:08:48Z</time>
      </trkpt>
      <trkpt lat="43.47741" lon="6.56534">
        <ele>30.5</ele>
        <time>2025-02-26T13:08:49Z</time>
      </trkpt>
      <trkpt lat="43.47741" lon="6.56535">
        <ele>30.5</ele>
        <time>2025-02-26T13:08:50Z</time>
      </trkpt>
      <trkpt lat="43.47741" lon="6.56537">
        <ele>30.4</ele>
        <time>2025-02-26T13:08:51Z</time>
      </trkpt>
      <trkpt lat="43.47741" lon="6.56538">
        <ele>30.4</ele>
        <time>2025-02-26T13:08:52Z</time>
      </trkpt>
      <trkpt lat="43.47741" lon="6.56539">
        <ele>30.3</ele>
        <time>2025-02-26T13:08:53Z</time>
      </trkpt>
      <trkpt lat="43.47741" lon="6.5654">
        <ele>30.2</ele>
        <time>2025-02-26T13:08:54Z</time>
      </trkpt>
      <trkpt lat="43.47741" lon="6.56541">
        <ele>30.2</ele>
        <time>2025-02-26T13:08:55Z</time>
      </trkpt>
      <trkpt lat="43.47741" lon="6.56543">
        <ele>30.1</ele>
        <time>2025-02-26T13:08:56Z</time>
      </trkpt>
      <trkpt lat="43.47741" lon="6.56544">
        <ele>30.1</ele>
        <time>2025-02-26T13:08:57Z</time>
      </trkpt>
      <trkpt lat="43.47741" lon="6.56546">
        <ele>30.2</ele>
        <time>2025-02-26T13:08:58Z</time>
      </trkpt>
      <trkpt lat="43.47741" lon="6.56548">
        <ele>30.2</ele>
        <time>2025-02-26T13:08:59Z</time>
      </trkpt>
      <trkpt lat="43.47741" lon="6.56549">
        <ele>30.3</ele>
        <time>2025-02-26T13:09:00Z</time>
      </trkpt>
      <trkpt lat="43.47741" lon="6.56551">
        <ele>30.4</ele>
        <time>2025-02-26T13:09:01Z</time>
      </trkpt>
      <trkpt lat="43.47742" lon="6.56552">
        <ele>30.4</ele>
        <time>2025-02-26T13:09:02Z</time>
      </trkpt>
      <trkpt lat="43.47742" lon="6.56554">
        <ele>30.5</ele>
        <time>2025-02-26T13:09:03Z</time>
      </trkpt>
      <trkpt lat="43.47742" lon="6.56555">
        <ele>30.5</ele>
        <time>2025-02-26T13:09:04Z</time>
      </trkpt>
      <trkpt lat="43.47742" lon="6.56557">
        <ele>30.5</ele>
        <time>2025-02-26T13:09:05Z</time>
      </trkpt>
      <trkpt lat="43.47742" lon="6.56558">
        <ele>30.6</ele>
        <time>2025-02-26T13:09:06Z</time>
      </trkpt>
      <trkpt lat="43.47743" lon="6.5656">
        <ele>30.6</ele>
        <time>2025-02-26T13:09:07Z</time>
      </trkpt>
      <trkpt lat="43.47742" lon="6.56561">
        <ele>30.6</ele>
        <time>2025-02-26T13:09:08Z</time>
      </trkpt>
      <trkpt lat="43.47742" lon="6.56563">
        <ele>30.5</ele>
        <time>2025-02-26T13:09:09Z</time>
      </trkpt>
      <trkpt lat="43.47742" lon="6.56565">
        <ele>30.4</ele>
        <time>2025-02-26T13:09:10Z</time>
      </trkpt>
      <trkpt lat="43.47742" lon="6.56567">
        <ele>30.4</ele>
        <time>2025-02-26T13:09:11Z</time>
      </trkpt>
      <trkpt lat="43.47742" lon="6.56568">
        <ele>30.2</ele>
        <time>2025-02-26T13:09:12Z</time>
      </trkpt>
      <trkpt lat="43.47742" lon="6.56571">
        <ele>30.1</ele>
        <time>2025-02-26T13:09:13Z</time>
      </trkpt>
      <trkpt lat="43.47743" lon="6.56572">
        <ele>30.1</ele>
        <time>2025-02-26T13:09:14Z</time>
      </trkpt>
      <trkpt lat="43.47743" lon="6.56574">
        <ele>30</ele>
        <time>2025-02-26T13:09:15Z</time>
      </trkpt>
      <trkpt lat="43.47743" lon="6.56576">
        <ele>29.9</ele>
        <time>2025-02-26T13:09:16Z</time>
      </trkpt>
      <trkpt lat="43.47743" lon="6.56577">
        <ele>29.8</ele>
        <time>2025-02-26T13:09:17Z</time>
      </trkpt>
      <trkpt lat="43.47743" lon="6.56579">
        <ele>29.8</ele>
        <time>2025-02-26T13:09:18Z</time>
      </trkpt>
      <trkpt lat="43.47743" lon="6.56581">
        <ele>29.7</ele>
        <time>2025-02-26T13:09:19Z</time>
      </trkpt>
      <trkpt lat="43.47743" lon="6.56583">
        <ele>29.6</ele>
        <time>2025-02-26T13:09:20Z</time>
      </trkpt>
      <trkpt lat="43.47743" lon="6.56585">
        <ele>29.6</ele>
        <time>2025-02-26T13:09:21Z</time>
      </trkpt>
      <trkpt lat="43.47743" lon="6.56586">
        <ele>29.5</ele>
        <time>2025-02-26T13:09:22Z</time>
      </trkpt>
      <trkpt lat="43.47743" lon="6.56587">
        <ele>29.5</ele>
        <time>2025-02-26T13:09:23Z</time>
      </trkpt>
      <trkpt lat="43.47744" lon="6.56589">
        <ele>29.5</ele>
        <time>2025-02-26T13:09:24Z</time>
      </trkpt>
      <trkpt lat="43.47744" lon="6.5659">
        <ele>29.4</ele>
        <time>2025-02-26T13:09:25Z</time>
      </trkpt>
      <trkpt lat="43.47744" lon="6.56591">
        <ele>29.4</ele>
        <time>2025-02-26T13:09:26Z</time>
      </trkpt>
      <trkpt lat="43.47744" lon="6.56593">
        <ele>29.3</ele>
        <time>2025-02-26T13:09:27Z</time>
      </trkpt>
      <trkpt lat="43.47743" lon="6.56594">
        <ele>29.2</ele>
        <time>2025-02-26T13:09:28Z</time>
      </trkpt>
      <trkpt lat="43.47743" lon="6.56596">
        <ele>29.1</ele>
        <time>2025-02-26T13:09:29Z</time>
      </trkpt>
      <trkpt lat="43.47742" lon="6.56598">
        <ele>29.1</ele>
        <time>2025-02-26T13:09:30Z</time>
      </trkpt>
      <trkpt lat="43.47742" lon="6.566">
        <ele>29.1</ele>
        <time>2025-02-26T13:09:31Z</time>
      </trkpt>
      <trkpt lat="43.47741" lon="6.56602">
        <ele>28.9</ele>
        <time>2025-02-26T13:09:32Z</time>
      </trkpt>
      <trkpt lat="43.47741" lon="6.56604">
        <ele>28.8</ele>
        <time>2025-02-26T13:09:33Z</time>
      </trkpt>
      <trkpt lat="43.4774" lon="6.56606">
        <ele>28.8</ele>
        <time>2025-02-26T13:09:34Z</time>
      </trkpt>
      <trkpt lat="43.4774" lon="6.56608">
        <ele>28.9</ele>
        <time>2025-02-26T13:09:35Z</time>
      </trkpt>
      <trkpt lat="43.4774" lon="6.56609">
        <ele>28.9</ele>
        <time>2025-02-26T13:09:36Z</time>
      </trkpt>
      <trkpt lat="43.47739" lon="6.56611">
        <ele>28.9</ele>
        <time>2025-02-26T13:09:37Z</time>
      </trkpt>
      <trkpt lat="43.47739" lon="6.56613">
        <ele>28.9</ele>
        <time>2025-02-26T13:09:38Z</time>
      </trkpt>
      <trkpt lat="43.4774" lon="6.56614">
        <ele>28.9</ele>
        <time>2025-02-26T13:09:39Z</time>
      </trkpt>
      <trkpt lat="43.47741" lon="6.56616">
        <ele>28.9</ele>
        <time>2025-02-26T13:09:40Z</time>
      </trkpt>
      <trkpt lat="43.47741" lon="6.56616">
        <ele>28.9</ele>
        <time>2025-02-26T13:09:41Z</time>
      </trkpt>
      <trkpt lat="43.47742" lon="6.56616">
        <ele>29</ele>
        <time>2025-02-26T13:09:42Z</time>
      </trkpt>
      <trkpt lat="43.47743" lon="6.56617">
        <ele>29.1</ele>
        <time>2025-02-26T13:09:43Z</time>
      </trkpt>
      <trkpt lat="43.47744" lon="6.56617">
        <ele>29.3</ele>
        <time>2025-02-26T13:09:44Z</time>
      </trkpt>
      <trkpt lat="43.47744" lon="6.56618">
        <ele>29.5</ele>
        <time>2025-02-26T13:09:45Z</time>
      </trkpt>
      <trkpt lat="43.47744" lon="6.56619">
        <ele>29.5</ele>
        <time>2025-02-26T13:09:46Z</time>
      </trkpt>
      <trkpt lat="43.47744" lon="6.56619">
        <ele>29.6</ele>
        <time>2025-02-26T13:09:47Z</time>
      </trkpt>
      <trkpt lat="43.47744" lon="6.56619">
        <ele>29.6</ele>
        <time>2025-02-26T13:09:48Z</time>
      </trkpt>
      <trkpt lat="43.47744" lon="6.56619">
        <ele>29.7</ele>
        <time>2025-02-26T13:09:49Z</time>
      </trkpt>
      <trkpt lat="43.47744" lon="6.5662">
        <ele>29.7</ele>
        <time>2025-02-26T13:09:50Z</time>
      </trkpt>
      <trkpt lat="43.47744" lon="6.5662">
        <ele>29.8</ele>
        <time>2025-02-26T13:09:51Z</time>
      </trkpt>
      <trkpt lat="43.47744" lon="6.5662">
        <ele>29.9</ele>
        <time>2025-02-26T13:09:52Z</time>
      </trkpt>
      <trkpt lat="43.47744" lon="6.5662">
        <ele>30</ele>
        <time>2025-02-26T13:09:53Z</time>
      </trkpt>
      <trkpt lat="43.47744" lon="6.5662">
        <ele>30</ele>
        <time>2025-02-26T13:09:54Z</time>
      </trkpt>
      <trkpt lat="43.47744" lon="6.5662">
        <ele>30</ele>
        <time>2025-02-26T13:09:55Z</time>
      </trkpt>
      <trkpt lat="43.47744" lon="6.5662">
        <ele>30</ele>
        <time>2025-02-26T13:09:56Z</time>
      </trkpt>
      <trkpt lat="43.47744" lon="6.5662">
        <ele>30</ele>
        <time>2025-02-26T13:09:57Z</time>
      </trkpt>
      <trkpt lat="43.47744" lon="6.5662">
        <ele>30</ele>
        <time>2025-02-26T13:09:58Z</time>
      </trkpt>
      <trkpt lat="43.47744" lon="6.5662">
        <ele>30</ele>
        <time>2025-02-26T13:09:59Z</time>
      </trkpt>
      <trkpt lat="43.47744" lon="6.5662">
        <ele>30</ele>
        <time>2025-02-26T13:10:00Z</time>
      </trkpt>
      <trkpt lat="43.47744" lon="6.5662">
        <ele>30</ele>
        <time>2025-02-26T13:10:01Z</time>
      </trkpt>
      <trkpt lat="43.47744" lon="6.5662">
        <ele>30</ele>
        <time>2025-02-26T13:10:02Z</time>
      </trkpt>
      <trkpt lat="43.47744" lon="6.5662">
        <ele>29.9</ele>
        <time>2025-02-26T13:10:03Z</time>
      </trkpt>
      <trkpt lat="43.47744" lon="6.56621">
        <ele>29.8</ele>
        <time>2025-02-26T13:10:04Z</time>
      </trkpt>
      <trkpt lat="43.47744" lon="6.56621">
        <ele>29.7</ele>
        <time>2025-02-26T13:10:05Z</time>
      </trkpt>
      <trkpt lat="43.47744" lon="6.56621">
        <ele>29.8</ele>
        <time>2025-02-26T13:10:06Z</time>
      </trkpt>
      <trkpt lat="43.47744" lon="6.56621">
        <ele>29.7</ele>
        <time>2025-02-26T13:10:07Z</time>
      </trkpt>
      <trkpt lat="43.47744" lon="6.56621">
        <ele>29.8</ele>
        <time>2025-02-26T13:10:08Z</time>
      </trkpt>
      <trkpt lat="43.47744" lon="6.56622">
        <ele>29.8</ele>
        <time>2025-02-26T13:10:09Z</time>
      </trkpt>
      <trkpt lat="43.47744" lon="6.56622">
        <ele>29.8</ele>
        <time>2025-02-26T13:10:10Z</time>
      </trkpt>
      <trkpt lat="43.47744" lon="6.56622">
        <ele>29.7</ele>
        <time>2025-02-26T13:10:11Z</time>
      </trkpt>
      <trkpt lat="43.47744" lon="6.56622">
        <ele>29.8</ele>
        <time>2025-02-26T13:10:12Z</time>
      </trkpt>
      <trkpt lat="43.47744" lon="6.56622">
        <ele>29.9</ele>
        <time>2025-02-26T13:10:13Z</time>
      </trkpt>
      <trkpt lat="43.47744" lon="6.56622">
        <ele>29.9</ele>
        <time>2025-02-26T13:10:14Z</time>
      </trkpt>
      <trkpt lat="43.47744" lon="6.56622">
        <ele>30</ele>
        <time>2025-02-26T13:10:15Z</time>
      </trkpt>
      <trkpt lat="43.47744" lon="6.56622">
        <ele>30</ele>
        <time>2025-02-26T13:10:16Z</time>
      </trkpt>
      <trkpt lat="43.47744" lon="6.56622">
        <ele>30.1</ele>
        <time>2025-02-26T13:10:17Z</time>
      </trkpt>
      <trkpt lat="43.47744" lon="6.56622">
        <ele>30.1</ele>
        <time>2025-02-26T13:10:18Z</time>
      </trkpt>
      <trkpt lat="43.47744" lon="6.56622">
        <ele>30.1</ele>
        <time>2025-02-26T13:10:19Z</time>
      </trkpt>
      <trkpt lat="43.47744" lon="6.56622">
        <ele>30.1</ele>
        <time>2025-02-26T13:10:20Z</time>
      </trkpt>
      <trkpt lat="43.47744" lon="6.56622">
        <ele>30</ele>
        <time>2025-02-26T13:10:21Z</time>
      </trkpt>
      <trkpt lat="43.47744" lon="6.56622">
        <ele>30</ele>
        <time>2025-02-26T13:10:22Z</time>
      </trkpt>
      <trkpt lat="43.47744" lon="6.56621">
        <ele>30</ele>
        <time>2025-02-26T13:10:23Z</time>
      </trkpt>
      <trkpt lat="43.47744" lon="6.56621">
        <ele>30.1</ele>
        <time>2025-02-26T13:10:24Z</time>
      </trkpt>
      <trkpt lat="43.47744" lon="6.56621">
        <ele>30.2</ele>
        <time>2025-02-26T13:10:25Z</time>
      </trkpt>
      <trkpt lat="43.47744" lon="6.56621">
        <ele>30.2</ele>
        <time>2025-02-26T13:10:26Z</time>
      </trkpt>
      <trkpt lat="43.47744" lon="6.56621">
        <ele>30.2</ele>
        <time>2025-02-26T13:10:27Z</time>
      </trkpt>
      <trkpt lat="43.47744" lon="6.56621">
        <ele>30.1</ele>
        <time>2025-02-26T13:10:28Z</time>
      </trkpt>
      <trkpt lat="43.47744" lon="6.56621">
        <ele>30.1</ele>
        <time>2025-02-26T13:10:29Z</time>
      </trkpt>
      <trkpt lat="43.47744" lon="6.56621">
        <ele>30.1</ele>
        <time>2025-02-26T13:10:30Z</time>
      </trkpt>
      <trkpt lat="43.47744" lon="6.56621">
        <ele>30</ele>
        <time>2025-02-26T13:10:31Z</time>
      </trkpt>
      <trkpt lat="43.47744" lon="6.56621">
        <ele>30</ele>
        <time>2025-02-26T13:10:32Z</time>
      </trkpt>
      <trkpt lat="43.47744" lon="6.56621">
        <ele>29.9</ele>
        <time>2025-02-26T13:10:33Z</time>
      </trkpt>
      <trkpt lat="43.47744" lon="6.56621">
        <ele>29.8</ele>
        <time>2025-02-26T13:10:34Z</time>
      </trkpt>
      <trkpt lat="43.47744" lon="6.5662">
        <ele>29.8</ele>
        <time>2025-02-26T13:10:35Z</time>
      </trkpt>
      <trkpt lat="43.47744" lon="6.56621">
        <ele>29.8</ele>
        <time>2025-02-26T13:10:36Z</time>
      </trkpt>
      <trkpt lat="43.47744" lon="6.56621">
        <ele>29.8</ele>
        <time>2025-02-26T13:10:37Z</time>
      </trkpt>
      <trkpt lat="43.47745" lon="6.56621">
        <ele>29.8</ele>
        <time>2025-02-26T13:10:38Z</time>
      </trkpt>
      <trkpt lat="43.47745" lon="6.56621">
        <ele>29.8</ele>
        <time>2025-02-26T13:10:39Z</time>
      </trkpt>
      <trkpt lat="43.47745" lon="6.5662">
        <ele>29.9</ele>
        <time>2025-02-26T13:10:40Z</time>
      </trkpt>
      <trkpt lat="43.47745" lon="6.5662">
        <ele>29.9</ele>
        <time>2025-02-26T13:10:41Z</time>
      </trkpt>
      <trkpt lat="43.47745" lon="6.5662">
        <ele>29.9</ele>
        <time>2025-02-26T13:10:42Z</time>
      </trkpt>
      <trkpt lat="43.47744" lon="6.5662">
        <ele>29.9</ele>
        <time>2025-02-26T13:10:43Z</time>
      </trkpt>
      <trkpt lat="43.47744" lon="6.5662">
        <ele>29.9</ele>
        <time>2025-02-26T13:10:44Z</time>
      </trkpt>
      <trkpt lat="43.47745" lon="6.5662">
        <ele>29.9</ele>
        <time>2025-02-26T13:10:45Z</time>
      </trkpt>
      <trkpt lat="43.47744" lon="6.5662">
        <ele>29.9</ele>
        <time>2025-02-26T13:10:46Z</time>
      </trkpt>
      <trkpt lat="43.47744" lon="6.5662">
        <ele>29.9</ele>
        <time>2025-02-26T13:10:47Z</time>
      </trkpt>
      <trkpt lat="43.47744" lon="6.5662">
        <ele>29.9</ele>
        <time>2025-02-26T13:10:48Z</time>
      </trkpt>
      <trkpt lat="43.47744" lon="6.5662">
        <ele>29.9</ele>
        <time>2025-02-26T13:10:49Z</time>
      </trkpt>
      <trkpt lat="43.47744" lon="6.56619">
        <ele>29.9</ele>
        <time>2025-02-26T13:10:50Z</time>
      </trkpt>
      <trkpt lat="43.47743" lon="6.5662">
        <ele>29.9</ele>
        <time>2025-02-26T13:10:51Z</time>
      </trkpt>
      <trkpt lat="43.47744" lon="6.5662">
        <ele>29.9</ele>
        <time>2025-02-26T13:10:52Z</time>
      </trkpt>
      <trkpt lat="43.47744" lon="6.5662">
        <ele>29.9</ele>
        <time>2025-02-26T13:10:53Z</time>
      </trkpt>
      <trkpt lat="43.47744" lon="6.5662">
        <ele>29.9</ele>
        <time>2025-02-26T13:10:54Z</time>
      </trkpt>
      <trkpt lat="43.47744" lon="6.5662">
        <ele>29.9</ele>
        <time>2025-02-26T13:10:55Z</time>
      </trkpt>
      <trkpt lat="43.47745" lon="6.56619">
        <ele>29.9</ele>
        <time>2025-02-26T13:10:56Z</time>
      </trkpt>
      <trkpt lat="43.47744" lon="6.56619">
        <ele>30</ele>
        <time>2025-02-26T13:10:57Z</time>
      </trkpt>
      <trkpt lat="43.47744" lon="6.56619">
        <ele>30</ele>
        <time>2025-02-26T13:10:58Z</time>
      </trkpt>
      <trkpt lat="43.47744" lon="6.56619">
        <ele>30</ele>
        <time>2025-02-26T13:10:59Z</time>
      </trkpt>
      <trkpt lat="43.47744" lon="6.56619">
        <ele>30.1</ele>
        <time>2025-02-26T13:11:00Z</time>
      </trkpt>
      <trkpt lat="43.47744" lon="6.56619">
        <ele>30.1</ele>
        <time>2025-02-26T13:11:01Z</time>
      </trkpt>
      <trkpt lat="43.47743" lon="6.56619">
        <ele>30.1</ele>
        <time>2025-02-26T13:11:02Z</time>
      </trkpt>
      <trkpt lat="43.47743" lon="6.56618">
        <ele>30.1</ele>
        <time>2025-02-26T13:11:03Z</time>
      </trkpt>
      <trkpt lat="43.47743" lon="6.56618">
        <ele>30</ele>
        <time>2025-02-26T13:11:04Z</time>
      </trkpt>
      <trkpt lat="43.47742" lon="6.56618">
        <ele>29.9</ele>
        <time>2025-02-26T13:11:05Z</time>
      </trkpt>
      <trkpt lat="43.47742" lon="6.56617">
        <ele>29.8</ele>
        <time>2025-02-26T13:11:06Z</time>
      </trkpt>
      <trkpt lat="43.47741" lon="6.56617">
        <ele>29.6</ele>
        <time>2025-02-26T13:11:07Z</time>
      </trkpt>
      <trkpt lat="43.47741" lon="6.56616">
        <ele>29.5</ele>
        <time>2025-02-26T13:11:08Z</time>
      </trkpt>
      <trkpt lat="43.47741" lon="6.56617">
        <ele>29.4</ele>
        <time>2025-02-26T13:11:09Z</time>
      </trkpt>
      <trkpt lat="43.47741" lon="6.56617">
        <ele>29.3</ele>
        <time>2025-02-26T13:11:10Z</time>
      </trkpt>
      <trkpt lat="43.47741" lon="6.56617">
        <ele>29.2</ele>
        <time>2025-02-26T13:11:11Z</time>
      </trkpt>
      <trkpt lat="43.47741" lon="6.56617">
        <ele>29.1</ele>
        <time>2025-02-26T13:11:12Z</time>
      </trkpt>
      <trkpt lat="43.47741" lon="6.56617">
        <ele>29.2</ele>
        <time>2025-02-26T13:11:13Z</time>
      </trkpt>
      <trkpt lat="43.47741" lon="6.56616">
        <ele>29.2</ele>
        <time>2025-02-26T13:11:14Z</time>
      </trkpt>
      <trkpt lat="43.47741" lon="6.56616">
        <ele>29.2</ele>
        <time>2025-02-26T13:11:15Z</time>
      </trkpt>
      <trkpt lat="43.47741" lon="6.56616">
        <ele>29.2</ele>
        <time>2025-02-26T13:11:16Z</time>
      </trkpt>
      <trkpt lat="43.4774" lon="6.56616">
        <ele>29.2</ele>
        <time>2025-02-26T13:11:17Z</time>
      </trkpt>
      <trkpt lat="43.4774" lon="6.56616">
        <ele>29.2</ele>
        <time>2025-02-26T13:11:18Z</time>
      </trkpt>
      <trkpt lat="43.4774" lon="6.56617">
        <ele>29.1</ele>
        <time>2025-02-26T13:11:19Z</time>
      </trkpt>
      <trkpt lat="43.4774" lon="6.56617">
        <ele>29.2</ele>
        <time>2025-02-26T13:11:20Z</time>
      </trkpt>
      <trkpt lat="43.47739" lon="6.56618">
        <ele>29.2</ele>
        <time>2025-02-26T13:11:21Z</time>
      </trkpt>
      <trkpt lat="43.4774" lon="6.56618">
        <ele>29.2</ele>
        <time>2025-02-26T13:11:22Z</time>
      </trkpt>
      <trkpt lat="43.4774" lon="6.56618">
        <ele>29.1</ele>
        <time>2025-02-26T13:11:23Z</time>
      </trkpt>
      <trkpt lat="43.4774" lon="6.56618">
        <ele>29.2</ele>
        <time>2025-02-26T13:11:24Z</time>
      </trkpt>
      <trkpt lat="43.47739" lon="6.56618">
        <ele>29.3</ele>
        <time>2025-02-26T13:11:25Z</time>
      </trkpt>
      <trkpt lat="43.47739" lon="6.56618">
        <ele>29.2</ele>
        <time>2025-02-26T13:11:26Z</time>
      </trkpt>
      <trkpt lat="43.47739" lon="6.56618">
        <ele>29.2</ele>
        <time>2025-02-26T13:11:27Z</time>
      </trkpt>
      <trkpt lat="43.47739" lon="6.56618">
        <ele>29.2</ele>
        <time>2025-02-26T13:11:28Z</time>
      </trkpt>
      <trkpt lat="43.47739" lon="6.56618">
        <ele>29.2</ele>
        <time>2025-02-26T13:11:29Z</time>
      </trkpt>
      <trkpt lat="43.47739" lon="6.56618">
        <ele>29.1</ele>
        <time>2025-02-26T13:11:30Z</time>
      </trkpt>
      <trkpt lat="43.47739" lon="6.56618">
        <ele>29.1</ele>
        <time>2025-02-26T13:11:31Z</time>
      </trkpt>
      <trkpt lat="43.47739" lon="6.56617">
        <ele>29.1</ele>
        <time>2025-02-26T13:11:32Z</time>
      </trkpt>
      <trkpt lat="43.47739" lon="6.56617">
        <ele>29.1</ele>
        <time>2025-02-26T13:11:33Z</time>
      </trkpt>
      <trkpt lat="43.47739" lon="6.56618">
        <ele>29.1</ele>
        <time>2025-02-26T13:11:34Z</time>
      </trkpt>
      <trkpt lat="43.47739" lon="6.56619">
        <ele>29.1</ele>
        <time>2025-02-26T13:11:35Z</time>
      </trkpt>
      <trkpt lat="43.47738" lon="6.56619">
        <ele>29</ele>
        <time>2025-02-26T13:11:36Z</time>
      </trkpt>
      <trkpt lat="43.47738" lon="6.5662">
        <ele>29.1</ele>
        <time>2025-02-26T13:11:37Z</time>
      </trkpt>
      <trkpt lat="43.47738" lon="6.5662">
        <ele>29.1</ele>
        <time>2025-02-26T13:11:38Z</time>
      </trkpt>
      <trkpt lat="43.47738" lon="6.5662">
        <ele>29</ele>
        <time>2025-02-26T13:11:39Z</time>
      </trkpt>
      <trkpt lat="43.47738" lon="6.56621">
        <ele>29.1</ele>
        <time>2025-02-26T13:11:40Z</time>
      </trkpt>
      <trkpt lat="43.47739" lon="6.56621">
        <ele>29.1</ele>
        <time>2025-02-26T13:11:41Z</time>
      </trkpt>
      <trkpt lat="43.47739" lon="6.56622">
        <ele>29</ele>
        <time>2025-02-26T13:11:42Z</time>
      </trkpt>
      <trkpt lat="43.47739" lon="6.56623">
        <ele>29.1</ele>
        <time>2025-02-26T13:11:43Z</time>
      </trkpt>
      <trkpt lat="43.4774" lon="6.56623">
        <ele>29.1</ele>
        <time>2025-02-26T13:11:44Z</time>
      </trkpt>
      <trkpt lat="43.4774" lon="6.56624">
        <ele>29.2</ele>
        <time>2025-02-26T13:11:45Z</time>
      </trkpt>
      <trkpt lat="43.4774" lon="6.56624">
        <ele>29.1</ele>
        <time>2025-02-26T13:11:46Z</time>
      </trkpt>
      <trkpt lat="43.4774" lon="6.56624">
        <ele>29.1</ele>
        <time>2025-02-26T13:11:47Z</time>
      </trkpt>
      <trkpt lat="43.47739" lon="6.56624">
        <ele>29.1</ele>
        <time>2025-02-26T13:11:48Z</time>
      </trkpt>
      <trkpt lat="43.47739" lon="6.56624">
        <ele>29.1</ele>
        <time>2025-02-26T13:11:49Z</time>
      </trkpt>
      <trkpt lat="43.47739" lon="6.56624">
        <ele>29.2</ele>
        <time>2025-02-26T13:11:50Z</time>
      </trkpt>
      <trkpt lat="43.47739" lon="6.56625">
        <ele>29.3</ele>
        <time>2025-02-26T13:11:51Z</time>
      </trkpt>
      <trkpt lat="43.47739" lon="6.56625">
        <ele>29.3</ele>
        <time>2025-02-26T13:11:52Z</time>
      </trkpt>
      <trkpt lat="43.47739" lon="6.56624">
        <ele>29.3</ele>
        <time>2025-02-26T13:11:53Z</time>
      </trkpt>
      <trkpt lat="43.47739" lon="6.56625">
        <ele>29.2</ele>
        <time>2025-02-26T13:11:54Z</time>
      </trkpt>
      <trkpt lat="43.47739" lon="6.56625">
        <ele>29.2</ele>
        <time>2025-02-26T13:11:55Z</time>
      </trkpt>
      <trkpt lat="43.47739" lon="6.56625">
        <ele>29.2</ele>
        <time>2025-02-26T13:11:56Z</time>
      </trkpt>
      <trkpt lat="43.47739" lon="6.56625">
        <ele>29.2</ele>
        <time>2025-02-26T13:11:57Z</time>
      </trkpt>
      <trkpt lat="43.47739" lon="6.56625">
        <ele>29.2</ele>
        <time>2025-02-26T13:11:58Z</time>
      </trkpt>
      <trkpt lat="43.47739" lon="6.56625">
        <ele>29.2</ele>
        <time>2025-02-26T13:11:59Z</time>
      </trkpt>
      <trkpt lat="43.47739" lon="6.56626">
        <ele>29.2</ele>
        <time>2025-02-26T13:12:00Z</time>
      </trkpt>
      <trkpt lat="43.47739" lon="6.56626">
        <ele>29.3</ele>
        <time>2025-02-26T13:12:01Z</time>
      </trkpt>
      <trkpt lat="43.47739" lon="6.56627">
        <ele>29.4</ele>
        <time>2025-02-26T13:12:02Z</time>
      </trkpt>
      <trkpt lat="43.47739" lon="6.56628">
        <ele>29.4</ele>
        <time>2025-02-26T13:12:03Z</time>
      </trkpt>
      <trkpt lat="43.47739" lon="6.56629">
        <ele>29.3</ele>
        <time>2025-02-26T13:12:04Z</time>
      </trkpt>
      <trkpt lat="43.47739" lon="6.5663">
        <ele>29.1</ele>
        <time>2025-02-26T13:12:05Z</time>
      </trkpt>
      <trkpt lat="43.47739" lon="6.5663">
        <ele>29</ele>
        <time>2025-02-26T13:12:06Z</time>
      </trkpt>
      <trkpt lat="43.47738" lon="6.56631">
        <ele>29</ele>
        <time>2025-02-26T13:12:07Z</time>
      </trkpt>
      <trkpt lat="43.47738" lon="6.56632">
        <ele>29.1</ele>
        <time>2025-02-26T13:12:08Z</time>
      </trkpt>
      <trkpt lat="43.47738" lon="6.56632">
        <ele>29.1</ele>
        <time>2025-02-26T13:12:09Z</time>
      </trkpt>
      <trkpt lat="43.47738" lon="6.56633">
        <ele>29.1</ele>
        <time>2025-02-26T13:12:10Z</time>
      </trkpt>
      <trkpt lat="43.47738" lon="6.56634">
        <ele>29.1</ele>
        <time>2025-02-26T13:12:11Z</time>
      </trkpt>
      <trkpt lat="43.47738" lon="6.56635">
        <ele>29.1</ele>
        <time>2025-02-26T13:12:12Z</time>
      </trkpt>
      <trkpt lat="43.47738" lon="6.56635">
        <ele>29.1</ele>
        <time>2025-02-26T13:12:13Z</time>
      </trkpt>
      <trkpt lat="43.47738" lon="6.56635">
        <ele>29.1</ele>
        <time>2025-02-26T13:12:14Z</time>
      </trkpt>
      <trkpt lat="43.47737" lon="6.56636">
        <ele>29.2</ele>
        <time>2025-02-26T13:12:15Z</time>
      </trkpt>
      <trkpt lat="43.47737" lon="6.56637">
        <ele>29.2</ele>
        <time>2025-02-26T13:12:16Z</time>
      </trkpt>
      <trkpt lat="43.47737" lon="6.56637">
        <ele>29.2</ele>
        <time>2025-02-26T13:12:17Z</time>
      </trkpt>
      <trkpt lat="43.47737" lon="6.56638">
        <ele>29.2</ele>
        <time>2025-02-26T13:12:18Z</time>
      </trkpt>
      <trkpt lat="43.47737" lon="6.56638">
        <ele>29.1</ele>
        <time>2025-02-26T13:12:19Z</time>
      </trkpt>
      <trkpt lat="43.47737" lon="6.56639">
        <ele>29.2</ele>
        <time>2025-02-26T13:12:20Z</time>
      </trkpt>
      <trkpt lat="43.47737" lon="6.5664">
        <ele>29.2</ele>
        <time>2025-02-26T13:12:21Z</time>
      </trkpt>
      <trkpt lat="43.47736" lon="6.56641">
        <ele>29.2</ele>
        <time>2025-02-26T13:12:22Z</time>
      </trkpt>
      <trkpt lat="43.47736" lon="6.56642">
        <ele>29.1</ele>
        <time>2025-02-26T13:12:23Z</time>
      </trkpt>
      <trkpt lat="43.47736" lon="6.56643">
        <ele>29.1</ele>
        <time>2025-02-26T13:12:24Z</time>
      </trkpt>
      <trkpt lat="43.47735" lon="6.56645">
        <ele>29.1</ele>
        <time>2025-02-26T13:12:25Z</time>
      </trkpt>
      <trkpt lat="43.47735" lon="6.56646">
        <ele>29.1</ele>
        <time>2025-02-26T13:12:26Z</time>
      </trkpt>
      <trkpt lat="43.47735" lon="6.56647">
        <ele>29</ele>
        <time>2025-02-26T13:12:27Z</time>
      </trkpt>
      <trkpt lat="43.47734" lon="6.56649">
        <ele>29</ele>
        <time>2025-02-26T13:12:28Z</time>
      </trkpt>
      <trkpt lat="43.47734" lon="6.5665">
        <ele>28.9</ele>
        <time>2025-02-26T13:12:29Z</time>
      </trkpt>
      <trkpt lat="43.47734" lon="6.56651">
        <ele>28.9</ele>
        <time>2025-02-26T13:12:30Z</time>
      </trkpt>
      <trkpt lat="43.47734" lon="6.56652">
        <ele>28.9</ele>
        <time>2025-02-26T13:12:31Z</time>
      </trkpt>
      <trkpt lat="43.47734" lon="6.56653">
        <ele>28.8</ele>
        <time>2025-02-26T13:12:32Z</time>
      </trkpt>
      <trkpt lat="43.47734" lon="6.56654">
        <ele>28.7</ele>
        <time>2025-02-26T13:12:33Z</time>
      </trkpt>
      <trkpt lat="43.47735" lon="6.56654">
        <ele>28.6</ele>
        <time>2025-02-26T13:12:34Z</time>
      </trkpt>
      <trkpt lat="43.47735" lon="6.56655">
        <ele>28.6</ele>
        <time>2025-02-26T13:12:35Z</time>
      </trkpt>
      <trkpt lat="43.47735" lon="6.56655">
        <ele>28.7</ele>
        <time>2025-02-26T13:12:36Z</time>
      </trkpt>
      <trkpt lat="43.47736" lon="6.56655">
        <ele>28.7</ele>
        <time>2025-02-26T13:12:37Z</time>
      </trkpt>
      <trkpt lat="43.47736" lon="6.56655">
        <ele>28.7</ele>
        <time>2025-02-26T13:12:38Z</time>
      </trkpt>
      <trkpt lat="43.47736" lon="6.56656">
        <ele>28.7</ele>
        <time>2025-02-26T13:12:39Z</time>
      </trkpt>
      <trkpt lat="43.47736" lon="6.56656">
        <ele>28.6</ele>
        <time>2025-02-26T13:12:40Z</time>
      </trkpt>
      <trkpt lat="43.47736" lon="6.56656">
        <ele>28.5</ele>
        <time>2025-02-26T13:12:41Z</time>
      </trkpt>
      <trkpt lat="43.47736" lon="6.56656">
        <ele>28.4</ele>
        <time>2025-02-26T13:12:42Z</time>
      </trkpt>
      <trkpt lat="43.47736" lon="6.56656">
        <ele>28.3</ele>
        <time>2025-02-26T13:12:43Z</time>
      </trkpt>
      <trkpt lat="43.47736" lon="6.56656">
        <ele>28.2</ele>
        <time>2025-02-26T13:12:44Z</time>
      </trkpt>
      <trkpt lat="43.47736" lon="6.56656">
        <ele>28.1</ele>
        <time>2025-02-26T13:12:45Z</time>
      </trkpt>
      <trkpt lat="43.47736" lon="6.56656">
        <ele>28.2</ele>
        <time>2025-02-26T13:12:46Z</time>
      </trkpt>
      <trkpt lat="43.47736" lon="6.56656">
        <ele>28.3</ele>
        <time>2025-02-26T13:12:47Z</time>
      </trkpt>
      <trkpt lat="43.47736" lon="6.56656">
        <ele>28.4</ele>
        <time>2025-02-26T13:12:48Z</time>
      </trkpt>
      <trkpt lat="43.47736" lon="6.56656">
        <ele>28.4</ele>
        <time>2025-02-26T13:12:49Z</time>
      </trkpt>
      <trkpt lat="43.47736" lon="6.56656">
        <ele>28.5</ele>
        <time>2025-02-26T13:12:50Z</time>
      </trkpt>
      <trkpt lat="43.47736" lon="6.56657">
        <ele>28.5</ele>
        <time>2025-02-26T13:12:51Z</time>
      </trkpt>
      <trkpt lat="43.47737" lon="6.56657">
        <ele>28.6</ele>
        <time>2025-02-26T13:12:52Z</time>
      </trkpt>
      <trkpt lat="43.47737" lon="6.56657">
        <ele>28.6</ele>
        <time>2025-02-26T13:12:53Z</time>
      </trkpt>
      <trkpt lat="43.47737" lon="6.56657">
        <ele>28.6</ele>
        <time>2025-02-26T13:12:54Z</time>
      </trkpt>
      <trkpt lat="43.47738" lon="6.56658">
        <ele>28.6</ele>
        <time>2025-02-26T13:12:55Z</time>
      </trkpt>
      <trkpt lat="43.47739" lon="6.56658">
        <ele>28.7</ele>
        <time>2025-02-26T13:12:56Z</time>
      </trkpt>
      <trkpt lat="43.4774" lon="6.56658">
        <ele>28.7</ele>
        <time>2025-02-26T13:12:57Z</time>
      </trkpt>
      <trkpt lat="43.4774" lon="6.56659">
        <ele>28.7</ele>
        <time>2025-02-26T13:12:58Z</time>
      </trkpt>
      <trkpt lat="43.47741" lon="6.56661">
        <ele>28.6</ele>
        <time>2025-02-26T13:12:59Z</time>
      </trkpt>
      <trkpt lat="43.47742" lon="6.56661">
        <ele>28.7</ele>
        <time>2025-02-26T13:13:00Z</time>
      </trkpt>
      <trkpt lat="43.47744" lon="6.5666">
        <ele>28.7</ele>
        <time>2025-02-26T13:13:01Z</time>
      </trkpt>
      <trkpt lat="43.47745" lon="6.5666">
        <ele>28.6</ele>
        <time>2025-02-26T13:13:02Z</time>
      </trkpt>
      <trkpt lat="43.47745" lon="6.5666">
        <ele>28.6</ele>
        <time>2025-02-26T13:13:03Z</time>
      </trkpt>
      <trkpt lat="43.47746" lon="6.56661">
        <ele>28.7</ele>
        <time>2025-02-26T13:13:04Z</time>
      </trkpt>
      <trkpt lat="43.47746" lon="6.56661">
        <ele>28.7</ele>
        <time>2025-02-26T13:13:05Z</time>
      </trkpt>
      <trkpt lat="43.47746" lon="6.56661">
        <ele>28.7</ele>
        <time>2025-02-26T13:13:06Z</time>
      </trkpt>
      <trkpt lat="43.47746" lon="6.56661">
        <ele>28.7</ele>
        <time>2025-02-26T13:13:07Z</time>
      </trkpt>
      <trkpt lat="43.47746" lon="6.56661">
        <ele>28.7</ele>
        <time>2025-02-26T13:13:08Z</time>
      </trkpt>
      <trkpt lat="43.47746" lon="6.56661">
        <ele>28.7</ele>
        <time>2025-02-26T13:13:09Z</time>
      </trkpt>
      <trkpt lat="43.47746" lon="6.56661">
        <ele>28.7</ele>
        <time>2025-02-26T13:13:10Z</time>
      </trkpt>
      <trkpt lat="43.47746" lon="6.56661">
        <ele>28.6</ele>
        <time>2025-02-26T13:13:11Z</time>
      </trkpt>
      <trkpt lat="43.47746" lon="6.5666">
        <ele>28.6</ele>
        <time>2025-02-26T13:13:12Z</time>
      </trkpt>
      <trkpt lat="43.47746" lon="6.5666">
        <ele>28.7</ele>
        <time>2025-02-26T13:13:13Z</time>
      </trkpt>
      <trkpt lat="43.47746" lon="6.5666">
        <ele>28.7</ele>
        <time>2025-02-26T13:13:14Z</time>
      </trkpt>
      <trkpt lat="43.47746" lon="6.56661">
        <ele>28.7</ele>
        <time>2025-02-26T13:13:15Z</time>
      </trkpt>
      <trkpt lat="43.47747" lon="6.56662">
        <ele>28.7</ele>
        <time>2025-02-26T13:13:16Z</time>
      </trkpt>
      <trkpt lat="43.47748" lon="6.56663">
        <ele>28.7</ele>
        <time>2025-02-26T13:13:17Z</time>
      </trkpt>
      <trkpt lat="43.47749" lon="6.56664">
        <ele>28.8</ele>
        <time>2025-02-26T13:13:18Z</time>
      </trkpt>
      <trkpt lat="43.4775" lon="6.56664">
        <ele>28.7</ele>
        <time>2025-02-26T13:13:19Z</time>
      </trkpt>
      <trkpt lat="43.47751" lon="6.56664">
        <ele>28.7</ele>
        <time>2025-02-26T13:13:20Z</time>
      </trkpt>
      <trkpt lat="43.47752" lon="6.56664">
        <ele>28.7</ele>
        <time>2025-02-26T13:13:21Z</time>
      </trkpt>
      <trkpt lat="43.47753" lon="6.56664">
        <ele>28.8</ele>
        <time>2025-02-26T13:13:22Z</time>
      </trkpt>
      <trkpt lat="43.47755" lon="6.56665">
        <ele>28.7</ele>
        <time>2025-02-26T13:13:23Z</time>
      </trkpt>
      <trkpt lat="43.47756" lon="6.56665">
        <ele>28.8</ele>
        <time>2025-02-26T13:13:24Z</time>
      </trkpt>
      <trkpt lat="43.47758" lon="6.56665">
        <ele>28.7</ele>
        <time>2025-02-26T13:13:25Z</time>
      </trkpt>
      <trkpt lat="43.47759" lon="6.56665">
        <ele>28.6</ele>
        <time>2025-02-26T13:13:26Z</time>
      </trkpt>
      <trkpt lat="43.4776" lon="6.56665">
        <ele>28.6</ele>
        <time>2025-02-26T13:13:27Z</time>
      </trkpt>
      <trkpt lat="43.47762" lon="6.56665">
        <ele>28.6</ele>
        <time>2025-02-26T13:13:28Z</time>
      </trkpt>
      <trkpt lat="43.47763" lon="6.56665">
        <ele>28.6</ele>
        <time>2025-02-26T13:13:29Z</time>
      </trkpt>
      <trkpt lat="43.47764" lon="6.56665">
        <ele>28.7</ele>
        <time>2025-02-26T13:13:30Z</time>
      </trkpt>
      <trkpt lat="43.47765" lon="6.56665">
        <ele>28.7</ele>
        <time>2025-02-26T13:13:31Z</time>
      </trkpt>
      <trkpt lat="43.47767" lon="6.56665">
        <ele>28.7</ele>
        <time>2025-02-26T13:13:32Z</time>
      </trkpt>
      <trkpt lat="43.47768" lon="6.56665">
        <ele>28.7</ele>
        <time>2025-02-26T13:13:33Z</time>
      </trkpt>
      <trkpt lat="43.47769" lon="6.56665">
        <ele>28.8</ele>
        <time>2025-02-26T13:13:34Z</time>
      </trkpt>
      <trkpt lat="43.4777" lon="6.56666">
        <ele>28.9</ele>
        <time>2025-02-26T13:13:35Z</time>
      </trkpt>
      <trkpt lat="43.47772" lon="6.56666">
        <ele>28.9</ele>
        <time>2025-02-26T13:13:36Z</time>
      </trkpt>
      <trkpt lat="43.47773" lon="6.56666">
        <ele>29.1</ele>
        <time>2025-02-26T13:13:37Z</time>
      </trkpt>
      <trkpt lat="43.47774" lon="6.56666">
        <ele>29.3</ele>
        <time>2025-02-26T13:13:38Z</time>
      </trkpt>
      <trkpt lat="43.47775" lon="6.56666">
        <ele>29.4</ele>
        <time>2025-02-26T13:13:39Z</time>
      </trkpt>
      <trkpt lat="43.47776" lon="6.56666">
        <ele>29.3</ele>
        <time>2025-02-26T13:13:40Z</time>
      </trkpt>
      <trkpt lat="43.47777" lon="6.56667">
        <ele>29.3</ele>
        <time>2025-02-26T13:13:41Z</time>
      </trkpt>
      <trkpt lat="43.47778" lon="6.56667">
        <ele>29.2</ele>
        <time>2025-02-26T13:13:42Z</time>
      </trkpt>
      <trkpt lat="43.47779" lon="6.56666">
        <ele>29.2</ele>
        <time>2025-02-26T13:13:43Z</time>
      </trkpt>
      <trkpt lat="43.47781" lon="6.56666">
        <ele>29.2</ele>
        <time>2025-02-26T13:13:44Z</time>
      </trkpt>
      <trkpt lat="43.47782" lon="6.56667">
        <ele>29.2</ele>
        <time>2025-02-26T13:13:45Z</time>
      </trkpt>
      <trkpt lat="43.47783" lon="6.56667">
        <ele>29</ele>
        <time>2025-02-26T13:13:46Z</time>
      </trkpt>
      <trkpt lat="43.47785" lon="6.56667">
        <ele>28.9</ele>
        <time>2025-02-26T13:13:47Z</time>
      </trkpt>
      <trkpt lat="43.47786" lon="6.56667">
        <ele>28.8</ele>
        <time>2025-02-26T13:13:48Z</time>
      </trkpt>
      <trkpt lat="43.47787" lon="6.56667">
        <ele>28.7</ele>
        <time>2025-02-26T13:13:49Z</time>
      </trkpt>
      <trkpt lat="43.47787" lon="6.56667">
        <ele>28.6</ele>
        <time>2025-02-26T13:13:50Z</time>
      </trkpt>
      <trkpt lat="43.47788" lon="6.56666">
        <ele>28.6</ele>
        <time>2025-02-26T13:13:51Z</time>
      </trkpt>
      <trkpt lat="43.47789" lon="6.56667">
        <ele>28.7</ele>
        <time>2025-02-26T13:13:52Z</time>
      </trkpt>
      <trkpt lat="43.4779" lon="6.56667">
        <ele>28.7</ele>
        <time>2025-02-26T13:13:53Z</time>
      </trkpt>
      <trkpt lat="43.47791" lon="6.56667">
        <ele>28.8</ele>
        <time>2025-02-26T13:13:54Z</time>
      </trkpt>
      <trkpt lat="43.47792" lon="6.56667">
        <ele>28.8</ele>
        <time>2025-02-26T13:13:55Z</time>
      </trkpt>
      <trkpt lat="43.47794" lon="6.56666">
        <ele>28.8</ele>
        <time>2025-02-26T13:13:56Z</time>
      </trkpt>
      <trkpt lat="43.47795" lon="6.56666">
        <ele>28.9</ele>
        <time>2025-02-26T13:13:57Z</time>
      </trkpt>
      <trkpt lat="43.47796" lon="6.56667">
        <ele>29</ele>
        <time>2025-02-26T13:13:58Z</time>
      </trkpt>
      <trkpt lat="43.47797" lon="6.56667">
        <ele>29</ele>
        <time>2025-02-26T13:13:59Z</time>
      </trkpt>
      <trkpt lat="43.47798" lon="6.56666">
        <ele>29</ele>
        <time>2025-02-26T13:14:00Z</time>
      </trkpt>
      <trkpt lat="43.47799" lon="6.56666">
        <ele>29.1</ele>
        <time>2025-02-26T13:14:01Z</time>
      </trkpt>
      <trkpt lat="43.478" lon="6.56666">
        <ele>29.2</ele>
        <time>2025-02-26T13:14:02Z</time>
      </trkpt>
      <trkpt lat="43.47801" lon="6.56665">
        <ele>29.1</ele>
        <time>2025-02-26T13:14:03Z</time>
      </trkpt>
      <trkpt lat="43.47802" lon="6.56665">
        <ele>29</ele>
        <time>2025-02-26T13:14:04Z</time>
      </trkpt>
      <trkpt lat="43.47803" lon="6.56665">
        <ele>29</ele>
        <time>2025-02-26T13:14:05Z</time>
      </trkpt>
      <trkpt lat="43.47804" lon="6.56665">
        <ele>29</ele>
        <time>2025-02-26T13:14:06Z</time>
      </trkpt>
      <trkpt lat="43.47804" lon="6.56665">
        <ele>29</ele>
        <time>2025-02-26T13:14:07Z</time>
      </trkpt>
      <trkpt lat="43.47805" lon="6.56666">
        <ele>29</ele>
        <time>2025-02-26T13:14:08Z</time>
      </trkpt>
      <trkpt lat="43.47806" lon="6.56665">
        <ele>29</ele>
        <time>2025-02-26T13:14:09Z</time>
      </trkpt>
      <trkpt lat="43.47807" lon="6.56665">
        <ele>28.9</ele>
        <time>2025-02-26T13:14:10Z</time>
      </trkpt>
      <trkpt lat="43.47808" lon="6.56664">
        <ele>29</ele>
        <time>2025-02-26T13:14:11Z</time>
      </trkpt>
      <trkpt lat="43.47809" lon="6.56664">
        <ele>29.1</ele>
        <time>2025-02-26T13:14:12Z</time>
      </trkpt>
      <trkpt lat="43.4781" lon="6.56663">
        <ele>29.1</ele>
        <time>2025-02-26T13:14:13Z</time>
      </trkpt>
      <trkpt lat="43.47811" lon="6.56663">
        <ele>29.1</ele>
        <time>2025-02-26T13:14:14Z</time>
      </trkpt>
      <trkpt lat="43.47812" lon="6.56663">
        <ele>29.1</ele>
        <time>2025-02-26T13:14:15Z</time>
      </trkpt>
      <trkpt lat="43.47813" lon="6.56663">
        <ele>29.1</ele>
        <time>2025-02-26T13:14:16Z</time>
      </trkpt>
      <trkpt lat="43.47815" lon="6.56662">
        <ele>29.1</ele>
        <time>2025-02-26T13:14:17Z</time>
      </trkpt>
      <trkpt lat="43.47815" lon="6.56662">
        <ele>29.2</ele>
        <time>2025-02-26T13:14:18Z</time>
      </trkpt>
      <trkpt lat="43.47816" lon="6.56662">
        <ele>29.2</ele>
        <time>2025-02-26T13:14:19Z</time>
      </trkpt>
      <trkpt lat="43.47817" lon="6.56662">
        <ele>29.2</ele>
        <time>2025-02-26T13:14:20Z</time>
      </trkpt>
      <trkpt lat="43.47819" lon="6.56662">
        <ele>29.2</ele>
        <time>2025-02-26T13:14:21Z</time>
      </trkpt>
      <trkpt lat="43.4782" lon="6.56661">
        <ele>29.3</ele>
        <time>2025-02-26T13:14:22Z</time>
      </trkpt>
      <trkpt lat="43.47821" lon="6.56661">
        <ele>29.3</ele>
        <time>2025-02-26T13:14:23Z</time>
      </trkpt>
      <trkpt lat="43.47822" lon="6.56661">
        <ele>29.3</ele>
        <time>2025-02-26T13:14:24Z</time>
      </trkpt>
      <trkpt lat="43.47823" lon="6.5666">
        <ele>29.4</ele>
        <time>2025-02-26T13:14:25Z</time>
      </trkpt>
      <trkpt lat="43.47824" lon="6.5666">
        <ele>29.5</ele>
        <time>2025-02-26T13:14:26Z</time>
      </trkpt>
      <trkpt lat="43.47825" lon="6.56659">
        <ele>29.5</ele>
        <time>2025-02-26T13:14:27Z</time>
      </trkpt>
      <trkpt lat="43.47826" lon="6.56659">
        <ele>29.5</ele>
        <time>2025-02-26T13:14:28Z</time>
      </trkpt>
      <trkpt lat="43.47827" lon="6.56659">
        <ele>29.5</ele>
        <time>2025-02-26T13:14:29Z</time>
      </trkpt>
      <trkpt lat="43.47828" lon="6.56659">
        <ele>29.5</ele>
        <time>2025-02-26T13:14:30Z</time>
      </trkpt>
      <trkpt lat="43.4783" lon="6.56658">
        <ele>29.5</ele>
        <time>2025-02-26T13:14:31Z</time>
      </trkpt>
      <trkpt lat="43.47831" lon="6.56658">
        <ele>29.6</ele>
        <time>2025-02-26T13:14:32Z</time>
      </trkpt>
      <trkpt lat="43.47832" lon="6.56657">
        <ele>29.6</ele>
        <time>2025-02-26T13:14:33Z</time>
      </trkpt>
      <trkpt lat="43.47833" lon="6.56657">
        <ele>29.7</ele>
        <time>2025-02-26T13:14:34Z</time>
      </trkpt>
      <trkpt lat="43.47834" lon="6.56657">
        <ele>29.8</ele>
        <time>2025-02-26T13:14:35Z</time>
      </trkpt>
      <trkpt lat="43.47835" lon="6.56657">
        <ele>29.8</ele>
        <time>2025-02-26T13:14:36Z</time>
      </trkpt>
      <trkpt lat="43.47836" lon="6.56656">
        <ele>29.8</ele>
        <time>2025-02-26T13:14:37Z</time>
      </trkpt>
      <trkpt lat="43.47837" lon="6.56656">
        <ele>29.8</ele>
        <time>2025-02-26T13:14:38Z</time>
      </trkpt>
      <trkpt lat="43.47838" lon="6.56656">
        <ele>29.8</ele>
        <time>2025-02-26T13:14:39Z</time>
      </trkpt>
      <trkpt lat="43.47838" lon="6.56655">
        <ele>29.7</ele>
        <time>2025-02-26T13:14:40Z</time>
      </trkpt>
      <trkpt lat="43.47838" lon="6.56655">
        <ele>29.7</ele>
        <time>2025-02-26T13:14:41Z</time>
      </trkpt>
      <trkpt lat="43.47838" lon="6.56655">
        <ele>29.6</ele>
        <time>2025-02-26T13:14:42Z</time>
      </trkpt>
      <trkpt lat="43.47838" lon="6.56654">
        <ele>29.6</ele>
        <time>2025-02-26T13:14:43Z</time>
      </trkpt>
      <trkpt lat="43.47838" lon="6.56654">
        <ele>29.4</ele>
        <time>2025-02-26T13:14:44Z</time>
      </trkpt>
      <trkpt lat="43.47839" lon="6.56654">
        <ele>29.4</ele>
        <time>2025-02-26T13:14:45Z</time>
      </trkpt>
      <trkpt lat="43.47839" lon="6.56654">
        <ele>29.4</ele>
        <time>2025-02-26T13:14:46Z</time>
      </trkpt>
      <trkpt lat="43.47839" lon="6.56654">
        <ele>29.4</ele>
        <time>2025-02-26T13:14:47Z</time>
      </trkpt>
      <trkpt lat="43.47839" lon="6.56654">
        <ele>29.4</ele>
        <time>2025-02-26T13:14:48Z</time>
      </trkpt>
      <trkpt lat="43.4784" lon="6.56654">
        <ele>29.4</ele>
        <time>2025-02-26T13:14:49Z</time>
      </trkpt>
      <trkpt lat="43.47841" lon="6.56653">
        <ele>29.4</ele>
        <time>2025-02-26T13:14:50Z</time>
      </trkpt>
      <trkpt lat="43.47842" lon="6.56652">
        <ele>29.5</ele>
        <time>2025-02-26T13:14:51Z</time>
      </trkpt>
      <trkpt lat="43.47843" lon="6.56652">
        <ele>29.7</ele>
        <time>2025-02-26T13:14:52Z</time>
      </trkpt>
      <trkpt lat="43.47844" lon="6.56651">
        <ele>29.7</ele>
        <time>2025-02-26T13:14:53Z</time>
      </trkpt>
      <trkpt lat="43.47845" lon="6.56651">
        <ele>29.7</ele>
        <time>2025-02-26T13:14:54Z</time>
      </trkpt>
      <trkpt lat="43.47846" lon="6.56651">
        <ele>29.7</ele>
        <time>2025-02-26T13:14:55Z</time>
      </trkpt>
      <trkpt lat="43.47847" lon="6.56651">
        <ele>29.7</ele>
        <time>2025-02-26T13:14:56Z</time>
      </trkpt>
      <trkpt lat="43.47848" lon="6.5665">
        <ele>29.6</ele>
        <time>2025-02-26T13:14:57Z</time>
      </trkpt>
      <trkpt lat="43.47849" lon="6.5665">
        <ele>29.6</ele>
        <time>2025-02-26T13:14:58Z</time>
      </trkpt>
      <trkpt lat="43.4785" lon="6.56651">
        <ele>29.5</ele>
        <time>2025-02-26T13:14:59Z</time>
      </trkpt>
      <trkpt lat="43.47851" lon="6.56652">
        <ele>29.4</ele>
        <time>2025-02-26T13:15:00Z</time>
      </trkpt>
      <trkpt lat="43.47852" lon="6.56652">
        <ele>29.3</ele>
        <time>2025-02-26T13:15:01Z</time>
      </trkpt>
      <trkpt lat="43.47854" lon="6.56653">
        <ele>29.3</ele>
        <time>2025-02-26T13:15:02Z</time>
      </trkpt>
      <trkpt lat="43.47855" lon="6.56653">
        <ele>29.2</ele>
        <time>2025-02-26T13:15:03Z</time>
      </trkpt>
      <trkpt lat="43.47856" lon="6.56653">
        <ele>29.2</ele>
        <time>2025-02-26T13:15:04Z</time>
      </trkpt>
      <trkpt lat="43.47857" lon="6.56653">
        <ele>29.2</ele>
        <time>2025-02-26T13:15:05Z</time>
      </trkpt>
      <trkpt lat="43.47859" lon="6.56654">
        <ele>29.1</ele>
        <time>2025-02-26T13:15:06Z</time>
      </trkpt>
      <trkpt lat="43.4786" lon="6.56655">
        <ele>29</ele>
        <time>2025-02-26T13:15:07Z</time>
      </trkpt>
      <trkpt lat="43.47861" lon="6.56656">
        <ele>29</ele>
        <time>2025-02-26T13:15:08Z</time>
      </trkpt>
      <trkpt lat="43.47862" lon="6.56657">
        <ele>28.9</ele>
        <time>2025-02-26T13:15:09Z</time>
      </trkpt>
      <trkpt lat="43.47863" lon="6.56658">
        <ele>28.7</ele>
        <time>2025-02-26T13:15:10Z</time>
      </trkpt>
      <trkpt lat="43.47865" lon="6.56659">
        <ele>28.6</ele>
        <time>2025-02-26T13:15:11Z</time>
      </trkpt>
      <trkpt lat="43.47866" lon="6.5666">
        <ele>28.7</ele>
        <time>2025-02-26T13:15:12Z</time>
      </trkpt>
      <trkpt lat="43.47867" lon="6.56661">
        <ele>28.7</ele>
        <time>2025-02-26T13:15:13Z</time>
      </trkpt>
      <trkpt lat="43.47868" lon="6.56662">
        <ele>28.6</ele>
        <time>2025-02-26T13:15:14Z</time>
      </trkpt>
      <trkpt lat="43.47869" lon="6.56663">
        <ele>28.5</ele>
        <time>2025-02-26T13:15:15Z</time>
      </trkpt>
      <trkpt lat="43.47869" lon="6.56664">
        <ele>28.4</ele>
        <time>2025-02-26T13:15:16Z</time>
      </trkpt>
      <trkpt lat="43.47869" lon="6.56665">
        <ele>28.4</ele>
        <time>2025-02-26T13:15:17Z</time>
      </trkpt>
      <trkpt lat="43.47869" lon="6.56667">
        <ele>28.2</ele>
        <time>2025-02-26T13:15:18Z</time>
      </trkpt>
      <trkpt lat="43.47869" lon="6.56668">
        <ele>28.1</ele>
        <time>2025-02-26T13:15:19Z</time>
      </trkpt>
      <trkpt lat="43.47869" lon="6.56668">
        <ele>27.9</ele>
        <time>2025-02-26T13:15:20Z</time>
      </trkpt>
      <trkpt lat="43.47869" lon="6.56668">
        <ele>27.8</ele>
        <time>2025-02-26T13:15:21Z</time>
      </trkpt>
      <trkpt lat="43.4787" lon="6.56667">
        <ele>27.7</ele>
        <time>2025-02-26T13:15:22Z</time>
      </trkpt>
      <trkpt lat="43.4787" lon="6.56667">
        <ele>27.6</ele>
        <time>2025-02-26T13:15:23Z</time>
      </trkpt>
      <trkpt lat="43.4787" lon="6.56667">
        <ele>27.5</ele>
        <time>2025-02-26T13:15:24Z</time>
      </trkpt>
      <trkpt lat="43.47871" lon="6.56666">
        <ele>27.5</ele>
        <time>2025-02-26T13:15:25Z</time>
      </trkpt>
      <trkpt lat="43.47871" lon="6.56665">
        <ele>27.6</ele>
        <time>2025-02-26T13:15:26Z</time>
      </trkpt>
      <trkpt lat="43.47871" lon="6.56664">
        <ele>27.5</ele>
        <time>2025-02-26T13:15:27Z</time>
      </trkpt>
      <trkpt lat="43.47871" lon="6.56663">
        <ele>27.5</ele>
        <time>2025-02-26T13:15:28Z</time>
      </trkpt>
      <trkpt lat="43.47871" lon="6.56663">
        <ele>27.5</ele>
        <time>2025-02-26T13:15:29Z</time>
      </trkpt>
      <trkpt lat="43.4787" lon="6.56662">
        <ele>27.6</ele>
        <time>2025-02-26T13:15:30Z</time>
      </trkpt>
      <trkpt lat="43.47871" lon="6.56662">
        <ele>27.7</ele>
        <time>2025-02-26T13:15:31Z</time>
      </trkpt>
      <trkpt lat="43.47871" lon="6.56661">
        <ele>27.8</ele>
        <time>2025-02-26T13:15:32Z</time>
      </trkpt>
      <trkpt lat="43.47871" lon="6.56662">
        <ele>27.9</ele>
        <time>2025-02-26T13:15:33Z</time>
      </trkpt>
      <trkpt lat="43.47871" lon="6.56661">
        <ele>27.9</ele>
        <time>2025-02-26T13:15:34Z</time>
      </trkpt>
      <trkpt lat="43.47871" lon="6.56661">
        <ele>28</ele>
        <time>2025-02-26T13:15:35Z</time>
      </trkpt>
      <trkpt lat="43.47871" lon="6.56662">
        <ele>28</ele>
        <time>2025-02-26T13:15:36Z</time>
      </trkpt>
      <trkpt lat="43.47871" lon="6.56663">
        <ele>28.1</ele>
        <time>2025-02-26T13:15:37Z</time>
      </trkpt>
      <trkpt lat="43.47872" lon="6.56665">
        <ele>28.1</ele>
        <time>2025-02-26T13:15:38Z</time>
      </trkpt>
      <trkpt lat="43.47872" lon="6.56666">
        <ele>28.2</ele>
        <time>2025-02-26T13:15:39Z</time>
      </trkpt>
      <trkpt lat="43.47872" lon="6.56667">
        <ele>28</ele>
        <time>2025-02-26T13:15:40Z</time>
      </trkpt>
      <trkpt lat="43.47872" lon="6.56669">
        <ele>27.9</ele>
        <time>2025-02-26T13:15:41Z</time>
      </trkpt>
      <trkpt lat="43.47873" lon="6.56671">
        <ele>27.8</ele>
        <time>2025-02-26T13:15:42Z</time>
      </trkpt>
      <trkpt lat="43.47873" lon="6.56672">
        <ele>27.9</ele>
        <time>2025-02-26T13:15:43Z</time>
      </trkpt>
      <trkpt lat="43.47873" lon="6.56674">
        <ele>27.9</ele>
        <time>2025-02-26T13:15:44Z</time>
      </trkpt>
      <trkpt lat="43.47874" lon="6.56675">
        <ele>27.9</ele>
        <time>2025-02-26T13:15:45Z</time>
      </trkpt>
      <trkpt lat="43.47874" lon="6.56677">
        <ele>27.8</ele>
        <time>2025-02-26T13:15:46Z</time>
      </trkpt>
      <trkpt lat="43.47874" lon="6.56678">
        <ele>27.8</ele>
        <time>2025-02-26T13:15:47Z</time>
      </trkpt>
      <trkpt lat="43.47875" lon="6.5668">
        <ele>27.7</ele>
        <time>2025-02-26T13:15:48Z</time>
      </trkpt>
      <trkpt lat="43.47875" lon="6.56681">
        <ele>27.7</ele>
        <time>2025-02-26T13:15:49Z</time>
      </trkpt>
      <trkpt lat="43.47876" lon="6.56683">
        <ele>27.7</ele>
        <time>2025-02-26T13:15:50Z</time>
      </trkpt>
      <trkpt lat="43.47876" lon="6.56684">
        <ele>27.7</ele>
        <time>2025-02-26T13:15:51Z</time>
      </trkpt>
      <trkpt lat="43.47876" lon="6.56685">
        <ele>27.7</ele>
        <time>2025-02-26T13:15:52Z</time>
      </trkpt>
      <trkpt lat="43.47877" lon="6.56687">
        <ele>27.7</ele>
        <time>2025-02-26T13:15:53Z</time>
      </trkpt>
      <trkpt lat="43.47877" lon="6.56689">
        <ele>27.6</ele>
        <time>2025-02-26T13:15:54Z</time>
      </trkpt>
      <trkpt lat="43.47877" lon="6.5669">
        <ele>27.6</ele>
        <time>2025-02-26T13:15:55Z</time>
      </trkpt>
      <trkpt lat="43.47877" lon="6.56692">
        <ele>27.6</ele>
        <time>2025-02-26T13:15:56Z</time>
      </trkpt>
      <trkpt lat="43.47878" lon="6.56694">
        <ele>27.6</ele>
        <time>2025-02-26T13:15:57Z</time>
      </trkpt>
      <trkpt lat="43.47878" lon="6.56696">
        <ele>27.4</ele>
        <time>2025-02-26T13:15:58Z</time>
      </trkpt>
      <trkpt lat="43.47879" lon="6.56697">
        <ele>27.5</ele>
        <time>2025-02-26T13:15:59Z</time>
      </trkpt>
      <trkpt lat="43.47879" lon="6.56699">
        <ele>27.5</ele>
        <time>2025-02-26T13:16:00Z</time>
      </trkpt>
      <trkpt lat="43.47879" lon="6.567">
        <ele>27.5</ele>
        <time>2025-02-26T13:16:01Z</time>
      </trkpt>
      <trkpt lat="43.4788" lon="6.56702">
        <ele>27.4</ele>
        <time>2025-02-26T13:16:02Z</time>
      </trkpt>
      <trkpt lat="43.4788" lon="6.56704">
        <ele>27.3</ele>
        <time>2025-02-26T13:16:03Z</time>
      </trkpt>
      <trkpt lat="43.4788" lon="6.56706">
        <ele>27.3</ele>
        <time>2025-02-26T13:16:04Z</time>
      </trkpt>
      <trkpt lat="43.4788" lon="6.56707">
        <ele>27.2</ele>
        <time>2025-02-26T13:16:05Z</time>
      </trkpt>
      <trkpt lat="43.4788" lon="6.56709">
        <ele>27.3</ele>
        <time>2025-02-26T13:16:06Z</time>
      </trkpt>
      <trkpt lat="43.47879" lon="6.56711">
        <ele>27.3</ele>
        <time>2025-02-26T13:16:07Z</time>
      </trkpt>
      <trkpt lat="43.47879" lon="6.56711">
        <ele>27.4</ele>
        <time>2025-02-26T13:16:08Z</time>
      </trkpt>
      <trkpt lat="43.47878" lon="6.56712">
        <ele>27.5</ele>
        <time>2025-02-26T13:16:09Z</time>
      </trkpt>
      <trkpt lat="43.47876" lon="6.56713">
        <ele>27.4</ele>
        <time>2025-02-26T13:16:10Z</time>
      </trkpt>
      <trkpt lat="43.47875" lon="6.56714">
        <ele>27.3</ele>
        <time>2025-02-26T13:16:11Z</time>
      </trkpt>
      <trkpt lat="43.47874" lon="6.56715">
        <ele>27.1</ele>
        <time>2025-02-26T13:16:12Z</time>
      </trkpt>
      <trkpt lat="43.47873" lon="6.56715">
        <ele>27</ele>
        <time>2025-02-26T13:16:13Z</time>
      </trkpt>
      <trkpt lat="43.47873" lon="6.56715">
        <ele>26.9</ele>
        <time>2025-02-26T13:16:14Z</time>
      </trkpt>
      <trkpt lat="43.47873" lon="6.56715">
        <ele>26.7</ele>
        <time>2025-02-26T13:16:15Z</time>
      </trkpt>
      <trkpt lat="43.47872" lon="6.56714">
        <ele>26.7</ele>
        <time>2025-02-26T13:16:16Z</time>
      </trkpt>
      <trkpt lat="43.47872" lon="6.56714">
        <ele>26.5</ele>
        <time>2025-02-26T13:16:17Z</time>
      </trkpt>
      <trkpt lat="43.47873" lon="6.56714">
        <ele>26.4</ele>
        <time>2025-02-26T13:16:18Z</time>
      </trkpt>
      <trkpt lat="43.47873" lon="6.56714">
        <ele>26.3</ele>
        <time>2025-02-26T13:16:19Z</time>
      </trkpt>
      <trkpt lat="43.47873" lon="6.56714">
        <ele>26.2</ele>
        <time>2025-02-26T13:16:20Z</time>
      </trkpt>
      <trkpt lat="43.47873" lon="6.56714">
        <ele>26.3</ele>
        <time>2025-02-26T13:16:21Z</time>
      </trkpt>
      <trkpt lat="43.47873" lon="6.56715">
        <ele>26.4</ele>
        <time>2025-02-26T13:16:22Z</time>
      </trkpt>
      <trkpt lat="43.47874" lon="6.56715">
        <ele>26.5</ele>
        <time>2025-02-26T13:16:23Z</time>
      </trkpt>
      <trkpt lat="43.47874" lon="6.56716">
        <ele>26.5</ele>
        <time>2025-02-26T13:16:24Z</time>
      </trkpt>
      <trkpt lat="43.47875" lon="6.56717">
        <ele>26.4</ele>
        <time>2025-02-26T13:16:25Z</time>
      </trkpt>
      <trkpt lat="43.47875" lon="6.56718">
        <ele>26.4</ele>
        <time>2025-02-26T13:16:26Z</time>
      </trkpt>
      <trkpt lat="43.47876" lon="6.56718">
        <ele>26.4</ele>
        <time>2025-02-26T13:16:27Z</time>
      </trkpt>
      <trkpt lat="43.47876" lon="6.56718">
        <ele>26.4</ele>
        <time>2025-02-26T13:16:28Z</time>
      </trkpt>
      <trkpt lat="43.47877" lon="6.56719">
        <ele>26.4</ele>
        <time>2025-02-26T13:16:29Z</time>
      </trkpt>
      <trkpt lat="43.47877" lon="6.56719">
        <ele>26.5</ele>
        <time>2025-02-26T13:16:30Z</time>
      </trkpt>
      <trkpt lat="43.47878" lon="6.56719">
        <ele>26.4</ele>
        <time>2025-02-26T13:16:31Z</time>
      </trkpt>
      <trkpt lat="43.47878" lon="6.56719">
        <ele>26.4</ele>
        <time>2025-02-26T13:16:32Z</time>
      </trkpt>
      <trkpt lat="43.47878" lon="6.56719">
        <ele>26.3</ele>
        <time>2025-02-26T13:16:33Z</time>
      </trkpt>
      <trkpt lat="43.47878" lon="6.56719">
        <ele>26.3</ele>
        <time>2025-02-26T13:16:34Z</time>
      </trkpt>
      <trkpt lat="43.47878" lon="6.56719">
        <ele>26.2</ele>
        <time>2025-02-26T13:16:35Z</time>
      </trkpt>
      <trkpt lat="43.47879" lon="6.56719">
        <ele>26.2</ele>
        <time>2025-02-26T13:16:36Z</time>
      </trkpt>
      <trkpt lat="43.47879" lon="6.56719">
        <ele>26.3</ele>
        <time>2025-02-26T13:16:37Z</time>
      </trkpt>
      <trkpt lat="43.47879" lon="6.56719">
        <ele>26.3</ele>
        <time>2025-02-26T13:16:38Z</time>
      </trkpt>
      <trkpt lat="43.47879" lon="6.56719">
        <ele>26.4</ele>
        <time>2025-02-26T13:16:39Z</time>
      </trkpt>
      <trkpt lat="43.47879" lon="6.56719">
        <ele>26.5</ele>
        <time>2025-02-26T13:16:40Z</time>
      </trkpt>
      <trkpt lat="43.4788" lon="6.56719">
        <ele>26.6</ele>
        <time>2025-02-26T13:16:41Z</time>
      </trkpt>
      <trkpt lat="43.4788" lon="6.56719">
        <ele>26.7</ele>
        <time>2025-02-26T13:16:42Z</time>
      </trkpt>
      <trkpt lat="43.4788" lon="6.56719">
        <ele>26.7</ele>
        <time>2025-02-26T13:16:43Z</time>
      </trkpt>
      <trkpt lat="43.4788" lon="6.56719">
        <ele>26.8</ele>
        <time>2025-02-26T13:16:44Z</time>
      </trkpt>
      <trkpt lat="43.4788" lon="6.56719">
        <ele>26.8</ele>
        <time>2025-02-26T13:16:45Z</time>
      </trkpt>
      <trkpt lat="43.4788" lon="6.56719">
        <ele>26.8</ele>
        <time>2025-02-26T13:16:46Z</time>
      </trkpt>
      <trkpt lat="43.4788" lon="6.56719">
        <ele>26.8</ele>
        <time>2025-02-26T13:16:47Z</time>
      </trkpt>
      <trkpt lat="43.4788" lon="6.56719">
        <ele>26.8</ele>
        <time>2025-02-26T13:16:48Z</time>
      </trkpt>
      <trkpt lat="43.4788" lon="6.56718">
        <ele>26.9</ele>
        <time>2025-02-26T13:16:49Z</time>
      </trkpt>
      <trkpt lat="43.4788" lon="6.56718">
        <ele>27</ele>
        <time>2025-02-26T13:16:50Z</time>
      </trkpt>
      <trkpt lat="43.4788" lon="6.56718">
        <ele>27</ele>
        <time>2025-02-26T13:16:51Z</time>
      </trkpt>
      <trkpt lat="43.4788" lon="6.56718">
        <ele>26.9</ele>
        <time>2025-02-26T13:16:52Z</time>
      </trkpt>
      <trkpt lat="43.4788" lon="6.56718">
        <ele>26.8</ele>
        <time>2025-02-26T13:16:53Z</time>
      </trkpt>
      <trkpt lat="43.47881" lon="6.56718">
        <ele>26.8</ele>
        <time>2025-02-26T13:16:54Z</time>
      </trkpt>
      <trkpt lat="43.47881" lon="6.56718">
        <ele>26.8</ele>
        <time>2025-02-26T13:16:55Z</time>
      </trkpt>
      <trkpt lat="43.47881" lon="6.56718">
        <ele>26.9</ele>
        <time>2025-02-26T13:16:56Z</time>
      </trkpt>
      <trkpt lat="43.47881" lon="6.56718">
        <ele>26.8</ele>
        <time>2025-02-26T13:16:57Z</time>
      </trkpt>
      <trkpt lat="43.47881" lon="6.56717">
        <ele>26.7</ele>
        <time>2025-02-26T13:16:58Z</time>
      </trkpt>
      <trkpt lat="43.47881" lon="6.56717">
        <ele>26.6</ele>
        <time>2025-02-26T13:16:59Z</time>
      </trkpt>
      <trkpt lat="43.47882" lon="6.56718">
        <ele>26.5</ele>
        <time>2025-02-26T13:17:00Z</time>
      </trkpt>
      <trkpt lat="43.47883" lon="6.56718">
        <ele>26.5</ele>
        <time>2025-02-26T13:17:01Z</time>
      </trkpt>
      <trkpt lat="43.47884" lon="6.56719">
        <ele>26.4</ele>
        <time>2025-02-26T13:17:02Z</time>
      </trkpt>
      <trkpt lat="43.47884" lon="6.5672">
        <ele>26.4</ele>
        <time>2025-02-26T13:17:03Z</time>
      </trkpt>
      <trkpt lat="43.47884" lon="6.56721">
        <ele>26.4</ele>
        <time>2025-02-26T13:17:04Z</time>
      </trkpt>
      <trkpt lat="43.47885" lon="6.56722">
        <ele>26.3</ele>
        <time>2025-02-26T13:17:05Z</time>
      </trkpt>
      <trkpt lat="43.47886" lon="6.56723">
        <ele>26.3</ele>
        <time>2025-02-26T13:17:06Z</time>
      </trkpt>
      <trkpt lat="43.47886" lon="6.56724">
        <ele>26.3</ele>
        <time>2025-02-26T13:17:07Z</time>
      </trkpt>
      <trkpt lat="43.47886" lon="6.56725">
        <ele>26.4</ele>
        <time>2025-02-26T13:17:08Z</time>
      </trkpt>
      <trkpt lat="43.47886" lon="6.56726">
        <ele>26.4</ele>
        <time>2025-02-26T13:17:09Z</time>
      </trkpt>
      <trkpt lat="43.47886" lon="6.56727">
        <ele>26.4</ele>
        <time>2025-02-26T13:17:10Z</time>
      </trkpt>
      <trkpt lat="43.47887" lon="6.56729">
        <ele>26.4</ele>
        <time>2025-02-26T13:17:11Z</time>
      </trkpt>
      <trkpt lat="43.47887" lon="6.5673">
        <ele>26.4</ele>
        <time>2025-02-26T13:17:12Z</time>
      </trkpt>
      <trkpt lat="43.47888" lon="6.56731">
        <ele>26.4</ele>
        <time>2025-02-26T13:17:13Z</time>
      </trkpt>
      <trkpt lat="43.47888" lon="6.56732">
        <ele>26.3</ele>
        <time>2025-02-26T13:17:14Z</time>
      </trkpt>
      <trkpt lat="43.47888" lon="6.56734">
        <ele>26.3</ele>
        <time>2025-02-26T13:17:15Z</time>
      </trkpt>
      <trkpt lat="43.47888" lon="6.56735">
        <ele>26.2</ele>
        <time>2025-02-26T13:17:16Z</time>
      </trkpt>
      <trkpt lat="43.47888" lon="6.56736">
        <ele>26.2</ele>
        <time>2025-02-26T13:17:17Z</time>
      </trkpt>
      <trkpt lat="43.47889" lon="6.56737">
        <ele>26.2</ele>
        <time>2025-02-26T13:17:18Z</time>
      </trkpt>
      <trkpt lat="43.47889" lon="6.56739">
        <ele>26.2</ele>
        <time>2025-02-26T13:17:19Z</time>
      </trkpt>
      <trkpt lat="43.47889" lon="6.5674">
        <ele>26.2</ele>
        <time>2025-02-26T13:17:20Z</time>
      </trkpt>
      <trkpt lat="43.47889" lon="6.56741">
        <ele>26.2</ele>
        <time>2025-02-26T13:17:21Z</time>
      </trkpt>
      <trkpt lat="43.4789" lon="6.56743">
        <ele>26.3</ele>
        <time>2025-02-26T13:17:22Z</time>
      </trkpt>
      <trkpt lat="43.4789" lon="6.56744">
        <ele>26.3</ele>
        <time>2025-02-26T13:17:23Z</time>
      </trkpt>
      <trkpt lat="43.4789" lon="6.56745">
        <ele>26.4</ele>
        <time>2025-02-26T13:17:24Z</time>
      </trkpt>
      <trkpt lat="43.4789" lon="6.56747">
        <ele>26.3</ele>
        <time>2025-02-26T13:17:25Z</time>
      </trkpt>
      <trkpt lat="43.4789" lon="6.56748">
        <ele>26.3</ele>
        <time>2025-02-26T13:17:26Z</time>
      </trkpt>
      <trkpt lat="43.47891" lon="6.56749">
        <ele>26.2</ele>
        <time>2025-02-26T13:17:27Z</time>
      </trkpt>
      <trkpt lat="43.47891" lon="6.56751">
        <ele>26.2</ele>
        <time>2025-02-26T13:17:28Z</time>
      </trkpt>
      <trkpt lat="43.47892" lon="6.56752">
        <ele>26.2</ele>
        <time>2025-02-26T13:17:29Z</time>
      </trkpt>
      <trkpt lat="43.47892" lon="6.56754">
        <ele>26.2</ele>
        <time>2025-02-26T13:17:30Z</time>
      </trkpt>
      <trkpt lat="43.47892" lon="6.56755">
        <ele>26.1</ele>
        <time>2025-02-26T13:17:31Z</time>
      </trkpt>
      <trkpt lat="43.47892" lon="6.56757">
        <ele>26.1</ele>
        <time>2025-02-26T13:17:32Z</time>
      </trkpt>
      <trkpt lat="43.47893" lon="6.56759">
        <ele>26.1</ele>
        <time>2025-02-26T13:17:33Z</time>
      </trkpt>
      <trkpt lat="43.47893" lon="6.5676">
        <ele>26.1</ele>
        <time>2025-02-26T13:17:34Z</time>
      </trkpt>
      <trkpt lat="43.47894" lon="6.56761">
        <ele>26</ele>
        <time>2025-02-26T13:17:35Z</time>
      </trkpt>
      <trkpt lat="43.47894" lon="6.56762">
        <ele>26.1</ele>
        <time>2025-02-26T13:17:36Z</time>
      </trkpt>
      <trkpt lat="43.47894" lon="6.56763">
        <ele>26.1</ele>
        <time>2025-02-26T13:17:37Z</time>
      </trkpt>
      <trkpt lat="43.47894" lon="6.56763">
        <ele>26.1</ele>
        <time>2025-02-26T13:17:38Z</time>
      </trkpt>
      <trkpt lat="43.47894" lon="6.56763">
        <ele>26</ele>
        <time>2025-02-26T13:17:39Z</time>
      </trkpt>
      <trkpt lat="43.47893" lon="6.56763">
        <ele>26</ele>
        <time>2025-02-26T13:17:40Z</time>
      </trkpt>
      <trkpt lat="43.47893" lon="6.56763">
        <ele>26</ele>
        <time>2025-02-26T13:17:41Z</time>
      </trkpt>
      <trkpt lat="43.47894" lon="6.56763">
        <ele>25.9</ele>
        <time>2025-02-26T13:17:42Z</time>
      </trkpt>
      <trkpt lat="43.47893" lon="6.56763">
        <ele>26</ele>
        <time>2025-02-26T13:17:43Z</time>
      </trkpt>
      <trkpt lat="43.47893" lon="6.56763">
        <ele>26</ele>
        <time>2025-02-26T13:17:44Z</time>
      </trkpt>
      <trkpt lat="43.47893" lon="6.56764">
        <ele>26</ele>
        <time>2025-02-26T13:17:45Z</time>
      </trkpt>
      <trkpt lat="43.47893" lon="6.56764">
        <ele>26</ele>
        <time>2025-02-26T13:17:46Z</time>
      </trkpt>
      <trkpt lat="43.47893" lon="6.56764">
        <ele>26</ele>
        <time>2025-02-26T13:17:47Z</time>
      </trkpt>
      <trkpt lat="43.47893" lon="6.56764">
        <ele>26.1</ele>
        <time>2025-02-26T13:17:48Z</time>
      </trkpt>
      <trkpt lat="43.47893" lon="6.56764">
        <ele>26.1</ele>
        <time>2025-02-26T13:17:49Z</time>
      </trkpt>
      <trkpt lat="43.47892" lon="6.56765">
        <ele>26.2</ele>
        <time>2025-02-26T13:17:50Z</time>
      </trkpt>
      <trkpt lat="43.47892" lon="6.56765">
        <ele>26.2</ele>
        <time>2025-02-26T13:17:51Z</time>
      </trkpt>
      <trkpt lat="43.47892" lon="6.56766">
        <ele>26.2</ele>
        <time>2025-02-26T13:17:52Z</time>
      </trkpt>
      <trkpt lat="43.47892" lon="6.56766">
        <ele>26.2</ele>
        <time>2025-02-26T13:17:53Z</time>
      </trkpt>
      <trkpt lat="43.47892" lon="6.56766">
        <ele>26.3</ele>
        <time>2025-02-26T13:17:54Z</time>
      </trkpt>
      <trkpt lat="43.47892" lon="6.56766">
        <ele>26.2</ele>
        <time>2025-02-26T13:17:55Z</time>
      </trkpt>
      <trkpt lat="43.47892" lon="6.56766">
        <ele>26.2</ele>
        <time>2025-02-26T13:17:56Z</time>
      </trkpt>
      <trkpt lat="43.47892" lon="6.56767">
        <ele>26.2</ele>
        <time>2025-02-26T13:17:57Z</time>
      </trkpt>
      <trkpt lat="43.47892" lon="6.56767">
        <ele>26.2</ele>
        <time>2025-02-26T13:17:58Z</time>
      </trkpt>
      <trkpt lat="43.47892" lon="6.56767">
        <ele>26.1</ele>
        <time>2025-02-26T13:17:59Z</time>
      </trkpt>
      <trkpt lat="43.47892" lon="6.56767">
        <ele>26.2</ele>
        <time>2025-02-26T13:18:00Z</time>
      </trkpt>
      <trkpt lat="43.47892" lon="6.56767">
        <ele>26.2</ele>
        <time>2025-02-26T13:18:01Z</time>
      </trkpt>
      <trkpt lat="43.47892" lon="6.56767">
        <ele>26.2</ele>
        <time>2025-02-26T13:18:02Z</time>
      </trkpt>
      <trkpt lat="43.47892" lon="6.56767">
        <ele>26.2</ele>
        <time>2025-02-26T13:18:03Z</time>
      </trkpt>
      <trkpt lat="43.47892" lon="6.56767">
        <ele>26.2</ele>
        <time>2025-02-26T13:18:04Z</time>
      </trkpt>
      <trkpt lat="43.47892" lon="6.56767">
        <ele>26.2</ele>
        <time>2025-02-26T13:18:05Z</time>
      </trkpt>
      <trkpt lat="43.47892" lon="6.56768">
        <ele>26.2</ele>
        <time>2025-02-26T13:18:06Z</time>
      </trkpt>
      <trkpt lat="43.47891" lon="6.56768">
        <ele>26.2</ele>
        <time>2025-02-26T13:18:07Z</time>
      </trkpt>
      <trkpt lat="43.47891" lon="6.56768">
        <ele>26.1</ele>
        <time>2025-02-26T13:18:08Z</time>
      </trkpt>
      <trkpt lat="43.47891" lon="6.56768">
        <ele>26.2</ele>
        <time>2025-02-26T13:18:09Z</time>
      </trkpt>
      <trkpt lat="43.47892" lon="6.56768">
        <ele>26.1</ele>
        <time>2025-02-26T13:18:10Z</time>
      </trkpt>
      <trkpt lat="43.47892" lon="6.56769">
        <ele>26.1</ele>
        <time>2025-02-26T13:18:11Z</time>
      </trkpt>
      <trkpt lat="43.47892" lon="6.56769">
        <ele>26.2</ele>
        <time>2025-02-26T13:18:12Z</time>
      </trkpt>
      <trkpt lat="43.47893" lon="6.5677">
        <ele>26.1</ele>
        <time>2025-02-26T13:18:13Z</time>
      </trkpt>
      <trkpt lat="43.47894" lon="6.56771">
        <ele>26.1</ele>
        <time>2025-02-26T13:18:14Z</time>
      </trkpt>
      <trkpt lat="43.47894" lon="6.56772">
        <ele>26.1</ele>
        <time>2025-02-26T13:18:15Z</time>
      </trkpt>
      <trkpt lat="43.47895" lon="6.56773">
        <ele>26.1</ele>
        <time>2025-02-26T13:18:16Z</time>
      </trkpt>
      <trkpt lat="43.47896" lon="6.56774">
        <ele>26.1</ele>
        <time>2025-02-26T13:18:17Z</time>
      </trkpt>
      <trkpt lat="43.47896" lon="6.56775">
        <ele>26</ele>
        <time>2025-02-26T13:18:18Z</time>
      </trkpt>
      <trkpt lat="43.47897" lon="6.56776">
        <ele>25.9</ele>
        <time>2025-02-26T13:18:19Z</time>
      </trkpt>
      <trkpt lat="43.47898" lon="6.56777">
        <ele>25.8</ele>
        <time>2025-02-26T13:18:20Z</time>
      </trkpt>
      <trkpt lat="43.47898" lon="6.56778">
        <ele>25.8</ele>
        <time>2025-02-26T13:18:21Z</time>
      </trkpt>
      <trkpt lat="43.47899" lon="6.56779">
        <ele>25.7</ele>
        <time>2025-02-26T13:18:22Z</time>
      </trkpt>
      <trkpt lat="43.479" lon="6.5678">
        <ele>25.7</ele>
        <time>2025-02-26T13:18:23Z</time>
      </trkpt>
      <trkpt lat="43.479" lon="6.56782">
        <ele>25.7</ele>
        <time>2025-02-26T13:18:24Z</time>
      </trkpt>
      <trkpt lat="43.47901" lon="6.56784">
        <ele>25.8</ele>
        <time>2025-02-26T13:18:25Z</time>
      </trkpt>
      <trkpt lat="43.47901" lon="6.56784">
        <ele>25.9</ele>
        <time>2025-02-26T13:18:26Z</time>
      </trkpt>
      <trkpt lat="43.47902" lon="6.56785">
        <ele>25.9</ele>
        <time>2025-02-26T13:18:27Z</time>
      </trkpt>
      <trkpt lat="43.47903" lon="6.56787">
        <ele>25.9</ele>
        <time>2025-02-26T13:18:28Z</time>
      </trkpt>
      <trkpt lat="43.47904" lon="6.56787">
        <ele>25.9</ele>
        <time>2025-02-26T13:18:29Z</time>
      </trkpt>
      <trkpt lat="43.47905" lon="6.56789">
        <ele>26</ele>
        <time>2025-02-26T13:18:30Z</time>
      </trkpt>
      <trkpt lat="43.47906" lon="6.5679">
        <ele>26</ele>
        <time>2025-02-26T13:18:31Z</time>
      </trkpt>
      <trkpt lat="43.47907" lon="6.5679">
        <ele>26.1</ele>
        <time>2025-02-26T13:18:32Z</time>
      </trkpt>
      <trkpt lat="43.47908" lon="6.56791">
        <ele>26.1</ele>
        <time>2025-02-26T13:18:33Z</time>
      </trkpt>
      <trkpt lat="43.47909" lon="6.56792">
        <ele>26.1</ele>
        <time>2025-02-26T13:18:34Z</time>
      </trkpt>
      <trkpt lat="43.4791" lon="6.56792">
        <ele>26.2</ele>
        <time>2025-02-26T13:18:35Z</time>
      </trkpt>
      <trkpt lat="43.4791" lon="6.56793">
        <ele>26.3</ele>
        <time>2025-02-26T13:18:36Z</time>
      </trkpt>
      <trkpt lat="43.47911" lon="6.56794">
        <ele>26.3</ele>
        <time>2025-02-26T13:18:37Z</time>
      </trkpt>
      <trkpt lat="43.47912" lon="6.56794">
        <ele>26.3</ele>
        <time>2025-02-26T13:18:38Z</time>
      </trkpt>
      <trkpt lat="43.47912" lon="6.56793">
        <ele>26.2</ele>
        <time>2025-02-26T13:18:39Z</time>
      </trkpt>
      <trkpt lat="43.47912" lon="6.56794">
        <ele>26.3</ele>
        <time>2025-02-26T13:18:40Z</time>
      </trkpt>
      <trkpt lat="43.47913" lon="6.56794">
        <ele>26.3</ele>
        <time>2025-02-26T13:18:41Z</time>
      </trkpt>
      <trkpt lat="43.47914" lon="6.56793">
        <ele>26.4</ele>
        <time>2025-02-26T13:18:42Z</time>
      </trkpt>
      <trkpt lat="43.47914" lon="6.56793">
        <ele>26.4</ele>
        <time>2025-02-26T13:18:43Z</time>
      </trkpt>
      <trkpt lat="43.47915" lon="6.56793">
        <ele>26.4</ele>
        <time>2025-02-26T13:18:44Z</time>
      </trkpt>
      <trkpt lat="43.47915" lon="6.56793">
        <ele>26.4</ele>
        <time>2025-02-26T13:18:45Z</time>
      </trkpt>
      <trkpt lat="43.47915" lon="6.56793">
        <ele>26.3</ele>
        <time>2025-02-26T13:18:46Z</time>
      </trkpt>
      <trkpt lat="43.47915" lon="6.56793">
        <ele>26.3</ele>
        <time>2025-02-26T13:18:47Z</time>
      </trkpt>
      <trkpt lat="43.47915" lon="6.56793">
        <ele>26.4</ele>
        <time>2025-02-26T13:18:48Z</time>
      </trkpt>
      <trkpt lat="43.47915" lon="6.56793">
        <ele>26.3</ele>
        <time>2025-02-26T13:18:49Z</time>
      </trkpt>
      <trkpt lat="43.47915" lon="6.56794">
        <ele>26.3</ele>
        <time>2025-02-26T13:18:50Z</time>
      </trkpt>
      <trkpt lat="43.47915" lon="6.56795">
        <ele>26.3</ele>
        <time>2025-02-26T13:18:51Z</time>
      </trkpt>
      <trkpt lat="43.47915" lon="6.56795">
        <ele>26.4</ele>
        <time>2025-02-26T13:18:52Z</time>
      </trkpt>
      <trkpt lat="43.47915" lon="6.56795">
        <ele>26.5</ele>
        <time>2025-02-26T13:18:53Z</time>
      </trkpt>
      <trkpt lat="43.47915" lon="6.56795">
        <ele>26.5</ele>
        <time>2025-02-26T13:18:54Z</time>
      </trkpt>
      <trkpt lat="43.47915" lon="6.56795">
        <ele>26.5</ele>
        <time>2025-02-26T13:18:55Z</time>
      </trkpt>
      <trkpt lat="43.47915" lon="6.56795">
        <ele>26.5</ele>
        <time>2025-02-26T13:18:56Z</time>
      </trkpt>
      <trkpt lat="43.47916" lon="6.56795">
        <ele>26.5</ele>
        <time>2025-02-26T13:18:57Z</time>
      </trkpt>
      <trkpt lat="43.47916" lon="6.56795">
        <ele>26.4</ele>
        <time>2025-02-26T13:18:58Z</time>
      </trkpt>
      <trkpt lat="43.47916" lon="6.56795">
        <ele>26.4</ele>
        <time>2025-02-26T13:18:59Z</time>
      </trkpt>
      <trkpt lat="43.47916" lon="6.56795">
        <ele>26.4</ele>
        <time>2025-02-26T13:19:00Z</time>
      </trkpt>
      <trkpt lat="43.47916" lon="6.56795">
        <ele>26.4</ele>
        <time>2025-02-26T13:19:01Z</time>
      </trkpt>
      <trkpt lat="43.47916" lon="6.56795">
        <ele>26.4</ele>
        <time>2025-02-26T13:19:02Z</time>
      </trkpt>
      <trkpt lat="43.47916" lon="6.56795">
        <ele>26.3</ele>
        <time>2025-02-26T13:19:03Z</time>
      </trkpt>
      <trkpt lat="43.47916" lon="6.56795">
        <ele>26.2</ele>
        <time>2025-02-26T13:19:04Z</time>
      </trkpt>
      <trkpt lat="43.47916" lon="6.56795">
        <ele>26.2</ele>
        <time>2025-02-26T13:19:05Z</time>
      </trkpt>
      <trkpt lat="43.47917" lon="6.56795">
        <ele>26.2</ele>
        <time>2025-02-26T13:19:06Z</time>
      </trkpt>
      <trkpt lat="43.47917" lon="6.56795">
        <ele>26.1</ele>
        <time>2025-02-26T13:19:07Z</time>
      </trkpt>
      <trkpt lat="43.47917" lon="6.56795">
        <ele>26</ele>
        <time>2025-02-26T13:19:08Z</time>
      </trkpt>
      <trkpt lat="43.47917" lon="6.56796">
        <ele>26</ele>
        <time>2025-02-26T13:19:09Z</time>
      </trkpt>
      <trkpt lat="43.47917" lon="6.56796">
        <ele>26</ele>
        <time>2025-02-26T13:19:10Z</time>
      </trkpt>
      <trkpt lat="43.47917" lon="6.56795">
        <ele>26.1</ele>
        <time>2025-02-26T13:19:11Z</time>
      </trkpt>
      <trkpt lat="43.47917" lon="6.56795">
        <ele>26.1</ele>
        <time>2025-02-26T13:19:12Z</time>
      </trkpt>
      <trkpt lat="43.47917" lon="6.56795">
        <ele>26.1</ele>
        <time>2025-02-26T13:19:13Z</time>
      </trkpt>
      <trkpt lat="43.47916" lon="6.56796">
        <ele>26.1</ele>
        <time>2025-02-26T13:19:14Z</time>
      </trkpt>
      <trkpt lat="43.47916" lon="6.56795">
        <ele>26.1</ele>
        <time>2025-02-26T13:19:15Z</time>
      </trkpt>
      <trkpt lat="43.47916" lon="6.56796">
        <ele>26.1</ele>
        <time>2025-02-26T13:19:16Z</time>
      </trkpt>
      <trkpt lat="43.47916" lon="6.56796">
        <ele>26.1</ele>
        <time>2025-02-26T13:19:17Z</time>
      </trkpt>
      <trkpt lat="43.47916" lon="6.56795">
        <ele>26.2</ele>
        <time>2025-02-26T13:19:18Z</time>
      </trkpt>
      <trkpt lat="43.47916" lon="6.56795">
        <ele>26.3</ele>
        <time>2025-02-26T13:19:19Z</time>
      </trkpt>
      <trkpt lat="43.47916" lon="6.56795">
        <ele>26.3</ele>
        <time>2025-02-26T13:19:20Z</time>
      </trkpt>
      <trkpt lat="43.47916" lon="6.56795">
        <ele>26.4</ele>
        <time>2025-02-26T13:19:21Z</time>
      </trkpt>
      <trkpt lat="43.47916" lon="6.56795">
        <ele>26.4</ele>
        <time>2025-02-26T13:19:22Z</time>
      </trkpt>
      <trkpt lat="43.47916" lon="6.56795">
        <ele>26.5</ele>
        <time>2025-02-26T13:19:23Z</time>
      </trkpt>
      <trkpt lat="43.47916" lon="6.56795">
        <ele>26.5</ele>
        <time>2025-02-26T13:19:24Z</time>
      </trkpt>
      <trkpt lat="43.47916" lon="6.56796">
        <ele>26.6</ele>
        <time>2025-02-26T13:19:25Z</time>
      </trkpt>
      <trkpt lat="43.47916" lon="6.56796">
        <ele>26.6</ele>
        <time>2025-02-26T13:19:26Z</time>
      </trkpt>
      <trkpt lat="43.47917" lon="6.56796">
        <ele>26.7</ele>
        <time>2025-02-26T13:19:27Z</time>
      </trkpt>
      <trkpt lat="43.47917" lon="6.56796">
        <ele>26.7</ele>
        <time>2025-02-26T13:19:28Z</time>
      </trkpt>
      <trkpt lat="43.47917" lon="6.56796">
        <ele>26.7</ele>
        <time>2025-02-26T13:19:29Z</time>
      </trkpt>
      <trkpt lat="43.47917" lon="6.56796">
        <ele>26.7</ele>
        <time>2025-02-26T13:19:30Z</time>
      </trkpt>
      <trkpt lat="43.47917" lon="6.56796">
        <ele>26.6</ele>
        <time>2025-02-26T13:19:31Z</time>
      </trkpt>
      <trkpt lat="43.47917" lon="6.56796">
        <ele>26.6</ele>
        <time>2025-02-26T13:19:32Z</time>
      </trkpt>
      <trkpt lat="43.47917" lon="6.56796">
        <ele>26.5</ele>
        <time>2025-02-26T13:19:33Z</time>
      </trkpt>
      <trkpt lat="43.47918" lon="6.56797">
        <ele>26.4</ele>
        <time>2025-02-26T13:19:34Z</time>
      </trkpt>
      <trkpt lat="43.47918" lon="6.56797">
        <ele>26.4</ele>
        <time>2025-02-26T13:19:35Z</time>
      </trkpt>
      <trkpt lat="43.47918" lon="6.56797">
        <ele>26.3</ele>
        <time>2025-02-26T13:19:36Z</time>
      </trkpt>
      <trkpt lat="43.47918" lon="6.56798">
        <ele>26.4</ele>
        <time>2025-02-26T13:19:37Z</time>
      </trkpt>
      <trkpt lat="43.47919" lon="6.56799">
        <ele>26.4</ele>
        <time>2025-02-26T13:19:38Z</time>
      </trkpt>
      <trkpt lat="43.4792" lon="6.56799">
        <ele>26.5</ele>
        <time>2025-02-26T13:19:39Z</time>
      </trkpt>
      <trkpt lat="43.4792" lon="6.56799">
        <ele>26.4</ele>
        <time>2025-02-26T13:19:40Z</time>
      </trkpt>
      <trkpt lat="43.47921" lon="6.568">
        <ele>26.4</ele>
        <time>2025-02-26T13:19:41Z</time>
      </trkpt>
      <trkpt lat="43.47921" lon="6.56801">
        <ele>26.3</ele>
        <time>2025-02-26T13:19:42Z</time>
      </trkpt>
      <trkpt lat="43.47921" lon="6.56801">
        <ele>26.2</ele>
        <time>2025-02-26T13:19:43Z</time>
      </trkpt>
      <trkpt lat="43.47922" lon="6.56802">
        <ele>26.2</ele>
        <time>2025-02-26T13:19:44Z</time>
      </trkpt>
      <trkpt lat="43.47922" lon="6.56803">
        <ele>26.1</ele>
        <time>2025-02-26T13:19:45Z</time>
      </trkpt>
      <trkpt lat="43.47923" lon="6.56804">
        <ele>26.1</ele>
        <time>2025-02-26T13:19:46Z</time>
      </trkpt>
      <trkpt lat="43.47923" lon="6.56804">
        <ele>26.1</ele>
        <time>2025-02-26T13:19:47Z</time>
      </trkpt>
      <trkpt lat="43.47924" lon="6.56805">
        <ele>26.1</ele>
        <time>2025-02-26T13:19:48Z</time>
      </trkpt>
      <trkpt lat="43.47925" lon="6.56805">
        <ele>26.1</ele>
        <time>2025-02-26T13:19:49Z</time>
      </trkpt>
      <trkpt lat="43.47925" lon="6.56805">
        <ele>26.1</ele>
        <time>2025-02-26T13:19:50Z</time>
      </trkpt>
      <trkpt lat="43.47926" lon="6.56806">
        <ele>26.1</ele>
        <time>2025-02-26T13:19:51Z</time>
      </trkpt>
      <trkpt lat="43.47927" lon="6.56807">
        <ele>26.1</ele>
        <time>2025-02-26T13:19:52Z</time>
      </trkpt>
      <trkpt lat="43.47927" lon="6.56808">
        <ele>26.1</ele>
        <time>2025-02-26T13:19:53Z</time>
      </trkpt>
      <trkpt lat="43.47928" lon="6.56808">
        <ele>26.1</ele>
        <time>2025-02-26T13:19:54Z</time>
      </trkpt>
      <trkpt lat="43.47929" lon="6.56809">
        <ele>26</ele>
        <time>2025-02-26T13:19:55Z</time>
      </trkpt>
      <trkpt lat="43.4793" lon="6.5681">
        <ele>26</ele>
        <time>2025-02-26T13:19:56Z</time>
      </trkpt>
      <trkpt lat="43.47931" lon="6.5681">
        <ele>26</ele>
        <time>2025-02-26T13:19:57Z</time>
      </trkpt>
      <trkpt lat="43.47931" lon="6.56811">
        <ele>26</ele>
        <time>2025-02-26T13:19:58Z</time>
      </trkpt>
      <trkpt lat="43.47932" lon="6.56812">
        <ele>26.1</ele>
        <time>2025-02-26T13:19:59Z</time>
      </trkpt>
      <trkpt lat="43.47933" lon="6.56813">
        <ele>26.1</ele>
        <time>2025-02-26T13:20:00Z</time>
      </trkpt>
      <trkpt lat="43.47934" lon="6.56814">
        <ele>26.2</ele>
        <time>2025-02-26T13:20:01Z</time>
      </trkpt>
      <trkpt lat="43.47935" lon="6.56816">
        <ele>26.2</ele>
        <time>2025-02-26T13:20:02Z</time>
      </trkpt>
      <trkpt lat="43.47936" lon="6.56817">
        <ele>26.3</ele>
        <time>2025-02-26T13:20:03Z</time>
      </trkpt>
      <trkpt lat="43.47937" lon="6.56817">
        <ele>26.2</ele>
        <time>2025-02-26T13:20:04Z</time>
      </trkpt>
      <trkpt lat="43.47938" lon="6.56818">
        <ele>26.2</ele>
        <time>2025-02-26T13:20:05Z</time>
      </trkpt>
      <trkpt lat="43.47939" lon="6.56819">
        <ele>26.1</ele>
        <time>2025-02-26T13:20:06Z</time>
      </trkpt>
      <trkpt lat="43.47939" lon="6.56819">
        <ele>26.1</ele>
        <time>2025-02-26T13:20:07Z</time>
      </trkpt>
      <trkpt lat="43.47939" lon="6.56819">
        <ele>26.1</ele>
        <time>2025-02-26T13:20:08Z</time>
      </trkpt>
      <trkpt lat="43.4794" lon="6.56819">
        <ele>26</ele>
        <time>2025-02-26T13:20:09Z</time>
      </trkpt>
      <trkpt lat="43.4794" lon="6.56819">
        <ele>26</ele>
        <time>2025-02-26T13:20:10Z</time>
      </trkpt>
      <trkpt lat="43.4794" lon="6.56819">
        <ele>25.9</ele>
        <time>2025-02-26T13:20:11Z</time>
      </trkpt>
      <trkpt lat="43.4794" lon="6.56819">
        <ele>25.8</ele>
        <time>2025-02-26T13:20:12Z</time>
      </trkpt>
      <trkpt lat="43.4794" lon="6.56819">
        <ele>25.8</ele>
        <time>2025-02-26T13:20:13Z</time>
      </trkpt>
      <trkpt lat="43.4794" lon="6.56819">
        <ele>25.8</ele>
        <time>2025-02-26T13:20:14Z</time>
      </trkpt>
      <trkpt lat="43.4794" lon="6.56819">
        <ele>25.7</ele>
        <time>2025-02-26T13:20:15Z</time>
      </trkpt>
      <trkpt lat="43.4794" lon="6.56819">
        <ele>25.6</ele>
        <time>2025-02-26T13:20:16Z</time>
      </trkpt>
      <trkpt lat="43.47941" lon="6.56819">
        <ele>25.6</ele>
        <time>2025-02-26T13:20:17Z</time>
      </trkpt>
      <trkpt lat="43.47941" lon="6.56819">
        <ele>25.6</ele>
        <time>2025-02-26T13:20:18Z</time>
      </trkpt>
      <trkpt lat="43.47941" lon="6.56819">
        <ele>25.6</ele>
        <time>2025-02-26T13:20:19Z</time>
      </trkpt>
      <trkpt lat="43.47942" lon="6.5682">
        <ele>25.6</ele>
        <time>2025-02-26T13:20:20Z</time>
      </trkpt>
      <trkpt lat="43.47942" lon="6.5682">
        <ele>25.5</ele>
        <time>2025-02-26T13:20:21Z</time>
      </trkpt>
      <trkpt lat="43.47942" lon="6.5682">
        <ele>25.6</ele>
        <time>2025-02-26T13:20:22Z</time>
      </trkpt>
      <trkpt lat="43.47942" lon="6.56821">
        <ele>25.6</ele>
        <time>2025-02-26T13:20:23Z</time>
      </trkpt>
      <trkpt lat="43.47942" lon="6.56821">
        <ele>25.6</ele>
        <time>2025-02-26T13:20:24Z</time>
      </trkpt>
      <trkpt lat="43.47942" lon="6.56821">
        <ele>25.6</ele>
        <time>2025-02-26T13:20:25Z</time>
      </trkpt>
      <trkpt lat="43.47942" lon="6.56821">
        <ele>25.6</ele>
        <time>2025-02-26T13:20:26Z</time>
      </trkpt>
      <trkpt lat="43.47941" lon="6.56821">
        <ele>25.6</ele>
        <time>2025-02-26T13:20:27Z</time>
      </trkpt>
      <trkpt lat="43.47941" lon="6.5682">
        <ele>25.6</ele>
        <time>2025-02-26T13:20:28Z</time>
      </trkpt>
      <trkpt lat="43.47941" lon="6.5682">
        <ele>25.4</ele>
        <time>2025-02-26T13:20:29Z</time>
      </trkpt>
      <trkpt lat="43.47941" lon="6.5682">
        <ele>25.3</ele>
        <time>2025-02-26T13:20:30Z</time>
      </trkpt>
      <trkpt lat="43.47941" lon="6.5682">
        <ele>25.3</ele>
        <time>2025-02-26T13:20:31Z</time>
      </trkpt>
      <trkpt lat="43.47941" lon="6.5682">
        <ele>25.2</ele>
        <time>2025-02-26T13:20:32Z</time>
      </trkpt>
      <trkpt lat="43.47941" lon="6.5682">
        <ele>25.2</ele>
        <time>2025-02-26T13:20:33Z</time>
      </trkpt>
      <trkpt lat="43.47942" lon="6.5682">
        <ele>25.2</ele>
        <time>2025-02-26T13:20:34Z</time>
      </trkpt>
      <trkpt lat="43.47942" lon="6.5682">
        <ele>25.2</ele>
        <time>2025-02-26T13:20:35Z</time>
      </trkpt>
      <trkpt lat="43.47943" lon="6.5682">
        <ele>25.1</ele>
        <time>2025-02-26T13:20:36Z</time>
      </trkpt>
      <trkpt lat="43.47943" lon="6.5682">
        <ele>25.1</ele>
        <time>2025-02-26T13:20:37Z</time>
      </trkpt>
      <trkpt lat="43.47944" lon="6.56821">
        <ele>25.1</ele>
        <time>2025-02-26T13:20:38Z</time>
      </trkpt>
      <trkpt lat="43.47945" lon="6.56821">
        <ele>25.2</ele>
        <time>2025-02-26T13:20:39Z</time>
      </trkpt>
      <trkpt lat="43.47945" lon="6.56822">
        <ele>25.2</ele>
        <time>2025-02-26T13:20:40Z</time>
      </trkpt>
      <trkpt lat="43.47946" lon="6.56822">
        <ele>25.2</ele>
        <time>2025-02-26T13:20:41Z</time>
      </trkpt>
      <trkpt lat="43.47948" lon="6.56822">
        <ele>25.2</ele>
        <time>2025-02-26T13:20:42Z</time>
      </trkpt>
      <trkpt lat="43.47948" lon="6.56823">
        <ele>25.1</ele>
        <time>2025-02-26T13:20:43Z</time>
      </trkpt>
      <trkpt lat="43.47948" lon="6.56824">
        <ele>25.1</ele>
        <time>2025-02-26T13:20:44Z</time>
      </trkpt>
      <trkpt lat="43.47948" lon="6.56826">
        <ele>25.1</ele>
        <time>2025-02-26T13:20:45Z</time>
      </trkpt>
      <trkpt lat="43.47948" lon="6.56827">
        <ele>25.1</ele>
        <time>2025-02-26T13:20:46Z</time>
      </trkpt>
      <trkpt lat="43.47948" lon="6.56829">
        <ele>25</ele>
        <time>2025-02-26T13:20:47Z</time>
      </trkpt>
      <trkpt lat="43.47948" lon="6.5683">
        <ele>25.1</ele>
        <time>2025-02-26T13:20:48Z</time>
      </trkpt>
      <trkpt lat="43.47947" lon="6.56831">
        <ele>25</ele>
        <time>2025-02-26T13:20:49Z</time>
      </trkpt>
      <trkpt lat="43.47947" lon="6.56833">
        <ele>25</ele>
        <time>2025-02-26T13:20:50Z</time>
      </trkpt>
      <trkpt lat="43.47947" lon="6.56833">
        <ele>25</ele>
        <time>2025-02-26T13:20:51Z</time>
      </trkpt>
      <trkpt lat="43.47947" lon="6.56834">
        <ele>25.1</ele>
        <time>2025-02-26T13:20:52Z</time>
      </trkpt>
      <trkpt lat="43.47947" lon="6.56834">
        <ele>25.1</ele>
        <time>2025-02-26T13:20:53Z</time>
      </trkpt>
      <trkpt lat="43.47947" lon="6.56834">
        <ele>25.1</ele>
        <time>2025-02-26T13:20:54Z</time>
      </trkpt>
      <trkpt lat="43.47947" lon="6.56834">
        <ele>25.2</ele>
        <time>2025-02-26T13:20:55Z</time>
      </trkpt>
      <trkpt lat="43.47947" lon="6.56835">
        <ele>25.2</ele>
        <time>2025-02-26T13:20:56Z</time>
      </trkpt>
      <trkpt lat="43.47948" lon="6.56835">
        <ele>25.1</ele>
        <time>2025-02-26T13:20:57Z</time>
      </trkpt>
      <trkpt lat="43.47948" lon="6.56835">
        <ele>25.1</ele>
        <time>2025-02-26T13:20:58Z</time>
      </trkpt>
      <trkpt lat="43.47948" lon="6.56834">
        <ele>25</ele>
        <time>2025-02-26T13:20:59Z</time>
      </trkpt>
      <trkpt lat="43.47948" lon="6.56835">
        <ele>25</ele>
        <time>2025-02-26T13:21:00Z</time>
      </trkpt>
      <trkpt lat="43.47948" lon="6.56834">
        <ele>25</ele>
        <time>2025-02-26T13:21:01Z</time>
      </trkpt>
      <trkpt lat="43.47948" lon="6.56834">
        <ele>25</ele>
        <time>2025-02-26T13:21:02Z</time>
      </trkpt>
      <trkpt lat="43.47948" lon="6.56834">
        <ele>25</ele>
        <time>2025-02-26T13:21:03Z</time>
      </trkpt>
      <trkpt lat="43.47948" lon="6.56834">
        <ele>25</ele>
        <time>2025-02-26T13:21:04Z</time>
      </trkpt>
      <trkpt lat="43.47948" lon="6.56834">
        <ele>25.1</ele>
        <time>2025-02-26T13:21:05Z</time>
      </trkpt>
      <trkpt lat="43.47948" lon="6.56834">
        <ele>25.1</ele>
        <time>2025-02-26T13:21:06Z</time>
      </trkpt>
      <trkpt lat="43.47948" lon="6.56834">
        <ele>25.1</ele>
        <time>2025-02-26T13:21:07Z</time>
      </trkpt>
      <trkpt lat="43.47948" lon="6.56834">
        <ele>25</ele>
        <time>2025-02-26T13:21:08Z</time>
      </trkpt>
      <trkpt lat="43.47948" lon="6.56834">
        <ele>25</ele>
        <time>2025-02-26T13:21:09Z</time>
      </trkpt>
      <trkpt lat="43.47948" lon="6.56834">
        <ele>25</ele>
        <time>2025-02-26T13:21:10Z</time>
      </trkpt>
      <trkpt lat="43.47948" lon="6.56834">
        <ele>25</ele>
        <time>2025-02-26T13:21:11Z</time>
      </trkpt>
      <trkpt lat="43.47948" lon="6.56833">
        <ele>25</ele>
        <time>2025-02-26T13:21:12Z</time>
      </trkpt>
      <trkpt lat="43.47948" lon="6.56833">
        <ele>24.9</ele>
        <time>2025-02-26T13:21:13Z</time>
      </trkpt>
      <trkpt lat="43.47949" lon="6.56833">
        <ele>24.9</ele>
        <time>2025-02-26T13:21:14Z</time>
      </trkpt>
      <trkpt lat="43.47949" lon="6.56833">
        <ele>24.9</ele>
        <time>2025-02-26T13:21:15Z</time>
      </trkpt>
      <trkpt lat="43.47949" lon="6.56833">
        <ele>24.9</ele>
        <time>2025-02-26T13:21:16Z</time>
      </trkpt>
      <trkpt lat="43.47949" lon="6.56833">
        <ele>24.9</ele>
        <time>2025-02-26T13:21:17Z</time>
      </trkpt>
      <trkpt lat="43.47949" lon="6.56833">
        <ele>25</ele>
        <time>2025-02-26T13:21:18Z</time>
      </trkpt>
      <trkpt lat="43.47949" lon="6.56833">
        <ele>25</ele>
        <time>2025-02-26T13:21:19Z</time>
      </trkpt>
      <trkpt lat="43.47949" lon="6.56834">
        <ele>25</ele>
        <time>2025-02-26T13:21:20Z</time>
      </trkpt>
      <trkpt lat="43.47949" lon="6.56834">
        <ele>25</ele>
        <time>2025-02-26T13:21:21Z</time>
      </trkpt>
      <trkpt lat="43.47949" lon="6.56834">
        <ele>25</ele>
        <time>2025-02-26T13:21:22Z</time>
      </trkpt>
      <trkpt lat="43.47949" lon="6.56834">
        <ele>25</ele>
        <time>2025-02-26T13:21:23Z</time>
      </trkpt>
      <trkpt lat="43.47949" lon="6.56834">
        <ele>25</ele>
        <time>2025-02-26T13:21:24Z</time>
      </trkpt>
      <trkpt lat="43.47949" lon="6.56834">
        <ele>25</ele>
        <time>2025-02-26T13:21:25Z</time>
      </trkpt>
      <trkpt lat="43.47949" lon="6.56835">
        <ele>25</ele>
        <time>2025-02-26T13:21:26Z</time>
      </trkpt>
      <trkpt lat="43.47949" lon="6.56835">
        <ele>25</ele>
        <time>2025-02-26T13:21:27Z</time>
      </trkpt>
      <trkpt lat="43.47949" lon="6.56835">
        <ele>25</ele>
        <time>2025-02-26T13:21:28Z</time>
      </trkpt>
      <trkpt lat="43.4795" lon="6.56835">
        <ele>25</ele>
        <time>2025-02-26T13:21:29Z</time>
      </trkpt>
      <trkpt lat="43.4795" lon="6.56835">
        <ele>25</ele>
        <time>2025-02-26T13:21:30Z</time>
      </trkpt>
      <trkpt lat="43.4795" lon="6.56835">
        <ele>25.1</ele>
        <time>2025-02-26T13:21:31Z</time>
      </trkpt>
      <trkpt lat="43.4795" lon="6.56835">
        <ele>25.1</ele>
        <time>2025-02-26T13:21:32Z</time>
      </trkpt>
      <trkpt lat="43.4795" lon="6.56835">
        <ele>25.2</ele>
        <time>2025-02-26T13:21:33Z</time>
      </trkpt>
      <trkpt lat="43.4795" lon="6.56835">
        <ele>25.3</ele>
        <time>2025-02-26T13:21:34Z</time>
      </trkpt>
      <trkpt lat="43.4795" lon="6.56836">
        <ele>25.3</ele>
        <time>2025-02-26T13:21:35Z</time>
      </trkpt>
      <trkpt lat="43.4795" lon="6.56836">
        <ele>25.4</ele>
        <time>2025-02-26T13:21:36Z</time>
      </trkpt>
      <trkpt lat="43.4795" lon="6.56836">
        <ele>25.4</ele>
        <time>2025-02-26T13:21:37Z</time>
      </trkpt>
      <trkpt lat="43.47951" lon="6.56836">
        <ele>25.3</ele>
        <time>2025-02-26T13:21:38Z</time>
      </trkpt>
      <trkpt lat="43.47951" lon="6.56836">
        <ele>25.3</ele>
        <time>2025-02-26T13:21:39Z</time>
      </trkpt>
      <trkpt lat="43.47951" lon="6.56835">
        <ele>25.3</ele>
        <time>2025-02-26T13:21:40Z</time>
      </trkpt>
      <trkpt lat="43.47951" lon="6.56836">
        <ele>25.3</ele>
        <time>2025-02-26T13:21:41Z</time>
      </trkpt>
      <trkpt lat="43.47951" lon="6.56836">
        <ele>25.3</ele>
        <time>2025-02-26T13:21:42Z</time>
      </trkpt>
      <trkpt lat="43.47951" lon="6.56836">
        <ele>25.2</ele>
        <time>2025-02-26T13:21:43Z</time>
      </trkpt>
      <trkpt lat="43.47951" lon="6.56836">
        <ele>25.2</ele>
        <time>2025-02-26T13:21:44Z</time>
      </trkpt>
      <trkpt lat="43.4795" lon="6.56836">
        <ele>25.3</ele>
        <time>2025-02-26T13:21:45Z</time>
      </trkpt>
      <trkpt lat="43.4795" lon="6.56835">
        <ele>25.3</ele>
        <time>2025-02-26T13:21:46Z</time>
      </trkpt>
      <trkpt lat="43.4795" lon="6.56835">
        <ele>25.3</ele>
        <time>2025-02-26T13:21:47Z</time>
      </trkpt>
      <trkpt lat="43.4795" lon="6.56835">
        <ele>25.2</ele>
        <time>2025-02-26T13:21:48Z</time>
      </trkpt>
      <trkpt lat="43.4795" lon="6.56835">
        <ele>25.2</ele>
        <time>2025-02-26T13:21:49Z</time>
      </trkpt>
      <trkpt lat="43.4795" lon="6.56834">
        <ele>25.2</ele>
        <time>2025-02-26T13:21:50Z</time>
      </trkpt>
      <trkpt lat="43.4795" lon="6.56833">
        <ele>25.2</ele>
        <time>2025-02-26T13:21:51Z</time>
      </trkpt>
      <trkpt lat="43.47951" lon="6.56833">
        <ele>25.1</ele>
        <time>2025-02-26T13:21:52Z</time>
      </trkpt>
      <trkpt lat="43.47951" lon="6.56832">
        <ele>25.2</ele>
        <time>2025-02-26T13:21:53Z</time>
      </trkpt>
      <trkpt lat="43.47952" lon="6.56831">
        <ele>25.2</ele>
        <time>2025-02-26T13:21:54Z</time>
      </trkpt>
      <trkpt lat="43.47952" lon="6.56829">
        <ele>25.1</ele>
        <time>2025-02-26T13:21:55Z</time>
      </trkpt>
      <trkpt lat="43.47952" lon="6.56829">
        <ele>25.1</ele>
        <time>2025-02-26T13:21:56Z</time>
      </trkpt>
      <trkpt lat="43.47952" lon="6.56829">
        <ele>25.1</ele>
        <time>2025-02-26T13:21:57Z</time>
      </trkpt>
      <trkpt lat="43.47952" lon="6.56828">
        <ele>25</ele>
        <time>2025-02-26T13:21:58Z</time>
      </trkpt>
      <trkpt lat="43.47952" lon="6.56828">
        <ele>24.9</ele>
        <time>2025-02-26T13:21:59Z</time>
      </trkpt>
      <trkpt lat="43.47953" lon="6.56827">
        <ele>24.9</ele>
        <time>2025-02-26T13:22:00Z</time>
      </trkpt>
      <trkpt lat="43.47954" lon="6.56826">
        <ele>24.8</ele>
        <time>2025-02-26T13:22:01Z</time>
      </trkpt>
      <trkpt lat="43.47955" lon="6.56826">
        <ele>24.8</ele>
        <time>2025-02-26T13:22:02Z</time>
      </trkpt>
      <trkpt lat="43.47955" lon="6.56825">
        <ele>24.8</ele>
        <time>2025-02-26T13:22:03Z</time>
      </trkpt>
      <trkpt lat="43.47956" lon="6.56824">
        <ele>24.9</ele>
        <time>2025-02-26T13:22:04Z</time>
      </trkpt>
      <trkpt lat="43.47957" lon="6.56823">
        <ele>25</ele>
        <time>2025-02-26T13:22:05Z</time>
      </trkpt>
      <trkpt lat="43.47957" lon="6.56823">
        <ele>25.1</ele>
        <time>2025-02-26T13:22:06Z</time>
      </trkpt>
      <trkpt lat="43.47957" lon="6.56822">
        <ele>25.2</ele>
        <time>2025-02-26T13:22:07Z</time>
      </trkpt>
      <trkpt lat="43.47958" lon="6.56822">
        <ele>25.3</ele>
        <time>2025-02-26T13:22:08Z</time>
      </trkpt>
      <trkpt lat="43.47958" lon="6.56821">
        <ele>25.3</ele>
        <time>2025-02-26T13:22:09Z</time>
      </trkpt>
      <trkpt lat="43.47958" lon="6.5682">
        <ele>25.4</ele>
        <time>2025-02-26T13:22:10Z</time>
      </trkpt>
      <trkpt lat="43.47959" lon="6.56819">
        <ele>25.4</ele>
        <time>2025-02-26T13:22:11Z</time>
      </trkpt>
      <trkpt lat="43.47959" lon="6.56819">
        <ele>25.4</ele>
        <time>2025-02-26T13:22:12Z</time>
      </trkpt>
      <trkpt lat="43.4796" lon="6.56818">
        <ele>25.4</ele>
        <time>2025-02-26T13:22:13Z</time>
      </trkpt>
      <trkpt lat="43.47961" lon="6.56817">
        <ele>25.4</ele>
        <time>2025-02-26T13:22:14Z</time>
      </trkpt>
      <trkpt lat="43.47962" lon="6.56816">
        <ele>25.4</ele>
        <time>2025-02-26T13:22:15Z</time>
      </trkpt>
      <trkpt lat="43.47962" lon="6.56814">
        <ele>25.4</ele>
        <time>2025-02-26T13:22:16Z</time>
      </trkpt>
      <trkpt lat="43.47962" lon="6.56814">
        <ele>25.5</ele>
        <time>2025-02-26T13:22:17Z</time>
      </trkpt>
      <trkpt lat="43.47962" lon="6.56813">
        <ele>25.5</ele>
        <time>2025-02-26T13:22:18Z</time>
      </trkpt>
      <trkpt lat="43.47962" lon="6.56813">
        <ele>25.5</ele>
        <time>2025-02-26T13:22:19Z</time>
      </trkpt>
      <trkpt lat="43.47963" lon="6.56812">
        <ele>25.6</ele>
        <time>2025-02-26T13:22:20Z</time>
      </trkpt>
      <trkpt lat="43.47963" lon="6.56811">
        <ele>25.5</ele>
        <time>2025-02-26T13:22:21Z</time>
      </trkpt>
      <trkpt lat="43.47964" lon="6.5681">
        <ele>25.5</ele>
        <time>2025-02-26T13:22:22Z</time>
      </trkpt>
      <trkpt lat="43.47965" lon="6.56809">
        <ele>25.5</ele>
        <time>2025-02-26T13:22:23Z</time>
      </trkpt>
      <trkpt lat="43.47966" lon="6.56808">
        <ele>25.5</ele>
        <time>2025-02-26T13:22:24Z</time>
      </trkpt>
      <trkpt lat="43.47966" lon="6.56806">
        <ele>25.5</ele>
        <time>2025-02-26T13:22:25Z</time>
      </trkpt>
      <trkpt lat="43.47967" lon="6.56806">
        <ele>25.5</ele>
        <time>2025-02-26T13:22:26Z</time>
      </trkpt>
      <trkpt lat="43.47968" lon="6.56805">
        <ele>25.5</ele>
        <time>2025-02-26T13:22:27Z</time>
      </trkpt>
      <trkpt lat="43.47969" lon="6.56805">
        <ele>25.6</ele>
        <time>2025-02-26T13:22:28Z</time>
      </trkpt>
      <trkpt lat="43.4797" lon="6.56803">
        <ele>25.6</ele>
        <time>2025-02-26T13:22:29Z</time>
      </trkpt>
      <trkpt lat="43.4797" lon="6.56801">
        <ele>25.7</ele>
        <time>2025-02-26T13:22:30Z</time>
      </trkpt>
      <trkpt lat="43.47971" lon="6.568">
        <ele>25.7</ele>
        <time>2025-02-26T13:22:31Z</time>
      </trkpt>
      <trkpt lat="43.47971" lon="6.56799">
        <ele>25.8</ele>
        <time>2025-02-26T13:22:32Z</time>
      </trkpt>
      <trkpt lat="43.47972" lon="6.56798">
        <ele>25.9</ele>
        <time>2025-02-26T13:22:33Z</time>
      </trkpt>
      <trkpt lat="43.47973" lon="6.56797">
        <ele>25.9</ele>
        <time>2025-02-26T13:22:34Z</time>
      </trkpt>
      <trkpt lat="43.47973" lon="6.56796">
        <ele>26</ele>
        <time>2025-02-26T13:22:35Z</time>
      </trkpt>
      <trkpt lat="43.47974" lon="6.56794">
        <ele>26</ele>
        <time>2025-02-26T13:22:36Z</time>
      </trkpt>
      <trkpt lat="43.47974" lon="6.56793">
        <ele>26.1</ele>
        <time>2025-02-26T13:22:37Z</time>
      </trkpt>
      <trkpt lat="43.47975" lon="6.56792">
        <ele>26.1</ele>
        <time>2025-02-26T13:22:38Z</time>
      </trkpt>
      <trkpt lat="43.47975" lon="6.5679">
        <ele>26.2</ele>
        <time>2025-02-26T13:22:39Z</time>
      </trkpt>
      <trkpt lat="43.47976" lon="6.56789">
        <ele>26.2</ele>
        <time>2025-02-26T13:22:40Z</time>
      </trkpt>
      <trkpt lat="43.47976" lon="6.56787">
        <ele>26.3</ele>
        <time>2025-02-26T13:22:41Z</time>
      </trkpt>
      <trkpt lat="43.47977" lon="6.56785">
        <ele>26.5</ele>
        <time>2025-02-26T13:22:42Z</time>
      </trkpt>
      <trkpt lat="43.47978" lon="6.56784">
        <ele>26.7</ele>
        <time>2025-02-26T13:22:43Z</time>
      </trkpt>
      <trkpt lat="43.47978" lon="6.56783">
        <ele>26.8</ele>
        <time>2025-02-26T13:22:44Z</time>
      </trkpt>
      <trkpt lat="43.47979" lon="6.56782">
        <ele>26.8</ele>
        <time>2025-02-26T13:22:45Z</time>
      </trkpt>
      <trkpt lat="43.4798" lon="6.56781">
        <ele>26.9</ele>
        <time>2025-02-26T13:22:46Z</time>
      </trkpt>
      <trkpt lat="43.47981" lon="6.5678">
        <ele>27</ele>
        <time>2025-02-26T13:22:47Z</time>
      </trkpt>
      <trkpt lat="43.47982" lon="6.56779">
        <ele>27.1</ele>
        <time>2025-02-26T13:22:48Z</time>
      </trkpt>
      <trkpt lat="43.47982" lon="6.56778">
        <ele>27.2</ele>
        <time>2025-02-26T13:22:49Z</time>
      </trkpt>
      <trkpt lat="43.47983" lon="6.56777">
        <ele>27.4</ele>
        <time>2025-02-26T13:22:50Z</time>
      </trkpt>
      <trkpt lat="43.47984" lon="6.56777">
        <ele>27.6</ele>
        <time>2025-02-26T13:22:51Z</time>
      </trkpt>
      <trkpt lat="43.47985" lon="6.56776">
        <ele>27.7</ele>
        <time>2025-02-26T13:22:52Z</time>
      </trkpt>
      <trkpt lat="43.47986" lon="6.56776">
        <ele>27.7</ele>
        <time>2025-02-26T13:22:53Z</time>
      </trkpt>
      <trkpt lat="43.47987" lon="6.56775">
        <ele>27.7</ele>
        <time>2025-02-26T13:22:54Z</time>
      </trkpt>
      <trkpt lat="43.47987" lon="6.56774">
        <ele>27.8</ele>
        <time>2025-02-26T13:22:55Z</time>
      </trkpt>
      <trkpt lat="43.47988" lon="6.56773">
        <ele>27.8</ele>
        <time>2025-02-26T13:22:56Z</time>
      </trkpt>
      <trkpt lat="43.47989" lon="6.56771">
        <ele>27.9</ele>
        <time>2025-02-26T13:22:57Z</time>
      </trkpt>
      <trkpt lat="43.4799" lon="6.5677">
        <ele>27.9</ele>
        <time>2025-02-26T13:22:58Z</time>
      </trkpt>
      <trkpt lat="43.47991" lon="6.56769">
        <ele>28</ele>
        <time>2025-02-26T13:22:59Z</time>
      </trkpt>
      <trkpt lat="43.47992" lon="6.56768">
        <ele>28</ele>
        <time>2025-02-26T13:23:00Z</time>
      </trkpt>
      <trkpt lat="43.47993" lon="6.56767">
        <ele>28</ele>
        <time>2025-02-26T13:23:01Z</time>
      </trkpt>
      <trkpt lat="43.47993" lon="6.56766">
        <ele>28.1</ele>
        <time>2025-02-26T13:23:02Z</time>
      </trkpt>
      <trkpt lat="43.47994" lon="6.56765">
        <ele>28.2</ele>
        <time>2025-02-26T13:23:03Z</time>
      </trkpt>
      <trkpt lat="43.47995" lon="6.56764">
        <ele>28.3</ele>
        <time>2025-02-26T13:23:04Z</time>
      </trkpt>
      <trkpt lat="43.47996" lon="6.56763">
        <ele>28.3</ele>
        <time>2025-02-26T13:23:05Z</time>
      </trkpt>
      <trkpt lat="43.47997" lon="6.56763">
        <ele>28.3</ele>
        <time>2025-02-26T13:23:06Z</time>
      </trkpt>
      <trkpt lat="43.47999" lon="6.56762">
        <ele>28.2</ele>
        <time>2025-02-26T13:23:07Z</time>
      </trkpt>
      <trkpt lat="43.48" lon="6.56761">
        <ele>28.2</ele>
        <time>2025-02-26T13:23:08Z</time>
      </trkpt>
      <trkpt lat="43.48001" lon="6.56761">
        <ele>28.3</ele>
        <time>2025-02-26T13:23:09Z</time>
      </trkpt>
      <trkpt lat="43.48002" lon="6.56761">
        <ele>28.4</ele>
        <time>2025-02-26T13:23:10Z</time>
      </trkpt>
      <trkpt lat="43.48004" lon="6.5676">
        <ele>28.4</ele>
        <time>2025-02-26T13:23:11Z</time>
      </trkpt>
      <trkpt lat="43.48005" lon="6.5676">
        <ele>28.4</ele>
        <time>2025-02-26T13:23:12Z</time>
      </trkpt>
      <trkpt lat="43.48006" lon="6.5676">
        <ele>28.5</ele>
        <time>2025-02-26T13:23:13Z</time>
      </trkpt>
      <trkpt lat="43.48007" lon="6.56759">
        <ele>28.5</ele>
        <time>2025-02-26T13:23:14Z</time>
      </trkpt>
      <trkpt lat="43.48008" lon="6.56759">
        <ele>28.8</ele>
        <time>2025-02-26T13:23:15Z</time>
      </trkpt>
      <trkpt lat="43.48009" lon="6.56759">
        <ele>28.9</ele>
        <time>2025-02-26T13:23:16Z</time>
      </trkpt>
      <trkpt lat="43.4801" lon="6.56759">
        <ele>29</ele>
        <time>2025-02-26T13:23:17Z</time>
      </trkpt>
      <trkpt lat="43.48011" lon="6.56759">
        <ele>29.1</ele>
        <time>2025-02-26T13:23:18Z</time>
      </trkpt>
      <trkpt lat="43.48013" lon="6.56759">
        <ele>29.2</ele>
        <time>2025-02-26T13:23:19Z</time>
      </trkpt>
      <trkpt lat="43.48014" lon="6.56758">
        <ele>29.3</ele>
        <time>2025-02-26T13:23:20Z</time>
      </trkpt>
      <trkpt lat="43.48015" lon="6.56758">
        <ele>29.3</ele>
        <time>2025-02-26T13:23:21Z</time>
      </trkpt>
      <trkpt lat="43.48016" lon="6.56758">
        <ele>29.4</ele>
        <time>2025-02-26T13:23:22Z</time>
      </trkpt>
      <trkpt lat="43.48017" lon="6.56758">
        <ele>29.4</ele>
        <time>2025-02-26T13:23:23Z</time>
      </trkpt>
      <trkpt lat="43.48018" lon="6.56758">
        <ele>29.5</ele>
        <time>2025-02-26T13:23:24Z</time>
      </trkpt>
      <trkpt lat="43.48019" lon="6.56759">
        <ele>29.6</ele>
        <time>2025-02-26T13:23:25Z</time>
      </trkpt>
      <trkpt lat="43.4802" lon="6.56759">
        <ele>29.5</ele>
        <time>2025-02-26T13:23:26Z</time>
      </trkpt>
      <trkpt lat="43.48021" lon="6.56759">
        <ele>29.4</ele>
        <time>2025-02-26T13:23:27Z</time>
      </trkpt>
      <trkpt lat="43.48022" lon="6.56759">
        <ele>29.6</ele>
        <time>2025-02-26T13:23:28Z</time>
      </trkpt>
      <trkpt lat="43.48023" lon="6.56759">
        <ele>29.6</ele>
        <time>2025-02-26T13:23:29Z</time>
      </trkpt>
      <trkpt lat="43.48025" lon="6.56759">
        <ele>29.7</ele>
        <time>2025-02-26T13:23:30Z</time>
      </trkpt>
      <trkpt lat="43.48026" lon="6.56759">
        <ele>29.7</ele>
        <time>2025-02-26T13:23:31Z</time>
      </trkpt>
      <trkpt lat="43.48027" lon="6.5676">
        <ele>29.9</ele>
        <time>2025-02-26T13:23:32Z</time>
      </trkpt>
      <trkpt lat="43.48028" lon="6.56759">
        <ele>30</ele>
        <time>2025-02-26T13:23:33Z</time>
      </trkpt>
      <trkpt lat="43.48029" lon="6.5676">
        <ele>30</ele>
        <time>2025-02-26T13:23:34Z</time>
      </trkpt>
      <trkpt lat="43.4803" lon="6.5676">
        <ele>30</ele>
        <time>2025-02-26T13:23:35Z</time>
      </trkpt>
      <trkpt lat="43.48031" lon="6.56761">
        <ele>29.9</ele>
        <time>2025-02-26T13:23:36Z</time>
      </trkpt>
      <trkpt lat="43.48032" lon="6.56761">
        <ele>29.8</ele>
        <time>2025-02-26T13:23:37Z</time>
      </trkpt>
      <trkpt lat="43.48033" lon="6.56762">
        <ele>29.7</ele>
        <time>2025-02-26T13:23:38Z</time>
      </trkpt>
      <trkpt lat="43.48034" lon="6.56763">
        <ele>29.7</ele>
        <time>2025-02-26T13:23:39Z</time>
      </trkpt>
      <trkpt lat="43.48035" lon="6.56763">
        <ele>29.6</ele>
        <time>2025-02-26T13:23:40Z</time>
      </trkpt>
      <trkpt lat="43.48036" lon="6.56763">
        <ele>29.6</ele>
        <time>2025-02-26T13:23:41Z</time>
      </trkpt>
      <trkpt lat="43.48037" lon="6.56763">
        <ele>29.6</ele>
        <time>2025-02-26T13:23:42Z</time>
      </trkpt>
      <trkpt lat="43.48038" lon="6.56763">
        <ele>29.5</ele>
        <time>2025-02-26T13:23:43Z</time>
      </trkpt>
      <trkpt lat="43.4804" lon="6.56764">
        <ele>29.5</ele>
        <time>2025-02-26T13:23:44Z</time>
      </trkpt>
      <trkpt lat="43.48041" lon="6.56764">
        <ele>29.4</ele>
        <time>2025-02-26T13:23:45Z</time>
      </trkpt>
      <trkpt lat="43.48042" lon="6.56765">
        <ele>29.4</ele>
        <time>2025-02-26T13:23:46Z</time>
      </trkpt>
      <trkpt lat="43.48043" lon="6.56765">
        <ele>29.4</ele>
        <time>2025-02-26T13:23:47Z</time>
      </trkpt>
      <trkpt lat="43.48044" lon="6.56766">
        <ele>29.5</ele>
        <time>2025-02-26T13:23:48Z</time>
      </trkpt>
      <trkpt lat="43.48045" lon="6.56766">
        <ele>29.5</ele>
        <time>2025-02-26T13:23:49Z</time>
      </trkpt>
      <trkpt lat="43.48046" lon="6.56766">
        <ele>29.6</ele>
        <time>2025-02-26T13:23:50Z</time>
      </trkpt>
      <trkpt lat="43.48046" lon="6.56766">
        <ele>29.6</ele>
        <time>2025-02-26T13:23:51Z</time>
      </trkpt>
      <trkpt lat="43.48047" lon="6.56767">
        <ele>29.6</ele>
        <time>2025-02-26T13:23:52Z</time>
      </trkpt>
      <trkpt lat="43.48048" lon="6.56767">
        <ele>29.7</ele>
        <time>2025-02-26T13:23:53Z</time>
      </trkpt>
      <trkpt lat="43.48049" lon="6.56767">
        <ele>29.7</ele>
        <time>2025-02-26T13:23:54Z</time>
      </trkpt>
      <trkpt lat="43.4805" lon="6.56767">
        <ele>29.8</ele>
        <time>2025-02-26T13:23:55Z</time>
      </trkpt>
      <trkpt lat="43.48051" lon="6.56768">
        <ele>29.9</ele>
        <time>2025-02-26T13:23:56Z</time>
      </trkpt>
      <trkpt lat="43.48051" lon="6.56769">
        <ele>29.9</ele>
        <time>2025-02-26T13:23:57Z</time>
      </trkpt>
      <trkpt lat="43.48052" lon="6.56769">
        <ele>29.9</ele>
        <time>2025-02-26T13:23:58Z</time>
      </trkpt>
      <trkpt lat="43.48054" lon="6.5677">
        <ele>29.8</ele>
        <time>2025-02-26T13:23:59Z</time>
      </trkpt>
      <trkpt lat="43.48055" lon="6.56771">
        <ele>29.8</ele>
        <time>2025-02-26T13:24:00Z</time>
      </trkpt>
      <trkpt lat="43.48056" lon="6.56772">
        <ele>29.7</ele>
        <time>2025-02-26T13:24:01Z</time>
      </trkpt>
      <trkpt lat="43.48057" lon="6.56773">
        <ele>29.7</ele>
        <time>2025-02-26T13:24:02Z</time>
      </trkpt>
      <trkpt lat="43.48058" lon="6.56774">
        <ele>29.7</ele>
        <time>2025-02-26T13:24:03Z</time>
      </trkpt>
      <trkpt lat="43.48059" lon="6.56775">
        <ele>29.8</ele>
        <time>2025-02-26T13:24:04Z</time>
      </trkpt>
      <trkpt lat="43.48059" lon="6.56775">
        <ele>29.8</ele>
        <time>2025-02-26T13:24:05Z</time>
      </trkpt>
      <trkpt lat="43.48059" lon="6.56777">
        <ele>29.7</ele>
        <time>2025-02-26T13:24:06Z</time>
      </trkpt>
      <trkpt lat="43.4806" lon="6.56778">
        <ele>29.6</ele>
        <time>2025-02-26T13:24:07Z</time>
      </trkpt>
      <trkpt lat="43.4806" lon="6.56779">
        <ele>29.6</ele>
        <time>2025-02-26T13:24:08Z</time>
      </trkpt>
      <trkpt lat="43.4806" lon="6.5678">
        <ele>29.6</ele>
        <time>2025-02-26T13:24:09Z</time>
      </trkpt>
      <trkpt lat="43.48061" lon="6.56781">
        <ele>29.5</ele>
        <time>2025-02-26T13:24:10Z</time>
      </trkpt>
      <trkpt lat="43.48061" lon="6.56782">
        <ele>29.4</ele>
        <time>2025-02-26T13:24:11Z</time>
      </trkpt>
      <trkpt lat="43.48061" lon="6.56783">
        <ele>29.3</ele>
        <time>2025-02-26T13:24:12Z</time>
      </trkpt>
      <trkpt lat="43.4806" lon="6.56784">
        <ele>29.2</ele>
        <time>2025-02-26T13:24:13Z</time>
      </trkpt>
      <trkpt lat="43.4806" lon="6.56785">
        <ele>29.1</ele>
        <time>2025-02-26T13:24:14Z</time>
      </trkpt>
      <trkpt lat="43.4806" lon="6.56787">
        <ele>29.1</ele>
        <time>2025-02-26T13:24:15Z</time>
      </trkpt>
      <trkpt lat="43.48059" lon="6.56788">
        <ele>29</ele>
        <time>2025-02-26T13:24:16Z</time>
      </trkpt>
      <trkpt lat="43.48059" lon="6.56789">
        <ele>28.9</ele>
        <time>2025-02-26T13:24:17Z</time>
      </trkpt>
      <trkpt lat="43.48059" lon="6.56791">
        <ele>28.9</ele>
        <time>2025-02-26T13:24:18Z</time>
      </trkpt>
      <trkpt lat="43.48059" lon="6.56792">
        <ele>28.8</ele>
        <time>2025-02-26T13:24:19Z</time>
      </trkpt>
      <trkpt lat="43.48059" lon="6.56793">
        <ele>28.8</ele>
        <time>2025-02-26T13:24:20Z</time>
      </trkpt>
      <trkpt lat="43.48058" lon="6.56795">
        <ele>28.9</ele>
        <time>2025-02-26T13:24:21Z</time>
      </trkpt>
      <trkpt lat="43.48058" lon="6.56796">
        <ele>28.9</ele>
        <time>2025-02-26T13:24:22Z</time>
      </trkpt>
      <trkpt lat="43.48058" lon="6.56797">
        <ele>28.9</ele>
        <time>2025-02-26T13:24:23Z</time>
      </trkpt>
      <trkpt lat="43.48058" lon="6.56799">
        <ele>29</ele>
        <time>2025-02-26T13:24:24Z</time>
      </trkpt>
      <trkpt lat="43.48058" lon="6.568">
        <ele>29</ele>
        <time>2025-02-26T13:24:25Z</time>
      </trkpt>
      <trkpt lat="43.48058" lon="6.56801">
        <ele>29</ele>
        <time>2025-02-26T13:24:26Z</time>
      </trkpt>
      <trkpt lat="43.48058" lon="6.56803">
        <ele>29</ele>
        <time>2025-02-26T13:24:27Z</time>
      </trkpt>
      <trkpt lat="43.48057" lon="6.56805">
        <ele>29</ele>
        <time>2025-02-26T13:24:28Z</time>
      </trkpt>
      <trkpt lat="43.48057" lon="6.56806">
        <ele>29</ele>
        <time>2025-02-26T13:24:29Z</time>
      </trkpt>
      <trkpt lat="43.48057" lon="6.56807">
        <ele>29</ele>
        <time>2025-02-26T13:24:30Z</time>
      </trkpt>
      <trkpt lat="43.48057" lon="6.56809">
        <ele>29</ele>
        <time>2025-02-26T13:24:31Z</time>
      </trkpt>
      <trkpt lat="43.48057" lon="6.56811">
        <ele>29</ele>
        <time>2025-02-26T13:24:32Z</time>
      </trkpt>
      <trkpt lat="43.48057" lon="6.56813">
        <ele>29</ele>
        <time>2025-02-26T13:24:33Z</time>
      </trkpt>
      <trkpt lat="43.48057" lon="6.56815">
        <ele>28.9</ele>
        <time>2025-02-26T13:24:34Z</time>
      </trkpt>
      <trkpt lat="43.48057" lon="6.56816">
        <ele>28.9</ele>
        <time>2025-02-26T13:24:35Z</time>
      </trkpt>
      <trkpt lat="43.48056" lon="6.56818">
        <ele>28.9</ele>
        <time>2025-02-26T13:24:36Z</time>
      </trkpt>
      <trkpt lat="43.48056" lon="6.5682">
        <ele>28.9</ele>
        <time>2025-02-26T13:24:37Z</time>
      </trkpt>
      <trkpt lat="43.48055" lon="6.56821">
        <ele>28.9</ele>
        <time>2025-02-26T13:24:38Z</time>
      </trkpt>
      <trkpt lat="43.48055" lon="6.56823">
        <ele>29</ele>
        <time>2025-02-26T13:24:39Z</time>
      </trkpt>
      <trkpt lat="43.48055" lon="6.56825">
        <ele>29</ele>
        <time>2025-02-26T13:24:40Z</time>
      </trkpt>
      <trkpt lat="43.48056" lon="6.56827">
        <ele>29.1</ele>
        <time>2025-02-26T13:24:41Z</time>
      </trkpt>
      <trkpt lat="43.48055" lon="6.56828">
        <ele>29.2</ele>
        <time>2025-02-26T13:24:42Z</time>
      </trkpt>
      <trkpt lat="43.48055" lon="6.5683">
        <ele>29.1</ele>
        <time>2025-02-26T13:24:43Z</time>
      </trkpt>
      <trkpt lat="43.48054" lon="6.56831">
        <ele>29</ele>
        <time>2025-02-26T13:24:44Z</time>
      </trkpt>
      <trkpt lat="43.48054" lon="6.56833">
        <ele>29</ele>
        <time>2025-02-26T13:24:45Z</time>
      </trkpt>
      <trkpt lat="43.48054" lon="6.56835">
        <ele>29</ele>
        <time>2025-02-26T13:24:46Z</time>
      </trkpt>
      <trkpt lat="43.48053" lon="6.56836">
        <ele>29</ele>
        <time>2025-02-26T13:24:47Z</time>
      </trkpt>
      <trkpt lat="43.48053" lon="6.56838">
        <ele>29</ele>
        <time>2025-02-26T13:24:48Z</time>
      </trkpt>
      <trkpt lat="43.48052" lon="6.5684">
        <ele>29</ele>
        <time>2025-02-26T13:24:49Z</time>
      </trkpt>
      <trkpt lat="43.48052" lon="6.56842">
        <ele>29</ele>
        <time>2025-02-26T13:24:50Z</time>
      </trkpt>
      <trkpt lat="43.48051" lon="6.56844">
        <ele>28.9</ele>
        <time>2025-02-26T13:24:51Z</time>
      </trkpt>
      <trkpt lat="43.48051" lon="6.56845">
        <ele>28.8</ele>
        <time>2025-02-26T13:24:52Z</time>
      </trkpt>
      <trkpt lat="43.4805" lon="6.56847">
        <ele>28.7</ele>
        <time>2025-02-26T13:24:53Z</time>
      </trkpt>
      <trkpt lat="43.4805" lon="6.56849">
        <ele>28.6</ele>
        <time>2025-02-26T13:24:54Z</time>
      </trkpt>
      <trkpt lat="43.48049" lon="6.56851">
        <ele>28.6</ele>
        <time>2025-02-26T13:24:55Z</time>
      </trkpt>
      <trkpt lat="43.48049" lon="6.56853">
        <ele>28.5</ele>
        <time>2025-02-26T13:24:56Z</time>
      </trkpt>
      <trkpt lat="43.48049" lon="6.56854">
        <ele>28.5</ele>
        <time>2025-02-26T13:24:57Z</time>
      </trkpt>
      <trkpt lat="43.48049" lon="6.56856">
        <ele>28.5</ele>
        <time>2025-02-26T13:24:58Z</time>
      </trkpt>
      <trkpt lat="43.48048" lon="6.56857">
        <ele>28.5</ele>
        <time>2025-02-26T13:24:59Z</time>
      </trkpt>
      <trkpt lat="43.48047" lon="6.56859">
        <ele>28.5</ele>
        <time>2025-02-26T13:25:00Z</time>
      </trkpt>
      <trkpt lat="43.48047" lon="6.5686">
        <ele>28.5</ele>
        <time>2025-02-26T13:25:01Z</time>
      </trkpt>
      <trkpt lat="43.48046" lon="6.56861">
        <ele>28.5</ele>
        <time>2025-02-26T13:25:02Z</time>
      </trkpt>
      <trkpt lat="43.48046" lon="6.56862">
        <ele>28.4</ele>
        <time>2025-02-26T13:25:03Z</time>
      </trkpt>
      <trkpt lat="43.48045" lon="6.56864">
        <ele>28.4</ele>
        <time>2025-02-26T13:25:04Z</time>
      </trkpt>
      <trkpt lat="43.48045" lon="6.56865">
        <ele>28.3</ele>
        <time>2025-02-26T13:25:05Z</time>
      </trkpt>
      <trkpt lat="43.48044" lon="6.56866">
        <ele>28.2</ele>
        <time>2025-02-26T13:25:06Z</time>
      </trkpt>
      <trkpt lat="43.48043" lon="6.56868">
        <ele>28.3</ele>
        <time>2025-02-26T13:25:07Z</time>
      </trkpt>
      <trkpt lat="43.48042" lon="6.56869">
        <ele>28.2</ele>
        <time>2025-02-26T13:25:08Z</time>
      </trkpt>
      <trkpt lat="43.48042" lon="6.5687">
        <ele>28.2</ele>
        <time>2025-02-26T13:25:09Z</time>
      </trkpt>
      <trkpt lat="43.48041" lon="6.56871">
        <ele>28.2</ele>
        <time>2025-02-26T13:25:10Z</time>
      </trkpt>
      <trkpt lat="43.4804" lon="6.56871">
        <ele>28.2</ele>
        <time>2025-02-26T13:25:11Z</time>
      </trkpt>
      <trkpt lat="43.48039" lon="6.56873">
        <ele>28.2</ele>
        <time>2025-02-26T13:25:12Z</time>
      </trkpt>
      <trkpt lat="43.48038" lon="6.56874">
        <ele>28.1</ele>
        <time>2025-02-26T13:25:13Z</time>
      </trkpt>
      <trkpt lat="43.48038" lon="6.56875">
        <ele>28.2</ele>
        <time>2025-02-26T13:25:14Z</time>
      </trkpt>
      <trkpt lat="43.48037" lon="6.56876">
        <ele>28.2</ele>
        <time>2025-02-26T13:25:15Z</time>
      </trkpt>
      <trkpt lat="43.48036" lon="6.56877">
        <ele>28.2</ele>
        <time>2025-02-26T13:25:16Z</time>
      </trkpt>
      <trkpt lat="43.48035" lon="6.56879">
        <ele>28.2</ele>
        <time>2025-02-26T13:25:17Z</time>
      </trkpt>
      <trkpt lat="43.48034" lon="6.5688">
        <ele>28.3</ele>
        <time>2025-02-26T13:25:18Z</time>
      </trkpt>
      <trkpt lat="43.48034" lon="6.56881">
        <ele>28.3</ele>
        <time>2025-02-26T13:25:19Z</time>
      </trkpt>
      <trkpt lat="43.48034" lon="6.56882">
        <ele>28.3</ele>
        <time>2025-02-26T13:25:20Z</time>
      </trkpt>
      <trkpt lat="43.48033" lon="6.56883">
        <ele>28.3</ele>
        <time>2025-02-26T13:25:21Z</time>
      </trkpt>
      <trkpt lat="43.48032" lon="6.56885">
        <ele>28.3</ele>
        <time>2025-02-26T13:25:22Z</time>
      </trkpt>
      <trkpt lat="43.48032" lon="6.56887">
        <ele>28.3</ele>
        <time>2025-02-26T13:25:23Z</time>
      </trkpt>
      <trkpt lat="43.48031" lon="6.56888">
        <ele>28.4</ele>
        <time>2025-02-26T13:25:24Z</time>
      </trkpt>
      <trkpt lat="43.48031" lon="6.5689">
        <ele>28.4</ele>
        <time>2025-02-26T13:25:25Z</time>
      </trkpt>
      <trkpt lat="43.4803" lon="6.56891">
        <ele>28.5</ele>
        <time>2025-02-26T13:25:26Z</time>
      </trkpt>
      <trkpt lat="43.48031" lon="6.56893">
        <ele>28.5</ele>
        <time>2025-02-26T13:25:27Z</time>
      </trkpt>
      <trkpt lat="43.48031" lon="6.56894">
        <ele>28.5</ele>
        <time>2025-02-26T13:25:28Z</time>
      </trkpt>
      <trkpt lat="43.48032" lon="6.56896">
        <ele>28.5</ele>
        <time>2025-02-26T13:25:29Z</time>
      </trkpt>
      <trkpt lat="43.48032" lon="6.56897">
        <ele>28.5</ele>
        <time>2025-02-26T13:25:30Z</time>
      </trkpt>
      <trkpt lat="43.48033" lon="6.56898">
        <ele>28.5</ele>
        <time>2025-02-26T13:25:31Z</time>
      </trkpt>
      <trkpt lat="43.48034" lon="6.56899">
        <ele>28.5</ele>
        <time>2025-02-26T13:25:32Z</time>
      </trkpt>
      <trkpt lat="43.48034" lon="6.569">
        <ele>28.5</ele>
        <time>2025-02-26T13:25:33Z</time>
      </trkpt>
      <trkpt lat="43.48035" lon="6.56901">
        <ele>28.6</ele>
        <time>2025-02-26T13:25:34Z</time>
      </trkpt>
      <trkpt lat="43.48037" lon="6.56901">
        <ele>28.6</ele>
        <time>2025-02-26T13:25:35Z</time>
      </trkpt>
      <trkpt lat="43.48038" lon="6.56902">
        <ele>28.5</ele>
        <time>2025-02-26T13:25:36Z</time>
      </trkpt>
      <trkpt lat="43.48039" lon="6.56902">
        <ele>28.5</ele>
        <time>2025-02-26T13:25:37Z</time>
      </trkpt>
      <trkpt lat="43.4804" lon="6.56902">
        <ele>28.4</ele>
        <time>2025-02-26T13:25:38Z</time>
      </trkpt>
      <trkpt lat="43.4804" lon="6.56903">
        <ele>28.5</ele>
        <time>2025-02-26T13:25:39Z</time>
      </trkpt>
      <trkpt lat="43.48042" lon="6.56904">
        <ele>28.5</ele>
        <time>2025-02-26T13:25:40Z</time>
      </trkpt>
      <trkpt lat="43.48043" lon="6.56904">
        <ele>28.5</ele>
        <time>2025-02-26T13:25:41Z</time>
      </trkpt>
      <trkpt lat="43.48044" lon="6.56904">
        <ele>28.5</ele>
        <time>2025-02-26T13:25:42Z</time>
      </trkpt>
      <trkpt lat="43.48044" lon="6.56905">
        <ele>28.4</ele>
        <time>2025-02-26T13:25:43Z</time>
      </trkpt>
      <trkpt lat="43.48045" lon="6.56906">
        <ele>28.4</ele>
        <time>2025-02-26T13:25:44Z</time>
      </trkpt>
      <trkpt lat="43.48047" lon="6.56908">
        <ele>28.4</ele>
        <time>2025-02-26T13:25:45Z</time>
      </trkpt>
      <trkpt lat="43.48048" lon="6.56909">
        <ele>28.4</ele>
        <time>2025-02-26T13:25:46Z</time>
      </trkpt>
      <trkpt lat="43.48049" lon="6.5691">
        <ele>28.4</ele>
        <time>2025-02-26T13:25:47Z</time>
      </trkpt>
      <trkpt lat="43.4805" lon="6.5691">
        <ele>28.4</ele>
        <time>2025-02-26T13:25:48Z</time>
      </trkpt>
      <trkpt lat="43.48051" lon="6.56912">
        <ele>28.4</ele>
        <time>2025-02-26T13:25:49Z</time>
      </trkpt>
      <trkpt lat="43.48052" lon="6.56913">
        <ele>28.3</ele>
        <time>2025-02-26T13:25:50Z</time>
      </trkpt>
      <trkpt lat="43.48053" lon="6.56914">
        <ele>28.3</ele>
        <time>2025-02-26T13:25:51Z</time>
      </trkpt>
      <trkpt lat="43.48055" lon="6.56915">
        <ele>28.2</ele>
        <time>2025-02-26T13:25:52Z</time>
      </trkpt>
      <trkpt lat="43.48055" lon="6.56916">
        <ele>28.2</ele>
        <time>2025-02-26T13:25:53Z</time>
      </trkpt>
      <trkpt lat="43.48056" lon="6.56917">
        <ele>28.2</ele>
        <time>2025-02-26T13:25:54Z</time>
      </trkpt>
      <trkpt lat="43.48057" lon="6.56919">
        <ele>28.2</ele>
        <time>2025-02-26T13:25:55Z</time>
      </trkpt>
      <trkpt lat="43.48058" lon="6.56921">
        <ele>28.1</ele>
        <time>2025-02-26T13:25:56Z</time>
      </trkpt>
      <trkpt lat="43.48058" lon="6.56922">
        <ele>28.1</ele>
        <time>2025-02-26T13:25:57Z</time>
      </trkpt>
      <trkpt lat="43.48059" lon="6.56924">
        <ele>28.2</ele>
        <time>2025-02-26T13:25:58Z</time>
      </trkpt>
      <trkpt lat="43.48059" lon="6.56926">
        <ele>28.3</ele>
        <time>2025-02-26T13:25:59Z</time>
      </trkpt>
      <trkpt lat="43.48059" lon="6.56928">
        <ele>28.3</ele>
        <time>2025-02-26T13:26:00Z</time>
      </trkpt>
      <trkpt lat="43.4806" lon="6.56929">
        <ele>28.4</ele>
        <time>2025-02-26T13:26:01Z</time>
      </trkpt>
      <trkpt lat="43.4806" lon="6.56931">
        <ele>28.4</ele>
        <time>2025-02-26T13:26:02Z</time>
      </trkpt>
      <trkpt lat="43.48061" lon="6.56933">
        <ele>28.4</ele>
        <time>2025-02-26T13:26:03Z</time>
      </trkpt>
      <trkpt lat="43.4806" lon="6.56935">
        <ele>28.3</ele>
        <time>2025-02-26T13:26:04Z</time>
      </trkpt>
      <trkpt lat="43.48061" lon="6.56937">
        <ele>28.2</ele>
        <time>2025-02-26T13:26:05Z</time>
      </trkpt>
      <trkpt lat="43.48061" lon="6.56939">
        <ele>28.1</ele>
        <time>2025-02-26T13:26:06Z</time>
      </trkpt>
      <trkpt lat="43.48061" lon="6.56941">
        <ele>28.1</ele>
        <time>2025-02-26T13:26:07Z</time>
      </trkpt>
      <trkpt lat="43.4806" lon="6.56943">
        <ele>28</ele>
        <time>2025-02-26T13:26:08Z</time>
      </trkpt>
      <trkpt lat="43.4806" lon="6.56944">
        <ele>27.9</ele>
        <time>2025-02-26T13:26:09Z</time>
      </trkpt>
      <trkpt lat="43.4806" lon="6.56946">
        <ele>27.8</ele>
        <time>2025-02-26T13:26:10Z</time>
      </trkpt>
      <trkpt lat="43.4806" lon="6.56947">
        <ele>27.8</ele>
        <time>2025-02-26T13:26:11Z</time>
      </trkpt>
      <trkpt lat="43.4806" lon="6.56949">
        <ele>27.7</ele>
        <time>2025-02-26T13:26:12Z</time>
      </trkpt>
      <trkpt lat="43.4806" lon="6.56951">
        <ele>27.5</ele>
        <time>2025-02-26T13:26:13Z</time>
      </trkpt>
      <trkpt lat="43.48059" lon="6.56952">
        <ele>27.3</ele>
        <time>2025-02-26T13:26:14Z</time>
      </trkpt>
      <trkpt lat="43.48059" lon="6.56954">
        <ele>27.2</ele>
        <time>2025-02-26T13:26:15Z</time>
      </trkpt>
      <trkpt lat="43.48059" lon="6.56956">
        <ele>27.2</ele>
        <time>2025-02-26T13:26:16Z</time>
      </trkpt>
      <trkpt lat="43.48059" lon="6.56957">
        <ele>27.1</ele>
        <time>2025-02-26T13:26:17Z</time>
      </trkpt>
      <trkpt lat="43.48058" lon="6.56959">
        <ele>27.1</ele>
        <time>2025-02-26T13:26:18Z</time>
      </trkpt>
      <trkpt lat="43.48058" lon="6.56961">
        <ele>27</ele>
        <time>2025-02-26T13:26:19Z</time>
      </trkpt>
      <trkpt lat="43.48058" lon="6.56962">
        <ele>26.9</ele>
        <time>2025-02-26T13:26:20Z</time>
      </trkpt>
      <trkpt lat="43.48057" lon="6.56964">
        <ele>26.8</ele>
        <time>2025-02-26T13:26:21Z</time>
      </trkpt>
      <trkpt lat="43.48057" lon="6.56966">
        <ele>26.8</ele>
        <time>2025-02-26T13:26:22Z</time>
      </trkpt>
      <trkpt lat="43.48057" lon="6.56968">
        <ele>26.6</ele>
        <time>2025-02-26T13:26:23Z</time>
      </trkpt>
      <trkpt lat="43.48056" lon="6.56969">
        <ele>26.6</ele>
        <time>2025-02-26T13:26:24Z</time>
      </trkpt>
      <trkpt lat="43.48056" lon="6.56971">
        <ele>26.5</ele>
        <time>2025-02-26T13:26:25Z</time>
      </trkpt>
      <trkpt lat="43.48056" lon="6.56973">
        <ele>26.4</ele>
        <time>2025-02-26T13:26:26Z</time>
      </trkpt>
      <trkpt lat="43.48056" lon="6.56975">
        <ele>26.3</ele>
        <time>2025-02-26T13:26:27Z</time>
      </trkpt>
      <trkpt lat="43.48055" lon="6.56976">
        <ele>26.2</ele>
        <time>2025-02-26T13:26:28Z</time>
      </trkpt>
      <trkpt lat="43.48055" lon="6.56978">
        <ele>26.1</ele>
        <time>2025-02-26T13:26:29Z</time>
      </trkpt>
      <trkpt lat="43.48055" lon="6.5698">
        <ele>26.1</ele>
        <time>2025-02-26T13:26:30Z</time>
      </trkpt>
      <trkpt lat="43.48055" lon="6.56981">
        <ele>26</ele>
        <time>2025-02-26T13:26:31Z</time>
      </trkpt>
      <trkpt lat="43.48054" lon="6.56983">
        <ele>26</ele>
        <time>2025-02-26T13:26:32Z</time>
      </trkpt>
      <trkpt lat="43.48054" lon="6.56985">
        <ele>26.1</ele>
        <time>2025-02-26T13:26:33Z</time>
      </trkpt>
      <trkpt lat="43.48054" lon="6.56986">
        <ele>26.1</ele>
        <time>2025-02-26T13:26:34Z</time>
      </trkpt>
      <trkpt lat="43.48053" lon="6.56988">
        <ele>26.1</ele>
        <time>2025-02-26T13:26:35Z</time>
      </trkpt>
      <trkpt lat="43.48053" lon="6.5699">
        <ele>26</ele>
        <time>2025-02-26T13:26:36Z</time>
      </trkpt>
      <trkpt lat="43.48053" lon="6.56992">
        <ele>25.9</ele>
        <time>2025-02-26T13:26:37Z</time>
      </trkpt>
      <trkpt lat="43.48053" lon="6.56993">
        <ele>25.9</ele>
        <time>2025-02-26T13:26:38Z</time>
      </trkpt>
      <trkpt lat="43.48053" lon="6.56995">
        <ele>25.9</ele>
        <time>2025-02-26T13:26:39Z</time>
      </trkpt>
      <trkpt lat="43.48052" lon="6.56996">
        <ele>25.8</ele>
        <time>2025-02-26T13:26:40Z</time>
      </trkpt>
      <trkpt lat="43.48052" lon="6.56998">
        <ele>25.8</ele>
        <time>2025-02-26T13:26:41Z</time>
      </trkpt>
      <trkpt lat="43.48052" lon="6.57">
        <ele>25.7</ele>
        <time>2025-02-26T13:26:42Z</time>
      </trkpt>
      <trkpt lat="43.48052" lon="6.57001">
        <ele>25.5</ele>
        <time>2025-02-26T13:26:43Z</time>
      </trkpt>
      <trkpt lat="43.48052" lon="6.57003">
        <ele>25.2</ele>
        <time>2025-02-26T13:26:44Z</time>
      </trkpt>
      <trkpt lat="43.48051" lon="6.57005">
        <ele>25</ele>
        <time>2025-02-26T13:26:45Z</time>
      </trkpt>
      <trkpt lat="43.48051" lon="6.57007">
        <ele>24.9</ele>
        <time>2025-02-26T13:26:46Z</time>
      </trkpt>
      <trkpt lat="43.4805" lon="6.57009">
        <ele>24.8</ele>
        <time>2025-02-26T13:26:47Z</time>
      </trkpt>
      <trkpt lat="43.4805" lon="6.57011">
        <ele>24.7</ele>
        <time>2025-02-26T13:26:48Z</time>
      </trkpt>
      <trkpt lat="43.4805" lon="6.57013">
        <ele>24.8</ele>
        <time>2025-02-26T13:26:49Z</time>
      </trkpt>
      <trkpt lat="43.4805" lon="6.57015">
        <ele>24.6</ele>
        <time>2025-02-26T13:26:50Z</time>
      </trkpt>
      <trkpt lat="43.48049" lon="6.57017">
        <ele>24.6</ele>
        <time>2025-02-26T13:26:51Z</time>
      </trkpt>
      <trkpt lat="43.48049" lon="6.57018">
        <ele>24.6</ele>
        <time>2025-02-26T13:26:52Z</time>
      </trkpt>
      <trkpt lat="43.48049" lon="6.5702">
        <ele>24.7</ele>
        <time>2025-02-26T13:26:53Z</time>
      </trkpt>
      <trkpt lat="43.48048" lon="6.57022">
        <ele>24.7</ele>
        <time>2025-02-26T13:26:54Z</time>
      </trkpt>
      <trkpt lat="43.48048" lon="6.57024">
        <ele>24.6</ele>
        <time>2025-02-26T13:26:55Z</time>
      </trkpt>
      <trkpt lat="43.48048" lon="6.57026">
        <ele>24.6</ele>
        <time>2025-02-26T13:26:56Z</time>
      </trkpt>
      <trkpt lat="43.48048" lon="6.57028">
        <ele>24.6</ele>
        <time>2025-02-26T13:26:57Z</time>
      </trkpt>
      <trkpt lat="43.48047" lon="6.5703">
        <ele>24.5</ele>
        <time>2025-02-26T13:26:58Z</time>
      </trkpt>
      <trkpt lat="43.48047" lon="6.57032">
        <ele>24.5</ele>
        <time>2025-02-26T13:26:59Z</time>
      </trkpt>
      <trkpt lat="43.48046" lon="6.57034">
        <ele>24.4</ele>
        <time>2025-02-26T13:27:00Z</time>
      </trkpt>
      <trkpt lat="43.48046" lon="6.57035">
        <ele>24.3</ele>
        <time>2025-02-26T13:27:01Z</time>
      </trkpt>
      <trkpt lat="43.48045" lon="6.57037">
        <ele>24.2</ele>
        <time>2025-02-26T13:27:02Z</time>
      </trkpt>
      <trkpt lat="43.48045" lon="6.57039">
        <ele>24.2</ele>
        <time>2025-02-26T13:27:03Z</time>
      </trkpt>
      <trkpt lat="43.48045" lon="6.5704">
        <ele>24.2</ele>
        <time>2025-02-26T13:27:04Z</time>
      </trkpt>
      <trkpt lat="43.48045" lon="6.57042">
        <ele>24.2</ele>
        <time>2025-02-26T13:27:05Z</time>
      </trkpt>
      <trkpt lat="43.48044" lon="6.57044">
        <ele>24.1</ele>
        <time>2025-02-26T13:27:06Z</time>
      </trkpt>
      <trkpt lat="43.48044" lon="6.57045">
        <ele>24.1</ele>
        <time>2025-02-26T13:27:07Z</time>
      </trkpt>
      <trkpt lat="43.48044" lon="6.57047">
        <ele>24</ele>
        <time>2025-02-26T13:27:08Z</time>
      </trkpt>
      <trkpt lat="43.48044" lon="6.57048">
        <ele>23.9</ele>
        <time>2025-02-26T13:27:09Z</time>
      </trkpt>
      <trkpt lat="43.48044" lon="6.57049">
        <ele>23.8</ele>
        <time>2025-02-26T13:27:10Z</time>
      </trkpt>
      <trkpt lat="43.48043" lon="6.57051">
        <ele>23.7</ele>
        <time>2025-02-26T13:27:11Z</time>
      </trkpt>
      <trkpt lat="43.48043" lon="6.57052">
        <ele>23.5</ele>
        <time>2025-02-26T13:27:12Z</time>
      </trkpt>
      <trkpt lat="43.48042" lon="6.57054">
        <ele>23.4</ele>
        <time>2025-02-26T13:27:13Z</time>
      </trkpt>
      <trkpt lat="43.48042" lon="6.57056">
        <ele>23.3</ele>
        <time>2025-02-26T13:27:14Z</time>
      </trkpt>
      <trkpt lat="43.48041" lon="6.57057">
        <ele>23.3</ele>
        <time>2025-02-26T13:27:15Z</time>
      </trkpt>
      <trkpt lat="43.48041" lon="6.57059">
        <ele>23.3</ele>
        <time>2025-02-26T13:27:16Z</time>
      </trkpt>
      <trkpt lat="43.48041" lon="6.57061">
        <ele>23.4</ele>
        <time>2025-02-26T13:27:17Z</time>
      </trkpt>
      <trkpt lat="43.4804" lon="6.57062">
        <ele>23.5</ele>
        <time>2025-02-26T13:27:18Z</time>
      </trkpt>
      <trkpt lat="43.4804" lon="6.57064">
        <ele>23.4</ele>
        <time>2025-02-26T13:27:19Z</time>
      </trkpt>
      <trkpt lat="43.48039" lon="6.57066">
        <ele>23.4</ele>
        <time>2025-02-26T13:27:20Z</time>
      </trkpt>
      <trkpt lat="43.48039" lon="6.57068">
        <ele>23.4</ele>
        <time>2025-02-26T13:27:21Z</time>
      </trkpt>
      <trkpt lat="43.48038" lon="6.5707">
        <ele>23.4</ele>
        <time>2025-02-26T13:27:22Z</time>
      </trkpt>
      <trkpt lat="43.48038" lon="6.57072">
        <ele>23.5</ele>
        <time>2025-02-26T13:27:23Z</time>
      </trkpt>
      <trkpt lat="43.48038" lon="6.57073">
        <ele>23.6</ele>
        <time>2025-02-26T13:27:24Z</time>
      </trkpt>
      <trkpt lat="43.48037" lon="6.57075">
        <ele>23.5</ele>
        <time>2025-02-26T13:27:25Z</time>
      </trkpt>
      <trkpt lat="43.48037" lon="6.57076">
        <ele>23.4</ele>
        <time>2025-02-26T13:27:26Z</time>
      </trkpt>
      <trkpt lat="43.48037" lon="6.57078">
        <ele>23.5</ele>
        <time>2025-02-26T13:27:27Z</time>
      </trkpt>
      <trkpt lat="43.48036" lon="6.5708">
        <ele>23.5</ele>
        <time>2025-02-26T13:27:28Z</time>
      </trkpt>
      <trkpt lat="43.48036" lon="6.57081">
        <ele>23.5</ele>
        <time>2025-02-26T13:27:29Z</time>
      </trkpt>
      <trkpt lat="43.48036" lon="6.57083">
        <ele>23.4</ele>
        <time>2025-02-26T13:27:30Z</time>
      </trkpt>
      <trkpt lat="43.48035" lon="6.57084">
        <ele>23.3</ele>
        <time>2025-02-26T13:27:31Z</time>
      </trkpt>
      <trkpt lat="43.48035" lon="6.57086">
        <ele>23.2</ele>
        <time>2025-02-26T13:27:32Z</time>
      </trkpt>
      <trkpt lat="43.48034" lon="6.57088">
        <ele>23.2</ele>
        <time>2025-02-26T13:27:33Z</time>
      </trkpt>
      <trkpt lat="43.48034" lon="6.57089">
        <ele>23.2</ele>
        <time>2025-02-26T13:27:34Z</time>
      </trkpt>
      <trkpt lat="43.48033" lon="6.57092">
        <ele>23.2</ele>
        <time>2025-02-26T13:27:35Z</time>
      </trkpt>
      <trkpt lat="43.48033" lon="6.57094">
        <ele>23.1</ele>
        <time>2025-02-26T13:27:36Z</time>
      </trkpt>
      <trkpt lat="43.48032" lon="6.57095">
        <ele>23</ele>
        <time>2025-02-26T13:27:37Z</time>
      </trkpt>
      <trkpt lat="43.48031" lon="6.57097">
        <ele>22.9</ele>
        <time>2025-02-26T13:27:38Z</time>
      </trkpt>
      <trkpt lat="43.48031" lon="6.57099">
        <ele>23</ele>
        <time>2025-02-26T13:27:39Z</time>
      </trkpt>
      <trkpt lat="43.4803" lon="6.57101">
        <ele>22.8</ele>
        <time>2025-02-26T13:27:40Z</time>
      </trkpt>
      <trkpt lat="43.48029" lon="6.57102">
        <ele>22.8</ele>
        <time>2025-02-26T13:27:41Z</time>
      </trkpt>
      <trkpt lat="43.48029" lon="6.57104">
        <ele>22.7</ele>
        <time>2025-02-26T13:27:42Z</time>
      </trkpt>
      <trkpt lat="43.48029" lon="6.57105">
        <ele>22.7</ele>
        <time>2025-02-26T13:27:43Z</time>
      </trkpt>
      <trkpt lat="43.48028" lon="6.57107">
        <ele>22.6</ele>
        <time>2025-02-26T13:27:44Z</time>
      </trkpt>
      <trkpt lat="43.48028" lon="6.57109">
        <ele>22.6</ele>
        <time>2025-02-26T13:27:45Z</time>
      </trkpt>
      <trkpt lat="43.48027" lon="6.5711">
        <ele>22.8</ele>
        <time>2025-02-26T13:27:46Z</time>
      </trkpt>
      <trkpt lat="43.48027" lon="6.57112">
        <ele>22.9</ele>
        <time>2025-02-26T13:27:47Z</time>
      </trkpt>
      <trkpt lat="43.48026" lon="6.57113">
        <ele>22.7</ele>
        <time>2025-02-26T13:27:48Z</time>
      </trkpt>
      <trkpt lat="43.48025" lon="6.57115">
        <ele>22.7</ele>
        <time>2025-02-26T13:27:49Z</time>
      </trkpt>
      <trkpt lat="43.48024" lon="6.57116">
        <ele>22.6</ele>
        <time>2025-02-26T13:27:50Z</time>
      </trkpt>
      <trkpt lat="43.48024" lon="6.57118">
        <ele>22.6</ele>
        <time>2025-02-26T13:27:51Z</time>
      </trkpt>
      <trkpt lat="43.48023" lon="6.57119">
        <ele>22.6</ele>
        <time>2025-02-26T13:27:52Z</time>
      </trkpt>
      <trkpt lat="43.48022" lon="6.57121">
        <ele>22.6</ele>
        <time>2025-02-26T13:27:53Z</time>
      </trkpt>
      <trkpt lat="43.48021" lon="6.57122">
        <ele>22.6</ele>
        <time>2025-02-26T13:27:54Z</time>
      </trkpt>
      <trkpt lat="43.4802" lon="6.57123">
        <ele>22.6</ele>
        <time>2025-02-26T13:27:55Z</time>
      </trkpt>
      <trkpt lat="43.48019" lon="6.57124">
        <ele>22.6</ele>
        <time>2025-02-26T13:27:56Z</time>
      </trkpt>
      <trkpt lat="43.48018" lon="6.57125">
        <ele>22.5</ele>
        <time>2025-02-26T13:27:57Z</time>
      </trkpt>
      <trkpt lat="43.48017" lon="6.57126">
        <ele>22.6</ele>
        <time>2025-02-26T13:27:58Z</time>
      </trkpt>
      <trkpt lat="43.48016" lon="6.57127">
        <ele>22.6</ele>
        <time>2025-02-26T13:27:59Z</time>
      </trkpt>
      <trkpt lat="43.48015" lon="6.57127">
        <ele>22.6</ele>
        <time>2025-02-26T13:28:00Z</time>
      </trkpt>
      <trkpt lat="43.48014" lon="6.57128">
        <ele>22.6</ele>
        <time>2025-02-26T13:28:01Z</time>
      </trkpt>
      <trkpt lat="43.48013" lon="6.57129">
        <ele>22.5</ele>
        <time>2025-02-26T13:28:02Z</time>
      </trkpt>
      <trkpt lat="43.48012" lon="6.5713">
        <ele>22.6</ele>
        <time>2025-02-26T13:28:03Z</time>
      </trkpt>
      <trkpt lat="43.4801" lon="6.5713">
        <ele>22.5</ele>
        <time>2025-02-26T13:28:04Z</time>
      </trkpt>
      <trkpt lat="43.48009" lon="6.5713">
        <ele>22.6</ele>
        <time>2025-02-26T13:28:05Z</time>
      </trkpt>
      <trkpt lat="43.48008" lon="6.57131">
        <ele>22.6</ele>
        <time>2025-02-26T13:28:06Z</time>
      </trkpt>
      <trkpt lat="43.48007" lon="6.57132">
        <ele>22.6</ele>
        <time>2025-02-26T13:28:07Z</time>
      </trkpt>
      <trkpt lat="43.48005" lon="6.57132">
        <ele>22.5</ele>
        <time>2025-02-26T13:28:08Z</time>
      </trkpt>
      <trkpt lat="43.48004" lon="6.57132">
        <ele>22.5</ele>
        <time>2025-02-26T13:28:09Z</time>
      </trkpt>
      <trkpt lat="43.48003" lon="6.57133">
        <ele>22.4</ele>
        <time>2025-02-26T13:28:10Z</time>
      </trkpt>
      <trkpt lat="43.48002" lon="6.57134">
        <ele>22.2</ele>
        <time>2025-02-26T13:28:11Z</time>
      </trkpt>
      <trkpt lat="43.48001" lon="6.57134">
        <ele>22.2</ele>
        <time>2025-02-26T13:28:12Z</time>
      </trkpt>
      <trkpt lat="43.48" lon="6.57134">
        <ele>22.3</ele>
        <time>2025-02-26T13:28:13Z</time>
      </trkpt>
      <trkpt lat="43.47998" lon="6.57134">
        <ele>22.3</ele>
        <time>2025-02-26T13:28:14Z</time>
      </trkpt>
      <trkpt lat="43.47997" lon="6.57135">
        <ele>22.3</ele>
        <time>2025-02-26T13:28:15Z</time>
      </trkpt>
      <trkpt lat="43.47996" lon="6.57135">
        <ele>22.3</ele>
        <time>2025-02-26T13:28:16Z</time>
      </trkpt>
      <trkpt lat="43.47995" lon="6.57135">
        <ele>22.3</ele>
        <time>2025-02-26T13:28:17Z</time>
      </trkpt>
      <trkpt lat="43.47993" lon="6.57136">
        <ele>22.3</ele>
        <time>2025-02-26T13:28:18Z</time>
      </trkpt>
      <trkpt lat="43.47992" lon="6.57136">
        <ele>22.1</ele>
        <time>2025-02-26T13:28:19Z</time>
      </trkpt>
      <trkpt lat="43.47991" lon="6.57137">
        <ele>22.3</ele>
        <time>2025-02-26T13:28:20Z</time>
      </trkpt>
      <trkpt lat="43.4799" lon="6.57137">
        <ele>22.2</ele>
        <time>2025-02-26T13:28:21Z</time>
      </trkpt>
      <trkpt lat="43.47988" lon="6.57138">
        <ele>22.2</ele>
        <time>2025-02-26T13:28:22Z</time>
      </trkpt>
      <trkpt lat="43.47987" lon="6.57138">
        <ele>22.2</ele>
        <time>2025-02-26T13:28:23Z</time>
      </trkpt>
      <trkpt lat="43.47986" lon="6.57138">
        <ele>22.2</ele>
        <time>2025-02-26T13:28:24Z</time>
      </trkpt>
      <trkpt lat="43.47985" lon="6.57139">
        <ele>22.1</ele>
        <time>2025-02-26T13:28:25Z</time>
      </trkpt>
      <trkpt lat="43.47984" lon="6.57139">
        <ele>22</ele>
        <time>2025-02-26T13:28:26Z</time>
      </trkpt>
      <trkpt lat="43.47983" lon="6.5714">
        <ele>21.9</ele>
        <time>2025-02-26T13:28:27Z</time>
      </trkpt>
      <trkpt lat="43.47982" lon="6.57141">
        <ele>21.8</ele>
        <time>2025-02-26T13:28:28Z</time>
      </trkpt>
      <trkpt lat="43.47981" lon="6.57142">
        <ele>21.9</ele>
        <time>2025-02-26T13:28:29Z</time>
      </trkpt>
      <trkpt lat="43.4798" lon="6.57143">
        <ele>22</ele>
        <time>2025-02-26T13:28:30Z</time>
      </trkpt>
      <trkpt lat="43.47979" lon="6.57144">
        <ele>22</ele>
        <time>2025-02-26T13:28:31Z</time>
      </trkpt>
      <trkpt lat="43.47978" lon="6.57145">
        <ele>22.1</ele>
        <time>2025-02-26T13:28:32Z</time>
      </trkpt>
      <trkpt lat="43.47977" lon="6.57147">
        <ele>22.2</ele>
        <time>2025-02-26T13:28:33Z</time>
      </trkpt>
      <trkpt lat="43.47977" lon="6.57148">
        <ele>22.2</ele>
        <time>2025-02-26T13:28:34Z</time>
      </trkpt>
      <trkpt lat="43.47976" lon="6.57149">
        <ele>22.2</ele>
        <time>2025-02-26T13:28:35Z</time>
      </trkpt>
      <trkpt lat="43.47976" lon="6.5715">
        <ele>22.2</ele>
        <time>2025-02-26T13:28:36Z</time>
      </trkpt>
      <trkpt lat="43.47975" lon="6.57151">
        <ele>22.2</ele>
        <time>2025-02-26T13:28:37Z</time>
      </trkpt>
      <trkpt lat="43.47975" lon="6.57152">
        <ele>22.1</ele>
        <time>2025-02-26T13:28:38Z</time>
      </trkpt>
      <trkpt lat="43.47974" lon="6.57153">
        <ele>22.1</ele>
        <time>2025-02-26T13:28:39Z</time>
      </trkpt>
      <trkpt lat="43.47974" lon="6.57155">
        <ele>22</ele>
        <time>2025-02-26T13:28:40Z</time>
      </trkpt>
      <trkpt lat="43.47973" lon="6.57156">
        <ele>22</ele>
        <time>2025-02-26T13:28:41Z</time>
      </trkpt>
      <trkpt lat="43.47972" lon="6.57157">
        <ele>21.9</ele>
        <time>2025-02-26T13:28:42Z</time>
      </trkpt>
      <trkpt lat="43.47971" lon="6.57158">
        <ele>21.9</ele>
        <time>2025-02-26T13:28:43Z</time>
      </trkpt>
      <trkpt lat="43.4797" lon="6.57159">
        <ele>22</ele>
        <time>2025-02-26T13:28:44Z</time>
      </trkpt>
      <trkpt lat="43.4797" lon="6.5716">
        <ele>21.9</ele>
        <time>2025-02-26T13:28:45Z</time>
      </trkpt>
      <trkpt lat="43.4797" lon="6.57162">
        <ele>21.9</ele>
        <time>2025-02-26T13:28:46Z</time>
      </trkpt>
      <trkpt lat="43.47969" lon="6.57163">
        <ele>21.9</ele>
        <time>2025-02-26T13:28:47Z</time>
      </trkpt>
      <trkpt lat="43.47968" lon="6.57165">
        <ele>21.9</ele>
        <time>2025-02-26T13:28:48Z</time>
      </trkpt>
      <trkpt lat="43.47967" lon="6.57165">
        <ele>21.9</ele>
        <time>2025-02-26T13:28:49Z</time>
      </trkpt>
      <trkpt lat="43.47967" lon="6.57166">
        <ele>21.8</ele>
        <time>2025-02-26T13:28:50Z</time>
      </trkpt>
      <trkpt lat="43.47966" lon="6.57168">
        <ele>21.8</ele>
        <time>2025-02-26T13:28:51Z</time>
      </trkpt>
      <trkpt lat="43.47966" lon="6.57169">
        <ele>21.8</ele>
        <time>2025-02-26T13:28:52Z</time>
      </trkpt>
      <trkpt lat="43.47967" lon="6.5717">
        <ele>21.8</ele>
        <time>2025-02-26T13:28:53Z</time>
      </trkpt>
      <trkpt lat="43.47966" lon="6.57171">
        <ele>21.8</ele>
        <time>2025-02-26T13:28:54Z</time>
      </trkpt>
      <trkpt lat="43.47966" lon="6.57172">
        <ele>21.9</ele>
        <time>2025-02-26T13:28:55Z</time>
      </trkpt>
      <trkpt lat="43.47966" lon="6.57173">
        <ele>21.9</ele>
        <time>2025-02-26T13:28:56Z</time>
      </trkpt>
      <trkpt lat="43.47966" lon="6.57175">
        <ele>22</ele>
        <time>2025-02-26T13:28:57Z</time>
      </trkpt>
      <trkpt lat="43.47965" lon="6.57176">
        <ele>22.1</ele>
        <time>2025-02-26T13:28:58Z</time>
      </trkpt>
      <trkpt lat="43.47964" lon="6.57178">
        <ele>22.1</ele>
        <time>2025-02-26T13:28:59Z</time>
      </trkpt>
      <trkpt lat="43.47964" lon="6.57179">
        <ele>22.1</ele>
        <time>2025-02-26T13:29:00Z</time>
      </trkpt>
      <trkpt lat="43.47963" lon="6.5718">
        <ele>22.2</ele>
        <time>2025-02-26T13:29:01Z</time>
      </trkpt>
      <trkpt lat="43.47962" lon="6.57181">
        <ele>22.3</ele>
        <time>2025-02-26T13:29:02Z</time>
      </trkpt>
      <trkpt lat="43.47961" lon="6.57182">
        <ele>22.3</ele>
        <time>2025-02-26T13:29:03Z</time>
      </trkpt>
      <trkpt lat="43.4796" lon="6.57182">
        <ele>22.4</ele>
        <time>2025-02-26T13:29:04Z</time>
      </trkpt>
      <trkpt lat="43.47959" lon="6.57183">
        <ele>22.4</ele>
        <time>2025-02-26T13:29:05Z</time>
      </trkpt>
      <trkpt lat="43.47958" lon="6.57183">
        <ele>22.4</ele>
        <time>2025-02-26T13:29:06Z</time>
      </trkpt>
      <trkpt lat="43.47957" lon="6.57183">
        <ele>22.4</ele>
        <time>2025-02-26T13:29:07Z</time>
      </trkpt>
      <trkpt lat="43.47957" lon="6.57183">
        <ele>22.5</ele>
        <time>2025-02-26T13:29:08Z</time>
      </trkpt>
      <trkpt lat="43.47956" lon="6.57183">
        <ele>22.5</ele>
        <time>2025-02-26T13:29:09Z</time>
      </trkpt>
      <trkpt lat="43.47955" lon="6.57183">
        <ele>22.5</ele>
        <time>2025-02-26T13:29:10Z</time>
      </trkpt>
      <trkpt lat="43.47954" lon="6.57183">
        <ele>22.6</ele>
        <time>2025-02-26T13:29:11Z</time>
      </trkpt>
      <trkpt lat="43.47953" lon="6.57183">
        <ele>22.6</ele>
        <time>2025-02-26T13:29:12Z</time>
      </trkpt>
      <trkpt lat="43.47953" lon="6.57183">
        <ele>22.7</ele>
        <time>2025-02-26T13:29:13Z</time>
      </trkpt>
      <trkpt lat="43.47952" lon="6.57184">
        <ele>22.7</ele>
        <time>2025-02-26T13:29:14Z</time>
      </trkpt>
      <trkpt lat="43.47952" lon="6.57184">
        <ele>22.7</ele>
        <time>2025-02-26T13:29:15Z</time>
      </trkpt>
      <trkpt lat="43.47952" lon="6.57184">
        <ele>22.9</ele>
        <time>2025-02-26T13:29:16Z</time>
      </trkpt>
      <trkpt lat="43.47952" lon="6.57184">
        <ele>23</ele>
        <time>2025-02-26T13:29:17Z</time>
      </trkpt>
      <trkpt lat="43.47952" lon="6.57184">
        <ele>23.2</ele>
        <time>2025-02-26T13:29:18Z</time>
      </trkpt>
      <trkpt lat="43.47951" lon="6.57183">
        <ele>23.3</ele>
        <time>2025-02-26T13:29:19Z</time>
      </trkpt>
      <trkpt lat="43.47952" lon="6.57183">
        <ele>23.3</ele>
        <time>2025-02-26T13:29:20Z</time>
      </trkpt>
      <trkpt lat="43.47952" lon="6.57183">
        <ele>23.4</ele>
        <time>2025-02-26T13:29:21Z</time>
      </trkpt>
      <trkpt lat="43.47952" lon="6.57183">
        <ele>23.4</ele>
        <time>2025-02-26T13:29:22Z</time>
      </trkpt>
      <trkpt lat="43.47952" lon="6.57183">
        <ele>23.4</ele>
        <time>2025-02-26T13:29:23Z</time>
      </trkpt>
      <trkpt lat="43.47952" lon="6.57183">
        <ele>23.4</ele>
        <time>2025-02-26T13:29:24Z</time>
      </trkpt>
      <trkpt lat="43.47952" lon="6.57184">
        <ele>23.4</ele>
        <time>2025-02-26T13:29:25Z</time>
      </trkpt>
      <trkpt lat="43.47952" lon="6.57184">
        <ele>23.4</ele>
        <time>2025-02-26T13:29:26Z</time>
      </trkpt>
      <trkpt lat="43.47952" lon="6.57184">
        <ele>23.5</ele>
        <time>2025-02-26T13:29:27Z</time>
      </trkpt>
      <trkpt lat="43.47952" lon="6.57184">
        <ele>23.5</ele>
        <time>2025-02-26T13:29:28Z</time>
      </trkpt>
      <trkpt lat="43.47952" lon="6.57184">
        <ele>23.6</ele>
        <time>2025-02-26T13:29:29Z</time>
      </trkpt>
      <trkpt lat="43.47952" lon="6.57184">
        <ele>23.6</ele>
        <time>2025-02-26T13:29:30Z</time>
      </trkpt>
      <trkpt lat="43.47952" lon="6.57184">
        <ele>23.6</ele>
        <time>2025-02-26T13:29:31Z</time>
      </trkpt>
      <trkpt lat="43.47952" lon="6.57185">
        <ele>23.6</ele>
        <time>2025-02-26T13:29:32Z</time>
      </trkpt>
      <trkpt lat="43.47952" lon="6.57185">
        <ele>23.6</ele>
        <time>2025-02-26T13:29:33Z</time>
      </trkpt>
      <trkpt lat="43.47952" lon="6.57185">
        <ele>23.5</ele>
        <time>2025-02-26T13:29:34Z</time>
      </trkpt>
      <trkpt lat="43.47952" lon="6.57185">
        <ele>23.5</ele>
        <time>2025-02-26T13:29:35Z</time>
      </trkpt>
      <trkpt lat="43.47952" lon="6.57185">
        <ele>23.4</ele>
        <time>2025-02-26T13:29:36Z</time>
      </trkpt>
      <trkpt lat="43.47952" lon="6.57185">
        <ele>23.4</ele>
        <time>2025-02-26T13:29:37Z</time>
      </trkpt>
      <trkpt lat="43.47952" lon="6.57185">
        <ele>23.4</ele>
        <time>2025-02-26T13:29:38Z</time>
      </trkpt>
      <trkpt lat="43.47952" lon="6.57185">
        <ele>23.4</ele>
        <time>2025-02-26T13:29:39Z</time>
      </trkpt>
      <trkpt lat="43.47951" lon="6.57185">
        <ele>23.4</ele>
        <time>2025-02-26T13:29:40Z</time>
      </trkpt>
      <trkpt lat="43.47951" lon="6.57185">
        <ele>23.4</ele>
        <time>2025-02-26T13:29:41Z</time>
      </trkpt>
      <trkpt lat="43.47952" lon="6.57185">
        <ele>23.5</ele>
        <time>2025-02-26T13:29:42Z</time>
      </trkpt>
      <trkpt lat="43.47951" lon="6.57185">
        <ele>23.6</ele>
        <time>2025-02-26T13:29:43Z</time>
      </trkpt>
      <trkpt lat="43.47952" lon="6.57185">
        <ele>23.5</ele>
        <time>2025-02-26T13:29:44Z</time>
      </trkpt>
      <trkpt lat="43.47952" lon="6.57185">
        <ele>23.5</ele>
        <time>2025-02-26T13:29:45Z</time>
      </trkpt>
      <trkpt lat="43.47952" lon="6.57185">
        <ele>23.5</ele>
        <time>2025-02-26T13:29:46Z</time>
      </trkpt>
      <trkpt lat="43.47952" lon="6.57185">
        <ele>23.5</ele>
        <time>2025-02-26T13:29:47Z</time>
      </trkpt>
      <trkpt lat="43.47951" lon="6.57185">
        <ele>23.6</ele>
        <time>2025-02-26T13:29:48Z</time>
      </trkpt>
      <trkpt lat="43.47951" lon="6.57185">
        <ele>23.4</ele>
        <time>2025-02-26T13:29:49Z</time>
      </trkpt>
      <trkpt lat="43.47951" lon="6.57185">
        <ele>23.5</ele>
        <time>2025-02-26T13:29:50Z</time>
      </trkpt>
      <trkpt lat="43.47951" lon="6.57185">
        <ele>23.5</ele>
        <time>2025-02-26T13:29:51Z</time>
      </trkpt>
      <trkpt lat="43.47951" lon="6.57185">
        <ele>23.4</ele>
        <time>2025-02-26T13:29:52Z</time>
      </trkpt>
      <trkpt lat="43.4795" lon="6.57185">
        <ele>23.4</ele>
        <time>2025-02-26T13:29:53Z</time>
      </trkpt>
      <trkpt lat="43.4795" lon="6.57185">
        <ele>23.4</ele>
        <time>2025-02-26T13:29:54Z</time>
      </trkpt>
      <trkpt lat="43.4795" lon="6.57185">
        <ele>23.4</ele>
        <time>2025-02-26T13:29:55Z</time>
      </trkpt>
      <trkpt lat="43.4795" lon="6.57185">
        <ele>23.3</ele>
        <time>2025-02-26T13:29:56Z</time>
      </trkpt>
      <trkpt lat="43.4795" lon="6.57184">
        <ele>23.3</ele>
        <time>2025-02-26T13:29:57Z</time>
      </trkpt>
      <trkpt lat="43.4795" lon="6.57185">
        <ele>23.4</ele>
        <time>2025-02-26T13:29:58Z</time>
      </trkpt>
      <trkpt lat="43.4795" lon="6.57184">
        <ele>23.4</ele>
        <time>2025-02-26T13:29:59Z</time>
      </trkpt>
      <trkpt lat="43.4795" lon="6.57184">
        <ele>23.3</ele>
        <time>2025-02-26T13:30:00Z</time>
      </trkpt>
      <trkpt lat="43.4795" lon="6.57184">
        <ele>23.3</ele>
        <time>2025-02-26T13:30:01Z</time>
      </trkpt>
      <trkpt lat="43.4795" lon="6.57185">
        <ele>23.3</ele>
        <time>2025-02-26T13:30:02Z</time>
      </trkpt>
      <trkpt lat="43.4795" lon="6.57185">
        <ele>23.3</ele>
        <time>2025-02-26T13:30:03Z</time>
      </trkpt>
      <trkpt lat="43.47951" lon="6.57185">
        <ele>23.3</ele>
        <time>2025-02-26T13:30:04Z</time>
      </trkpt>
      <trkpt lat="43.47951" lon="6.57185">
        <ele>23.3</ele>
        <time>2025-02-26T13:30:05Z</time>
      </trkpt>
      <trkpt lat="43.47951" lon="6.57185">
        <ele>23.4</ele>
        <time>2025-02-26T13:30:06Z</time>
      </trkpt>
      <trkpt lat="43.4795" lon="6.57185">
        <ele>23.4</ele>
        <time>2025-02-26T13:30:07Z</time>
      </trkpt>
      <trkpt lat="43.47951" lon="6.57185">
        <ele>23.4</ele>
        <time>2025-02-26T13:30:08Z</time>
      </trkpt>
      <trkpt lat="43.47951" lon="6.57186">
        <ele>23.4</ele>
        <time>2025-02-26T13:30:09Z</time>
      </trkpt>
      <trkpt lat="43.47951" lon="6.57186">
        <ele>23.5</ele>
        <time>2025-02-26T13:30:10Z</time>
      </trkpt>
      <trkpt lat="43.47951" lon="6.57187">
        <ele>23.5</ele>
        <time>2025-02-26T13:30:11Z</time>
      </trkpt>
      <trkpt lat="43.47951" lon="6.57187">
        <ele>23.5</ele>
        <time>2025-02-26T13:30:12Z</time>
      </trkpt>
      <trkpt lat="43.47951" lon="6.57187">
        <ele>23.5</ele>
        <time>2025-02-26T13:30:13Z</time>
      </trkpt>
      <trkpt lat="43.47951" lon="6.57187">
        <ele>23.6</ele>
        <time>2025-02-26T13:30:14Z</time>
      </trkpt>
      <trkpt lat="43.47951" lon="6.57187">
        <ele>23.7</ele>
        <time>2025-02-26T13:30:15Z</time>
      </trkpt>
      <trkpt lat="43.47951" lon="6.57187">
        <ele>23.8</ele>
        <time>2025-02-26T13:30:16Z</time>
      </trkpt>
      <trkpt lat="43.47951" lon="6.57187">
        <ele>23.8</ele>
        <time>2025-02-26T13:30:17Z</time>
      </trkpt>
      <trkpt lat="43.47951" lon="6.57188">
        <ele>23.8</ele>
        <time>2025-02-26T13:30:18Z</time>
      </trkpt>
      <trkpt lat="43.47951" lon="6.57188">
        <ele>23.8</ele>
        <time>2025-02-26T13:30:19Z</time>
      </trkpt>
      <trkpt lat="43.47951" lon="6.57189">
        <ele>23.8</ele>
        <time>2025-02-26T13:30:20Z</time>
      </trkpt>
      <trkpt lat="43.47952" lon="6.57189">
        <ele>23.8</ele>
        <time>2025-02-26T13:30:21Z</time>
      </trkpt>
      <trkpt lat="43.47952" lon="6.57189">
        <ele>23.9</ele>
        <time>2025-02-26T13:30:22Z</time>
      </trkpt>
      <trkpt lat="43.47953" lon="6.57189">
        <ele>24</ele>
        <time>2025-02-26T13:30:23Z</time>
      </trkpt>
      <trkpt lat="43.47953" lon="6.57189">
        <ele>24</ele>
        <time>2025-02-26T13:30:24Z</time>
      </trkpt>
      <trkpt lat="43.47953" lon="6.57189">
        <ele>24.1</ele>
        <time>2025-02-26T13:30:25Z</time>
      </trkpt>
      <trkpt lat="43.47953" lon="6.5719">
        <ele>24.1</ele>
        <time>2025-02-26T13:30:26Z</time>
      </trkpt>
      <trkpt lat="43.47953" lon="6.5719">
        <ele>24.1</ele>
        <time>2025-02-26T13:30:27Z</time>
      </trkpt>
      <trkpt lat="43.47953" lon="6.5719">
        <ele>24.1</ele>
        <time>2025-02-26T13:30:28Z</time>
      </trkpt>
      <trkpt lat="43.47953" lon="6.57191">
        <ele>24.1</ele>
        <time>2025-02-26T13:30:29Z</time>
      </trkpt>
      <trkpt lat="43.47953" lon="6.57191">
        <ele>24.1</ele>
        <time>2025-02-26T13:30:30Z</time>
      </trkpt>
      <trkpt lat="43.47953" lon="6.57191">
        <ele>24.1</ele>
        <time>2025-02-26T13:30:31Z</time>
      </trkpt>
      <trkpt lat="43.47953" lon="6.57191">
        <ele>24.1</ele>
        <time>2025-02-26T13:30:32Z</time>
      </trkpt>
      <trkpt lat="43.47953" lon="6.57191">
        <ele>24</ele>
        <time>2025-02-26T13:30:33Z</time>
      </trkpt>
      <trkpt lat="43.47953" lon="6.57191">
        <ele>24</ele>
        <time>2025-02-26T13:30:34Z</time>
      </trkpt>
      <trkpt lat="43.47953" lon="6.57191">
        <ele>24</ele>
        <time>2025-02-26T13:30:35Z</time>
      </trkpt>
      <trkpt lat="43.47953" lon="6.57191">
        <ele>24</ele>
        <time>2025-02-26T13:30:36Z</time>
      </trkpt>
      <trkpt lat="43.47953" lon="6.57191">
        <ele>24.1</ele>
        <time>2025-02-26T13:30:37Z</time>
      </trkpt>
      <trkpt lat="43.47952" lon="6.57191">
        <ele>24</ele>
        <time>2025-02-26T13:30:38Z</time>
      </trkpt>
      <trkpt lat="43.47952" lon="6.57192">
        <ele>24</ele>
        <time>2025-02-26T13:30:39Z</time>
      </trkpt>
      <trkpt lat="43.47952" lon="6.57192">
        <ele>24.2</ele>
        <time>2025-02-26T13:30:40Z</time>
      </trkpt>
      <trkpt lat="43.47952" lon="6.57192">
        <ele>24.1</ele>
        <time>2025-02-26T13:30:41Z</time>
      </trkpt>
      <trkpt lat="43.47952" lon="6.57192">
        <ele>24.1</ele>
        <time>2025-02-26T13:30:42Z</time>
      </trkpt>
      <trkpt lat="43.47952" lon="6.57193">
        <ele>24.1</ele>
        <time>2025-02-26T13:30:43Z</time>
      </trkpt>
      <trkpt lat="43.47952" lon="6.57193">
        <ele>24</ele>
        <time>2025-02-26T13:30:44Z</time>
      </trkpt>
      <trkpt lat="43.47952" lon="6.57193">
        <ele>24</ele>
        <time>2025-02-26T13:30:45Z</time>
      </trkpt>
      <trkpt lat="43.47953" lon="6.57194">
        <ele>24</ele>
        <time>2025-02-26T13:30:46Z</time>
      </trkpt>
      <trkpt lat="43.47953" lon="6.57194">
        <ele>24</ele>
        <time>2025-02-26T13:30:47Z</time>
      </trkpt>
      <trkpt lat="43.47953" lon="6.57194">
        <ele>24</ele>
        <time>2025-02-26T13:30:48Z</time>
      </trkpt>
      <trkpt lat="43.47953" lon="6.57194">
        <ele>24</ele>
        <time>2025-02-26T13:30:49Z</time>
      </trkpt>
      <trkpt lat="43.47954" lon="6.57194">
        <ele>23.9</ele>
        <time>2025-02-26T13:30:50Z</time>
      </trkpt>
      <trkpt lat="43.47954" lon="6.57194">
        <ele>23.9</ele>
        <time>2025-02-26T13:30:51Z</time>
      </trkpt>
      <trkpt lat="43.47954" lon="6.57194">
        <ele>23.9</ele>
        <time>2025-02-26T13:30:52Z</time>
      </trkpt>
      <trkpt lat="43.47954" lon="6.57194">
        <ele>23.9</ele>
        <time>2025-02-26T13:30:53Z</time>
      </trkpt>
      <trkpt lat="43.47954" lon="6.57194">
        <ele>23.8</ele>
        <time>2025-02-26T13:30:54Z</time>
      </trkpt>
      <trkpt lat="43.47955" lon="6.57194">
        <ele>23.9</ele>
        <time>2025-02-26T13:30:55Z</time>
      </trkpt>
      <trkpt lat="43.47955" lon="6.57194">
        <ele>24</ele>
        <time>2025-02-26T13:30:56Z</time>
      </trkpt>
      <trkpt lat="43.47955" lon="6.57194">
        <ele>24</ele>
        <time>2025-02-26T13:30:57Z</time>
      </trkpt>
      <trkpt lat="43.47955" lon="6.57195">
        <ele>24</ele>
        <time>2025-02-26T13:30:58Z</time>
      </trkpt>
      <trkpt lat="43.47955" lon="6.57195">
        <ele>24</ele>
        <time>2025-02-26T13:30:59Z</time>
      </trkpt>
      <trkpt lat="43.47956" lon="6.57194">
        <ele>24</ele>
        <time>2025-02-26T13:31:00Z</time>
      </trkpt>
      <trkpt lat="43.47956" lon="6.57194">
        <ele>24</ele>
        <time>2025-02-26T13:31:01Z</time>
      </trkpt>
      <trkpt lat="43.47956" lon="6.57194">
        <ele>24</ele>
        <time>2025-02-26T13:31:02Z</time>
      </trkpt>
      <trkpt lat="43.47957" lon="6.57194">
        <ele>24</ele>
        <time>2025-02-26T13:31:03Z</time>
      </trkpt>
      <trkpt lat="43.47957" lon="6.57194">
        <ele>24</ele>
        <time>2025-02-26T13:31:04Z</time>
      </trkpt>
      <trkpt lat="43.47957" lon="6.57194">
        <ele>24</ele>
        <time>2025-02-26T13:31:05Z</time>
      </trkpt>
      <trkpt lat="43.47957" lon="6.57194">
        <ele>24</ele>
        <time>2025-02-26T13:31:06Z</time>
      </trkpt>
      <trkpt lat="43.47957" lon="6.57194">
        <ele>24</ele>
        <time>2025-02-26T13:31:07Z</time>
      </trkpt>
      <trkpt lat="43.47957" lon="6.57194">
        <ele>24</ele>
        <time>2025-02-26T13:31:08Z</time>
      </trkpt>
      <trkpt lat="43.47957" lon="6.57194">
        <ele>24</ele>
        <time>2025-02-26T13:31:09Z</time>
      </trkpt>
      <trkpt lat="43.47957" lon="6.57194">
        <ele>24</ele>
        <time>2025-02-26T13:31:10Z</time>
      </trkpt>
      <trkpt lat="43.47956" lon="6.57194">
        <ele>24</ele>
        <time>2025-02-26T13:31:11Z</time>
      </trkpt>
      <trkpt lat="43.47956" lon="6.57194">
        <ele>24</ele>
        <time>2025-02-26T13:31:12Z</time>
      </trkpt>
      <trkpt lat="43.47956" lon="6.57194">
        <ele>24</ele>
        <time>2025-02-26T13:31:13Z</time>
      </trkpt>
      <trkpt lat="43.47956" lon="6.57194">
        <ele>24.1</ele>
        <time>2025-02-26T13:31:14Z</time>
      </trkpt>
      <trkpt lat="43.47955" lon="6.57194">
        <ele>24.1</ele>
        <time>2025-02-26T13:31:15Z</time>
      </trkpt>
      <trkpt lat="43.47955" lon="6.57194">
        <ele>24.1</ele>
        <time>2025-02-26T13:31:16Z</time>
      </trkpt>
      <trkpt lat="43.47955" lon="6.57194">
        <ele>24.1</ele>
        <time>2025-02-26T13:31:17Z</time>
      </trkpt>
      <trkpt lat="43.47955" lon="6.57195">
        <ele>24.1</ele>
        <time>2025-02-26T13:31:18Z</time>
      </trkpt>
      <trkpt lat="43.47955" lon="6.57195">
        <ele>24.1</ele>
        <time>2025-02-26T13:31:19Z</time>
      </trkpt>
      <trkpt lat="43.47956" lon="6.57196">
        <ele>24.1</ele>
        <time>2025-02-26T13:31:20Z</time>
      </trkpt>
      <trkpt lat="43.47956" lon="6.57196">
        <ele>24.2</ele>
        <time>2025-02-26T13:31:21Z</time>
      </trkpt>
      <trkpt lat="43.47956" lon="6.57196">
        <ele>24.2</ele>
        <time>2025-02-26T13:31:22Z</time>
      </trkpt>
      <trkpt lat="43.47957" lon="6.57197">
        <ele>24.2</ele>
        <time>2025-02-26T13:31:23Z</time>
      </trkpt>
      <trkpt lat="43.47958" lon="6.57197">
        <ele>24.2</ele>
        <time>2025-02-26T13:31:24Z</time>
      </trkpt>
      <trkpt lat="43.47958" lon="6.57197">
        <ele>24.2</ele>
        <time>2025-02-26T13:31:25Z</time>
      </trkpt>
      <trkpt lat="43.47959" lon="6.57197">
        <ele>24.2</ele>
        <time>2025-02-26T13:31:26Z</time>
      </trkpt>
      <trkpt lat="43.4796" lon="6.57198">
        <ele>24.2</ele>
        <time>2025-02-26T13:31:27Z</time>
      </trkpt>
      <trkpt lat="43.47961" lon="6.57198">
        <ele>24.2</ele>
        <time>2025-02-26T13:31:28Z</time>
      </trkpt>
      <trkpt lat="43.47961" lon="6.57199">
        <ele>24.3</ele>
        <time>2025-02-26T13:31:29Z</time>
      </trkpt>
      <trkpt lat="43.47962" lon="6.572">
        <ele>24.4</ele>
        <time>2025-02-26T13:31:30Z</time>
      </trkpt>
      <trkpt lat="43.47963" lon="6.57201">
        <ele>24.5</ele>
        <time>2025-02-26T13:31:31Z</time>
      </trkpt>
      <trkpt lat="43.47963" lon="6.57202">
        <ele>24.6</ele>
        <time>2025-02-26T13:31:32Z</time>
      </trkpt>
      <trkpt lat="43.47964" lon="6.57202">
        <ele>24.6</ele>
        <time>2025-02-26T13:31:33Z</time>
      </trkpt>
      <trkpt lat="43.47964" lon="6.57202">
        <ele>24.7</ele>
        <time>2025-02-26T13:31:34Z</time>
      </trkpt>
      <trkpt lat="43.47965" lon="6.57202">
        <ele>24.7</ele>
        <time>2025-02-26T13:31:35Z</time>
      </trkpt>
      <trkpt lat="43.47966" lon="6.57202">
        <ele>24.9</ele>
        <time>2025-02-26T13:31:36Z</time>
      </trkpt>
      <trkpt lat="43.47967" lon="6.57203">
        <ele>24.8</ele>
        <time>2025-02-26T13:31:37Z</time>
      </trkpt>
      <trkpt lat="43.47968" lon="6.57203">
        <ele>24.9</ele>
        <time>2025-02-26T13:31:38Z</time>
      </trkpt>
      <trkpt lat="43.47969" lon="6.57204">
        <ele>24.9</ele>
        <time>2025-02-26T13:31:39Z</time>
      </trkpt>
      <trkpt lat="43.47969" lon="6.57204">
        <ele>24.8</ele>
        <time>2025-02-26T13:31:40Z</time>
      </trkpt>
      <trkpt lat="43.4797" lon="6.57204">
        <ele>24.8</ele>
        <time>2025-02-26T13:31:41Z</time>
      </trkpt>
      <trkpt lat="43.4797" lon="6.57205">
        <ele>24.8</ele>
        <time>2025-02-26T13:31:42Z</time>
      </trkpt>
      <trkpt lat="43.47972" lon="6.57205">
        <ele>24.9</ele>
        <time>2025-02-26T13:31:43Z</time>
      </trkpt>
      <trkpt lat="43.47973" lon="6.57206">
        <ele>24.9</ele>
        <time>2025-02-26T13:31:44Z</time>
      </trkpt>
      <trkpt lat="43.47973" lon="6.57207">
        <ele>24.9</ele>
        <time>2025-02-26T13:31:45Z</time>
      </trkpt>
      <trkpt lat="43.47974" lon="6.57207">
        <ele>24.9</ele>
        <time>2025-02-26T13:31:46Z</time>
      </trkpt>
      <trkpt lat="43.47975" lon="6.57207">
        <ele>24.9</ele>
        <time>2025-02-26T13:31:47Z</time>
      </trkpt>
      <trkpt lat="43.47975" lon="6.57207">
        <ele>24.9</ele>
        <time>2025-02-26T13:31:48Z</time>
      </trkpt>
      <trkpt lat="43.47976" lon="6.57208">
        <ele>24.9</ele>
        <time>2025-02-26T13:31:49Z</time>
      </trkpt>
      <trkpt lat="43.47977" lon="6.57208">
        <ele>24.9</ele>
        <time>2025-02-26T13:31:50Z</time>
      </trkpt>
      <trkpt lat="43.47977" lon="6.57209">
        <ele>24.8</ele>
        <time>2025-02-26T13:31:51Z</time>
      </trkpt>
      <trkpt lat="43.47978" lon="6.57209">
        <ele>24.8</ele>
        <time>2025-02-26T13:31:52Z</time>
      </trkpt>
      <trkpt lat="43.47978" lon="6.5721">
        <ele>24.8</ele>
        <time>2025-02-26T13:31:53Z</time>
      </trkpt>
      <trkpt lat="43.47979" lon="6.57211">
        <ele>24.8</ele>
        <time>2025-02-26T13:31:54Z</time>
      </trkpt>
      <trkpt lat="43.4798" lon="6.57213">
        <ele>24.9</ele>
        <time>2025-02-26T13:31:55Z</time>
      </trkpt>
      <trkpt lat="43.47981" lon="6.57214">
        <ele>24.9</ele>
        <time>2025-02-26T13:31:56Z</time>
      </trkpt>
      <trkpt lat="43.47981" lon="6.57215">
        <ele>24.9</ele>
        <time>2025-02-26T13:31:57Z</time>
      </trkpt>
      <trkpt lat="43.47982" lon="6.57216">
        <ele>25</ele>
        <time>2025-02-26T13:31:58Z</time>
      </trkpt>
      <trkpt lat="43.47983" lon="6.57216">
        <ele>25.1</ele>
        <time>2025-02-26T13:31:59Z</time>
      </trkpt>
      <trkpt lat="43.47984" lon="6.57218">
        <ele>25.1</ele>
        <time>2025-02-26T13:32:00Z</time>
      </trkpt>
      <trkpt lat="43.47985" lon="6.57219">
        <ele>25.1</ele>
        <time>2025-02-26T13:32:01Z</time>
      </trkpt>
      <trkpt lat="43.47985" lon="6.57221">
        <ele>25.1</ele>
        <time>2025-02-26T13:32:02Z</time>
      </trkpt>
      <trkpt lat="43.47987" lon="6.57221">
        <ele>25.1</ele>
        <time>2025-02-26T13:32:03Z</time>
      </trkpt>
      <trkpt lat="43.47988" lon="6.57222">
        <ele>25.2</ele>
        <time>2025-02-26T13:32:04Z</time>
      </trkpt>
      <trkpt lat="43.47989" lon="6.57223">
        <ele>25.2</ele>
        <time>2025-02-26T13:32:05Z</time>
      </trkpt>
      <trkpt lat="43.4799" lon="6.57223">
        <ele>25.2</ele>
        <time>2025-02-26T13:32:06Z</time>
      </trkpt>
      <trkpt lat="43.47991" lon="6.57224">
        <ele>25.3</ele>
        <time>2025-02-26T13:32:07Z</time>
      </trkpt>
      <trkpt lat="43.47992" lon="6.57225">
        <ele>25.4</ele>
        <time>2025-02-26T13:32:08Z</time>
      </trkpt>
      <trkpt lat="43.47993" lon="6.57225">
        <ele>25.5</ele>
        <time>2025-02-26T13:32:09Z</time>
      </trkpt>
      <trkpt lat="43.47993" lon="6.57225">
        <ele>25.5</ele>
        <time>2025-02-26T13:32:10Z</time>
      </trkpt>
      <trkpt lat="43.47994" lon="6.57226">
        <ele>25.6</ele>
        <time>2025-02-26T13:32:11Z</time>
      </trkpt>
      <trkpt lat="43.47995" lon="6.57227">
        <ele>25.7</ele>
        <time>2025-02-26T13:32:12Z</time>
      </trkpt>
      <trkpt lat="43.47996" lon="6.57228">
        <ele>25.7</ele>
        <time>2025-02-26T13:32:13Z</time>
      </trkpt>
      <trkpt lat="43.47997" lon="6.57229">
        <ele>25.8</ele>
        <time>2025-02-26T13:32:14Z</time>
      </trkpt>
      <trkpt lat="43.47998" lon="6.5723">
        <ele>25.9</ele>
        <time>2025-02-26T13:32:15Z</time>
      </trkpt>
      <trkpt lat="43.48" lon="6.5723">
        <ele>26</ele>
        <time>2025-02-26T13:32:16Z</time>
      </trkpt>
      <trkpt lat="43.48001" lon="6.57231">
        <ele>26</ele>
        <time>2025-02-26T13:32:17Z</time>
      </trkpt>
      <trkpt lat="43.48003" lon="6.57231">
        <ele>26</ele>
        <time>2025-02-26T13:32:18Z</time>
      </trkpt>
      <trkpt lat="43.48003" lon="6.57232">
        <ele>26</ele>
        <time>2025-02-26T13:32:19Z</time>
      </trkpt>
      <trkpt lat="43.48004" lon="6.57232">
        <ele>26</ele>
        <time>2025-02-26T13:32:20Z</time>
      </trkpt>
      <trkpt lat="43.48005" lon="6.57232">
        <ele>26</ele>
        <time>2025-02-26T13:32:21Z</time>
      </trkpt>
      <trkpt lat="43.48006" lon="6.57233">
        <ele>26</ele>
        <time>2025-02-26T13:32:22Z</time>
      </trkpt>
      <trkpt lat="43.48006" lon="6.57233">
        <ele>26</ele>
        <time>2025-02-26T13:32:23Z</time>
      </trkpt>
      <trkpt lat="43.48007" lon="6.57233">
        <ele>26.1</ele>
        <time>2025-02-26T13:32:24Z</time>
      </trkpt>
      <trkpt lat="43.48008" lon="6.57234">
        <ele>26.1</ele>
        <time>2025-02-26T13:32:25Z</time>
      </trkpt>
      <trkpt lat="43.48009" lon="6.57235">
        <ele>26.1</ele>
        <time>2025-02-26T13:32:26Z</time>
      </trkpt>
      <trkpt lat="43.4801" lon="6.57235">
        <ele>26</ele>
        <time>2025-02-26T13:32:27Z</time>
      </trkpt>
      <trkpt lat="43.4801" lon="6.57235">
        <ele>26</ele>
        <time>2025-02-26T13:32:28Z</time>
      </trkpt>
      <trkpt lat="43.48011" lon="6.57236">
        <ele>26</ele>
        <time>2025-02-26T13:32:29Z</time>
      </trkpt>
      <trkpt lat="43.48013" lon="6.57236">
        <ele>26.1</ele>
        <time>2025-02-26T13:32:30Z</time>
      </trkpt>
      <trkpt lat="43.48014" lon="6.57236">
        <ele>26.2</ele>
        <time>2025-02-26T13:32:31Z</time>
      </trkpt>
      <trkpt lat="43.48015" lon="6.57237">
        <ele>26.3</ele>
        <time>2025-02-26T13:32:32Z</time>
      </trkpt>
      <trkpt lat="43.48016" lon="6.57237">
        <ele>26.3</ele>
        <time>2025-02-26T13:32:33Z</time>
      </trkpt>
      <trkpt lat="43.48017" lon="6.57238">
        <ele>26.4</ele>
        <time>2025-02-26T13:32:34Z</time>
      </trkpt>
      <trkpt lat="43.48018" lon="6.57238">
        <ele>26.5</ele>
        <time>2025-02-26T13:32:35Z</time>
      </trkpt>
      <trkpt lat="43.48019" lon="6.57238">
        <ele>26.5</ele>
        <time>2025-02-26T13:32:36Z</time>
      </trkpt>
      <trkpt lat="43.4802" lon="6.57239">
        <ele>26.6</ele>
        <time>2025-02-26T13:32:37Z</time>
      </trkpt>
      <trkpt lat="43.48021" lon="6.57239">
        <ele>26.6</ele>
        <time>2025-02-26T13:32:38Z</time>
      </trkpt>
      <trkpt lat="43.48023" lon="6.57239">
        <ele>26.6</ele>
        <time>2025-02-26T13:32:39Z</time>
      </trkpt>
      <trkpt lat="43.48024" lon="6.5724">
        <ele>26.6</ele>
        <time>2025-02-26T13:32:40Z</time>
      </trkpt>
      <trkpt lat="43.48025" lon="6.57241">
        <ele>26.6</ele>
        <time>2025-02-26T13:32:41Z</time>
      </trkpt>
      <trkpt lat="43.48025" lon="6.57242">
        <ele>26.7</ele>
        <time>2025-02-26T13:32:42Z</time>
      </trkpt>
      <trkpt lat="43.48027" lon="6.57242">
        <ele>26.7</ele>
        <time>2025-02-26T13:32:43Z</time>
      </trkpt>
      <trkpt lat="43.48028" lon="6.57242">
        <ele>26.7</ele>
        <time>2025-02-26T13:32:44Z</time>
      </trkpt>
      <trkpt lat="43.48029" lon="6.57242">
        <ele>26.6</ele>
        <time>2025-02-26T13:32:45Z</time>
      </trkpt>
      <trkpt lat="43.4803" lon="6.57242">
        <ele>26.5</ele>
        <time>2025-02-26T13:32:46Z</time>
      </trkpt>
      <trkpt lat="43.48031" lon="6.57242">
        <ele>26.4</ele>
        <time>2025-02-26T13:32:47Z</time>
      </trkpt>
      <trkpt lat="43.48033" lon="6.57243">
        <ele>26.3</ele>
        <time>2025-02-26T13:32:48Z</time>
      </trkpt>
      <trkpt lat="43.48033" lon="6.57243">
        <ele>26.2</ele>
        <time>2025-02-26T13:32:49Z</time>
      </trkpt>
      <trkpt lat="43.48034" lon="6.57243">
        <ele>26.2</ele>
        <time>2025-02-26T13:32:50Z</time>
      </trkpt>
      <trkpt lat="43.48035" lon="6.57243">
        <ele>26.1</ele>
        <time>2025-02-26T13:32:51Z</time>
      </trkpt>
      <trkpt lat="43.48037" lon="6.57243">
        <ele>26.2</ele>
        <time>2025-02-26T13:32:52Z</time>
      </trkpt>
      <trkpt lat="43.48038" lon="6.57243">
        <ele>26.2</ele>
        <time>2025-02-26T13:32:53Z</time>
      </trkpt>
      <trkpt lat="43.48039" lon="6.57244">
        <ele>26.1</ele>
        <time>2025-02-26T13:32:54Z</time>
      </trkpt>
      <trkpt lat="43.4804" lon="6.57244">
        <ele>26.1</ele>
        <time>2025-02-26T13:32:55Z</time>
      </trkpt>
      <trkpt lat="43.48041" lon="6.57245">
        <ele>26.1</ele>
        <time>2025-02-26T13:32:56Z</time>
      </trkpt>
      <trkpt lat="43.48042" lon="6.57245">
        <ele>26.2</ele>
        <time>2025-02-26T13:32:57Z</time>
      </trkpt>
      <trkpt lat="43.48043" lon="6.57245">
        <ele>26.3</ele>
        <time>2025-02-26T13:32:58Z</time>
      </trkpt>
      <trkpt lat="43.48044" lon="6.57245">
        <ele>26.4</ele>
        <time>2025-02-26T13:32:59Z</time>
      </trkpt>
      <trkpt lat="43.48044" lon="6.57245">
        <ele>26.5</ele>
        <time>2025-02-26T13:33:00Z</time>
      </trkpt>
      <trkpt lat="43.48045" lon="6.57245">
        <ele>26.6</ele>
        <time>2025-02-26T13:33:01Z</time>
      </trkpt>
      <trkpt lat="43.48046" lon="6.57245">
        <ele>26.6</ele>
        <time>2025-02-26T13:33:02Z</time>
      </trkpt>
      <trkpt lat="43.48047" lon="6.57245">
        <ele>26.7</ele>
        <time>2025-02-26T13:33:03Z</time>
      </trkpt>
      <trkpt lat="43.48049" lon="6.57245">
        <ele>26.7</ele>
        <time>2025-02-26T13:33:04Z</time>
      </trkpt>
      <trkpt lat="43.4805" lon="6.57245">
        <ele>26.8</ele>
        <time>2025-02-26T13:33:05Z</time>
      </trkpt>
      <trkpt lat="43.48051" lon="6.57245">
        <ele>26.8</ele>
        <time>2025-02-26T13:33:06Z</time>
      </trkpt>
      <trkpt lat="43.48053" lon="6.57245">
        <ele>26.7</ele>
        <time>2025-02-26T13:33:07Z</time>
      </trkpt>
      <trkpt lat="43.48054" lon="6.57245">
        <ele>26.7</ele>
        <time>2025-02-26T13:33:08Z</time>
      </trkpt>
      <trkpt lat="43.48055" lon="6.57245">
        <ele>26.8</ele>
        <time>2025-02-26T13:33:09Z</time>
      </trkpt>
      <trkpt lat="43.48056" lon="6.57245">
        <ele>26.9</ele>
        <time>2025-02-26T13:33:10Z</time>
      </trkpt>
      <trkpt lat="43.48057" lon="6.57244">
        <ele>27</ele>
        <time>2025-02-26T13:33:11Z</time>
      </trkpt>
      <trkpt lat="43.48059" lon="6.57244">
        <ele>27</ele>
        <time>2025-02-26T13:33:12Z</time>
      </trkpt>
      <trkpt lat="43.4806" lon="6.57244">
        <ele>27.1</ele>
        <time>2025-02-26T13:33:13Z</time>
      </trkpt>
      <trkpt lat="43.48061" lon="6.57244">
        <ele>27.2</ele>
        <time>2025-02-26T13:33:14Z</time>
      </trkpt>
      <trkpt lat="43.48063" lon="6.57245">
        <ele>27.2</ele>
        <time>2025-02-26T13:33:15Z</time>
      </trkpt>
      <trkpt lat="43.48064" lon="6.57244">
        <ele>27.4</ele>
        <time>2025-02-26T13:33:16Z</time>
      </trkpt>
      <trkpt lat="43.48065" lon="6.57244">
        <ele>27.5</ele>
        <time>2025-02-26T13:33:17Z</time>
      </trkpt>
      <trkpt lat="43.48066" lon="6.57244">
        <ele>27.4</ele>
        <time>2025-02-26T13:33:18Z</time>
      </trkpt>
      <trkpt lat="43.48067" lon="6.57243">
        <ele>27.5</ele>
        <time>2025-02-26T13:33:19Z</time>
      </trkpt>
      <trkpt lat="43.48068" lon="6.57243">
        <ele>27.6</ele>
        <time>2025-02-26T13:33:20Z</time>
      </trkpt>
      <trkpt lat="43.48069" lon="6.57242">
        <ele>27.7</ele>
        <time>2025-02-26T13:33:21Z</time>
      </trkpt>
      <trkpt lat="43.48069" lon="6.57242">
        <ele>27.8</ele>
        <time>2025-02-26T13:33:22Z</time>
      </trkpt>
      <trkpt lat="43.4807" lon="6.57242">
        <ele>27.9</ele>
        <time>2025-02-26T13:33:23Z</time>
      </trkpt>
      <trkpt lat="43.48071" lon="6.57242">
        <ele>28</ele>
        <time>2025-02-26T13:33:24Z</time>
      </trkpt>
      <trkpt lat="43.48072" lon="6.57242">
        <ele>28.1</ele>
        <time>2025-02-26T13:33:25Z</time>
      </trkpt>
      <trkpt lat="43.48073" lon="6.57242">
        <ele>28.2</ele>
        <time>2025-02-26T13:33:26Z</time>
      </trkpt>
      <trkpt lat="43.48074" lon="6.57241">
        <ele>28.3</ele>
        <time>2025-02-26T13:33:27Z</time>
      </trkpt>
      <trkpt lat="43.48075" lon="6.57241">
        <ele>28.3</ele>
        <time>2025-02-26T13:33:28Z</time>
      </trkpt>
      <trkpt lat="43.48075" lon="6.57241">
        <ele>28.3</ele>
        <time>2025-02-26T13:33:29Z</time>
      </trkpt>
      <trkpt lat="43.48076" lon="6.5724">
        <ele>28.3</ele>
        <time>2025-02-26T13:33:30Z</time>
      </trkpt>
      <trkpt lat="43.48076" lon="6.5724">
        <ele>28.3</ele>
        <time>2025-02-26T13:33:31Z</time>
      </trkpt>
      <trkpt lat="43.48077" lon="6.5724">
        <ele>28.2</ele>
        <time>2025-02-26T13:33:32Z</time>
      </trkpt>
      <trkpt lat="43.48078" lon="6.57238">
        <ele>28.2</ele>
        <time>2025-02-26T13:33:33Z</time>
      </trkpt>
      <trkpt lat="43.48079" lon="6.57238">
        <ele>28.1</ele>
        <time>2025-02-26T13:33:34Z</time>
      </trkpt>
      <trkpt lat="43.48079" lon="6.57237">
        <ele>28.1</ele>
        <time>2025-02-26T13:33:35Z</time>
      </trkpt>
      <trkpt lat="43.4808" lon="6.57236">
        <ele>28</ele>
        <time>2025-02-26T13:33:36Z</time>
      </trkpt>
      <trkpt lat="43.4808" lon="6.57235">
        <ele>28</ele>
        <time>2025-02-26T13:33:37Z</time>
      </trkpt>
      <trkpt lat="43.48081" lon="6.57235">
        <ele>28</ele>
        <time>2025-02-26T13:33:38Z</time>
      </trkpt>
      <trkpt lat="43.48082" lon="6.57234">
        <ele>27.9</ele>
        <time>2025-02-26T13:33:39Z</time>
      </trkpt>
      <trkpt lat="43.48082" lon="6.57233">
        <ele>27.9</ele>
        <time>2025-02-26T13:33:40Z</time>
      </trkpt>
      <trkpt lat="43.48083" lon="6.57232">
        <ele>27.9</ele>
        <time>2025-02-26T13:33:41Z</time>
      </trkpt>
      <trkpt lat="43.48084" lon="6.57232">
        <ele>27.9</ele>
        <time>2025-02-26T13:33:42Z</time>
      </trkpt>
      <trkpt lat="43.48085" lon="6.57231">
        <ele>27.9</ele>
        <time>2025-02-26T13:33:43Z</time>
      </trkpt>
      <trkpt lat="43.48086" lon="6.57231">
        <ele>27.9</ele>
        <time>2025-02-26T13:33:44Z</time>
      </trkpt>
      <trkpt lat="43.48086" lon="6.5723">
        <ele>27.9</ele>
        <time>2025-02-26T13:33:45Z</time>
      </trkpt>
      <trkpt lat="43.48088" lon="6.57229">
        <ele>27.9</ele>
        <time>2025-02-26T13:33:46Z</time>
      </trkpt>
      <trkpt lat="43.48089" lon="6.57229">
        <ele>27.8</ele>
        <time>2025-02-26T13:33:47Z</time>
      </trkpt>
      <trkpt lat="43.4809" lon="6.57229">
        <ele>27.8</ele>
        <time>2025-02-26T13:33:48Z</time>
      </trkpt>
      <trkpt lat="43.48091" lon="6.57229">
        <ele>27.7</ele>
        <time>2025-02-26T13:33:49Z</time>
      </trkpt>
      <trkpt lat="43.48092" lon="6.57228">
        <ele>27.7</ele>
        <time>2025-02-26T13:33:50Z</time>
      </trkpt>
      <trkpt lat="43.48093" lon="6.57228">
        <ele>27.6</ele>
        <time>2025-02-26T13:33:51Z</time>
      </trkpt>
      <trkpt lat="43.48095" lon="6.57228">
        <ele>27.5</ele>
        <time>2025-02-26T13:33:52Z</time>
      </trkpt>
      <trkpt lat="43.48096" lon="6.57227">
        <ele>27.4</ele>
        <time>2025-02-26T13:33:53Z</time>
      </trkpt>
      <trkpt lat="43.48098" lon="6.57227">
        <ele>27.3</ele>
        <time>2025-02-26T13:33:54Z</time>
      </trkpt>
      <trkpt lat="43.48099" lon="6.57227">
        <ele>27.1</ele>
        <time>2025-02-26T13:33:55Z</time>
      </trkpt>
      <trkpt lat="43.48101" lon="6.57227">
        <ele>27</ele>
        <time>2025-02-26T13:33:56Z</time>
      </trkpt>
      <trkpt lat="43.48102" lon="6.57227">
        <ele>26.9</ele>
        <time>2025-02-26T13:33:57Z</time>
      </trkpt>
      <trkpt lat="43.48103" lon="6.57227">
        <ele>26.9</ele>
        <time>2025-02-26T13:33:58Z</time>
      </trkpt>
      <trkpt lat="43.48105" lon="6.57226">
        <ele>26.8</ele>
        <time>2025-02-26T13:33:59Z</time>
      </trkpt>
      <trkpt lat="43.48107" lon="6.57226">
        <ele>26.8</ele>
        <time>2025-02-26T13:34:00Z</time>
      </trkpt>
      <trkpt lat="43.48108" lon="6.57226">
        <ele>26.7</ele>
        <time>2025-02-26T13:34:01Z</time>
      </trkpt>
      <trkpt lat="43.48109" lon="6.57226">
        <ele>26.7</ele>
        <time>2025-02-26T13:34:02Z</time>
      </trkpt>
      <trkpt lat="43.4811" lon="6.57226">
        <ele>26.6</ele>
        <time>2025-02-26T13:34:03Z</time>
      </trkpt>
      <trkpt lat="43.48111" lon="6.57226">
        <ele>26.7</ele>
        <time>2025-02-26T13:34:04Z</time>
      </trkpt>
      <trkpt lat="43.48112" lon="6.57226">
        <ele>26.6</ele>
        <time>2025-02-26T13:34:05Z</time>
      </trkpt>
      <trkpt lat="43.48113" lon="6.57226">
        <ele>26.3</ele>
        <time>2025-02-26T13:34:06Z</time>
      </trkpt>
      <trkpt lat="43.48114" lon="6.57226">
        <ele>26.2</ele>
        <time>2025-02-26T13:34:07Z</time>
      </trkpt>
      <trkpt lat="43.48115" lon="6.57226">
        <ele>26</ele>
        <time>2025-02-26T13:34:08Z</time>
      </trkpt>
      <trkpt lat="43.48115" lon="6.57226">
        <ele>25.9</ele>
        <time>2025-02-26T13:34:09Z</time>
      </trkpt>
      <trkpt lat="43.48116" lon="6.57226">
        <ele>25.7</ele>
        <time>2025-02-26T13:34:10Z</time>
      </trkpt>
      <trkpt lat="43.48117" lon="6.57226">
        <ele>25.6</ele>
        <time>2025-02-26T13:34:11Z</time>
      </trkpt>
      <trkpt lat="43.48118" lon="6.57227">
        <ele>25.6</ele>
        <time>2025-02-26T13:34:12Z</time>
      </trkpt>
      <trkpt lat="43.48119" lon="6.57227">
        <ele>25.5</ele>
        <time>2025-02-26T13:34:13Z</time>
      </trkpt>
      <trkpt lat="43.4812" lon="6.57227">
        <ele>25.4</ele>
        <time>2025-02-26T13:34:14Z</time>
      </trkpt>
      <trkpt lat="43.48121" lon="6.57227">
        <ele>25.4</ele>
        <time>2025-02-26T13:34:15Z</time>
      </trkpt>
      <trkpt lat="43.48122" lon="6.57226">
        <ele>25.2</ele>
        <time>2025-02-26T13:34:16Z</time>
      </trkpt>
      <trkpt lat="43.48123" lon="6.57226">
        <ele>25.1</ele>
        <time>2025-02-26T13:34:17Z</time>
      </trkpt>
      <trkpt lat="43.48124" lon="6.57226">
        <ele>25</ele>
        <time>2025-02-26T13:34:18Z</time>
      </trkpt>
      <trkpt lat="43.48125" lon="6.57226">
        <ele>25</ele>
        <time>2025-02-26T13:34:19Z</time>
      </trkpt>
      <trkpt lat="43.48126" lon="6.57225">
        <ele>24.9</ele>
        <time>2025-02-26T13:34:20Z</time>
      </trkpt>
      <trkpt lat="43.48127" lon="6.57225">
        <ele>24.7</ele>
        <time>2025-02-26T13:34:21Z</time>
      </trkpt>
      <trkpt lat="43.48128" lon="6.57225">
        <ele>24.5</ele>
        <time>2025-02-26T13:34:22Z</time>
      </trkpt>
      <trkpt lat="43.4813" lon="6.57225">
        <ele>24.4</ele>
        <time>2025-02-26T13:34:23Z</time>
      </trkpt>
      <trkpt lat="43.48131" lon="6.57225">
        <ele>24.2</ele>
        <time>2025-02-26T13:34:24Z</time>
      </trkpt>
      <trkpt lat="43.48132" lon="6.57225">
        <ele>24.1</ele>
        <time>2025-02-26T13:34:25Z</time>
      </trkpt>
      <trkpt lat="43.48133" lon="6.57225">
        <ele>24</ele>
        <time>2025-02-26T13:34:26Z</time>
      </trkpt>
      <trkpt lat="43.48134" lon="6.57224">
        <ele>23.9</ele>
        <time>2025-02-26T13:34:27Z</time>
      </trkpt>
      <trkpt lat="43.48136" lon="6.57224">
        <ele>23.8</ele>
        <time>2025-02-26T13:34:28Z</time>
      </trkpt>
      <trkpt lat="43.48137" lon="6.57224">
        <ele>23.8</ele>
        <time>2025-02-26T13:34:29Z</time>
      </trkpt>
      <trkpt lat="43.48137" lon="6.57223">
        <ele>23.7</ele>
        <time>2025-02-26T13:34:30Z</time>
      </trkpt>
      <trkpt lat="43.48138" lon="6.57223">
        <ele>23.6</ele>
        <time>2025-02-26T13:34:31Z</time>
      </trkpt>
      <trkpt lat="43.48138" lon="6.57223">
        <ele>23.6</ele>
        <time>2025-02-26T13:34:32Z</time>
      </trkpt>
      <trkpt lat="43.48138" lon="6.57223">
        <ele>23.5</ele>
        <time>2025-02-26T13:34:33Z</time>
      </trkpt>
      <trkpt lat="43.48139" lon="6.57222">
        <ele>23.4</ele>
        <time>2025-02-26T13:34:34Z</time>
      </trkpt>
      <trkpt lat="43.4814" lon="6.57221">
        <ele>23.1</ele>
        <time>2025-02-26T13:34:35Z</time>
      </trkpt>
      <trkpt lat="43.4814" lon="6.57221">
        <ele>22.9</ele>
        <time>2025-02-26T13:34:36Z</time>
      </trkpt>
      <trkpt lat="43.48141" lon="6.5722">
        <ele>22.6</ele>
        <time>2025-02-26T13:34:37Z</time>
      </trkpt>
      <trkpt lat="43.48142" lon="6.5722">
        <ele>22.4</ele>
        <time>2025-02-26T13:34:38Z</time>
      </trkpt>
      <trkpt lat="43.48142" lon="6.57219">
        <ele>22.2</ele>
        <time>2025-02-26T13:34:39Z</time>
      </trkpt>
      <trkpt lat="43.48143" lon="6.57219">
        <ele>22.1</ele>
        <time>2025-02-26T13:34:40Z</time>
      </trkpt>
      <trkpt lat="43.48143" lon="6.57219">
        <ele>22.1</ele>
        <time>2025-02-26T13:34:41Z</time>
      </trkpt>
      <trkpt lat="43.48144" lon="6.57218">
        <ele>22.1</ele>
        <time>2025-02-26T13:34:42Z</time>
      </trkpt>
      <trkpt lat="43.48145" lon="6.57218">
        <ele>22.2</ele>
        <time>2025-02-26T13:34:43Z</time>
      </trkpt>
      <trkpt lat="43.48146" lon="6.57218">
        <ele>22.2</ele>
        <time>2025-02-26T13:34:44Z</time>
      </trkpt>
      <trkpt lat="43.48147" lon="6.57218">
        <ele>22.3</ele>
        <time>2025-02-26T13:34:45Z</time>
      </trkpt>
      <trkpt lat="43.48147" lon="6.57218">
        <ele>22.3</ele>
        <time>2025-02-26T13:34:46Z</time>
      </trkpt>
      <trkpt lat="43.48148" lon="6.57218">
        <ele>22.4</ele>
        <time>2025-02-26T13:34:47Z</time>
      </trkpt>
      <trkpt lat="43.48149" lon="6.57218">
        <ele>22.4</ele>
        <time>2025-02-26T13:34:48Z</time>
      </trkpt>
      <trkpt lat="43.4815" lon="6.57219">
        <ele>22.5</ele>
        <time>2025-02-26T13:34:49Z</time>
      </trkpt>
      <trkpt lat="43.48151" lon="6.5722">
        <ele>22.6</ele>
        <time>2025-02-26T13:34:50Z</time>
      </trkpt>
      <trkpt lat="43.48151" lon="6.57221">
        <ele>22.8</ele>
        <time>2025-02-26T13:34:51Z</time>
      </trkpt>
      <trkpt lat="43.48151" lon="6.57222">
        <ele>22.9</ele>
        <time>2025-02-26T13:34:52Z</time>
      </trkpt>
      <trkpt lat="43.48151" lon="6.57222">
        <ele>22.8</ele>
        <time>2025-02-26T13:34:53Z</time>
      </trkpt>
      <trkpt lat="43.48152" lon="6.57222">
        <ele>22.9</ele>
        <time>2025-02-26T13:34:54Z</time>
      </trkpt>
      <trkpt lat="43.48152" lon="6.57222">
        <ele>22.9</ele>
        <time>2025-02-26T13:34:55Z</time>
      </trkpt>
      <trkpt lat="43.48152" lon="6.57221">
        <ele>22.9</ele>
        <time>2025-02-26T13:34:56Z</time>
      </trkpt>
      <trkpt lat="43.48152" lon="6.57221">
        <ele>23</ele>
        <time>2025-02-26T13:34:57Z</time>
      </trkpt>
      <trkpt lat="43.48152" lon="6.57221">
        <ele>23</ele>
        <time>2025-02-26T13:34:58Z</time>
      </trkpt>
      <trkpt lat="43.48153" lon="6.57221">
        <ele>23.1</ele>
        <time>2025-02-26T13:34:59Z</time>
      </trkpt>
      <trkpt lat="43.48153" lon="6.57221">
        <ele>23.1</ele>
        <time>2025-02-26T13:35:00Z</time>
      </trkpt>
      <trkpt lat="43.48153" lon="6.5722">
        <ele>23.1</ele>
        <time>2025-02-26T13:35:01Z</time>
      </trkpt>
      <trkpt lat="43.48153" lon="6.5722">
        <ele>23.1</ele>
        <time>2025-02-26T13:35:02Z</time>
      </trkpt>
      <trkpt lat="43.48153" lon="6.5722">
        <ele>23.1</ele>
        <time>2025-02-26T13:35:03Z</time>
      </trkpt>
      <trkpt lat="43.48153" lon="6.5722">
        <ele>23</ele>
        <time>2025-02-26T13:35:04Z</time>
      </trkpt>
      <trkpt lat="43.48153" lon="6.57219">
        <ele>23</ele>
        <time>2025-02-26T13:35:05Z</time>
      </trkpt>
      <trkpt lat="43.48153" lon="6.57219">
        <ele>23.1</ele>
        <time>2025-02-26T13:35:06Z</time>
      </trkpt>
      <trkpt lat="43.48153" lon="6.57219">
        <ele>23.1</ele>
        <time>2025-02-26T13:35:07Z</time>
      </trkpt>
      <trkpt lat="43.48153" lon="6.57219">
        <ele>23.2</ele>
        <time>2025-02-26T13:35:08Z</time>
      </trkpt>
      <trkpt lat="43.48154" lon="6.57219">
        <ele>23.2</ele>
        <time>2025-02-26T13:35:09Z</time>
      </trkpt>
      <trkpt lat="43.48154" lon="6.57219">
        <ele>23.2</ele>
        <time>2025-02-26T13:35:10Z</time>
      </trkpt>
      <trkpt lat="43.48154" lon="6.57218">
        <ele>23.3</ele>
        <time>2025-02-26T13:35:11Z</time>
      </trkpt>
      <trkpt lat="43.48154" lon="6.57218">
        <ele>23.3</ele>
        <time>2025-02-26T13:35:12Z</time>
      </trkpt>
      <trkpt lat="43.48154" lon="6.57218">
        <ele>23.3</ele>
        <time>2025-02-26T13:35:13Z</time>
      </trkpt>
      <trkpt lat="43.48154" lon="6.57218">
        <ele>23.3</ele>
        <time>2025-02-26T13:35:14Z</time>
      </trkpt>
      <trkpt lat="43.48154" lon="6.57217">
        <ele>23.3</ele>
        <time>2025-02-26T13:35:15Z</time>
      </trkpt>
      <trkpt lat="43.48154" lon="6.57217">
        <ele>23.3</ele>
        <time>2025-02-26T13:35:16Z</time>
      </trkpt>
      <trkpt lat="43.48154" lon="6.57217">
        <ele>23.2</ele>
        <time>2025-02-26T13:35:17Z</time>
      </trkpt>
      <trkpt lat="43.48154" lon="6.57217">
        <ele>23.2</ele>
        <time>2025-02-26T13:35:18Z</time>
      </trkpt>
      <trkpt lat="43.48154" lon="6.57217">
        <ele>23.2</ele>
        <time>2025-02-26T13:35:19Z</time>
      </trkpt>
      <trkpt lat="43.48154" lon="6.57217">
        <ele>23.3</ele>
        <time>2025-02-26T13:35:20Z</time>
      </trkpt>
      <trkpt lat="43.48154" lon="6.57217">
        <ele>23.3</ele>
        <time>2025-02-26T13:35:21Z</time>
      </trkpt>
      <trkpt lat="43.48154" lon="6.57217">
        <ele>23.2</ele>
        <time>2025-02-26T13:35:22Z</time>
      </trkpt>
      <trkpt lat="43.48155" lon="6.57217">
        <ele>23.2</ele>
        <time>2025-02-26T13:35:23Z</time>
      </trkpt>
      <trkpt lat="43.48155" lon="6.57217">
        <ele>23.2</ele>
        <time>2025-02-26T13:35:24Z</time>
      </trkpt>
      <trkpt lat="43.48155" lon="6.57217">
        <ele>23.2</ele>
        <time>2025-02-26T13:35:25Z</time>
      </trkpt>
      <trkpt lat="43.48155" lon="6.57216">
        <ele>23.2</ele>
        <time>2025-02-26T13:35:26Z</time>
      </trkpt>
      <trkpt lat="43.48155" lon="6.57216">
        <ele>23.2</ele>
        <time>2025-02-26T13:35:27Z</time>
      </trkpt>
      <trkpt lat="43.48155" lon="6.57216">
        <ele>23.3</ele>
        <time>2025-02-26T13:35:28Z</time>
      </trkpt>
      <trkpt lat="43.48155" lon="6.57216">
        <ele>23.3</ele>
        <time>2025-02-26T13:35:29Z</time>
      </trkpt>
      <trkpt lat="43.48155" lon="6.57216">
        <ele>23.3</ele>
        <time>2025-02-26T13:35:30Z</time>
      </trkpt>
      <trkpt lat="43.48155" lon="6.57216">
        <ele>23.3</ele>
        <time>2025-02-26T13:35:31Z</time>
      </trkpt>
      <trkpt lat="43.48155" lon="6.57216">
        <ele>23.3</ele>
        <time>2025-02-26T13:35:32Z</time>
      </trkpt>
      <trkpt lat="43.48155" lon="6.57216">
        <ele>23.4</ele>
        <time>2025-02-26T13:35:33Z</time>
      </trkpt>
      <trkpt lat="43.48155" lon="6.57216">
        <ele>23.4</ele>
        <time>2025-02-26T13:35:34Z</time>
      </trkpt>
      <trkpt lat="43.48155" lon="6.57216">
        <ele>23.4</ele>
        <time>2025-02-26T13:35:35Z</time>
      </trkpt>
      <trkpt lat="43.48155" lon="6.57215">
        <ele>23.4</ele>
        <time>2025-02-26T13:35:36Z</time>
      </trkpt>
      <trkpt lat="43.48155" lon="6.57215">
        <ele>23.4</ele>
        <time>2025-02-26T13:35:37Z</time>
      </trkpt>
      <trkpt lat="43.48155" lon="6.57215">
        <ele>23.4</ele>
        <time>2025-02-26T13:35:38Z</time>
      </trkpt>
      <trkpt lat="43.48155" lon="6.57215">
        <ele>23.5</ele>
        <time>2025-02-26T13:35:39Z</time>
      </trkpt>
      <trkpt lat="43.48155" lon="6.57215">
        <ele>23.5</ele>
        <time>2025-02-26T13:35:40Z</time>
      </trkpt>
      <trkpt lat="43.48155" lon="6.57215">
        <ele>23.5</ele>
        <time>2025-02-26T13:35:41Z</time>
      </trkpt>
      <trkpt lat="43.48155" lon="6.57215">
        <ele>23.5</ele>
        <time>2025-02-26T13:35:42Z</time>
      </trkpt>
      <trkpt lat="43.48155" lon="6.57215">
        <ele>23.5</ele>
        <time>2025-02-26T13:35:43Z</time>
      </trkpt>
      <trkpt lat="43.48155" lon="6.57214">
        <ele>23.5</ele>
        <time>2025-02-26T13:35:44Z</time>
      </trkpt>
      <trkpt lat="43.48155" lon="6.57214">
        <ele>23.5</ele>
        <time>2025-02-26T13:35:45Z</time>
      </trkpt>
      <trkpt lat="43.48155" lon="6.57214">
        <ele>23.5</ele>
        <time>2025-02-26T13:35:46Z</time>
      </trkpt>
      <trkpt lat="43.48155" lon="6.57214">
        <ele>23.4</ele>
        <time>2025-02-26T13:35:47Z</time>
      </trkpt>
      <trkpt lat="43.48155" lon="6.57214">
        <ele>23.4</ele>
        <time>2025-02-26T13:35:48Z</time>
      </trkpt>
      <trkpt lat="43.48155" lon="6.57214">
        <ele>23.5</ele>
        <time>2025-02-26T13:35:49Z</time>
      </trkpt>
      <trkpt lat="43.48155" lon="6.57214">
        <ele>23.4</ele>
        <time>2025-02-26T13:35:50Z</time>
      </trkpt>
      <trkpt lat="43.48155" lon="6.57214">
        <ele>23.4</ele>
        <time>2025-02-26T13:35:51Z</time>
      </trkpt>
      <trkpt lat="43.48155" lon="6.57214">
        <ele>23.3</ele>
        <time>2025-02-26T13:35:52Z</time>
      </trkpt>
      <trkpt lat="43.48155" lon="6.57213">
        <ele>23.3</ele>
        <time>2025-02-26T13:35:53Z</time>
      </trkpt>
      <trkpt lat="43.48155" lon="6.57213">
        <ele>23.3</ele>
        <time>2025-02-26T13:35:54Z</time>
      </trkpt>
      <trkpt lat="43.48155" lon="6.57213">
        <ele>23.2</ele>
        <time>2025-02-26T13:35:55Z</time>
      </trkpt>
      <trkpt lat="43.48155" lon="6.57213">
        <ele>23.2</ele>
        <time>2025-02-26T13:35:56Z</time>
      </trkpt>
      <trkpt lat="43.48155" lon="6.57213">
        <ele>23.1</ele>
        <time>2025-02-26T13:35:57Z</time>
      </trkpt>
      <trkpt lat="43.48155" lon="6.57213">
        <ele>23.2</ele>
        <time>2025-02-26T13:35:58Z</time>
      </trkpt>
      <trkpt lat="43.48155" lon="6.57213">
        <ele>23.3</ele>
        <time>2025-02-26T13:35:59Z</time>
      </trkpt>
      <trkpt lat="43.48155" lon="6.57213">
        <ele>23.3</ele>
        <time>2025-02-26T13:36:00Z</time>
      </trkpt>
      <trkpt lat="43.48155" lon="6.57213">
        <ele>23.4</ele>
        <time>2025-02-26T13:36:01Z</time>
      </trkpt>
      <trkpt lat="43.48155" lon="6.57213">
        <ele>23.5</ele>
        <time>2025-02-26T13:36:02Z</time>
      </trkpt>
      <trkpt lat="43.48155" lon="6.57213">
        <ele>23.4</ele>
        <time>2025-02-26T13:36:03Z</time>
      </trkpt>
      <trkpt lat="43.48155" lon="6.57213">
        <ele>23.4</ele>
        <time>2025-02-26T13:36:04Z</time>
      </trkpt>
      <trkpt lat="43.48155" lon="6.57213">
        <ele>23.4</ele>
        <time>2025-02-26T13:36:05Z</time>
      </trkpt>
      <trkpt lat="43.48156" lon="6.57213">
        <ele>23.5</ele>
        <time>2025-02-26T13:36:06Z</time>
      </trkpt>
      <trkpt lat="43.48155" lon="6.57213">
        <ele>23.6</ele>
        <time>2025-02-26T13:36:07Z</time>
      </trkpt>
      <trkpt lat="43.48155" lon="6.57212">
        <ele>23.6</ele>
        <time>2025-02-26T13:36:08Z</time>
      </trkpt>
      <trkpt lat="43.48155" lon="6.57212">
        <ele>23.6</ele>
        <time>2025-02-26T13:36:09Z</time>
      </trkpt>
      <trkpt lat="43.48155" lon="6.57212">
        <ele>23.7</ele>
        <time>2025-02-26T13:36:10Z</time>
      </trkpt>
      <trkpt lat="43.48155" lon="6.57212">
        <ele>23.7</ele>
        <time>2025-02-26T13:36:11Z</time>
      </trkpt>
      <trkpt lat="43.48155" lon="6.57212">
        <ele>23.8</ele>
        <time>2025-02-26T13:36:12Z</time>
      </trkpt>
      <trkpt lat="43.48155" lon="6.57212">
        <ele>23.8</ele>
        <time>2025-02-26T13:36:13Z</time>
      </trkpt>
      <trkpt lat="43.48155" lon="6.57212">
        <ele>23.8</ele>
        <time>2025-02-26T13:36:14Z</time>
      </trkpt>
      <trkpt lat="43.48155" lon="6.57212">
        <ele>23.8</ele>
        <time>2025-02-26T13:36:15Z</time>
      </trkpt>
      <trkpt lat="43.48155" lon="6.57212">
        <ele>23.7</ele>
        <time>2025-02-26T13:36:16Z</time>
      </trkpt>
      <trkpt lat="43.48155" lon="6.57212">
        <ele>23.7</ele>
        <time>2025-02-26T13:36:17Z</time>
      </trkpt>
      <trkpt lat="43.48156" lon="6.57212">
        <ele>23.7</ele>
        <time>2025-02-26T13:36:18Z</time>
      </trkpt>
      <trkpt lat="43.48156" lon="6.57212">
        <ele>23.6</ele>
        <time>2025-02-26T13:36:19Z</time>
      </trkpt>
      <trkpt lat="43.48156" lon="6.57212">
        <ele>23.7</ele>
        <time>2025-02-26T13:36:20Z</time>
      </trkpt>
      <trkpt lat="43.48156" lon="6.57212">
        <ele>23.8</ele>
        <time>2025-02-26T13:36:21Z</time>
      </trkpt>
      <trkpt lat="43.48156" lon="6.57212">
        <ele>23.8</ele>
        <time>2025-02-26T13:36:22Z</time>
      </trkpt>
      <trkpt lat="43.48157" lon="6.57212">
        <ele>23.7</ele>
        <time>2025-02-26T13:36:23Z</time>
      </trkpt>
      <trkpt lat="43.48157" lon="6.57212">
        <ele>23.7</ele>
        <time>2025-02-26T13:36:24Z</time>
      </trkpt>
      <trkpt lat="43.48157" lon="6.57212">
        <ele>23.6</ele>
        <time>2025-02-26T13:36:25Z</time>
      </trkpt>
      <trkpt lat="43.48157" lon="6.57212">
        <ele>23.6</ele>
        <time>2025-02-26T13:36:26Z</time>
      </trkpt>
      <trkpt lat="43.48157" lon="6.57212">
        <ele>23.5</ele>
        <time>2025-02-26T13:36:27Z</time>
      </trkpt>
      <trkpt lat="43.48157" lon="6.57212">
        <ele>23.4</ele>
        <time>2025-02-26T13:36:28Z</time>
      </trkpt>
      <trkpt lat="43.48157" lon="6.57212">
        <ele>23.4</ele>
        <time>2025-02-26T13:36:29Z</time>
      </trkpt>
      <trkpt lat="43.48157" lon="6.57212">
        <ele>23.4</ele>
        <time>2025-02-26T13:36:30Z</time>
      </trkpt>
      <trkpt lat="43.48157" lon="6.57212">
        <ele>23.4</ele>
        <time>2025-02-26T13:36:31Z</time>
      </trkpt>
      <trkpt lat="43.48157" lon="6.57212">
        <ele>23.4</ele>
        <time>2025-02-26T13:36:32Z</time>
      </trkpt>
      <trkpt lat="43.48157" lon="6.57212">
        <ele>23.5</ele>
        <time>2025-02-26T13:36:33Z</time>
      </trkpt>
      <trkpt lat="43.48157" lon="6.57212">
        <ele>23.5</ele>
        <time>2025-02-26T13:36:34Z</time>
      </trkpt>
      <trkpt lat="43.48157" lon="6.57212">
        <ele>23.6</ele>
        <time>2025-02-26T13:36:35Z</time>
      </trkpt>
      <trkpt lat="43.48157" lon="6.57212">
        <ele>23.5</ele>
        <time>2025-02-26T13:36:36Z</time>
      </trkpt>
      <trkpt lat="43.48157" lon="6.57213">
        <ele>23.5</ele>
        <time>2025-02-26T13:36:37Z</time>
      </trkpt>
      <trkpt lat="43.48157" lon="6.57212">
        <ele>23.5</ele>
        <time>2025-02-26T13:36:38Z</time>
      </trkpt>
      <trkpt lat="43.48157" lon="6.57212">
        <ele>23.5</ele>
        <time>2025-02-26T13:36:39Z</time>
      </trkpt>
      <trkpt lat="43.48157" lon="6.57212">
        <ele>23.4</ele>
        <time>2025-02-26T13:36:40Z</time>
      </trkpt>
      <trkpt lat="43.48157" lon="6.57212">
        <ele>23.4</ele>
        <time>2025-02-26T13:36:41Z</time>
      </trkpt>
      <trkpt lat="43.48157" lon="6.57212">
        <ele>23.4</ele>
        <time>2025-02-26T13:36:42Z</time>
      </trkpt>
      <trkpt lat="43.48158" lon="6.57213">
        <ele>23.4</ele>
        <time>2025-02-26T13:36:43Z</time>
      </trkpt>
      <trkpt lat="43.48158" lon="6.57212">
        <ele>23.2</ele>
        <time>2025-02-26T13:36:44Z</time>
      </trkpt>
      <trkpt lat="43.48158" lon="6.57212">
        <ele>23.1</ele>
        <time>2025-02-26T13:36:45Z</time>
      </trkpt>
      <trkpt lat="43.48158" lon="6.57212">
        <ele>23.1</ele>
        <time>2025-02-26T13:36:46Z</time>
      </trkpt>
      <trkpt lat="43.48158" lon="6.57212">
        <ele>23.1</ele>
        <time>2025-02-26T13:36:47Z</time>
      </trkpt>
      <trkpt lat="43.48158" lon="6.57212">
        <ele>23.1</ele>
        <time>2025-02-26T13:36:48Z</time>
      </trkpt>
      <trkpt lat="43.48158" lon="6.57212">
        <ele>23.2</ele>
        <time>2025-02-26T13:36:49Z</time>
      </trkpt>
      <trkpt lat="43.48158" lon="6.57212">
        <ele>23.2</ele>
        <time>2025-02-26T13:36:50Z</time>
      </trkpt>
      <trkpt lat="43.48157" lon="6.57213">
        <ele>23.3</ele>
        <time>2025-02-26T13:36:51Z</time>
      </trkpt>
      <trkpt lat="43.48157" lon="6.57214">
        <ele>23.3</ele>
        <time>2025-02-26T13:36:52Z</time>
      </trkpt>
      <trkpt lat="43.48158" lon="6.57214">
        <ele>23.3</ele>
        <time>2025-02-26T13:36:53Z</time>
      </trkpt>
      <trkpt lat="43.48158" lon="6.57214">
        <ele>23.3</ele>
        <time>2025-02-26T13:36:54Z</time>
      </trkpt>
      <trkpt lat="43.48158" lon="6.57214">
        <ele>23.3</ele>
        <time>2025-02-26T13:36:55Z</time>
      </trkpt>
      <trkpt lat="43.48159" lon="6.57214">
        <ele>23.3</ele>
        <time>2025-02-26T13:36:56Z</time>
      </trkpt>
      <trkpt lat="43.48159" lon="6.57214">
        <ele>23.3</ele>
        <time>2025-02-26T13:36:57Z</time>
      </trkpt>
      <trkpt lat="43.48159" lon="6.57214">
        <ele>23.4</ele>
        <time>2025-02-26T13:36:58Z</time>
      </trkpt>
      <trkpt lat="43.48159" lon="6.57214">
        <ele>23.4</ele>
        <time>2025-02-26T13:36:59Z</time>
      </trkpt>
      <trkpt lat="43.4816" lon="6.57215">
        <ele>23.4</ele>
        <time>2025-02-26T13:37:00Z</time>
      </trkpt>
      <trkpt lat="43.4816" lon="6.57215">
        <ele>23.5</ele>
        <time>2025-02-26T13:37:01Z</time>
      </trkpt>
      <trkpt lat="43.48161" lon="6.57216">
        <ele>23.5</ele>
        <time>2025-02-26T13:37:02Z</time>
      </trkpt>
      <trkpt lat="43.48161" lon="6.57218">
        <ele>23.5</ele>
        <time>2025-02-26T13:37:03Z</time>
      </trkpt>
      <trkpt lat="43.48162" lon="6.57219">
        <ele>23.6</ele>
        <time>2025-02-26T13:37:04Z</time>
      </trkpt>
      <trkpt lat="43.48163" lon="6.5722">
        <ele>23.6</ele>
        <time>2025-02-26T13:37:05Z</time>
      </trkpt>
      <trkpt lat="43.48163" lon="6.5722">
        <ele>23.8</ele>
        <time>2025-02-26T13:37:06Z</time>
      </trkpt>
      <trkpt lat="43.48164" lon="6.5722">
        <ele>24</ele>
        <time>2025-02-26T13:37:07Z</time>
      </trkpt>
      <trkpt lat="43.48164" lon="6.57221">
        <ele>24.1</ele>
        <time>2025-02-26T13:37:08Z</time>
      </trkpt>
      <trkpt lat="43.48166" lon="6.57222">
        <ele>24.3</ele>
        <time>2025-02-26T13:37:09Z</time>
      </trkpt>
      <trkpt lat="43.48166" lon="6.57223">
        <ele>24.5</ele>
        <time>2025-02-26T13:37:10Z</time>
      </trkpt>
      <trkpt lat="43.48167" lon="6.57223">
        <ele>24.7</ele>
        <time>2025-02-26T13:37:11Z</time>
      </trkpt>
      <trkpt lat="43.48168" lon="6.57223">
        <ele>24.9</ele>
        <time>2025-02-26T13:37:12Z</time>
      </trkpt>
      <trkpt lat="43.48168" lon="6.57223">
        <ele>25.1</ele>
        <time>2025-02-26T13:37:13Z</time>
      </trkpt>
      <trkpt lat="43.48169" lon="6.57223">
        <ele>25.3</ele>
        <time>2025-02-26T13:37:14Z</time>
      </trkpt>
      <trkpt lat="43.4817" lon="6.57223">
        <ele>25.5</ele>
        <time>2025-02-26T13:37:15Z</time>
      </trkpt>
      <trkpt lat="43.48171" lon="6.57223">
        <ele>25.7</ele>
        <time>2025-02-26T13:37:16Z</time>
      </trkpt>
      <trkpt lat="43.48171" lon="6.57224">
        <ele>25.9</ele>
        <time>2025-02-26T13:37:17Z</time>
      </trkpt>
      <trkpt lat="43.48172" lon="6.57224">
        <ele>26.1</ele>
        <time>2025-02-26T13:37:18Z</time>
      </trkpt>
      <trkpt lat="43.48173" lon="6.57224">
        <ele>26.3</ele>
        <time>2025-02-26T13:37:19Z</time>
      </trkpt>
      <trkpt lat="43.48174" lon="6.57224">
        <ele>26.6</ele>
        <time>2025-02-26T13:37:20Z</time>
      </trkpt>
      <trkpt lat="43.48175" lon="6.57223">
        <ele>26.8</ele>
        <time>2025-02-26T13:37:21Z</time>
      </trkpt>
      <trkpt lat="43.48176" lon="6.57223">
        <ele>27</ele>
        <time>2025-02-26T13:37:22Z</time>
      </trkpt>
      <trkpt lat="43.48176" lon="6.57224">
        <ele>27.2</ele>
        <time>2025-02-26T13:37:23Z</time>
      </trkpt>
      <trkpt lat="43.48177" lon="6.57224">
        <ele>27.5</ele>
        <time>2025-02-26T13:37:24Z</time>
      </trkpt>
      <trkpt lat="43.48178" lon="6.57224">
        <ele>27.8</ele>
        <time>2025-02-26T13:37:25Z</time>
      </trkpt>
      <trkpt lat="43.48178" lon="6.57224">
        <ele>28</ele>
        <time>2025-02-26T13:37:26Z</time>
      </trkpt>
      <trkpt lat="43.48179" lon="6.57224">
        <ele>28.2</ele>
        <time>2025-02-26T13:37:27Z</time>
      </trkpt>
      <trkpt lat="43.4818" lon="6.57224">
        <ele>28.4</ele>
        <time>2025-02-26T13:37:28Z</time>
      </trkpt>
      <trkpt lat="43.48181" lon="6.57224">
        <ele>28.5</ele>
        <time>2025-02-26T13:37:29Z</time>
      </trkpt>
      <trkpt lat="43.48182" lon="6.57224">
        <ele>28.7</ele>
        <time>2025-02-26T13:37:30Z</time>
      </trkpt>
      <trkpt lat="43.48184" lon="6.57223">
        <ele>28.8</ele>
        <time>2025-02-26T13:37:31Z</time>
      </trkpt>
      <trkpt lat="43.48184" lon="6.57223">
        <ele>29</ele>
        <time>2025-02-26T13:37:32Z</time>
      </trkpt>
      <trkpt lat="43.48185" lon="6.57223">
        <ele>29.1</ele>
        <time>2025-02-26T13:37:33Z</time>
      </trkpt>
      <trkpt lat="43.48186" lon="6.57223">
        <ele>29.3</ele>
        <time>2025-02-26T13:37:34Z</time>
      </trkpt>
      <trkpt lat="43.48187" lon="6.57223">
        <ele>29.5</ele>
        <time>2025-02-26T13:37:35Z</time>
      </trkpt>
      <trkpt lat="43.48188" lon="6.57223">
        <ele>29.7</ele>
        <time>2025-02-26T13:37:36Z</time>
      </trkpt>
      <trkpt lat="43.48189" lon="6.57223">
        <ele>29.9</ele>
        <time>2025-02-26T13:37:37Z</time>
      </trkpt>
      <trkpt lat="43.48189" lon="6.57224">
        <ele>30.1</ele>
        <time>2025-02-26T13:37:38Z</time>
      </trkpt>
      <trkpt lat="43.4819" lon="6.57223">
        <ele>30.1</ele>
        <time>2025-02-26T13:37:39Z</time>
      </trkpt>
      <trkpt lat="43.4819" lon="6.57223">
        <ele>30.2</ele>
        <time>2025-02-26T13:37:40Z</time>
      </trkpt>
      <trkpt lat="43.48191" lon="6.57224">
        <ele>30.3</ele>
        <time>2025-02-26T13:37:41Z</time>
      </trkpt>
      <trkpt lat="43.48191" lon="6.57224">
        <ele>30.5</ele>
        <time>2025-02-26T13:37:42Z</time>
      </trkpt>
      <trkpt lat="43.48192" lon="6.57224">
        <ele>30.6</ele>
        <time>2025-02-26T13:37:43Z</time>
      </trkpt>
      <trkpt lat="43.48192" lon="6.57224">
        <ele>30.6</ele>
        <time>2025-02-26T13:37:44Z</time>
      </trkpt>
      <trkpt lat="43.48193" lon="6.57225">
        <ele>30.7</ele>
        <time>2025-02-26T13:37:45Z</time>
      </trkpt>
      <trkpt lat="43.48194" lon="6.57225">
        <ele>30.9</ele>
        <time>2025-02-26T13:37:46Z</time>
      </trkpt>
      <trkpt lat="43.48195" lon="6.57225">
        <ele>31</ele>
        <time>2025-02-26T13:37:47Z</time>
      </trkpt>
      <trkpt lat="43.48195" lon="6.57225">
        <ele>31.1</ele>
        <time>2025-02-26T13:37:48Z</time>
      </trkpt>
      <trkpt lat="43.48196" lon="6.57225">
        <ele>31.2</ele>
        <time>2025-02-26T13:37:49Z</time>
      </trkpt>
      <trkpt lat="43.48197" lon="6.57225">
        <ele>31.4</ele>
        <time>2025-02-26T13:37:50Z</time>
      </trkpt>
      <trkpt lat="43.48198" lon="6.57226">
        <ele>31.5</ele>
        <time>2025-02-26T13:37:51Z</time>
      </trkpt>
      <trkpt lat="43.48199" lon="6.57226">
        <ele>31.7</ele>
        <time>2025-02-26T13:37:52Z</time>
      </trkpt>
      <trkpt lat="43.48199" lon="6.57226">
        <ele>31.8</ele>
        <time>2025-02-26T13:37:53Z</time>
      </trkpt>
      <trkpt lat="43.482" lon="6.57227">
        <ele>32</ele>
        <time>2025-02-26T13:37:54Z</time>
      </trkpt>
      <trkpt lat="43.48201" lon="6.57227">
        <ele>32.2</ele>
        <time>2025-02-26T13:37:55Z</time>
      </trkpt>
      <trkpt lat="43.48202" lon="6.57227">
        <ele>32.3</ele>
        <time>2025-02-26T13:37:56Z</time>
      </trkpt>
      <trkpt lat="43.48203" lon="6.57228">
        <ele>32.4</ele>
        <time>2025-02-26T13:37:57Z</time>
      </trkpt>
      <trkpt lat="43.48203" lon="6.57228">
        <ele>32.5</ele>
        <time>2025-02-26T13:37:58Z</time>
      </trkpt>
      <trkpt lat="43.48204" lon="6.57228">
        <ele>32.7</ele>
        <time>2025-02-26T13:37:59Z</time>
      </trkpt>
      <trkpt lat="43.48205" lon="6.57229">
        <ele>32.8</ele>
        <time>2025-02-26T13:38:00Z</time>
      </trkpt>
      <trkpt lat="43.48206" lon="6.5723">
        <ele>32.9</ele>
        <time>2025-02-26T13:38:01Z</time>
      </trkpt>
      <trkpt lat="43.48207" lon="6.5723">
        <ele>33</ele>
        <time>2025-02-26T13:38:02Z</time>
      </trkpt>
      <trkpt lat="43.48208" lon="6.57231">
        <ele>33.1</ele>
        <time>2025-02-26T13:38:03Z</time>
      </trkpt>
      <trkpt lat="43.48208" lon="6.57231">
        <ele>33.2</ele>
        <time>2025-02-26T13:38:04Z</time>
      </trkpt>
      <trkpt lat="43.48209" lon="6.57232">
        <ele>33.2</ele>
        <time>2025-02-26T13:38:05Z</time>
      </trkpt>
      <trkpt lat="43.4821" lon="6.57233">
        <ele>33.4</ele>
        <time>2025-02-26T13:38:06Z</time>
      </trkpt>
      <trkpt lat="43.4821" lon="6.57234">
        <ele>33.6</ele>
        <time>2025-02-26T13:38:07Z</time>
      </trkpt>
      <trkpt lat="43.48211" lon="6.57235">
        <ele>33.7</ele>
        <time>2025-02-26T13:38:08Z</time>
      </trkpt>
      <trkpt lat="43.48211" lon="6.57236">
        <ele>33.7</ele>
        <time>2025-02-26T13:38:09Z</time>
      </trkpt>
      <trkpt lat="43.48212" lon="6.57237">
        <ele>33.8</ele>
        <time>2025-02-26T13:38:10Z</time>
      </trkpt>
      <trkpt lat="43.48213" lon="6.57238">
        <ele>33.8</ele>
        <time>2025-02-26T13:38:11Z</time>
      </trkpt>
      <trkpt lat="43.48213" lon="6.57239">
        <ele>34</ele>
        <time>2025-02-26T13:38:12Z</time>
      </trkpt>
      <trkpt lat="43.48214" lon="6.57239">
        <ele>34.2</ele>
        <time>2025-02-26T13:38:13Z</time>
      </trkpt>
      <trkpt lat="43.48214" lon="6.5724">
        <ele>34.4</ele>
        <time>2025-02-26T13:38:14Z</time>
      </trkpt>
      <trkpt lat="43.48215" lon="6.5724">
        <ele>34.6</ele>
        <time>2025-02-26T13:38:15Z</time>
      </trkpt>
      <trkpt lat="43.48216" lon="6.57241">
        <ele>34.8</ele>
        <time>2025-02-26T13:38:16Z</time>
      </trkpt>
      <trkpt lat="43.48217" lon="6.57241">
        <ele>35</ele>
        <time>2025-02-26T13:38:17Z</time>
      </trkpt>
      <trkpt lat="43.48217" lon="6.57242">
        <ele>35.2</ele>
        <time>2025-02-26T13:38:18Z</time>
      </trkpt>
      <trkpt lat="43.48217" lon="6.57242">
        <ele>35.4</ele>
        <time>2025-02-26T13:38:19Z</time>
      </trkpt>
      <trkpt lat="43.48217" lon="6.57243">
        <ele>35.6</ele>
        <time>2025-02-26T13:38:20Z</time>
      </trkpt>
      <trkpt lat="43.48218" lon="6.57244">
        <ele>35.8</ele>
        <time>2025-02-26T13:38:21Z</time>
      </trkpt>
      <trkpt lat="43.48218" lon="6.57245">
        <ele>35.7</ele>
        <time>2025-02-26T13:38:22Z</time>
      </trkpt>
      <trkpt lat="43.48218" lon="6.57246">
        <ele>36</ele>
        <time>2025-02-26T13:38:23Z</time>
      </trkpt>
      <trkpt lat="43.48219" lon="6.57247">
        <ele>36.2</ele>
        <time>2025-02-26T13:38:24Z</time>
      </trkpt>
      <trkpt lat="43.4822" lon="6.57247">
        <ele>36.2</ele>
        <time>2025-02-26T13:38:25Z</time>
      </trkpt>
      <trkpt lat="43.4822" lon="6.57248">
        <ele>36.3</ele>
        <time>2025-02-26T13:38:26Z</time>
      </trkpt>
      <trkpt lat="43.48221" lon="6.57248">
        <ele>36.4</ele>
        <time>2025-02-26T13:38:27Z</time>
      </trkpt>
      <trkpt lat="43.48222" lon="6.57248">
        <ele>36.4</ele>
        <time>2025-02-26T13:38:28Z</time>
      </trkpt>
      <trkpt lat="43.48222" lon="6.57248">
        <ele>36.5</ele>
        <time>2025-02-26T13:38:29Z</time>
      </trkpt>
      <trkpt lat="43.48224" lon="6.57248">
        <ele>36.5</ele>
        <time>2025-02-26T13:38:30Z</time>
      </trkpt>
      <trkpt lat="43.48225" lon="6.57249">
        <ele>36.5</ele>
        <time>2025-02-26T13:38:31Z</time>
      </trkpt>
      <trkpt lat="43.48226" lon="6.57249">
        <ele>36.5</ele>
        <time>2025-02-26T13:38:32Z</time>
      </trkpt>
      <trkpt lat="43.48226" lon="6.57249">
        <ele>36.5</ele>
        <time>2025-02-26T13:38:33Z</time>
      </trkpt>
      <trkpt lat="43.48227" lon="6.5725">
        <ele>36.5</ele>
        <time>2025-02-26T13:38:34Z</time>
      </trkpt>
      <trkpt lat="43.48227" lon="6.5725">
        <ele>36.5</ele>
        <time>2025-02-26T13:38:35Z</time>
      </trkpt>
      <trkpt lat="43.48228" lon="6.57249">
        <ele>36.5</ele>
        <time>2025-02-26T13:38:36Z</time>
      </trkpt>
      <trkpt lat="43.48229" lon="6.57249">
        <ele>36.6</ele>
        <time>2025-02-26T13:38:37Z</time>
      </trkpt>
      <trkpt lat="43.4823" lon="6.57249">
        <ele>36.4</ele>
        <time>2025-02-26T13:38:38Z</time>
      </trkpt>
      <trkpt lat="43.48231" lon="6.57249">
        <ele>36.3</ele>
        <time>2025-02-26T13:38:39Z</time>
      </trkpt>
      <trkpt lat="43.48232" lon="6.57249">
        <ele>36.3</ele>
        <time>2025-02-26T13:38:40Z</time>
      </trkpt>
      <trkpt lat="43.48233" lon="6.57248">
        <ele>36.2</ele>
        <time>2025-02-26T13:38:41Z</time>
      </trkpt>
      <trkpt lat="43.48234" lon="6.57248">
        <ele>36.2</ele>
        <time>2025-02-26T13:38:42Z</time>
      </trkpt>
      <trkpt lat="43.48235" lon="6.57248">
        <ele>36.1</ele>
        <time>2025-02-26T13:38:43Z</time>
      </trkpt>
      <trkpt lat="43.48236" lon="6.57247">
        <ele>36.1</ele>
        <time>2025-02-26T13:38:44Z</time>
      </trkpt>
      <trkpt lat="43.48237" lon="6.57247">
        <ele>36.1</ele>
        <time>2025-02-26T13:38:45Z</time>
      </trkpt>
      <trkpt lat="43.48238" lon="6.57246">
        <ele>36.2</ele>
        <time>2025-02-26T13:38:46Z</time>
      </trkpt>
      <trkpt lat="43.48238" lon="6.57245">
        <ele>36.2</ele>
        <time>2025-02-26T13:38:47Z</time>
      </trkpt>
      <trkpt lat="43.48239" lon="6.57245">
        <ele>36.1</ele>
        <time>2025-02-26T13:38:48Z</time>
      </trkpt>
      <trkpt lat="43.48239" lon="6.57244">
        <ele>36.1</ele>
        <time>2025-02-26T13:38:49Z</time>
      </trkpt>
      <trkpt lat="43.4824" lon="6.57244">
        <ele>36.1</ele>
        <time>2025-02-26T13:38:50Z</time>
      </trkpt>
      <trkpt lat="43.4824" lon="6.57244">
        <ele>36</ele>
        <time>2025-02-26T13:38:51Z</time>
      </trkpt>
      <trkpt lat="43.48241" lon="6.57244">
        <ele>36.1</ele>
        <time>2025-02-26T13:38:52Z</time>
      </trkpt>
      <trkpt lat="43.48242" lon="6.57244">
        <ele>35.9</ele>
        <time>2025-02-26T13:38:53Z</time>
      </trkpt>
      <trkpt lat="43.48242" lon="6.57244">
        <ele>35.9</ele>
        <time>2025-02-26T13:38:54Z</time>
      </trkpt>
      <trkpt lat="43.48243" lon="6.57245">
        <ele>35.9</ele>
        <time>2025-02-26T13:38:55Z</time>
      </trkpt>
      <trkpt lat="43.48243" lon="6.57244">
        <ele>35.9</ele>
        <time>2025-02-26T13:38:56Z</time>
      </trkpt>
      <trkpt lat="43.48244" lon="6.57243">
        <ele>35.7</ele>
        <time>2025-02-26T13:38:57Z</time>
      </trkpt>
      <trkpt lat="43.48244" lon="6.57243">
        <ele>35.6</ele>
        <time>2025-02-26T13:38:58Z</time>
      </trkpt>
      <trkpt lat="43.48244" lon="6.57243">
        <ele>35.5</ele>
        <time>2025-02-26T13:38:59Z</time>
      </trkpt>
      <trkpt lat="43.48245" lon="6.57243">
        <ele>35.4</ele>
        <time>2025-02-26T13:39:00Z</time>
      </trkpt>
      <trkpt lat="43.48245" lon="6.57243">
        <ele>35.4</ele>
        <time>2025-02-26T13:39:01Z</time>
      </trkpt>
      <trkpt lat="43.48246" lon="6.57242">
        <ele>35.4</ele>
        <time>2025-02-26T13:39:02Z</time>
      </trkpt>
      <trkpt lat="43.48246" lon="6.57242">
        <ele>35.5</ele>
        <time>2025-02-26T13:39:03Z</time>
      </trkpt>
      <trkpt lat="43.48247" lon="6.57241">
        <ele>35.5</ele>
        <time>2025-02-26T13:39:04Z</time>
      </trkpt>
      <trkpt lat="43.48247" lon="6.57241">
        <ele>35.6</ele>
        <time>2025-02-26T13:39:05Z</time>
      </trkpt>
      <trkpt lat="43.48248" lon="6.5724">
        <ele>35.6</ele>
        <time>2025-02-26T13:39:06Z</time>
      </trkpt>
      <trkpt lat="43.48248" lon="6.5724">
        <ele>35.7</ele>
        <time>2025-02-26T13:39:07Z</time>
      </trkpt>
      <trkpt lat="43.48248" lon="6.57239">
        <ele>35.8</ele>
        <time>2025-02-26T13:39:08Z</time>
      </trkpt>
      <trkpt lat="43.48249" lon="6.57239">
        <ele>35.8</ele>
        <time>2025-02-26T13:39:09Z</time>
      </trkpt>
      <trkpt lat="43.48249" lon="6.57239">
        <ele>35.8</ele>
        <time>2025-02-26T13:39:10Z</time>
      </trkpt>
      <trkpt lat="43.48249" lon="6.57239">
        <ele>35.8</ele>
        <time>2025-02-26T13:39:11Z</time>
      </trkpt>
      <trkpt lat="43.48249" lon="6.57238">
        <ele>35.8</ele>
        <time>2025-02-26T13:39:12Z</time>
      </trkpt>
      <trkpt lat="43.48249" lon="6.57238">
        <ele>35.7</ele>
        <time>2025-02-26T13:39:13Z</time>
      </trkpt>
      <trkpt lat="43.4825" lon="6.57238">
        <ele>35.7</ele>
        <time>2025-02-26T13:39:14Z</time>
      </trkpt>
      <trkpt lat="43.4825" lon="6.57237">
        <ele>35.8</ele>
        <time>2025-02-26T13:39:15Z</time>
      </trkpt>
      <trkpt lat="43.48251" lon="6.57237">
        <ele>35.8</ele>
        <time>2025-02-26T13:39:16Z</time>
      </trkpt>
      <trkpt lat="43.48251" lon="6.57236">
        <ele>35.8</ele>
        <time>2025-02-26T13:39:17Z</time>
      </trkpt>
      <trkpt lat="43.48252" lon="6.57235">
        <ele>35.9</ele>
        <time>2025-02-26T13:39:18Z</time>
      </trkpt>
      <trkpt lat="43.48252" lon="6.57234">
        <ele>36</ele>
        <time>2025-02-26T13:39:19Z</time>
      </trkpt>
      <trkpt lat="43.48253" lon="6.57233">
        <ele>36.2</ele>
        <time>2025-02-26T13:39:20Z</time>
      </trkpt>
      <trkpt lat="43.48252" lon="6.57233">
        <ele>36.3</ele>
        <time>2025-02-26T13:39:21Z</time>
      </trkpt>
      <trkpt lat="43.48252" lon="6.57233">
        <ele>36.4</ele>
        <time>2025-02-26T13:39:22Z</time>
      </trkpt>
      <trkpt lat="43.48253" lon="6.57232">
        <ele>36.4</ele>
        <time>2025-02-26T13:39:23Z</time>
      </trkpt>
      <trkpt lat="43.48253" lon="6.57232">
        <ele>36.5</ele>
        <time>2025-02-26T13:39:24Z</time>
      </trkpt>
      <trkpt lat="43.48254" lon="6.57231">
        <ele>36.6</ele>
        <time>2025-02-26T13:39:25Z</time>
      </trkpt>
      <trkpt lat="43.48254" lon="6.57231">
        <ele>36.6</ele>
        <time>2025-02-26T13:39:26Z</time>
      </trkpt>
      <trkpt lat="43.48255" lon="6.5723">
        <ele>36.7</ele>
        <time>2025-02-26T13:39:27Z</time>
      </trkpt>
      <trkpt lat="43.48255" lon="6.5723">
        <ele>36.7</ele>
        <time>2025-02-26T13:39:28Z</time>
      </trkpt>
      <trkpt lat="43.48255" lon="6.57229">
        <ele>36.7</ele>
        <time>2025-02-26T13:39:29Z</time>
      </trkpt>
      <trkpt lat="43.48255" lon="6.57229">
        <ele>36.8</ele>
        <time>2025-02-26T13:39:30Z</time>
      </trkpt>
      <trkpt lat="43.48255" lon="6.57229">
        <ele>36.8</ele>
        <time>2025-02-26T13:39:31Z</time>
      </trkpt>
      <trkpt lat="43.48255" lon="6.57229">
        <ele>36.9</ele>
        <time>2025-02-26T13:39:32Z</time>
      </trkpt>
      <trkpt lat="43.48255" lon="6.57229">
        <ele>36.9</ele>
        <time>2025-02-26T13:39:33Z</time>
      </trkpt>
      <trkpt lat="43.48255" lon="6.57229">
        <ele>36.9</ele>
        <time>2025-02-26T13:39:34Z</time>
      </trkpt>
      <trkpt lat="43.48255" lon="6.57229">
        <ele>37</ele>
        <time>2025-02-26T13:39:35Z</time>
      </trkpt>
      <trkpt lat="43.48255" lon="6.57229">
        <ele>36.9</ele>
        <time>2025-02-26T13:39:36Z</time>
      </trkpt>
      <trkpt lat="43.48255" lon="6.57229">
        <ele>36.9</ele>
        <time>2025-02-26T13:39:37Z</time>
      </trkpt>
      <trkpt lat="43.48254" lon="6.57228">
        <ele>36.8</ele>
        <time>2025-02-26T13:39:38Z</time>
      </trkpt>
      <trkpt lat="43.48254" lon="6.57228">
        <ele>36.8</ele>
        <time>2025-02-26T13:39:39Z</time>
      </trkpt>
      <trkpt lat="43.48254" lon="6.57228">
        <ele>36.9</ele>
        <time>2025-02-26T13:39:40Z</time>
      </trkpt>
      <trkpt lat="43.48254" lon="6.57228">
        <ele>36.9</ele>
        <time>2025-02-26T13:39:41Z</time>
      </trkpt>
      <trkpt lat="43.48254" lon="6.57228">
        <ele>36.9</ele>
        <time>2025-02-26T13:39:42Z</time>
      </trkpt>
      <trkpt lat="43.48254" lon="6.57227">
        <ele>36.9</ele>
        <time>2025-02-26T13:39:43Z</time>
      </trkpt>
      <trkpt lat="43.48254" lon="6.57227">
        <ele>36.9</ele>
        <time>2025-02-26T13:39:44Z</time>
      </trkpt>
      <trkpt lat="43.48254" lon="6.57228">
        <ele>36.9</ele>
        <time>2025-02-26T13:39:45Z</time>
      </trkpt>
      <trkpt lat="43.48254" lon="6.57228">
        <ele>36.9</ele>
        <time>2025-02-26T13:39:46Z</time>
      </trkpt>
      <trkpt lat="43.48254" lon="6.57228">
        <ele>36.9</ele>
        <time>2025-02-26T13:39:47Z</time>
      </trkpt>
      <trkpt lat="43.48254" lon="6.57227">
        <ele>36.9</ele>
        <time>2025-02-26T13:39:48Z</time>
      </trkpt>
      <trkpt lat="43.48254" lon="6.57227">
        <ele>36.8</ele>
        <time>2025-02-26T13:39:49Z</time>
      </trkpt>
      <trkpt lat="43.48254" lon="6.57227">
        <ele>36.8</ele>
        <time>2025-02-26T13:39:50Z</time>
      </trkpt>
      <trkpt lat="43.48254" lon="6.57227">
        <ele>36.8</ele>
        <time>2025-02-26T13:39:51Z</time>
      </trkpt>
      <trkpt lat="43.48254" lon="6.57227">
        <ele>36.8</ele>
        <time>2025-02-26T13:39:52Z</time>
      </trkpt>
      <trkpt lat="43.48254" lon="6.57227">
        <ele>36.8</ele>
        <time>2025-02-26T13:39:53Z</time>
      </trkpt>
      <trkpt lat="43.48254" lon="6.57226">
        <ele>36.9</ele>
        <time>2025-02-26T13:39:54Z</time>
      </trkpt>
      <trkpt lat="43.48254" lon="6.57226">
        <ele>36.9</ele>
        <time>2025-02-26T13:39:55Z</time>
      </trkpt>
      <trkpt lat="43.48254" lon="6.57226">
        <ele>37</ele>
        <time>2025-02-26T13:39:56Z</time>
      </trkpt>
      <trkpt lat="43.48254" lon="6.57226">
        <ele>37</ele>
        <time>2025-02-26T13:39:57Z</time>
      </trkpt>
      <trkpt lat="43.48254" lon="6.57226">
        <ele>37</ele>
        <time>2025-02-26T13:39:58Z</time>
      </trkpt>
      <trkpt lat="43.48254" lon="6.57226">
        <ele>37.1</ele>
        <time>2025-02-26T13:39:59Z</time>
      </trkpt>
      <trkpt lat="43.48254" lon="6.57226">
        <ele>37.1</ele>
        <time>2025-02-26T13:40:00Z</time>
      </trkpt>
      <trkpt lat="43.48254" lon="6.57226">
        <ele>37.1</ele>
        <time>2025-02-26T13:40:01Z</time>
      </trkpt>
      <trkpt lat="43.48254" lon="6.57226">
        <ele>37.2</ele>
        <time>2025-02-26T13:40:02Z</time>
      </trkpt>
      <trkpt lat="43.48254" lon="6.57226">
        <ele>37.2</ele>
        <time>2025-02-26T13:40:03Z</time>
      </trkpt>
      <trkpt lat="43.48254" lon="6.57226">
        <ele>37.2</ele>
        <time>2025-02-26T13:40:04Z</time>
      </trkpt>
      <trkpt lat="43.48254" lon="6.57226">
        <ele>37.2</ele>
        <time>2025-02-26T13:40:05Z</time>
      </trkpt>
      <trkpt lat="43.48254" lon="6.57226">
        <ele>37.2</ele>
        <time>2025-02-26T13:40:06Z</time>
      </trkpt>
      <trkpt lat="43.48254" lon="6.57226">
        <ele>37.1</ele>
        <time>2025-02-26T13:40:07Z</time>
      </trkpt>
      <trkpt lat="43.48254" lon="6.57225">
        <ele>37.1</ele>
        <time>2025-02-26T13:40:08Z</time>
      </trkpt>
      <trkpt lat="43.48254" lon="6.57226">
        <ele>37.1</ele>
        <time>2025-02-26T13:40:09Z</time>
      </trkpt>
      <trkpt lat="43.48254" lon="6.57226">
        <ele>37.1</ele>
        <time>2025-02-26T13:40:10Z</time>
      </trkpt>
      <trkpt lat="43.48254" lon="6.57226">
        <ele>37.1</ele>
        <time>2025-02-26T13:40:11Z</time>
      </trkpt>
      <trkpt lat="43.48254" lon="6.57226">
        <ele>37.1</ele>
        <time>2025-02-26T13:40:12Z</time>
      </trkpt>
      <trkpt lat="43.48254" lon="6.57225">
        <ele>37.1</ele>
        <time>2025-02-26T13:40:13Z</time>
      </trkpt>
      <trkpt lat="43.48254" lon="6.57225">
        <ele>37.1</ele>
        <time>2025-02-26T13:40:14Z</time>
      </trkpt>
      <trkpt lat="43.48254" lon="6.57225">
        <ele>37</ele>
        <time>2025-02-26T13:40:15Z</time>
      </trkpt>
      <trkpt lat="43.48254" lon="6.57225">
        <ele>37</ele>
        <time>2025-02-26T13:40:16Z</time>
      </trkpt>
      <trkpt lat="43.48254" lon="6.57225">
        <ele>37</ele>
        <time>2025-02-26T13:40:17Z</time>
      </trkpt>
      <trkpt lat="43.48254" lon="6.57225">
        <ele>37.1</ele>
        <time>2025-02-26T13:40:18Z</time>
      </trkpt>
      <trkpt lat="43.48254" lon="6.57225">
        <ele>37.1</ele>
        <time>2025-02-26T13:40:19Z</time>
      </trkpt>
      <trkpt lat="43.48254" lon="6.57225">
        <ele>37.2</ele>
        <time>2025-02-26T13:40:20Z</time>
      </trkpt>
      <trkpt lat="43.48254" lon="6.57225">
        <ele>37.2</ele>
        <time>2025-02-26T13:40:21Z</time>
      </trkpt>
      <trkpt lat="43.48254" lon="6.57225">
        <ele>37.1</ele>
        <time>2025-02-26T13:40:22Z</time>
      </trkpt>
      <trkpt lat="43.48254" lon="6.57225">
        <ele>37.2</ele>
        <time>2025-02-26T13:40:23Z</time>
      </trkpt>
      <trkpt lat="43.48254" lon="6.57225">
        <ele>37.1</ele>
        <time>2025-02-26T13:40:24Z</time>
      </trkpt>
      <trkpt lat="43.48254" lon="6.57225">
        <ele>37.2</ele>
        <time>2025-02-26T13:40:25Z</time>
      </trkpt>
      <trkpt lat="43.48254" lon="6.57225">
        <ele>37.1</ele>
        <time>2025-02-26T13:40:26Z</time>
      </trkpt>
      <trkpt lat="43.48254" lon="6.57225">
        <ele>37.2</ele>
        <time>2025-02-26T13:40:27Z</time>
      </trkpt>
      <trkpt lat="43.48254" lon="6.57225">
        <ele>37.2</ele>
        <time>2025-02-26T13:40:28Z</time>
      </trkpt>
      <trkpt lat="43.48255" lon="6.57225">
        <ele>37.2</ele>
        <time>2025-02-26T13:40:29Z</time>
      </trkpt>
      <trkpt lat="43.48254" lon="6.57225">
        <ele>37.3</ele>
        <time>2025-02-26T13:40:30Z</time>
      </trkpt>
      <trkpt lat="43.48255" lon="6.57225">
        <ele>37.2</ele>
        <time>2025-02-26T13:40:31Z</time>
      </trkpt>
      <trkpt lat="43.48255" lon="6.57225">
        <ele>37.1</ele>
        <time>2025-02-26T13:40:32Z</time>
      </trkpt>
      <trkpt lat="43.48255" lon="6.57225">
        <ele>37.2</ele>
        <time>2025-02-26T13:40:33Z</time>
      </trkpt>
      <trkpt lat="43.48255" lon="6.57225">
        <ele>37.2</ele>
        <time>2025-02-26T13:40:34Z</time>
      </trkpt>
      <trkpt lat="43.48255" lon="6.57225">
        <ele>37.2</ele>
        <time>2025-02-26T13:40:35Z</time>
      </trkpt>
      <trkpt lat="43.48255" lon="6.57225">
        <ele>37.2</ele>
        <time>2025-02-26T13:40:36Z</time>
      </trkpt>
      <trkpt lat="43.48254" lon="6.57225">
        <ele>37.1</ele>
        <time>2025-02-26T13:40:37Z</time>
      </trkpt>
      <trkpt lat="43.48254" lon="6.57225">
        <ele>37.1</ele>
        <time>2025-02-26T13:40:38Z</time>
      </trkpt>
      <trkpt lat="43.48255" lon="6.57225">
        <ele>37.1</ele>
        <time>2025-02-26T13:40:39Z</time>
      </trkpt>
      <trkpt lat="43.48255" lon="6.57225">
        <ele>37.2</ele>
        <time>2025-02-26T13:40:40Z</time>
      </trkpt>
      <trkpt lat="43.48255" lon="6.57225">
        <ele>37.2</ele>
        <time>2025-02-26T13:40:41Z</time>
      </trkpt>
      <trkpt lat="43.48255" lon="6.57225">
        <ele>37.2</ele>
        <time>2025-02-26T13:40:42Z</time>
      </trkpt>
      <trkpt lat="43.48255" lon="6.57225">
        <ele>37.2</ele>
        <time>2025-02-26T13:40:43Z</time>
      </trkpt>
      <trkpt lat="43.48255" lon="6.57225">
        <ele>37.1</ele>
        <time>2025-02-26T13:40:44Z</time>
      </trkpt>
      <trkpt lat="43.48255" lon="6.57225">
        <ele>37.1</ele>
        <time>2025-02-26T13:40:45Z</time>
      </trkpt>
      <trkpt lat="43.48255" lon="6.57225">
        <ele>37.1</ele>
        <time>2025-02-26T13:40:46Z</time>
      </trkpt>
      <trkpt lat="43.48255" lon="6.57225">
        <ele>37.2</ele>
        <time>2025-02-26T13:40:47Z</time>
      </trkpt>
      <trkpt lat="43.48255" lon="6.57225">
        <ele>37.1</ele>
        <time>2025-02-26T13:40:48Z</time>
      </trkpt>
      <trkpt lat="43.48255" lon="6.57225">
        <ele>37.1</ele>
        <time>2025-02-26T13:40:49Z</time>
      </trkpt>
      <trkpt lat="43.48255" lon="6.57225">
        <ele>37.1</ele>
        <time>2025-02-26T13:40:50Z</time>
      </trkpt>
      <trkpt lat="43.48255" lon="6.57225">
        <ele>37</ele>
        <time>2025-02-26T13:40:51Z</time>
      </trkpt>
      <trkpt lat="43.48255" lon="6.57225">
        <ele>37</ele>
        <time>2025-02-26T13:40:52Z</time>
      </trkpt>
      <trkpt lat="43.48255" lon="6.57224">
        <ele>37</ele>
        <time>2025-02-26T13:40:53Z</time>
      </trkpt>
      <trkpt lat="43.48255" lon="6.57225">
        <ele>37</ele>
        <time>2025-02-26T13:40:54Z</time>
      </trkpt>
      <trkpt lat="43.48255" lon="6.57225">
        <ele>37</ele>
        <time>2025-02-26T13:40:55Z</time>
      </trkpt>
      <trkpt lat="43.48255" lon="6.57224">
        <ele>37</ele>
        <time>2025-02-26T13:40:56Z</time>
      </trkpt>
      <trkpt lat="43.48255" lon="6.57225">
        <ele>37</ele>
        <time>2025-02-26T13:40:57Z</time>
      </trkpt>
      <trkpt lat="43.48255" lon="6.57225">
        <ele>37</ele>
        <time>2025-02-26T13:40:58Z</time>
      </trkpt>
      <trkpt lat="43.48255" lon="6.57225">
        <ele>36.9</ele>
        <time>2025-02-26T13:40:59Z</time>
      </trkpt>
      <trkpt lat="43.48255" lon="6.57225">
        <ele>36.9</ele>
        <time>2025-02-26T13:41:00Z</time>
      </trkpt>
      <trkpt lat="43.48255" lon="6.57225">
        <ele>36.9</ele>
        <time>2025-02-26T13:41:01Z</time>
      </trkpt>
      <trkpt lat="43.48255" lon="6.57224">
        <ele>36.8</ele>
        <time>2025-02-26T13:41:02Z</time>
      </trkpt>
      <trkpt lat="43.48255" lon="6.57224">
        <ele>36.8</ele>
        <time>2025-02-26T13:41:03Z</time>
      </trkpt>
      <trkpt lat="43.48255" lon="6.57224">
        <ele>36.8</ele>
        <time>2025-02-26T13:41:04Z</time>
      </trkpt>
      <trkpt lat="43.48255" lon="6.57224">
        <ele>36.8</ele>
        <time>2025-02-26T13:41:05Z</time>
      </trkpt>
      <trkpt lat="43.48255" lon="6.57224">
        <ele>36.8</ele>
        <time>2025-02-26T13:41:06Z</time>
      </trkpt>
      <trkpt lat="43.48255" lon="6.57223">
        <ele>36.8</ele>
        <time>2025-02-26T13:41:07Z</time>
      </trkpt>
      <trkpt lat="43.48255" lon="6.57223">
        <ele>36.7</ele>
        <time>2025-02-26T13:41:08Z</time>
      </trkpt>
      <trkpt lat="43.48255" lon="6.57223">
        <ele>36.8</ele>
        <time>2025-02-26T13:41:09Z</time>
      </trkpt>
      <trkpt lat="43.48255" lon="6.57223">
        <ele>36.8</ele>
        <time>2025-02-26T13:41:10Z</time>
      </trkpt>
      <trkpt lat="43.48255" lon="6.57223">
        <ele>36.8</ele>
        <time>2025-02-26T13:41:11Z</time>
      </trkpt>
      <trkpt lat="43.48255" lon="6.57223">
        <ele>36.9</ele>
        <time>2025-02-26T13:41:12Z</time>
      </trkpt>
      <trkpt lat="43.48256" lon="6.57223">
        <ele>36.8</ele>
        <time>2025-02-26T13:41:13Z</time>
      </trkpt>
      <trkpt lat="43.48256" lon="6.57223">
        <ele>36.8</ele>
        <time>2025-02-26T13:41:14Z</time>
      </trkpt>
      <trkpt lat="43.48256" lon="6.57223">
        <ele>36.8</ele>
        <time>2025-02-26T13:41:15Z</time>
      </trkpt>
      <trkpt lat="43.48256" lon="6.57223">
        <ele>36.9</ele>
        <time>2025-02-26T13:41:16Z</time>
      </trkpt>
      <trkpt lat="43.48256" lon="6.57223">
        <ele>36.9</ele>
        <time>2025-02-26T13:41:17Z</time>
      </trkpt>
      <trkpt lat="43.48256" lon="6.57223">
        <ele>36.9</ele>
        <time>2025-02-26T13:41:18Z</time>
      </trkpt>
      <trkpt lat="43.48256" lon="6.57223">
        <ele>37</ele>
        <time>2025-02-26T13:41:19Z</time>
      </trkpt>
      <trkpt lat="43.48256" lon="6.57223">
        <ele>37</ele>
        <time>2025-02-26T13:41:20Z</time>
      </trkpt>
      <trkpt lat="43.48256" lon="6.57223">
        <ele>37</ele>
        <time>2025-02-26T13:41:21Z</time>
      </trkpt>
      <trkpt lat="43.48256" lon="6.57223">
        <ele>36.9</ele>
        <time>2025-02-26T13:41:22Z</time>
      </trkpt>
      <trkpt lat="43.48256" lon="6.57223">
        <ele>37</ele>
        <time>2025-02-26T13:41:23Z</time>
      </trkpt>
      <trkpt lat="43.48256" lon="6.57223">
        <ele>37.1</ele>
        <time>2025-02-26T13:41:24Z</time>
      </trkpt>
      <trkpt lat="43.48256" lon="6.57224">
        <ele>37.1</ele>
        <time>2025-02-26T13:41:25Z</time>
      </trkpt>
      <trkpt lat="43.48256" lon="6.57224">
        <ele>37.1</ele>
        <time>2025-02-26T13:41:26Z</time>
      </trkpt>
      <trkpt lat="43.48256" lon="6.57224">
        <ele>37.1</ele>
        <time>2025-02-26T13:41:27Z</time>
      </trkpt>
      <trkpt lat="43.48256" lon="6.57224">
        <ele>37.1</ele>
        <time>2025-02-26T13:41:28Z</time>
      </trkpt>
      <trkpt lat="43.48256" lon="6.57224">
        <ele>37</ele>
        <time>2025-02-26T13:41:29Z</time>
      </trkpt>
      <trkpt lat="43.48256" lon="6.57224">
        <ele>37</ele>
        <time>2025-02-26T13:41:30Z</time>
      </trkpt>
      <trkpt lat="43.48256" lon="6.57224">
        <ele>37</ele>
        <time>2025-02-26T13:41:31Z</time>
      </trkpt>
      <trkpt lat="43.48256" lon="6.57224">
        <ele>37</ele>
        <time>2025-02-26T13:41:32Z</time>
      </trkpt>
      <trkpt lat="43.48256" lon="6.57224">
        <ele>37</ele>
        <time>2025-02-26T13:41:33Z</time>
      </trkpt>
      <trkpt lat="43.48256" lon="6.57224">
        <ele>37</ele>
        <time>2025-02-26T13:41:34Z</time>
      </trkpt>
      <trkpt lat="43.48256" lon="6.57224">
        <ele>37</ele>
        <time>2025-02-26T13:41:35Z</time>
      </trkpt>
      <trkpt lat="43.48256" lon="6.57224">
        <ele>37.1</ele>
        <time>2025-02-26T13:41:36Z</time>
      </trkpt>
      <trkpt lat="43.48256" lon="6.57224">
        <ele>37.1</ele>
        <time>2025-02-26T13:41:37Z</time>
      </trkpt>
      <trkpt lat="43.48256" lon="6.57224">
        <ele>37.1</ele>
        <time>2025-02-26T13:41:38Z</time>
      </trkpt>
      <trkpt lat="43.48256" lon="6.57224">
        <ele>37.1</ele>
        <time>2025-02-26T13:41:39Z</time>
      </trkpt>
      <trkpt lat="43.48256" lon="6.57224">
        <ele>37.1</ele>
        <time>2025-02-26T13:41:40Z</time>
      </trkpt>
      <trkpt lat="43.48257" lon="6.57224">
        <ele>37.1</ele>
        <time>2025-02-26T13:41:41Z</time>
      </trkpt>
      <trkpt lat="43.48256" lon="6.57224">
        <ele>37</ele>
        <time>2025-02-26T13:41:42Z</time>
      </trkpt>
      <trkpt lat="43.48256" lon="6.57224">
        <ele>37</ele>
        <time>2025-02-26T13:41:43Z</time>
      </trkpt>
      <trkpt lat="43.48256" lon="6.57224">
        <ele>37</ele>
        <time>2025-02-26T13:41:44Z</time>
      </trkpt>
      <trkpt lat="43.48257" lon="6.57224">
        <ele>37</ele>
        <time>2025-02-26T13:41:45Z</time>
      </trkpt>
      <trkpt lat="43.48257" lon="6.57224">
        <ele>37</ele>
        <time>2025-02-26T13:41:46Z</time>
      </trkpt>
      <trkpt lat="43.48256" lon="6.57224">
        <ele>37</ele>
        <time>2025-02-26T13:41:47Z</time>
      </trkpt>
      <trkpt lat="43.48257" lon="6.57224">
        <ele>37</ele>
        <time>2025-02-26T13:41:48Z</time>
      </trkpt>
      <trkpt lat="43.48257" lon="6.57224">
        <ele>37</ele>
        <time>2025-02-26T13:41:49Z</time>
      </trkpt>
      <trkpt lat="43.48257" lon="6.57224">
        <ele>37</ele>
        <time>2025-02-26T13:41:50Z</time>
      </trkpt>
      <trkpt lat="43.48257" lon="6.57224">
        <ele>37</ele>
        <time>2025-02-26T13:41:51Z</time>
      </trkpt>
      <trkpt lat="43.48257" lon="6.57224">
        <ele>37.1</ele>
        <time>2025-02-26T13:41:52Z</time>
      </trkpt>
      <trkpt lat="43.48257" lon="6.57224">
        <ele>37.1</ele>
        <time>2025-02-26T13:41:53Z</time>
      </trkpt>
      <trkpt lat="43.48257" lon="6.57224">
        <ele>37.2</ele>
        <time>2025-02-26T13:41:54Z</time>
      </trkpt>
      <trkpt lat="43.48257" lon="6.57224">
        <ele>37.2</ele>
        <time>2025-02-26T13:41:55Z</time>
      </trkpt>
      <trkpt lat="43.48257" lon="6.57224">
        <ele>37.2</ele>
        <time>2025-02-26T13:41:56Z</time>
      </trkpt>
      <trkpt lat="43.48257" lon="6.57224">
        <ele>37.2</ele>
        <time>2025-02-26T13:41:57Z</time>
      </trkpt>
      <trkpt lat="43.48257" lon="6.57224">
        <ele>37.2</ele>
        <time>2025-02-26T13:41:58Z</time>
      </trkpt>
      <trkpt lat="43.48257" lon="6.57224">
        <ele>37.2</ele>
        <time>2025-02-26T13:41:59Z</time>
      </trkpt>
      <trkpt lat="43.48257" lon="6.57224">
        <ele>37.2</ele>
        <time>2025-02-26T13:42:00Z</time>
      </trkpt>
      <trkpt lat="43.48257" lon="6.57224">
        <ele>37.2</ele>
        <time>2025-02-26T13:42:01Z</time>
      </trkpt>
      <trkpt lat="43.48257" lon="6.57224">
        <ele>37.2</ele>
        <time>2025-02-26T13:42:02Z</time>
      </trkpt>
      <trkpt lat="43.48258" lon="6.57224">
        <ele>37.2</ele>
        <time>2025-02-26T13:42:03Z</time>
      </trkpt>
      <trkpt lat="43.48258" lon="6.57224">
        <ele>37.1</ele>
        <time>2025-02-26T13:42:04Z</time>
      </trkpt>
      <trkpt lat="43.48258" lon="6.57223">
        <ele>37.1</ele>
        <time>2025-02-26T13:42:05Z</time>
      </trkpt>
      <trkpt lat="43.48259" lon="6.57223">
        <ele>37.1</ele>
        <time>2025-02-26T13:42:06Z</time>
      </trkpt>
      <trkpt lat="43.48259" lon="6.57223">
        <ele>37</ele>
        <time>2025-02-26T13:42:07Z</time>
      </trkpt>
      <trkpt lat="43.48259" lon="6.57223">
        <ele>37</ele>
        <time>2025-02-26T13:42:08Z</time>
      </trkpt>
      <trkpt lat="43.48259" lon="6.57223">
        <ele>37</ele>
        <time>2025-02-26T13:42:09Z</time>
      </trkpt>
      <trkpt lat="43.48259" lon="6.57223">
        <ele>37</ele>
        <time>2025-02-26T13:42:10Z</time>
      </trkpt>
      <trkpt lat="43.48259" lon="6.57223">
        <ele>37.1</ele>
        <time>2025-02-26T13:42:11Z</time>
      </trkpt>
      <trkpt lat="43.48259" lon="6.57223">
        <ele>37.1</ele>
        <time>2025-02-26T13:42:12Z</time>
      </trkpt>
      <trkpt lat="43.48259" lon="6.57222">
        <ele>37.2</ele>
        <time>2025-02-26T13:42:13Z</time>
      </trkpt>
      <trkpt lat="43.48259" lon="6.57222">
        <ele>37.2</ele>
        <time>2025-02-26T13:42:14Z</time>
      </trkpt>
      <trkpt lat="43.48259" lon="6.57222">
        <ele>37.2</ele>
        <time>2025-02-26T13:42:15Z</time>
      </trkpt>
      <trkpt lat="43.4826" lon="6.57223">
        <ele>37.2</ele>
        <time>2025-02-26T13:42:16Z</time>
      </trkpt>
      <trkpt lat="43.4826" lon="6.57223">
        <ele>37.2</ele>
        <time>2025-02-26T13:42:17Z</time>
      </trkpt>
      <trkpt lat="43.4826" lon="6.57223">
        <ele>37.2</ele>
        <time>2025-02-26T13:42:18Z</time>
      </trkpt>
      <trkpt lat="43.4826" lon="6.57223">
        <ele>37.2</ele>
        <time>2025-02-26T13:42:19Z</time>
      </trkpt>
      <trkpt lat="43.4826" lon="6.57223">
        <ele>37.3</ele>
        <time>2025-02-26T13:42:20Z</time>
      </trkpt>
      <trkpt lat="43.4826" lon="6.57223">
        <ele>37.3</ele>
        <time>2025-02-26T13:42:21Z</time>
      </trkpt>
      <trkpt lat="43.4826" lon="6.57223">
        <ele>37.3</ele>
        <time>2025-02-26T13:42:22Z</time>
      </trkpt>
      <trkpt lat="43.4826" lon="6.57223">
        <ele>37.3</ele>
        <time>2025-02-26T13:42:23Z</time>
      </trkpt>
      <trkpt lat="43.4826" lon="6.57223">
        <ele>37.3</ele>
        <time>2025-02-26T13:42:24Z</time>
      </trkpt>
      <trkpt lat="43.4826" lon="6.57223">
        <ele>37.3</ele>
        <time>2025-02-26T13:42:25Z</time>
      </trkpt>
      <trkpt lat="43.4826" lon="6.57223">
        <ele>37.3</ele>
        <time>2025-02-26T13:42:26Z</time>
      </trkpt>
      <trkpt lat="43.4826" lon="6.57223">
        <ele>37.4</ele>
        <time>2025-02-26T13:42:27Z</time>
      </trkpt>
      <trkpt lat="43.4826" lon="6.57223">
        <ele>37.3</ele>
        <time>2025-02-26T13:42:28Z</time>
      </trkpt>
      <trkpt lat="43.48261" lon="6.57222">
        <ele>37.3</ele>
        <time>2025-02-26T13:42:29Z</time>
      </trkpt>
      <trkpt lat="43.48261" lon="6.57222">
        <ele>37.3</ele>
        <time>2025-02-26T13:42:30Z</time>
      </trkpt>
      <trkpt lat="43.48262" lon="6.57222">
        <ele>37.3</ele>
        <time>2025-02-26T13:42:31Z</time>
      </trkpt>
      <trkpt lat="43.48262" lon="6.57222">
        <ele>37.4</ele>
        <time>2025-02-26T13:42:32Z</time>
      </trkpt>
      <trkpt lat="43.48263" lon="6.57221">
        <ele>37.5</ele>
        <time>2025-02-26T13:42:33Z</time>
      </trkpt>
      <trkpt lat="43.48264" lon="6.5722">
        <ele>37.6</ele>
        <time>2025-02-26T13:42:34Z</time>
      </trkpt>
      <trkpt lat="43.48265" lon="6.5722">
        <ele>37.7</ele>
        <time>2025-02-26T13:42:35Z</time>
      </trkpt>
      <trkpt lat="43.48265" lon="6.57219">
        <ele>37.8</ele>
        <time>2025-02-26T13:42:36Z</time>
      </trkpt>
      <trkpt lat="43.48266" lon="6.57219">
        <ele>37.9</ele>
        <time>2025-02-26T13:42:37Z</time>
      </trkpt>
      <trkpt lat="43.48266" lon="6.57219">
        <ele>37.9</ele>
        <time>2025-02-26T13:42:38Z</time>
      </trkpt>
      <trkpt lat="43.48267" lon="6.57218">
        <ele>37.9</ele>
        <time>2025-02-26T13:42:39Z</time>
      </trkpt>
      <trkpt lat="43.48267" lon="6.57218">
        <ele>37.9</ele>
        <time>2025-02-26T13:42:40Z</time>
      </trkpt>
      <trkpt lat="43.48268" lon="6.57218">
        <ele>37.9</ele>
        <time>2025-02-26T13:42:41Z</time>
      </trkpt>
      <trkpt lat="43.48268" lon="6.57218">
        <ele>37.9</ele>
        <time>2025-02-26T13:42:42Z</time>
      </trkpt>
      <trkpt lat="43.48269" lon="6.57217">
        <ele>38</ele>
        <time>2025-02-26T13:42:43Z</time>
      </trkpt>
      <trkpt lat="43.4827" lon="6.57217">
        <ele>38.1</ele>
        <time>2025-02-26T13:42:44Z</time>
      </trkpt>
      <trkpt lat="43.48271" lon="6.57216">
        <ele>38</ele>
        <time>2025-02-26T13:42:45Z</time>
      </trkpt>
      <trkpt lat="43.48272" lon="6.57216">
        <ele>38.1</ele>
        <time>2025-02-26T13:42:46Z</time>
      </trkpt>
      <trkpt lat="43.48272" lon="6.57216">
        <ele>38.1</ele>
        <time>2025-02-26T13:42:47Z</time>
      </trkpt>
      <trkpt lat="43.48273" lon="6.57215">
        <ele>38.1</ele>
        <time>2025-02-26T13:42:48Z</time>
      </trkpt>
      <trkpt lat="43.48274" lon="6.57215">
        <ele>38.2</ele>
        <time>2025-02-26T13:42:49Z</time>
      </trkpt>
      <trkpt lat="43.48275" lon="6.57215">
        <ele>38.1</ele>
        <time>2025-02-26T13:42:50Z</time>
      </trkpt>
      <trkpt lat="43.48276" lon="6.57215">
        <ele>38.2</ele>
        <time>2025-02-26T13:42:51Z</time>
      </trkpt>
      <trkpt lat="43.48277" lon="6.57215">
        <ele>38.2</ele>
        <time>2025-02-26T13:42:52Z</time>
      </trkpt>
      <trkpt lat="43.48277" lon="6.57215">
        <ele>38.2</ele>
        <time>2025-02-26T13:42:53Z</time>
      </trkpt>
      <trkpt lat="43.48279" lon="6.57214">
        <ele>38.2</ele>
        <time>2025-02-26T13:42:54Z</time>
      </trkpt>
      <trkpt lat="43.4828" lon="6.57213">
        <ele>38.2</ele>
        <time>2025-02-26T13:42:55Z</time>
      </trkpt>
      <trkpt lat="43.48281" lon="6.57213">
        <ele>38.2</ele>
        <time>2025-02-26T13:42:56Z</time>
      </trkpt>
      <trkpt lat="43.48281" lon="6.57213">
        <ele>38.2</ele>
        <time>2025-02-26T13:42:57Z</time>
      </trkpt>
      <trkpt lat="43.48282" lon="6.57213">
        <ele>38.1</ele>
        <time>2025-02-26T13:42:58Z</time>
      </trkpt>
      <trkpt lat="43.48282" lon="6.57213">
        <ele>38.1</ele>
        <time>2025-02-26T13:42:59Z</time>
      </trkpt>
      <trkpt lat="43.48283" lon="6.57213">
        <ele>38.1</ele>
        <time>2025-02-26T13:43:00Z</time>
      </trkpt>
      <trkpt lat="43.48284" lon="6.57213">
        <ele>38.1</ele>
        <time>2025-02-26T13:43:01Z</time>
      </trkpt>
      <trkpt lat="43.48285" lon="6.57213">
        <ele>38.1</ele>
        <time>2025-02-26T13:43:02Z</time>
      </trkpt>
      <trkpt lat="43.48287" lon="6.57212">
        <ele>38</ele>
        <time>2025-02-26T13:43:03Z</time>
      </trkpt>
      <trkpt lat="43.48288" lon="6.57212">
        <ele>38</ele>
        <time>2025-02-26T13:43:04Z</time>
      </trkpt>
      <trkpt lat="43.48289" lon="6.57212">
        <ele>38</ele>
        <time>2025-02-26T13:43:05Z</time>
      </trkpt>
      <trkpt lat="43.48289" lon="6.57212">
        <ele>37.9</ele>
        <time>2025-02-26T13:43:06Z</time>
      </trkpt>
      <trkpt lat="43.4829" lon="6.57212">
        <ele>37.8</ele>
        <time>2025-02-26T13:43:07Z</time>
      </trkpt>
      <trkpt lat="43.48291" lon="6.57211">
        <ele>37.7</ele>
        <time>2025-02-26T13:43:08Z</time>
      </trkpt>
      <trkpt lat="43.48292" lon="6.57211">
        <ele>37.6</ele>
        <time>2025-02-26T13:43:09Z</time>
      </trkpt>
      <trkpt lat="43.48293" lon="6.57211">
        <ele>37.5</ele>
        <time>2025-02-26T13:43:10Z</time>
      </trkpt>
      <trkpt lat="43.48294" lon="6.57211">
        <ele>37.5</ele>
        <time>2025-02-26T13:43:11Z</time>
      </trkpt>
      <trkpt lat="43.48295" lon="6.57211">
        <ele>37.5</ele>
        <time>2025-02-26T13:43:12Z</time>
      </trkpt>
      <trkpt lat="43.48296" lon="6.57211">
        <ele>37.5</ele>
        <time>2025-02-26T13:43:13Z</time>
      </trkpt>
      <trkpt lat="43.48298" lon="6.57211">
        <ele>37.5</ele>
        <time>2025-02-26T13:43:14Z</time>
      </trkpt>
      <trkpt lat="43.48299" lon="6.57211">
        <ele>37.5</ele>
        <time>2025-02-26T13:43:15Z</time>
      </trkpt>
      <trkpt lat="43.483" lon="6.5721">
        <ele>37.5</ele>
        <time>2025-02-26T13:43:16Z</time>
      </trkpt>
      <trkpt lat="43.48301" lon="6.5721">
        <ele>37.3</ele>
        <time>2025-02-26T13:43:17Z</time>
      </trkpt>
      <trkpt lat="43.48302" lon="6.5721">
        <ele>37.2</ele>
        <time>2025-02-26T13:43:18Z</time>
      </trkpt>
      <trkpt lat="43.48303" lon="6.5721">
        <ele>37.2</ele>
        <time>2025-02-26T13:43:19Z</time>
      </trkpt>
      <trkpt lat="43.48305" lon="6.5721">
        <ele>37.2</ele>
        <time>2025-02-26T13:43:20Z</time>
      </trkpt>
      <trkpt lat="43.48306" lon="6.57209">
        <ele>37.1</ele>
        <time>2025-02-26T13:43:21Z</time>
      </trkpt>
      <trkpt lat="43.48307" lon="6.57209">
        <ele>37</ele>
        <time>2025-02-26T13:43:22Z</time>
      </trkpt>
      <trkpt lat="43.48307" lon="6.57209">
        <ele>37.1</ele>
        <time>2025-02-26T13:43:23Z</time>
      </trkpt>
      <trkpt lat="43.48308" lon="6.57208">
        <ele>37.2</ele>
        <time>2025-02-26T13:43:24Z</time>
      </trkpt>
      <trkpt lat="43.48309" lon="6.57208">
        <ele>37.1</ele>
        <time>2025-02-26T13:43:25Z</time>
      </trkpt>
      <trkpt lat="43.4831" lon="6.57208">
        <ele>37.3</ele>
        <time>2025-02-26T13:43:26Z</time>
      </trkpt>
      <trkpt lat="43.48311" lon="6.57208">
        <ele>37.2</ele>
        <time>2025-02-26T13:43:27Z</time>
      </trkpt>
      <trkpt lat="43.48312" lon="6.57207">
        <ele>37.2</ele>
        <time>2025-02-26T13:43:28Z</time>
      </trkpt>
      <trkpt lat="43.48313" lon="6.57206">
        <ele>37.1</ele>
        <time>2025-02-26T13:43:29Z</time>
      </trkpt>
      <trkpt lat="43.48314" lon="6.57206">
        <ele>37</ele>
        <time>2025-02-26T13:43:30Z</time>
      </trkpt>
      <trkpt lat="43.48315" lon="6.57206">
        <ele>37</ele>
        <time>2025-02-26T13:43:31Z</time>
      </trkpt>
      <trkpt lat="43.48316" lon="6.57205">
        <ele>36.9</ele>
        <time>2025-02-26T13:43:32Z</time>
      </trkpt>
      <trkpt lat="43.48317" lon="6.57205">
        <ele>36.9</ele>
        <time>2025-02-26T13:43:33Z</time>
      </trkpt>
      <trkpt lat="43.48318" lon="6.57204">
        <ele>36.8</ele>
        <time>2025-02-26T13:43:34Z</time>
      </trkpt>
      <trkpt lat="43.48319" lon="6.57204">
        <ele>36.5</ele>
        <time>2025-02-26T13:43:35Z</time>
      </trkpt>
      <trkpt lat="43.48319" lon="6.57204">
        <ele>36.4</ele>
        <time>2025-02-26T13:43:36Z</time>
      </trkpt>
      <trkpt lat="43.4832" lon="6.57203">
        <ele>36.2</ele>
        <time>2025-02-26T13:43:37Z</time>
      </trkpt>
      <trkpt lat="43.48321" lon="6.57203">
        <ele>36</ele>
        <time>2025-02-26T13:43:38Z</time>
      </trkpt>
      <trkpt lat="43.48322" lon="6.57202">
        <ele>35.7</ele>
        <time>2025-02-26T13:43:39Z</time>
      </trkpt>
      <trkpt lat="43.48323" lon="6.57202">
        <ele>35.6</ele>
        <time>2025-02-26T13:43:40Z</time>
      </trkpt>
      <trkpt lat="43.48324" lon="6.57202">
        <ele>35.3</ele>
        <time>2025-02-26T13:43:41Z</time>
      </trkpt>
      <trkpt lat="43.48325" lon="6.57202">
        <ele>35.2</ele>
        <time>2025-02-26T13:43:42Z</time>
      </trkpt>
      <trkpt lat="43.48326" lon="6.57202">
        <ele>34.9</ele>
        <time>2025-02-26T13:43:43Z</time>
      </trkpt>
      <trkpt lat="43.48327" lon="6.57202">
        <ele>34.7</ele>
        <time>2025-02-26T13:43:44Z</time>
      </trkpt>
      <trkpt lat="43.48328" lon="6.57202">
        <ele>34.7</ele>
        <time>2025-02-26T13:43:45Z</time>
      </trkpt>
      <trkpt lat="43.48329" lon="6.57201">
        <ele>34.7</ele>
        <time>2025-02-26T13:43:46Z</time>
      </trkpt>
      <trkpt lat="43.48329" lon="6.57201">
        <ele>34.7</ele>
        <time>2025-02-26T13:43:47Z</time>
      </trkpt>
      <trkpt lat="43.48331" lon="6.57201">
        <ele>34.7</ele>
        <time>2025-02-26T13:43:48Z</time>
      </trkpt>
      <trkpt lat="43.48332" lon="6.57201">
        <ele>34.7</ele>
        <time>2025-02-26T13:43:49Z</time>
      </trkpt>
      <trkpt lat="43.48333" lon="6.572">
        <ele>34.8</ele>
        <time>2025-02-26T13:43:50Z</time>
      </trkpt>
      <trkpt lat="43.48334" lon="6.572">
        <ele>34.8</ele>
        <time>2025-02-26T13:43:51Z</time>
      </trkpt>
      <trkpt lat="43.48335" lon="6.57199">
        <ele>34.9</ele>
        <time>2025-02-26T13:43:52Z</time>
      </trkpt>
      <trkpt lat="43.48337" lon="6.57199">
        <ele>35.1</ele>
        <time>2025-02-26T13:43:53Z</time>
      </trkpt>
      <trkpt lat="43.48338" lon="6.57198">
        <ele>35.1</ele>
        <time>2025-02-26T13:43:54Z</time>
      </trkpt>
      <trkpt lat="43.48339" lon="6.57197">
        <ele>35.2</ele>
        <time>2025-02-26T13:43:55Z</time>
      </trkpt>
      <trkpt lat="43.48341" lon="6.57196">
        <ele>35.4</ele>
        <time>2025-02-26T13:43:56Z</time>
      </trkpt>
      <trkpt lat="43.48341" lon="6.57195">
        <ele>35.5</ele>
        <time>2025-02-26T13:43:57Z</time>
      </trkpt>
      <trkpt lat="43.48343" lon="6.57195">
        <ele>35.6</ele>
        <time>2025-02-26T13:43:58Z</time>
      </trkpt>
      <trkpt lat="43.48343" lon="6.57194">
        <ele>35.7</ele>
        <time>2025-02-26T13:43:59Z</time>
      </trkpt>
      <trkpt lat="43.48344" lon="6.57193">
        <ele>35.8</ele>
        <time>2025-02-26T13:44:00Z</time>
      </trkpt>
      <trkpt lat="43.48345" lon="6.57193">
        <ele>35.8</ele>
        <time>2025-02-26T13:44:01Z</time>
      </trkpt>
      <trkpt lat="43.48345" lon="6.57192">
        <ele>35.9</ele>
        <time>2025-02-26T13:44:02Z</time>
      </trkpt>
      <trkpt lat="43.48345" lon="6.57191">
        <ele>36</ele>
        <time>2025-02-26T13:44:03Z</time>
      </trkpt>
      <trkpt lat="43.48346" lon="6.5719">
        <ele>36.1</ele>
        <time>2025-02-26T13:44:04Z</time>
      </trkpt>
      <trkpt lat="43.48347" lon="6.5719">
        <ele>36.1</ele>
        <time>2025-02-26T13:44:05Z</time>
      </trkpt>
      <trkpt lat="43.48347" lon="6.57189">
        <ele>36.1</ele>
        <time>2025-02-26T13:44:06Z</time>
      </trkpt>
      <trkpt lat="43.48348" lon="6.57188">
        <ele>36</ele>
        <time>2025-02-26T13:44:07Z</time>
      </trkpt>
      <trkpt lat="43.48349" lon="6.57187">
        <ele>36</ele>
        <time>2025-02-26T13:44:08Z</time>
      </trkpt>
      <trkpt lat="43.4835" lon="6.57187">
        <ele>35.9</ele>
        <time>2025-02-26T13:44:09Z</time>
      </trkpt>
      <trkpt lat="43.4835" lon="6.57186">
        <ele>35.9</ele>
        <time>2025-02-26T13:44:10Z</time>
      </trkpt>
      <trkpt lat="43.48351" lon="6.57185">
        <ele>35.9</ele>
        <time>2025-02-26T13:44:11Z</time>
      </trkpt>
      <trkpt lat="43.48351" lon="6.57184">
        <ele>36</ele>
        <time>2025-02-26T13:44:12Z</time>
      </trkpt>
      <trkpt lat="43.48352" lon="6.57183">
        <ele>35.9</ele>
        <time>2025-02-26T13:44:13Z</time>
      </trkpt>
      <trkpt lat="43.48353" lon="6.57182">
        <ele>35.8</ele>
        <time>2025-02-26T13:44:14Z</time>
      </trkpt>
      <trkpt lat="43.48353" lon="6.5718">
        <ele>35.8</ele>
        <time>2025-02-26T13:44:15Z</time>
      </trkpt>
      <trkpt lat="43.48354" lon="6.57179">
        <ele>35.8</ele>
        <time>2025-02-26T13:44:16Z</time>
      </trkpt>
      <trkpt lat="43.48355" lon="6.57178">
        <ele>35.9</ele>
        <time>2025-02-26T13:44:17Z</time>
      </trkpt>
      <trkpt lat="43.48355" lon="6.57177">
        <ele>35.9</ele>
        <time>2025-02-26T13:44:18Z</time>
      </trkpt>
      <trkpt lat="43.48356" lon="6.57176">
        <ele>36</ele>
        <time>2025-02-26T13:44:19Z</time>
      </trkpt>
      <trkpt lat="43.48356" lon="6.57174">
        <ele>36</ele>
        <time>2025-02-26T13:44:20Z</time>
      </trkpt>
      <trkpt lat="43.48357" lon="6.57173">
        <ele>35.9</ele>
        <time>2025-02-26T13:44:21Z</time>
      </trkpt>
      <trkpt lat="43.48357" lon="6.57171">
        <ele>35.8</ele>
        <time>2025-02-26T13:44:22Z</time>
      </trkpt>
      <trkpt lat="43.48358" lon="6.5717">
        <ele>35.7</ele>
        <time>2025-02-26T13:44:23Z</time>
      </trkpt>
      <trkpt lat="43.48358" lon="6.57169">
        <ele>35.6</ele>
        <time>2025-02-26T13:44:24Z</time>
      </trkpt>
      <trkpt lat="43.48359" lon="6.57168">
        <ele>35.6</ele>
        <time>2025-02-26T13:44:25Z</time>
      </trkpt>
      <trkpt lat="43.4836" lon="6.57168">
        <ele>35.7</ele>
        <time>2025-02-26T13:44:26Z</time>
      </trkpt>
      <trkpt lat="43.48361" lon="6.57167">
        <ele>35.6</ele>
        <time>2025-02-26T13:44:27Z</time>
      </trkpt>
      <trkpt lat="43.48361" lon="6.57167">
        <ele>35.6</ele>
        <time>2025-02-26T13:44:28Z</time>
      </trkpt>
      <trkpt lat="43.48362" lon="6.57167">
        <ele>35.6</ele>
        <time>2025-02-26T13:44:29Z</time>
      </trkpt>
      <trkpt lat="43.48363" lon="6.57166">
        <ele>35.6</ele>
        <time>2025-02-26T13:44:30Z</time>
      </trkpt>
      <trkpt lat="43.48363" lon="6.57167">
        <ele>35.6</ele>
        <time>2025-02-26T13:44:31Z</time>
      </trkpt>
      <trkpt lat="43.48364" lon="6.57166">
        <ele>35.7</ele>
        <time>2025-02-26T13:44:32Z</time>
      </trkpt>
      <trkpt lat="43.48364" lon="6.57166">
        <ele>35.7</ele>
        <time>2025-02-26T13:44:33Z</time>
      </trkpt>
      <trkpt lat="43.48365" lon="6.57166">
        <ele>35.7</ele>
        <time>2025-02-26T13:44:34Z</time>
      </trkpt>
      <trkpt lat="43.48365" lon="6.57166">
        <ele>35.7</ele>
        <time>2025-02-26T13:44:35Z</time>
      </trkpt>
      <trkpt lat="43.48365" lon="6.57166">
        <ele>35.6</ele>
        <time>2025-02-26T13:44:36Z</time>
      </trkpt>
      <trkpt lat="43.48366" lon="6.57165">
        <ele>35.6</ele>
        <time>2025-02-26T13:44:37Z</time>
      </trkpt>
      <trkpt lat="43.48366" lon="6.57165">
        <ele>35.6</ele>
        <time>2025-02-26T13:44:38Z</time>
      </trkpt>
      <trkpt lat="43.48367" lon="6.57164">
        <ele>35.6</ele>
        <time>2025-02-26T13:44:39Z</time>
      </trkpt>
      <trkpt lat="43.48367" lon="6.57163">
        <ele>35.6</ele>
        <time>2025-02-26T13:44:40Z</time>
      </trkpt>
      <trkpt lat="43.48367" lon="6.57163">
        <ele>35.5</ele>
        <time>2025-02-26T13:44:41Z</time>
      </trkpt>
      <trkpt lat="43.48367" lon="6.57163">
        <ele>35.5</ele>
        <time>2025-02-26T13:44:42Z</time>
      </trkpt>
      <trkpt lat="43.48367" lon="6.57163">
        <ele>35.5</ele>
        <time>2025-02-26T13:44:43Z</time>
      </trkpt>
      <trkpt lat="43.48367" lon="6.57163">
        <ele>35.4</ele>
        <time>2025-02-26T13:44:44Z</time>
      </trkpt>
      <trkpt lat="43.48367" lon="6.57163">
        <ele>35.4</ele>
        <time>2025-02-26T13:44:45Z</time>
      </trkpt>
      <trkpt lat="43.48368" lon="6.57162">
        <ele>35.4</ele>
        <time>2025-02-26T13:44:46Z</time>
      </trkpt>
      <trkpt lat="43.48368" lon="6.57161">
        <ele>35.3</ele>
        <time>2025-02-26T13:44:47Z</time>
      </trkpt>
      <trkpt lat="43.48369" lon="6.5716">
        <ele>35.2</ele>
        <time>2025-02-26T13:44:48Z</time>
      </trkpt>
      <trkpt lat="43.4837" lon="6.57159">
        <ele>35</ele>
        <time>2025-02-26T13:44:49Z</time>
      </trkpt>
      <trkpt lat="43.48371" lon="6.57159">
        <ele>35</ele>
        <time>2025-02-26T13:44:50Z</time>
      </trkpt>
      <trkpt lat="43.48372" lon="6.57158">
        <ele>35</ele>
        <time>2025-02-26T13:44:51Z</time>
      </trkpt>
      <trkpt lat="43.48373" lon="6.57158">
        <ele>34.9</ele>
        <time>2025-02-26T13:44:52Z</time>
      </trkpt>
      <trkpt lat="43.48374" lon="6.57157">
        <ele>34.8</ele>
        <time>2025-02-26T13:44:53Z</time>
      </trkpt>
      <trkpt lat="43.48375" lon="6.57157">
        <ele>34.7</ele>
        <time>2025-02-26T13:44:54Z</time>
      </trkpt>
      <trkpt lat="43.48376" lon="6.57156">
        <ele>34.7</ele>
        <time>2025-02-26T13:44:55Z</time>
      </trkpt>
      <trkpt lat="43.48376" lon="6.57156">
        <ele>34.7</ele>
        <time>2025-02-26T13:44:56Z</time>
      </trkpt>
      <trkpt lat="43.48377" lon="6.57156">
        <ele>34.7</ele>
        <time>2025-02-26T13:44:57Z</time>
      </trkpt>
      <trkpt lat="43.48377" lon="6.57156">
        <ele>34.7</ele>
        <time>2025-02-26T13:44:58Z</time>
      </trkpt>
      <trkpt lat="43.48378" lon="6.57156">
        <ele>34.6</ele>
        <time>2025-02-26T13:44:59Z</time>
      </trkpt>
      <trkpt lat="43.48379" lon="6.57156">
        <ele>34.6</ele>
        <time>2025-02-26T13:45:00Z</time>
      </trkpt>
      <trkpt lat="43.48379" lon="6.57156">
        <ele>34.5</ele>
        <time>2025-02-26T13:45:01Z</time>
      </trkpt>
      <trkpt lat="43.4838" lon="6.57156">
        <ele>34.6</ele>
        <time>2025-02-26T13:45:02Z</time>
      </trkpt>
      <trkpt lat="43.48381" lon="6.57156">
        <ele>34.6</ele>
        <time>2025-02-26T13:45:03Z</time>
      </trkpt>
      <trkpt lat="43.48382" lon="6.57156">
        <ele>34.6</ele>
        <time>2025-02-26T13:45:04Z</time>
      </trkpt>
      <trkpt lat="43.48383" lon="6.57156">
        <ele>34.6</ele>
        <time>2025-02-26T13:45:05Z</time>
      </trkpt>
      <trkpt lat="43.48384" lon="6.57155">
        <ele>34.6</ele>
        <time>2025-02-26T13:45:06Z</time>
      </trkpt>
      <trkpt lat="43.48385" lon="6.57155">
        <ele>34.6</ele>
        <time>2025-02-26T13:45:07Z</time>
      </trkpt>
      <trkpt lat="43.48385" lon="6.57154">
        <ele>34.6</ele>
        <time>2025-02-26T13:45:08Z</time>
      </trkpt>
      <trkpt lat="43.48386" lon="6.57153">
        <ele>34.6</ele>
        <time>2025-02-26T13:45:09Z</time>
      </trkpt>
      <trkpt lat="43.48387" lon="6.57153">
        <ele>34.7</ele>
        <time>2025-02-26T13:45:10Z</time>
      </trkpt>
      <trkpt lat="43.48388" lon="6.57152">
        <ele>34.8</ele>
        <time>2025-02-26T13:45:11Z</time>
      </trkpt>
      <trkpt lat="43.48389" lon="6.57153">
        <ele>34.9</ele>
        <time>2025-02-26T13:45:12Z</time>
      </trkpt>
      <trkpt lat="43.4839" lon="6.57153">
        <ele>34.9</ele>
        <time>2025-02-26T13:45:13Z</time>
      </trkpt>
      <trkpt lat="43.48391" lon="6.57152">
        <ele>34.9</ele>
        <time>2025-02-26T13:45:14Z</time>
      </trkpt>
      <trkpt lat="43.48391" lon="6.57152">
        <ele>35</ele>
        <time>2025-02-26T13:45:15Z</time>
      </trkpt>
      <trkpt lat="43.48392" lon="6.57152">
        <ele>35</ele>
        <time>2025-02-26T13:45:16Z</time>
      </trkpt>
      <trkpt lat="43.48393" lon="6.57153">
        <ele>35</ele>
        <time>2025-02-26T13:45:17Z</time>
      </trkpt>
      <trkpt lat="43.48395" lon="6.57153">
        <ele>35</ele>
        <time>2025-02-26T13:45:18Z</time>
      </trkpt>
      <trkpt lat="43.48396" lon="6.57152">
        <ele>35</ele>
        <time>2025-02-26T13:45:19Z</time>
      </trkpt>
      <trkpt lat="43.48397" lon="6.57153">
        <ele>35.2</ele>
        <time>2025-02-26T13:45:20Z</time>
      </trkpt>
      <trkpt lat="43.48398" lon="6.57154">
        <ele>35.2</ele>
        <time>2025-02-26T13:45:21Z</time>
      </trkpt>
      <trkpt lat="43.48399" lon="6.57153">
        <ele>35.2</ele>
        <time>2025-02-26T13:45:22Z</time>
      </trkpt>
      <trkpt lat="43.48399" lon="6.57153">
        <ele>35.1</ele>
        <time>2025-02-26T13:45:23Z</time>
      </trkpt>
      <trkpt lat="43.48399" lon="6.57153">
        <ele>35.1</ele>
        <time>2025-02-26T13:45:24Z</time>
      </trkpt>
      <trkpt lat="43.48399" lon="6.57153">
        <ele>35.1</ele>
        <time>2025-02-26T13:45:25Z</time>
      </trkpt>
      <trkpt lat="43.48399" lon="6.57153">
        <ele>35.2</ele>
        <time>2025-02-26T13:45:26Z</time>
      </trkpt>
      <trkpt lat="43.48399" lon="6.57153">
        <ele>35.2</ele>
        <time>2025-02-26T13:45:27Z</time>
      </trkpt>
      <trkpt lat="43.48399" lon="6.57153">
        <ele>35.2</ele>
        <time>2025-02-26T13:45:28Z</time>
      </trkpt>
      <trkpt lat="43.484" lon="6.57153">
        <ele>35.3</ele>
        <time>2025-02-26T13:45:29Z</time>
      </trkpt>
      <trkpt lat="43.484" lon="6.57152">
        <ele>35.2</ele>
        <time>2025-02-26T13:45:30Z</time>
      </trkpt>
      <trkpt lat="43.484" lon="6.57152">
        <ele>35.2</ele>
        <time>2025-02-26T13:45:31Z</time>
      </trkpt>
      <trkpt lat="43.484" lon="6.57152">
        <ele>35.2</ele>
        <time>2025-02-26T13:45:32Z</time>
      </trkpt>
      <trkpt lat="43.484" lon="6.57152">
        <ele>35.2</ele>
        <time>2025-02-26T13:45:33Z</time>
      </trkpt>
      <trkpt lat="43.484" lon="6.57152">
        <ele>35.1</ele>
        <time>2025-02-26T13:45:34Z</time>
      </trkpt>
      <trkpt lat="43.484" lon="6.57151">
        <ele>35</ele>
        <time>2025-02-26T13:45:35Z</time>
      </trkpt>
      <trkpt lat="43.48401" lon="6.57151">
        <ele>35</ele>
        <time>2025-02-26T13:45:36Z</time>
      </trkpt>
      <trkpt lat="43.48401" lon="6.57151">
        <ele>35</ele>
        <time>2025-02-26T13:45:37Z</time>
      </trkpt>
      <trkpt lat="43.484" lon="6.57151">
        <ele>34.9</ele>
        <time>2025-02-26T13:45:38Z</time>
      </trkpt>
      <trkpt lat="43.484" lon="6.57151">
        <ele>34.8</ele>
        <time>2025-02-26T13:45:39Z</time>
      </trkpt>
      <trkpt lat="43.484" lon="6.57151">
        <ele>34.8</ele>
        <time>2025-02-26T13:45:40Z</time>
      </trkpt>
      <trkpt lat="43.484" lon="6.57151">
        <ele>34.8</ele>
        <time>2025-02-26T13:45:41Z</time>
      </trkpt>
      <trkpt lat="43.484" lon="6.57151">
        <ele>34.7</ele>
        <time>2025-02-26T13:45:42Z</time>
      </trkpt>
      <trkpt lat="43.484" lon="6.57151">
        <ele>34.6</ele>
        <time>2025-02-26T13:45:43Z</time>
      </trkpt>
      <trkpt lat="43.484" lon="6.57152">
        <ele>34.6</ele>
        <time>2025-02-26T13:45:44Z</time>
      </trkpt>
      <trkpt lat="43.484" lon="6.57152">
        <ele>34.6</ele>
        <time>2025-02-26T13:45:45Z</time>
      </trkpt>
      <trkpt lat="43.484" lon="6.57152">
        <ele>34.6</ele>
        <time>2025-02-26T13:45:46Z</time>
      </trkpt>
      <trkpt lat="43.484" lon="6.57152">
        <ele>34.7</ele>
        <time>2025-02-26T13:45:47Z</time>
      </trkpt>
      <trkpt lat="43.484" lon="6.57152">
        <ele>34.7</ele>
        <time>2025-02-26T13:45:48Z</time>
      </trkpt>
      <trkpt lat="43.484" lon="6.57152">
        <ele>34.7</ele>
        <time>2025-02-26T13:45:49Z</time>
      </trkpt>
      <trkpt lat="43.484" lon="6.57152">
        <ele>34.7</ele>
        <time>2025-02-26T13:45:50Z</time>
      </trkpt>
      <trkpt lat="43.484" lon="6.57152">
        <ele>34.8</ele>
        <time>2025-02-26T13:45:51Z</time>
      </trkpt>
      <trkpt lat="43.484" lon="6.57152">
        <ele>34.8</ele>
        <time>2025-02-26T13:45:52Z</time>
      </trkpt>
      <trkpt lat="43.48401" lon="6.57151">
        <ele>34.8</ele>
        <time>2025-02-26T13:45:53Z</time>
      </trkpt>
      <trkpt lat="43.48401" lon="6.57151">
        <ele>34.8</ele>
        <time>2025-02-26T13:45:54Z</time>
      </trkpt>
      <trkpt lat="43.48401" lon="6.57151">
        <ele>34.8</ele>
        <time>2025-02-26T13:45:55Z</time>
      </trkpt>
      <trkpt lat="43.48401" lon="6.57151">
        <ele>34.8</ele>
        <time>2025-02-26T13:45:56Z</time>
      </trkpt>
      <trkpt lat="43.48401" lon="6.57151">
        <ele>34.8</ele>
        <time>2025-02-26T13:45:57Z</time>
      </trkpt>
      <trkpt lat="43.48401" lon="6.57151">
        <ele>34.8</ele>
        <time>2025-02-26T13:45:58Z</time>
      </trkpt>
      <trkpt lat="43.48401" lon="6.57151">
        <ele>34.7</ele>
        <time>2025-02-26T13:45:59Z</time>
      </trkpt>
      <trkpt lat="43.48401" lon="6.57151">
        <ele>34.7</ele>
        <time>2025-02-26T13:46:00Z</time>
      </trkpt>
      <trkpt lat="43.48401" lon="6.57151">
        <ele>34.7</ele>
        <time>2025-02-26T13:46:01Z</time>
      </trkpt>
      <trkpt lat="43.48401" lon="6.57152">
        <ele>34.8</ele>
        <time>2025-02-26T13:46:02Z</time>
      </trkpt>
      <trkpt lat="43.48401" lon="6.57152">
        <ele>34.8</ele>
        <time>2025-02-26T13:46:03Z</time>
      </trkpt>
      <trkpt lat="43.48402" lon="6.57152">
        <ele>34.9</ele>
        <time>2025-02-26T13:46:04Z</time>
      </trkpt>
      <trkpt lat="43.48402" lon="6.57151">
        <ele>34.9</ele>
        <time>2025-02-26T13:46:05Z</time>
      </trkpt>
      <trkpt lat="43.48402" lon="6.57151">
        <ele>34.9</ele>
        <time>2025-02-26T13:46:06Z</time>
      </trkpt>
      <trkpt lat="43.48402" lon="6.57151">
        <ele>35</ele>
        <time>2025-02-26T13:46:07Z</time>
      </trkpt>
      <trkpt lat="43.48402" lon="6.57151">
        <ele>35</ele>
        <time>2025-02-26T13:46:08Z</time>
      </trkpt>
      <trkpt lat="43.48402" lon="6.57151">
        <ele>35</ele>
        <time>2025-02-26T13:46:09Z</time>
      </trkpt>
      <trkpt lat="43.48402" lon="6.57151">
        <ele>34.9</ele>
        <time>2025-02-26T13:46:10Z</time>
      </trkpt>
      <trkpt lat="43.48402" lon="6.57151">
        <ele>34.9</ele>
        <time>2025-02-26T13:46:11Z</time>
      </trkpt>
      <trkpt lat="43.48402" lon="6.57151">
        <ele>34.9</ele>
        <time>2025-02-26T13:46:12Z</time>
      </trkpt>
      <trkpt lat="43.48402" lon="6.57151">
        <ele>34.9</ele>
        <time>2025-02-26T13:46:13Z</time>
      </trkpt>
      <trkpt lat="43.48402" lon="6.57151">
        <ele>34.9</ele>
        <time>2025-02-26T13:46:14Z</time>
      </trkpt>
      <trkpt lat="43.48401" lon="6.57151">
        <ele>34.9</ele>
        <time>2025-02-26T13:46:15Z</time>
      </trkpt>
      <trkpt lat="43.48402" lon="6.57151">
        <ele>34.9</ele>
        <time>2025-02-26T13:46:16Z</time>
      </trkpt>
      <trkpt lat="43.48402" lon="6.57151">
        <ele>34.8</ele>
        <time>2025-02-26T13:46:17Z</time>
      </trkpt>
      <trkpt lat="43.48402" lon="6.57151">
        <ele>34.7</ele>
        <time>2025-02-26T13:46:18Z</time>
      </trkpt>
      <trkpt lat="43.48402" lon="6.57151">
        <ele>34.7</ele>
        <time>2025-02-26T13:46:19Z</time>
      </trkpt>
      <trkpt lat="43.48402" lon="6.57151">
        <ele>34.7</ele>
        <time>2025-02-26T13:46:20Z</time>
      </trkpt>
      <trkpt lat="43.48402" lon="6.57151">
        <ele>34.7</ele>
        <time>2025-02-26T13:46:21Z</time>
      </trkpt>
      <trkpt lat="43.48402" lon="6.57151">
        <ele>34.7</ele>
        <time>2025-02-26T13:46:22Z</time>
      </trkpt>
      <trkpt lat="43.48402" lon="6.57151">
        <ele>34.7</ele>
        <time>2025-02-26T13:46:23Z</time>
      </trkpt>
      <trkpt lat="43.48402" lon="6.57151">
        <ele>34.8</ele>
        <time>2025-02-26T13:46:24Z</time>
      </trkpt>
      <trkpt lat="43.48402" lon="6.5715">
        <ele>34.8</ele>
        <time>2025-02-26T13:46:25Z</time>
      </trkpt>
      <trkpt lat="43.48402" lon="6.5715">
        <ele>34.8</ele>
        <time>2025-02-26T13:46:26Z</time>
      </trkpt>
      <trkpt lat="43.48401" lon="6.5715">
        <ele>34.9</ele>
        <time>2025-02-26T13:46:27Z</time>
      </trkpt>
      <trkpt lat="43.48401" lon="6.57149">
        <ele>34.8</ele>
        <time>2025-02-26T13:46:28Z</time>
      </trkpt>
      <trkpt lat="43.48401" lon="6.57149">
        <ele>35</ele>
        <time>2025-02-26T13:46:29Z</time>
      </trkpt>
      <trkpt lat="43.48402" lon="6.5715">
        <ele>35</ele>
        <time>2025-02-26T13:46:30Z</time>
      </trkpt>
      <trkpt lat="43.48402" lon="6.5715">
        <ele>35</ele>
        <time>2025-02-26T13:46:31Z</time>
      </trkpt>
      <trkpt lat="43.48402" lon="6.5715">
        <ele>35</ele>
        <time>2025-02-26T13:46:32Z</time>
      </trkpt>
      <trkpt lat="43.48402" lon="6.5715">
        <ele>34.9</ele>
        <time>2025-02-26T13:46:33Z</time>
      </trkpt>
      <trkpt lat="43.48402" lon="6.5715">
        <ele>34.9</ele>
        <time>2025-02-26T13:46:34Z</time>
      </trkpt>
      <trkpt lat="43.48402" lon="6.5715">
        <ele>34.9</ele>
        <time>2025-02-26T13:46:35Z</time>
      </trkpt>
      <trkpt lat="43.48402" lon="6.5715">
        <ele>35</ele>
        <time>2025-02-26T13:46:36Z</time>
      </trkpt>
      <trkpt lat="43.48402" lon="6.5715">
        <ele>35.1</ele>
        <time>2025-02-26T13:46:37Z</time>
      </trkpt>
      <trkpt lat="43.48402" lon="6.5715">
        <ele>35</ele>
        <time>2025-02-26T13:46:38Z</time>
      </trkpt>
      <trkpt lat="43.48402" lon="6.5715">
        <ele>35.1</ele>
        <time>2025-02-26T13:46:39Z</time>
      </trkpt>
      <trkpt lat="43.48402" lon="6.57149">
        <ele>35.1</ele>
        <time>2025-02-26T13:46:40Z</time>
      </trkpt>
      <trkpt lat="43.48402" lon="6.5715">
        <ele>35.2</ele>
        <time>2025-02-26T13:46:41Z</time>
      </trkpt>
      <trkpt lat="43.48401" lon="6.5715">
        <ele>35.3</ele>
        <time>2025-02-26T13:46:42Z</time>
      </trkpt>
      <trkpt lat="43.48401" lon="6.5715">
        <ele>35.2</ele>
        <time>2025-02-26T13:46:43Z</time>
      </trkpt>
      <trkpt lat="43.48401" lon="6.5715">
        <ele>35.3</ele>
        <time>2025-02-26T13:46:44Z</time>
      </trkpt>
      <trkpt lat="43.48401" lon="6.5715">
        <ele>35.3</ele>
        <time>2025-02-26T13:46:45Z</time>
      </trkpt>
      <trkpt lat="43.48401" lon="6.5715">
        <ele>35.3</ele>
        <time>2025-02-26T13:46:46Z</time>
      </trkpt>
      <trkpt lat="43.48401" lon="6.57151">
        <ele>35.4</ele>
        <time>2025-02-26T13:46:47Z</time>
      </trkpt>
      <trkpt lat="43.48401" lon="6.57152">
        <ele>35.4</ele>
        <time>2025-02-26T13:46:48Z</time>
      </trkpt>
      <trkpt lat="43.48401" lon="6.57153">
        <ele>35.5</ele>
        <time>2025-02-26T13:46:49Z</time>
      </trkpt>
      <trkpt lat="43.484" lon="6.57154">
        <ele>35.6</ele>
        <time>2025-02-26T13:46:50Z</time>
      </trkpt>
      <trkpt lat="43.48399" lon="6.57155">
        <ele>35.5</ele>
        <time>2025-02-26T13:46:51Z</time>
      </trkpt>
      <trkpt lat="43.48398" lon="6.57157">
        <ele>35.6</ele>
        <time>2025-02-26T13:46:52Z</time>
      </trkpt>
      <trkpt lat="43.48398" lon="6.57158">
        <ele>35.5</ele>
        <time>2025-02-26T13:46:53Z</time>
      </trkpt>
      <trkpt lat="43.48398" lon="6.57159">
        <ele>35.6</ele>
        <time>2025-02-26T13:46:54Z</time>
      </trkpt>
      <trkpt lat="43.48398" lon="6.5716">
        <ele>35.6</ele>
        <time>2025-02-26T13:46:55Z</time>
      </trkpt>
      <trkpt lat="43.48398" lon="6.57161">
        <ele>35.7</ele>
        <time>2025-02-26T13:46:56Z</time>
      </trkpt>
      <trkpt lat="43.48397" lon="6.57162">
        <ele>35.8</ele>
        <time>2025-02-26T13:46:57Z</time>
      </trkpt>
      <trkpt lat="43.48397" lon="6.57164">
        <ele>35.8</ele>
        <time>2025-02-26T13:46:58Z</time>
      </trkpt>
      <trkpt lat="43.48398" lon="6.57165">
        <ele>35.9</ele>
        <time>2025-02-26T13:46:59Z</time>
      </trkpt>
      <trkpt lat="43.48397" lon="6.57167">
        <ele>35.9</ele>
        <time>2025-02-26T13:47:00Z</time>
      </trkpt>
      <trkpt lat="43.48397" lon="6.57168">
        <ele>36</ele>
        <time>2025-02-26T13:47:01Z</time>
      </trkpt>
      <trkpt lat="43.48398" lon="6.5717">
        <ele>36.1</ele>
        <time>2025-02-26T13:47:02Z</time>
      </trkpt>
      <trkpt lat="43.48397" lon="6.57171">
        <ele>36.2</ele>
        <time>2025-02-26T13:47:03Z</time>
      </trkpt>
      <trkpt lat="43.48397" lon="6.57173">
        <ele>36.2</ele>
        <time>2025-02-26T13:47:04Z</time>
      </trkpt>
      <trkpt lat="43.48397" lon="6.57174">
        <ele>36.4</ele>
        <time>2025-02-26T13:47:05Z</time>
      </trkpt>
      <trkpt lat="43.48396" lon="6.57176">
        <ele>36.5</ele>
        <time>2025-02-26T13:47:06Z</time>
      </trkpt>
      <trkpt lat="43.48397" lon="6.57177">
        <ele>36.7</ele>
        <time>2025-02-26T13:47:07Z</time>
      </trkpt>
      <trkpt lat="43.48397" lon="6.57178">
        <ele>36.8</ele>
        <time>2025-02-26T13:47:08Z</time>
      </trkpt>
      <trkpt lat="43.48396" lon="6.5718">
        <ele>36.9</ele>
        <time>2025-02-26T13:47:09Z</time>
      </trkpt>
      <trkpt lat="43.48396" lon="6.57181">
        <ele>37</ele>
        <time>2025-02-26T13:47:10Z</time>
      </trkpt>
      <trkpt lat="43.48396" lon="6.57183">
        <ele>37.1</ele>
        <time>2025-02-26T13:47:11Z</time>
      </trkpt>
      <trkpt lat="43.48395" lon="6.57185">
        <ele>37.3</ele>
        <time>2025-02-26T13:47:12Z</time>
      </trkpt>
      <trkpt lat="43.48395" lon="6.57186">
        <ele>37.4</ele>
        <time>2025-02-26T13:47:13Z</time>
      </trkpt>
      <trkpt lat="43.48395" lon="6.57187">
        <ele>37.5</ele>
        <time>2025-02-26T13:47:14Z</time>
      </trkpt>
      <trkpt lat="43.48395" lon="6.57188">
        <ele>37.6</ele>
        <time>2025-02-26T13:47:15Z</time>
      </trkpt>
      <trkpt lat="43.48394" lon="6.57189">
        <ele>37.7</ele>
        <time>2025-02-26T13:47:16Z</time>
      </trkpt>
      <trkpt lat="43.48394" lon="6.57191">
        <ele>37.7</ele>
        <time>2025-02-26T13:47:17Z</time>
      </trkpt>
      <trkpt lat="43.48393" lon="6.57192">
        <ele>37.7</ele>
        <time>2025-02-26T13:47:18Z</time>
      </trkpt>
      <trkpt lat="43.48393" lon="6.57193">
        <ele>37.9</ele>
        <time>2025-02-26T13:47:19Z</time>
      </trkpt>
      <trkpt lat="43.48392" lon="6.57194">
        <ele>37.9</ele>
        <time>2025-02-26T13:47:20Z</time>
      </trkpt>
      <trkpt lat="43.48391" lon="6.57195">
        <ele>38</ele>
        <time>2025-02-26T13:47:21Z</time>
      </trkpt>
      <trkpt lat="43.48391" lon="6.57196">
        <ele>38</ele>
        <time>2025-02-26T13:47:22Z</time>
      </trkpt>
      <trkpt lat="43.4839" lon="6.57197">
        <ele>38</ele>
        <time>2025-02-26T13:47:23Z</time>
      </trkpt>
      <trkpt lat="43.48389" lon="6.57198">
        <ele>38</ele>
        <time>2025-02-26T13:47:24Z</time>
      </trkpt>
      <trkpt lat="43.48388" lon="6.57199">
        <ele>38.1</ele>
        <time>2025-02-26T13:47:25Z</time>
      </trkpt>
      <trkpt lat="43.48387" lon="6.572">
        <ele>38.1</ele>
        <time>2025-02-26T13:47:26Z</time>
      </trkpt>
      <trkpt lat="43.48386" lon="6.57201">
        <ele>38.2</ele>
        <time>2025-02-26T13:47:27Z</time>
      </trkpt>
      <trkpt lat="43.48385" lon="6.57202">
        <ele>38.2</ele>
        <time>2025-02-26T13:47:28Z</time>
      </trkpt>
      <trkpt lat="43.48384" lon="6.57203">
        <ele>38.2</ele>
        <time>2025-02-26T13:47:29Z</time>
      </trkpt>
      <trkpt lat="43.48384" lon="6.57204">
        <ele>38.1</ele>
        <time>2025-02-26T13:47:30Z</time>
      </trkpt>
      <trkpt lat="43.48383" lon="6.57206">
        <ele>38.3</ele>
        <time>2025-02-26T13:47:31Z</time>
      </trkpt>
      <trkpt lat="43.48383" lon="6.57207">
        <ele>38.5</ele>
        <time>2025-02-26T13:47:32Z</time>
      </trkpt>
      <trkpt lat="43.48381" lon="6.57208">
        <ele>38.6</ele>
        <time>2025-02-26T13:47:33Z</time>
      </trkpt>
      <trkpt lat="43.48381" lon="6.5721">
        <ele>38.7</ele>
        <time>2025-02-26T13:47:34Z</time>
      </trkpt>
      <trkpt lat="43.4838" lon="6.57211">
        <ele>38.7</ele>
        <time>2025-02-26T13:47:35Z</time>
      </trkpt>
      <trkpt lat="43.4838" lon="6.57212">
        <ele>38.8</ele>
        <time>2025-02-26T13:47:36Z</time>
      </trkpt>
      <trkpt lat="43.48379" lon="6.57213">
        <ele>38.9</ele>
        <time>2025-02-26T13:47:37Z</time>
      </trkpt>
      <trkpt lat="43.48378" lon="6.57214">
        <ele>39.1</ele>
        <time>2025-02-26T13:47:38Z</time>
      </trkpt>
      <trkpt lat="43.48376" lon="6.57214">
        <ele>39.3</ele>
        <time>2025-02-26T13:47:39Z</time>
      </trkpt>
      <trkpt lat="43.48375" lon="6.57215">
        <ele>39.4</ele>
        <time>2025-02-26T13:47:40Z</time>
      </trkpt>
      <trkpt lat="43.48374" lon="6.57217">
        <ele>39.5</ele>
        <time>2025-02-26T13:47:41Z</time>
      </trkpt>
      <trkpt lat="43.48373" lon="6.57218">
        <ele>39.5</ele>
        <time>2025-02-26T13:47:42Z</time>
      </trkpt>
      <trkpt lat="43.48372" lon="6.57219">
        <ele>39.6</ele>
        <time>2025-02-26T13:47:43Z</time>
      </trkpt>
      <trkpt lat="43.48371" lon="6.5722">
        <ele>39.7</ele>
        <time>2025-02-26T13:47:44Z</time>
      </trkpt>
      <trkpt lat="43.48371" lon="6.57221">
        <ele>39.8</ele>
        <time>2025-02-26T13:47:45Z</time>
      </trkpt>
      <trkpt lat="43.48371" lon="6.57223">
        <ele>39.9</ele>
        <time>2025-02-26T13:47:46Z</time>
      </trkpt>
      <trkpt lat="43.48371" lon="6.57224">
        <ele>40</ele>
        <time>2025-02-26T13:47:47Z</time>
      </trkpt>
      <trkpt lat="43.4837" lon="6.57225">
        <ele>40.1</ele>
        <time>2025-02-26T13:47:48Z</time>
      </trkpt>
      <trkpt lat="43.4837" lon="6.57226">
        <ele>40.4</ele>
        <time>2025-02-26T13:47:49Z</time>
      </trkpt>
      <trkpt lat="43.48369" lon="6.57228">
        <ele>40.5</ele>
        <time>2025-02-26T13:47:50Z</time>
      </trkpt>
      <trkpt lat="43.48368" lon="6.57229">
        <ele>40.6</ele>
        <time>2025-02-26T13:47:51Z</time>
      </trkpt>
      <trkpt lat="43.48367" lon="6.5723">
        <ele>40.7</ele>
        <time>2025-02-26T13:47:52Z</time>
      </trkpt>
      <trkpt lat="43.48366" lon="6.57231">
        <ele>40.7</ele>
        <time>2025-02-26T13:47:53Z</time>
      </trkpt>
      <trkpt lat="43.48366" lon="6.57232">
        <ele>40.8</ele>
        <time>2025-02-26T13:47:54Z</time>
      </trkpt>
      <trkpt lat="43.48366" lon="6.57234">
        <ele>40.8</ele>
        <time>2025-02-26T13:47:55Z</time>
      </trkpt>
      <trkpt lat="43.48365" lon="6.57235">
        <ele>40.9</ele>
        <time>2025-02-26T13:47:56Z</time>
      </trkpt>
      <trkpt lat="43.48364" lon="6.57236">
        <ele>41</ele>
        <time>2025-02-26T13:47:57Z</time>
      </trkpt>
      <trkpt lat="43.48364" lon="6.57238">
        <ele>41.3</ele>
        <time>2025-02-26T13:47:58Z</time>
      </trkpt>
      <trkpt lat="43.48364" lon="6.5724">
        <ele>41.4</ele>
        <time>2025-02-26T13:47:59Z</time>
      </trkpt>
      <trkpt lat="43.48363" lon="6.57241">
        <ele>41.4</ele>
        <time>2025-02-26T13:48:00Z</time>
      </trkpt>
      <trkpt lat="43.48363" lon="6.57243">
        <ele>41.5</ele>
        <time>2025-02-26T13:48:01Z</time>
      </trkpt>
      <trkpt lat="43.48363" lon="6.57244">
        <ele>41.6</ele>
        <time>2025-02-26T13:48:02Z</time>
      </trkpt>
      <trkpt lat="43.48362" lon="6.57245">
        <ele>41.6</ele>
        <time>2025-02-26T13:48:03Z</time>
      </trkpt>
      <trkpt lat="43.48361" lon="6.57246">
        <ele>41.8</ele>
        <time>2025-02-26T13:48:04Z</time>
      </trkpt>
      <trkpt lat="43.48361" lon="6.57248">
        <ele>41.9</ele>
        <time>2025-02-26T13:48:05Z</time>
      </trkpt>
      <trkpt lat="43.4836" lon="6.57249">
        <ele>42</ele>
        <time>2025-02-26T13:48:06Z</time>
      </trkpt>
      <trkpt lat="43.4836" lon="6.5725">
        <ele>42.4</ele>
        <time>2025-02-26T13:48:07Z</time>
      </trkpt>
      <trkpt lat="43.4836" lon="6.57252">
        <ele>42.6</ele>
        <time>2025-02-26T13:48:08Z</time>
      </trkpt>
      <trkpt lat="43.4836" lon="6.57254">
        <ele>42.6</ele>
        <time>2025-02-26T13:48:09Z</time>
      </trkpt>
      <trkpt lat="43.4836" lon="6.57255">
        <ele>42.8</ele>
        <time>2025-02-26T13:48:10Z</time>
      </trkpt>
      <trkpt lat="43.4836" lon="6.57256">
        <ele>42.9</ele>
        <time>2025-02-26T13:48:11Z</time>
      </trkpt>
      <trkpt lat="43.48359" lon="6.57257">
        <ele>43.1</ele>
        <time>2025-02-26T13:48:12Z</time>
      </trkpt>
      <trkpt lat="43.48359" lon="6.57259">
        <ele>43.2</ele>
        <time>2025-02-26T13:48:13Z</time>
      </trkpt>
      <trkpt lat="43.48358" lon="6.5726">
        <ele>43.2</ele>
        <time>2025-02-26T13:48:14Z</time>
      </trkpt>
      <trkpt lat="43.48358" lon="6.57261">
        <ele>43.4</ele>
        <time>2025-02-26T13:48:15Z</time>
      </trkpt>
      <trkpt lat="43.48357" lon="6.57263">
        <ele>43.6</ele>
        <time>2025-02-26T13:48:16Z</time>
      </trkpt>
      <trkpt lat="43.48357" lon="6.57264">
        <ele>43.9</ele>
        <time>2025-02-26T13:48:17Z</time>
      </trkpt>
      <trkpt lat="43.48357" lon="6.57265">
        <ele>44.1</ele>
        <time>2025-02-26T13:48:18Z</time>
      </trkpt>
      <trkpt lat="43.48356" lon="6.57267">
        <ele>44.1</ele>
        <time>2025-02-26T13:48:19Z</time>
      </trkpt>
      <trkpt lat="43.48355" lon="6.57268">
        <ele>44.3</ele>
        <time>2025-02-26T13:48:20Z</time>
      </trkpt>
      <trkpt lat="43.48355" lon="6.57269">
        <ele>44.4</ele>
        <time>2025-02-26T13:48:21Z</time>
      </trkpt>
      <trkpt lat="43.48355" lon="6.5727">
        <ele>44.6</ele>
        <time>2025-02-26T13:48:22Z</time>
      </trkpt>
      <trkpt lat="43.48355" lon="6.57272">
        <ele>44.7</ele>
        <time>2025-02-26T13:48:23Z</time>
      </trkpt>
      <trkpt lat="43.48355" lon="6.57273">
        <ele>44.8</ele>
        <time>2025-02-26T13:48:24Z</time>
      </trkpt>
      <trkpt lat="43.48355" lon="6.57275">
        <ele>45</ele>
        <time>2025-02-26T13:48:25Z</time>
      </trkpt>
      <trkpt lat="43.48355" lon="6.57276">
        <ele>45.2</ele>
        <time>2025-02-26T13:48:26Z</time>
      </trkpt>
      <trkpt lat="43.48355" lon="6.57277">
        <ele>45.4</ele>
        <time>2025-02-26T13:48:27Z</time>
      </trkpt>
      <trkpt lat="43.48355" lon="6.57278">
        <ele>45.5</ele>
        <time>2025-02-26T13:48:28Z</time>
      </trkpt>
      <trkpt lat="43.48355" lon="6.5728">
        <ele>45.6</ele>
        <time>2025-02-26T13:48:29Z</time>
      </trkpt>
      <trkpt lat="43.48354" lon="6.57281">
        <ele>45.7</ele>
        <time>2025-02-26T13:48:30Z</time>
      </trkpt>
      <trkpt lat="43.48354" lon="6.57283">
        <ele>45.9</ele>
        <time>2025-02-26T13:48:31Z</time>
      </trkpt>
      <trkpt lat="43.48354" lon="6.57285">
        <ele>46.1</ele>
        <time>2025-02-26T13:48:32Z</time>
      </trkpt>
      <trkpt lat="43.48354" lon="6.57287">
        <ele>46.2</ele>
        <time>2025-02-26T13:48:33Z</time>
      </trkpt>
      <trkpt lat="43.48354" lon="6.57288">
        <ele>46.3</ele>
        <time>2025-02-26T13:48:34Z</time>
      </trkpt>
      <trkpt lat="43.48355" lon="6.5729">
        <ele>46.4</ele>
        <time>2025-02-26T13:48:35Z</time>
      </trkpt>
      <trkpt lat="43.48355" lon="6.57292">
        <ele>46.5</ele>
        <time>2025-02-26T13:48:36Z</time>
      </trkpt>
      <trkpt lat="43.48355" lon="6.57294">
        <ele>46.5</ele>
        <time>2025-02-26T13:48:37Z</time>
      </trkpt>
      <trkpt lat="43.48355" lon="6.57296">
        <ele>46.6</ele>
        <time>2025-02-26T13:48:38Z</time>
      </trkpt>
      <trkpt lat="43.48356" lon="6.57297">
        <ele>46.7</ele>
        <time>2025-02-26T13:48:39Z</time>
      </trkpt>
      <trkpt lat="43.48357" lon="6.57298">
        <ele>46.8</ele>
        <time>2025-02-26T13:48:40Z</time>
      </trkpt>
      <trkpt lat="43.48358" lon="6.57299">
        <ele>46.9</ele>
        <time>2025-02-26T13:48:41Z</time>
      </trkpt>
      <trkpt lat="43.48359" lon="6.57301">
        <ele>47</ele>
        <time>2025-02-26T13:48:42Z</time>
      </trkpt>
      <trkpt lat="43.48359" lon="6.57302">
        <ele>47.2</ele>
        <time>2025-02-26T13:48:43Z</time>
      </trkpt>
      <trkpt lat="43.4836" lon="6.57303">
        <ele>47.3</ele>
        <time>2025-02-26T13:48:44Z</time>
      </trkpt>
      <trkpt lat="43.48362" lon="6.57305">
        <ele>47.4</ele>
        <time>2025-02-26T13:48:45Z</time>
      </trkpt>
      <trkpt lat="43.48362" lon="6.57306">
        <ele>47.4</ele>
        <time>2025-02-26T13:48:46Z</time>
      </trkpt>
      <trkpt lat="43.48363" lon="6.57307">
        <ele>47.5</ele>
        <time>2025-02-26T13:48:47Z</time>
      </trkpt>
      <trkpt lat="43.48364" lon="6.57308">
        <ele>47.5</ele>
        <time>2025-02-26T13:48:48Z</time>
      </trkpt>
      <trkpt lat="43.48365" lon="6.5731">
        <ele>47.6</ele>
        <time>2025-02-26T13:48:49Z</time>
      </trkpt>
      <trkpt lat="43.48365" lon="6.57311">
        <ele>47.8</ele>
        <time>2025-02-26T13:48:50Z</time>
      </trkpt>
      <trkpt lat="43.48366" lon="6.57313">
        <ele>47.9</ele>
        <time>2025-02-26T13:48:51Z</time>
      </trkpt>
      <trkpt lat="43.48367" lon="6.57315">
        <ele>48.1</ele>
        <time>2025-02-26T13:48:52Z</time>
      </trkpt>
      <trkpt lat="43.48367" lon="6.57317">
        <ele>48.1</ele>
        <time>2025-02-26T13:48:53Z</time>
      </trkpt>
      <trkpt lat="43.48368" lon="6.57319">
        <ele>48.1</ele>
        <time>2025-02-26T13:48:54Z</time>
      </trkpt>
      <trkpt lat="43.48369" lon="6.5732">
        <ele>48</ele>
        <time>2025-02-26T13:48:55Z</time>
      </trkpt>
      <trkpt lat="43.4837" lon="6.57321">
        <ele>48</ele>
        <time>2025-02-26T13:48:56Z</time>
      </trkpt>
      <trkpt lat="43.4837" lon="6.57323">
        <ele>48.1</ele>
        <time>2025-02-26T13:48:57Z</time>
      </trkpt>
      <trkpt lat="43.48371" lon="6.57324">
        <ele>48.1</ele>
        <time>2025-02-26T13:48:58Z</time>
      </trkpt>
      <trkpt lat="43.48371" lon="6.57326">
        <ele>48.1</ele>
        <time>2025-02-26T13:48:59Z</time>
      </trkpt>
      <trkpt lat="43.48371" lon="6.57328">
        <ele>48.3</ele>
        <time>2025-02-26T13:49:00Z</time>
      </trkpt>
      <trkpt lat="43.48372" lon="6.5733">
        <ele>48.2</ele>
        <time>2025-02-26T13:49:01Z</time>
      </trkpt>
      <trkpt lat="43.48372" lon="6.57331">
        <ele>48.2</ele>
        <time>2025-02-26T13:49:02Z</time>
      </trkpt>
      <trkpt lat="43.48373" lon="6.57332">
        <ele>48.2</ele>
        <time>2025-02-26T13:49:03Z</time>
      </trkpt>
      <trkpt lat="43.48373" lon="6.57334">
        <ele>48.2</ele>
        <time>2025-02-26T13:49:04Z</time>
      </trkpt>
      <trkpt lat="43.48373" lon="6.57336">
        <ele>48.3</ele>
        <time>2025-02-26T13:49:05Z</time>
      </trkpt>
      <trkpt lat="43.48374" lon="6.57337">
        <ele>48.4</ele>
        <time>2025-02-26T13:49:06Z</time>
      </trkpt>
      <trkpt lat="43.48374" lon="6.57339">
        <ele>48.5</ele>
        <time>2025-02-26T13:49:07Z</time>
      </trkpt>
      <trkpt lat="43.48374" lon="6.57341">
        <ele>48.5</ele>
        <time>2025-02-26T13:49:08Z</time>
      </trkpt>
      <trkpt lat="43.48374" lon="6.57342">
        <ele>48.6</ele>
        <time>2025-02-26T13:49:09Z</time>
      </trkpt>
      <trkpt lat="43.48373" lon="6.57344">
        <ele>48.7</ele>
        <time>2025-02-26T13:49:10Z</time>
      </trkpt>
      <trkpt lat="43.48373" lon="6.57346">
        <ele>48.8</ele>
        <time>2025-02-26T13:49:11Z</time>
      </trkpt>
      <trkpt lat="43.48373" lon="6.57348">
        <ele>48.8</ele>
        <time>2025-02-26T13:49:12Z</time>
      </trkpt>
      <trkpt lat="43.48372" lon="6.57349">
        <ele>48.9</ele>
        <time>2025-02-26T13:49:13Z</time>
      </trkpt>
      <trkpt lat="43.48372" lon="6.57351">
        <ele>49</ele>
        <time>2025-02-26T13:49:14Z</time>
      </trkpt>
      <trkpt lat="43.48373" lon="6.57353">
        <ele>49.1</ele>
        <time>2025-02-26T13:49:15Z</time>
      </trkpt>
      <trkpt lat="43.48373" lon="6.57354">
        <ele>49.1</ele>
        <time>2025-02-26T13:49:16Z</time>
      </trkpt>
      <trkpt lat="43.48374" lon="6.57355">
        <ele>49.2</ele>
        <time>2025-02-26T13:49:17Z</time>
      </trkpt>
      <trkpt lat="43.48374" lon="6.57357">
        <ele>49.2</ele>
        <time>2025-02-26T13:49:18Z</time>
      </trkpt>
      <trkpt lat="43.48374" lon="6.57359">
        <ele>49.3</ele>
        <time>2025-02-26T13:49:19Z</time>
      </trkpt>
      <trkpt lat="43.48375" lon="6.57361">
        <ele>49.4</ele>
        <time>2025-02-26T13:49:20Z</time>
      </trkpt>
      <trkpt lat="43.48375" lon="6.57362">
        <ele>49.3</ele>
        <time>2025-02-26T13:49:21Z</time>
      </trkpt>
      <trkpt lat="43.48375" lon="6.57364">
        <ele>49.3</ele>
        <time>2025-02-26T13:49:22Z</time>
      </trkpt>
      <trkpt lat="43.48375" lon="6.57366">
        <ele>49.4</ele>
        <time>2025-02-26T13:49:23Z</time>
      </trkpt>
      <trkpt lat="43.48375" lon="6.57368">
        <ele>49.6</ele>
        <time>2025-02-26T13:49:24Z</time>
      </trkpt>
      <trkpt lat="43.48375" lon="6.57369">
        <ele>49.7</ele>
        <time>2025-02-26T13:49:25Z</time>
      </trkpt>
      <trkpt lat="43.48375" lon="6.57371">
        <ele>49.8</ele>
        <time>2025-02-26T13:49:26Z</time>
      </trkpt>
      <trkpt lat="43.48375" lon="6.57372">
        <ele>49.9</ele>
        <time>2025-02-26T13:49:27Z</time>
      </trkpt>
      <trkpt lat="43.48376" lon="6.57374">
        <ele>50</ele>
        <time>2025-02-26T13:49:28Z</time>
      </trkpt>
      <trkpt lat="43.48376" lon="6.57376">
        <ele>50.1</ele>
        <time>2025-02-26T13:49:29Z</time>
      </trkpt>
      <trkpt lat="43.48376" lon="6.57378">
        <ele>50.2</ele>
        <time>2025-02-26T13:49:30Z</time>
      </trkpt>
      <trkpt lat="43.48376" lon="6.57379">
        <ele>50.2</ele>
        <time>2025-02-26T13:49:31Z</time>
      </trkpt>
      <trkpt lat="43.48376" lon="6.57381">
        <ele>50.2</ele>
        <time>2025-02-26T13:49:32Z</time>
      </trkpt>
      <trkpt lat="43.48377" lon="6.57383">
        <ele>50.2</ele>
        <time>2025-02-26T13:49:33Z</time>
      </trkpt>
      <trkpt lat="43.48377" lon="6.57385">
        <ele>50.3</ele>
        <time>2025-02-26T13:49:34Z</time>
      </trkpt>
      <trkpt lat="43.48377" lon="6.57386">
        <ele>50.4</ele>
        <time>2025-02-26T13:49:35Z</time>
      </trkpt>
      <trkpt lat="43.48378" lon="6.57388">
        <ele>50.5</ele>
        <time>2025-02-26T13:49:36Z</time>
      </trkpt>
      <trkpt lat="43.48378" lon="6.5739">
        <ele>50.6</ele>
        <time>2025-02-26T13:49:37Z</time>
      </trkpt>
      <trkpt lat="43.48379" lon="6.57391">
        <ele>50.7</ele>
        <time>2025-02-26T13:49:38Z</time>
      </trkpt>
      <trkpt lat="43.48379" lon="6.57393">
        <ele>50.6</ele>
        <time>2025-02-26T13:49:39Z</time>
      </trkpt>
      <trkpt lat="43.48379" lon="6.57395">
        <ele>50.6</ele>
        <time>2025-02-26T13:49:40Z</time>
      </trkpt>
      <trkpt lat="43.4838" lon="6.57396">
        <ele>50.6</ele>
        <time>2025-02-26T13:49:41Z</time>
      </trkpt>
      <trkpt lat="43.4838" lon="6.57398">
        <ele>50.6</ele>
        <time>2025-02-26T13:49:42Z</time>
      </trkpt>
      <trkpt lat="43.48381" lon="6.57399">
        <ele>50.6</ele>
        <time>2025-02-26T13:49:43Z</time>
      </trkpt>
      <trkpt lat="43.48381" lon="6.57401">
        <ele>50.7</ele>
        <time>2025-02-26T13:49:44Z</time>
      </trkpt>
      <trkpt lat="43.48382" lon="6.57402">
        <ele>50.8</ele>
        <time>2025-02-26T13:49:45Z</time>
      </trkpt>
      <trkpt lat="43.48382" lon="6.57404">
        <ele>50.9</ele>
        <time>2025-02-26T13:49:46Z</time>
      </trkpt>
      <trkpt lat="43.48382" lon="6.57406">
        <ele>51</ele>
        <time>2025-02-26T13:49:47Z</time>
      </trkpt>
      <trkpt lat="43.48382" lon="6.57407">
        <ele>51.1</ele>
        <time>2025-02-26T13:49:48Z</time>
      </trkpt>
      <trkpt lat="43.48383" lon="6.57409">
        <ele>51.1</ele>
        <time>2025-02-26T13:49:49Z</time>
      </trkpt>
      <trkpt lat="43.48383" lon="6.5741">
        <ele>51.2</ele>
        <time>2025-02-26T13:49:50Z</time>
      </trkpt>
      <trkpt lat="43.48383" lon="6.5741">
        <ele>51.2</ele>
        <time>2025-02-26T13:49:51Z</time>
      </trkpt>
      <trkpt lat="43.48383" lon="6.5741">
        <ele>51.2</ele>
        <time>2025-02-26T13:49:52Z</time>
      </trkpt>
      <trkpt lat="43.48383" lon="6.57411">
        <ele>51.3</ele>
        <time>2025-02-26T13:49:53Z</time>
      </trkpt>
      <trkpt lat="43.48383" lon="6.57411">
        <ele>51.4</ele>
        <time>2025-02-26T13:49:54Z</time>
      </trkpt>
      <trkpt lat="43.48383" lon="6.57411">
        <ele>51.4</ele>
        <time>2025-02-26T13:49:55Z</time>
      </trkpt>
      <trkpt lat="43.48383" lon="6.57411">
        <ele>51.5</ele>
        <time>2025-02-26T13:49:56Z</time>
      </trkpt>
      <trkpt lat="43.48383" lon="6.57411">
        <ele>51.5</ele>
        <time>2025-02-26T13:49:57Z</time>
      </trkpt>
      <trkpt lat="43.48383" lon="6.57411">
        <ele>51.6</ele>
        <time>2025-02-26T13:49:58Z</time>
      </trkpt>
      <trkpt lat="43.48383" lon="6.57411">
        <ele>51.7</ele>
        <time>2025-02-26T13:49:59Z</time>
      </trkpt>
      <trkpt lat="43.48383" lon="6.57412">
        <ele>51.6</ele>
        <time>2025-02-26T13:50:00Z</time>
      </trkpt>
      <trkpt lat="43.48383" lon="6.57412">
        <ele>51.6</ele>
        <time>2025-02-26T13:50:01Z</time>
      </trkpt>
      <trkpt lat="43.48383" lon="6.57412">
        <ele>51.5</ele>
        <time>2025-02-26T13:50:02Z</time>
      </trkpt>
      <trkpt lat="43.48383" lon="6.57412">
        <ele>51.5</ele>
        <time>2025-02-26T13:50:03Z</time>
      </trkpt>
      <trkpt lat="43.48383" lon="6.57413">
        <ele>51.4</ele>
        <time>2025-02-26T13:50:04Z</time>
      </trkpt>
      <trkpt lat="43.48383" lon="6.57413">
        <ele>51.4</ele>
        <time>2025-02-26T13:50:05Z</time>
      </trkpt>
      <trkpt lat="43.48383" lon="6.57413">
        <ele>51.4</ele>
        <time>2025-02-26T13:50:06Z</time>
      </trkpt>
      <trkpt lat="43.48383" lon="6.57413">
        <ele>51.4</ele>
        <time>2025-02-26T13:50:07Z</time>
      </trkpt>
      <trkpt lat="43.48383" lon="6.57413">
        <ele>51.5</ele>
        <time>2025-02-26T13:50:08Z</time>
      </trkpt>
      <trkpt lat="43.48383" lon="6.57413">
        <ele>51.4</ele>
        <time>2025-02-26T13:50:09Z</time>
      </trkpt>
      <trkpt lat="43.48384" lon="6.57413">
        <ele>51.4</ele>
        <time>2025-02-26T13:50:10Z</time>
      </trkpt>
      <trkpt lat="43.48383" lon="6.57414">
        <ele>51.6</ele>
        <time>2025-02-26T13:50:11Z</time>
      </trkpt>
      <trkpt lat="43.48384" lon="6.57414">
        <ele>51.6</ele>
        <time>2025-02-26T13:50:12Z</time>
      </trkpt>
      <trkpt lat="43.48384" lon="6.57414">
        <ele>51.7</ele>
        <time>2025-02-26T13:50:13Z</time>
      </trkpt>
      <trkpt lat="43.48383" lon="6.57414">
        <ele>51.6</ele>
        <time>2025-02-26T13:50:14Z</time>
      </trkpt>
      <trkpt lat="43.48383" lon="6.57414">
        <ele>51.7</ele>
        <time>2025-02-26T13:50:15Z</time>
      </trkpt>
      <trkpt lat="43.48383" lon="6.57414">
        <ele>51.7</ele>
        <time>2025-02-26T13:50:16Z</time>
      </trkpt>
      <trkpt lat="43.48383" lon="6.57414">
        <ele>51.8</ele>
        <time>2025-02-26T13:50:17Z</time>
      </trkpt>
      <trkpt lat="43.48383" lon="6.57415">
        <ele>51.8</ele>
        <time>2025-02-26T13:50:18Z</time>
      </trkpt>
      <trkpt lat="43.48383" lon="6.57415">
        <ele>51.7</ele>
        <time>2025-02-26T13:50:19Z</time>
      </trkpt>
      <trkpt lat="43.48383" lon="6.57415">
        <ele>51.7</ele>
        <time>2025-02-26T13:50:20Z</time>
      </trkpt>
      <trkpt lat="43.48383" lon="6.57415">
        <ele>51.7</ele>
        <time>2025-02-26T13:50:21Z</time>
      </trkpt>
      <trkpt lat="43.48383" lon="6.57415">
        <ele>51.7</ele>
        <time>2025-02-26T13:50:22Z</time>
      </trkpt>
      <trkpt lat="43.48383" lon="6.57415">
        <ele>51.7</ele>
        <time>2025-02-26T13:50:23Z</time>
      </trkpt>
      <trkpt lat="43.48383" lon="6.57415">
        <ele>51.7</ele>
        <time>2025-02-26T13:50:24Z</time>
      </trkpt>
      <trkpt lat="43.48383" lon="6.57415">
        <ele>51.6</ele>
        <time>2025-02-26T13:50:25Z</time>
      </trkpt>
      <trkpt lat="43.48383" lon="6.57415">
        <ele>51.6</ele>
        <time>2025-02-26T13:50:26Z</time>
      </trkpt>
      <trkpt lat="43.48383" lon="6.57415">
        <ele>51.6</ele>
        <time>2025-02-26T13:50:27Z</time>
      </trkpt>
      <trkpt lat="43.48384" lon="6.57416">
        <ele>51.7</ele>
        <time>2025-02-26T13:50:28Z</time>
      </trkpt>
      <trkpt lat="43.48384" lon="6.57416">
        <ele>51.8</ele>
        <time>2025-02-26T13:50:29Z</time>
      </trkpt>
      <trkpt lat="43.48384" lon="6.57416">
        <ele>51.7</ele>
        <time>2025-02-26T13:50:30Z</time>
      </trkpt>
      <trkpt lat="43.48384" lon="6.57416">
        <ele>51.7</ele>
        <time>2025-02-26T13:50:31Z</time>
      </trkpt>
      <trkpt lat="43.48384" lon="6.57416">
        <ele>51.7</ele>
        <time>2025-02-26T13:50:32Z</time>
      </trkpt>
      <trkpt lat="43.48384" lon="6.57416">
        <ele>51.7</ele>
        <time>2025-02-26T13:50:33Z</time>
      </trkpt>
      <trkpt lat="43.48384" lon="6.57416">
        <ele>51.6</ele>
        <time>2025-02-26T13:50:34Z</time>
      </trkpt>
      <trkpt lat="43.48384" lon="6.57416">
        <ele>51.7</ele>
        <time>2025-02-26T13:50:35Z</time>
      </trkpt>
      <trkpt lat="43.48384" lon="6.57416">
        <ele>51.7</ele>
        <time>2025-02-26T13:50:36Z</time>
      </trkpt>
      <trkpt lat="43.48384" lon="6.57416">
        <ele>51.7</ele>
        <time>2025-02-26T13:50:37Z</time>
      </trkpt>
      <trkpt lat="43.48384" lon="6.57416">
        <ele>51.7</ele>
        <time>2025-02-26T13:50:38Z</time>
      </trkpt>
      <trkpt lat="43.48384" lon="6.57416">
        <ele>51.7</ele>
        <time>2025-02-26T13:50:39Z</time>
      </trkpt>
      <trkpt lat="43.48384" lon="6.57416">
        <ele>51.7</ele>
        <time>2025-02-26T13:50:40Z</time>
      </trkpt>
      <trkpt lat="43.48384" lon="6.57416">
        <ele>51.7</ele>
        <time>2025-02-26T13:50:41Z</time>
      </trkpt>
      <trkpt lat="43.48384" lon="6.57416">
        <ele>51.8</ele>
        <time>2025-02-26T13:50:42Z</time>
      </trkpt>
      <trkpt lat="43.48384" lon="6.57417">
        <ele>51.8</ele>
        <time>2025-02-26T13:50:43Z</time>
      </trkpt>
      <trkpt lat="43.48384" lon="6.57417">
        <ele>51.8</ele>
        <time>2025-02-26T13:50:44Z</time>
      </trkpt>
      <trkpt lat="43.48384" lon="6.57417">
        <ele>51.8</ele>
        <time>2025-02-26T13:50:45Z</time>
      </trkpt>
      <trkpt lat="43.48384" lon="6.57417">
        <ele>51.8</ele>
        <time>2025-02-26T13:50:46Z</time>
      </trkpt>
      <trkpt lat="43.48384" lon="6.57417">
        <ele>51.7</ele>
        <time>2025-02-26T13:50:47Z</time>
      </trkpt>
      <trkpt lat="43.48384" lon="6.57417">
        <ele>51.7</ele>
        <time>2025-02-26T13:50:48Z</time>
      </trkpt>
      <trkpt lat="43.48384" lon="6.57417">
        <ele>51.7</ele>
        <time>2025-02-26T13:50:49Z</time>
      </trkpt>
      <trkpt lat="43.48384" lon="6.57417">
        <ele>51.6</ele>
        <time>2025-02-26T13:50:50Z</time>
      </trkpt>
      <trkpt lat="43.48384" lon="6.57417">
        <ele>51.6</ele>
        <time>2025-02-26T13:50:51Z</time>
      </trkpt>
      <trkpt lat="43.48384" lon="6.57417">
        <ele>51.7</ele>
        <time>2025-02-26T13:50:52Z</time>
      </trkpt>
      <trkpt lat="43.48383" lon="6.57417">
        <ele>51.7</ele>
        <time>2025-02-26T13:50:53Z</time>
      </trkpt>
      <trkpt lat="43.48383" lon="6.57417">
        <ele>51.7</ele>
        <time>2025-02-26T13:50:54Z</time>
      </trkpt>
      <trkpt lat="43.48383" lon="6.57417">
        <ele>51.6</ele>
        <time>2025-02-26T13:50:55Z</time>
      </trkpt>
      <trkpt lat="43.48383" lon="6.57417">
        <ele>51.6</ele>
        <time>2025-02-26T13:50:56Z</time>
      </trkpt>
      <trkpt lat="43.48383" lon="6.57418">
        <ele>51.7</ele>
        <time>2025-02-26T13:50:57Z</time>
      </trkpt>
      <trkpt lat="43.48383" lon="6.57418">
        <ele>51.7</ele>
        <time>2025-02-26T13:50:58Z</time>
      </trkpt>
      <trkpt lat="43.48383" lon="6.57418">
        <ele>51.7</ele>
        <time>2025-02-26T13:50:59Z</time>
      </trkpt>
      <trkpt lat="43.48383" lon="6.57418">
        <ele>51.8</ele>
        <time>2025-02-26T13:51:00Z</time>
      </trkpt>
      <trkpt lat="43.48383" lon="6.57418">
        <ele>51.8</ele>
        <time>2025-02-26T13:51:01Z</time>
      </trkpt>
      <trkpt lat="43.48383" lon="6.57418">
        <ele>51.8</ele>
        <time>2025-02-26T13:51:02Z</time>
      </trkpt>
      <trkpt lat="43.48383" lon="6.57418">
        <ele>51.9</ele>
        <time>2025-02-26T13:51:03Z</time>
      </trkpt>
      <trkpt lat="43.48383" lon="6.57418">
        <ele>51.9</ele>
        <time>2025-02-26T13:51:04Z</time>
      </trkpt>
      <trkpt lat="43.48383" lon="6.57418">
        <ele>51.9</ele>
        <time>2025-02-26T13:51:05Z</time>
      </trkpt>
      <trkpt lat="43.48383" lon="6.57418">
        <ele>51.9</ele>
        <time>2025-02-26T13:51:06Z</time>
      </trkpt>
      <trkpt lat="43.48383" lon="6.57418">
        <ele>51.9</ele>
        <time>2025-02-26T13:51:07Z</time>
      </trkpt>
      <trkpt lat="43.48383" lon="6.57418">
        <ele>51.9</ele>
        <time>2025-02-26T13:51:08Z</time>
      </trkpt>
      <trkpt lat="43.48383" lon="6.57418">
        <ele>51.9</ele>
        <time>2025-02-26T13:51:09Z</time>
      </trkpt>
      <trkpt lat="43.48383" lon="6.57418">
        <ele>51.9</ele>
        <time>2025-02-26T13:51:10Z</time>
      </trkpt>
      <trkpt lat="43.48383" lon="6.57418">
        <ele>51.8</ele>
        <time>2025-02-26T13:51:11Z</time>
      </trkpt>
      <trkpt lat="43.48383" lon="6.57418">
        <ele>51.8</ele>
        <time>2025-02-26T13:51:12Z</time>
      </trkpt>
      <trkpt lat="43.48383" lon="6.57418">
        <ele>51.8</ele>
        <time>2025-02-26T13:51:13Z</time>
      </trkpt>
      <trkpt lat="43.48383" lon="6.57418">
        <ele>51.9</ele>
        <time>2025-02-26T13:51:14Z</time>
      </trkpt>
      <trkpt lat="43.48383" lon="6.57418">
        <ele>52</ele>
        <time>2025-02-26T13:51:15Z</time>
      </trkpt>
      <trkpt lat="43.48383" lon="6.57418">
        <ele>52</ele>
        <time>2025-02-26T13:51:16Z</time>
      </trkpt>
      <trkpt lat="43.48383" lon="6.57418">
        <ele>52</ele>
        <time>2025-02-26T13:51:17Z</time>
      </trkpt>
      <trkpt lat="43.48383" lon="6.57418">
        <ele>52</ele>
        <time>2025-02-26T13:51:18Z</time>
      </trkpt>
      <trkpt lat="43.48383" lon="6.57418">
        <ele>52</ele>
        <time>2025-02-26T13:51:19Z</time>
      </trkpt>
      <trkpt lat="43.48383" lon="6.57418">
        <ele>52.1</ele>
        <time>2025-02-26T13:51:20Z</time>
      </trkpt>
      <trkpt lat="43.48383" lon="6.57418">
        <ele>52.1</ele>
        <time>2025-02-26T13:51:21Z</time>
      </trkpt>
      <trkpt lat="43.48383" lon="6.57418">
        <ele>52.1</ele>
        <time>2025-02-26T13:51:22Z</time>
      </trkpt>
      <trkpt lat="43.48383" lon="6.57418">
        <ele>52.1</ele>
        <time>2025-02-26T13:51:23Z</time>
      </trkpt>
      <trkpt lat="43.48383" lon="6.57418">
        <ele>52.1</ele>
        <time>2025-02-26T13:51:24Z</time>
      </trkpt>
      <trkpt lat="43.48383" lon="6.57418">
        <ele>52.1</ele>
        <time>2025-02-26T13:51:25Z</time>
      </trkpt>
      <trkpt lat="43.48383" lon="6.57418">
        <ele>52</ele>
        <time>2025-02-26T13:51:26Z</time>
      </trkpt>
      <trkpt lat="43.48383" lon="6.57418">
        <ele>52</ele>
        <time>2025-02-26T13:51:27Z</time>
      </trkpt>
      <trkpt lat="43.48383" lon="6.57418">
        <ele>52</ele>
        <time>2025-02-26T13:51:28Z</time>
      </trkpt>
      <trkpt lat="43.48383" lon="6.57418">
        <ele>52</ele>
        <time>2025-02-26T13:51:29Z</time>
      </trkpt>
      <trkpt lat="43.48383" lon="6.57418">
        <ele>52</ele>
        <time>2025-02-26T13:51:30Z</time>
      </trkpt>
      <trkpt lat="43.48383" lon="6.57418">
        <ele>51.9</ele>
        <time>2025-02-26T13:51:31Z</time>
      </trkpt>
      <trkpt lat="43.48383" lon="6.57418">
        <ele>52</ele>
        <time>2025-02-26T13:51:32Z</time>
      </trkpt>
      <trkpt lat="43.48383" lon="6.57419">
        <ele>52</ele>
        <time>2025-02-26T13:51:33Z</time>
      </trkpt>
      <trkpt lat="43.48383" lon="6.57419">
        <ele>52</ele>
        <time>2025-02-26T13:51:34Z</time>
      </trkpt>
      <trkpt lat="43.48383" lon="6.57419">
        <ele>52</ele>
        <time>2025-02-26T13:51:35Z</time>
      </trkpt>
      <trkpt lat="43.48383" lon="6.57419">
        <ele>52</ele>
        <time>2025-02-26T13:51:36Z</time>
      </trkpt>
      <trkpt lat="43.48383" lon="6.57419">
        <ele>52</ele>
        <time>2025-02-26T13:51:37Z</time>
      </trkpt>
      <trkpt lat="43.48383" lon="6.57419">
        <ele>52</ele>
        <time>2025-02-26T13:51:38Z</time>
      </trkpt>
      <trkpt lat="43.48383" lon="6.57419">
        <ele>52</ele>
        <time>2025-02-26T13:51:39Z</time>
      </trkpt>
      <trkpt lat="43.48383" lon="6.57419">
        <ele>52.1</ele>
        <time>2025-02-26T13:51:40Z</time>
      </trkpt>
      <trkpt lat="43.48383" lon="6.57419">
        <ele>52.1</ele>
        <time>2025-02-26T13:51:41Z</time>
      </trkpt>
      <trkpt lat="43.48383" lon="6.57419">
        <ele>52.1</ele>
        <time>2025-02-26T13:51:42Z</time>
      </trkpt>
      <trkpt lat="43.48383" lon="6.57419">
        <ele>52.1</ele>
        <time>2025-02-26T13:51:43Z</time>
      </trkpt>
      <trkpt lat="43.48383" lon="6.57419">
        <ele>52</ele>
        <time>2025-02-26T13:51:44Z</time>
      </trkpt>
      <trkpt lat="43.48383" lon="6.57419">
        <ele>52</ele>
        <time>2025-02-26T13:51:45Z</time>
      </trkpt>
      <trkpt lat="43.48383" lon="6.57419">
        <ele>51.9</ele>
        <time>2025-02-26T13:51:46Z</time>
      </trkpt>
      <trkpt lat="43.48383" lon="6.57419">
        <ele>52</ele>
        <time>2025-02-26T13:51:47Z</time>
      </trkpt>
      <trkpt lat="43.48383" lon="6.57419">
        <ele>51.9</ele>
        <time>2025-02-26T13:51:48Z</time>
      </trkpt>
      <trkpt lat="43.48383" lon="6.57419">
        <ele>51.9</ele>
        <time>2025-02-26T13:51:49Z</time>
      </trkpt>
      <trkpt lat="43.48383" lon="6.57419">
        <ele>52</ele>
        <time>2025-02-26T13:51:50Z</time>
      </trkpt>
      <trkpt lat="43.48383" lon="6.57419">
        <ele>52.1</ele>
        <time>2025-02-26T13:51:51Z</time>
      </trkpt>
      <trkpt lat="43.48383" lon="6.57419">
        <ele>52.1</ele>
        <time>2025-02-26T13:51:52Z</time>
      </trkpt>
      <trkpt lat="43.48383" lon="6.57419">
        <ele>52.2</ele>
        <time>2025-02-26T13:51:53Z</time>
      </trkpt>
      <trkpt lat="43.48383" lon="6.57418">
        <ele>52.2</ele>
        <time>2025-02-26T13:51:54Z</time>
      </trkpt>
      <trkpt lat="43.48383" lon="6.57418">
        <ele>52.1</ele>
        <time>2025-02-26T13:51:55Z</time>
      </trkpt>
      <trkpt lat="43.48383" lon="6.57418">
        <ele>52.1</ele>
        <time>2025-02-26T13:51:56Z</time>
      </trkpt>
      <trkpt lat="43.48383" lon="6.57418">
        <ele>52.1</ele>
        <time>2025-02-26T13:51:57Z</time>
      </trkpt>
      <trkpt lat="43.48383" lon="6.57418">
        <ele>52.1</ele>
        <time>2025-02-26T13:51:58Z</time>
      </trkpt>
      <trkpt lat="43.48383" lon="6.57418">
        <ele>52.2</ele>
        <time>2025-02-26T13:51:59Z</time>
      </trkpt>
      <trkpt lat="43.48383" lon="6.57418">
        <ele>52.1</ele>
        <time>2025-02-26T13:52:00Z</time>
      </trkpt>
      <trkpt lat="43.48383" lon="6.57418">
        <ele>52</ele>
        <time>2025-02-26T13:52:01Z</time>
      </trkpt>
      <trkpt lat="43.48383" lon="6.57418">
        <ele>52.2</ele>
        <time>2025-02-26T13:52:02Z</time>
      </trkpt>
      <trkpt lat="43.48384" lon="6.57418">
        <ele>52.2</ele>
        <time>2025-02-26T13:52:03Z</time>
      </trkpt>
      <trkpt lat="43.48384" lon="6.57418">
        <ele>52.3</ele>
        <time>2025-02-26T13:52:04Z</time>
      </trkpt>
      <trkpt lat="43.48384" lon="6.57418">
        <ele>52.3</ele>
        <time>2025-02-26T13:52:05Z</time>
      </trkpt>
      <trkpt lat="43.48384" lon="6.57418">
        <ele>52.3</ele>
        <time>2025-02-26T13:52:06Z</time>
      </trkpt>
      <trkpt lat="43.48384" lon="6.57418">
        <ele>52.3</ele>
        <time>2025-02-26T13:52:07Z</time>
      </trkpt>
      <trkpt lat="43.48384" lon="6.57418">
        <ele>52.3</ele>
        <time>2025-02-26T13:52:08Z</time>
      </trkpt>
      <trkpt lat="43.48384" lon="6.57418">
        <ele>52.4</ele>
        <time>2025-02-26T13:52:09Z</time>
      </trkpt>
      <trkpt lat="43.48384" lon="6.57418">
        <ele>52.4</ele>
        <time>2025-02-26T13:52:10Z</time>
      </trkpt>
      <trkpt lat="43.48384" lon="6.57418">
        <ele>52.5</ele>
        <time>2025-02-26T13:52:11Z</time>
      </trkpt>
      <trkpt lat="43.48384" lon="6.57418">
        <ele>52.5</ele>
        <time>2025-02-26T13:52:12Z</time>
      </trkpt>
      <trkpt lat="43.48384" lon="6.57418">
        <ele>52.6</ele>
        <time>2025-02-26T13:52:13Z</time>
      </trkpt>
      <trkpt lat="43.48384" lon="6.57418">
        <ele>52.5</ele>
        <time>2025-02-26T13:52:14Z</time>
      </trkpt>
      <trkpt lat="43.48384" lon="6.57418">
        <ele>52.5</ele>
        <time>2025-02-26T13:52:15Z</time>
      </trkpt>
      <trkpt lat="43.48384" lon="6.57418">
        <ele>52.5</ele>
        <time>2025-02-26T13:52:16Z</time>
      </trkpt>
      <trkpt lat="43.48384" lon="6.57417">
        <ele>52.5</ele>
        <time>2025-02-26T13:52:17Z</time>
      </trkpt>
      <trkpt lat="43.48384" lon="6.57417">
        <ele>52.5</ele>
        <time>2025-02-26T13:52:18Z</time>
      </trkpt>
      <trkpt lat="43.48384" lon="6.57417">
        <ele>52.5</ele>
        <time>2025-02-26T13:52:19Z</time>
      </trkpt>
      <trkpt lat="43.48384" lon="6.57417">
        <ele>52.5</ele>
        <time>2025-02-26T13:52:20Z</time>
      </trkpt>
      <trkpt lat="43.48384" lon="6.57417">
        <ele>52.4</ele>
        <time>2025-02-26T13:52:21Z</time>
      </trkpt>
      <trkpt lat="43.48384" lon="6.57417">
        <ele>52.3</ele>
        <time>2025-02-26T13:52:22Z</time>
      </trkpt>
      <trkpt lat="43.48384" lon="6.57417">
        <ele>52.3</ele>
        <time>2025-02-26T13:52:23Z</time>
      </trkpt>
      <trkpt lat="43.48384" lon="6.57417">
        <ele>52.3</ele>
        <time>2025-02-26T13:52:24Z</time>
      </trkpt>
      <trkpt lat="43.48384" lon="6.57417">
        <ele>52.2</ele>
        <time>2025-02-26T13:52:25Z</time>
      </trkpt>
      <trkpt lat="43.48384" lon="6.57417">
        <ele>52.3</ele>
        <time>2025-02-26T13:52:26Z</time>
      </trkpt>
      <trkpt lat="43.48384" lon="6.57417">
        <ele>52.4</ele>
        <time>2025-02-26T13:52:27Z</time>
      </trkpt>
      <trkpt lat="43.48384" lon="6.57418">
        <ele>52.5</ele>
        <time>2025-02-26T13:52:28Z</time>
      </trkpt>
      <trkpt lat="43.48384" lon="6.57418">
        <ele>52.5</ele>
        <time>2025-02-26T13:52:29Z</time>
      </trkpt>
      <trkpt lat="43.48384" lon="6.57417">
        <ele>52.5</ele>
        <time>2025-02-26T13:52:30Z</time>
      </trkpt>
      <trkpt lat="43.48384" lon="6.57418">
        <ele>52.5</ele>
        <time>2025-02-26T13:52:31Z</time>
      </trkpt>
      <trkpt lat="43.48384" lon="6.57418">
        <ele>52.4</ele>
        <time>2025-02-26T13:52:32Z</time>
      </trkpt>
      <trkpt lat="43.48384" lon="6.57418">
        <ele>52.4</ele>
        <time>2025-02-26T13:52:33Z</time>
      </trkpt>
      <trkpt lat="43.48384" lon="6.57418">
        <ele>52.4</ele>
        <time>2025-02-26T13:52:34Z</time>
      </trkpt>
      <trkpt lat="43.48384" lon="6.57418">
        <ele>52.4</ele>
        <time>2025-02-26T13:52:35Z</time>
      </trkpt>
      <trkpt lat="43.48384" lon="6.57418">
        <ele>52.3</ele>
        <time>2025-02-26T13:52:36Z</time>
      </trkpt>
      <trkpt lat="43.48384" lon="6.57418">
        <ele>52.2</ele>
        <time>2025-02-26T13:52:37Z</time>
      </trkpt>
      <trkpt lat="43.48384" lon="6.57418">
        <ele>52.2</ele>
        <time>2025-02-26T13:52:38Z</time>
      </trkpt>
      <trkpt lat="43.48384" lon="6.57418">
        <ele>52.1</ele>
        <time>2025-02-26T13:52:39Z</time>
      </trkpt>
      <trkpt lat="43.48384" lon="6.57418">
        <ele>52.2</ele>
        <time>2025-02-26T13:52:40Z</time>
      </trkpt>
      <trkpt lat="43.48384" lon="6.57418">
        <ele>52.2</ele>
        <time>2025-02-26T13:52:41Z</time>
      </trkpt>
      <trkpt lat="43.48384" lon="6.57417">
        <ele>52.3</ele>
        <time>2025-02-26T13:52:42Z</time>
      </trkpt>
      <trkpt lat="43.48384" lon="6.57417">
        <ele>52.3</ele>
        <time>2025-02-26T13:52:43Z</time>
      </trkpt>
      <trkpt lat="43.48384" lon="6.57417">
        <ele>52.3</ele>
        <time>2025-02-26T13:52:44Z</time>
      </trkpt>
      <trkpt lat="43.48384" lon="6.57417">
        <ele>52.2</ele>
        <time>2025-02-26T13:52:45Z</time>
      </trkpt>
      <trkpt lat="43.48384" lon="6.57417">
        <ele>52.2</ele>
        <time>2025-02-26T13:52:46Z</time>
      </trkpt>
      <trkpt lat="43.48384" lon="6.57417">
        <ele>52.2</ele>
        <time>2025-02-26T13:52:47Z</time>
      </trkpt>
      <trkpt lat="43.48384" lon="6.57417">
        <ele>52.2</ele>
        <time>2025-02-26T13:52:48Z</time>
      </trkpt>
      <trkpt lat="43.48384" lon="6.57418">
        <ele>52.1</ele>
        <time>2025-02-26T13:52:49Z</time>
      </trkpt>
      <trkpt lat="43.48384" lon="6.57418">
        <ele>52</ele>
        <time>2025-02-26T13:52:50Z</time>
      </trkpt>
      <trkpt lat="43.48384" lon="6.57417">
        <ele>51.9</ele>
        <time>2025-02-26T13:52:51Z</time>
      </trkpt>
      <trkpt lat="43.48384" lon="6.57417">
        <ele>51.8</ele>
        <time>2025-02-26T13:52:52Z</time>
      </trkpt>
      <trkpt lat="43.48384" lon="6.57417">
        <ele>51.8</ele>
        <time>2025-02-26T13:52:53Z</time>
      </trkpt>
      <trkpt lat="43.48384" lon="6.57417">
        <ele>51.7</ele>
        <time>2025-02-26T13:52:54Z</time>
      </trkpt>
      <trkpt lat="43.48384" lon="6.57417">
        <ele>51.7</ele>
        <time>2025-02-26T13:52:55Z</time>
      </trkpt>
      <trkpt lat="43.48384" lon="6.57417">
        <ele>51.7</ele>
        <time>2025-02-26T13:52:56Z</time>
      </trkpt>
      <trkpt lat="43.48384" lon="6.57417">
        <ele>51.7</ele>
        <time>2025-02-26T13:52:57Z</time>
      </trkpt>
      <trkpt lat="43.48384" lon="6.57417">
        <ele>51.7</ele>
        <time>2025-02-26T13:52:58Z</time>
      </trkpt>
      <trkpt lat="43.48384" lon="6.57417">
        <ele>51.8</ele>
        <time>2025-02-26T13:52:59Z</time>
      </trkpt>
      <trkpt lat="43.48384" lon="6.57417">
        <ele>51.9</ele>
        <time>2025-02-26T13:53:00Z</time>
      </trkpt>
      <trkpt lat="43.48384" lon="6.57417">
        <ele>51.9</ele>
        <time>2025-02-26T13:53:01Z</time>
      </trkpt>
      <trkpt lat="43.48384" lon="6.57417">
        <ele>51.9</ele>
        <time>2025-02-26T13:53:02Z</time>
      </trkpt>
      <trkpt lat="43.48384" lon="6.57417">
        <ele>51.9</ele>
        <time>2025-02-26T13:53:03Z</time>
      </trkpt>
      <trkpt lat="43.48384" lon="6.57417">
        <ele>52</ele>
        <time>2025-02-26T13:53:04Z</time>
      </trkpt>
      <trkpt lat="43.48384" lon="6.57417">
        <ele>52</ele>
        <time>2025-02-26T13:53:05Z</time>
      </trkpt>
      <trkpt lat="43.48384" lon="6.57417">
        <ele>52.1</ele>
        <time>2025-02-26T13:53:06Z</time>
      </trkpt>
      <trkpt lat="43.48384" lon="6.57417">
        <ele>52.1</ele>
        <time>2025-02-26T13:53:07Z</time>
      </trkpt>
      <trkpt lat="43.48384" lon="6.57417">
        <ele>52.1</ele>
        <time>2025-02-26T13:53:08Z</time>
      </trkpt>
      <trkpt lat="43.48384" lon="6.57417">
        <ele>52.1</ele>
        <time>2025-02-26T13:53:09Z</time>
      </trkpt>
      <trkpt lat="43.48384" lon="6.57417">
        <ele>52.1</ele>
        <time>2025-02-26T13:53:10Z</time>
      </trkpt>
      <trkpt lat="43.48384" lon="6.57417">
        <ele>52.1</ele>
        <time>2025-02-26T13:53:11Z</time>
      </trkpt>
      <trkpt lat="43.48384" lon="6.57417">
        <ele>52.1</ele>
        <time>2025-02-26T13:53:12Z</time>
      </trkpt>
      <trkpt lat="43.48384" lon="6.57417">
        <ele>52.1</ele>
        <time>2025-02-26T13:53:13Z</time>
      </trkpt>
      <trkpt lat="43.48384" lon="6.57417">
        <ele>52.2</ele>
        <time>2025-02-26T13:53:14Z</time>
      </trkpt>
      <trkpt lat="43.48384" lon="6.57417">
        <ele>52.3</ele>
        <time>2025-02-26T13:53:15Z</time>
      </trkpt>
      <trkpt lat="43.48384" lon="6.57417">
        <ele>52.3</ele>
        <time>2025-02-26T13:53:16Z</time>
      </trkpt>
      <trkpt lat="43.48384" lon="6.57417">
        <ele>52.4</ele>
        <time>2025-02-26T13:53:17Z</time>
      </trkpt>
      <trkpt lat="43.48384" lon="6.57417">
        <ele>52.4</ele>
        <time>2025-02-26T13:53:18Z</time>
      </trkpt>
      <trkpt lat="43.48384" lon="6.57417">
        <ele>52.4</ele>
        <time>2025-02-26T13:53:19Z</time>
      </trkpt>
      <trkpt lat="43.48384" lon="6.57417">
        <ele>52.4</ele>
        <time>2025-02-26T13:53:20Z</time>
      </trkpt>
      <trkpt lat="43.48384" lon="6.57417">
        <ele>52.5</ele>
        <time>2025-02-26T13:53:21Z</time>
      </trkpt>
      <trkpt lat="43.48384" lon="6.57417">
        <ele>52.4</ele>
        <time>2025-02-26T13:53:22Z</time>
      </trkpt>
      <trkpt lat="43.48384" lon="6.57417">
        <ele>52.5</ele>
        <time>2025-02-26T13:53:23Z</time>
      </trkpt>
      <trkpt lat="43.48384" lon="6.57417">
        <ele>52.5</ele>
        <time>2025-02-26T13:53:24Z</time>
      </trkpt>
      <trkpt lat="43.48384" lon="6.57417">
        <ele>52.5</ele>
        <time>2025-02-26T13:53:25Z</time>
      </trkpt>
      <trkpt lat="43.48384" lon="6.57417">
        <ele>52.5</ele>
        <time>2025-02-26T13:53:26Z</time>
      </trkpt>
      <trkpt lat="43.48384" lon="6.57417">
        <ele>52.5</ele>
        <time>2025-02-26T13:53:27Z</time>
      </trkpt>
      <trkpt lat="43.48384" lon="6.57417">
        <ele>52.5</ele>
        <time>2025-02-26T13:53:28Z</time>
      </trkpt>
      <trkpt lat="43.48384" lon="6.57417">
        <ele>52.5</ele>
        <time>2025-02-26T13:53:29Z</time>
      </trkpt>
      <trkpt lat="43.48384" lon="6.57417">
        <ele>52.4</ele>
        <time>2025-02-26T13:53:30Z</time>
      </trkpt>
      <trkpt lat="43.48384" lon="6.57417">
        <ele>52.4</ele>
        <time>2025-02-26T13:53:31Z</time>
      </trkpt>
      <trkpt lat="43.48384" lon="6.57417">
        <ele>52.3</ele>
        <time>2025-02-26T13:53:32Z</time>
      </trkpt>
      <trkpt lat="43.48384" lon="6.57417">
        <ele>52.3</ele>
        <time>2025-02-26T13:53:33Z</time>
      </trkpt>
      <trkpt lat="43.48384" lon="6.57417">
        <ele>52.2</ele>
        <time>2025-02-26T13:53:34Z</time>
      </trkpt>
      <trkpt lat="43.48384" lon="6.57418">
        <ele>52.2</ele>
        <time>2025-02-26T13:53:35Z</time>
      </trkpt>
      <trkpt lat="43.48384" lon="6.57418">
        <ele>52.2</ele>
        <time>2025-02-26T13:53:36Z</time>
      </trkpt>
      <trkpt lat="43.48385" lon="6.57417">
        <ele>52.2</ele>
        <time>2025-02-26T13:53:37Z</time>
      </trkpt>
      <trkpt lat="43.48385" lon="6.57417">
        <ele>52.2</ele>
        <time>2025-02-26T13:53:38Z</time>
      </trkpt>
      <trkpt lat="43.48385" lon="6.57417">
        <ele>52.4</ele>
        <time>2025-02-26T13:53:39Z</time>
      </trkpt>
      <trkpt lat="43.48385" lon="6.57417">
        <ele>52.4</ele>
        <time>2025-02-26T13:53:40Z</time>
      </trkpt>
      <trkpt lat="43.48385" lon="6.57417">
        <ele>52.5</ele>
        <time>2025-02-26T13:53:41Z</time>
      </trkpt>
      <trkpt lat="43.48385" lon="6.57417">
        <ele>52.5</ele>
        <time>2025-02-26T13:53:42Z</time>
      </trkpt>
      <trkpt lat="43.48385" lon="6.57417">
        <ele>52.5</ele>
        <time>2025-02-26T13:53:43Z</time>
      </trkpt>
      <trkpt lat="43.48385" lon="6.57417">
        <ele>52.4</ele>
        <time>2025-02-26T13:53:44Z</time>
      </trkpt>
      <trkpt lat="43.48385" lon="6.57417">
        <ele>52.4</ele>
        <time>2025-02-26T13:53:45Z</time>
      </trkpt>
      <trkpt lat="43.48385" lon="6.57417">
        <ele>52.4</ele>
        <time>2025-02-26T13:53:46Z</time>
      </trkpt>
      <trkpt lat="43.48385" lon="6.57417">
        <ele>52.3</ele>
        <time>2025-02-26T13:53:47Z</time>
      </trkpt>
      <trkpt lat="43.48385" lon="6.57417">
        <ele>52.4</ele>
        <time>2025-02-26T13:53:48Z</time>
      </trkpt>
      <trkpt lat="43.48385" lon="6.57417">
        <ele>52.5</ele>
        <time>2025-02-26T13:53:49Z</time>
      </trkpt>
      <trkpt lat="43.48386" lon="6.57417">
        <ele>52.5</ele>
        <time>2025-02-26T13:53:50Z</time>
      </trkpt>
      <trkpt lat="43.48386" lon="6.57417">
        <ele>52.6</ele>
        <time>2025-02-26T13:53:51Z</time>
      </trkpt>
      <trkpt lat="43.48386" lon="6.57417">
        <ele>52.6</ele>
        <time>2025-02-26T13:53:52Z</time>
      </trkpt>
      <trkpt lat="43.48386" lon="6.57417">
        <ele>52.6</ele>
        <time>2025-02-26T13:53:53Z</time>
      </trkpt>
      <trkpt lat="43.48386" lon="6.57417">
        <ele>52.6</ele>
        <time>2025-02-26T13:53:54Z</time>
      </trkpt>
      <trkpt lat="43.48386" lon="6.57417">
        <ele>52.7</ele>
        <time>2025-02-26T13:53:55Z</time>
      </trkpt>
      <trkpt lat="43.48386" lon="6.57417">
        <ele>52.6</ele>
        <time>2025-02-26T13:53:56Z</time>
      </trkpt>
      <trkpt lat="43.48386" lon="6.57417">
        <ele>52.5</ele>
        <time>2025-02-26T13:53:57Z</time>
      </trkpt>
      <trkpt lat="43.48386" lon="6.57417">
        <ele>52.5</ele>
        <time>2025-02-26T13:53:58Z</time>
      </trkpt>
      <trkpt lat="43.48386" lon="6.57417">
        <ele>52.6</ele>
        <time>2025-02-26T13:53:59Z</time>
      </trkpt>
      <trkpt lat="43.48386" lon="6.57417">
        <ele>52.6</ele>
        <time>2025-02-26T13:54:00Z</time>
      </trkpt>
      <trkpt lat="43.48386" lon="6.57417">
        <ele>52.6</ele>
        <time>2025-02-26T13:54:01Z</time>
      </trkpt>
      <trkpt lat="43.48387" lon="6.57417">
        <ele>52.6</ele>
        <time>2025-02-26T13:54:02Z</time>
      </trkpt>
      <trkpt lat="43.48387" lon="6.57417">
        <ele>52.7</ele>
        <time>2025-02-26T13:54:03Z</time>
      </trkpt>
      <trkpt lat="43.48386" lon="6.57417">
        <ele>52.7</ele>
        <time>2025-02-26T13:54:04Z</time>
      </trkpt>
      <trkpt lat="43.48386" lon="6.57417">
        <ele>52.7</ele>
        <time>2025-02-26T13:54:05Z</time>
      </trkpt>
      <trkpt lat="43.48386" lon="6.57417">
        <ele>52.7</ele>
        <time>2025-02-26T13:54:06Z</time>
      </trkpt>
      <trkpt lat="43.48386" lon="6.57417">
        <ele>52.6</ele>
        <time>2025-02-26T13:54:07Z</time>
      </trkpt>
      <trkpt lat="43.48386" lon="6.57417">
        <ele>52.7</ele>
        <time>2025-02-26T13:54:08Z</time>
      </trkpt>
      <trkpt lat="43.48386" lon="6.57417">
        <ele>52.7</ele>
        <time>2025-02-26T13:54:09Z</time>
      </trkpt>
      <trkpt lat="43.48386" lon="6.57417">
        <ele>52.7</ele>
        <time>2025-02-26T13:54:10Z</time>
      </trkpt>
      <trkpt lat="43.48386" lon="6.57417">
        <ele>52.7</ele>
        <time>2025-02-26T13:54:11Z</time>
      </trkpt>
      <trkpt lat="43.48386" lon="6.57417">
        <ele>52.8</ele>
        <time>2025-02-26T13:54:12Z</time>
      </trkpt>
      <trkpt lat="43.48386" lon="6.57417">
        <ele>52.8</ele>
        <time>2025-02-26T13:54:13Z</time>
      </trkpt>
      <trkpt lat="43.48386" lon="6.57417">
        <ele>52.7</ele>
        <time>2025-02-26T13:54:14Z</time>
      </trkpt>
      <trkpt lat="43.48386" lon="6.57417">
        <ele>52.6</ele>
        <time>2025-02-26T13:54:15Z</time>
      </trkpt>
      <trkpt lat="43.48386" lon="6.57417">
        <ele>52.5</ele>
        <time>2025-02-26T13:54:16Z</time>
      </trkpt>
      <trkpt lat="43.48386" lon="6.57417">
        <ele>52.5</ele>
        <time>2025-02-26T13:54:17Z</time>
      </trkpt>
      <trkpt lat="43.48386" lon="6.57417">
        <ele>52.4</ele>
        <time>2025-02-26T13:54:18Z</time>
      </trkpt>
      <trkpt lat="43.48386" lon="6.57418">
        <ele>52.4</ele>
        <time>2025-02-26T13:54:19Z</time>
      </trkpt>
      <trkpt lat="43.48386" lon="6.57418">
        <ele>52.3</ele>
        <time>2025-02-26T13:54:20Z</time>
      </trkpt>
      <trkpt lat="43.48386" lon="6.57417">
        <ele>52.4</ele>
        <time>2025-02-26T13:54:21Z</time>
      </trkpt>
      <trkpt lat="43.48386" lon="6.57418">
        <ele>52.3</ele>
        <time>2025-02-26T13:54:22Z</time>
      </trkpt>
      <trkpt lat="43.48386" lon="6.57417">
        <ele>52.3</ele>
        <time>2025-02-26T13:54:23Z</time>
      </trkpt>
      <trkpt lat="43.48386" lon="6.57417">
        <ele>52.3</ele>
        <time>2025-02-26T13:54:24Z</time>
      </trkpt>
      <trkpt lat="43.48386" lon="6.57417">
        <ele>52.4</ele>
        <time>2025-02-26T13:54:25Z</time>
      </trkpt>
      <trkpt lat="43.48386" lon="6.57417">
        <ele>52.5</ele>
        <time>2025-02-26T13:54:26Z</time>
      </trkpt>
      <trkpt lat="43.48386" lon="6.57417">
        <ele>52.5</ele>
        <time>2025-02-26T13:54:27Z</time>
      </trkpt>
      <trkpt lat="43.48386" lon="6.57417">
        <ele>52.6</ele>
        <time>2025-02-26T13:54:28Z</time>
      </trkpt>
      <trkpt lat="43.48386" lon="6.57416">
        <ele>52.7</ele>
        <time>2025-02-26T13:54:29Z</time>
      </trkpt>
      <trkpt lat="43.48386" lon="6.57416">
        <ele>52.8</ele>
        <time>2025-02-26T13:54:30Z</time>
      </trkpt>
      <trkpt lat="43.48386" lon="6.57416">
        <ele>52.9</ele>
        <time>2025-02-26T13:54:31Z</time>
      </trkpt>
      <trkpt lat="43.48386" lon="6.57416">
        <ele>52.9</ele>
        <time>2025-02-26T13:54:32Z</time>
      </trkpt>
      <trkpt lat="43.48386" lon="6.57416">
        <ele>52.9</ele>
        <time>2025-02-26T13:54:33Z</time>
      </trkpt>
      <trkpt lat="43.48386" lon="6.57416">
        <ele>52.9</ele>
        <time>2025-02-26T13:54:34Z</time>
      </trkpt>
      <trkpt lat="43.48386" lon="6.57416">
        <ele>52.9</ele>
        <time>2025-02-26T13:54:35Z</time>
      </trkpt>
      <trkpt lat="43.48386" lon="6.57416">
        <ele>52.9</ele>
        <time>2025-02-26T13:54:36Z</time>
      </trkpt>
      <trkpt lat="43.48386" lon="6.57416">
        <ele>52.9</ele>
        <time>2025-02-26T13:54:37Z</time>
      </trkpt>
      <trkpt lat="43.48386" lon="6.57416">
        <ele>52.9</ele>
        <time>2025-02-26T13:54:38Z</time>
      </trkpt>
      <trkpt lat="43.48386" lon="6.57416">
        <ele>52.9</ele>
        <time>2025-02-26T13:54:39Z</time>
      </trkpt>
      <trkpt lat="43.48386" lon="6.57416">
        <ele>52.8</ele>
        <time>2025-02-26T13:54:40Z</time>
      </trkpt>
      <trkpt lat="43.48386" lon="6.57416">
        <ele>52.8</ele>
        <time>2025-02-26T13:54:41Z</time>
      </trkpt>
      <trkpt lat="43.48386" lon="6.57416">
        <ele>52.8</ele>
        <time>2025-02-26T13:54:42Z</time>
      </trkpt>
      <trkpt lat="43.48386" lon="6.57416">
        <ele>52.8</ele>
        <time>2025-02-26T13:54:43Z</time>
      </trkpt>
      <trkpt lat="43.48386" lon="6.57416">
        <ele>52.7</ele>
        <time>2025-02-26T13:54:44Z</time>
      </trkpt>
      <trkpt lat="43.48386" lon="6.57415">
        <ele>52.7</ele>
        <time>2025-02-26T13:54:45Z</time>
      </trkpt>
      <trkpt lat="43.48386" lon="6.57415">
        <ele>52.7</ele>
        <time>2025-02-26T13:54:46Z</time>
      </trkpt>
      <trkpt lat="43.48386" lon="6.57415">
        <ele>52.7</ele>
        <time>2025-02-26T13:54:47Z</time>
      </trkpt>
      <trkpt lat="43.48386" lon="6.57415">
        <ele>52.6</ele>
        <time>2025-02-26T13:54:48Z</time>
      </trkpt>
      <trkpt lat="43.48385" lon="6.57415">
        <ele>52.6</ele>
        <time>2025-02-26T13:54:49Z</time>
      </trkpt>
      <trkpt lat="43.48385" lon="6.57415">
        <ele>52.5</ele>
        <time>2025-02-26T13:54:50Z</time>
      </trkpt>
      <trkpt lat="43.48386" lon="6.57415">
        <ele>52.5</ele>
        <time>2025-02-26T13:54:51Z</time>
      </trkpt>
      <trkpt lat="43.48386" lon="6.57415">
        <ele>52.4</ele>
        <time>2025-02-26T13:54:52Z</time>
      </trkpt>
      <trkpt lat="43.48385" lon="6.57415">
        <ele>52.4</ele>
        <time>2025-02-26T13:54:53Z</time>
      </trkpt>
      <trkpt lat="43.48385" lon="6.57415">
        <ele>52.5</ele>
        <time>2025-02-26T13:54:54Z</time>
      </trkpt>
      <trkpt lat="43.48385" lon="6.57415">
        <ele>52.6</ele>
        <time>2025-02-26T13:54:55Z</time>
      </trkpt>
      <trkpt lat="43.48385" lon="6.57416">
        <ele>52.6</ele>
        <time>2025-02-26T13:54:56Z</time>
      </trkpt>
      <trkpt lat="43.48385" lon="6.57416">
        <ele>52.7</ele>
        <time>2025-02-26T13:54:57Z</time>
      </trkpt>
      <trkpt lat="43.48385" lon="6.57416">
        <ele>52.7</ele>
        <time>2025-02-26T13:54:58Z</time>
      </trkpt>
      <trkpt lat="43.48386" lon="6.57416">
        <ele>52.7</ele>
        <time>2025-02-26T13:54:59Z</time>
      </trkpt>
      <trkpt lat="43.48385" lon="6.57416">
        <ele>52.8</ele>
        <time>2025-02-26T13:55:00Z</time>
      </trkpt>
      <trkpt lat="43.48385" lon="6.57416">
        <ele>52.8</ele>
        <time>2025-02-26T13:55:01Z</time>
      </trkpt>
      <trkpt lat="43.48385" lon="6.57416">
        <ele>52.8</ele>
        <time>2025-02-26T13:55:02Z</time>
      </trkpt>
      <trkpt lat="43.48385" lon="6.57416">
        <ele>52.9</ele>
        <time>2025-02-26T13:55:03Z</time>
      </trkpt>
      <trkpt lat="43.48385" lon="6.57416">
        <ele>52.8</ele>
        <time>2025-02-26T13:55:04Z</time>
      </trkpt>
      <trkpt lat="43.48385" lon="6.57415">
        <ele>52.9</ele>
        <time>2025-02-26T13:55:05Z</time>
      </trkpt>
      <trkpt lat="43.48385" lon="6.57415">
        <ele>52.9</ele>
        <time>2025-02-26T13:55:06Z</time>
      </trkpt>
      <trkpt lat="43.48385" lon="6.57415">
        <ele>52.8</ele>
        <time>2025-02-26T13:55:07Z</time>
      </trkpt>
      <trkpt lat="43.48385" lon="6.57415">
        <ele>52.8</ele>
        <time>2025-02-26T13:55:08Z</time>
      </trkpt>
      <trkpt lat="43.48386" lon="6.57416">
        <ele>52.7</ele>
        <time>2025-02-26T13:55:09Z</time>
      </trkpt>
      <trkpt lat="43.48386" lon="6.57416">
        <ele>52.7</ele>
        <time>2025-02-26T13:55:10Z</time>
      </trkpt>
      <trkpt lat="43.48386" lon="6.57416">
        <ele>52.7</ele>
        <time>2025-02-26T13:55:11Z</time>
      </trkpt>
      <trkpt lat="43.48386" lon="6.57416">
        <ele>52.6</ele>
        <time>2025-02-26T13:55:12Z</time>
      </trkpt>
      <trkpt lat="43.48386" lon="6.57416">
        <ele>52.6</ele>
        <time>2025-02-26T13:55:13Z</time>
      </trkpt>
      <trkpt lat="43.48386" lon="6.57416">
        <ele>53</ele>
        <time>2025-02-26T13:55:14Z</time>
      </trkpt>
      <trkpt lat="43.48386" lon="6.57417">
        <ele>52.9</ele>
        <time>2025-02-26T13:55:15Z</time>
      </trkpt>
      <trkpt lat="43.48386" lon="6.57416">
        <ele>52.8</ele>
        <time>2025-02-26T13:55:16Z</time>
      </trkpt>
      <trkpt lat="43.48386" lon="6.57416">
        <ele>52.7</ele>
        <time>2025-02-26T13:55:17Z</time>
      </trkpt>
      <trkpt lat="43.48386" lon="6.57416">
        <ele>52.6</ele>
        <time>2025-02-26T13:55:18Z</time>
      </trkpt>
      <trkpt lat="43.48386" lon="6.57416">
        <ele>52.6</ele>
        <time>2025-02-26T13:55:19Z</time>
      </trkpt>
      <trkpt lat="43.48386" lon="6.57417">
        <ele>52.6</ele>
        <time>2025-02-26T13:55:20Z</time>
      </trkpt>
      <trkpt lat="43.48387" lon="6.57417">
        <ele>52.6</ele>
        <time>2025-02-26T13:55:21Z</time>
      </trkpt>
      <trkpt lat="43.48386" lon="6.57417">
        <ele>52.7</ele>
        <time>2025-02-26T13:55:22Z</time>
      </trkpt>
      <trkpt lat="43.48387" lon="6.57417">
        <ele>52.6</ele>
        <time>2025-02-26T13:55:23Z</time>
      </trkpt>
      <trkpt lat="43.48387" lon="6.57417">
        <ele>52.7</ele>
        <time>2025-02-26T13:55:24Z</time>
      </trkpt>
      <trkpt lat="43.48387" lon="6.57417">
        <ele>52.7</ele>
        <time>2025-02-26T13:55:25Z</time>
      </trkpt>
      <trkpt lat="43.48387" lon="6.57416">
        <ele>52.7</ele>
        <time>2025-02-26T13:55:26Z</time>
      </trkpt>
      <trkpt lat="43.48387" lon="6.57417">
        <ele>52.7</ele>
        <time>2025-02-26T13:55:27Z</time>
      </trkpt>
      <trkpt lat="43.48387" lon="6.57417">
        <ele>52.8</ele>
        <time>2025-02-26T13:55:28Z</time>
      </trkpt>
      <trkpt lat="43.48387" lon="6.57416">
        <ele>52.7</ele>
        <time>2025-02-26T13:55:29Z</time>
      </trkpt>
      <trkpt lat="43.48387" lon="6.57417">
        <ele>52.7</ele>
        <time>2025-02-26T13:55:30Z</time>
      </trkpt>
      <trkpt lat="43.48387" lon="6.57417">
        <ele>52.7</ele>
        <time>2025-02-26T13:55:31Z</time>
      </trkpt>
      <trkpt lat="43.48387" lon="6.57417">
        <ele>52.7</ele>
        <time>2025-02-26T13:55:32Z</time>
      </trkpt>
      <trkpt lat="43.48387" lon="6.57417">
        <ele>52.7</ele>
        <time>2025-02-26T13:55:33Z</time>
      </trkpt>
      <trkpt lat="43.48387" lon="6.57417">
        <ele>52.7</ele>
        <time>2025-02-26T13:55:34Z</time>
      </trkpt>
      <trkpt lat="43.48387" lon="6.57416">
        <ele>52.6</ele>
        <time>2025-02-26T13:55:35Z</time>
      </trkpt>
      <trkpt lat="43.48387" lon="6.57417">
        <ele>52.6</ele>
        <time>2025-02-26T13:55:36Z</time>
      </trkpt>
      <trkpt lat="43.48387" lon="6.57417">
        <ele>52.5</ele>
        <time>2025-02-26T13:55:37Z</time>
      </trkpt>
      <trkpt lat="43.48387" lon="6.57417">
        <ele>52.5</ele>
        <time>2025-02-26T13:55:38Z</time>
      </trkpt>
      <trkpt lat="43.48386" lon="6.57417">
        <ele>52.3</ele>
        <time>2025-02-26T13:55:39Z</time>
      </trkpt>
      <trkpt lat="43.48386" lon="6.57417">
        <ele>52.2</ele>
        <time>2025-02-26T13:55:40Z</time>
      </trkpt>
      <trkpt lat="43.48386" lon="6.57417">
        <ele>52.2</ele>
        <time>2025-02-26T13:55:41Z</time>
      </trkpt>
      <trkpt lat="43.48386" lon="6.57417">
        <ele>52.1</ele>
        <time>2025-02-26T13:55:42Z</time>
      </trkpt>
      <trkpt lat="43.48386" lon="6.57417">
        <ele>52.1</ele>
        <time>2025-02-26T13:55:43Z</time>
      </trkpt>
      <trkpt lat="43.48386" lon="6.57417">
        <ele>52.1</ele>
        <time>2025-02-26T13:55:44Z</time>
      </trkpt>
      <trkpt lat="43.48386" lon="6.57417">
        <ele>52.1</ele>
        <time>2025-02-26T13:55:45Z</time>
      </trkpt>
      <trkpt lat="43.48386" lon="6.57417">
        <ele>52.1</ele>
        <time>2025-02-26T13:55:46Z</time>
      </trkpt>
      <trkpt lat="43.48386" lon="6.57417">
        <ele>52.1</ele>
        <time>2025-02-26T13:55:47Z</time>
      </trkpt>
      <trkpt lat="43.48386" lon="6.57417">
        <ele>52.1</ele>
        <time>2025-02-26T13:55:48Z</time>
      </trkpt>
      <trkpt lat="43.48386" lon="6.57417">
        <ele>52.2</ele>
        <time>2025-02-26T13:55:49Z</time>
      </trkpt>
      <trkpt lat="43.48386" lon="6.57418">
        <ele>52.2</ele>
        <time>2025-02-26T13:55:50Z</time>
      </trkpt>
      <trkpt lat="43.48386" lon="6.57418">
        <ele>52.3</ele>
        <time>2025-02-26T13:55:51Z</time>
      </trkpt>
      <trkpt lat="43.48386" lon="6.57418">
        <ele>52.4</ele>
        <time>2025-02-26T13:55:52Z</time>
      </trkpt>
      <trkpt lat="43.48385" lon="6.57418">
        <ele>52.5</ele>
        <time>2025-02-26T13:55:53Z</time>
      </trkpt>
      <trkpt lat="43.48385" lon="6.57418">
        <ele>52.5</ele>
        <time>2025-02-26T13:55:54Z</time>
      </trkpt>
      <trkpt lat="43.48385" lon="6.57418">
        <ele>52.5</ele>
        <time>2025-02-26T13:55:55Z</time>
      </trkpt>
      <trkpt lat="43.48385" lon="6.57418">
        <ele>52.5</ele>
        <time>2025-02-26T13:55:56Z</time>
      </trkpt>
      <trkpt lat="43.48386" lon="6.57418">
        <ele>52.4</ele>
        <time>2025-02-26T13:55:57Z</time>
      </trkpt>
      <trkpt lat="43.48386" lon="6.57418">
        <ele>52.5</ele>
        <time>2025-02-26T13:55:58Z</time>
      </trkpt>
      <trkpt lat="43.48387" lon="6.57418">
        <ele>52.5</ele>
        <time>2025-02-26T13:55:59Z</time>
      </trkpt>
      <trkpt lat="43.48387" lon="6.57419">
        <ele>52.4</ele>
        <time>2025-02-26T13:56:00Z</time>
      </trkpt>
      <trkpt lat="43.48387" lon="6.57419">
        <ele>52.4</ele>
        <time>2025-02-26T13:56:01Z</time>
      </trkpt>
      <trkpt lat="43.48387" lon="6.57419">
        <ele>52.3</ele>
        <time>2025-02-26T13:56:02Z</time>
      </trkpt>
      <trkpt lat="43.48387" lon="6.57419">
        <ele>52.3</ele>
        <time>2025-02-26T13:56:03Z</time>
      </trkpt>
      <trkpt lat="43.48387" lon="6.57419">
        <ele>52.3</ele>
        <time>2025-02-26T13:56:04Z</time>
      </trkpt>
      <trkpt lat="43.48387" lon="6.5742">
        <ele>52.3</ele>
        <time>2025-02-26T13:56:05Z</time>
      </trkpt>
      <trkpt lat="43.48387" lon="6.5742">
        <ele>52.3</ele>
        <time>2025-02-26T13:56:06Z</time>
      </trkpt>
      <trkpt lat="43.48387" lon="6.5742">
        <ele>52.3</ele>
        <time>2025-02-26T13:56:07Z</time>
      </trkpt>
      <trkpt lat="43.48387" lon="6.5742">
        <ele>52.3</ele>
        <time>2025-02-26T13:56:08Z</time>
      </trkpt>
      <trkpt lat="43.48388" lon="6.57421">
        <ele>52.3</ele>
        <time>2025-02-26T13:56:09Z</time>
      </trkpt>
      <trkpt lat="43.48389" lon="6.57421">
        <ele>52.2</ele>
        <time>2025-02-26T13:56:10Z</time>
      </trkpt>
      <trkpt lat="43.4839" lon="6.57422">
        <ele>52.2</ele>
        <time>2025-02-26T13:56:11Z</time>
      </trkpt>
      <trkpt lat="43.4839" lon="6.57422">
        <ele>52.1</ele>
        <time>2025-02-26T13:56:12Z</time>
      </trkpt>
      <trkpt lat="43.48391" lon="6.57423">
        <ele>52</ele>
        <time>2025-02-26T13:56:13Z</time>
      </trkpt>
      <trkpt lat="43.48391" lon="6.57424">
        <ele>51.9</ele>
        <time>2025-02-26T13:56:14Z</time>
      </trkpt>
      <trkpt lat="43.48391" lon="6.57425">
        <ele>51.8</ele>
        <time>2025-02-26T13:56:15Z</time>
      </trkpt>
      <trkpt lat="43.48392" lon="6.57427">
        <ele>51.8</ele>
        <time>2025-02-26T13:56:16Z</time>
      </trkpt>
      <trkpt lat="43.48392" lon="6.57428">
        <ele>51.7</ele>
        <time>2025-02-26T13:56:17Z</time>
      </trkpt>
      <trkpt lat="43.48392" lon="6.57428">
        <ele>51.7</ele>
        <time>2025-02-26T13:56:18Z</time>
      </trkpt>
      <trkpt lat="43.48393" lon="6.57429">
        <ele>51.7</ele>
        <time>2025-02-26T13:56:19Z</time>
      </trkpt>
      <trkpt lat="43.48393" lon="6.57429">
        <ele>51.6</ele>
        <time>2025-02-26T13:56:20Z</time>
      </trkpt>
      <trkpt lat="43.48393" lon="6.57429">
        <ele>51.5</ele>
        <time>2025-02-26T13:56:21Z</time>
      </trkpt>
      <trkpt lat="43.48394" lon="6.57429">
        <ele>51.5</ele>
        <time>2025-02-26T13:56:22Z</time>
      </trkpt>
      <trkpt lat="43.48395" lon="6.5743">
        <ele>51.4</ele>
        <time>2025-02-26T13:56:23Z</time>
      </trkpt>
      <trkpt lat="43.48396" lon="6.5743">
        <ele>51.5</ele>
        <time>2025-02-26T13:56:24Z</time>
      </trkpt>
      <trkpt lat="43.48396" lon="6.5743">
        <ele>51.5</ele>
        <time>2025-02-26T13:56:25Z</time>
      </trkpt>
      <trkpt lat="43.48397" lon="6.57431">
        <ele>51.5</ele>
        <time>2025-02-26T13:56:26Z</time>
      </trkpt>
      <trkpt lat="43.48398" lon="6.57432">
        <ele>51.4</ele>
        <time>2025-02-26T13:56:27Z</time>
      </trkpt>
      <trkpt lat="43.48398" lon="6.57433">
        <ele>51.4</ele>
        <time>2025-02-26T13:56:28Z</time>
      </trkpt>
      <trkpt lat="43.48399" lon="6.57433">
        <ele>51.4</ele>
        <time>2025-02-26T13:56:29Z</time>
      </trkpt>
      <trkpt lat="43.484" lon="6.57433">
        <ele>51.4</ele>
        <time>2025-02-26T13:56:30Z</time>
      </trkpt>
      <trkpt lat="43.484" lon="6.57434">
        <ele>51.5</ele>
        <time>2025-02-26T13:56:31Z</time>
      </trkpt>
      <trkpt lat="43.484" lon="6.57435">
        <ele>51.6</ele>
        <time>2025-02-26T13:56:32Z</time>
      </trkpt>
      <trkpt lat="43.48401" lon="6.57436">
        <ele>51.7</ele>
        <time>2025-02-26T13:56:33Z</time>
      </trkpt>
      <trkpt lat="43.48402" lon="6.57437">
        <ele>51.8</ele>
        <time>2025-02-26T13:56:34Z</time>
      </trkpt>
      <trkpt lat="43.48403" lon="6.57438">
        <ele>51.8</ele>
        <time>2025-02-26T13:56:35Z</time>
      </trkpt>
      <trkpt lat="43.48403" lon="6.57439">
        <ele>51.9</ele>
        <time>2025-02-26T13:56:36Z</time>
      </trkpt>
      <trkpt lat="43.48404" lon="6.5744">
        <ele>51.9</ele>
        <time>2025-02-26T13:56:37Z</time>
      </trkpt>
      <trkpt lat="43.48405" lon="6.57441">
        <ele>51.9</ele>
        <time>2025-02-26T13:56:38Z</time>
      </trkpt>
      <trkpt lat="43.48406" lon="6.57442">
        <ele>51.9</ele>
        <time>2025-02-26T13:56:39Z</time>
      </trkpt>
      <trkpt lat="43.48406" lon="6.57444">
        <ele>52</ele>
        <time>2025-02-26T13:56:40Z</time>
      </trkpt>
      <trkpt lat="43.48407" lon="6.57445">
        <ele>52</ele>
        <time>2025-02-26T13:56:41Z</time>
      </trkpt>
      <trkpt lat="43.48407" lon="6.57446">
        <ele>52</ele>
        <time>2025-02-26T13:56:42Z</time>
      </trkpt>
      <trkpt lat="43.48407" lon="6.57447">
        <ele>51.9</ele>
        <time>2025-02-26T13:56:43Z</time>
      </trkpt>
      <trkpt lat="43.48407" lon="6.57449">
        <ele>51.9</ele>
        <time>2025-02-26T13:56:44Z</time>
      </trkpt>
      <trkpt lat="43.48407" lon="6.5745">
        <ele>51.8</ele>
        <time>2025-02-26T13:56:45Z</time>
      </trkpt>
      <trkpt lat="43.48407" lon="6.57451">
        <ele>51.9</ele>
        <time>2025-02-26T13:56:46Z</time>
      </trkpt>
      <trkpt lat="43.48407" lon="6.57452">
        <ele>51.9</ele>
        <time>2025-02-26T13:56:47Z</time>
      </trkpt>
      <trkpt lat="43.48407" lon="6.57452">
        <ele>51.9</ele>
        <time>2025-02-26T13:56:48Z</time>
      </trkpt>
      <trkpt lat="43.48408" lon="6.57452">
        <ele>51.9</ele>
        <time>2025-02-26T13:56:49Z</time>
      </trkpt>
      <trkpt lat="43.48408" lon="6.57451">
        <ele>51.9</ele>
        <time>2025-02-26T13:56:50Z</time>
      </trkpt>
      <trkpt lat="43.48408" lon="6.57451">
        <ele>51.8</ele>
        <time>2025-02-26T13:56:51Z</time>
      </trkpt>
      <trkpt lat="43.48408" lon="6.57451">
        <ele>51.7</ele>
        <time>2025-02-26T13:56:52Z</time>
      </trkpt>
      <trkpt lat="43.48408" lon="6.57451">
        <ele>51.7</ele>
        <time>2025-02-26T13:56:53Z</time>
      </trkpt>
      <trkpt lat="43.48408" lon="6.57451">
        <ele>51.6</ele>
        <time>2025-02-26T13:56:54Z</time>
      </trkpt>
      <trkpt lat="43.48408" lon="6.57451">
        <ele>51.6</ele>
        <time>2025-02-26T13:56:55Z</time>
      </trkpt>
      <trkpt lat="43.48408" lon="6.57451">
        <ele>51.6</ele>
        <time>2025-02-26T13:56:56Z</time>
      </trkpt>
      <trkpt lat="43.48408" lon="6.57451">
        <ele>51.6</ele>
        <time>2025-02-26T13:56:57Z</time>
      </trkpt>
      <trkpt lat="43.48408" lon="6.57451">
        <ele>51.7</ele>
        <time>2025-02-26T13:56:58Z</time>
      </trkpt>
      <trkpt lat="43.48408" lon="6.57451">
        <ele>51.6</ele>
        <time>2025-02-26T13:56:59Z</time>
      </trkpt>
      <trkpt lat="43.48408" lon="6.5745">
        <ele>51.6</ele>
        <time>2025-02-26T13:57:00Z</time>
      </trkpt>
      <trkpt lat="43.48408" lon="6.5745">
        <ele>51.6</ele>
        <time>2025-02-26T13:57:01Z</time>
      </trkpt>
      <trkpt lat="43.48408" lon="6.5745">
        <ele>51.7</ele>
        <time>2025-02-26T13:57:02Z</time>
      </trkpt>
      <trkpt lat="43.48408" lon="6.57451">
        <ele>51.7</ele>
        <time>2025-02-26T13:57:03Z</time>
      </trkpt>
      <trkpt lat="43.48408" lon="6.57452">
        <ele>51.7</ele>
        <time>2025-02-26T13:57:04Z</time>
      </trkpt>
      <trkpt lat="43.48408" lon="6.57453">
        <ele>51.8</ele>
        <time>2025-02-26T13:57:05Z</time>
      </trkpt>
      <trkpt lat="43.48407" lon="6.57455">
        <ele>51.8</ele>
        <time>2025-02-26T13:57:06Z</time>
      </trkpt>
      <trkpt lat="43.48406" lon="6.57457">
        <ele>51.9</ele>
        <time>2025-02-26T13:57:07Z</time>
      </trkpt>
      <trkpt lat="43.48406" lon="6.57458">
        <ele>52</ele>
        <time>2025-02-26T13:57:08Z</time>
      </trkpt>
      <trkpt lat="43.48406" lon="6.5746">
        <ele>51.9</ele>
        <time>2025-02-26T13:57:09Z</time>
      </trkpt>
      <trkpt lat="43.48406" lon="6.57461">
        <ele>51.9</ele>
        <time>2025-02-26T13:57:10Z</time>
      </trkpt>
      <trkpt lat="43.48405" lon="6.57463">
        <ele>51.9</ele>
        <time>2025-02-26T13:57:11Z</time>
      </trkpt>
      <trkpt lat="43.48405" lon="6.57464">
        <ele>52.1</ele>
        <time>2025-02-26T13:57:12Z</time>
      </trkpt>
      <trkpt lat="43.48405" lon="6.57466">
        <ele>52.2</ele>
        <time>2025-02-26T13:57:13Z</time>
      </trkpt>
      <trkpt lat="43.48404" lon="6.57467">
        <ele>52.2</ele>
        <time>2025-02-26T13:57:14Z</time>
      </trkpt>
      <trkpt lat="43.48404" lon="6.57468">
        <ele>52.4</ele>
        <time>2025-02-26T13:57:15Z</time>
      </trkpt>
      <trkpt lat="43.48404" lon="6.5747">
        <ele>52.4</ele>
        <time>2025-02-26T13:57:16Z</time>
      </trkpt>
      <trkpt lat="43.48404" lon="6.57471">
        <ele>52.5</ele>
        <time>2025-02-26T13:57:17Z</time>
      </trkpt>
      <trkpt lat="43.48404" lon="6.57472">
        <ele>52.5</ele>
        <time>2025-02-26T13:57:18Z</time>
      </trkpt>
      <trkpt lat="43.48403" lon="6.57474">
        <ele>52.6</ele>
        <time>2025-02-26T13:57:19Z</time>
      </trkpt>
      <trkpt lat="43.48403" lon="6.57475">
        <ele>52.6</ele>
        <time>2025-02-26T13:57:20Z</time>
      </trkpt>
      <trkpt lat="43.48403" lon="6.57477">
        <ele>52.3</ele>
        <time>2025-02-26T13:57:21Z</time>
      </trkpt>
      <trkpt lat="43.48403" lon="6.57478">
        <ele>52.3</ele>
        <time>2025-02-26T13:57:22Z</time>
      </trkpt>
      <trkpt lat="43.48402" lon="6.5748">
        <ele>52.4</ele>
        <time>2025-02-26T13:57:23Z</time>
      </trkpt>
      <trkpt lat="43.48402" lon="6.57481">
        <ele>52.4</ele>
        <time>2025-02-26T13:57:24Z</time>
      </trkpt>
      <trkpt lat="43.48402" lon="6.57483">
        <ele>52.4</ele>
        <time>2025-02-26T13:57:25Z</time>
      </trkpt>
      <trkpt lat="43.48402" lon="6.57484">
        <ele>52.4</ele>
        <time>2025-02-26T13:57:26Z</time>
      </trkpt>
      <trkpt lat="43.48402" lon="6.57486">
        <ele>52.5</ele>
        <time>2025-02-26T13:57:27Z</time>
      </trkpt>
      <trkpt lat="43.48402" lon="6.57487">
        <ele>52.5</ele>
        <time>2025-02-26T13:57:28Z</time>
      </trkpt>
      <trkpt lat="43.48402" lon="6.57489">
        <ele>52.4</ele>
        <time>2025-02-26T13:57:29Z</time>
      </trkpt>
      <trkpt lat="43.48402" lon="6.5749">
        <ele>52.3</ele>
        <time>2025-02-26T13:57:30Z</time>
      </trkpt>
      <trkpt lat="43.48402" lon="6.57492">
        <ele>52.2</ele>
        <time>2025-02-26T13:57:31Z</time>
      </trkpt>
      <trkpt lat="43.48402" lon="6.57493">
        <ele>52.2</ele>
        <time>2025-02-26T13:57:32Z</time>
      </trkpt>
      <trkpt lat="43.48402" lon="6.57495">
        <ele>52</ele>
        <time>2025-02-26T13:57:33Z</time>
      </trkpt>
      <trkpt lat="43.48401" lon="6.57497">
        <ele>51.8</ele>
        <time>2025-02-26T13:57:34Z</time>
      </trkpt>
      <trkpt lat="43.48401" lon="6.57498">
        <ele>52</ele>
        <time>2025-02-26T13:57:35Z</time>
      </trkpt>
      <trkpt lat="43.48401" lon="6.57499">
        <ele>52.2</ele>
        <time>2025-02-26T13:57:36Z</time>
      </trkpt>
      <trkpt lat="43.48401" lon="6.575">
        <ele>52.4</ele>
        <time>2025-02-26T13:57:37Z</time>
      </trkpt>
      <trkpt lat="43.48401" lon="6.57502">
        <ele>52.5</ele>
        <time>2025-02-26T13:57:38Z</time>
      </trkpt>
      <trkpt lat="43.484" lon="6.57503">
        <ele>52.7</ele>
        <time>2025-02-26T13:57:39Z</time>
      </trkpt>
      <trkpt lat="43.48401" lon="6.57505">
        <ele>52.8</ele>
        <time>2025-02-26T13:57:40Z</time>
      </trkpt>
      <trkpt lat="43.48401" lon="6.57506">
        <ele>53</ele>
        <time>2025-02-26T13:57:41Z</time>
      </trkpt>
      <trkpt lat="43.48401" lon="6.57507">
        <ele>53.1</ele>
        <time>2025-02-26T13:57:42Z</time>
      </trkpt>
      <trkpt lat="43.48401" lon="6.57509">
        <ele>53.2</ele>
        <time>2025-02-26T13:57:43Z</time>
      </trkpt>
      <trkpt lat="43.48401" lon="6.5751">
        <ele>53.3</ele>
        <time>2025-02-26T13:57:44Z</time>
      </trkpt>
      <trkpt lat="43.48402" lon="6.57511">
        <ele>53.4</ele>
        <time>2025-02-26T13:57:45Z</time>
      </trkpt>
      <trkpt lat="43.48402" lon="6.57512">
        <ele>53.5</ele>
        <time>2025-02-26T13:57:46Z</time>
      </trkpt>
      <trkpt lat="43.48402" lon="6.57513">
        <ele>53.6</ele>
        <time>2025-02-26T13:57:47Z</time>
      </trkpt>
      <trkpt lat="43.48402" lon="6.57514">
        <ele>53.7</ele>
        <time>2025-02-26T13:57:48Z</time>
      </trkpt>
      <trkpt lat="43.48402" lon="6.57515">
        <ele>53.9</ele>
        <time>2025-02-26T13:57:49Z</time>
      </trkpt>
      <trkpt lat="43.48403" lon="6.57517">
        <ele>54.1</ele>
        <time>2025-02-26T13:57:50Z</time>
      </trkpt>
      <trkpt lat="43.48403" lon="6.57518">
        <ele>54.2</ele>
        <time>2025-02-26T13:57:51Z</time>
      </trkpt>
      <trkpt lat="43.48403" lon="6.57519">
        <ele>54.3</ele>
        <time>2025-02-26T13:57:52Z</time>
      </trkpt>
      <trkpt lat="43.48403" lon="6.5752">
        <ele>54.5</ele>
        <time>2025-02-26T13:57:53Z</time>
      </trkpt>
      <trkpt lat="43.48404" lon="6.57521">
        <ele>54.6</ele>
        <time>2025-02-26T13:57:54Z</time>
      </trkpt>
      <trkpt lat="43.48404" lon="6.57523">
        <ele>54.7</ele>
        <time>2025-02-26T13:57:55Z</time>
      </trkpt>
      <trkpt lat="43.48404" lon="6.57524">
        <ele>54.8</ele>
        <time>2025-02-26T13:57:56Z</time>
      </trkpt>
      <trkpt lat="43.48404" lon="6.57526">
        <ele>55.1</ele>
        <time>2025-02-26T13:57:57Z</time>
      </trkpt>
      <trkpt lat="43.48404" lon="6.57527">
        <ele>55.3</ele>
        <time>2025-02-26T13:57:58Z</time>
      </trkpt>
      <trkpt lat="43.48404" lon="6.57528">
        <ele>55.4</ele>
        <time>2025-02-26T13:57:59Z</time>
      </trkpt>
      <trkpt lat="43.48404" lon="6.57529">
        <ele>55.6</ele>
        <time>2025-02-26T13:58:00Z</time>
      </trkpt>
      <trkpt lat="43.48404" lon="6.5753">
        <ele>55.8</ele>
        <time>2025-02-26T13:58:01Z</time>
      </trkpt>
      <trkpt lat="43.48405" lon="6.57532">
        <ele>55.9</ele>
        <time>2025-02-26T13:58:02Z</time>
      </trkpt>
      <trkpt lat="43.48405" lon="6.57533">
        <ele>56</ele>
        <time>2025-02-26T13:58:03Z</time>
      </trkpt>
      <trkpt lat="43.48406" lon="6.57534">
        <ele>56.1</ele>
        <time>2025-02-26T13:58:04Z</time>
      </trkpt>
      <trkpt lat="43.48406" lon="6.57535">
        <ele>56.2</ele>
        <time>2025-02-26T13:58:05Z</time>
      </trkpt>
      <trkpt lat="43.48407" lon="6.57536">
        <ele>56.4</ele>
        <time>2025-02-26T13:58:06Z</time>
      </trkpt>
      <trkpt lat="43.48407" lon="6.57537">
        <ele>56.6</ele>
        <time>2025-02-26T13:58:07Z</time>
      </trkpt>
      <trkpt lat="43.48408" lon="6.57538">
        <ele>56.6</ele>
        <time>2025-02-26T13:58:08Z</time>
      </trkpt>
      <trkpt lat="43.48408" lon="6.57539">
        <ele>56.6</ele>
        <time>2025-02-26T13:58:09Z</time>
      </trkpt>
      <trkpt lat="43.48409" lon="6.5754">
        <ele>56.7</ele>
        <time>2025-02-26T13:58:10Z</time>
      </trkpt>
      <trkpt lat="43.48409" lon="6.57541">
        <ele>56.7</ele>
        <time>2025-02-26T13:58:11Z</time>
      </trkpt>
      <trkpt lat="43.4841" lon="6.57542">
        <ele>56.9</ele>
        <time>2025-02-26T13:58:12Z</time>
      </trkpt>
      <trkpt lat="43.4841" lon="6.57544">
        <ele>57.1</ele>
        <time>2025-02-26T13:58:13Z</time>
      </trkpt>
      <trkpt lat="43.48411" lon="6.57545">
        <ele>57.2</ele>
        <time>2025-02-26T13:58:14Z</time>
      </trkpt>
      <trkpt lat="43.48411" lon="6.57545">
        <ele>57.3</ele>
        <time>2025-02-26T13:58:15Z</time>
      </trkpt>
      <trkpt lat="43.48412" lon="6.57547">
        <ele>57.3</ele>
        <time>2025-02-26T13:58:16Z</time>
      </trkpt>
      <trkpt lat="43.48412" lon="6.57548">
        <ele>57.4</ele>
        <time>2025-02-26T13:58:17Z</time>
      </trkpt>
      <trkpt lat="43.48412" lon="6.57549">
        <ele>57.5</ele>
        <time>2025-02-26T13:58:18Z</time>
      </trkpt>
      <trkpt lat="43.48413" lon="6.57551">
        <ele>57.7</ele>
        <time>2025-02-26T13:58:19Z</time>
      </trkpt>
      <trkpt lat="43.48413" lon="6.57552">
        <ele>57.8</ele>
        <time>2025-02-26T13:58:20Z</time>
      </trkpt>
      <trkpt lat="43.48413" lon="6.57553">
        <ele>57.9</ele>
        <time>2025-02-26T13:58:21Z</time>
      </trkpt>
      <trkpt lat="43.48414" lon="6.57554">
        <ele>58</ele>
        <time>2025-02-26T13:58:22Z</time>
      </trkpt>
      <trkpt lat="43.48414" lon="6.57555">
        <ele>58.2</ele>
        <time>2025-02-26T13:58:23Z</time>
      </trkpt>
      <trkpt lat="43.48414" lon="6.57556">
        <ele>58.3</ele>
        <time>2025-02-26T13:58:24Z</time>
      </trkpt>
      <trkpt lat="43.48414" lon="6.57557">
        <ele>58.5</ele>
        <time>2025-02-26T13:58:25Z</time>
      </trkpt>
      <trkpt lat="43.48414" lon="6.57559">
        <ele>58.7</ele>
        <time>2025-02-26T13:58:26Z</time>
      </trkpt>
      <trkpt lat="43.48414" lon="6.5756">
        <ele>58.8</ele>
        <time>2025-02-26T13:58:27Z</time>
      </trkpt>
      <trkpt lat="43.48414" lon="6.57561">
        <ele>58.8</ele>
        <time>2025-02-26T13:58:28Z</time>
      </trkpt>
      <trkpt lat="43.48414" lon="6.57562">
        <ele>58.8</ele>
        <time>2025-02-26T13:58:29Z</time>
      </trkpt>
      <trkpt lat="43.48414" lon="6.57563">
        <ele>58.8</ele>
        <time>2025-02-26T13:58:30Z</time>
      </trkpt>
      <trkpt lat="43.48414" lon="6.57565">
        <ele>58.8</ele>
        <time>2025-02-26T13:58:31Z</time>
      </trkpt>
      <trkpt lat="43.48414" lon="6.57566">
        <ele>58.9</ele>
        <time>2025-02-26T13:58:32Z</time>
      </trkpt>
      <trkpt lat="43.48414" lon="6.57567">
        <ele>59.1</ele>
        <time>2025-02-26T13:58:33Z</time>
      </trkpt>
      <trkpt lat="43.48414" lon="6.57569">
        <ele>59.1</ele>
        <time>2025-02-26T13:58:34Z</time>
      </trkpt>
      <trkpt lat="43.48413" lon="6.5757">
        <ele>59.2</ele>
        <time>2025-02-26T13:58:35Z</time>
      </trkpt>
      <trkpt lat="43.48413" lon="6.57571">
        <ele>59.4</ele>
        <time>2025-02-26T13:58:36Z</time>
      </trkpt>
      <trkpt lat="43.48413" lon="6.57572">
        <ele>59.5</ele>
        <time>2025-02-26T13:58:37Z</time>
      </trkpt>
      <trkpt lat="43.48413" lon="6.57573">
        <ele>59.6</ele>
        <time>2025-02-26T13:58:38Z</time>
      </trkpt>
      <trkpt lat="43.48412" lon="6.57574">
        <ele>59.8</ele>
        <time>2025-02-26T13:58:39Z</time>
      </trkpt>
      <trkpt lat="43.48412" lon="6.57575">
        <ele>59.8</ele>
        <time>2025-02-26T13:58:40Z</time>
      </trkpt>
      <trkpt lat="43.48411" lon="6.57576">
        <ele>59.9</ele>
        <time>2025-02-26T13:58:41Z</time>
      </trkpt>
      <trkpt lat="43.48411" lon="6.57577">
        <ele>60</ele>
        <time>2025-02-26T13:58:42Z</time>
      </trkpt>
      <trkpt lat="43.4841" lon="6.57578">
        <ele>60.1</ele>
        <time>2025-02-26T13:58:43Z</time>
      </trkpt>
      <trkpt lat="43.4841" lon="6.5758">
        <ele>60.3</ele>
        <time>2025-02-26T13:58:44Z</time>
      </trkpt>
      <trkpt lat="43.48409" lon="6.57581">
        <ele>60.5</ele>
        <time>2025-02-26T13:58:45Z</time>
      </trkpt>
      <trkpt lat="43.48409" lon="6.57582">
        <ele>60.6</ele>
        <time>2025-02-26T13:58:46Z</time>
      </trkpt>
      <trkpt lat="43.48409" lon="6.57583">
        <ele>60.8</ele>
        <time>2025-02-26T13:58:47Z</time>
      </trkpt>
      <trkpt lat="43.48409" lon="6.57584">
        <ele>60.8</ele>
        <time>2025-02-26T13:58:48Z</time>
      </trkpt>
      <trkpt lat="43.48408" lon="6.57586">
        <ele>60.8</ele>
        <time>2025-02-26T13:58:49Z</time>
      </trkpt>
      <trkpt lat="43.48408" lon="6.57587">
        <ele>60.9</ele>
        <time>2025-02-26T13:58:50Z</time>
      </trkpt>
      <trkpt lat="43.48408" lon="6.57588">
        <ele>61</ele>
        <time>2025-02-26T13:58:51Z</time>
      </trkpt>
      <trkpt lat="43.48408" lon="6.57589">
        <ele>61.1</ele>
        <time>2025-02-26T13:58:52Z</time>
      </trkpt>
      <trkpt lat="43.48407" lon="6.5759">
        <ele>61.4</ele>
        <time>2025-02-26T13:58:53Z</time>
      </trkpt>
      <trkpt lat="43.48408" lon="6.57591">
        <ele>61.6</ele>
        <time>2025-02-26T13:58:54Z</time>
      </trkpt>
      <trkpt lat="43.48408" lon="6.57592">
        <ele>61.7</ele>
        <time>2025-02-26T13:58:55Z</time>
      </trkpt>
      <trkpt lat="43.48409" lon="6.57593">
        <ele>61.8</ele>
        <time>2025-02-26T13:58:56Z</time>
      </trkpt>
      <trkpt lat="43.48409" lon="6.57594">
        <ele>61.9</ele>
        <time>2025-02-26T13:58:57Z</time>
      </trkpt>
      <trkpt lat="43.4841" lon="6.57595">
        <ele>62</ele>
        <time>2025-02-26T13:58:58Z</time>
      </trkpt>
      <trkpt lat="43.48411" lon="6.57596">
        <ele>62.1</ele>
        <time>2025-02-26T13:58:59Z</time>
      </trkpt>
      <trkpt lat="43.48411" lon="6.57597">
        <ele>62.3</ele>
        <time>2025-02-26T13:59:00Z</time>
      </trkpt>
      <trkpt lat="43.48412" lon="6.57598">
        <ele>62.4</ele>
        <time>2025-02-26T13:59:01Z</time>
      </trkpt>
      <trkpt lat="43.48413" lon="6.57599">
        <ele>62.5</ele>
        <time>2025-02-26T13:59:02Z</time>
      </trkpt>
      <trkpt lat="43.48413" lon="6.576">
        <ele>62.6</ele>
        <time>2025-02-26T13:59:03Z</time>
      </trkpt>
      <trkpt lat="43.48414" lon="6.57601">
        <ele>62.7</ele>
        <time>2025-02-26T13:59:04Z</time>
      </trkpt>
      <trkpt lat="43.48415" lon="6.57602">
        <ele>62.8</ele>
        <time>2025-02-26T13:59:05Z</time>
      </trkpt>
      <trkpt lat="43.48415" lon="6.57603">
        <ele>62.8</ele>
        <time>2025-02-26T13:59:06Z</time>
      </trkpt>
      <trkpt lat="43.48416" lon="6.57604">
        <ele>62.9</ele>
        <time>2025-02-26T13:59:07Z</time>
      </trkpt>
      <trkpt lat="43.48416" lon="6.57605">
        <ele>62.9</ele>
        <time>2025-02-26T13:59:08Z</time>
      </trkpt>
      <trkpt lat="43.48416" lon="6.57607">
        <ele>63.1</ele>
        <time>2025-02-26T13:59:09Z</time>
      </trkpt>
      <trkpt lat="43.48417" lon="6.57608">
        <ele>63.3</ele>
        <time>2025-02-26T13:59:10Z</time>
      </trkpt>
      <trkpt lat="43.48417" lon="6.57609">
        <ele>63.4</ele>
        <time>2025-02-26T13:59:11Z</time>
      </trkpt>
      <trkpt lat="43.48418" lon="6.5761">
        <ele>63.4</ele>
        <time>2025-02-26T13:59:12Z</time>
      </trkpt>
      <trkpt lat="43.48418" lon="6.57612">
        <ele>63.4</ele>
        <time>2025-02-26T13:59:13Z</time>
      </trkpt>
      <trkpt lat="43.48419" lon="6.57613">
        <ele>63.5</ele>
        <time>2025-02-26T13:59:14Z</time>
      </trkpt>
      <trkpt lat="43.48419" lon="6.57614">
        <ele>63.5</ele>
        <time>2025-02-26T13:59:15Z</time>
      </trkpt>
      <trkpt lat="43.48419" lon="6.57616">
        <ele>63.6</ele>
        <time>2025-02-26T13:59:16Z</time>
      </trkpt>
      <trkpt lat="43.48419" lon="6.57617">
        <ele>63.7</ele>
        <time>2025-02-26T13:59:17Z</time>
      </trkpt>
      <trkpt lat="43.4842" lon="6.57619">
        <ele>63.8</ele>
        <time>2025-02-26T13:59:18Z</time>
      </trkpt>
      <trkpt lat="43.4842" lon="6.57621">
        <ele>63.9</ele>
        <time>2025-02-26T13:59:19Z</time>
      </trkpt>
      <trkpt lat="43.48421" lon="6.57622">
        <ele>63.9</ele>
        <time>2025-02-26T13:59:20Z</time>
      </trkpt>
      <trkpt lat="43.48421" lon="6.57624">
        <ele>63.9</ele>
        <time>2025-02-26T13:59:21Z</time>
      </trkpt>
      <trkpt lat="43.48421" lon="6.57625">
        <ele>63.9</ele>
        <time>2025-02-26T13:59:22Z</time>
      </trkpt>
      <trkpt lat="43.48422" lon="6.57627">
        <ele>63.9</ele>
        <time>2025-02-26T13:59:23Z</time>
      </trkpt>
      <trkpt lat="43.48422" lon="6.57628">
        <ele>63.9</ele>
        <time>2025-02-26T13:59:24Z</time>
      </trkpt>
      <trkpt lat="43.48422" lon="6.5763">
        <ele>64</ele>
        <time>2025-02-26T13:59:25Z</time>
      </trkpt>
      <trkpt lat="43.48423" lon="6.57631">
        <ele>64</ele>
        <time>2025-02-26T13:59:26Z</time>
      </trkpt>
      <trkpt lat="43.48423" lon="6.57632">
        <ele>64</ele>
        <time>2025-02-26T13:59:27Z</time>
      </trkpt>
      <trkpt lat="43.48423" lon="6.57634">
        <ele>64.1</ele>
        <time>2025-02-26T13:59:28Z</time>
      </trkpt>
      <trkpt lat="43.48423" lon="6.57635">
        <ele>64.1</ele>
        <time>2025-02-26T13:59:29Z</time>
      </trkpt>
      <trkpt lat="43.48424" lon="6.57637">
        <ele>64.2</ele>
        <time>2025-02-26T13:59:30Z</time>
      </trkpt>
      <trkpt lat="43.48424" lon="6.57638">
        <ele>64.2</ele>
        <time>2025-02-26T13:59:31Z</time>
      </trkpt>
      <trkpt lat="43.48424" lon="6.57639">
        <ele>64.2</ele>
        <time>2025-02-26T13:59:32Z</time>
      </trkpt>
      <trkpt lat="43.48425" lon="6.5764">
        <ele>64.4</ele>
        <time>2025-02-26T13:59:33Z</time>
      </trkpt>
      <trkpt lat="43.48425" lon="6.57642">
        <ele>64.5</ele>
        <time>2025-02-26T13:59:34Z</time>
      </trkpt>
      <trkpt lat="43.48426" lon="6.57643">
        <ele>64.6</ele>
        <time>2025-02-26T13:59:35Z</time>
      </trkpt>
      <trkpt lat="43.48426" lon="6.57644">
        <ele>64.7</ele>
        <time>2025-02-26T13:59:36Z</time>
      </trkpt>
      <trkpt lat="43.48426" lon="6.57646">
        <ele>64.8</ele>
        <time>2025-02-26T13:59:37Z</time>
      </trkpt>
      <trkpt lat="43.48427" lon="6.57647">
        <ele>65.1</ele>
        <time>2025-02-26T13:59:38Z</time>
      </trkpt>
      <trkpt lat="43.48427" lon="6.57648">
        <ele>65.2</ele>
        <time>2025-02-26T13:59:39Z</time>
      </trkpt>
      <trkpt lat="43.48428" lon="6.5765">
        <ele>65.2</ele>
        <time>2025-02-26T13:59:40Z</time>
      </trkpt>
      <trkpt lat="43.48428" lon="6.57651">
        <ele>65.2</ele>
        <time>2025-02-26T13:59:41Z</time>
      </trkpt>
      <trkpt lat="43.48428" lon="6.57653">
        <ele>65.2</ele>
        <time>2025-02-26T13:59:42Z</time>
      </trkpt>
      <trkpt lat="43.48427" lon="6.57654">
        <ele>65.2</ele>
        <time>2025-02-26T13:59:43Z</time>
      </trkpt>
      <trkpt lat="43.48427" lon="6.57655">
        <ele>65.3</ele>
        <time>2025-02-26T13:59:44Z</time>
      </trkpt>
      <trkpt lat="43.48427" lon="6.57657">
        <ele>65.4</ele>
        <time>2025-02-26T13:59:45Z</time>
      </trkpt>
      <trkpt lat="43.48427" lon="6.57658">
        <ele>65.4</ele>
        <time>2025-02-26T13:59:46Z</time>
      </trkpt>
      <trkpt lat="43.48427" lon="6.57659">
        <ele>65.5</ele>
        <time>2025-02-26T13:59:47Z</time>
      </trkpt>
      <trkpt lat="43.48428" lon="6.57661">
        <ele>65.5</ele>
        <time>2025-02-26T13:59:48Z</time>
      </trkpt>
      <trkpt lat="43.48428" lon="6.57662">
        <ele>65.5</ele>
        <time>2025-02-26T13:59:49Z</time>
      </trkpt>
      <trkpt lat="43.48428" lon="6.57664">
        <ele>65.6</ele>
        <time>2025-02-26T13:59:50Z</time>
      </trkpt>
      <trkpt lat="43.48428" lon="6.57665">
        <ele>65.6</ele>
        <time>2025-02-26T13:59:51Z</time>
      </trkpt>
      <trkpt lat="43.48428" lon="6.57667">
        <ele>65.6</ele>
        <time>2025-02-26T13:59:52Z</time>
      </trkpt>
      <trkpt lat="43.48429" lon="6.57668">
        <ele>65.5</ele>
        <time>2025-02-26T13:59:53Z</time>
      </trkpt>
      <trkpt lat="43.48429" lon="6.5767">
        <ele>65.5</ele>
        <time>2025-02-26T13:59:54Z</time>
      </trkpt>
      <trkpt lat="43.48429" lon="6.57671">
        <ele>65.5</ele>
        <time>2025-02-26T13:59:55Z</time>
      </trkpt>
      <trkpt lat="43.4843" lon="6.57673">
        <ele>65.5</ele>
        <time>2025-02-26T13:59:56Z</time>
      </trkpt>
      <trkpt lat="43.48431" lon="6.57674">
        <ele>65.4</ele>
        <time>2025-02-26T13:59:57Z</time>
      </trkpt>
      <trkpt lat="43.48431" lon="6.57675">
        <ele>65.4</ele>
        <time>2025-02-26T13:59:58Z</time>
      </trkpt>
      <trkpt lat="43.48432" lon="6.57676">
        <ele>65.3</ele>
        <time>2025-02-26T13:59:59Z</time>
      </trkpt>
      <trkpt lat="43.48432" lon="6.57677">
        <ele>65.3</ele>
        <time>2025-02-26T14:00:00Z</time>
      </trkpt>
      <trkpt lat="43.48432" lon="6.57679">
        <ele>65.4</ele>
        <time>2025-02-26T14:00:01Z</time>
      </trkpt>
      <trkpt lat="43.48432" lon="6.5768">
        <ele>65.5</ele>
        <time>2025-02-26T14:00:02Z</time>
      </trkpt>
      <trkpt lat="43.48433" lon="6.57682">
        <ele>65.7</ele>
        <time>2025-02-26T14:00:03Z</time>
      </trkpt>
      <trkpt lat="43.48433" lon="6.57683">
        <ele>65.8</ele>
        <time>2025-02-26T14:00:04Z</time>
      </trkpt>
      <trkpt lat="43.48433" lon="6.57685">
        <ele>65.9</ele>
        <time>2025-02-26T14:00:05Z</time>
      </trkpt>
      <trkpt lat="43.48434" lon="6.57686">
        <ele>66.1</ele>
        <time>2025-02-26T14:00:06Z</time>
      </trkpt>
      <trkpt lat="43.48434" lon="6.57688">
        <ele>66.1</ele>
        <time>2025-02-26T14:00:07Z</time>
      </trkpt>
      <trkpt lat="43.48435" lon="6.57689">
        <ele>66.2</ele>
        <time>2025-02-26T14:00:08Z</time>
      </trkpt>
      <trkpt lat="43.48435" lon="6.5769">
        <ele>66.3</ele>
        <time>2025-02-26T14:00:09Z</time>
      </trkpt>
      <trkpt lat="43.48435" lon="6.57692">
        <ele>66.4</ele>
        <time>2025-02-26T14:00:10Z</time>
      </trkpt>
      <trkpt lat="43.48436" lon="6.57693">
        <ele>66.6</ele>
        <time>2025-02-26T14:00:11Z</time>
      </trkpt>
      <trkpt lat="43.48436" lon="6.57695">
        <ele>66.8</ele>
        <time>2025-02-26T14:00:12Z</time>
      </trkpt>
      <trkpt lat="43.48436" lon="6.57696">
        <ele>66.9</ele>
        <time>2025-02-26T14:00:13Z</time>
      </trkpt>
      <trkpt lat="43.48436" lon="6.57698">
        <ele>67</ele>
        <time>2025-02-26T14:00:14Z</time>
      </trkpt>
      <trkpt lat="43.48436" lon="6.57699">
        <ele>67.1</ele>
        <time>2025-02-26T14:00:15Z</time>
      </trkpt>
      <trkpt lat="43.48436" lon="6.577">
        <ele>67.3</ele>
        <time>2025-02-26T14:00:16Z</time>
      </trkpt>
      <trkpt lat="43.48436" lon="6.57702">
        <ele>67.5</ele>
        <time>2025-02-26T14:00:17Z</time>
      </trkpt>
      <trkpt lat="43.48436" lon="6.57703">
        <ele>67.6</ele>
        <time>2025-02-26T14:00:18Z</time>
      </trkpt>
      <trkpt lat="43.48436" lon="6.57704">
        <ele>67.7</ele>
        <time>2025-02-26T14:00:19Z</time>
      </trkpt>
      <trkpt lat="43.48436" lon="6.57706">
        <ele>67.8</ele>
        <time>2025-02-26T14:00:20Z</time>
      </trkpt>
      <trkpt lat="43.48437" lon="6.57707">
        <ele>67.9</ele>
        <time>2025-02-26T14:00:21Z</time>
      </trkpt>
      <trkpt lat="43.48437" lon="6.57708">
        <ele>68.1</ele>
        <time>2025-02-26T14:00:22Z</time>
      </trkpt>
      <trkpt lat="43.48437" lon="6.5771">
        <ele>68</ele>
        <time>2025-02-26T14:00:23Z</time>
      </trkpt>
      <trkpt lat="43.48437" lon="6.57711">
        <ele>68.1</ele>
        <time>2025-02-26T14:00:24Z</time>
      </trkpt>
      <trkpt lat="43.48437" lon="6.57713">
        <ele>68.1</ele>
        <time>2025-02-26T14:00:25Z</time>
      </trkpt>
      <trkpt lat="43.48437" lon="6.57714">
        <ele>68.2</ele>
        <time>2025-02-26T14:00:26Z</time>
      </trkpt>
      <trkpt lat="43.48437" lon="6.57715">
        <ele>68.3</ele>
        <time>2025-02-26T14:00:27Z</time>
      </trkpt>
      <trkpt lat="43.48437" lon="6.57717">
        <ele>68.5</ele>
        <time>2025-02-26T14:00:28Z</time>
      </trkpt>
      <trkpt lat="43.48438" lon="6.57718">
        <ele>68.6</ele>
        <time>2025-02-26T14:00:29Z</time>
      </trkpt>
      <trkpt lat="43.48438" lon="6.57719">
        <ele>68.8</ele>
        <time>2025-02-26T14:00:30Z</time>
      </trkpt>
      <trkpt lat="43.48438" lon="6.5772">
        <ele>68.9</ele>
        <time>2025-02-26T14:00:31Z</time>
      </trkpt>
      <trkpt lat="43.48438" lon="6.57721">
        <ele>69</ele>
        <time>2025-02-26T14:00:32Z</time>
      </trkpt>
      <trkpt lat="43.48439" lon="6.57722">
        <ele>69.1</ele>
        <time>2025-02-26T14:00:33Z</time>
      </trkpt>
      <trkpt lat="43.48439" lon="6.57724">
        <ele>69.1</ele>
        <time>2025-02-26T14:00:34Z</time>
      </trkpt>
      <trkpt lat="43.48439" lon="6.57725">
        <ele>69.3</ele>
        <time>2025-02-26T14:00:35Z</time>
      </trkpt>
      <trkpt lat="43.48439" lon="6.57726">
        <ele>69.4</ele>
        <time>2025-02-26T14:00:36Z</time>
      </trkpt>
      <trkpt lat="43.48439" lon="6.57728">
        <ele>69.5</ele>
        <time>2025-02-26T14:00:37Z</time>
      </trkpt>
      <trkpt lat="43.4844" lon="6.57729">
        <ele>69.6</ele>
        <time>2025-02-26T14:00:38Z</time>
      </trkpt>
      <trkpt lat="43.4844" lon="6.57731">
        <ele>69.7</ele>
        <time>2025-02-26T14:00:39Z</time>
      </trkpt>
      <trkpt lat="43.4844" lon="6.57732">
        <ele>69.6</ele>
        <time>2025-02-26T14:00:40Z</time>
      </trkpt>
      <trkpt lat="43.48441" lon="6.57734">
        <ele>69.6</ele>
        <time>2025-02-26T14:00:41Z</time>
      </trkpt>
      <trkpt lat="43.48441" lon="6.57735">
        <ele>69.6</ele>
        <time>2025-02-26T14:00:42Z</time>
      </trkpt>
      <trkpt lat="43.48441" lon="6.57736">
        <ele>69.8</ele>
        <time>2025-02-26T14:00:43Z</time>
      </trkpt>
      <trkpt lat="43.48442" lon="6.57738">
        <ele>69.9</ele>
        <time>2025-02-26T14:00:44Z</time>
      </trkpt>
      <trkpt lat="43.48442" lon="6.57739">
        <ele>70</ele>
        <time>2025-02-26T14:00:45Z</time>
      </trkpt>
      <trkpt lat="43.48442" lon="6.5774">
        <ele>70.2</ele>
        <time>2025-02-26T14:00:46Z</time>
      </trkpt>
      <trkpt lat="43.48443" lon="6.57742">
        <ele>70.4</ele>
        <time>2025-02-26T14:00:47Z</time>
      </trkpt>
      <trkpt lat="43.48443" lon="6.57743">
        <ele>70.5</ele>
        <time>2025-02-26T14:00:48Z</time>
      </trkpt>
      <trkpt lat="43.48444" lon="6.57744">
        <ele>70.6</ele>
        <time>2025-02-26T14:00:49Z</time>
      </trkpt>
      <trkpt lat="43.48445" lon="6.57745">
        <ele>70.6</ele>
        <time>2025-02-26T14:00:50Z</time>
      </trkpt>
      <trkpt lat="43.48445" lon="6.57746">
        <ele>70.7</ele>
        <time>2025-02-26T14:00:51Z</time>
      </trkpt>
      <trkpt lat="43.48446" lon="6.57747">
        <ele>70.7</ele>
        <time>2025-02-26T14:00:52Z</time>
      </trkpt>
      <trkpt lat="43.48446" lon="6.57748">
        <ele>70.8</ele>
        <time>2025-02-26T14:00:53Z</time>
      </trkpt>
      <trkpt lat="43.48447" lon="6.57749">
        <ele>70.9</ele>
        <time>2025-02-26T14:00:54Z</time>
      </trkpt>
      <trkpt lat="43.48447" lon="6.57751">
        <ele>71</ele>
        <time>2025-02-26T14:00:55Z</time>
      </trkpt>
      <trkpt lat="43.48447" lon="6.57752">
        <ele>71.1</ele>
        <time>2025-02-26T14:00:56Z</time>
      </trkpt>
      <trkpt lat="43.48448" lon="6.57753">
        <ele>71.2</ele>
        <time>2025-02-26T14:00:57Z</time>
      </trkpt>
      <trkpt lat="43.48448" lon="6.57755">
        <ele>71.2</ele>
        <time>2025-02-26T14:00:58Z</time>
      </trkpt>
      <trkpt lat="43.48448" lon="6.57756">
        <ele>71.2</ele>
        <time>2025-02-26T14:00:59Z</time>
      </trkpt>
      <trkpt lat="43.48448" lon="6.57757">
        <ele>71.2</ele>
        <time>2025-02-26T14:01:00Z</time>
      </trkpt>
      <trkpt lat="43.48448" lon="6.57758">
        <ele>71.3</ele>
        <time>2025-02-26T14:01:01Z</time>
      </trkpt>
      <trkpt lat="43.48449" lon="6.5776">
        <ele>71.3</ele>
        <time>2025-02-26T14:01:02Z</time>
      </trkpt>
      <trkpt lat="43.48449" lon="6.57761">
        <ele>71.6</ele>
        <time>2025-02-26T14:01:03Z</time>
      </trkpt>
      <trkpt lat="43.48449" lon="6.57763">
        <ele>71.7</ele>
        <time>2025-02-26T14:01:04Z</time>
      </trkpt>
      <trkpt lat="43.48449" lon="6.57764">
        <ele>71.8</ele>
        <time>2025-02-26T14:01:05Z</time>
      </trkpt>
      <trkpt lat="43.48449" lon="6.57766">
        <ele>71.9</ele>
        <time>2025-02-26T14:01:06Z</time>
      </trkpt>
      <trkpt lat="43.48449" lon="6.57767">
        <ele>72</ele>
        <time>2025-02-26T14:01:07Z</time>
      </trkpt>
      <trkpt lat="43.4845" lon="6.57768">
        <ele>72</ele>
        <time>2025-02-26T14:01:08Z</time>
      </trkpt>
      <trkpt lat="43.4845" lon="6.57769">
        <ele>72.1</ele>
        <time>2025-02-26T14:01:09Z</time>
      </trkpt>
      <trkpt lat="43.4845" lon="6.57771">
        <ele>72.1</ele>
        <time>2025-02-26T14:01:10Z</time>
      </trkpt>
      <trkpt lat="43.4845" lon="6.57772">
        <ele>72.1</ele>
        <time>2025-02-26T14:01:11Z</time>
      </trkpt>
      <trkpt lat="43.4845" lon="6.57774">
        <ele>72.2</ele>
        <time>2025-02-26T14:01:12Z</time>
      </trkpt>
      <trkpt lat="43.4845" lon="6.57775">
        <ele>72.2</ele>
        <time>2025-02-26T14:01:13Z</time>
      </trkpt>
      <trkpt lat="43.4845" lon="6.57777">
        <ele>72.2</ele>
        <time>2025-02-26T14:01:14Z</time>
      </trkpt>
      <trkpt lat="43.4845" lon="6.57778">
        <ele>72.3</ele>
        <time>2025-02-26T14:01:15Z</time>
      </trkpt>
      <trkpt lat="43.48451" lon="6.57779">
        <ele>72.5</ele>
        <time>2025-02-26T14:01:16Z</time>
      </trkpt>
      <trkpt lat="43.48451" lon="6.5778">
        <ele>72.6</ele>
        <time>2025-02-26T14:01:17Z</time>
      </trkpt>
      <trkpt lat="43.48452" lon="6.57782">
        <ele>72.7</ele>
        <time>2025-02-26T14:01:18Z</time>
      </trkpt>
      <trkpt lat="43.48452" lon="6.57783">
        <ele>72.8</ele>
        <time>2025-02-26T14:01:19Z</time>
      </trkpt>
      <trkpt lat="43.48452" lon="6.57784">
        <ele>72.8</ele>
        <time>2025-02-26T14:01:20Z</time>
      </trkpt>
      <trkpt lat="43.48453" lon="6.57786">
        <ele>72.9</ele>
        <time>2025-02-26T14:01:21Z</time>
      </trkpt>
      <trkpt lat="43.48454" lon="6.57787">
        <ele>73</ele>
        <time>2025-02-26T14:01:22Z</time>
      </trkpt>
      <trkpt lat="43.48454" lon="6.57788">
        <ele>73.1</ele>
        <time>2025-02-26T14:01:23Z</time>
      </trkpt>
      <trkpt lat="43.48455" lon="6.57789">
        <ele>73.2</ele>
        <time>2025-02-26T14:01:24Z</time>
      </trkpt>
      <trkpt lat="43.48455" lon="6.57791">
        <ele>73.3</ele>
        <time>2025-02-26T14:01:25Z</time>
      </trkpt>
      <trkpt lat="43.48456" lon="6.57792">
        <ele>73.4</ele>
        <time>2025-02-26T14:01:26Z</time>
      </trkpt>
      <trkpt lat="43.48457" lon="6.57793">
        <ele>73.4</ele>
        <time>2025-02-26T14:01:27Z</time>
      </trkpt>
      <trkpt lat="43.48458" lon="6.57794">
        <ele>73.5</ele>
        <time>2025-02-26T14:01:28Z</time>
      </trkpt>
      <trkpt lat="43.48458" lon="6.57795">
        <ele>73.6</ele>
        <time>2025-02-26T14:01:29Z</time>
      </trkpt>
      <trkpt lat="43.48459" lon="6.57796">
        <ele>73.6</ele>
        <time>2025-02-26T14:01:30Z</time>
      </trkpt>
      <trkpt lat="43.4846" lon="6.57797">
        <ele>73.6</ele>
        <time>2025-02-26T14:01:31Z</time>
      </trkpt>
      <trkpt lat="43.48461" lon="6.57798">
        <ele>73.6</ele>
        <time>2025-02-26T14:01:32Z</time>
      </trkpt>
      <trkpt lat="43.48462" lon="6.578">
        <ele>73.6</ele>
        <time>2025-02-26T14:01:33Z</time>
      </trkpt>
      <trkpt lat="43.48462" lon="6.57801">
        <ele>73.7</ele>
        <time>2025-02-26T14:01:34Z</time>
      </trkpt>
      <trkpt lat="43.48463" lon="6.57802">
        <ele>73.8</ele>
        <time>2025-02-26T14:01:35Z</time>
      </trkpt>
      <trkpt lat="43.48464" lon="6.57803">
        <ele>73.8</ele>
        <time>2025-02-26T14:01:36Z</time>
      </trkpt>
      <trkpt lat="43.48465" lon="6.57804">
        <ele>73.9</ele>
        <time>2025-02-26T14:01:37Z</time>
      </trkpt>
      <trkpt lat="43.48466" lon="6.57805">
        <ele>74</ele>
        <time>2025-02-26T14:01:38Z</time>
      </trkpt>
      <trkpt lat="43.48467" lon="6.57806">
        <ele>74.1</ele>
        <time>2025-02-26T14:01:39Z</time>
      </trkpt>
      <trkpt lat="43.48468" lon="6.57808">
        <ele>74.1</ele>
        <time>2025-02-26T14:01:40Z</time>
      </trkpt>
      <trkpt lat="43.48468" lon="6.57809">
        <ele>74.1</ele>
        <time>2025-02-26T14:01:41Z</time>
      </trkpt>
      <trkpt lat="43.48469" lon="6.5781">
        <ele>74</ele>
        <time>2025-02-26T14:01:42Z</time>
      </trkpt>
      <trkpt lat="43.4847" lon="6.57811">
        <ele>74</ele>
        <time>2025-02-26T14:01:43Z</time>
      </trkpt>
      <trkpt lat="43.48471" lon="6.57812">
        <ele>74.1</ele>
        <time>2025-02-26T14:01:44Z</time>
      </trkpt>
      <trkpt lat="43.48472" lon="6.57813">
        <ele>74.2</ele>
        <time>2025-02-26T14:01:45Z</time>
      </trkpt>
      <trkpt lat="43.48473" lon="6.57814">
        <ele>74.1</ele>
        <time>2025-02-26T14:01:46Z</time>
      </trkpt>
      <trkpt lat="43.48474" lon="6.57815">
        <ele>74.3</ele>
        <time>2025-02-26T14:01:47Z</time>
      </trkpt>
      <trkpt lat="43.48475" lon="6.57816">
        <ele>74.4</ele>
        <time>2025-02-26T14:01:48Z</time>
      </trkpt>
      <trkpt lat="43.48476" lon="6.57817">
        <ele>74.4</ele>
        <time>2025-02-26T14:01:49Z</time>
      </trkpt>
      <trkpt lat="43.48477" lon="6.57818">
        <ele>74.4</ele>
        <time>2025-02-26T14:01:50Z</time>
      </trkpt>
      <trkpt lat="43.48477" lon="6.57819">
        <ele>74.5</ele>
        <time>2025-02-26T14:01:51Z</time>
      </trkpt>
      <trkpt lat="43.48478" lon="6.5782">
        <ele>74.4</ele>
        <time>2025-02-26T14:01:52Z</time>
      </trkpt>
      <trkpt lat="43.48479" lon="6.57821">
        <ele>74.3</ele>
        <time>2025-02-26T14:01:53Z</time>
      </trkpt>
      <trkpt lat="43.4848" lon="6.57822">
        <ele>74.3</ele>
        <time>2025-02-26T14:01:54Z</time>
      </trkpt>
      <trkpt lat="43.48481" lon="6.57823">
        <ele>74.2</ele>
        <time>2025-02-26T14:01:55Z</time>
      </trkpt>
      <trkpt lat="43.48481" lon="6.57824">
        <ele>74.2</ele>
        <time>2025-02-26T14:01:56Z</time>
      </trkpt>
      <trkpt lat="43.48482" lon="6.57824">
        <ele>74.2</ele>
        <time>2025-02-26T14:01:57Z</time>
      </trkpt>
      <trkpt lat="43.48482" lon="6.57825">
        <ele>74.1</ele>
        <time>2025-02-26T14:01:58Z</time>
      </trkpt>
      <trkpt lat="43.48482" lon="6.57825">
        <ele>74.2</ele>
        <time>2025-02-26T14:01:59Z</time>
      </trkpt>
      <trkpt lat="43.48482" lon="6.57825">
        <ele>74.2</ele>
        <time>2025-02-26T14:02:00Z</time>
      </trkpt>
      <trkpt lat="43.48482" lon="6.57825">
        <ele>74.2</ele>
        <time>2025-02-26T14:02:01Z</time>
      </trkpt>
      <trkpt lat="43.48482" lon="6.57826">
        <ele>74.2</ele>
        <time>2025-02-26T14:02:02Z</time>
      </trkpt>
      <trkpt lat="43.48482" lon="6.57826">
        <ele>74.3</ele>
        <time>2025-02-26T14:02:03Z</time>
      </trkpt>
      <trkpt lat="43.48481" lon="6.57827">
        <ele>74.3</ele>
        <time>2025-02-26T14:02:04Z</time>
      </trkpt>
      <trkpt lat="43.48481" lon="6.57827">
        <ele>74.5</ele>
        <time>2025-02-26T14:02:05Z</time>
      </trkpt>
      <trkpt lat="43.48481" lon="6.57827">
        <ele>74.6</ele>
        <time>2025-02-26T14:02:06Z</time>
      </trkpt>
      <trkpt lat="43.48481" lon="6.57827">
        <ele>74.6</ele>
        <time>2025-02-26T14:02:07Z</time>
      </trkpt>
      <trkpt lat="43.48481" lon="6.57827">
        <ele>74.8</ele>
        <time>2025-02-26T14:02:08Z</time>
      </trkpt>
      <trkpt lat="43.48481" lon="6.57828">
        <ele>74.8</ele>
        <time>2025-02-26T14:02:09Z</time>
      </trkpt>
      <trkpt lat="43.48481" lon="6.57828">
        <ele>74.9</ele>
        <time>2025-02-26T14:02:10Z</time>
      </trkpt>
      <trkpt lat="43.48481" lon="6.57828">
        <ele>74.9</ele>
        <time>2025-02-26T14:02:11Z</time>
      </trkpt>
      <trkpt lat="43.48481" lon="6.57828">
        <ele>74.8</ele>
        <time>2025-02-26T14:02:12Z</time>
      </trkpt>
      <trkpt lat="43.48481" lon="6.57828">
        <ele>74.9</ele>
        <time>2025-02-26T14:02:13Z</time>
      </trkpt>
      <trkpt lat="43.48481" lon="6.57828">
        <ele>74.8</ele>
        <time>2025-02-26T14:02:14Z</time>
      </trkpt>
      <trkpt lat="43.48481" lon="6.57828">
        <ele>74.8</ele>
        <time>2025-02-26T14:02:15Z</time>
      </trkpt>
      <trkpt lat="43.48481" lon="6.57828">
        <ele>74.8</ele>
        <time>2025-02-26T14:02:16Z</time>
      </trkpt>
      <trkpt lat="43.48481" lon="6.57828">
        <ele>74.8</ele>
        <time>2025-02-26T14:02:17Z</time>
      </trkpt>
      <trkpt lat="43.48481" lon="6.57829">
        <ele>74.9</ele>
        <time>2025-02-26T14:02:18Z</time>
      </trkpt>
      <trkpt lat="43.48481" lon="6.57829">
        <ele>74.9</ele>
        <time>2025-02-26T14:02:19Z</time>
      </trkpt>
      <trkpt lat="43.48481" lon="6.57829">
        <ele>74.9</ele>
        <time>2025-02-26T14:02:20Z</time>
      </trkpt>
      <trkpt lat="43.48481" lon="6.57829">
        <ele>74.9</ele>
        <time>2025-02-26T14:02:21Z</time>
      </trkpt>
      <trkpt lat="43.48482" lon="6.57829">
        <ele>74.9</ele>
        <time>2025-02-26T14:02:22Z</time>
      </trkpt>
      <trkpt lat="43.48482" lon="6.57829">
        <ele>74.8</ele>
        <time>2025-02-26T14:02:23Z</time>
      </trkpt>
      <trkpt lat="43.48482" lon="6.57829">
        <ele>74.6</ele>
        <time>2025-02-26T14:02:24Z</time>
      </trkpt>
      <trkpt lat="43.48482" lon="6.57829">
        <ele>74.6</ele>
        <time>2025-02-26T14:02:25Z</time>
      </trkpt>
      <trkpt lat="43.48482" lon="6.57829">
        <ele>74.5</ele>
        <time>2025-02-26T14:02:26Z</time>
      </trkpt>
      <trkpt lat="43.48482" lon="6.57829">
        <ele>74.6</ele>
        <time>2025-02-26T14:02:27Z</time>
      </trkpt>
      <trkpt lat="43.48482" lon="6.57829">
        <ele>74.7</ele>
        <time>2025-02-26T14:02:28Z</time>
      </trkpt>
      <trkpt lat="43.48482" lon="6.57829">
        <ele>74.7</ele>
        <time>2025-02-26T14:02:29Z</time>
      </trkpt>
      <trkpt lat="43.48482" lon="6.57829">
        <ele>74.7</ele>
        <time>2025-02-26T14:02:30Z</time>
      </trkpt>
      <trkpt lat="43.48482" lon="6.57829">
        <ele>74.6</ele>
        <time>2025-02-26T14:02:31Z</time>
      </trkpt>
      <trkpt lat="43.48482" lon="6.57829">
        <ele>74.6</ele>
        <time>2025-02-26T14:02:32Z</time>
      </trkpt>
      <trkpt lat="43.48482" lon="6.57829">
        <ele>74.6</ele>
        <time>2025-02-26T14:02:33Z</time>
      </trkpt>
      <trkpt lat="43.48482" lon="6.57829">
        <ele>74.7</ele>
        <time>2025-02-26T14:02:34Z</time>
      </trkpt>
      <trkpt lat="43.48482" lon="6.57829">
        <ele>74.6</ele>
        <time>2025-02-26T14:02:35Z</time>
      </trkpt>
      <trkpt lat="43.48482" lon="6.57829">
        <ele>74.6</ele>
        <time>2025-02-26T14:02:36Z</time>
      </trkpt>
      <trkpt lat="43.48483" lon="6.57829">
        <ele>74.6</ele>
        <time>2025-02-26T14:02:37Z</time>
      </trkpt>
      <trkpt lat="43.48483" lon="6.57829">
        <ele>74.7</ele>
        <time>2025-02-26T14:02:38Z</time>
      </trkpt>
      <trkpt lat="43.48483" lon="6.57829">
        <ele>74.6</ele>
        <time>2025-02-26T14:02:39Z</time>
      </trkpt>
      <trkpt lat="43.48483" lon="6.57829">
        <ele>74.6</ele>
        <time>2025-02-26T14:02:40Z</time>
      </trkpt>
      <trkpt lat="43.48483" lon="6.57829">
        <ele>74.6</ele>
        <time>2025-02-26T14:02:41Z</time>
      </trkpt>
      <trkpt lat="43.48483" lon="6.57829">
        <ele>74.6</ele>
        <time>2025-02-26T14:02:42Z</time>
      </trkpt>
      <trkpt lat="43.48483" lon="6.57829">
        <ele>74.4</ele>
        <time>2025-02-26T14:02:43Z</time>
      </trkpt>
      <trkpt lat="43.48483" lon="6.5783">
        <ele>74.5</ele>
        <time>2025-02-26T14:02:44Z</time>
      </trkpt>
      <trkpt lat="43.48483" lon="6.5783">
        <ele>74.5</ele>
        <time>2025-02-26T14:02:45Z</time>
      </trkpt>
      <trkpt lat="43.48483" lon="6.5783">
        <ele>74.5</ele>
        <time>2025-02-26T14:02:46Z</time>
      </trkpt>
      <trkpt lat="43.48483" lon="6.5783">
        <ele>74.5</ele>
        <time>2025-02-26T14:02:47Z</time>
      </trkpt>
      <trkpt lat="43.48483" lon="6.5783">
        <ele>74.4</ele>
        <time>2025-02-26T14:02:48Z</time>
      </trkpt>
      <trkpt lat="43.48483" lon="6.5783">
        <ele>74.4</ele>
        <time>2025-02-26T14:02:49Z</time>
      </trkpt>
      <trkpt lat="43.48483" lon="6.5783">
        <ele>74.5</ele>
        <time>2025-02-26T14:02:50Z</time>
      </trkpt>
      <trkpt lat="43.48483" lon="6.5783">
        <ele>74.4</ele>
        <time>2025-02-26T14:02:51Z</time>
      </trkpt>
      <trkpt lat="43.48483" lon="6.5783">
        <ele>74.3</ele>
        <time>2025-02-26T14:02:52Z</time>
      </trkpt>
      <trkpt lat="43.48483" lon="6.5783">
        <ele>74.3</ele>
        <time>2025-02-26T14:02:53Z</time>
      </trkpt>
      <trkpt lat="43.48483" lon="6.5783">
        <ele>74.2</ele>
        <time>2025-02-26T14:02:54Z</time>
      </trkpt>
      <trkpt lat="43.48482" lon="6.5783">
        <ele>74.2</ele>
        <time>2025-02-26T14:02:55Z</time>
      </trkpt>
      <trkpt lat="43.48482" lon="6.5783">
        <ele>74.2</ele>
        <time>2025-02-26T14:02:56Z</time>
      </trkpt>
      <trkpt lat="43.48482" lon="6.5783">
        <ele>74.2</ele>
        <time>2025-02-26T14:02:57Z</time>
      </trkpt>
      <trkpt lat="43.48482" lon="6.5783">
        <ele>74.3</ele>
        <time>2025-02-26T14:02:58Z</time>
      </trkpt>
      <trkpt lat="43.48482" lon="6.5783">
        <ele>74.3</ele>
        <time>2025-02-26T14:02:59Z</time>
      </trkpt>
      <trkpt lat="43.48482" lon="6.5783">
        <ele>74.3</ele>
        <time>2025-02-26T14:03:00Z</time>
      </trkpt>
      <trkpt lat="43.48482" lon="6.57831">
        <ele>74.3</ele>
        <time>2025-02-26T14:03:01Z</time>
      </trkpt>
      <trkpt lat="43.48482" lon="6.57831">
        <ele>74.3</ele>
        <time>2025-02-26T14:03:02Z</time>
      </trkpt>
      <trkpt lat="43.48482" lon="6.57831">
        <ele>74.3</ele>
        <time>2025-02-26T14:03:03Z</time>
      </trkpt>
      <trkpt lat="43.48482" lon="6.57831">
        <ele>74.4</ele>
        <time>2025-02-26T14:03:04Z</time>
      </trkpt>
      <trkpt lat="43.48482" lon="6.57831">
        <ele>74.5</ele>
        <time>2025-02-26T14:03:05Z</time>
      </trkpt>
      <trkpt lat="43.48482" lon="6.57831">
        <ele>74.6</ele>
        <time>2025-02-26T14:03:06Z</time>
      </trkpt>
      <trkpt lat="43.48482" lon="6.57831">
        <ele>74.6</ele>
        <time>2025-02-26T14:03:07Z</time>
      </trkpt>
      <trkpt lat="43.48482" lon="6.57831">
        <ele>74.6</ele>
        <time>2025-02-26T14:03:08Z</time>
      </trkpt>
      <trkpt lat="43.48482" lon="6.57831">
        <ele>74.5</ele>
        <time>2025-02-26T14:03:09Z</time>
      </trkpt>
      <trkpt lat="43.48482" lon="6.57831">
        <ele>74.6</ele>
        <time>2025-02-26T14:03:10Z</time>
      </trkpt>
      <trkpt lat="43.48482" lon="6.57831">
        <ele>74.8</ele>
        <time>2025-02-26T14:03:11Z</time>
      </trkpt>
      <trkpt lat="43.48482" lon="6.57831">
        <ele>74.9</ele>
        <time>2025-02-26T14:03:12Z</time>
      </trkpt>
      <trkpt lat="43.48482" lon="6.57831">
        <ele>74.9</ele>
        <time>2025-02-26T14:03:13Z</time>
      </trkpt>
      <trkpt lat="43.48482" lon="6.57831">
        <ele>75</ele>
        <time>2025-02-26T14:03:14Z</time>
      </trkpt>
      <trkpt lat="43.48482" lon="6.57831">
        <ele>75.1</ele>
        <time>2025-02-26T14:03:15Z</time>
      </trkpt>
      <trkpt lat="43.48482" lon="6.57831">
        <ele>75.2</ele>
        <time>2025-02-26T14:03:16Z</time>
      </trkpt>
      <trkpt lat="43.48482" lon="6.57831">
        <ele>75.2</ele>
        <time>2025-02-26T14:03:17Z</time>
      </trkpt>
      <trkpt lat="43.48482" lon="6.57831">
        <ele>75.2</ele>
        <time>2025-02-26T14:03:18Z</time>
      </trkpt>
      <trkpt lat="43.48482" lon="6.57831">
        <ele>75.2</ele>
        <time>2025-02-26T14:03:19Z</time>
      </trkpt>
      <trkpt lat="43.48482" lon="6.57831">
        <ele>75.3</ele>
        <time>2025-02-26T14:03:20Z</time>
      </trkpt>
      <trkpt lat="43.48482" lon="6.57831">
        <ele>75.2</ele>
        <time>2025-02-26T14:03:21Z</time>
      </trkpt>
      <trkpt lat="43.48482" lon="6.57831">
        <ele>75.1</ele>
        <time>2025-02-26T14:03:22Z</time>
      </trkpt>
      <trkpt lat="43.48482" lon="6.57831">
        <ele>75</ele>
        <time>2025-02-26T14:03:23Z</time>
      </trkpt>
      <trkpt lat="43.48482" lon="6.57831">
        <ele>75</ele>
        <time>2025-02-26T14:03:24Z</time>
      </trkpt>
      <trkpt lat="43.48482" lon="6.57831">
        <ele>74.9</ele>
        <time>2025-02-26T14:03:25Z</time>
      </trkpt>
      <trkpt lat="43.48482" lon="6.57831">
        <ele>74.9</ele>
        <time>2025-02-26T14:03:26Z</time>
      </trkpt>
      <trkpt lat="43.48482" lon="6.57831">
        <ele>75</ele>
        <time>2025-02-26T14:03:27Z</time>
      </trkpt>
      <trkpt lat="43.48482" lon="6.57831">
        <ele>75</ele>
        <time>2025-02-26T14:03:28Z</time>
      </trkpt>
      <trkpt lat="43.48482" lon="6.57831">
        <ele>75</ele>
        <time>2025-02-26T14:03:29Z</time>
      </trkpt>
      <trkpt lat="43.48482" lon="6.57831">
        <ele>75</ele>
        <time>2025-02-26T14:03:30Z</time>
      </trkpt>
      <trkpt lat="43.48482" lon="6.57831">
        <ele>75</ele>
        <time>2025-02-26T14:03:31Z</time>
      </trkpt>
      <trkpt lat="43.48482" lon="6.57831">
        <ele>75</ele>
        <time>2025-02-26T14:03:32Z</time>
      </trkpt>
      <trkpt lat="43.48482" lon="6.57831">
        <ele>75</ele>
        <time>2025-02-26T14:03:33Z</time>
      </trkpt>
      <trkpt lat="43.48482" lon="6.57831">
        <ele>75</ele>
        <time>2025-02-26T14:03:34Z</time>
      </trkpt>
      <trkpt lat="43.48482" lon="6.57831">
        <ele>75</ele>
        <time>2025-02-26T14:03:35Z</time>
      </trkpt>
      <trkpt lat="43.48482" lon="6.57831">
        <ele>74.9</ele>
        <time>2025-02-26T14:03:36Z</time>
      </trkpt>
      <trkpt lat="43.48482" lon="6.57831">
        <ele>74.9</ele>
        <time>2025-02-26T14:03:37Z</time>
      </trkpt>
      <trkpt lat="43.48482" lon="6.57831">
        <ele>74.8</ele>
        <time>2025-02-26T14:03:38Z</time>
      </trkpt>
      <trkpt lat="43.48482" lon="6.57831">
        <ele>74.8</ele>
        <time>2025-02-26T14:03:39Z</time>
      </trkpt>
      <trkpt lat="43.48482" lon="6.57831">
        <ele>74.8</ele>
        <time>2025-02-26T14:03:40Z</time>
      </trkpt>
      <trkpt lat="43.48482" lon="6.57831">
        <ele>74.9</ele>
        <time>2025-02-26T14:03:41Z</time>
      </trkpt>
      <trkpt lat="43.48482" lon="6.57832">
        <ele>74.8</ele>
        <time>2025-02-26T14:03:42Z</time>
      </trkpt>
      <trkpt lat="43.48482" lon="6.57832">
        <ele>74.8</ele>
        <time>2025-02-26T14:03:43Z</time>
      </trkpt>
      <trkpt lat="43.48482" lon="6.57832">
        <ele>74.7</ele>
        <time>2025-02-26T14:03:44Z</time>
      </trkpt>
      <trkpt lat="43.48482" lon="6.57832">
        <ele>74.7</ele>
        <time>2025-02-26T14:03:45Z</time>
      </trkpt>
      <trkpt lat="43.48482" lon="6.57832">
        <ele>74.7</ele>
        <time>2025-02-26T14:03:46Z</time>
      </trkpt>
      <trkpt lat="43.48482" lon="6.57832">
        <ele>74.6</ele>
        <time>2025-02-26T14:03:47Z</time>
      </trkpt>
      <trkpt lat="43.48482" lon="6.57832">
        <ele>74.5</ele>
        <time>2025-02-26T14:03:48Z</time>
      </trkpt>
      <trkpt lat="43.48482" lon="6.57832">
        <ele>74.4</ele>
        <time>2025-02-26T14:03:49Z</time>
      </trkpt>
      <trkpt lat="43.48482" lon="6.57832">
        <ele>74.4</ele>
        <time>2025-02-26T14:03:50Z</time>
      </trkpt>
      <trkpt lat="43.48482" lon="6.57832">
        <ele>74.4</ele>
        <time>2025-02-26T14:03:51Z</time>
      </trkpt>
      <trkpt lat="43.48482" lon="6.57832">
        <ele>74.4</ele>
        <time>2025-02-26T14:03:52Z</time>
      </trkpt>
      <trkpt lat="43.48482" lon="6.57831">
        <ele>74.4</ele>
        <time>2025-02-26T14:03:53Z</time>
      </trkpt>
      <trkpt lat="43.48483" lon="6.5783">
        <ele>74.4</ele>
        <time>2025-02-26T14:03:54Z</time>
      </trkpt>
      <trkpt lat="43.48483" lon="6.5783">
        <ele>74.4</ele>
        <time>2025-02-26T14:03:55Z</time>
      </trkpt>
      <trkpt lat="43.48482" lon="6.5783">
        <ele>74.4</ele>
        <time>2025-02-26T14:03:56Z</time>
      </trkpt>
      <trkpt lat="43.48482" lon="6.5783">
        <ele>74.4</ele>
        <time>2025-02-26T14:03:57Z</time>
      </trkpt>
      <trkpt lat="43.48483" lon="6.5783">
        <ele>74.4</ele>
        <time>2025-02-26T14:03:58Z</time>
      </trkpt>
      <trkpt lat="43.48483" lon="6.5783">
        <ele>74.3</ele>
        <time>2025-02-26T14:03:59Z</time>
      </trkpt>
      <trkpt lat="43.48483" lon="6.5783">
        <ele>74.3</ele>
        <time>2025-02-26T14:04:00Z</time>
      </trkpt>
      <trkpt lat="43.48483" lon="6.5783">
        <ele>74.2</ele>
        <time>2025-02-26T14:04:01Z</time>
      </trkpt>
      <trkpt lat="43.48483" lon="6.5783">
        <ele>74.2</ele>
        <time>2025-02-26T14:04:02Z</time>
      </trkpt>
      <trkpt lat="43.48483" lon="6.5783">
        <ele>74.2</ele>
        <time>2025-02-26T14:04:03Z</time>
      </trkpt>
      <trkpt lat="43.48484" lon="6.5783">
        <ele>74.1</ele>
        <time>2025-02-26T14:04:04Z</time>
      </trkpt>
      <trkpt lat="43.48485" lon="6.5783">
        <ele>74.2</ele>
        <time>2025-02-26T14:04:05Z</time>
      </trkpt>
      <trkpt lat="43.48486" lon="6.57831">
        <ele>74.2</ele>
        <time>2025-02-26T14:04:06Z</time>
      </trkpt>
      <trkpt lat="43.48487" lon="6.57832">
        <ele>74.2</ele>
        <time>2025-02-26T14:04:07Z</time>
      </trkpt>
      <trkpt lat="43.48488" lon="6.57833">
        <ele>74.3</ele>
        <time>2025-02-26T14:04:08Z</time>
      </trkpt>
      <trkpt lat="43.48489" lon="6.57834">
        <ele>74.3</ele>
        <time>2025-02-26T14:04:09Z</time>
      </trkpt>
      <trkpt lat="43.4849" lon="6.57835">
        <ele>74.3</ele>
        <time>2025-02-26T14:04:10Z</time>
      </trkpt>
      <trkpt lat="43.48491" lon="6.57836">
        <ele>74.2</ele>
        <time>2025-02-26T14:04:11Z</time>
      </trkpt>
      <trkpt lat="43.48492" lon="6.57837">
        <ele>74.2</ele>
        <time>2025-02-26T14:04:12Z</time>
      </trkpt>
      <trkpt lat="43.48493" lon="6.57837">
        <ele>74.3</ele>
        <time>2025-02-26T14:04:13Z</time>
      </trkpt>
      <trkpt lat="43.48494" lon="6.57838">
        <ele>74.4</ele>
        <time>2025-02-26T14:04:14Z</time>
      </trkpt>
      <trkpt lat="43.48495" lon="6.57838">
        <ele>74.4</ele>
        <time>2025-02-26T14:04:15Z</time>
      </trkpt>
      <trkpt lat="43.48496" lon="6.57839">
        <ele>74.5</ele>
        <time>2025-02-26T14:04:16Z</time>
      </trkpt>
      <trkpt lat="43.48497" lon="6.5784">
        <ele>74.5</ele>
        <time>2025-02-26T14:04:17Z</time>
      </trkpt>
      <trkpt lat="43.48498" lon="6.57841">
        <ele>74.5</ele>
        <time>2025-02-26T14:04:18Z</time>
      </trkpt>
      <trkpt lat="43.48499" lon="6.57842">
        <ele>74.5</ele>
        <time>2025-02-26T14:04:19Z</time>
      </trkpt>
      <trkpt lat="43.48499" lon="6.57842">
        <ele>74.5</ele>
        <time>2025-02-26T14:04:20Z</time>
      </trkpt>
      <trkpt lat="43.485" lon="6.57843">
        <ele>74.5</ele>
        <time>2025-02-26T14:04:21Z</time>
      </trkpt>
      <trkpt lat="43.48501" lon="6.57844">
        <ele>74.5</ele>
        <time>2025-02-26T14:04:22Z</time>
      </trkpt>
      <trkpt lat="43.48502" lon="6.57845">
        <ele>74.5</ele>
        <time>2025-02-26T14:04:23Z</time>
      </trkpt>
      <trkpt lat="43.48503" lon="6.57846">
        <ele>74.5</ele>
        <time>2025-02-26T14:04:24Z</time>
      </trkpt>
      <trkpt lat="43.48504" lon="6.57847">
        <ele>74.6</ele>
        <time>2025-02-26T14:04:25Z</time>
      </trkpt>
      <trkpt lat="43.48505" lon="6.57847">
        <ele>74.6</ele>
        <time>2025-02-26T14:04:26Z</time>
      </trkpt>
      <trkpt lat="43.48505" lon="6.57848">
        <ele>74.7</ele>
        <time>2025-02-26T14:04:27Z</time>
      </trkpt>
      <trkpt lat="43.48506" lon="6.57848">
        <ele>74.7</ele>
        <time>2025-02-26T14:04:28Z</time>
      </trkpt>
      <trkpt lat="43.48506" lon="6.57848">
        <ele>74.7</ele>
        <time>2025-02-26T14:04:29Z</time>
      </trkpt>
      <trkpt lat="43.48507" lon="6.57847">
        <ele>74.8</ele>
        <time>2025-02-26T14:04:30Z</time>
      </trkpt>
      <trkpt lat="43.48507" lon="6.57847">
        <ele>74.8</ele>
        <time>2025-02-26T14:04:31Z</time>
      </trkpt>
      <trkpt lat="43.48507" lon="6.57847">
        <ele>74.9</ele>
        <time>2025-02-26T14:04:32Z</time>
      </trkpt>
      <trkpt lat="43.48507" lon="6.57847">
        <ele>74.9</ele>
        <time>2025-02-26T14:04:33Z</time>
      </trkpt>
      <trkpt lat="43.48507" lon="6.57847">
        <ele>74.7</ele>
        <time>2025-02-26T14:04:34Z</time>
      </trkpt>
      <trkpt lat="43.48508" lon="6.57847">
        <ele>74.7</ele>
        <time>2025-02-26T14:04:35Z</time>
      </trkpt>
      <trkpt lat="43.48508" lon="6.57846">
        <ele>74.6</ele>
        <time>2025-02-26T14:04:36Z</time>
      </trkpt>
      <trkpt lat="43.48508" lon="6.57846">
        <ele>74.6</ele>
        <time>2025-02-26T14:04:37Z</time>
      </trkpt>
      <trkpt lat="43.48508" lon="6.57846">
        <ele>74.6</ele>
        <time>2025-02-26T14:04:38Z</time>
      </trkpt>
      <trkpt lat="43.48508" lon="6.57846">
        <ele>74.6</ele>
        <time>2025-02-26T14:04:39Z</time>
      </trkpt>
      <trkpt lat="43.48508" lon="6.57845">
        <ele>74.6</ele>
        <time>2025-02-26T14:04:40Z</time>
      </trkpt>
      <trkpt lat="43.48508" lon="6.57845">
        <ele>74.6</ele>
        <time>2025-02-26T14:04:41Z</time>
      </trkpt>
      <trkpt lat="43.48508" lon="6.57845">
        <ele>74.7</ele>
        <time>2025-02-26T14:04:42Z</time>
      </trkpt>
      <trkpt lat="43.48508" lon="6.57845">
        <ele>74.7</ele>
        <time>2025-02-26T14:04:43Z</time>
      </trkpt>
      <trkpt lat="43.48508" lon="6.57845">
        <ele>74.8</ele>
        <time>2025-02-26T14:04:44Z</time>
      </trkpt>
      <trkpt lat="43.48508" lon="6.57845">
        <ele>74.9</ele>
        <time>2025-02-26T14:04:45Z</time>
      </trkpt>
      <trkpt lat="43.48508" lon="6.57845">
        <ele>74.9</ele>
        <time>2025-02-26T14:04:46Z</time>
      </trkpt>
      <trkpt lat="43.48509" lon="6.57845">
        <ele>75</ele>
        <time>2025-02-26T14:04:47Z</time>
      </trkpt>
      <trkpt lat="43.48509" lon="6.57844">
        <ele>75.1</ele>
        <time>2025-02-26T14:04:48Z</time>
      </trkpt>
      <trkpt lat="43.48509" lon="6.57844">
        <ele>75.2</ele>
        <time>2025-02-26T14:04:49Z</time>
      </trkpt>
      <trkpt lat="43.48509" lon="6.57844">
        <ele>75.2</ele>
        <time>2025-02-26T14:04:50Z</time>
      </trkpt>
      <trkpt lat="43.48509" lon="6.57844">
        <ele>75.2</ele>
        <time>2025-02-26T14:04:51Z</time>
      </trkpt>
      <trkpt lat="43.48509" lon="6.57844">
        <ele>75.2</ele>
        <time>2025-02-26T14:04:52Z</time>
      </trkpt>
      <trkpt lat="43.48509" lon="6.57844">
        <ele>75.2</ele>
        <time>2025-02-26T14:04:53Z</time>
      </trkpt>
      <trkpt lat="43.48509" lon="6.57844">
        <ele>75.2</ele>
        <time>2025-02-26T14:04:54Z</time>
      </trkpt>
      <trkpt lat="43.48509" lon="6.57844">
        <ele>75.1</ele>
        <time>2025-02-26T14:04:55Z</time>
      </trkpt>
      <trkpt lat="43.48509" lon="6.57844">
        <ele>75.1</ele>
        <time>2025-02-26T14:04:56Z</time>
      </trkpt>
      <trkpt lat="43.48509" lon="6.57844">
        <ele>75</ele>
        <time>2025-02-26T14:04:57Z</time>
      </trkpt>
      <trkpt lat="43.48509" lon="6.57844">
        <ele>75</ele>
        <time>2025-02-26T14:04:58Z</time>
      </trkpt>
      <trkpt lat="43.48509" lon="6.57843">
        <ele>75</ele>
        <time>2025-02-26T14:04:59Z</time>
      </trkpt>
      <trkpt lat="43.48509" lon="6.57843">
        <ele>75</ele>
        <time>2025-02-26T14:05:00Z</time>
      </trkpt>
      <trkpt lat="43.48509" lon="6.57843">
        <ele>75</ele>
        <time>2025-02-26T14:05:01Z</time>
      </trkpt>
      <trkpt lat="43.48509" lon="6.57843">
        <ele>74.9</ele>
        <time>2025-02-26T14:05:02Z</time>
      </trkpt>
      <trkpt lat="43.48509" lon="6.57843">
        <ele>74.9</ele>
        <time>2025-02-26T14:05:03Z</time>
      </trkpt>
      <trkpt lat="43.48509" lon="6.57843">
        <ele>74.9</ele>
        <time>2025-02-26T14:05:04Z</time>
      </trkpt>
      <trkpt lat="43.48509" lon="6.57843">
        <ele>74.9</ele>
        <time>2025-02-26T14:05:05Z</time>
      </trkpt>
      <trkpt lat="43.48509" lon="6.57843">
        <ele>74.8</ele>
        <time>2025-02-26T14:05:06Z</time>
      </trkpt>
      <trkpt lat="43.48509" lon="6.57843">
        <ele>74.8</ele>
        <time>2025-02-26T14:05:07Z</time>
      </trkpt>
      <trkpt lat="43.48509" lon="6.57843">
        <ele>74.9</ele>
        <time>2025-02-26T14:05:08Z</time>
      </trkpt>
      <trkpt lat="43.48509" lon="6.57843">
        <ele>74.9</ele>
        <time>2025-02-26T14:05:09Z</time>
      </trkpt>
      <trkpt lat="43.48509" lon="6.57843">
        <ele>74.9</ele>
        <time>2025-02-26T14:05:10Z</time>
      </trkpt>
      <trkpt lat="43.48509" lon="6.57843">
        <ele>74.9</ele>
        <time>2025-02-26T14:05:11Z</time>
      </trkpt>
      <trkpt lat="43.48509" lon="6.57844">
        <ele>74.9</ele>
        <time>2025-02-26T14:05:12Z</time>
      </trkpt>
      <trkpt lat="43.48509" lon="6.57845">
        <ele>74.9</ele>
        <time>2025-02-26T14:05:13Z</time>
      </trkpt>
      <trkpt lat="43.4851" lon="6.57845">
        <ele>74.9</ele>
        <time>2025-02-26T14:05:14Z</time>
      </trkpt>
      <trkpt lat="43.4851" lon="6.57846">
        <ele>74.8</ele>
        <time>2025-02-26T14:05:15Z</time>
      </trkpt>
      <trkpt lat="43.48511" lon="6.57847">
        <ele>74.8</ele>
        <time>2025-02-26T14:05:16Z</time>
      </trkpt>
      <trkpt lat="43.48511" lon="6.57848">
        <ele>74.7</ele>
        <time>2025-02-26T14:05:17Z</time>
      </trkpt>
      <trkpt lat="43.48512" lon="6.57849">
        <ele>74.5</ele>
        <time>2025-02-26T14:05:18Z</time>
      </trkpt>
      <trkpt lat="43.48512" lon="6.5785">
        <ele>74.4</ele>
        <time>2025-02-26T14:05:19Z</time>
      </trkpt>
      <trkpt lat="43.48513" lon="6.57851">
        <ele>74.3</ele>
        <time>2025-02-26T14:05:20Z</time>
      </trkpt>
      <trkpt lat="43.48514" lon="6.57853">
        <ele>74.3</ele>
        <time>2025-02-26T14:05:21Z</time>
      </trkpt>
      <trkpt lat="43.48515" lon="6.57854">
        <ele>74.2</ele>
        <time>2025-02-26T14:05:22Z</time>
      </trkpt>
      <trkpt lat="43.48515" lon="6.57855">
        <ele>74.2</ele>
        <time>2025-02-26T14:05:23Z</time>
      </trkpt>
      <trkpt lat="43.48516" lon="6.57856">
        <ele>74.2</ele>
        <time>2025-02-26T14:05:24Z</time>
      </trkpt>
      <trkpt lat="43.48516" lon="6.57857">
        <ele>74.2</ele>
        <time>2025-02-26T14:05:25Z</time>
      </trkpt>
      <trkpt lat="43.48517" lon="6.57859">
        <ele>74.1</ele>
        <time>2025-02-26T14:05:26Z</time>
      </trkpt>
      <trkpt lat="43.48519" lon="6.5786">
        <ele>73.9</ele>
        <time>2025-02-26T14:05:27Z</time>
      </trkpt>
      <trkpt lat="43.48519" lon="6.57861">
        <ele>73.8</ele>
        <time>2025-02-26T14:05:28Z</time>
      </trkpt>
      <trkpt lat="43.4852" lon="6.57862">
        <ele>73.9</ele>
        <time>2025-02-26T14:05:29Z</time>
      </trkpt>
      <trkpt lat="43.48521" lon="6.57863">
        <ele>73.9</ele>
        <time>2025-02-26T14:05:30Z</time>
      </trkpt>
      <trkpt lat="43.48522" lon="6.57865">
        <ele>73.8</ele>
        <time>2025-02-26T14:05:31Z</time>
      </trkpt>
      <trkpt lat="43.48523" lon="6.57866">
        <ele>73.7</ele>
        <time>2025-02-26T14:05:32Z</time>
      </trkpt>
      <trkpt lat="43.48524" lon="6.57867">
        <ele>73.6</ele>
        <time>2025-02-26T14:05:33Z</time>
      </trkpt>
      <trkpt lat="43.48524" lon="6.57869">
        <ele>73.6</ele>
        <time>2025-02-26T14:05:34Z</time>
      </trkpt>
      <trkpt lat="43.48525" lon="6.5787">
        <ele>73.5</ele>
        <time>2025-02-26T14:05:35Z</time>
      </trkpt>
      <trkpt lat="43.48526" lon="6.57871">
        <ele>73.5</ele>
        <time>2025-02-26T14:05:36Z</time>
      </trkpt>
      <trkpt lat="43.48527" lon="6.57873">
        <ele>73.4</ele>
        <time>2025-02-26T14:05:37Z</time>
      </trkpt>
      <trkpt lat="43.48527" lon="6.57874">
        <ele>73.2</ele>
        <time>2025-02-26T14:05:38Z</time>
      </trkpt>
      <trkpt lat="43.48528" lon="6.57875">
        <ele>73.1</ele>
        <time>2025-02-26T14:05:39Z</time>
      </trkpt>
      <trkpt lat="43.48529" lon="6.57877">
        <ele>73.1</ele>
        <time>2025-02-26T14:05:40Z</time>
      </trkpt>
      <trkpt lat="43.4853" lon="6.57878">
        <ele>73</ele>
        <time>2025-02-26T14:05:41Z</time>
      </trkpt>
      <trkpt lat="43.48531" lon="6.57879">
        <ele>73</ele>
        <time>2025-02-26T14:05:42Z</time>
      </trkpt>
      <trkpt lat="43.48532" lon="6.57881">
        <ele>72.9</ele>
        <time>2025-02-26T14:05:43Z</time>
      </trkpt>
      <trkpt lat="43.48532" lon="6.57882">
        <ele>72.8</ele>
        <time>2025-02-26T14:05:44Z</time>
      </trkpt>
      <trkpt lat="43.48533" lon="6.57884">
        <ele>72.7</ele>
        <time>2025-02-26T14:05:45Z</time>
      </trkpt>
      <trkpt lat="43.48534" lon="6.57885">
        <ele>72.6</ele>
        <time>2025-02-26T14:05:46Z</time>
      </trkpt>
      <trkpt lat="43.48535" lon="6.57886">
        <ele>72.5</ele>
        <time>2025-02-26T14:05:47Z</time>
      </trkpt>
      <trkpt lat="43.48535" lon="6.57887">
        <ele>72.5</ele>
        <time>2025-02-26T14:05:48Z</time>
      </trkpt>
      <trkpt lat="43.48536" lon="6.57889">
        <ele>72.3</ele>
        <time>2025-02-26T14:05:49Z</time>
      </trkpt>
      <trkpt lat="43.48537" lon="6.5789">
        <ele>72.1</ele>
        <time>2025-02-26T14:05:50Z</time>
      </trkpt>
      <trkpt lat="43.48537" lon="6.57891">
        <ele>72</ele>
        <time>2025-02-26T14:05:51Z</time>
      </trkpt>
      <trkpt lat="43.48538" lon="6.57893">
        <ele>71.9</ele>
        <time>2025-02-26T14:05:52Z</time>
      </trkpt>
      <trkpt lat="43.48539" lon="6.57894">
        <ele>71.8</ele>
        <time>2025-02-26T14:05:53Z</time>
      </trkpt>
      <trkpt lat="43.4854" lon="6.57895">
        <ele>71.8</ele>
        <time>2025-02-26T14:05:54Z</time>
      </trkpt>
      <trkpt lat="43.4854" lon="6.57896">
        <ele>71.8</ele>
        <time>2025-02-26T14:05:55Z</time>
      </trkpt>
      <trkpt lat="43.48541" lon="6.57897">
        <ele>71.9</ele>
        <time>2025-02-26T14:05:56Z</time>
      </trkpt>
      <trkpt lat="43.48542" lon="6.57898">
        <ele>71.9</ele>
        <time>2025-02-26T14:05:57Z</time>
      </trkpt>
      <trkpt lat="43.48543" lon="6.57899">
        <ele>71.9</ele>
        <time>2025-02-26T14:05:58Z</time>
      </trkpt>
      <trkpt lat="43.48543" lon="6.579">
        <ele>71.8</ele>
        <time>2025-02-26T14:05:59Z</time>
      </trkpt>
      <trkpt lat="43.48544" lon="6.57902">
        <ele>71.7</ele>
        <time>2025-02-26T14:06:00Z</time>
      </trkpt>
      <trkpt lat="43.48545" lon="6.57903">
        <ele>71.7</ele>
        <time>2025-02-26T14:06:01Z</time>
      </trkpt>
      <trkpt lat="43.48546" lon="6.57905">
        <ele>71.6</ele>
        <time>2025-02-26T14:06:02Z</time>
      </trkpt>
      <trkpt lat="43.48547" lon="6.57906">
        <ele>71.6</ele>
        <time>2025-02-26T14:06:03Z</time>
      </trkpt>
      <trkpt lat="43.48548" lon="6.57907">
        <ele>71.5</ele>
        <time>2025-02-26T14:06:04Z</time>
      </trkpt>
      <trkpt lat="43.48548" lon="6.57908">
        <ele>71.5</ele>
        <time>2025-02-26T14:06:05Z</time>
      </trkpt>
      <trkpt lat="43.48549" lon="6.5791">
        <ele>71.5</ele>
        <time>2025-02-26T14:06:06Z</time>
      </trkpt>
      <trkpt lat="43.48549" lon="6.57911">
        <ele>71.4</ele>
        <time>2025-02-26T14:06:07Z</time>
      </trkpt>
      <trkpt lat="43.48551" lon="6.57912">
        <ele>71.5</ele>
        <time>2025-02-26T14:06:08Z</time>
      </trkpt>
      <trkpt lat="43.48551" lon="6.57913">
        <ele>71.4</ele>
        <time>2025-02-26T14:06:09Z</time>
      </trkpt>
      <trkpt lat="43.48552" lon="6.57914">
        <ele>71.3</ele>
        <time>2025-02-26T14:06:10Z</time>
      </trkpt>
      <trkpt lat="43.48554" lon="6.57914">
        <ele>71.3</ele>
        <time>2025-02-26T14:06:11Z</time>
      </trkpt>
      <trkpt lat="43.48555" lon="6.57915">
        <ele>71.1</ele>
        <time>2025-02-26T14:06:12Z</time>
      </trkpt>
      <trkpt lat="43.48556" lon="6.57916">
        <ele>71</ele>
        <time>2025-02-26T14:06:13Z</time>
      </trkpt>
      <trkpt lat="43.48556" lon="6.57917">
        <ele>71</ele>
        <time>2025-02-26T14:06:14Z</time>
      </trkpt>
      <trkpt lat="43.48557" lon="6.57919">
        <ele>71</ele>
        <time>2025-02-26T14:06:15Z</time>
      </trkpt>
      <trkpt lat="43.48559" lon="6.5792">
        <ele>70.9</ele>
        <time>2025-02-26T14:06:16Z</time>
      </trkpt>
      <trkpt lat="43.4856" lon="6.57921">
        <ele>70.9</ele>
        <time>2025-02-26T14:06:17Z</time>
      </trkpt>
      <trkpt lat="43.48561" lon="6.57922">
        <ele>70.8</ele>
        <time>2025-02-26T14:06:18Z</time>
      </trkpt>
      <trkpt lat="43.48562" lon="6.57923">
        <ele>70.8</ele>
        <time>2025-02-26T14:06:19Z</time>
      </trkpt>
      <trkpt lat="43.48563" lon="6.57924">
        <ele>70.9</ele>
        <time>2025-02-26T14:06:20Z</time>
      </trkpt>
      <trkpt lat="43.48563" lon="6.57925">
        <ele>70.8</ele>
        <time>2025-02-26T14:06:21Z</time>
      </trkpt>
      <trkpt lat="43.48564" lon="6.57926">
        <ele>70.6</ele>
        <time>2025-02-26T14:06:22Z</time>
      </trkpt>
      <trkpt lat="43.48565" lon="6.57927">
        <ele>70.5</ele>
        <time>2025-02-26T14:06:23Z</time>
      </trkpt>
      <trkpt lat="43.48566" lon="6.57929">
        <ele>70.4</ele>
        <time>2025-02-26T14:06:24Z</time>
      </trkpt>
      <trkpt lat="43.48567" lon="6.5793">
        <ele>70.3</ele>
        <time>2025-02-26T14:06:25Z</time>
      </trkpt>
      <trkpt lat="43.48568" lon="6.57931">
        <ele>70.3</ele>
        <time>2025-02-26T14:06:26Z</time>
      </trkpt>
      <trkpt lat="43.48569" lon="6.57932">
        <ele>70.1</ele>
        <time>2025-02-26T14:06:27Z</time>
      </trkpt>
      <trkpt lat="43.4857" lon="6.57933">
        <ele>70</ele>
        <time>2025-02-26T14:06:28Z</time>
      </trkpt>
      <trkpt lat="43.48571" lon="6.57934">
        <ele>69.9</ele>
        <time>2025-02-26T14:06:29Z</time>
      </trkpt>
      <trkpt lat="43.48571" lon="6.57936">
        <ele>69.8</ele>
        <time>2025-02-26T14:06:30Z</time>
      </trkpt>
      <trkpt lat="43.48572" lon="6.57937">
        <ele>69.7</ele>
        <time>2025-02-26T14:06:31Z</time>
      </trkpt>
      <trkpt lat="43.48573" lon="6.57938">
        <ele>69.6</ele>
        <time>2025-02-26T14:06:32Z</time>
      </trkpt>
      <trkpt lat="43.48574" lon="6.57939">
        <ele>69.6</ele>
        <time>2025-02-26T14:06:33Z</time>
      </trkpt>
      <trkpt lat="43.48574" lon="6.57941">
        <ele>69.5</ele>
        <time>2025-02-26T14:06:34Z</time>
      </trkpt>
      <trkpt lat="43.48575" lon="6.57943">
        <ele>69.4</ele>
        <time>2025-02-26T14:06:35Z</time>
      </trkpt>
      <trkpt lat="43.48575" lon="6.57944">
        <ele>69.4</ele>
        <time>2025-02-26T14:06:36Z</time>
      </trkpt>
      <trkpt lat="43.48576" lon="6.57945">
        <ele>69.4</ele>
        <time>2025-02-26T14:06:37Z</time>
      </trkpt>
      <trkpt lat="43.48576" lon="6.57947">
        <ele>69.4</ele>
        <time>2025-02-26T14:06:38Z</time>
      </trkpt>
      <trkpt lat="43.48576" lon="6.57949">
        <ele>69.4</ele>
        <time>2025-02-26T14:06:39Z</time>
      </trkpt>
      <trkpt lat="43.48576" lon="6.5795">
        <ele>69.5</ele>
        <time>2025-02-26T14:06:40Z</time>
      </trkpt>
      <trkpt lat="43.48576" lon="6.57952">
        <ele>69.6</ele>
        <time>2025-02-26T14:06:41Z</time>
      </trkpt>
      <trkpt lat="43.48576" lon="6.57954">
        <ele>69.7</ele>
        <time>2025-02-26T14:06:42Z</time>
      </trkpt>
      <trkpt lat="43.48576" lon="6.57955">
        <ele>69.7</ele>
        <time>2025-02-26T14:06:43Z</time>
      </trkpt>
      <trkpt lat="43.48575" lon="6.57957">
        <ele>69.7</ele>
        <time>2025-02-26T14:06:44Z</time>
      </trkpt>
      <trkpt lat="43.48575" lon="6.57958">
        <ele>69.8</ele>
        <time>2025-02-26T14:06:45Z</time>
      </trkpt>
      <trkpt lat="43.48575" lon="6.5796">
        <ele>69.9</ele>
        <time>2025-02-26T14:06:46Z</time>
      </trkpt>
      <trkpt lat="43.48574" lon="6.57961">
        <ele>70.1</ele>
        <time>2025-02-26T14:06:47Z</time>
      </trkpt>
      <trkpt lat="43.48574" lon="6.57963">
        <ele>70.2</ele>
        <time>2025-02-26T14:06:48Z</time>
      </trkpt>
      <trkpt lat="43.48573" lon="6.57964">
        <ele>70.1</ele>
        <time>2025-02-26T14:06:49Z</time>
      </trkpt>
      <trkpt lat="43.48573" lon="6.57966">
        <ele>70</ele>
        <time>2025-02-26T14:06:50Z</time>
      </trkpt>
      <trkpt lat="43.48572" lon="6.57967">
        <ele>70</ele>
        <time>2025-02-26T14:06:51Z</time>
      </trkpt>
      <trkpt lat="43.48572" lon="6.57969">
        <ele>70.1</ele>
        <time>2025-02-26T14:06:52Z</time>
      </trkpt>
      <trkpt lat="43.48571" lon="6.57969">
        <ele>70.2</ele>
        <time>2025-02-26T14:06:53Z</time>
      </trkpt>
      <trkpt lat="43.48571" lon="6.5797">
        <ele>70.3</ele>
        <time>2025-02-26T14:06:54Z</time>
      </trkpt>
      <trkpt lat="43.4857" lon="6.57971">
        <ele>70.3</ele>
        <time>2025-02-26T14:06:55Z</time>
      </trkpt>
      <trkpt lat="43.4857" lon="6.57971">
        <ele>70.4</ele>
        <time>2025-02-26T14:06:56Z</time>
      </trkpt>
      <trkpt lat="43.48571" lon="6.57971">
        <ele>70.4</ele>
        <time>2025-02-26T14:06:57Z</time>
      </trkpt>
      <trkpt lat="43.48571" lon="6.57971">
        <ele>70.4</ele>
        <time>2025-02-26T14:06:58Z</time>
      </trkpt>
      <trkpt lat="43.48571" lon="6.57971">
        <ele>70.3</ele>
        <time>2025-02-26T14:06:59Z</time>
      </trkpt>
      <trkpt lat="43.4857" lon="6.57971">
        <ele>70.3</ele>
        <time>2025-02-26T14:07:00Z</time>
      </trkpt>
      <trkpt lat="43.4857" lon="6.57972">
        <ele>70.3</ele>
        <time>2025-02-26T14:07:01Z</time>
      </trkpt>
      <trkpt lat="43.48569" lon="6.57973">
        <ele>70.2</ele>
        <time>2025-02-26T14:07:02Z</time>
      </trkpt>
      <trkpt lat="43.48569" lon="6.57974">
        <ele>70.2</ele>
        <time>2025-02-26T14:07:03Z</time>
      </trkpt>
      <trkpt lat="43.48568" lon="6.57976">
        <ele>70.2</ele>
        <time>2025-02-26T14:07:04Z</time>
      </trkpt>
      <trkpt lat="43.48567" lon="6.57977">
        <ele>70.2</ele>
        <time>2025-02-26T14:07:05Z</time>
      </trkpt>
      <trkpt lat="43.48566" lon="6.57978">
        <ele>70.2</ele>
        <time>2025-02-26T14:07:06Z</time>
      </trkpt>
      <trkpt lat="43.48566" lon="6.57979">
        <ele>70.3</ele>
        <time>2025-02-26T14:07:07Z</time>
      </trkpt>
      <trkpt lat="43.48565" lon="6.5798">
        <ele>70.3</ele>
        <time>2025-02-26T14:07:08Z</time>
      </trkpt>
      <trkpt lat="43.48564" lon="6.57981">
        <ele>70.3</ele>
        <time>2025-02-26T14:07:09Z</time>
      </trkpt>
      <trkpt lat="43.48563" lon="6.57983">
        <ele>70.4</ele>
        <time>2025-02-26T14:07:10Z</time>
      </trkpt>
      <trkpt lat="43.48562" lon="6.57984">
        <ele>70.4</ele>
        <time>2025-02-26T14:07:11Z</time>
      </trkpt>
      <trkpt lat="43.48562" lon="6.57985">
        <ele>70.5</ele>
        <time>2025-02-26T14:07:12Z</time>
      </trkpt>
      <trkpt lat="43.48561" lon="6.57986">
        <ele>70.6</ele>
        <time>2025-02-26T14:07:13Z</time>
      </trkpt>
      <trkpt lat="43.4856" lon="6.57987">
        <ele>70.7</ele>
        <time>2025-02-26T14:07:14Z</time>
      </trkpt>
      <trkpt lat="43.48559" lon="6.57988">
        <ele>70.8</ele>
        <time>2025-02-26T14:07:15Z</time>
      </trkpt>
      <trkpt lat="43.48559" lon="6.57989">
        <ele>70.9</ele>
        <time>2025-02-26T14:07:16Z</time>
      </trkpt>
      <trkpt lat="43.48558" lon="6.5799">
        <ele>71</ele>
        <time>2025-02-26T14:07:17Z</time>
      </trkpt>
      <trkpt lat="43.48557" lon="6.57991">
        <ele>71</ele>
        <time>2025-02-26T14:07:18Z</time>
      </trkpt>
      <trkpt lat="43.48556" lon="6.57992">
        <ele>71.2</ele>
        <time>2025-02-26T14:07:19Z</time>
      </trkpt>
      <trkpt lat="43.48555" lon="6.57993">
        <ele>71.3</ele>
        <time>2025-02-26T14:07:20Z</time>
      </trkpt>
      <trkpt lat="43.48554" lon="6.57995">
        <ele>71.4</ele>
        <time>2025-02-26T14:07:21Z</time>
      </trkpt>
      <trkpt lat="43.48553" lon="6.57996">
        <ele>71.5</ele>
        <time>2025-02-26T14:07:22Z</time>
      </trkpt>
      <trkpt lat="43.48552" lon="6.57997">
        <ele>71.5</ele>
        <time>2025-02-26T14:07:23Z</time>
      </trkpt>
      <trkpt lat="43.48551" lon="6.57998">
        <ele>71.5</ele>
        <time>2025-02-26T14:07:24Z</time>
      </trkpt>
      <trkpt lat="43.4855" lon="6.58">
        <ele>71.6</ele>
        <time>2025-02-26T14:07:25Z</time>
      </trkpt>
      <trkpt lat="43.4855" lon="6.58001">
        <ele>71.6</ele>
        <time>2025-02-26T14:07:26Z</time>
      </trkpt>
      <trkpt lat="43.48549" lon="6.58002">
        <ele>71.5</ele>
        <time>2025-02-26T14:07:27Z</time>
      </trkpt>
      <trkpt lat="43.48548" lon="6.58004">
        <ele>71.5</ele>
        <time>2025-02-26T14:07:28Z</time>
      </trkpt>
      <trkpt lat="43.48547" lon="6.58005">
        <ele>71.4</ele>
        <time>2025-02-26T14:07:29Z</time>
      </trkpt>
      <trkpt lat="43.48547" lon="6.58007">
        <ele>71.5</ele>
        <time>2025-02-26T14:07:30Z</time>
      </trkpt>
      <trkpt lat="43.48546" lon="6.58008">
        <ele>71.7</ele>
        <time>2025-02-26T14:07:31Z</time>
      </trkpt>
      <trkpt lat="43.48545" lon="6.58009">
        <ele>71.7</ele>
        <time>2025-02-26T14:07:32Z</time>
      </trkpt>
      <trkpt lat="43.48544" lon="6.5801">
        <ele>71.9</ele>
        <time>2025-02-26T14:07:33Z</time>
      </trkpt>
      <trkpt lat="43.48543" lon="6.58011">
        <ele>72</ele>
        <time>2025-02-26T14:07:34Z</time>
      </trkpt>
      <trkpt lat="43.48542" lon="6.58012">
        <ele>72</ele>
        <time>2025-02-26T14:07:35Z</time>
      </trkpt>
      <trkpt lat="43.48542" lon="6.58013">
        <ele>71.9</ele>
        <time>2025-02-26T14:07:36Z</time>
      </trkpt>
      <trkpt lat="43.48541" lon="6.58014">
        <ele>71.9</ele>
        <time>2025-02-26T14:07:37Z</time>
      </trkpt>
      <trkpt lat="43.4854" lon="6.58015">
        <ele>72</ele>
        <time>2025-02-26T14:07:38Z</time>
      </trkpt>
      <trkpt lat="43.48539" lon="6.58016">
        <ele>72</ele>
        <time>2025-02-26T14:07:39Z</time>
      </trkpt>
      <trkpt lat="43.48538" lon="6.58017">
        <ele>72.1</ele>
        <time>2025-02-26T14:07:40Z</time>
      </trkpt>
      <trkpt lat="43.48537" lon="6.58018">
        <ele>72.1</ele>
        <time>2025-02-26T14:07:41Z</time>
      </trkpt>
      <trkpt lat="43.48536" lon="6.58019">
        <ele>72.3</ele>
        <time>2025-02-26T14:07:42Z</time>
      </trkpt>
      <trkpt lat="43.48535" lon="6.5802">
        <ele>72.4</ele>
        <time>2025-02-26T14:07:43Z</time>
      </trkpt>
      <trkpt lat="43.48534" lon="6.5802">
        <ele>72.5</ele>
        <time>2025-02-26T14:07:44Z</time>
      </trkpt>
      <trkpt lat="43.48533" lon="6.58022">
        <ele>72.6</ele>
        <time>2025-02-26T14:07:45Z</time>
      </trkpt>
      <trkpt lat="43.48532" lon="6.58022">
        <ele>72.7</ele>
        <time>2025-02-26T14:07:46Z</time>
      </trkpt>
      <trkpt lat="43.48531" lon="6.58024">
        <ele>72.8</ele>
        <time>2025-02-26T14:07:47Z</time>
      </trkpt>
      <trkpt lat="43.48531" lon="6.58025">
        <ele>72.9</ele>
        <time>2025-02-26T14:07:48Z</time>
      </trkpt>
      <trkpt lat="43.4853" lon="6.58026">
        <ele>72.9</ele>
        <time>2025-02-26T14:07:49Z</time>
      </trkpt>
      <trkpt lat="43.48529" lon="6.58027">
        <ele>73</ele>
        <time>2025-02-26T14:07:50Z</time>
      </trkpt>
      <trkpt lat="43.48528" lon="6.58028">
        <ele>72.9</ele>
        <time>2025-02-26T14:07:51Z</time>
      </trkpt>
      <trkpt lat="43.48527" lon="6.58029">
        <ele>72.7</ele>
        <time>2025-02-26T14:07:52Z</time>
      </trkpt>
      <trkpt lat="43.48526" lon="6.5803">
        <ele>72.5</ele>
        <time>2025-02-26T14:07:53Z</time>
      </trkpt>
      <trkpt lat="43.48526" lon="6.58032">
        <ele>72.4</ele>
        <time>2025-02-26T14:07:54Z</time>
      </trkpt>
      <trkpt lat="43.48525" lon="6.58033">
        <ele>72.3</ele>
        <time>2025-02-26T14:07:55Z</time>
      </trkpt>
      <trkpt lat="43.48524" lon="6.58033">
        <ele>72.3</ele>
        <time>2025-02-26T14:07:56Z</time>
      </trkpt>
      <trkpt lat="43.48523" lon="6.58034">
        <ele>72.3</ele>
        <time>2025-02-26T14:07:57Z</time>
      </trkpt>
      <trkpt lat="43.48523" lon="6.58035">
        <ele>72.2</ele>
        <time>2025-02-26T14:07:58Z</time>
      </trkpt>
      <trkpt lat="43.48523" lon="6.58036">
        <ele>72.2</ele>
        <time>2025-02-26T14:07:59Z</time>
      </trkpt>
      <trkpt lat="43.48522" lon="6.58037">
        <ele>72.1</ele>
        <time>2025-02-26T14:08:00Z</time>
      </trkpt>
      <trkpt lat="43.48522" lon="6.58038">
        <ele>72.1</ele>
        <time>2025-02-26T14:08:01Z</time>
      </trkpt>
      <trkpt lat="43.48522" lon="6.58039">
        <ele>72.1</ele>
        <time>2025-02-26T14:08:02Z</time>
      </trkpt>
      <trkpt lat="43.48521" lon="6.58039">
        <ele>72.1</ele>
        <time>2025-02-26T14:08:03Z</time>
      </trkpt>
      <trkpt lat="43.48521" lon="6.58039">
        <ele>72.1</ele>
        <time>2025-02-26T14:08:04Z</time>
      </trkpt>
      <trkpt lat="43.48521" lon="6.58039">
        <ele>72.2</ele>
        <time>2025-02-26T14:08:05Z</time>
      </trkpt>
      <trkpt lat="43.48521" lon="6.58039">
        <ele>72.2</ele>
        <time>2025-02-26T14:08:06Z</time>
      </trkpt>
      <trkpt lat="43.48521" lon="6.58039">
        <ele>72.2</ele>
        <time>2025-02-26T14:08:07Z</time>
      </trkpt>
      <trkpt lat="43.48521" lon="6.58039">
        <ele>72.3</ele>
        <time>2025-02-26T14:08:08Z</time>
      </trkpt>
      <trkpt lat="43.48521" lon="6.58039">
        <ele>72.3</ele>
        <time>2025-02-26T14:08:09Z</time>
      </trkpt>
      <trkpt lat="43.48521" lon="6.58039">
        <ele>72.2</ele>
        <time>2025-02-26T14:08:10Z</time>
      </trkpt>
      <trkpt lat="43.48521" lon="6.58039">
        <ele>72.2</ele>
        <time>2025-02-26T14:08:11Z</time>
      </trkpt>
      <trkpt lat="43.48521" lon="6.58039">
        <ele>72.2</ele>
        <time>2025-02-26T14:08:12Z</time>
      </trkpt>
      <trkpt lat="43.48521" lon="6.58039">
        <ele>72.2</ele>
        <time>2025-02-26T14:08:13Z</time>
      </trkpt>
      <trkpt lat="43.48521" lon="6.58039">
        <ele>72.1</ele>
        <time>2025-02-26T14:08:14Z</time>
      </trkpt>
      <trkpt lat="43.48521" lon="6.58039">
        <ele>72.1</ele>
        <time>2025-02-26T14:08:15Z</time>
      </trkpt>
      <trkpt lat="43.48521" lon="6.58039">
        <ele>72.1</ele>
        <time>2025-02-26T14:08:16Z</time>
      </trkpt>
      <trkpt lat="43.48521" lon="6.58039">
        <ele>72</ele>
        <time>2025-02-26T14:08:17Z</time>
      </trkpt>
      <trkpt lat="43.48521" lon="6.58039">
        <ele>71.9</ele>
        <time>2025-02-26T14:08:18Z</time>
      </trkpt>
      <trkpt lat="43.48521" lon="6.58038">
        <ele>71.9</ele>
        <time>2025-02-26T14:08:19Z</time>
      </trkpt>
      <trkpt lat="43.48521" lon="6.58039">
        <ele>71.9</ele>
        <time>2025-02-26T14:08:20Z</time>
      </trkpt>
      <trkpt lat="43.48521" lon="6.58039">
        <ele>71.8</ele>
        <time>2025-02-26T14:08:21Z</time>
      </trkpt>
      <trkpt lat="43.48521" lon="6.58038">
        <ele>71.8</ele>
        <time>2025-02-26T14:08:22Z</time>
      </trkpt>
      <trkpt lat="43.4852" lon="6.58038">
        <ele>71.8</ele>
        <time>2025-02-26T14:08:23Z</time>
      </trkpt>
      <trkpt lat="43.48521" lon="6.58038">
        <ele>71.8</ele>
        <time>2025-02-26T14:08:24Z</time>
      </trkpt>
      <trkpt lat="43.48521" lon="6.58039">
        <ele>71.8</ele>
        <time>2025-02-26T14:08:25Z</time>
      </trkpt>
      <trkpt lat="43.4852" lon="6.58039">
        <ele>71.8</ele>
        <time>2025-02-26T14:08:26Z</time>
      </trkpt>
      <trkpt lat="43.48521" lon="6.58039">
        <ele>71.8</ele>
        <time>2025-02-26T14:08:27Z</time>
      </trkpt>
      <trkpt lat="43.48521" lon="6.58039">
        <ele>71.8</ele>
        <time>2025-02-26T14:08:28Z</time>
      </trkpt>
      <trkpt lat="43.48521" lon="6.58039">
        <ele>71.9</ele>
        <time>2025-02-26T14:08:29Z</time>
      </trkpt>
      <trkpt lat="43.48521" lon="6.58039">
        <ele>71.9</ele>
        <time>2025-02-26T14:08:30Z</time>
      </trkpt>
      <trkpt lat="43.48521" lon="6.58039">
        <ele>72</ele>
        <time>2025-02-26T14:08:31Z</time>
      </trkpt>
      <trkpt lat="43.48521" lon="6.58039">
        <ele>72</ele>
        <time>2025-02-26T14:08:32Z</time>
      </trkpt>
      <trkpt lat="43.4852" lon="6.58039">
        <ele>72</ele>
        <time>2025-02-26T14:08:33Z</time>
      </trkpt>
      <trkpt lat="43.4852" lon="6.5804">
        <ele>72.1</ele>
        <time>2025-02-26T14:08:34Z</time>
      </trkpt>
      <trkpt lat="43.4852" lon="6.5804">
        <ele>72.1</ele>
        <time>2025-02-26T14:08:35Z</time>
      </trkpt>
      <trkpt lat="43.4852" lon="6.5804">
        <ele>72.1</ele>
        <time>2025-02-26T14:08:36Z</time>
      </trkpt>
      <trkpt lat="43.4852" lon="6.58039">
        <ele>72.1</ele>
        <time>2025-02-26T14:08:37Z</time>
      </trkpt>
      <trkpt lat="43.4852" lon="6.58039">
        <ele>72.1</ele>
        <time>2025-02-26T14:08:38Z</time>
      </trkpt>
      <trkpt lat="43.4852" lon="6.58039">
        <ele>72</ele>
        <time>2025-02-26T14:08:39Z</time>
      </trkpt>
      <trkpt lat="43.48521" lon="6.58039">
        <ele>72</ele>
        <time>2025-02-26T14:08:40Z</time>
      </trkpt>
      <trkpt lat="43.48521" lon="6.58039">
        <ele>71.9</ele>
        <time>2025-02-26T14:08:41Z</time>
      </trkpt>
      <trkpt lat="43.4852" lon="6.58039">
        <ele>72</ele>
        <time>2025-02-26T14:08:42Z</time>
      </trkpt>
      <trkpt lat="43.4852" lon="6.58039">
        <ele>72</ele>
        <time>2025-02-26T14:08:43Z</time>
      </trkpt>
      <trkpt lat="43.4852" lon="6.58039">
        <ele>72</ele>
        <time>2025-02-26T14:08:44Z</time>
      </trkpt>
      <trkpt lat="43.48521" lon="6.58039">
        <ele>72</ele>
        <time>2025-02-26T14:08:45Z</time>
      </trkpt>
      <trkpt lat="43.48521" lon="6.5804">
        <ele>71.9</ele>
        <time>2025-02-26T14:08:46Z</time>
      </trkpt>
      <trkpt lat="43.48523" lon="6.5804">
        <ele>71.9</ele>
        <time>2025-02-26T14:08:47Z</time>
      </trkpt>
      <trkpt lat="43.48523" lon="6.5804">
        <ele>71.8</ele>
        <time>2025-02-26T14:08:48Z</time>
      </trkpt>
      <trkpt lat="43.48523" lon="6.5804">
        <ele>71.7</ele>
        <time>2025-02-26T14:08:49Z</time>
      </trkpt>
      <trkpt lat="43.48523" lon="6.5804">
        <ele>71.5</ele>
        <time>2025-02-26T14:08:50Z</time>
      </trkpt>
      <trkpt lat="43.48523" lon="6.58041">
        <ele>71.5</ele>
        <time>2025-02-26T14:08:51Z</time>
      </trkpt>
      <trkpt lat="43.48523" lon="6.58041">
        <ele>71.4</ele>
        <time>2025-02-26T14:08:52Z</time>
      </trkpt>
      <trkpt lat="43.48522" lon="6.58041">
        <ele>71.4</ele>
        <time>2025-02-26T14:08:53Z</time>
      </trkpt>
      <trkpt lat="43.48522" lon="6.58041">
        <ele>71.5</ele>
        <time>2025-02-26T14:08:54Z</time>
      </trkpt>
      <trkpt lat="43.48522" lon="6.58041">
        <ele>71.5</ele>
        <time>2025-02-26T14:08:55Z</time>
      </trkpt>
      <trkpt lat="43.48522" lon="6.58041">
        <ele>71.5</ele>
        <time>2025-02-26T14:08:56Z</time>
      </trkpt>
      <trkpt lat="43.48522" lon="6.58041">
        <ele>71.5</ele>
        <time>2025-02-26T14:08:57Z</time>
      </trkpt>
      <trkpt lat="43.48522" lon="6.58041">
        <ele>71.5</ele>
        <time>2025-02-26T14:08:58Z</time>
      </trkpt>
      <trkpt lat="43.48522" lon="6.58041">
        <ele>71.4</ele>
        <time>2025-02-26T14:08:59Z</time>
      </trkpt>
      <trkpt lat="43.48523" lon="6.58041">
        <ele>71.5</ele>
        <time>2025-02-26T14:09:00Z</time>
      </trkpt>
      <trkpt lat="43.48523" lon="6.58041">
        <ele>71.5</ele>
        <time>2025-02-26T14:09:01Z</time>
      </trkpt>
      <trkpt lat="43.48523" lon="6.58041">
        <ele>71.6</ele>
        <time>2025-02-26T14:09:02Z</time>
      </trkpt>
      <trkpt lat="43.48523" lon="6.58041">
        <ele>71.6</ele>
        <time>2025-02-26T14:09:03Z</time>
      </trkpt>
      <trkpt lat="43.48523" lon="6.58041">
        <ele>71.6</ele>
        <time>2025-02-26T14:09:04Z</time>
      </trkpt>
      <trkpt lat="43.48523" lon="6.58041">
        <ele>71.6</ele>
        <time>2025-02-26T14:09:05Z</time>
      </trkpt>
      <trkpt lat="43.48523" lon="6.58041">
        <ele>71.6</ele>
        <time>2025-02-26T14:09:06Z</time>
      </trkpt>
      <trkpt lat="43.48524" lon="6.58041">
        <ele>71.5</ele>
        <time>2025-02-26T14:09:07Z</time>
      </trkpt>
      <trkpt lat="43.48523" lon="6.58041">
        <ele>71.5</ele>
        <time>2025-02-26T14:09:08Z</time>
      </trkpt>
      <trkpt lat="43.48523" lon="6.58041">
        <ele>71.6</ele>
        <time>2025-02-26T14:09:09Z</time>
      </trkpt>
      <trkpt lat="43.48523" lon="6.58042">
        <ele>71.6</ele>
        <time>2025-02-26T14:09:10Z</time>
      </trkpt>
      <trkpt lat="43.48523" lon="6.58043">
        <ele>71.7</ele>
        <time>2025-02-26T14:09:11Z</time>
      </trkpt>
      <trkpt lat="43.48523" lon="6.58044">
        <ele>71.7</ele>
        <time>2025-02-26T14:09:12Z</time>
      </trkpt>
      <trkpt lat="43.48523" lon="6.58045">
        <ele>71.7</ele>
        <time>2025-02-26T14:09:13Z</time>
      </trkpt>
      <trkpt lat="43.48523" lon="6.58047">
        <ele>71.7</ele>
        <time>2025-02-26T14:09:14Z</time>
      </trkpt>
      <trkpt lat="43.48524" lon="6.58048">
        <ele>71.7</ele>
        <time>2025-02-26T14:09:15Z</time>
      </trkpt>
      <trkpt lat="43.48525" lon="6.58049">
        <ele>71.7</ele>
        <time>2025-02-26T14:09:16Z</time>
      </trkpt>
      <trkpt lat="43.48525" lon="6.5805">
        <ele>71.6</ele>
        <time>2025-02-26T14:09:17Z</time>
      </trkpt>
      <trkpt lat="43.48525" lon="6.58051">
        <ele>71.6</ele>
        <time>2025-02-26T14:09:18Z</time>
      </trkpt>
      <trkpt lat="43.48525" lon="6.58052">
        <ele>71.5</ele>
        <time>2025-02-26T14:09:19Z</time>
      </trkpt>
      <trkpt lat="43.48525" lon="6.58054">
        <ele>71.5</ele>
        <time>2025-02-26T14:09:20Z</time>
      </trkpt>
      <trkpt lat="43.48524" lon="6.58056">
        <ele>71.4</ele>
        <time>2025-02-26T14:09:21Z</time>
      </trkpt>
      <trkpt lat="43.48524" lon="6.58057">
        <ele>71.4</ele>
        <time>2025-02-26T14:09:22Z</time>
      </trkpt>
      <trkpt lat="43.48524" lon="6.58059">
        <ele>71.2</ele>
        <time>2025-02-26T14:09:23Z</time>
      </trkpt>
      <trkpt lat="43.48524" lon="6.58061">
        <ele>71.1</ele>
        <time>2025-02-26T14:09:24Z</time>
      </trkpt>
      <trkpt lat="43.48524" lon="6.58062">
        <ele>71</ele>
        <time>2025-02-26T14:09:25Z</time>
      </trkpt>
      <trkpt lat="43.48523" lon="6.58064">
        <ele>70.9</ele>
        <time>2025-02-26T14:09:26Z</time>
      </trkpt>
      <trkpt lat="43.48523" lon="6.58066">
        <ele>70.8</ele>
        <time>2025-02-26T14:09:27Z</time>
      </trkpt>
      <trkpt lat="43.48523" lon="6.58067">
        <ele>70.8</ele>
        <time>2025-02-26T14:09:28Z</time>
      </trkpt>
      <trkpt lat="43.48523" lon="6.58069">
        <ele>70.8</ele>
        <time>2025-02-26T14:09:29Z</time>
      </trkpt>
      <trkpt lat="43.48522" lon="6.5807">
        <ele>70.7</ele>
        <time>2025-02-26T14:09:30Z</time>
      </trkpt>
      <trkpt lat="43.48522" lon="6.58072">
        <ele>70.7</ele>
        <time>2025-02-26T14:09:31Z</time>
      </trkpt>
      <trkpt lat="43.48522" lon="6.58073">
        <ele>70.6</ele>
        <time>2025-02-26T14:09:32Z</time>
      </trkpt>
      <trkpt lat="43.48522" lon="6.58075">
        <ele>70.5</ele>
        <time>2025-02-26T14:09:33Z</time>
      </trkpt>
      <trkpt lat="43.48522" lon="6.58076">
        <ele>70.4</ele>
        <time>2025-02-26T14:09:34Z</time>
      </trkpt>
      <trkpt lat="43.48522" lon="6.58078">
        <ele>70.3</ele>
        <time>2025-02-26T14:09:35Z</time>
      </trkpt>
      <trkpt lat="43.48521" lon="6.5808">
        <ele>70.2</ele>
        <time>2025-02-26T14:09:36Z</time>
      </trkpt>
      <trkpt lat="43.48521" lon="6.58081">
        <ele>70.1</ele>
        <time>2025-02-26T14:09:37Z</time>
      </trkpt>
      <trkpt lat="43.48521" lon="6.58083">
        <ele>70.4</ele>
        <time>2025-02-26T14:09:38Z</time>
      </trkpt>
      <trkpt lat="43.4852" lon="6.58084">
        <ele>71</ele>
        <time>2025-02-26T14:09:39Z</time>
      </trkpt>
      <trkpt lat="43.4852" lon="6.58086">
        <ele>70.8</ele>
        <time>2025-02-26T14:09:40Z</time>
      </trkpt>
      <trkpt lat="43.48519" lon="6.58087">
        <ele>70.5</ele>
        <time>2025-02-26T14:09:41Z</time>
      </trkpt>
      <trkpt lat="43.48519" lon="6.58088">
        <ele>70.3</ele>
        <time>2025-02-26T14:09:42Z</time>
      </trkpt>
      <trkpt lat="43.48519" lon="6.58089">
        <ele>70.2</ele>
        <time>2025-02-26T14:09:43Z</time>
      </trkpt>
      <trkpt lat="43.48519" lon="6.5809">
        <ele>70.2</ele>
        <time>2025-02-26T14:09:44Z</time>
      </trkpt>
      <trkpt lat="43.48518" lon="6.58091">
        <ele>70.3</ele>
        <time>2025-02-26T14:09:45Z</time>
      </trkpt>
      <trkpt lat="43.48518" lon="6.58093">
        <ele>70.2</ele>
        <time>2025-02-26T14:09:46Z</time>
      </trkpt>
      <trkpt lat="43.48517" lon="6.58094">
        <ele>70.2</ele>
        <time>2025-02-26T14:09:47Z</time>
      </trkpt>
      <trkpt lat="43.48517" lon="6.58096">
        <ele>70.2</ele>
        <time>2025-02-26T14:09:48Z</time>
      </trkpt>
      <trkpt lat="43.48517" lon="6.58098">
        <ele>70.2</ele>
        <time>2025-02-26T14:09:49Z</time>
      </trkpt>
      <trkpt lat="43.48516" lon="6.58099">
        <ele>70.1</ele>
        <time>2025-02-26T14:09:50Z</time>
      </trkpt>
      <trkpt lat="43.48516" lon="6.58101">
        <ele>70.1</ele>
        <time>2025-02-26T14:09:51Z</time>
      </trkpt>
      <trkpt lat="43.48515" lon="6.58102">
        <ele>70.1</ele>
        <time>2025-02-26T14:09:52Z</time>
      </trkpt>
      <trkpt lat="43.48515" lon="6.58104">
        <ele>70.3</ele>
        <time>2025-02-26T14:09:53Z</time>
      </trkpt>
      <trkpt lat="43.48514" lon="6.58105">
        <ele>70.4</ele>
        <time>2025-02-26T14:09:54Z</time>
      </trkpt>
      <trkpt lat="43.48514" lon="6.58106">
        <ele>70.5</ele>
        <time>2025-02-26T14:09:55Z</time>
      </trkpt>
      <trkpt lat="43.48513" lon="6.58108">
        <ele>70.6</ele>
        <time>2025-02-26T14:09:56Z</time>
      </trkpt>
      <trkpt lat="43.48513" lon="6.58109">
        <ele>70.6</ele>
        <time>2025-02-26T14:09:57Z</time>
      </trkpt>
      <trkpt lat="43.48512" lon="6.5811">
        <ele>70.7</ele>
        <time>2025-02-26T14:09:58Z</time>
      </trkpt>
      <trkpt lat="43.48512" lon="6.58112">
        <ele>70.7</ele>
        <time>2025-02-26T14:09:59Z</time>
      </trkpt>
      <trkpt lat="43.48512" lon="6.58113">
        <ele>70.7</ele>
        <time>2025-02-26T14:10:00Z</time>
      </trkpt>
      <trkpt lat="43.48511" lon="6.58115">
        <ele>70.9</ele>
        <time>2025-02-26T14:10:01Z</time>
      </trkpt>
      <trkpt lat="43.48511" lon="6.58116">
        <ele>70.8</ele>
        <time>2025-02-26T14:10:02Z</time>
      </trkpt>
      <trkpt lat="43.48511" lon="6.58118">
        <ele>71</ele>
        <time>2025-02-26T14:10:03Z</time>
      </trkpt>
      <trkpt lat="43.4851" lon="6.58119">
        <ele>71.2</ele>
        <time>2025-02-26T14:10:04Z</time>
      </trkpt>
      <trkpt lat="43.4851" lon="6.58121">
        <ele>71.3</ele>
        <time>2025-02-26T14:10:05Z</time>
      </trkpt>
      <trkpt lat="43.4851" lon="6.58122">
        <ele>71.4</ele>
        <time>2025-02-26T14:10:06Z</time>
      </trkpt>
      <trkpt lat="43.48509" lon="6.58124">
        <ele>71.5</ele>
        <time>2025-02-26T14:10:07Z</time>
      </trkpt>
      <trkpt lat="43.48509" lon="6.58125">
        <ele>71.6</ele>
        <time>2025-02-26T14:10:08Z</time>
      </trkpt>
      <trkpt lat="43.48508" lon="6.58126">
        <ele>71.6</ele>
        <time>2025-02-26T14:10:09Z</time>
      </trkpt>
      <trkpt lat="43.48508" lon="6.58127">
        <ele>71.8</ele>
        <time>2025-02-26T14:10:10Z</time>
      </trkpt>
      <trkpt lat="43.48507" lon="6.58129">
        <ele>71.9</ele>
        <time>2025-02-26T14:10:11Z</time>
      </trkpt>
      <trkpt lat="43.48507" lon="6.5813">
        <ele>71.9</ele>
        <time>2025-02-26T14:10:12Z</time>
      </trkpt>
      <trkpt lat="43.48507" lon="6.58131">
        <ele>72</ele>
        <time>2025-02-26T14:10:13Z</time>
      </trkpt>
      <trkpt lat="43.48507" lon="6.58132">
        <ele>72.1</ele>
        <time>2025-02-26T14:10:14Z</time>
      </trkpt>
      <trkpt lat="43.48507" lon="6.58134">
        <ele>72.1</ele>
        <time>2025-02-26T14:10:15Z</time>
      </trkpt>
      <trkpt lat="43.48507" lon="6.58135">
        <ele>72.1</ele>
        <time>2025-02-26T14:10:16Z</time>
      </trkpt>
      <trkpt lat="43.48507" lon="6.58137">
        <ele>72.2</ele>
        <time>2025-02-26T14:10:17Z</time>
      </trkpt>
      <trkpt lat="43.48508" lon="6.58138">
        <ele>72.1</ele>
        <time>2025-02-26T14:10:18Z</time>
      </trkpt>
      <trkpt lat="43.48508" lon="6.5814">
        <ele>72.2</ele>
        <time>2025-02-26T14:10:19Z</time>
      </trkpt>
      <trkpt lat="43.48509" lon="6.58141">
        <ele>72.1</ele>
        <time>2025-02-26T14:10:20Z</time>
      </trkpt>
      <trkpt lat="43.48509" lon="6.58142">
        <ele>72.1</ele>
        <time>2025-02-26T14:10:21Z</time>
      </trkpt>
      <trkpt lat="43.48509" lon="6.58144">
        <ele>72.1</ele>
        <time>2025-02-26T14:10:22Z</time>
      </trkpt>
      <trkpt lat="43.4851" lon="6.58145">
        <ele>72</ele>
        <time>2025-02-26T14:10:23Z</time>
      </trkpt>
      <trkpt lat="43.4851" lon="6.58147">
        <ele>71.9</ele>
        <time>2025-02-26T14:10:24Z</time>
      </trkpt>
      <trkpt lat="43.4851" lon="6.58148">
        <ele>71.9</ele>
        <time>2025-02-26T14:10:25Z</time>
      </trkpt>
      <trkpt lat="43.4851" lon="6.5815">
        <ele>71.9</ele>
        <time>2025-02-26T14:10:26Z</time>
      </trkpt>
      <trkpt lat="43.48511" lon="6.58151">
        <ele>71.9</ele>
        <time>2025-02-26T14:10:27Z</time>
      </trkpt>
      <trkpt lat="43.48511" lon="6.58152">
        <ele>72.2</ele>
        <time>2025-02-26T14:10:28Z</time>
      </trkpt>
      <trkpt lat="43.48512" lon="6.58153">
        <ele>72.1</ele>
        <time>2025-02-26T14:10:29Z</time>
      </trkpt>
      <trkpt lat="43.48512" lon="6.58155">
        <ele>72.1</ele>
        <time>2025-02-26T14:10:30Z</time>
      </trkpt>
      <trkpt lat="43.48513" lon="6.58156">
        <ele>72.2</ele>
        <time>2025-02-26T14:10:31Z</time>
      </trkpt>
      <trkpt lat="43.48513" lon="6.58158">
        <ele>72.2</ele>
        <time>2025-02-26T14:10:32Z</time>
      </trkpt>
      <trkpt lat="43.48514" lon="6.58159">
        <ele>72.2</ele>
        <time>2025-02-26T14:10:33Z</time>
      </trkpt>
      <trkpt lat="43.48514" lon="6.5816">
        <ele>72.2</ele>
        <time>2025-02-26T14:10:34Z</time>
      </trkpt>
      <trkpt lat="43.48515" lon="6.58162">
        <ele>72.2</ele>
        <time>2025-02-26T14:10:35Z</time>
      </trkpt>
      <trkpt lat="43.48515" lon="6.58163">
        <ele>72.2</ele>
        <time>2025-02-26T14:10:36Z</time>
      </trkpt>
      <trkpt lat="43.48516" lon="6.58165">
        <ele>72.2</ele>
        <time>2025-02-26T14:10:37Z</time>
      </trkpt>
      <trkpt lat="43.48516" lon="6.58166">
        <ele>72.3</ele>
        <time>2025-02-26T14:10:38Z</time>
      </trkpt>
      <trkpt lat="43.48517" lon="6.58167">
        <ele>72.3</ele>
        <time>2025-02-26T14:10:39Z</time>
      </trkpt>
      <trkpt lat="43.48518" lon="6.58168">
        <ele>72.3</ele>
        <time>2025-02-26T14:10:40Z</time>
      </trkpt>
      <trkpt lat="43.48519" lon="6.58169">
        <ele>72.5</ele>
        <time>2025-02-26T14:10:41Z</time>
      </trkpt>
      <trkpt lat="43.4852" lon="6.5817">
        <ele>72.5</ele>
        <time>2025-02-26T14:10:42Z</time>
      </trkpt>
      <trkpt lat="43.48521" lon="6.58171">
        <ele>72.6</ele>
        <time>2025-02-26T14:10:43Z</time>
      </trkpt>
      <trkpt lat="43.48521" lon="6.58171">
        <ele>72.6</ele>
        <time>2025-02-26T14:10:44Z</time>
      </trkpt>
      <trkpt lat="43.48522" lon="6.58171">
        <ele>72.8</ele>
        <time>2025-02-26T14:10:45Z</time>
      </trkpt>
      <trkpt lat="43.48522" lon="6.58171">
        <ele>72.9</ele>
        <time>2025-02-26T14:10:46Z</time>
      </trkpt>
      <trkpt lat="43.48522" lon="6.58171">
        <ele>73</ele>
        <time>2025-02-26T14:10:47Z</time>
      </trkpt>
      <trkpt lat="43.48522" lon="6.58172">
        <ele>73.1</ele>
        <time>2025-02-26T14:10:48Z</time>
      </trkpt>
      <trkpt lat="43.48522" lon="6.58172">
        <ele>73.2</ele>
        <time>2025-02-26T14:10:49Z</time>
      </trkpt>
      <trkpt lat="43.48522" lon="6.58173">
        <ele>73.2</ele>
        <time>2025-02-26T14:10:50Z</time>
      </trkpt>
      <trkpt lat="43.48522" lon="6.58174">
        <ele>73.2</ele>
        <time>2025-02-26T14:10:51Z</time>
      </trkpt>
      <trkpt lat="43.48522" lon="6.58176">
        <ele>73.3</ele>
        <time>2025-02-26T14:10:52Z</time>
      </trkpt>
      <trkpt lat="43.48522" lon="6.58177">
        <ele>73.5</ele>
        <time>2025-02-26T14:10:53Z</time>
      </trkpt>
      <trkpt lat="43.48522" lon="6.58178">
        <ele>73.5</ele>
        <time>2025-02-26T14:10:54Z</time>
      </trkpt>
      <trkpt lat="43.48522" lon="6.5818">
        <ele>73.5</ele>
        <time>2025-02-26T14:10:55Z</time>
      </trkpt>
      <trkpt lat="43.48522" lon="6.58182">
        <ele>73.5</ele>
        <time>2025-02-26T14:10:56Z</time>
      </trkpt>
      <trkpt lat="43.48523" lon="6.58184">
        <ele>73.5</ele>
        <time>2025-02-26T14:10:57Z</time>
      </trkpt>
      <trkpt lat="43.48523" lon="6.58185">
        <ele>73.5</ele>
        <time>2025-02-26T14:10:58Z</time>
      </trkpt>
      <trkpt lat="43.48523" lon="6.58186">
        <ele>73.5</ele>
        <time>2025-02-26T14:10:59Z</time>
      </trkpt>
      <trkpt lat="43.48524" lon="6.58187">
        <ele>73.6</ele>
        <time>2025-02-26T14:11:00Z</time>
      </trkpt>
      <trkpt lat="43.48524" lon="6.58188">
        <ele>73.6</ele>
        <time>2025-02-26T14:11:01Z</time>
      </trkpt>
      <trkpt lat="43.48524" lon="6.58189">
        <ele>73.7</ele>
        <time>2025-02-26T14:11:02Z</time>
      </trkpt>
      <trkpt lat="43.48525" lon="6.5819">
        <ele>73.7</ele>
        <time>2025-02-26T14:11:03Z</time>
      </trkpt>
      <trkpt lat="43.48525" lon="6.5819">
        <ele>73.8</ele>
        <time>2025-02-26T14:11:04Z</time>
      </trkpt>
      <trkpt lat="43.48525" lon="6.5819">
        <ele>73.8</ele>
        <time>2025-02-26T14:11:05Z</time>
      </trkpt>
      <trkpt lat="43.48525" lon="6.5819">
        <ele>73.8</ele>
        <time>2025-02-26T14:11:06Z</time>
      </trkpt>
      <trkpt lat="43.48525" lon="6.58191">
        <ele>73.8</ele>
        <time>2025-02-26T14:11:07Z</time>
      </trkpt>
      <trkpt lat="43.48525" lon="6.58191">
        <ele>73.8</ele>
        <time>2025-02-26T14:11:08Z</time>
      </trkpt>
      <trkpt lat="43.48525" lon="6.58191">
        <ele>74</ele>
        <time>2025-02-26T14:11:09Z</time>
      </trkpt>
      <trkpt lat="43.48526" lon="6.58191">
        <ele>74.1</ele>
        <time>2025-02-26T14:11:10Z</time>
      </trkpt>
      <trkpt lat="43.48525" lon="6.58191">
        <ele>74.2</ele>
        <time>2025-02-26T14:11:11Z</time>
      </trkpt>
      <trkpt lat="43.48525" lon="6.58192">
        <ele>74.2</ele>
        <time>2025-02-26T14:11:12Z</time>
      </trkpt>
      <trkpt lat="43.48525" lon="6.58194">
        <ele>74.2</ele>
        <time>2025-02-26T14:11:13Z</time>
      </trkpt>
      <trkpt lat="43.48525" lon="6.58195">
        <ele>74.2</ele>
        <time>2025-02-26T14:11:14Z</time>
      </trkpt>
      <trkpt lat="43.48526" lon="6.58197">
        <ele>74.2</ele>
        <time>2025-02-26T14:11:15Z</time>
      </trkpt>
      <trkpt lat="43.48526" lon="6.58199">
        <ele>74.2</ele>
        <time>2025-02-26T14:11:16Z</time>
      </trkpt>
      <trkpt lat="43.48526" lon="6.58201">
        <ele>74.1</ele>
        <time>2025-02-26T14:11:17Z</time>
      </trkpt>
      <trkpt lat="43.48526" lon="6.58203">
        <ele>74.1</ele>
        <time>2025-02-26T14:11:18Z</time>
      </trkpt>
      <trkpt lat="43.48526" lon="6.58204">
        <ele>74.1</ele>
        <time>2025-02-26T14:11:19Z</time>
      </trkpt>
      <trkpt lat="43.48526" lon="6.58206">
        <ele>74.1</ele>
        <time>2025-02-26T14:11:20Z</time>
      </trkpt>
      <trkpt lat="43.48526" lon="6.58208">
        <ele>74.1</ele>
        <time>2025-02-26T14:11:21Z</time>
      </trkpt>
      <trkpt lat="43.48526" lon="6.58209">
        <ele>74.1</ele>
        <time>2025-02-26T14:11:22Z</time>
      </trkpt>
      <trkpt lat="43.48526" lon="6.58211">
        <ele>74.1</ele>
        <time>2025-02-26T14:11:23Z</time>
      </trkpt>
      <trkpt lat="43.48526" lon="6.58212">
        <ele>74</ele>
        <time>2025-02-26T14:11:24Z</time>
      </trkpt>
      <trkpt lat="43.48526" lon="6.58213">
        <ele>74.2</ele>
        <time>2025-02-26T14:11:25Z</time>
      </trkpt>
      <trkpt lat="43.48526" lon="6.58215">
        <ele>74.2</ele>
        <time>2025-02-26T14:11:26Z</time>
      </trkpt>
      <trkpt lat="43.48526" lon="6.58216">
        <ele>74.1</ele>
        <time>2025-02-26T14:11:27Z</time>
      </trkpt>
      <trkpt lat="43.48527" lon="6.58218">
        <ele>74.1</ele>
        <time>2025-02-26T14:11:28Z</time>
      </trkpt>
      <trkpt lat="43.48527" lon="6.5822">
        <ele>74</ele>
        <time>2025-02-26T14:11:29Z</time>
      </trkpt>
      <trkpt lat="43.48527" lon="6.58221">
        <ele>73.9</ele>
        <time>2025-02-26T14:11:30Z</time>
      </trkpt>
      <trkpt lat="43.48527" lon="6.58223">
        <ele>73.9</ele>
        <time>2025-02-26T14:11:31Z</time>
      </trkpt>
      <trkpt lat="43.48528" lon="6.58225">
        <ele>73.8</ele>
        <time>2025-02-26T14:11:32Z</time>
      </trkpt>
      <trkpt lat="43.48528" lon="6.58226">
        <ele>73.7</ele>
        <time>2025-02-26T14:11:33Z</time>
      </trkpt>
      <trkpt lat="43.48528" lon="6.58228">
        <ele>73.6</ele>
        <time>2025-02-26T14:11:34Z</time>
      </trkpt>
      <trkpt lat="43.48529" lon="6.58229">
        <ele>73.7</ele>
        <time>2025-02-26T14:11:35Z</time>
      </trkpt>
      <trkpt lat="43.48529" lon="6.58231">
        <ele>73.6</ele>
        <time>2025-02-26T14:11:36Z</time>
      </trkpt>
      <trkpt lat="43.48529" lon="6.58233">
        <ele>73.4</ele>
        <time>2025-02-26T14:11:37Z</time>
      </trkpt>
      <trkpt lat="43.48529" lon="6.58234">
        <ele>73.3</ele>
        <time>2025-02-26T14:11:38Z</time>
      </trkpt>
      <trkpt lat="43.48529" lon="6.58236">
        <ele>73.3</ele>
        <time>2025-02-26T14:11:39Z</time>
      </trkpt>
      <trkpt lat="43.48529" lon="6.58238">
        <ele>73.2</ele>
        <time>2025-02-26T14:11:40Z</time>
      </trkpt>
      <trkpt lat="43.4853" lon="6.5824">
        <ele>73.2</ele>
        <time>2025-02-26T14:11:41Z</time>
      </trkpt>
      <trkpt lat="43.4853" lon="6.58241">
        <ele>73.2</ele>
        <time>2025-02-26T14:11:42Z</time>
      </trkpt>
      <trkpt lat="43.4853" lon="6.58243">
        <ele>73.2</ele>
        <time>2025-02-26T14:11:43Z</time>
      </trkpt>
      <trkpt lat="43.4853" lon="6.58245">
        <ele>73.1</ele>
        <time>2025-02-26T14:11:44Z</time>
      </trkpt>
      <trkpt lat="43.4853" lon="6.58247">
        <ele>73.1</ele>
        <time>2025-02-26T14:11:45Z</time>
      </trkpt>
      <trkpt lat="43.4853" lon="6.58248">
        <ele>73</ele>
        <time>2025-02-26T14:11:46Z</time>
      </trkpt>
      <trkpt lat="43.4853" lon="6.5825">
        <ele>72.9</ele>
        <time>2025-02-26T14:11:47Z</time>
      </trkpt>
      <trkpt lat="43.48531" lon="6.58251">
        <ele>72.9</ele>
        <time>2025-02-26T14:11:48Z</time>
      </trkpt>
      <trkpt lat="43.48531" lon="6.58252">
        <ele>72.9</ele>
        <time>2025-02-26T14:11:49Z</time>
      </trkpt>
      <trkpt lat="43.48531" lon="6.58254">
        <ele>72.9</ele>
        <time>2025-02-26T14:11:50Z</time>
      </trkpt>
      <trkpt lat="43.4853" lon="6.58256">
        <ele>72.8</ele>
        <time>2025-02-26T14:11:51Z</time>
      </trkpt>
      <trkpt lat="43.4853" lon="6.58259">
        <ele>72.9</ele>
        <time>2025-02-26T14:11:52Z</time>
      </trkpt>
      <trkpt lat="43.4853" lon="6.58261">
        <ele>72.9</ele>
        <time>2025-02-26T14:11:53Z</time>
      </trkpt>
      <trkpt lat="43.4853" lon="6.58262">
        <ele>73</ele>
        <time>2025-02-26T14:11:54Z</time>
      </trkpt>
      <trkpt lat="43.48529" lon="6.58264">
        <ele>72.8</ele>
        <time>2025-02-26T14:11:55Z</time>
      </trkpt>
      <trkpt lat="43.48529" lon="6.58266">
        <ele>72.8</ele>
        <time>2025-02-26T14:11:56Z</time>
      </trkpt>
      <trkpt lat="43.48529" lon="6.58268">
        <ele>72.8</ele>
        <time>2025-02-26T14:11:57Z</time>
      </trkpt>
      <trkpt lat="43.48529" lon="6.58269">
        <ele>72.8</ele>
        <time>2025-02-26T14:11:58Z</time>
      </trkpt>
      <trkpt lat="43.48529" lon="6.58271">
        <ele>72.8</ele>
        <time>2025-02-26T14:11:59Z</time>
      </trkpt>
      <trkpt lat="43.48529" lon="6.58273">
        <ele>72.8</ele>
        <time>2025-02-26T14:12:00Z</time>
      </trkpt>
      <trkpt lat="43.48528" lon="6.58274">
        <ele>72.8</ele>
        <time>2025-02-26T14:12:01Z</time>
      </trkpt>
      <trkpt lat="43.48528" lon="6.58276">
        <ele>72.9</ele>
        <time>2025-02-26T14:12:02Z</time>
      </trkpt>
      <trkpt lat="43.48528" lon="6.58278">
        <ele>72.9</ele>
        <time>2025-02-26T14:12:03Z</time>
      </trkpt>
      <trkpt lat="43.48528" lon="6.58279">
        <ele>72.9</ele>
        <time>2025-02-26T14:12:04Z</time>
      </trkpt>
      <trkpt lat="43.48528" lon="6.58281">
        <ele>72.9</ele>
        <time>2025-02-26T14:12:05Z</time>
      </trkpt>
      <trkpt lat="43.48528" lon="6.58283">
        <ele>73</ele>
        <time>2025-02-26T14:12:06Z</time>
      </trkpt>
      <trkpt lat="43.48528" lon="6.58284">
        <ele>73</ele>
        <time>2025-02-26T14:12:07Z</time>
      </trkpt>
      <trkpt lat="43.48527" lon="6.58286">
        <ele>72.9</ele>
        <time>2025-02-26T14:12:08Z</time>
      </trkpt>
      <trkpt lat="43.48527" lon="6.58288">
        <ele>72.9</ele>
        <time>2025-02-26T14:12:09Z</time>
      </trkpt>
      <trkpt lat="43.48526" lon="6.58289">
        <ele>72.9</ele>
        <time>2025-02-26T14:12:10Z</time>
      </trkpt>
      <trkpt lat="43.48525" lon="6.5829">
        <ele>72.8</ele>
        <time>2025-02-26T14:12:11Z</time>
      </trkpt>
      <trkpt lat="43.48525" lon="6.58292">
        <ele>72.8</ele>
        <time>2025-02-26T14:12:12Z</time>
      </trkpt>
      <trkpt lat="43.48525" lon="6.58293">
        <ele>72.7</ele>
        <time>2025-02-26T14:12:13Z</time>
      </trkpt>
      <trkpt lat="43.48524" lon="6.58295">
        <ele>72.7</ele>
        <time>2025-02-26T14:12:14Z</time>
      </trkpt>
      <trkpt lat="43.48524" lon="6.58297">
        <ele>72.6</ele>
        <time>2025-02-26T14:12:15Z</time>
      </trkpt>
      <trkpt lat="43.48523" lon="6.58298">
        <ele>72.5</ele>
        <time>2025-02-26T14:12:16Z</time>
      </trkpt>
      <trkpt lat="43.48523" lon="6.583">
        <ele>72.5</ele>
        <time>2025-02-26T14:12:17Z</time>
      </trkpt>
      <trkpt lat="43.48522" lon="6.58301">
        <ele>72.5</ele>
        <time>2025-02-26T14:12:18Z</time>
      </trkpt>
      <trkpt lat="43.48522" lon="6.58303">
        <ele>72.5</ele>
        <time>2025-02-26T14:12:19Z</time>
      </trkpt>
      <trkpt lat="43.48522" lon="6.58304">
        <ele>72.6</ele>
        <time>2025-02-26T14:12:20Z</time>
      </trkpt>
      <trkpt lat="43.48522" lon="6.58305">
        <ele>72.7</ele>
        <time>2025-02-26T14:12:21Z</time>
      </trkpt>
      <trkpt lat="43.48521" lon="6.58306">
        <ele>72.8</ele>
        <time>2025-02-26T14:12:22Z</time>
      </trkpt>
      <trkpt lat="43.48521" lon="6.58307">
        <ele>72.8</ele>
        <time>2025-02-26T14:12:23Z</time>
      </trkpt>
      <trkpt lat="43.48521" lon="6.58309">
        <ele>72.8</ele>
        <time>2025-02-26T14:12:24Z</time>
      </trkpt>
      <trkpt lat="43.4852" lon="6.5831">
        <ele>72.8</ele>
        <time>2025-02-26T14:12:25Z</time>
      </trkpt>
      <trkpt lat="43.4852" lon="6.58312">
        <ele>72.9</ele>
        <time>2025-02-26T14:12:26Z</time>
      </trkpt>
      <trkpt lat="43.4852" lon="6.58313">
        <ele>72.9</ele>
        <time>2025-02-26T14:12:27Z</time>
      </trkpt>
      <trkpt lat="43.4852" lon="6.58315">
        <ele>72.9</ele>
        <time>2025-02-26T14:12:28Z</time>
      </trkpt>
      <trkpt lat="43.4852" lon="6.58316">
        <ele>73</ele>
        <time>2025-02-26T14:12:29Z</time>
      </trkpt>
      <trkpt lat="43.4852" lon="6.58318">
        <ele>73</ele>
        <time>2025-02-26T14:12:30Z</time>
      </trkpt>
      <trkpt lat="43.4852" lon="6.58319">
        <ele>73</ele>
        <time>2025-02-26T14:12:31Z</time>
      </trkpt>
      <trkpt lat="43.4852" lon="6.58321">
        <ele>73.2</ele>
        <time>2025-02-26T14:12:32Z</time>
      </trkpt>
      <trkpt lat="43.4852" lon="6.58322">
        <ele>73.4</ele>
        <time>2025-02-26T14:12:33Z</time>
      </trkpt>
      <trkpt lat="43.4852" lon="6.58324">
        <ele>73.6</ele>
        <time>2025-02-26T14:12:34Z</time>
      </trkpt>
      <trkpt lat="43.48521" lon="6.58325">
        <ele>73.7</ele>
        <time>2025-02-26T14:12:35Z</time>
      </trkpt>
      <trkpt lat="43.48521" lon="6.58326">
        <ele>73.7</ele>
        <time>2025-02-26T14:12:36Z</time>
      </trkpt>
      <trkpt lat="43.48521" lon="6.58328">
        <ele>73.7</ele>
        <time>2025-02-26T14:12:37Z</time>
      </trkpt>
      <trkpt lat="43.48521" lon="6.58329">
        <ele>73.8</ele>
        <time>2025-02-26T14:12:38Z</time>
      </trkpt>
      <trkpt lat="43.48521" lon="6.58331">
        <ele>73.7</ele>
        <time>2025-02-26T14:12:39Z</time>
      </trkpt>
      <trkpt lat="43.48522" lon="6.58333">
        <ele>73.6</ele>
        <time>2025-02-26T14:12:40Z</time>
      </trkpt>
      <trkpt lat="43.48522" lon="6.58334">
        <ele>73.6</ele>
        <time>2025-02-26T14:12:41Z</time>
      </trkpt>
      <trkpt lat="43.48523" lon="6.58335">
        <ele>73.5</ele>
        <time>2025-02-26T14:12:42Z</time>
      </trkpt>
      <trkpt lat="43.48524" lon="6.58336">
        <ele>73.4</ele>
        <time>2025-02-26T14:12:43Z</time>
      </trkpt>
      <trkpt lat="43.48524" lon="6.58337">
        <ele>73.4</ele>
        <time>2025-02-26T14:12:44Z</time>
      </trkpt>
      <trkpt lat="43.48524" lon="6.58338">
        <ele>73.4</ele>
        <time>2025-02-26T14:12:45Z</time>
      </trkpt>
      <trkpt lat="43.48525" lon="6.58339">
        <ele>73.3</ele>
        <time>2025-02-26T14:12:46Z</time>
      </trkpt>
      <trkpt lat="43.48525" lon="6.5834">
        <ele>73.2</ele>
        <time>2025-02-26T14:12:47Z</time>
      </trkpt>
      <trkpt lat="43.48526" lon="6.58342">
        <ele>73.2</ele>
        <time>2025-02-26T14:12:48Z</time>
      </trkpt>
      <trkpt lat="43.48527" lon="6.58343">
        <ele>73.1</ele>
        <time>2025-02-26T14:12:49Z</time>
      </trkpt>
      <trkpt lat="43.48528" lon="6.58344">
        <ele>73</ele>
        <time>2025-02-26T14:12:50Z</time>
      </trkpt>
      <trkpt lat="43.48528" lon="6.58346">
        <ele>72.7</ele>
        <time>2025-02-26T14:12:51Z</time>
      </trkpt>
      <trkpt lat="43.48529" lon="6.58347">
        <ele>72.6</ele>
        <time>2025-02-26T14:12:52Z</time>
      </trkpt>
      <trkpt lat="43.4853" lon="6.58348">
        <ele>72.5</ele>
        <time>2025-02-26T14:12:53Z</time>
      </trkpt>
      <trkpt lat="43.4853" lon="6.58349">
        <ele>72.3</ele>
        <time>2025-02-26T14:12:54Z</time>
      </trkpt>
      <trkpt lat="43.48531" lon="6.5835">
        <ele>72.2</ele>
        <time>2025-02-26T14:12:55Z</time>
      </trkpt>
      <trkpt lat="43.48532" lon="6.58352">
        <ele>72</ele>
        <time>2025-02-26T14:12:56Z</time>
      </trkpt>
      <trkpt lat="43.48533" lon="6.58353">
        <ele>72</ele>
        <time>2025-02-26T14:12:57Z</time>
      </trkpt>
      <trkpt lat="43.48533" lon="6.58354">
        <ele>71.9</ele>
        <time>2025-02-26T14:12:58Z</time>
      </trkpt>
      <trkpt lat="43.48534" lon="6.58355">
        <ele>71.6</ele>
        <time>2025-02-26T14:12:59Z</time>
      </trkpt>
      <trkpt lat="43.48535" lon="6.58357">
        <ele>71.5</ele>
        <time>2025-02-26T14:13:00Z</time>
      </trkpt>
      <trkpt lat="43.48536" lon="6.58358">
        <ele>71.4</ele>
        <time>2025-02-26T14:13:01Z</time>
      </trkpt>
      <trkpt lat="43.48536" lon="6.58359">
        <ele>71.4</ele>
        <time>2025-02-26T14:13:02Z</time>
      </trkpt>
      <trkpt lat="43.48537" lon="6.58361">
        <ele>71.5</ele>
        <time>2025-02-26T14:13:03Z</time>
      </trkpt>
      <trkpt lat="43.48537" lon="6.58362">
        <ele>71.5</ele>
        <time>2025-02-26T14:13:04Z</time>
      </trkpt>
      <trkpt lat="43.48538" lon="6.58364">
        <ele>71.5</ele>
        <time>2025-02-26T14:13:05Z</time>
      </trkpt>
      <trkpt lat="43.48538" lon="6.58365">
        <ele>71.5</ele>
        <time>2025-02-26T14:13:06Z</time>
      </trkpt>
      <trkpt lat="43.48538" lon="6.58367">
        <ele>71.3</ele>
        <time>2025-02-26T14:13:07Z</time>
      </trkpt>
      <trkpt lat="43.48538" lon="6.58369">
        <ele>71.3</ele>
        <time>2025-02-26T14:13:08Z</time>
      </trkpt>
      <trkpt lat="43.48538" lon="6.58371">
        <ele>71.2</ele>
        <time>2025-02-26T14:13:09Z</time>
      </trkpt>
      <trkpt lat="43.48538" lon="6.58372">
        <ele>71</ele>
        <time>2025-02-26T14:13:10Z</time>
      </trkpt>
      <trkpt lat="43.48538" lon="6.58374">
        <ele>70.8</ele>
        <time>2025-02-26T14:13:11Z</time>
      </trkpt>
      <trkpt lat="43.48537" lon="6.58376">
        <ele>70.8</ele>
        <time>2025-02-26T14:13:12Z</time>
      </trkpt>
      <trkpt lat="43.48537" lon="6.58378">
        <ele>70.7</ele>
        <time>2025-02-26T14:13:13Z</time>
      </trkpt>
      <trkpt lat="43.48537" lon="6.58379">
        <ele>70.6</ele>
        <time>2025-02-26T14:13:14Z</time>
      </trkpt>
      <trkpt lat="43.48537" lon="6.58381">
        <ele>70.6</ele>
        <time>2025-02-26T14:13:15Z</time>
      </trkpt>
      <trkpt lat="43.48537" lon="6.58382">
        <ele>70.5</ele>
        <time>2025-02-26T14:13:16Z</time>
      </trkpt>
      <trkpt lat="43.48536" lon="6.58384">
        <ele>70.4</ele>
        <time>2025-02-26T14:13:17Z</time>
      </trkpt>
      <trkpt lat="43.48536" lon="6.58386">
        <ele>70.4</ele>
        <time>2025-02-26T14:13:18Z</time>
      </trkpt>
      <trkpt lat="43.48535" lon="6.58387">
        <ele>70.4</ele>
        <time>2025-02-26T14:13:19Z</time>
      </trkpt>
      <trkpt lat="43.48535" lon="6.58388">
        <ele>70.4</ele>
        <time>2025-02-26T14:13:20Z</time>
      </trkpt>
      <trkpt lat="43.48534" lon="6.58389">
        <ele>70.1</ele>
        <time>2025-02-26T14:13:21Z</time>
      </trkpt>
      <trkpt lat="43.48533" lon="6.58389">
        <ele>70.2</ele>
        <time>2025-02-26T14:13:22Z</time>
      </trkpt>
      <trkpt lat="43.48532" lon="6.5839">
        <ele>70.1</ele>
        <time>2025-02-26T14:13:23Z</time>
      </trkpt>
      <trkpt lat="43.48531" lon="6.5839">
        <ele>70.1</ele>
        <time>2025-02-26T14:13:24Z</time>
      </trkpt>
      <trkpt lat="43.48529" lon="6.5839">
        <ele>70.2</ele>
        <time>2025-02-26T14:13:25Z</time>
      </trkpt>
      <trkpt lat="43.48528" lon="6.5839">
        <ele>70.2</ele>
        <time>2025-02-26T14:13:26Z</time>
      </trkpt>
      <trkpt lat="43.48527" lon="6.58391">
        <ele>70.2</ele>
        <time>2025-02-26T14:13:27Z</time>
      </trkpt>
      <trkpt lat="43.48526" lon="6.58391">
        <ele>70.2</ele>
        <time>2025-02-26T14:13:28Z</time>
      </trkpt>
      <trkpt lat="43.48525" lon="6.58391">
        <ele>70.2</ele>
        <time>2025-02-26T14:13:29Z</time>
      </trkpt>
      <trkpt lat="43.48524" lon="6.58391">
        <ele>70.2</ele>
        <time>2025-02-26T14:13:30Z</time>
      </trkpt>
      <trkpt lat="43.48523" lon="6.58391">
        <ele>70.2</ele>
        <time>2025-02-26T14:13:31Z</time>
      </trkpt>
      <trkpt lat="43.48521" lon="6.58391">
        <ele>70</ele>
        <time>2025-02-26T14:13:32Z</time>
      </trkpt>
      <trkpt lat="43.4852" lon="6.58392">
        <ele>69.9</ele>
        <time>2025-02-26T14:13:33Z</time>
      </trkpt>
      <trkpt lat="43.48519" lon="6.58392">
        <ele>69.8</ele>
        <time>2025-02-26T14:13:34Z</time>
      </trkpt>
      <trkpt lat="43.48518" lon="6.58392">
        <ele>69.7</ele>
        <time>2025-02-26T14:13:35Z</time>
      </trkpt>
      <trkpt lat="43.48517" lon="6.58393">
        <ele>69.6</ele>
        <time>2025-02-26T14:13:36Z</time>
      </trkpt>
      <trkpt lat="43.48516" lon="6.58393">
        <ele>69.6</ele>
        <time>2025-02-26T14:13:37Z</time>
      </trkpt>
      <trkpt lat="43.48515" lon="6.58393">
        <ele>69.6</ele>
        <time>2025-02-26T14:13:38Z</time>
      </trkpt>
      <trkpt lat="43.48514" lon="6.58393">
        <ele>69.8</ele>
        <time>2025-02-26T14:13:39Z</time>
      </trkpt>
      <trkpt lat="43.48513" lon="6.58393">
        <ele>69.8</ele>
        <time>2025-02-26T14:13:40Z</time>
      </trkpt>
      <trkpt lat="43.48512" lon="6.58392">
        <ele>70</ele>
        <time>2025-02-26T14:13:41Z</time>
      </trkpt>
      <trkpt lat="43.4851" lon="6.58392">
        <ele>70.1</ele>
        <time>2025-02-26T14:13:42Z</time>
      </trkpt>
      <trkpt lat="43.48509" lon="6.58391">
        <ele>70.1</ele>
        <time>2025-02-26T14:13:43Z</time>
      </trkpt>
      <trkpt lat="43.48509" lon="6.58391">
        <ele>70.1</ele>
        <time>2025-02-26T14:13:44Z</time>
      </trkpt>
      <trkpt lat="43.48507" lon="6.5839">
        <ele>70</ele>
        <time>2025-02-26T14:13:45Z</time>
      </trkpt>
      <trkpt lat="43.48506" lon="6.5839">
        <ele>69.9</ele>
        <time>2025-02-26T14:13:46Z</time>
      </trkpt>
      <trkpt lat="43.48506" lon="6.58389">
        <ele>69.8</ele>
        <time>2025-02-26T14:13:47Z</time>
      </trkpt>
      <trkpt lat="43.48505" lon="6.58389">
        <ele>69.7</ele>
        <time>2025-02-26T14:13:48Z</time>
      </trkpt>
      <trkpt lat="43.48504" lon="6.58389">
        <ele>69.7</ele>
        <time>2025-02-26T14:13:49Z</time>
      </trkpt>
      <trkpt lat="43.48502" lon="6.58389">
        <ele>69.5</ele>
        <time>2025-02-26T14:13:50Z</time>
      </trkpt>
      <trkpt lat="43.48501" lon="6.58389">
        <ele>69.3</ele>
        <time>2025-02-26T14:13:51Z</time>
      </trkpt>
      <trkpt lat="43.485" lon="6.58389">
        <ele>69.2</ele>
        <time>2025-02-26T14:13:52Z</time>
      </trkpt>
      <trkpt lat="43.48499" lon="6.58389">
        <ele>69.1</ele>
        <time>2025-02-26T14:13:53Z</time>
      </trkpt>
      <trkpt lat="43.48498" lon="6.58389">
        <ele>69</ele>
        <time>2025-02-26T14:13:54Z</time>
      </trkpt>
      <trkpt lat="43.48497" lon="6.58389">
        <ele>69</ele>
        <time>2025-02-26T14:13:55Z</time>
      </trkpt>
      <trkpt lat="43.48496" lon="6.5839">
        <ele>69</ele>
        <time>2025-02-26T14:13:56Z</time>
      </trkpt>
      <trkpt lat="43.48495" lon="6.58391">
        <ele>68.8</ele>
        <time>2025-02-26T14:13:57Z</time>
      </trkpt>
      <trkpt lat="43.48494" lon="6.58391">
        <ele>68.7</ele>
        <time>2025-02-26T14:13:58Z</time>
      </trkpt>
      <trkpt lat="43.48493" lon="6.58391">
        <ele>68.6</ele>
        <time>2025-02-26T14:13:59Z</time>
      </trkpt>
      <trkpt lat="43.48492" lon="6.58392">
        <ele>68.4</ele>
        <time>2025-02-26T14:14:00Z</time>
      </trkpt>
      <trkpt lat="43.48492" lon="6.58393">
        <ele>68.4</ele>
        <time>2025-02-26T14:14:01Z</time>
      </trkpt>
      <trkpt lat="43.48491" lon="6.58393">
        <ele>68.3</ele>
        <time>2025-02-26T14:14:02Z</time>
      </trkpt>
      <trkpt lat="43.4849" lon="6.58394">
        <ele>68.4</ele>
        <time>2025-02-26T14:14:03Z</time>
      </trkpt>
      <trkpt lat="43.48489" lon="6.58395">
        <ele>68.3</ele>
        <time>2025-02-26T14:14:04Z</time>
      </trkpt>
      <trkpt lat="43.48489" lon="6.58396">
        <ele>68.2</ele>
        <time>2025-02-26T14:14:05Z</time>
      </trkpt>
      <trkpt lat="43.48488" lon="6.58397">
        <ele>68.1</ele>
        <time>2025-02-26T14:14:06Z</time>
      </trkpt>
      <trkpt lat="43.48487" lon="6.58397">
        <ele>67.9</ele>
        <time>2025-02-26T14:14:07Z</time>
      </trkpt>
      <trkpt lat="43.48486" lon="6.58398">
        <ele>67.7</ele>
        <time>2025-02-26T14:14:08Z</time>
      </trkpt>
      <trkpt lat="43.48485" lon="6.58399">
        <ele>67.5</ele>
        <time>2025-02-26T14:14:09Z</time>
      </trkpt>
      <trkpt lat="43.48485" lon="6.584">
        <ele>67.3</ele>
        <time>2025-02-26T14:14:10Z</time>
      </trkpt>
      <trkpt lat="43.48484" lon="6.58401">
        <ele>67.2</ele>
        <time>2025-02-26T14:14:11Z</time>
      </trkpt>
      <trkpt lat="43.48483" lon="6.58401">
        <ele>67.1</ele>
        <time>2025-02-26T14:14:12Z</time>
      </trkpt>
      <trkpt lat="43.48482" lon="6.58402">
        <ele>66.9</ele>
        <time>2025-02-26T14:14:13Z</time>
      </trkpt>
      <trkpt lat="43.48481" lon="6.58402">
        <ele>66.7</ele>
        <time>2025-02-26T14:14:14Z</time>
      </trkpt>
      <trkpt lat="43.4848" lon="6.58403">
        <ele>66.5</ele>
        <time>2025-02-26T14:14:15Z</time>
      </trkpt>
      <trkpt lat="43.48479" lon="6.58403">
        <ele>66.4</ele>
        <time>2025-02-26T14:14:16Z</time>
      </trkpt>
      <trkpt lat="43.48478" lon="6.58404">
        <ele>66.2</ele>
        <time>2025-02-26T14:14:17Z</time>
      </trkpt>
      <trkpt lat="43.48477" lon="6.58405">
        <ele>66.2</ele>
        <time>2025-02-26T14:14:18Z</time>
      </trkpt>
      <trkpt lat="43.48476" lon="6.58406">
        <ele>66.1</ele>
        <time>2025-02-26T14:14:19Z</time>
      </trkpt>
      <trkpt lat="43.48475" lon="6.58407">
        <ele>66</ele>
        <time>2025-02-26T14:14:20Z</time>
      </trkpt>
      <trkpt lat="43.48475" lon="6.58408">
        <ele>65.8</ele>
        <time>2025-02-26T14:14:21Z</time>
      </trkpt>
      <trkpt lat="43.48474" lon="6.58409">
        <ele>65.7</ele>
        <time>2025-02-26T14:14:22Z</time>
      </trkpt>
      <trkpt lat="43.48473" lon="6.5841">
        <ele>65.6</ele>
        <time>2025-02-26T14:14:23Z</time>
      </trkpt>
      <trkpt lat="43.48472" lon="6.58411">
        <ele>65.5</ele>
        <time>2025-02-26T14:14:24Z</time>
      </trkpt>
      <trkpt lat="43.48472" lon="6.58412">
        <ele>65.4</ele>
        <time>2025-02-26T14:14:25Z</time>
      </trkpt>
      <trkpt lat="43.48471" lon="6.58414">
        <ele>65.3</ele>
        <time>2025-02-26T14:14:26Z</time>
      </trkpt>
      <trkpt lat="43.48471" lon="6.58416">
        <ele>65.2</ele>
        <time>2025-02-26T14:14:27Z</time>
      </trkpt>
      <trkpt lat="43.48471" lon="6.58417">
        <ele>65.1</ele>
        <time>2025-02-26T14:14:28Z</time>
      </trkpt>
      <trkpt lat="43.4847" lon="6.58418">
        <ele>65.1</ele>
        <time>2025-02-26T14:14:29Z</time>
      </trkpt>
      <trkpt lat="43.48471" lon="6.5842">
        <ele>64.9</ele>
        <time>2025-02-26T14:14:30Z</time>
      </trkpt>
      <trkpt lat="43.48471" lon="6.58421">
        <ele>64.8</ele>
        <time>2025-02-26T14:14:31Z</time>
      </trkpt>
      <trkpt lat="43.48471" lon="6.58423">
        <ele>64.7</ele>
        <time>2025-02-26T14:14:32Z</time>
      </trkpt>
      <trkpt lat="43.48471" lon="6.58423">
        <ele>64.6</ele>
        <time>2025-02-26T14:14:33Z</time>
      </trkpt>
      <trkpt lat="43.48471" lon="6.58423">
        <ele>64.6</ele>
        <time>2025-02-26T14:14:34Z</time>
      </trkpt>
      <trkpt lat="43.48471" lon="6.58423">
        <ele>64.6</ele>
        <time>2025-02-26T14:14:35Z</time>
      </trkpt>
      <trkpt lat="43.48471" lon="6.58423">
        <ele>64.6</ele>
        <time>2025-02-26T14:14:36Z</time>
      </trkpt>
      <trkpt lat="43.48472" lon="6.58423">
        <ele>64.6</ele>
        <time>2025-02-26T14:14:37Z</time>
      </trkpt>
      <trkpt lat="43.48472" lon="6.58423">
        <ele>64.6</ele>
        <time>2025-02-26T14:14:38Z</time>
      </trkpt>
      <trkpt lat="43.48472" lon="6.58423">
        <ele>64.6</ele>
        <time>2025-02-26T14:14:39Z</time>
      </trkpt>
      <trkpt lat="43.48472" lon="6.58423">
        <ele>64.6</ele>
        <time>2025-02-26T14:14:40Z</time>
      </trkpt>
      <trkpt lat="43.48472" lon="6.58424">
        <ele>64.6</ele>
        <time>2025-02-26T14:14:41Z</time>
      </trkpt>
      <trkpt lat="43.48472" lon="6.58423">
        <ele>64.6</ele>
        <time>2025-02-26T14:14:42Z</time>
      </trkpt>
      <trkpt lat="43.48472" lon="6.58423">
        <ele>64.6</ele>
        <time>2025-02-26T14:14:43Z</time>
      </trkpt>
      <trkpt lat="43.48472" lon="6.58423">
        <ele>64.6</ele>
        <time>2025-02-26T14:14:44Z</time>
      </trkpt>
      <trkpt lat="43.48473" lon="6.58422">
        <ele>64.5</ele>
        <time>2025-02-26T14:14:45Z</time>
      </trkpt>
      <trkpt lat="43.48473" lon="6.58422">
        <ele>64.5</ele>
        <time>2025-02-26T14:14:46Z</time>
      </trkpt>
      <trkpt lat="43.48473" lon="6.58422">
        <ele>64.4</ele>
        <time>2025-02-26T14:14:47Z</time>
      </trkpt>
      <trkpt lat="43.48473" lon="6.58422">
        <ele>64.4</ele>
        <time>2025-02-26T14:14:48Z</time>
      </trkpt>
      <trkpt lat="43.48473" lon="6.58422">
        <ele>64.4</ele>
        <time>2025-02-26T14:14:49Z</time>
      </trkpt>
      <trkpt lat="43.48473" lon="6.58422">
        <ele>64.4</ele>
        <time>2025-02-26T14:14:50Z</time>
      </trkpt>
      <trkpt lat="43.48472" lon="6.58422">
        <ele>64.4</ele>
        <time>2025-02-26T14:14:51Z</time>
      </trkpt>
      <trkpt lat="43.48472" lon="6.58422">
        <ele>64.4</ele>
        <time>2025-02-26T14:14:52Z</time>
      </trkpt>
      <trkpt lat="43.48472" lon="6.58421">
        <ele>64.4</ele>
        <time>2025-02-26T14:14:53Z</time>
      </trkpt>
      <trkpt lat="43.48472" lon="6.58421">
        <ele>64.5</ele>
        <time>2025-02-26T14:14:54Z</time>
      </trkpt>
      <trkpt lat="43.48473" lon="6.58421">
        <ele>64.6</ele>
        <time>2025-02-26T14:14:55Z</time>
      </trkpt>
      <trkpt lat="43.48473" lon="6.5842">
        <ele>64.6</ele>
        <time>2025-02-26T14:14:56Z</time>
      </trkpt>
      <trkpt lat="43.48473" lon="6.58419">
        <ele>64.6</ele>
        <time>2025-02-26T14:14:57Z</time>
      </trkpt>
      <trkpt lat="43.48472" lon="6.58419">
        <ele>64.7</ele>
        <time>2025-02-26T14:14:58Z</time>
      </trkpt>
      <trkpt lat="43.48472" lon="6.58418">
        <ele>64.7</ele>
        <time>2025-02-26T14:14:59Z</time>
      </trkpt>
      <trkpt lat="43.48472" lon="6.58418">
        <ele>64.7</ele>
        <time>2025-02-26T14:15:00Z</time>
      </trkpt>
      <trkpt lat="43.48472" lon="6.58418">
        <ele>64.7</ele>
        <time>2025-02-26T14:15:01Z</time>
      </trkpt>
      <trkpt lat="43.48471" lon="6.58419">
        <ele>64.6</ele>
        <time>2025-02-26T14:15:02Z</time>
      </trkpt>
      <trkpt lat="43.48471" lon="6.58419">
        <ele>64.5</ele>
        <time>2025-02-26T14:15:03Z</time>
      </trkpt>
      <trkpt lat="43.48471" lon="6.5842">
        <ele>64.4</ele>
        <time>2025-02-26T14:15:04Z</time>
      </trkpt>
      <trkpt lat="43.48471" lon="6.5842">
        <ele>64.4</ele>
        <time>2025-02-26T14:15:05Z</time>
      </trkpt>
      <trkpt lat="43.48471" lon="6.5842">
        <ele>64.4</ele>
        <time>2025-02-26T14:15:06Z</time>
      </trkpt>
      <trkpt lat="43.48471" lon="6.58421">
        <ele>64.3</ele>
        <time>2025-02-26T14:15:07Z</time>
      </trkpt>
      <trkpt lat="43.4847" lon="6.58421">
        <ele>64.2</ele>
        <time>2025-02-26T14:15:08Z</time>
      </trkpt>
      <trkpt lat="43.4847" lon="6.58421">
        <ele>64.1</ele>
        <time>2025-02-26T14:15:09Z</time>
      </trkpt>
      <trkpt lat="43.4847" lon="6.58422">
        <ele>64.2</ele>
        <time>2025-02-26T14:15:10Z</time>
      </trkpt>
      <trkpt lat="43.4847" lon="6.58423">
        <ele>64.2</ele>
        <time>2025-02-26T14:15:11Z</time>
      </trkpt>
      <trkpt lat="43.4847" lon="6.58423">
        <ele>64.2</ele>
        <time>2025-02-26T14:15:12Z</time>
      </trkpt>
      <trkpt lat="43.4847" lon="6.58423">
        <ele>64.3</ele>
        <time>2025-02-26T14:15:13Z</time>
      </trkpt>
      <trkpt lat="43.4847" lon="6.58423">
        <ele>64.3</ele>
        <time>2025-02-26T14:15:14Z</time>
      </trkpt>
      <trkpt lat="43.4847" lon="6.58423">
        <ele>64.3</ele>
        <time>2025-02-26T14:15:15Z</time>
      </trkpt>
      <trkpt lat="43.4847" lon="6.58424">
        <ele>64.3</ele>
        <time>2025-02-26T14:15:16Z</time>
      </trkpt>
      <trkpt lat="43.4847" lon="6.58424">
        <ele>64.3</ele>
        <time>2025-02-26T14:15:17Z</time>
      </trkpt>
      <trkpt lat="43.4847" lon="6.58424">
        <ele>64.3</ele>
        <time>2025-02-26T14:15:18Z</time>
      </trkpt>
      <trkpt lat="43.4847" lon="6.58424">
        <ele>64.3</ele>
        <time>2025-02-26T14:15:19Z</time>
      </trkpt>
      <trkpt lat="43.4847" lon="6.58424">
        <ele>64.4</ele>
        <time>2025-02-26T14:15:20Z</time>
      </trkpt>
      <trkpt lat="43.4847" lon="6.58424">
        <ele>64.4</ele>
        <time>2025-02-26T14:15:21Z</time>
      </trkpt>
      <trkpt lat="43.4847" lon="6.58423">
        <ele>64.5</ele>
        <time>2025-02-26T14:15:22Z</time>
      </trkpt>
      <trkpt lat="43.4847" lon="6.58423">
        <ele>64.5</ele>
        <time>2025-02-26T14:15:23Z</time>
      </trkpt>
      <trkpt lat="43.4847" lon="6.58424">
        <ele>64.5</ele>
        <time>2025-02-26T14:15:24Z</time>
      </trkpt>
      <trkpt lat="43.4847" lon="6.58424">
        <ele>64.4</ele>
        <time>2025-02-26T14:15:25Z</time>
      </trkpt>
      <trkpt lat="43.4847" lon="6.58424">
        <ele>64.4</ele>
        <time>2025-02-26T14:15:26Z</time>
      </trkpt>
      <trkpt lat="43.4847" lon="6.58424">
        <ele>64.6</ele>
        <time>2025-02-26T14:15:27Z</time>
      </trkpt>
      <trkpt lat="43.4847" lon="6.58424">
        <ele>64.7</ele>
        <time>2025-02-26T14:15:28Z</time>
      </trkpt>
      <trkpt lat="43.4847" lon="6.58424">
        <ele>64.7</ele>
        <time>2025-02-26T14:15:29Z</time>
      </trkpt>
      <trkpt lat="43.4847" lon="6.58425">
        <ele>64.7</ele>
        <time>2025-02-26T14:15:30Z</time>
      </trkpt>
      <trkpt lat="43.4847" lon="6.58425">
        <ele>64.7</ele>
        <time>2025-02-26T14:15:31Z</time>
      </trkpt>
      <trkpt lat="43.4847" lon="6.58425">
        <ele>64.7</ele>
        <time>2025-02-26T14:15:32Z</time>
      </trkpt>
      <trkpt lat="43.4847" lon="6.58425">
        <ele>64.7</ele>
        <time>2025-02-26T14:15:33Z</time>
      </trkpt>
      <trkpt lat="43.4847" lon="6.58425">
        <ele>64.7</ele>
        <time>2025-02-26T14:15:34Z</time>
      </trkpt>
      <trkpt lat="43.4847" lon="6.58425">
        <ele>64.6</ele>
        <time>2025-02-26T14:15:35Z</time>
      </trkpt>
      <trkpt lat="43.48469" lon="6.58426">
        <ele>64.6</ele>
        <time>2025-02-26T14:15:36Z</time>
      </trkpt>
      <trkpt lat="43.48469" lon="6.58426">
        <ele>64.6</ele>
        <time>2025-02-26T14:15:37Z</time>
      </trkpt>
      <trkpt lat="43.48469" lon="6.58426">
        <ele>64.6</ele>
        <time>2025-02-26T14:15:38Z</time>
      </trkpt>
      <trkpt lat="43.48469" lon="6.58426">
        <ele>64.7</ele>
        <time>2025-02-26T14:15:39Z</time>
      </trkpt>
      <trkpt lat="43.48469" lon="6.58426">
        <ele>64.7</ele>
        <time>2025-02-26T14:15:40Z</time>
      </trkpt>
      <trkpt lat="43.48469" lon="6.58426">
        <ele>64.7</ele>
        <time>2025-02-26T14:15:41Z</time>
      </trkpt>
      <trkpt lat="43.48469" lon="6.58426">
        <ele>64.7</ele>
        <time>2025-02-26T14:15:42Z</time>
      </trkpt>
      <trkpt lat="43.48469" lon="6.58426">
        <ele>64.7</ele>
        <time>2025-02-26T14:15:43Z</time>
      </trkpt>
      <trkpt lat="43.48469" lon="6.58426">
        <ele>64.7</ele>
        <time>2025-02-26T14:15:44Z</time>
      </trkpt>
      <trkpt lat="43.48469" lon="6.58427">
        <ele>64.7</ele>
        <time>2025-02-26T14:15:45Z</time>
      </trkpt>
      <trkpt lat="43.48469" lon="6.58427">
        <ele>64.6</ele>
        <time>2025-02-26T14:15:46Z</time>
      </trkpt>
      <trkpt lat="43.48469" lon="6.58427">
        <ele>64.6</ele>
        <time>2025-02-26T14:15:47Z</time>
      </trkpt>
      <trkpt lat="43.48469" lon="6.58427">
        <ele>64.6</ele>
        <time>2025-02-26T14:15:48Z</time>
      </trkpt>
      <trkpt lat="43.48469" lon="6.58427">
        <ele>64.6</ele>
        <time>2025-02-26T14:15:49Z</time>
      </trkpt>
      <trkpt lat="43.48469" lon="6.58427">
        <ele>64.6</ele>
        <time>2025-02-26T14:15:50Z</time>
      </trkpt>
      <trkpt lat="43.48469" lon="6.58427">
        <ele>64.5</ele>
        <time>2025-02-26T14:15:51Z</time>
      </trkpt>
      <trkpt lat="43.48469" lon="6.58427">
        <ele>64.5</ele>
        <time>2025-02-26T14:15:52Z</time>
      </trkpt>
      <trkpt lat="43.48469" lon="6.58427">
        <ele>64.5</ele>
        <time>2025-02-26T14:15:53Z</time>
      </trkpt>
      <trkpt lat="43.48469" lon="6.58427">
        <ele>64.6</ele>
        <time>2025-02-26T14:15:54Z</time>
      </trkpt>
      <trkpt lat="43.48469" lon="6.58427">
        <ele>64.6</ele>
        <time>2025-02-26T14:15:55Z</time>
      </trkpt>
      <trkpt lat="43.48469" lon="6.58427">
        <ele>64.6</ele>
        <time>2025-02-26T14:15:56Z</time>
      </trkpt>
      <trkpt lat="43.48469" lon="6.58427">
        <ele>64.7</ele>
        <time>2025-02-26T14:15:57Z</time>
      </trkpt>
      <trkpt lat="43.48469" lon="6.58427">
        <ele>64.7</ele>
        <time>2025-02-26T14:15:58Z</time>
      </trkpt>
      <trkpt lat="43.48469" lon="6.58427">
        <ele>64.6</ele>
        <time>2025-02-26T14:15:59Z</time>
      </trkpt>
      <trkpt lat="43.48469" lon="6.58427">
        <ele>64.5</ele>
        <time>2025-02-26T14:16:00Z</time>
      </trkpt>
      <trkpt lat="43.48469" lon="6.58427">
        <ele>64.5</ele>
        <time>2025-02-26T14:16:01Z</time>
      </trkpt>
      <trkpt lat="43.48469" lon="6.58427">
        <ele>64.5</ele>
        <time>2025-02-26T14:16:02Z</time>
      </trkpt>
      <trkpt lat="43.48469" lon="6.58427">
        <ele>64.5</ele>
        <time>2025-02-26T14:16:03Z</time>
      </trkpt>
      <trkpt lat="43.48469" lon="6.58427">
        <ele>64.5</ele>
        <time>2025-02-26T14:16:04Z</time>
      </trkpt>
      <trkpt lat="43.48469" lon="6.58427">
        <ele>64.6</ele>
        <time>2025-02-26T14:16:05Z</time>
      </trkpt>
      <trkpt lat="43.48469" lon="6.58427">
        <ele>64.6</ele>
        <time>2025-02-26T14:16:06Z</time>
      </trkpt>
      <trkpt lat="43.48469" lon="6.58427">
        <ele>64.5</ele>
        <time>2025-02-26T14:16:07Z</time>
      </trkpt>
      <trkpt lat="43.48469" lon="6.58427">
        <ele>64.4</ele>
        <time>2025-02-26T14:16:08Z</time>
      </trkpt>
      <trkpt lat="43.4847" lon="6.58427">
        <ele>64.3</ele>
        <time>2025-02-26T14:16:09Z</time>
      </trkpt>
      <trkpt lat="43.4847" lon="6.58427">
        <ele>64.3</ele>
        <time>2025-02-26T14:16:10Z</time>
      </trkpt>
      <trkpt lat="43.4847" lon="6.58427">
        <ele>64.2</ele>
        <time>2025-02-26T14:16:11Z</time>
      </trkpt>
      <trkpt lat="43.4847" lon="6.58427">
        <ele>64.2</ele>
        <time>2025-02-26T14:16:12Z</time>
      </trkpt>
      <trkpt lat="43.4847" lon="6.58427">
        <ele>64.2</ele>
        <time>2025-02-26T14:16:13Z</time>
      </trkpt>
      <trkpt lat="43.48469" lon="6.58427">
        <ele>64.1</ele>
        <time>2025-02-26T14:16:14Z</time>
      </trkpt>
      <trkpt lat="43.48469" lon="6.58427">
        <ele>64.2</ele>
        <time>2025-02-26T14:16:15Z</time>
      </trkpt>
      <trkpt lat="43.48469" lon="6.58427">
        <ele>64.2</ele>
        <time>2025-02-26T14:16:16Z</time>
      </trkpt>
      <trkpt lat="43.48469" lon="6.58427">
        <ele>64.1</ele>
        <time>2025-02-26T14:16:17Z</time>
      </trkpt>
      <trkpt lat="43.48469" lon="6.58427">
        <ele>64.1</ele>
        <time>2025-02-26T14:16:18Z</time>
      </trkpt>
      <trkpt lat="43.48469" lon="6.58427">
        <ele>64.1</ele>
        <time>2025-02-26T14:16:19Z</time>
      </trkpt>
      <trkpt lat="43.48469" lon="6.58427">
        <ele>64.1</ele>
        <time>2025-02-26T14:16:20Z</time>
      </trkpt>
      <trkpt lat="43.48469" lon="6.58427">
        <ele>64.2</ele>
        <time>2025-02-26T14:16:21Z</time>
      </trkpt>
      <trkpt lat="43.48468" lon="6.58426">
        <ele>64.4</ele>
        <time>2025-02-26T14:16:22Z</time>
      </trkpt>
      <trkpt lat="43.48468" lon="6.58426">
        <ele>64.5</ele>
        <time>2025-02-26T14:16:23Z</time>
      </trkpt>
      <trkpt lat="43.48467" lon="6.58425">
        <ele>64.5</ele>
        <time>2025-02-26T14:16:24Z</time>
      </trkpt>
      <trkpt lat="43.48466" lon="6.58425">
        <ele>64.5</ele>
        <time>2025-02-26T14:16:25Z</time>
      </trkpt>
      <trkpt lat="43.48466" lon="6.58425">
        <ele>64.5</ele>
        <time>2025-02-26T14:16:26Z</time>
      </trkpt>
      <trkpt lat="43.48466" lon="6.58424">
        <ele>64.5</ele>
        <time>2025-02-26T14:16:27Z</time>
      </trkpt>
      <trkpt lat="43.48465" lon="6.58425">
        <ele>64.4</ele>
        <time>2025-02-26T14:16:28Z</time>
      </trkpt>
      <trkpt lat="43.48464" lon="6.58425">
        <ele>64.3</ele>
        <time>2025-02-26T14:16:29Z</time>
      </trkpt>
      <trkpt lat="43.48463" lon="6.58424">
        <ele>64.3</ele>
        <time>2025-02-26T14:16:30Z</time>
      </trkpt>
      <trkpt lat="43.48462" lon="6.58423">
        <ele>64.1</ele>
        <time>2025-02-26T14:16:31Z</time>
      </trkpt>
      <trkpt lat="43.48462" lon="6.58422">
        <ele>64.1</ele>
        <time>2025-02-26T14:16:32Z</time>
      </trkpt>
      <trkpt lat="43.48461" lon="6.58421">
        <ele>64.1</ele>
        <time>2025-02-26T14:16:33Z</time>
      </trkpt>
      <trkpt lat="43.48461" lon="6.5842">
        <ele>64.1</ele>
        <time>2025-02-26T14:16:34Z</time>
      </trkpt>
      <trkpt lat="43.4846" lon="6.58418">
        <ele>64.1</ele>
        <time>2025-02-26T14:16:35Z</time>
      </trkpt>
      <trkpt lat="43.4846" lon="6.58417">
        <ele>64</ele>
        <time>2025-02-26T14:16:36Z</time>
      </trkpt>
      <trkpt lat="43.48459" lon="6.58417">
        <ele>63.9</ele>
        <time>2025-02-26T14:16:37Z</time>
      </trkpt>
      <trkpt lat="43.48457" lon="6.58416">
        <ele>63.9</ele>
        <time>2025-02-26T14:16:38Z</time>
      </trkpt>
      <trkpt lat="43.48456" lon="6.58415">
        <ele>63.7</ele>
        <time>2025-02-26T14:16:39Z</time>
      </trkpt>
      <trkpt lat="43.48456" lon="6.58415">
        <ele>63.8</ele>
        <time>2025-02-26T14:16:40Z</time>
      </trkpt>
      <trkpt lat="43.48455" lon="6.58414">
        <ele>63.7</ele>
        <time>2025-02-26T14:16:41Z</time>
      </trkpt>
      <trkpt lat="43.48455" lon="6.58414">
        <ele>63.6</ele>
        <time>2025-02-26T14:16:42Z</time>
      </trkpt>
      <trkpt lat="43.48455" lon="6.58414">
        <ele>63.5</ele>
        <time>2025-02-26T14:16:43Z</time>
      </trkpt>
      <trkpt lat="43.48454" lon="6.58414">
        <ele>63.4</ele>
        <time>2025-02-26T14:16:44Z</time>
      </trkpt>
      <trkpt lat="43.48453" lon="6.58413">
        <ele>63.4</ele>
        <time>2025-02-26T14:16:45Z</time>
      </trkpt>
      <trkpt lat="43.48452" lon="6.58412">
        <ele>63.2</ele>
        <time>2025-02-26T14:16:46Z</time>
      </trkpt>
      <trkpt lat="43.48451" lon="6.58411">
        <ele>63.1</ele>
        <time>2025-02-26T14:16:47Z</time>
      </trkpt>
      <trkpt lat="43.48451" lon="6.5841">
        <ele>63.2</ele>
        <time>2025-02-26T14:16:48Z</time>
      </trkpt>
      <trkpt lat="43.4845" lon="6.58409">
        <ele>63.2</ele>
        <time>2025-02-26T14:16:49Z</time>
      </trkpt>
      <trkpt lat="43.48448" lon="6.58409">
        <ele>63.1</ele>
        <time>2025-02-26T14:16:50Z</time>
      </trkpt>
      <trkpt lat="43.48447" lon="6.5841">
        <ele>62.9</ele>
        <time>2025-02-26T14:16:51Z</time>
      </trkpt>
      <trkpt lat="43.48446" lon="6.58411">
        <ele>62.9</ele>
        <time>2025-02-26T14:16:52Z</time>
      </trkpt>
      <trkpt lat="43.48446" lon="6.58412">
        <ele>62.8</ele>
        <time>2025-02-26T14:16:53Z</time>
      </trkpt>
      <trkpt lat="43.48445" lon="6.58413">
        <ele>62.6</ele>
        <time>2025-02-26T14:16:54Z</time>
      </trkpt>
      <trkpt lat="43.48445" lon="6.58415">
        <ele>62.4</ele>
        <time>2025-02-26T14:16:55Z</time>
      </trkpt>
      <trkpt lat="43.48445" lon="6.58416">
        <ele>62.3</ele>
        <time>2025-02-26T14:16:56Z</time>
      </trkpt>
      <trkpt lat="43.48446" lon="6.58418">
        <ele>62.3</ele>
        <time>2025-02-26T14:16:57Z</time>
      </trkpt>
      <trkpt lat="43.48447" lon="6.58419">
        <ele>62.2</ele>
        <time>2025-02-26T14:16:58Z</time>
      </trkpt>
      <trkpt lat="43.48447" lon="6.5842">
        <ele>62.2</ele>
        <time>2025-02-26T14:16:59Z</time>
      </trkpt>
      <trkpt lat="43.48448" lon="6.58422">
        <ele>62.2</ele>
        <time>2025-02-26T14:17:00Z</time>
      </trkpt>
      <trkpt lat="43.48448" lon="6.58423">
        <ele>62.1</ele>
        <time>2025-02-26T14:17:01Z</time>
      </trkpt>
      <trkpt lat="43.48447" lon="6.58425">
        <ele>62</ele>
        <time>2025-02-26T14:17:02Z</time>
      </trkpt>
      <trkpt lat="43.48447" lon="6.58426">
        <ele>61.8</ele>
        <time>2025-02-26T14:17:03Z</time>
      </trkpt>
      <trkpt lat="43.48447" lon="6.58427">
        <ele>61.8</ele>
        <time>2025-02-26T14:17:04Z</time>
      </trkpt>
      <trkpt lat="43.48446" lon="6.58429">
        <ele>61.8</ele>
        <time>2025-02-26T14:17:05Z</time>
      </trkpt>
      <trkpt lat="43.48445" lon="6.5843">
        <ele>61.8</ele>
        <time>2025-02-26T14:17:06Z</time>
      </trkpt>
      <trkpt lat="43.48445" lon="6.58431">
        <ele>61.8</ele>
        <time>2025-02-26T14:17:07Z</time>
      </trkpt>
      <trkpt lat="43.48444" lon="6.58432">
        <ele>61.7</ele>
        <time>2025-02-26T14:17:08Z</time>
      </trkpt>
      <trkpt lat="43.48444" lon="6.58434">
        <ele>61.5</ele>
        <time>2025-02-26T14:17:09Z</time>
      </trkpt>
      <trkpt lat="43.48443" lon="6.58435">
        <ele>61.3</ele>
        <time>2025-02-26T14:17:10Z</time>
      </trkpt>
      <trkpt lat="43.48442" lon="6.58437">
        <ele>61</ele>
        <time>2025-02-26T14:17:11Z</time>
      </trkpt>
      <trkpt lat="43.48442" lon="6.58439">
        <ele>60.8</ele>
        <time>2025-02-26T14:17:12Z</time>
      </trkpt>
      <trkpt lat="43.48441" lon="6.5844">
        <ele>60.7</ele>
        <time>2025-02-26T14:17:13Z</time>
      </trkpt>
      <trkpt lat="43.48441" lon="6.58442">
        <ele>60.5</ele>
        <time>2025-02-26T14:17:14Z</time>
      </trkpt>
      <trkpt lat="43.4844" lon="6.58444">
        <ele>60.4</ele>
        <time>2025-02-26T14:17:15Z</time>
      </trkpt>
      <trkpt lat="43.4844" lon="6.58446">
        <ele>60</ele>
        <time>2025-02-26T14:17:16Z</time>
      </trkpt>
      <trkpt lat="43.48439" lon="6.58447">
        <ele>60.3</ele>
        <time>2025-02-26T14:17:17Z</time>
      </trkpt>
      <trkpt lat="43.48439" lon="6.58449">
        <ele>60.4</ele>
        <time>2025-02-26T14:17:18Z</time>
      </trkpt>
      <trkpt lat="43.48439" lon="6.5845">
        <ele>60.5</ele>
        <time>2025-02-26T14:17:19Z</time>
      </trkpt>
      <trkpt lat="43.48439" lon="6.58452">
        <ele>60.5</ele>
        <time>2025-02-26T14:17:20Z</time>
      </trkpt>
      <trkpt lat="43.48439" lon="6.58453">
        <ele>60.5</ele>
        <time>2025-02-26T14:17:21Z</time>
      </trkpt>
      <trkpt lat="43.48438" lon="6.58455">
        <ele>60.7</ele>
        <time>2025-02-26T14:17:22Z</time>
      </trkpt>
      <trkpt lat="43.48438" lon="6.58457">
        <ele>60.7</ele>
        <time>2025-02-26T14:17:23Z</time>
      </trkpt>
      <trkpt lat="43.48438" lon="6.58458">
        <ele>60.8</ele>
        <time>2025-02-26T14:17:24Z</time>
      </trkpt>
      <trkpt lat="43.48438" lon="6.58459">
        <ele>60.7</ele>
        <time>2025-02-26T14:17:25Z</time>
      </trkpt>
      <trkpt lat="43.48438" lon="6.58461">
        <ele>60.8</ele>
        <time>2025-02-26T14:17:26Z</time>
      </trkpt>
      <trkpt lat="43.48438" lon="6.58463">
        <ele>60.8</ele>
        <time>2025-02-26T14:17:27Z</time>
      </trkpt>
      <trkpt lat="43.48438" lon="6.58464">
        <ele>60.9</ele>
        <time>2025-02-26T14:17:28Z</time>
      </trkpt>
      <trkpt lat="43.48438" lon="6.58465">
        <ele>60.9</ele>
        <time>2025-02-26T14:17:29Z</time>
      </trkpt>
      <trkpt lat="43.48439" lon="6.58467">
        <ele>61</ele>
        <time>2025-02-26T14:17:30Z</time>
      </trkpt>
      <trkpt lat="43.48438" lon="6.58468">
        <ele>61</ele>
        <time>2025-02-26T14:17:31Z</time>
      </trkpt>
      <trkpt lat="43.48438" lon="6.58469">
        <ele>61</ele>
        <time>2025-02-26T14:17:32Z</time>
      </trkpt>
      <trkpt lat="43.48437" lon="6.58471">
        <ele>61</ele>
        <time>2025-02-26T14:17:33Z</time>
      </trkpt>
      <trkpt lat="43.48437" lon="6.58473">
        <ele>61</ele>
        <time>2025-02-26T14:17:34Z</time>
      </trkpt>
      <trkpt lat="43.48438" lon="6.58475">
        <ele>60.9</ele>
        <time>2025-02-26T14:17:35Z</time>
      </trkpt>
      <trkpt lat="43.48438" lon="6.58476">
        <ele>61</ele>
        <time>2025-02-26T14:17:36Z</time>
      </trkpt>
      <trkpt lat="43.48438" lon="6.58477">
        <ele>61.1</ele>
        <time>2025-02-26T14:17:37Z</time>
      </trkpt>
      <trkpt lat="43.48439" lon="6.58478">
        <ele>61.1</ele>
        <time>2025-02-26T14:17:38Z</time>
      </trkpt>
      <trkpt lat="43.4844" lon="6.5848">
        <ele>60.8</ele>
        <time>2025-02-26T14:17:39Z</time>
      </trkpt>
      <trkpt lat="43.48441" lon="6.58481">
        <ele>60.8</ele>
        <time>2025-02-26T14:17:40Z</time>
      </trkpt>
      <trkpt lat="43.48442" lon="6.58481">
        <ele>60.7</ele>
        <time>2025-02-26T14:17:41Z</time>
      </trkpt>
      <trkpt lat="43.48443" lon="6.58482">
        <ele>60.8</ele>
        <time>2025-02-26T14:17:42Z</time>
      </trkpt>
      <trkpt lat="43.48443" lon="6.58483">
        <ele>60.9</ele>
        <time>2025-02-26T14:17:43Z</time>
      </trkpt>
      <trkpt lat="43.48444" lon="6.58485">
        <ele>61</ele>
        <time>2025-02-26T14:17:44Z</time>
      </trkpt>
      <trkpt lat="43.48445" lon="6.58486">
        <ele>61.1</ele>
        <time>2025-02-26T14:17:45Z</time>
      </trkpt>
      <trkpt lat="43.48445" lon="6.58487">
        <ele>61.2</ele>
        <time>2025-02-26T14:17:46Z</time>
      </trkpt>
      <trkpt lat="43.48446" lon="6.58488">
        <ele>61.2</ele>
        <time>2025-02-26T14:17:47Z</time>
      </trkpt>
      <trkpt lat="43.48447" lon="6.58489">
        <ele>61.2</ele>
        <time>2025-02-26T14:17:48Z</time>
      </trkpt>
      <trkpt lat="43.48448" lon="6.5849">
        <ele>61.2</ele>
        <time>2025-02-26T14:17:49Z</time>
      </trkpt>
      <trkpt lat="43.48449" lon="6.58491">
        <ele>61.1</ele>
        <time>2025-02-26T14:17:50Z</time>
      </trkpt>
      <trkpt lat="43.4845" lon="6.58492">
        <ele>61.2</ele>
        <time>2025-02-26T14:17:51Z</time>
      </trkpt>
      <trkpt lat="43.4845" lon="6.58493">
        <ele>61</ele>
        <time>2025-02-26T14:17:52Z</time>
      </trkpt>
      <trkpt lat="43.48451" lon="6.58495">
        <ele>60.9</ele>
        <time>2025-02-26T14:17:53Z</time>
      </trkpt>
      <trkpt lat="43.48452" lon="6.58496">
        <ele>60.8</ele>
        <time>2025-02-26T14:17:54Z</time>
      </trkpt>
      <trkpt lat="43.48453" lon="6.58497">
        <ele>60.7</ele>
        <time>2025-02-26T14:17:55Z</time>
      </trkpt>
      <trkpt lat="43.48454" lon="6.58497">
        <ele>60.7</ele>
        <time>2025-02-26T14:17:56Z</time>
      </trkpt>
      <trkpt lat="43.48456" lon="6.58497">
        <ele>60.6</ele>
        <time>2025-02-26T14:17:57Z</time>
      </trkpt>
      <trkpt lat="43.48457" lon="6.58497">
        <ele>60.6</ele>
        <time>2025-02-26T14:17:58Z</time>
      </trkpt>
      <trkpt lat="43.48458" lon="6.58497">
        <ele>60.6</ele>
        <time>2025-02-26T14:17:59Z</time>
      </trkpt>
      <trkpt lat="43.48459" lon="6.58497">
        <ele>60.6</ele>
        <time>2025-02-26T14:18:00Z</time>
      </trkpt>
      <trkpt lat="43.4846" lon="6.58497">
        <ele>60.5</ele>
        <time>2025-02-26T14:18:01Z</time>
      </trkpt>
      <trkpt lat="43.48461" lon="6.58497">
        <ele>60.4</ele>
        <time>2025-02-26T14:18:02Z</time>
      </trkpt>
      <trkpt lat="43.48463" lon="6.58497">
        <ele>60.4</ele>
        <time>2025-02-26T14:18:03Z</time>
      </trkpt>
      <trkpt lat="43.48464" lon="6.58497">
        <ele>60.4</ele>
        <time>2025-02-26T14:18:04Z</time>
      </trkpt>
      <trkpt lat="43.48465" lon="6.58497">
        <ele>60.4</ele>
        <time>2025-02-26T14:18:05Z</time>
      </trkpt>
      <trkpt lat="43.48466" lon="6.58498">
        <ele>60.3</ele>
        <time>2025-02-26T14:18:06Z</time>
      </trkpt>
      <trkpt lat="43.48467" lon="6.58498">
        <ele>60.3</ele>
        <time>2025-02-26T14:18:07Z</time>
      </trkpt>
      <trkpt lat="43.48469" lon="6.58498">
        <ele>60.1</ele>
        <time>2025-02-26T14:18:08Z</time>
      </trkpt>
      <trkpt lat="43.4847" lon="6.58498">
        <ele>60</ele>
        <time>2025-02-26T14:18:09Z</time>
      </trkpt>
      <trkpt lat="43.48471" lon="6.58499">
        <ele>60</ele>
        <time>2025-02-26T14:18:10Z</time>
      </trkpt>
      <trkpt lat="43.48472" lon="6.585">
        <ele>59.9</ele>
        <time>2025-02-26T14:18:11Z</time>
      </trkpt>
      <trkpt lat="43.48473" lon="6.58501">
        <ele>59.8</ele>
        <time>2025-02-26T14:18:12Z</time>
      </trkpt>
      <trkpt lat="43.48474" lon="6.58503">
        <ele>59.8</ele>
        <time>2025-02-26T14:18:13Z</time>
      </trkpt>
      <trkpt lat="43.48475" lon="6.58504">
        <ele>59.8</ele>
        <time>2025-02-26T14:18:14Z</time>
      </trkpt>
      <trkpt lat="43.48475" lon="6.58506">
        <ele>59.8</ele>
        <time>2025-02-26T14:18:15Z</time>
      </trkpt>
      <trkpt lat="43.48476" lon="6.58507">
        <ele>59.8</ele>
        <time>2025-02-26T14:18:16Z</time>
      </trkpt>
      <trkpt lat="43.48477" lon="6.58508">
        <ele>60</ele>
        <time>2025-02-26T14:18:17Z</time>
      </trkpt>
      <trkpt lat="43.48478" lon="6.58509">
        <ele>60.1</ele>
        <time>2025-02-26T14:18:18Z</time>
      </trkpt>
      <trkpt lat="43.48479" lon="6.5851">
        <ele>60.4</ele>
        <time>2025-02-26T14:18:19Z</time>
      </trkpt>
      <trkpt lat="43.4848" lon="6.58511">
        <ele>60.6</ele>
        <time>2025-02-26T14:18:20Z</time>
      </trkpt>
      <trkpt lat="43.4848" lon="6.58512">
        <ele>60.8</ele>
        <time>2025-02-26T14:18:21Z</time>
      </trkpt>
      <trkpt lat="43.48481" lon="6.58514">
        <ele>61.1</ele>
        <time>2025-02-26T14:18:22Z</time>
      </trkpt>
      <trkpt lat="43.48482" lon="6.58515">
        <ele>61.2</ele>
        <time>2025-02-26T14:18:23Z</time>
      </trkpt>
      <trkpt lat="43.48482" lon="6.58517">
        <ele>61.5</ele>
        <time>2025-02-26T14:18:24Z</time>
      </trkpt>
      <trkpt lat="43.48483" lon="6.58518">
        <ele>61.7</ele>
        <time>2025-02-26T14:18:25Z</time>
      </trkpt>
      <trkpt lat="43.48484" lon="6.58519">
        <ele>61.9</ele>
        <time>2025-02-26T14:18:26Z</time>
      </trkpt>
      <trkpt lat="43.48484" lon="6.58521">
        <ele>62</ele>
        <time>2025-02-26T14:18:27Z</time>
      </trkpt>
      <trkpt lat="43.48485" lon="6.58522">
        <ele>62.1</ele>
        <time>2025-02-26T14:18:28Z</time>
      </trkpt>
      <trkpt lat="43.48485" lon="6.58524">
        <ele>62.1</ele>
        <time>2025-02-26T14:18:29Z</time>
      </trkpt>
      <trkpt lat="43.48485" lon="6.58525">
        <ele>62</ele>
        <time>2025-02-26T14:18:30Z</time>
      </trkpt>
      <trkpt lat="43.48486" lon="6.58527">
        <ele>62</ele>
        <time>2025-02-26T14:18:31Z</time>
      </trkpt>
      <trkpt lat="43.48486" lon="6.58529">
        <ele>61.6</ele>
        <time>2025-02-26T14:18:32Z</time>
      </trkpt>
      <trkpt lat="43.48486" lon="6.5853">
        <ele>61.3</ele>
        <time>2025-02-26T14:18:33Z</time>
      </trkpt>
      <trkpt lat="43.48486" lon="6.58532">
        <ele>61</ele>
        <time>2025-02-26T14:18:34Z</time>
      </trkpt>
      <trkpt lat="43.48486" lon="6.58533">
        <ele>60.8</ele>
        <time>2025-02-26T14:18:35Z</time>
      </trkpt>
      <trkpt lat="43.48486" lon="6.58535">
        <ele>60.7</ele>
        <time>2025-02-26T14:18:36Z</time>
      </trkpt>
      <trkpt lat="43.48485" lon="6.58536">
        <ele>60.4</ele>
        <time>2025-02-26T14:18:37Z</time>
      </trkpt>
      <trkpt lat="43.48485" lon="6.58537">
        <ele>60.3</ele>
        <time>2025-02-26T14:18:38Z</time>
      </trkpt>
      <trkpt lat="43.48485" lon="6.58539">
        <ele>60</ele>
        <time>2025-02-26T14:18:39Z</time>
      </trkpt>
      <trkpt lat="43.48485" lon="6.5854">
        <ele>59.8</ele>
        <time>2025-02-26T14:18:40Z</time>
      </trkpt>
      <trkpt lat="43.48485" lon="6.58542">
        <ele>59.6</ele>
        <time>2025-02-26T14:18:41Z</time>
      </trkpt>
      <trkpt lat="43.48485" lon="6.58543">
        <ele>59.5</ele>
        <time>2025-02-26T14:18:42Z</time>
      </trkpt>
      <trkpt lat="43.48484" lon="6.58545">
        <ele>59.4</ele>
        <time>2025-02-26T14:18:43Z</time>
      </trkpt>
      <trkpt lat="43.48484" lon="6.58546">
        <ele>59.1</ele>
        <time>2025-02-26T14:18:44Z</time>
      </trkpt>
      <trkpt lat="43.48484" lon="6.58548">
        <ele>58.9</ele>
        <time>2025-02-26T14:18:45Z</time>
      </trkpt>
      <trkpt lat="43.48484" lon="6.5855">
        <ele>58.8</ele>
        <time>2025-02-26T14:18:46Z</time>
      </trkpt>
      <trkpt lat="43.48484" lon="6.58552">
        <ele>58.7</ele>
        <time>2025-02-26T14:18:47Z</time>
      </trkpt>
      <trkpt lat="43.48484" lon="6.58553">
        <ele>58.7</ele>
        <time>2025-02-26T14:18:48Z</time>
      </trkpt>
      <trkpt lat="43.48484" lon="6.58555">
        <ele>58.6</ele>
        <time>2025-02-26T14:18:49Z</time>
      </trkpt>
      <trkpt lat="43.48485" lon="6.58556">
        <ele>58.6</ele>
        <time>2025-02-26T14:18:50Z</time>
      </trkpt>
      <trkpt lat="43.48486" lon="6.58557">
        <ele>58.6</ele>
        <time>2025-02-26T14:18:51Z</time>
      </trkpt>
      <trkpt lat="43.48486" lon="6.58557">
        <ele>58.6</ele>
        <time>2025-02-26T14:18:52Z</time>
      </trkpt>
      <trkpt lat="43.48486" lon="6.58558">
        <ele>58.6</ele>
        <time>2025-02-26T14:18:53Z</time>
      </trkpt>
      <trkpt lat="43.48487" lon="6.58558">
        <ele>58.8</ele>
        <time>2025-02-26T14:18:54Z</time>
      </trkpt>
      <trkpt lat="43.48487" lon="6.58558">
        <ele>58.8</ele>
        <time>2025-02-26T14:18:55Z</time>
      </trkpt>
      <trkpt lat="43.48488" lon="6.58559">
        <ele>58.9</ele>
        <time>2025-02-26T14:18:56Z</time>
      </trkpt>
      <trkpt lat="43.48489" lon="6.58559">
        <ele>58.8</ele>
        <time>2025-02-26T14:18:57Z</time>
      </trkpt>
      <trkpt lat="43.4849" lon="6.58559">
        <ele>58.9</ele>
        <time>2025-02-26T14:18:58Z</time>
      </trkpt>
      <trkpt lat="43.48491" lon="6.58559">
        <ele>59</ele>
        <time>2025-02-26T14:18:59Z</time>
      </trkpt>
      <trkpt lat="43.48492" lon="6.58559">
        <ele>59</ele>
        <time>2025-02-26T14:19:00Z</time>
      </trkpt>
      <trkpt lat="43.48493" lon="6.58559">
        <ele>59</ele>
        <time>2025-02-26T14:19:01Z</time>
      </trkpt>
      <trkpt lat="43.48494" lon="6.58559">
        <ele>59</ele>
        <time>2025-02-26T14:19:02Z</time>
      </trkpt>
      <trkpt lat="43.48495" lon="6.5856">
        <ele>59.1</ele>
        <time>2025-02-26T14:19:03Z</time>
      </trkpt>
      <trkpt lat="43.48496" lon="6.5856">
        <ele>59.1</ele>
        <time>2025-02-26T14:19:04Z</time>
      </trkpt>
      <trkpt lat="43.48497" lon="6.5856">
        <ele>59.1</ele>
        <time>2025-02-26T14:19:05Z</time>
      </trkpt>
      <trkpt lat="43.48498" lon="6.5856">
        <ele>59.1</ele>
        <time>2025-02-26T14:19:06Z</time>
      </trkpt>
      <trkpt lat="43.485" lon="6.5856">
        <ele>59.1</ele>
        <time>2025-02-26T14:19:07Z</time>
      </trkpt>
      <trkpt lat="43.48501" lon="6.5856">
        <ele>59</ele>
        <time>2025-02-26T14:19:08Z</time>
      </trkpt>
      <trkpt lat="43.48502" lon="6.58559">
        <ele>58.9</ele>
        <time>2025-02-26T14:19:09Z</time>
      </trkpt>
      <trkpt lat="43.48503" lon="6.58559">
        <ele>59</ele>
        <time>2025-02-26T14:19:10Z</time>
      </trkpt>
      <trkpt lat="43.48504" lon="6.58559">
        <ele>59</ele>
        <time>2025-02-26T14:19:11Z</time>
      </trkpt>
      <trkpt lat="43.48505" lon="6.58558">
        <ele>59</ele>
        <time>2025-02-26T14:19:12Z</time>
      </trkpt>
      <trkpt lat="43.48506" lon="6.58558">
        <ele>58.9</ele>
        <time>2025-02-26T14:19:13Z</time>
      </trkpt>
      <trkpt lat="43.48506" lon="6.58558">
        <ele>59</ele>
        <time>2025-02-26T14:19:14Z</time>
      </trkpt>
      <trkpt lat="43.48507" lon="6.58558">
        <ele>59</ele>
        <time>2025-02-26T14:19:15Z</time>
      </trkpt>
      <trkpt lat="43.48508" lon="6.58557">
        <ele>58.9</ele>
        <time>2025-02-26T14:19:16Z</time>
      </trkpt>
      <trkpt lat="43.48509" lon="6.58557">
        <ele>58.9</ele>
        <time>2025-02-26T14:19:17Z</time>
      </trkpt>
      <trkpt lat="43.4851" lon="6.58556">
        <ele>59</ele>
        <time>2025-02-26T14:19:18Z</time>
      </trkpt>
      <trkpt lat="43.48511" lon="6.58555">
        <ele>59</ele>
        <time>2025-02-26T14:19:19Z</time>
      </trkpt>
      <trkpt lat="43.48512" lon="6.58555">
        <ele>59.1</ele>
        <time>2025-02-26T14:19:20Z</time>
      </trkpt>
      <trkpt lat="43.48512" lon="6.58555">
        <ele>59.1</ele>
        <time>2025-02-26T14:19:21Z</time>
      </trkpt>
      <trkpt lat="43.48513" lon="6.58555">
        <ele>59.2</ele>
        <time>2025-02-26T14:19:22Z</time>
      </trkpt>
      <trkpt lat="43.48515" lon="6.58555">
        <ele>59.2</ele>
        <time>2025-02-26T14:19:23Z</time>
      </trkpt>
      <trkpt lat="43.48516" lon="6.58555">
        <ele>59.2</ele>
        <time>2025-02-26T14:19:24Z</time>
      </trkpt>
      <trkpt lat="43.48517" lon="6.58555">
        <ele>59.3</ele>
        <time>2025-02-26T14:19:25Z</time>
      </trkpt>
      <trkpt lat="43.48518" lon="6.58554">
        <ele>59.3</ele>
        <time>2025-02-26T14:19:26Z</time>
      </trkpt>
      <trkpt lat="43.48519" lon="6.58554">
        <ele>59.3</ele>
        <time>2025-02-26T14:19:27Z</time>
      </trkpt>
      <trkpt lat="43.4852" lon="6.58554">
        <ele>59.2</ele>
        <time>2025-02-26T14:19:28Z</time>
      </trkpt>
      <trkpt lat="43.4852" lon="6.58554">
        <ele>59.2</ele>
        <time>2025-02-26T14:19:29Z</time>
      </trkpt>
      <trkpt lat="43.48522" lon="6.58554">
        <ele>59</ele>
        <time>2025-02-26T14:19:30Z</time>
      </trkpt>
      <trkpt lat="43.48523" lon="6.58553">
        <ele>58.8</ele>
        <time>2025-02-26T14:19:31Z</time>
      </trkpt>
      <trkpt lat="43.48524" lon="6.58553">
        <ele>58.6</ele>
        <time>2025-02-26T14:19:32Z</time>
      </trkpt>
      <trkpt lat="43.48525" lon="6.58553">
        <ele>58.5</ele>
        <time>2025-02-26T14:19:33Z</time>
      </trkpt>
      <trkpt lat="43.48527" lon="6.58554">
        <ele>58.4</ele>
        <time>2025-02-26T14:19:34Z</time>
      </trkpt>
      <trkpt lat="43.48528" lon="6.58555">
        <ele>58.2</ele>
        <time>2025-02-26T14:19:35Z</time>
      </trkpt>
      <trkpt lat="43.48529" lon="6.58556">
        <ele>58.2</ele>
        <time>2025-02-26T14:19:36Z</time>
      </trkpt>
      <trkpt lat="43.4853" lon="6.58556">
        <ele>58.2</ele>
        <time>2025-02-26T14:19:37Z</time>
      </trkpt>
      <trkpt lat="43.48531" lon="6.58556">
        <ele>58.2</ele>
        <time>2025-02-26T14:19:38Z</time>
      </trkpt>
      <trkpt lat="43.48533" lon="6.58556">
        <ele>58.4</ele>
        <time>2025-02-26T14:19:39Z</time>
      </trkpt>
      <trkpt lat="43.48534" lon="6.58556">
        <ele>58.6</ele>
        <time>2025-02-26T14:19:40Z</time>
      </trkpt>
      <trkpt lat="43.48535" lon="6.58556">
        <ele>58.7</ele>
        <time>2025-02-26T14:19:41Z</time>
      </trkpt>
      <trkpt lat="43.48536" lon="6.58556">
        <ele>58.9</ele>
        <time>2025-02-26T14:19:42Z</time>
      </trkpt>
      <trkpt lat="43.48537" lon="6.58556">
        <ele>59</ele>
        <time>2025-02-26T14:19:43Z</time>
      </trkpt>
      <trkpt lat="43.48538" lon="6.58557">
        <ele>59.2</ele>
        <time>2025-02-26T14:19:44Z</time>
      </trkpt>
      <trkpt lat="43.48539" lon="6.58557">
        <ele>59.3</ele>
        <time>2025-02-26T14:19:45Z</time>
      </trkpt>
      <trkpt lat="43.4854" lon="6.58557">
        <ele>59.5</ele>
        <time>2025-02-26T14:19:46Z</time>
      </trkpt>
      <trkpt lat="43.48541" lon="6.58558">
        <ele>59.7</ele>
        <time>2025-02-26T14:19:47Z</time>
      </trkpt>
      <trkpt lat="43.48542" lon="6.58558">
        <ele>60</ele>
        <time>2025-02-26T14:19:48Z</time>
      </trkpt>
      <trkpt lat="43.48543" lon="6.58559">
        <ele>60.3</ele>
        <time>2025-02-26T14:19:49Z</time>
      </trkpt>
      <trkpt lat="43.48544" lon="6.5856">
        <ele>60.5</ele>
        <time>2025-02-26T14:19:50Z</time>
      </trkpt>
      <trkpt lat="43.48544" lon="6.5856">
        <ele>60.7</ele>
        <time>2025-02-26T14:19:51Z</time>
      </trkpt>
      <trkpt lat="43.48544" lon="6.5856">
        <ele>60.9</ele>
        <time>2025-02-26T14:19:52Z</time>
      </trkpt>
      <trkpt lat="43.48545" lon="6.58561">
        <ele>61</ele>
        <time>2025-02-26T14:19:53Z</time>
      </trkpt>
      <trkpt lat="43.48546" lon="6.58562">
        <ele>61.1</ele>
        <time>2025-02-26T14:19:54Z</time>
      </trkpt>
      <trkpt lat="43.48547" lon="6.58564">
        <ele>61.2</ele>
        <time>2025-02-26T14:19:55Z</time>
      </trkpt>
      <trkpt lat="43.48547" lon="6.58565">
        <ele>61.3</ele>
        <time>2025-02-26T14:19:56Z</time>
      </trkpt>
      <trkpt lat="43.48548" lon="6.58566">
        <ele>61.4</ele>
        <time>2025-02-26T14:19:57Z</time>
      </trkpt>
      <trkpt lat="43.48549" lon="6.58567">
        <ele>61.5</ele>
        <time>2025-02-26T14:19:58Z</time>
      </trkpt>
      <trkpt lat="43.4855" lon="6.58568">
        <ele>61.6</ele>
        <time>2025-02-26T14:19:59Z</time>
      </trkpt>
      <trkpt lat="43.48551" lon="6.58569">
        <ele>61.8</ele>
        <time>2025-02-26T14:20:00Z</time>
      </trkpt>
      <trkpt lat="43.48551" lon="6.5857">
        <ele>61.9</ele>
        <time>2025-02-26T14:20:01Z</time>
      </trkpt>
      <trkpt lat="43.48552" lon="6.58572">
        <ele>62</ele>
        <time>2025-02-26T14:20:02Z</time>
      </trkpt>
      <trkpt lat="43.48552" lon="6.58573">
        <ele>62.1</ele>
        <time>2025-02-26T14:20:03Z</time>
      </trkpt>
      <trkpt lat="43.48552" lon="6.58575">
        <ele>62</ele>
        <time>2025-02-26T14:20:04Z</time>
      </trkpt>
      <trkpt lat="43.48552" lon="6.58576">
        <ele>61.9</ele>
        <time>2025-02-26T14:20:05Z</time>
      </trkpt>
      <trkpt lat="43.48552" lon="6.58578">
        <ele>61.9</ele>
        <time>2025-02-26T14:20:06Z</time>
      </trkpt>
      <trkpt lat="43.48551" lon="6.5858">
        <ele>61.9</ele>
        <time>2025-02-26T14:20:07Z</time>
      </trkpt>
      <trkpt lat="43.48551" lon="6.58581">
        <ele>61.7</ele>
        <time>2025-02-26T14:20:08Z</time>
      </trkpt>
      <trkpt lat="43.48551" lon="6.58582">
        <ele>61.6</ele>
        <time>2025-02-26T14:20:09Z</time>
      </trkpt>
      <trkpt lat="43.48551" lon="6.58584">
        <ele>61.5</ele>
        <time>2025-02-26T14:20:10Z</time>
      </trkpt>
      <trkpt lat="43.4855" lon="6.58585">
        <ele>61.3</ele>
        <time>2025-02-26T14:20:11Z</time>
      </trkpt>
      <trkpt lat="43.4855" lon="6.58586">
        <ele>61.2</ele>
        <time>2025-02-26T14:20:12Z</time>
      </trkpt>
      <trkpt lat="43.48549" lon="6.58587">
        <ele>61</ele>
        <time>2025-02-26T14:20:13Z</time>
      </trkpt>
      <trkpt lat="43.48548" lon="6.58589">
        <ele>60.8</ele>
        <time>2025-02-26T14:20:14Z</time>
      </trkpt>
      <trkpt lat="43.48548" lon="6.5859">
        <ele>60.6</ele>
        <time>2025-02-26T14:20:15Z</time>
      </trkpt>
      <trkpt lat="43.48547" lon="6.58591">
        <ele>60.4</ele>
        <time>2025-02-26T14:20:16Z</time>
      </trkpt>
      <trkpt lat="43.48546" lon="6.58592">
        <ele>60.3</ele>
        <time>2025-02-26T14:20:17Z</time>
      </trkpt>
      <trkpt lat="43.48546" lon="6.58593">
        <ele>60.1</ele>
        <time>2025-02-26T14:20:18Z</time>
      </trkpt>
      <trkpt lat="43.48545" lon="6.58594">
        <ele>60</ele>
        <time>2025-02-26T14:20:19Z</time>
      </trkpt>
      <trkpt lat="43.48545" lon="6.58595">
        <ele>59.9</ele>
        <time>2025-02-26T14:20:20Z</time>
      </trkpt>
      <trkpt lat="43.48544" lon="6.58597">
        <ele>59.7</ele>
        <time>2025-02-26T14:20:21Z</time>
      </trkpt>
      <trkpt lat="43.48544" lon="6.58598">
        <ele>59.6</ele>
        <time>2025-02-26T14:20:22Z</time>
      </trkpt>
      <trkpt lat="43.48543" lon="6.58599">
        <ele>59.4</ele>
        <time>2025-02-26T14:20:23Z</time>
      </trkpt>
      <trkpt lat="43.48542" lon="6.58599">
        <ele>59.2</ele>
        <time>2025-02-26T14:20:24Z</time>
      </trkpt>
      <trkpt lat="43.48542" lon="6.586">
        <ele>59</ele>
        <time>2025-02-26T14:20:25Z</time>
      </trkpt>
      <trkpt lat="43.48541" lon="6.58601">
        <ele>58.8</ele>
        <time>2025-02-26T14:20:26Z</time>
      </trkpt>
      <trkpt lat="43.4854" lon="6.58603">
        <ele>58.6</ele>
        <time>2025-02-26T14:20:27Z</time>
      </trkpt>
      <trkpt lat="43.48539" lon="6.58604">
        <ele>58.4</ele>
        <time>2025-02-26T14:20:28Z</time>
      </trkpt>
      <trkpt lat="43.48539" lon="6.58605">
        <ele>58.3</ele>
        <time>2025-02-26T14:20:29Z</time>
      </trkpt>
      <trkpt lat="43.48539" lon="6.58606">
        <ele>58.2</ele>
        <time>2025-02-26T14:20:30Z</time>
      </trkpt>
      <trkpt lat="43.48538" lon="6.58608">
        <ele>58</ele>
        <time>2025-02-26T14:20:31Z</time>
      </trkpt>
      <trkpt lat="43.48537" lon="6.58609">
        <ele>58</ele>
        <time>2025-02-26T14:20:32Z</time>
      </trkpt>
      <trkpt lat="43.48537" lon="6.58609">
        <ele>58</ele>
        <time>2025-02-26T14:20:33Z</time>
      </trkpt>
      <trkpt lat="43.48536" lon="6.5861">
        <ele>58</ele>
        <time>2025-02-26T14:20:34Z</time>
      </trkpt>
      <trkpt lat="43.48535" lon="6.58611">
        <ele>58</ele>
        <time>2025-02-26T14:20:35Z</time>
      </trkpt>
      <trkpt lat="43.48534" lon="6.58611">
        <ele>57.8</ele>
        <time>2025-02-26T14:20:36Z</time>
      </trkpt>
      <trkpt lat="43.48534" lon="6.58612">
        <ele>57.6</ele>
        <time>2025-02-26T14:20:37Z</time>
      </trkpt>
      <trkpt lat="43.48533" lon="6.58613">
        <ele>57.5</ele>
        <time>2025-02-26T14:20:38Z</time>
      </trkpt>
      <trkpt lat="43.48532" lon="6.58614">
        <ele>57.3</ele>
        <time>2025-02-26T14:20:39Z</time>
      </trkpt>
      <trkpt lat="43.48532" lon="6.58615">
        <ele>57.1</ele>
        <time>2025-02-26T14:20:40Z</time>
      </trkpt>
      <trkpt lat="43.48531" lon="6.58616">
        <ele>56.9</ele>
        <time>2025-02-26T14:20:41Z</time>
      </trkpt>
      <trkpt lat="43.48531" lon="6.58617">
        <ele>56.7</ele>
        <time>2025-02-26T14:20:42Z</time>
      </trkpt>
      <trkpt lat="43.4853" lon="6.58617">
        <ele>56.6</ele>
        <time>2025-02-26T14:20:43Z</time>
      </trkpt>
      <trkpt lat="43.4853" lon="6.58618">
        <ele>56.4</ele>
        <time>2025-02-26T14:20:44Z</time>
      </trkpt>
      <trkpt lat="43.48529" lon="6.58618">
        <ele>56.3</ele>
        <time>2025-02-26T14:20:45Z</time>
      </trkpt>
      <trkpt lat="43.48529" lon="6.58619">
        <ele>56.1</ele>
        <time>2025-02-26T14:20:46Z</time>
      </trkpt>
      <trkpt lat="43.48529" lon="6.58619">
        <ele>55.9</ele>
        <time>2025-02-26T14:20:47Z</time>
      </trkpt>
      <trkpt lat="43.48528" lon="6.5862">
        <ele>55.7</ele>
        <time>2025-02-26T14:20:48Z</time>
      </trkpt>
      <trkpt lat="43.48527" lon="6.5862">
        <ele>55.5</ele>
        <time>2025-02-26T14:20:49Z</time>
      </trkpt>
      <trkpt lat="43.48527" lon="6.58621">
        <ele>55.3</ele>
        <time>2025-02-26T14:20:50Z</time>
      </trkpt>
      <trkpt lat="43.48526" lon="6.58622">
        <ele>55.1</ele>
        <time>2025-02-26T14:20:51Z</time>
      </trkpt>
      <trkpt lat="43.48525" lon="6.58623">
        <ele>55</ele>
        <time>2025-02-26T14:20:52Z</time>
      </trkpt>
      <trkpt lat="43.48525" lon="6.58624">
        <ele>54.9</ele>
        <time>2025-02-26T14:20:53Z</time>
      </trkpt>
      <trkpt lat="43.48524" lon="6.58624">
        <ele>54.7</ele>
        <time>2025-02-26T14:20:54Z</time>
      </trkpt>
      <trkpt lat="43.48523" lon="6.58625">
        <ele>54.4</ele>
        <time>2025-02-26T14:20:55Z</time>
      </trkpt>
      <trkpt lat="43.48522" lon="6.58626">
        <ele>54.3</ele>
        <time>2025-02-26T14:20:56Z</time>
      </trkpt>
      <trkpt lat="43.48522" lon="6.58627">
        <ele>54.3</ele>
        <time>2025-02-26T14:20:57Z</time>
      </trkpt>
      <trkpt lat="43.48521" lon="6.58628">
        <ele>54.2</ele>
        <time>2025-02-26T14:20:58Z</time>
      </trkpt>
      <trkpt lat="43.4852" lon="6.58629">
        <ele>53.9</ele>
        <time>2025-02-26T14:20:59Z</time>
      </trkpt>
      <trkpt lat="43.4852" lon="6.58631">
        <ele>53.7</ele>
        <time>2025-02-26T14:21:00Z</time>
      </trkpt>
      <trkpt lat="43.48519" lon="6.58632">
        <ele>53.5</ele>
        <time>2025-02-26T14:21:01Z</time>
      </trkpt>
      <trkpt lat="43.48519" lon="6.58634">
        <ele>53.3</ele>
        <time>2025-02-26T14:21:02Z</time>
      </trkpt>
      <trkpt lat="43.48518" lon="6.58635">
        <ele>53</ele>
        <time>2025-02-26T14:21:03Z</time>
      </trkpt>
      <trkpt lat="43.48518" lon="6.58637">
        <ele>52.9</ele>
        <time>2025-02-26T14:21:04Z</time>
      </trkpt>
      <trkpt lat="43.48517" lon="6.58638">
        <ele>52.6</ele>
        <time>2025-02-26T14:21:05Z</time>
      </trkpt>
      <trkpt lat="43.48517" lon="6.58639">
        <ele>52.4</ele>
        <time>2025-02-26T14:21:06Z</time>
      </trkpt>
      <trkpt lat="43.48516" lon="6.5864">
        <ele>52.3</ele>
        <time>2025-02-26T14:21:07Z</time>
      </trkpt>
      <trkpt lat="43.48516" lon="6.58641">
        <ele>52.2</ele>
        <time>2025-02-26T14:21:08Z</time>
      </trkpt>
      <trkpt lat="43.48515" lon="6.58643">
        <ele>52</ele>
        <time>2025-02-26T14:21:09Z</time>
      </trkpt>
      <trkpt lat="43.48514" lon="6.58645">
        <ele>52</ele>
        <time>2025-02-26T14:21:10Z</time>
      </trkpt>
      <trkpt lat="43.48514" lon="6.58646">
        <ele>52</ele>
        <time>2025-02-26T14:21:11Z</time>
      </trkpt>
      <trkpt lat="43.48514" lon="6.58648">
        <ele>51.8</ele>
        <time>2025-02-26T14:21:12Z</time>
      </trkpt>
      <trkpt lat="43.48514" lon="6.58649">
        <ele>51.7</ele>
        <time>2025-02-26T14:21:13Z</time>
      </trkpt>
      <trkpt lat="43.48514" lon="6.5865">
        <ele>51.6</ele>
        <time>2025-02-26T14:21:14Z</time>
      </trkpt>
      <trkpt lat="43.48513" lon="6.58651">
        <ele>51.6</ele>
        <time>2025-02-26T14:21:15Z</time>
      </trkpt>
      <trkpt lat="43.48513" lon="6.58652">
        <ele>51.6</ele>
        <time>2025-02-26T14:21:16Z</time>
      </trkpt>
      <trkpt lat="43.48512" lon="6.58653">
        <ele>51.5</ele>
        <time>2025-02-26T14:21:17Z</time>
      </trkpt>
      <trkpt lat="43.48512" lon="6.58654">
        <ele>51.5</ele>
        <time>2025-02-26T14:21:18Z</time>
      </trkpt>
      <trkpt lat="43.48512" lon="6.58655">
        <ele>51.3</ele>
        <time>2025-02-26T14:21:19Z</time>
      </trkpt>
      <trkpt lat="43.48511" lon="6.58656">
        <ele>51.2</ele>
        <time>2025-02-26T14:21:20Z</time>
      </trkpt>
      <trkpt lat="43.48511" lon="6.58656">
        <ele>51.1</ele>
        <time>2025-02-26T14:21:21Z</time>
      </trkpt>
      <trkpt lat="43.48511" lon="6.58657">
        <ele>50.9</ele>
        <time>2025-02-26T14:21:22Z</time>
      </trkpt>
      <trkpt lat="43.48511" lon="6.58659">
        <ele>50.8</ele>
        <time>2025-02-26T14:21:23Z</time>
      </trkpt>
      <trkpt lat="43.4851" lon="6.5866">
        <ele>50.7</ele>
        <time>2025-02-26T14:21:24Z</time>
      </trkpt>
      <trkpt lat="43.4851" lon="6.58661">
        <ele>50.4</ele>
        <time>2025-02-26T14:21:25Z</time>
      </trkpt>
      <trkpt lat="43.4851" lon="6.58662">
        <ele>50.2</ele>
        <time>2025-02-26T14:21:26Z</time>
      </trkpt>
      <trkpt lat="43.4851" lon="6.58664">
        <ele>50</ele>
        <time>2025-02-26T14:21:27Z</time>
      </trkpt>
      <trkpt lat="43.48509" lon="6.58665">
        <ele>49.8</ele>
        <time>2025-02-26T14:21:28Z</time>
      </trkpt>
      <trkpt lat="43.48509" lon="6.58666">
        <ele>49.8</ele>
        <time>2025-02-26T14:21:29Z</time>
      </trkpt>
      <trkpt lat="43.48509" lon="6.58668">
        <ele>49.8</ele>
        <time>2025-02-26T14:21:30Z</time>
      </trkpt>
      <trkpt lat="43.48509" lon="6.5867">
        <ele>49.8</ele>
        <time>2025-02-26T14:21:31Z</time>
      </trkpt>
      <trkpt lat="43.48508" lon="6.58671">
        <ele>49.6</ele>
        <time>2025-02-26T14:21:32Z</time>
      </trkpt>
      <trkpt lat="43.48508" lon="6.58673">
        <ele>49.4</ele>
        <time>2025-02-26T14:21:33Z</time>
      </trkpt>
      <trkpt lat="43.48508" lon="6.58674">
        <ele>49.3</ele>
        <time>2025-02-26T14:21:34Z</time>
      </trkpt>
      <trkpt lat="43.48508" lon="6.58676">
        <ele>49.1</ele>
        <time>2025-02-26T14:21:35Z</time>
      </trkpt>
      <trkpt lat="43.48507" lon="6.58678">
        <ele>49</ele>
        <time>2025-02-26T14:21:36Z</time>
      </trkpt>
      <trkpt lat="43.48507" lon="6.5868">
        <ele>48.9</ele>
        <time>2025-02-26T14:21:37Z</time>
      </trkpt>
      <trkpt lat="43.48507" lon="6.58681">
        <ele>48.9</ele>
        <time>2025-02-26T14:21:38Z</time>
      </trkpt>
      <trkpt lat="43.48506" lon="6.58682">
        <ele>48.8</ele>
        <time>2025-02-26T14:21:39Z</time>
      </trkpt>
      <trkpt lat="43.48506" lon="6.58683">
        <ele>48.8</ele>
        <time>2025-02-26T14:21:40Z</time>
      </trkpt>
      <trkpt lat="43.48506" lon="6.58684">
        <ele>48.8</ele>
        <time>2025-02-26T14:21:41Z</time>
      </trkpt>
      <trkpt lat="43.48505" lon="6.58686">
        <ele>48.9</ele>
        <time>2025-02-26T14:21:42Z</time>
      </trkpt>
      <trkpt lat="43.48505" lon="6.58687">
        <ele>48.9</ele>
        <time>2025-02-26T14:21:43Z</time>
      </trkpt>
      <trkpt lat="43.48504" lon="6.58688">
        <ele>48.9</ele>
        <time>2025-02-26T14:21:44Z</time>
      </trkpt>
      <trkpt lat="43.48504" lon="6.58689">
        <ele>48.8</ele>
        <time>2025-02-26T14:21:45Z</time>
      </trkpt>
      <trkpt lat="43.48503" lon="6.58691">
        <ele>48.7</ele>
        <time>2025-02-26T14:21:46Z</time>
      </trkpt>
      <trkpt lat="43.48502" lon="6.58692">
        <ele>48.6</ele>
        <time>2025-02-26T14:21:47Z</time>
      </trkpt>
      <trkpt lat="43.48502" lon="6.58694">
        <ele>48.5</ele>
        <time>2025-02-26T14:21:48Z</time>
      </trkpt>
      <trkpt lat="43.48501" lon="6.58695">
        <ele>48.5</ele>
        <time>2025-02-26T14:21:49Z</time>
      </trkpt>
      <trkpt lat="43.485" lon="6.58697">
        <ele>48.4</ele>
        <time>2025-02-26T14:21:50Z</time>
      </trkpt>
      <trkpt lat="43.48499" lon="6.58698">
        <ele>48.4</ele>
        <time>2025-02-26T14:21:51Z</time>
      </trkpt>
      <trkpt lat="43.48499" lon="6.58699">
        <ele>48.4</ele>
        <time>2025-02-26T14:21:52Z</time>
      </trkpt>
      <trkpt lat="43.48498" lon="6.587">
        <ele>48.3</ele>
        <time>2025-02-26T14:21:53Z</time>
      </trkpt>
      <trkpt lat="43.48497" lon="6.58702">
        <ele>48.3</ele>
        <time>2025-02-26T14:21:54Z</time>
      </trkpt>
      <trkpt lat="43.48496" lon="6.58703">
        <ele>48.3</ele>
        <time>2025-02-26T14:21:55Z</time>
      </trkpt>
      <trkpt lat="43.48495" lon="6.58704">
        <ele>48.4</ele>
        <time>2025-02-26T14:21:56Z</time>
      </trkpt>
      <trkpt lat="43.48494" lon="6.58704">
        <ele>48.4</ele>
        <time>2025-02-26T14:21:57Z</time>
      </trkpt>
      <trkpt lat="43.48493" lon="6.58705">
        <ele>48.4</ele>
        <time>2025-02-26T14:21:58Z</time>
      </trkpt>
      <trkpt lat="43.48492" lon="6.58706">
        <ele>48.3</ele>
        <time>2025-02-26T14:21:59Z</time>
      </trkpt>
      <trkpt lat="43.48491" lon="6.58707">
        <ele>48.2</ele>
        <time>2025-02-26T14:22:00Z</time>
      </trkpt>
      <trkpt lat="43.48491" lon="6.58707">
        <ele>48.2</ele>
        <time>2025-02-26T14:22:01Z</time>
      </trkpt>
      <trkpt lat="43.4849" lon="6.58707">
        <ele>48.1</ele>
        <time>2025-02-26T14:22:02Z</time>
      </trkpt>
      <trkpt lat="43.48489" lon="6.58707">
        <ele>47.9</ele>
        <time>2025-02-26T14:22:03Z</time>
      </trkpt>
      <trkpt lat="43.48488" lon="6.58707">
        <ele>47.8</ele>
        <time>2025-02-26T14:22:04Z</time>
      </trkpt>
      <trkpt lat="43.48487" lon="6.58708">
        <ele>47.8</ele>
        <time>2025-02-26T14:22:05Z</time>
      </trkpt>
      <trkpt lat="43.48486" lon="6.58708">
        <ele>47.9</ele>
        <time>2025-02-26T14:22:06Z</time>
      </trkpt>
      <trkpt lat="43.48484" lon="6.58709">
        <ele>47.9</ele>
        <time>2025-02-26T14:22:07Z</time>
      </trkpt>
      <trkpt lat="43.48483" lon="6.58709">
        <ele>47.9</ele>
        <time>2025-02-26T14:22:08Z</time>
      </trkpt>
      <trkpt lat="43.48482" lon="6.5871">
        <ele>47.9</ele>
        <time>2025-02-26T14:22:09Z</time>
      </trkpt>
      <trkpt lat="43.48481" lon="6.58711">
        <ele>47.8</ele>
        <time>2025-02-26T14:22:10Z</time>
      </trkpt>
      <trkpt lat="43.4848" lon="6.58711">
        <ele>47.7</ele>
        <time>2025-02-26T14:22:11Z</time>
      </trkpt>
      <trkpt lat="43.48479" lon="6.58712">
        <ele>47.5</ele>
        <time>2025-02-26T14:22:12Z</time>
      </trkpt>
      <trkpt lat="43.48478" lon="6.58712">
        <ele>47.4</ele>
        <time>2025-02-26T14:22:13Z</time>
      </trkpt>
      <trkpt lat="43.48477" lon="6.58713">
        <ele>47.3</ele>
        <time>2025-02-26T14:22:14Z</time>
      </trkpt>
      <trkpt lat="43.48476" lon="6.58714">
        <ele>47.2</ele>
        <time>2025-02-26T14:22:15Z</time>
      </trkpt>
      <trkpt lat="43.48475" lon="6.58714">
        <ele>47.2</ele>
        <time>2025-02-26T14:22:16Z</time>
      </trkpt>
      <trkpt lat="43.48474" lon="6.58715">
        <ele>46.9</ele>
        <time>2025-02-26T14:22:17Z</time>
      </trkpt>
      <trkpt lat="43.48473" lon="6.58715">
        <ele>46.8</ele>
        <time>2025-02-26T14:22:18Z</time>
      </trkpt>
      <trkpt lat="43.48472" lon="6.58716">
        <ele>46.8</ele>
        <time>2025-02-26T14:22:19Z</time>
      </trkpt>
      <trkpt lat="43.48471" lon="6.58717">
        <ele>46.8</ele>
        <time>2025-02-26T14:22:20Z</time>
      </trkpt>
      <trkpt lat="43.4847" lon="6.58717">
        <ele>46.5</ele>
        <time>2025-02-26T14:22:21Z</time>
      </trkpt>
      <trkpt lat="43.48469" lon="6.58718">
        <ele>46.3</ele>
        <time>2025-02-26T14:22:22Z</time>
      </trkpt>
      <trkpt lat="43.48468" lon="6.58718">
        <ele>46.2</ele>
        <time>2025-02-26T14:22:23Z</time>
      </trkpt>
      <trkpt lat="43.48467" lon="6.58719">
        <ele>46.1</ele>
        <time>2025-02-26T14:22:24Z</time>
      </trkpt>
      <trkpt lat="43.48466" lon="6.5872">
        <ele>45.9</ele>
        <time>2025-02-26T14:22:25Z</time>
      </trkpt>
      <trkpt lat="43.48465" lon="6.58721">
        <ele>45.8</ele>
        <time>2025-02-26T14:22:26Z</time>
      </trkpt>
      <trkpt lat="43.48464" lon="6.58722">
        <ele>45.8</ele>
        <time>2025-02-26T14:22:27Z</time>
      </trkpt>
      <trkpt lat="43.48463" lon="6.58723">
        <ele>45.7</ele>
        <time>2025-02-26T14:22:28Z</time>
      </trkpt>
      <trkpt lat="43.48463" lon="6.58724">
        <ele>45.6</ele>
        <time>2025-02-26T14:22:29Z</time>
      </trkpt>
      <trkpt lat="43.48462" lon="6.58726">
        <ele>45.2</ele>
        <time>2025-02-26T14:22:30Z</time>
      </trkpt>
      <trkpt lat="43.48462" lon="6.58727">
        <ele>44.9</ele>
        <time>2025-02-26T14:22:31Z</time>
      </trkpt>
      <trkpt lat="43.48461" lon="6.58728">
        <ele>44.7</ele>
        <time>2025-02-26T14:22:32Z</time>
      </trkpt>
      <trkpt lat="43.4846" lon="6.58729">
        <ele>44.7</ele>
        <time>2025-02-26T14:22:33Z</time>
      </trkpt>
      <trkpt lat="43.4846" lon="6.5873">
        <ele>44.6</ele>
        <time>2025-02-26T14:22:34Z</time>
      </trkpt>
      <trkpt lat="43.48459" lon="6.58731">
        <ele>44.6</ele>
        <time>2025-02-26T14:22:35Z</time>
      </trkpt>
      <trkpt lat="43.48458" lon="6.58733">
        <ele>44.6</ele>
        <time>2025-02-26T14:22:36Z</time>
      </trkpt>
      <trkpt lat="43.48458" lon="6.58734">
        <ele>44.6</ele>
        <time>2025-02-26T14:22:37Z</time>
      </trkpt>
      <trkpt lat="43.48458" lon="6.58735">
        <ele>44.5</ele>
        <time>2025-02-26T14:22:38Z</time>
      </trkpt>
      <trkpt lat="43.48457" lon="6.58737">
        <ele>44.5</ele>
        <time>2025-02-26T14:22:39Z</time>
      </trkpt>
      <trkpt lat="43.48457" lon="6.58738">
        <ele>44.4</ele>
        <time>2025-02-26T14:22:40Z</time>
      </trkpt>
      <trkpt lat="43.48456" lon="6.58739">
        <ele>44.4</ele>
        <time>2025-02-26T14:22:41Z</time>
      </trkpt>
      <trkpt lat="43.48455" lon="6.5874">
        <ele>44.3</ele>
        <time>2025-02-26T14:22:42Z</time>
      </trkpt>
      <trkpt lat="43.48455" lon="6.58742">
        <ele>44.2</ele>
        <time>2025-02-26T14:22:43Z</time>
      </trkpt>
      <trkpt lat="43.48454" lon="6.58743">
        <ele>44.2</ele>
        <time>2025-02-26T14:22:44Z</time>
      </trkpt>
      <trkpt lat="43.48454" lon="6.58744">
        <ele>44.1</ele>
        <time>2025-02-26T14:22:45Z</time>
      </trkpt>
      <trkpt lat="43.48453" lon="6.58745">
        <ele>44.1</ele>
        <time>2025-02-26T14:22:46Z</time>
      </trkpt>
      <trkpt lat="43.48453" lon="6.58746">
        <ele>44</ele>
        <time>2025-02-26T14:22:47Z</time>
      </trkpt>
      <trkpt lat="43.48452" lon="6.58747">
        <ele>44</ele>
        <time>2025-02-26T14:22:48Z</time>
      </trkpt>
      <trkpt lat="43.48451" lon="6.58748">
        <ele>44</ele>
        <time>2025-02-26T14:22:49Z</time>
      </trkpt>
      <trkpt lat="43.4845" lon="6.58749">
        <ele>44.1</ele>
        <time>2025-02-26T14:22:50Z</time>
      </trkpt>
      <trkpt lat="43.48449" lon="6.5875">
        <ele>44</ele>
        <time>2025-02-26T14:22:51Z</time>
      </trkpt>
      <trkpt lat="43.48448" lon="6.5875">
        <ele>44</ele>
        <time>2025-02-26T14:22:52Z</time>
      </trkpt>
      <trkpt lat="43.48448" lon="6.58751">
        <ele>43.9</ele>
        <time>2025-02-26T14:22:53Z</time>
      </trkpt>
      <trkpt lat="43.48447" lon="6.58751">
        <ele>43.9</ele>
        <time>2025-02-26T14:22:54Z</time>
      </trkpt>
      <trkpt lat="43.48447" lon="6.58752">
        <ele>44</ele>
        <time>2025-02-26T14:22:55Z</time>
      </trkpt>
      <trkpt lat="43.48447" lon="6.58752">
        <ele>43.9</ele>
        <time>2025-02-26T14:22:56Z</time>
      </trkpt>
      <trkpt lat="43.48447" lon="6.58752">
        <ele>43.9</ele>
        <time>2025-02-26T14:22:57Z</time>
      </trkpt>
      <trkpt lat="43.48447" lon="6.58752">
        <ele>43.9</ele>
        <time>2025-02-26T14:22:58Z</time>
      </trkpt>
      <trkpt lat="43.48447" lon="6.58752">
        <ele>43.9</ele>
        <time>2025-02-26T14:22:59Z</time>
      </trkpt>
      <trkpt lat="43.48447" lon="6.58752">
        <ele>43.9</ele>
        <time>2025-02-26T14:23:00Z</time>
      </trkpt>
      <trkpt lat="43.48447" lon="6.58752">
        <ele>43.9</ele>
        <time>2025-02-26T14:23:01Z</time>
      </trkpt>
      <trkpt lat="43.48447" lon="6.58752">
        <ele>44</ele>
        <time>2025-02-26T14:23:02Z</time>
      </trkpt>
      <trkpt lat="43.48447" lon="6.58752">
        <ele>44</ele>
        <time>2025-02-26T14:23:03Z</time>
      </trkpt>
      <trkpt lat="43.48447" lon="6.58752">
        <ele>44.1</ele>
        <time>2025-02-26T14:23:04Z</time>
      </trkpt>
      <trkpt lat="43.48447" lon="6.58753">
        <ele>44.1</ele>
        <time>2025-02-26T14:23:05Z</time>
      </trkpt>
      <trkpt lat="43.48447" lon="6.58753">
        <ele>44.1</ele>
        <time>2025-02-26T14:23:06Z</time>
      </trkpt>
      <trkpt lat="43.48447" lon="6.58753">
        <ele>44.1</ele>
        <time>2025-02-26T14:23:07Z</time>
      </trkpt>
      <trkpt lat="43.48448" lon="6.58753">
        <ele>44.1</ele>
        <time>2025-02-26T14:23:08Z</time>
      </trkpt>
      <trkpt lat="43.48448" lon="6.58753">
        <ele>44</ele>
        <time>2025-02-26T14:23:09Z</time>
      </trkpt>
      <trkpt lat="43.48448" lon="6.58753">
        <ele>44</ele>
        <time>2025-02-26T14:23:10Z</time>
      </trkpt>
      <trkpt lat="43.48448" lon="6.58753">
        <ele>43.9</ele>
        <time>2025-02-26T14:23:11Z</time>
      </trkpt>
      <trkpt lat="43.48448" lon="6.58753">
        <ele>43.8</ele>
        <time>2025-02-26T14:23:12Z</time>
      </trkpt>
      <trkpt lat="43.48448" lon="6.58753">
        <ele>43.9</ele>
        <time>2025-02-26T14:23:13Z</time>
      </trkpt>
      <trkpt lat="43.48448" lon="6.58753">
        <ele>43.9</ele>
        <time>2025-02-26T14:23:14Z</time>
      </trkpt>
      <trkpt lat="43.48448" lon="6.58753">
        <ele>43.9</ele>
        <time>2025-02-26T14:23:15Z</time>
      </trkpt>
      <trkpt lat="43.48448" lon="6.58753">
        <ele>43.9</ele>
        <time>2025-02-26T14:23:16Z</time>
      </trkpt>
      <trkpt lat="43.48448" lon="6.58753">
        <ele>43.9</ele>
        <time>2025-02-26T14:23:17Z</time>
      </trkpt>
      <trkpt lat="43.48448" lon="6.58754">
        <ele>43.9</ele>
        <time>2025-02-26T14:23:18Z</time>
      </trkpt>
      <trkpt lat="43.48448" lon="6.58754">
        <ele>43.9</ele>
        <time>2025-02-26T14:23:19Z</time>
      </trkpt>
      <trkpt lat="43.48448" lon="6.58754">
        <ele>43.8</ele>
        <time>2025-02-26T14:23:20Z</time>
      </trkpt>
      <trkpt lat="43.48448" lon="6.58754">
        <ele>43.7</ele>
        <time>2025-02-26T14:23:21Z</time>
      </trkpt>
      <trkpt lat="43.48448" lon="6.58754">
        <ele>43.7</ele>
        <time>2025-02-26T14:23:22Z</time>
      </trkpt>
      <trkpt lat="43.48448" lon="6.58754">
        <ele>43.6</ele>
        <time>2025-02-26T14:23:23Z</time>
      </trkpt>
      <trkpt lat="43.48448" lon="6.58754">
        <ele>43.6</ele>
        <time>2025-02-26T14:23:24Z</time>
      </trkpt>
      <trkpt lat="43.48448" lon="6.58754">
        <ele>43.5</ele>
        <time>2025-02-26T14:23:25Z</time>
      </trkpt>
      <trkpt lat="43.48447" lon="6.58754">
        <ele>43.5</ele>
        <time>2025-02-26T14:23:26Z</time>
      </trkpt>
      <trkpt lat="43.48448" lon="6.58754">
        <ele>43.5</ele>
        <time>2025-02-26T14:23:27Z</time>
      </trkpt>
      <trkpt lat="43.48448" lon="6.58754">
        <ele>43.5</ele>
        <time>2025-02-26T14:23:28Z</time>
      </trkpt>
      <trkpt lat="43.48448" lon="6.58753">
        <ele>43.6</ele>
        <time>2025-02-26T14:23:29Z</time>
      </trkpt>
      <trkpt lat="43.48447" lon="6.58753">
        <ele>43.6</ele>
        <time>2025-02-26T14:23:30Z</time>
      </trkpt>
      <trkpt lat="43.48447" lon="6.58753">
        <ele>43.7</ele>
        <time>2025-02-26T14:23:31Z</time>
      </trkpt>
      <trkpt lat="43.48447" lon="6.58753">
        <ele>43.7</ele>
        <time>2025-02-26T14:23:32Z</time>
      </trkpt>
      <trkpt lat="43.48447" lon="6.58753">
        <ele>43.8</ele>
        <time>2025-02-26T14:23:33Z</time>
      </trkpt>
      <trkpt lat="43.48447" lon="6.58753">
        <ele>43.8</ele>
        <time>2025-02-26T14:23:34Z</time>
      </trkpt>
      <trkpt lat="43.48448" lon="6.58753">
        <ele>43.8</ele>
        <time>2025-02-26T14:23:35Z</time>
      </trkpt>
      <trkpt lat="43.48448" lon="6.58753">
        <ele>43.7</ele>
        <time>2025-02-26T14:23:36Z</time>
      </trkpt>
      <trkpt lat="43.48447" lon="6.58753">
        <ele>43.7</ele>
        <time>2025-02-26T14:23:37Z</time>
      </trkpt>
      <trkpt lat="43.48447" lon="6.58753">
        <ele>43.8</ele>
        <time>2025-02-26T14:23:38Z</time>
      </trkpt>
      <trkpt lat="43.48447" lon="6.58753">
        <ele>43.7</ele>
        <time>2025-02-26T14:23:39Z</time>
      </trkpt>
      <trkpt lat="43.48447" lon="6.58754">
        <ele>43.8</ele>
        <time>2025-02-26T14:23:40Z</time>
      </trkpt>
      <trkpt lat="43.48447" lon="6.58754">
        <ele>43.8</ele>
        <time>2025-02-26T14:23:41Z</time>
      </trkpt>
      <trkpt lat="43.48447" lon="6.58753">
        <ele>43.9</ele>
        <time>2025-02-26T14:23:42Z</time>
      </trkpt>
      <trkpt lat="43.48447" lon="6.58753">
        <ele>43.9</ele>
        <time>2025-02-26T14:23:43Z</time>
      </trkpt>
      <trkpt lat="43.48447" lon="6.58753">
        <ele>44</ele>
        <time>2025-02-26T14:23:44Z</time>
      </trkpt>
      <trkpt lat="43.48447" lon="6.58753">
        <ele>44</ele>
        <time>2025-02-26T14:23:45Z</time>
      </trkpt>
      <trkpt lat="43.48447" lon="6.58753">
        <ele>44</ele>
        <time>2025-02-26T14:23:46Z</time>
      </trkpt>
      <trkpt lat="43.48447" lon="6.58753">
        <ele>44</ele>
        <time>2025-02-26T14:23:47Z</time>
      </trkpt>
      <trkpt lat="43.48447" lon="6.58753">
        <ele>44.1</ele>
        <time>2025-02-26T14:23:48Z</time>
      </trkpt>
      <trkpt lat="43.48447" lon="6.58753">
        <ele>44.1</ele>
        <time>2025-02-26T14:23:49Z</time>
      </trkpt>
      <trkpt lat="43.48447" lon="6.58753">
        <ele>44.1</ele>
        <time>2025-02-26T14:23:50Z</time>
      </trkpt>
      <trkpt lat="43.48447" lon="6.58753">
        <ele>44</ele>
        <time>2025-02-26T14:23:51Z</time>
      </trkpt>
      <trkpt lat="43.48447" lon="6.58753">
        <ele>44</ele>
        <time>2025-02-26T14:23:52Z</time>
      </trkpt>
      <trkpt lat="43.48447" lon="6.58753">
        <ele>44</ele>
        <time>2025-02-26T14:23:53Z</time>
      </trkpt>
      <trkpt lat="43.48447" lon="6.58754">
        <ele>44</ele>
        <time>2025-02-26T14:23:54Z</time>
      </trkpt>
      <trkpt lat="43.48446" lon="6.58754">
        <ele>44</ele>
        <time>2025-02-26T14:23:55Z</time>
      </trkpt>
      <trkpt lat="43.48446" lon="6.58754">
        <ele>43.9</ele>
        <time>2025-02-26T14:23:56Z</time>
      </trkpt>
      <trkpt lat="43.48446" lon="6.58754">
        <ele>43.9</ele>
        <time>2025-02-26T14:23:57Z</time>
      </trkpt>
      <trkpt lat="43.48446" lon="6.58754">
        <ele>43.9</ele>
        <time>2025-02-26T14:23:58Z</time>
      </trkpt>
      <trkpt lat="43.48446" lon="6.58754">
        <ele>43.9</ele>
        <time>2025-02-26T14:23:59Z</time>
      </trkpt>
      <trkpt lat="43.48446" lon="6.58754">
        <ele>43.7</ele>
        <time>2025-02-26T14:24:00Z</time>
      </trkpt>
      <trkpt lat="43.48446" lon="6.58754">
        <ele>43.7</ele>
        <time>2025-02-26T14:24:01Z</time>
      </trkpt>
      <trkpt lat="43.48446" lon="6.58754">
        <ele>43.7</ele>
        <time>2025-02-26T14:24:02Z</time>
      </trkpt>
      <trkpt lat="43.48446" lon="6.58754">
        <ele>43.7</ele>
        <time>2025-02-26T14:24:03Z</time>
      </trkpt>
      <trkpt lat="43.48446" lon="6.58754">
        <ele>43.6</ele>
        <time>2025-02-26T14:24:04Z</time>
      </trkpt>
      <trkpt lat="43.48446" lon="6.58754">
        <ele>43.5</ele>
        <time>2025-02-26T14:24:05Z</time>
      </trkpt>
      <trkpt lat="43.48446" lon="6.58754">
        <ele>43.6</ele>
        <time>2025-02-26T14:24:06Z</time>
      </trkpt>
      <trkpt lat="43.48446" lon="6.58754">
        <ele>43.6</ele>
        <time>2025-02-26T14:24:07Z</time>
      </trkpt>
      <trkpt lat="43.48446" lon="6.58754">
        <ele>43.6</ele>
        <time>2025-02-26T14:24:08Z</time>
      </trkpt>
      <trkpt lat="43.48446" lon="6.58754">
        <ele>43.7</ele>
        <time>2025-02-26T14:24:09Z</time>
      </trkpt>
      <trkpt lat="43.48446" lon="6.58754">
        <ele>43.8</ele>
        <time>2025-02-26T14:24:10Z</time>
      </trkpt>
      <trkpt lat="43.48446" lon="6.58754">
        <ele>43.9</ele>
        <time>2025-02-26T14:24:11Z</time>
      </trkpt>
      <trkpt lat="43.48446" lon="6.58754">
        <ele>43.9</ele>
        <time>2025-02-26T14:24:12Z</time>
      </trkpt>
      <trkpt lat="43.48446" lon="6.58755">
        <ele>43.9</ele>
        <time>2025-02-26T14:24:13Z</time>
      </trkpt>
      <trkpt lat="43.48446" lon="6.58755">
        <ele>43.9</ele>
        <time>2025-02-26T14:24:14Z</time>
      </trkpt>
      <trkpt lat="43.48446" lon="6.58755">
        <ele>44</ele>
        <time>2025-02-26T14:24:15Z</time>
      </trkpt>
      <trkpt lat="43.48446" lon="6.58755">
        <ele>44</ele>
        <time>2025-02-26T14:24:16Z</time>
      </trkpt>
      <trkpt lat="43.48446" lon="6.58755">
        <ele>43.9</ele>
        <time>2025-02-26T14:24:17Z</time>
      </trkpt>
      <trkpt lat="43.48446" lon="6.58755">
        <ele>43.8</ele>
        <time>2025-02-26T14:24:18Z</time>
      </trkpt>
      <trkpt lat="43.48446" lon="6.58755">
        <ele>43.7</ele>
        <time>2025-02-26T14:24:19Z</time>
      </trkpt>
      <trkpt lat="43.48446" lon="6.58755">
        <ele>43.6</ele>
        <time>2025-02-26T14:24:20Z</time>
      </trkpt>
      <trkpt lat="43.48446" lon="6.58755">
        <ele>43.6</ele>
        <time>2025-02-26T14:24:21Z</time>
      </trkpt>
      <trkpt lat="43.48447" lon="6.58755">
        <ele>43.7</ele>
        <time>2025-02-26T14:24:22Z</time>
      </trkpt>
      <trkpt lat="43.48447" lon="6.58755">
        <ele>43.7</ele>
        <time>2025-02-26T14:24:23Z</time>
      </trkpt>
      <trkpt lat="43.48447" lon="6.58755">
        <ele>43.6</ele>
        <time>2025-02-26T14:24:24Z</time>
      </trkpt>
      <trkpt lat="43.48448" lon="6.58755">
        <ele>43.5</ele>
        <time>2025-02-26T14:24:25Z</time>
      </trkpt>
      <trkpt lat="43.48448" lon="6.58755">
        <ele>43.4</ele>
        <time>2025-02-26T14:24:26Z</time>
      </trkpt>
      <trkpt lat="43.48448" lon="6.58755">
        <ele>43.3</ele>
        <time>2025-02-26T14:24:27Z</time>
      </trkpt>
      <trkpt lat="43.48448" lon="6.58755">
        <ele>43.3</ele>
        <time>2025-02-26T14:24:28Z</time>
      </trkpt>
      <trkpt lat="43.48448" lon="6.58755">
        <ele>43.2</ele>
        <time>2025-02-26T14:24:29Z</time>
      </trkpt>
      <trkpt lat="43.48448" lon="6.58755">
        <ele>43.2</ele>
        <time>2025-02-26T14:24:30Z</time>
      </trkpt>
      <trkpt lat="43.48448" lon="6.58755">
        <ele>43.2</ele>
        <time>2025-02-26T14:24:31Z</time>
      </trkpt>
      <trkpt lat="43.48448" lon="6.58755">
        <ele>43.1</ele>
        <time>2025-02-26T14:24:32Z</time>
      </trkpt>
      <trkpt lat="43.48448" lon="6.58755">
        <ele>43.1</ele>
        <time>2025-02-26T14:24:33Z</time>
      </trkpt>
      <trkpt lat="43.48448" lon="6.58755">
        <ele>43.1</ele>
        <time>2025-02-26T14:24:34Z</time>
      </trkpt>
      <trkpt lat="43.48448" lon="6.58755">
        <ele>43.1</ele>
        <time>2025-02-26T14:24:35Z</time>
      </trkpt>
      <trkpt lat="43.48448" lon="6.58755">
        <ele>43.1</ele>
        <time>2025-02-26T14:24:36Z</time>
      </trkpt>
      <trkpt lat="43.48448" lon="6.58755">
        <ele>43</ele>
        <time>2025-02-26T14:24:37Z</time>
      </trkpt>
      <trkpt lat="43.48448" lon="6.58755">
        <ele>43</ele>
        <time>2025-02-26T14:24:38Z</time>
      </trkpt>
      <trkpt lat="43.48447" lon="6.58755">
        <ele>43</ele>
        <time>2025-02-26T14:24:39Z</time>
      </trkpt>
      <trkpt lat="43.48447" lon="6.58755">
        <ele>43</ele>
        <time>2025-02-26T14:24:40Z</time>
      </trkpt>
      <trkpt lat="43.48448" lon="6.58756">
        <ele>42.9</ele>
        <time>2025-02-26T14:24:41Z</time>
      </trkpt>
      <trkpt lat="43.48448" lon="6.58756">
        <ele>43</ele>
        <time>2025-02-26T14:24:42Z</time>
      </trkpt>
      <trkpt lat="43.48448" lon="6.58756">
        <ele>43.1</ele>
        <time>2025-02-26T14:24:43Z</time>
      </trkpt>
      <trkpt lat="43.48448" lon="6.58756">
        <ele>43.1</ele>
        <time>2025-02-26T14:24:44Z</time>
      </trkpt>
      <trkpt lat="43.48447" lon="6.58756">
        <ele>43.1</ele>
        <time>2025-02-26T14:24:45Z</time>
      </trkpt>
      <trkpt lat="43.48447" lon="6.58756">
        <ele>43.1</ele>
        <time>2025-02-26T14:24:46Z</time>
      </trkpt>
      <trkpt lat="43.48447" lon="6.58756">
        <ele>43.1</ele>
        <time>2025-02-26T14:24:47Z</time>
      </trkpt>
      <trkpt lat="43.48448" lon="6.58756">
        <ele>43.1</ele>
        <time>2025-02-26T14:24:48Z</time>
      </trkpt>
      <trkpt lat="43.48448" lon="6.58756">
        <ele>43</ele>
        <time>2025-02-26T14:24:49Z</time>
      </trkpt>
      <trkpt lat="43.48448" lon="6.58756">
        <ele>43</ele>
        <time>2025-02-26T14:24:50Z</time>
      </trkpt>
      <trkpt lat="43.48448" lon="6.58756">
        <ele>43</ele>
        <time>2025-02-26T14:24:51Z</time>
      </trkpt>
      <trkpt lat="43.48448" lon="6.58755">
        <ele>43.1</ele>
        <time>2025-02-26T14:24:52Z</time>
      </trkpt>
      <trkpt lat="43.48448" lon="6.58755">
        <ele>43.1</ele>
        <time>2025-02-26T14:24:53Z</time>
      </trkpt>
      <trkpt lat="43.48448" lon="6.58755">
        <ele>43.1</ele>
        <time>2025-02-26T14:24:54Z</time>
      </trkpt>
      <trkpt lat="43.48448" lon="6.58755">
        <ele>43.1</ele>
        <time>2025-02-26T14:24:55Z</time>
      </trkpt>
      <trkpt lat="43.48448" lon="6.58755">
        <ele>43.1</ele>
        <time>2025-02-26T14:24:56Z</time>
      </trkpt>
      <trkpt lat="43.48448" lon="6.58755">
        <ele>43</ele>
        <time>2025-02-26T14:24:57Z</time>
      </trkpt>
      <trkpt lat="43.48448" lon="6.58755">
        <ele>43.1</ele>
        <time>2025-02-26T14:24:58Z</time>
      </trkpt>
      <trkpt lat="43.48448" lon="6.58755">
        <ele>43.2</ele>
        <time>2025-02-26T14:24:59Z</time>
      </trkpt>
      <trkpt lat="43.48448" lon="6.58755">
        <ele>43.1</ele>
        <time>2025-02-26T14:25:00Z</time>
      </trkpt>
      <trkpt lat="43.48448" lon="6.58755">
        <ele>43.2</ele>
        <time>2025-02-26T14:25:01Z</time>
      </trkpt>
      <trkpt lat="43.48447" lon="6.58755">
        <ele>43.2</ele>
        <time>2025-02-26T14:25:02Z</time>
      </trkpt>
      <trkpt lat="43.48447" lon="6.58755">
        <ele>43.2</ele>
        <time>2025-02-26T14:25:03Z</time>
      </trkpt>
      <trkpt lat="43.48447" lon="6.58755">
        <ele>43.3</ele>
        <time>2025-02-26T14:25:04Z</time>
      </trkpt>
      <trkpt lat="43.48447" lon="6.58755">
        <ele>43.3</ele>
        <time>2025-02-26T14:25:05Z</time>
      </trkpt>
      <trkpt lat="43.48447" lon="6.58755">
        <ele>43.2</ele>
        <time>2025-02-26T14:25:06Z</time>
      </trkpt>
      <trkpt lat="43.48448" lon="6.58755">
        <ele>43.3</ele>
        <time>2025-02-26T14:25:07Z</time>
      </trkpt>
      <trkpt lat="43.48448" lon="6.58755">
        <ele>43.3</ele>
        <time>2025-02-26T14:25:08Z</time>
      </trkpt>
      <trkpt lat="43.48447" lon="6.58755">
        <ele>43.3</ele>
        <time>2025-02-26T14:25:09Z</time>
      </trkpt>
      <trkpt lat="43.48447" lon="6.58755">
        <ele>43.3</ele>
        <time>2025-02-26T14:25:10Z</time>
      </trkpt>
      <trkpt lat="43.48447" lon="6.58755">
        <ele>43.3</ele>
        <time>2025-02-26T14:25:11Z</time>
      </trkpt>
      <trkpt lat="43.48447" lon="6.58755">
        <ele>43.4</ele>
        <time>2025-02-26T14:25:12Z</time>
      </trkpt>
      <trkpt lat="43.48447" lon="6.58755">
        <ele>43.5</ele>
        <time>2025-02-26T14:25:13Z</time>
      </trkpt>
      <trkpt lat="43.48447" lon="6.58755">
        <ele>43.5</ele>
        <time>2025-02-26T14:25:14Z</time>
      </trkpt>
      <trkpt lat="43.48448" lon="6.58755">
        <ele>43.4</ele>
        <time>2025-02-26T14:25:15Z</time>
      </trkpt>
      <trkpt lat="43.48447" lon="6.58756">
        <ele>43.3</ele>
        <time>2025-02-26T14:25:16Z</time>
      </trkpt>
      <trkpt lat="43.48447" lon="6.58756">
        <ele>43.2</ele>
        <time>2025-02-26T14:25:17Z</time>
      </trkpt>
      <trkpt lat="43.48447" lon="6.58756">
        <ele>43.2</ele>
        <time>2025-02-26T14:25:18Z</time>
      </trkpt>
      <trkpt lat="43.48447" lon="6.58756">
        <ele>43.2</ele>
        <time>2025-02-26T14:25:19Z</time>
      </trkpt>
      <trkpt lat="43.48447" lon="6.58756">
        <ele>43.2</ele>
        <time>2025-02-26T14:25:20Z</time>
      </trkpt>
      <trkpt lat="43.48447" lon="6.58756">
        <ele>43.2</ele>
        <time>2025-02-26T14:25:21Z</time>
      </trkpt>
      <trkpt lat="43.48447" lon="6.58756">
        <ele>43.2</ele>
        <time>2025-02-26T14:25:22Z</time>
      </trkpt>
      <trkpt lat="43.48447" lon="6.58756">
        <ele>43.2</ele>
        <time>2025-02-26T14:25:23Z</time>
      </trkpt>
      <trkpt lat="43.48447" lon="6.58756">
        <ele>43.2</ele>
        <time>2025-02-26T14:25:24Z</time>
      </trkpt>
      <trkpt lat="43.48447" lon="6.58756">
        <ele>43.2</ele>
        <time>2025-02-26T14:25:25Z</time>
      </trkpt>
      <trkpt lat="43.48447" lon="6.58756">
        <ele>43.2</ele>
        <time>2025-02-26T14:25:26Z</time>
      </trkpt>
      <trkpt lat="43.48447" lon="6.58756">
        <ele>43.2</ele>
        <time>2025-02-26T14:25:27Z</time>
      </trkpt>
      <trkpt lat="43.48447" lon="6.58756">
        <ele>43.3</ele>
        <time>2025-02-26T14:25:28Z</time>
      </trkpt>
      <trkpt lat="43.48447" lon="6.58756">
        <ele>43.3</ele>
        <time>2025-02-26T14:25:29Z</time>
      </trkpt>
      <trkpt lat="43.48447" lon="6.58756">
        <ele>43.3</ele>
        <time>2025-02-26T14:25:30Z</time>
      </trkpt>
      <trkpt lat="43.48447" lon="6.58757">
        <ele>43.3</ele>
        <time>2025-02-26T14:25:31Z</time>
      </trkpt>
      <trkpt lat="43.48447" lon="6.58757">
        <ele>43.2</ele>
        <time>2025-02-26T14:25:32Z</time>
      </trkpt>
      <trkpt lat="43.48447" lon="6.58757">
        <ele>43.2</ele>
        <time>2025-02-26T14:25:33Z</time>
      </trkpt>
      <trkpt lat="43.48447" lon="6.58757">
        <ele>43.2</ele>
        <time>2025-02-26T14:25:34Z</time>
      </trkpt>
      <trkpt lat="43.48446" lon="6.58757">
        <ele>43.2</ele>
        <time>2025-02-26T14:25:35Z</time>
      </trkpt>
      <trkpt lat="43.48446" lon="6.58757">
        <ele>43.1</ele>
        <time>2025-02-26T14:25:36Z</time>
      </trkpt>
      <trkpt lat="43.48446" lon="6.58757">
        <ele>43.1</ele>
        <time>2025-02-26T14:25:37Z</time>
      </trkpt>
      <trkpt lat="43.48446" lon="6.58757">
        <ele>43.1</ele>
        <time>2025-02-26T14:25:38Z</time>
      </trkpt>
      <trkpt lat="43.48446" lon="6.58757">
        <ele>43.1</ele>
        <time>2025-02-26T14:25:39Z</time>
      </trkpt>
      <trkpt lat="43.48446" lon="6.58757">
        <ele>43.1</ele>
        <time>2025-02-26T14:25:40Z</time>
      </trkpt>
      <trkpt lat="43.48446" lon="6.58757">
        <ele>43.2</ele>
        <time>2025-02-26T14:25:41Z</time>
      </trkpt>
      <trkpt lat="43.48446" lon="6.58757">
        <ele>43.2</ele>
        <time>2025-02-26T14:25:42Z</time>
      </trkpt>
      <trkpt lat="43.48446" lon="6.58757">
        <ele>43.3</ele>
        <time>2025-02-26T14:25:43Z</time>
      </trkpt>
      <trkpt lat="43.48446" lon="6.58757">
        <ele>43.4</ele>
        <time>2025-02-26T14:25:44Z</time>
      </trkpt>
      <trkpt lat="43.48446" lon="6.58757">
        <ele>43.4</ele>
        <time>2025-02-26T14:25:45Z</time>
      </trkpt>
      <trkpt lat="43.48446" lon="6.58757">
        <ele>43.4</ele>
        <time>2025-02-26T14:25:46Z</time>
      </trkpt>
      <trkpt lat="43.48446" lon="6.58757">
        <ele>43.4</ele>
        <time>2025-02-26T14:25:47Z</time>
      </trkpt>
      <trkpt lat="43.48446" lon="6.58757">
        <ele>43.4</ele>
        <time>2025-02-26T14:25:48Z</time>
      </trkpt>
      <trkpt lat="43.48446" lon="6.58758">
        <ele>43.4</ele>
        <time>2025-02-26T14:25:49Z</time>
      </trkpt>
      <trkpt lat="43.48446" lon="6.58758">
        <ele>43.4</ele>
        <time>2025-02-26T14:25:50Z</time>
      </trkpt>
      <trkpt lat="43.48446" lon="6.58758">
        <ele>43.4</ele>
        <time>2025-02-26T14:25:51Z</time>
      </trkpt>
      <trkpt lat="43.48446" lon="6.58758">
        <ele>43.3</ele>
        <time>2025-02-26T14:25:52Z</time>
      </trkpt>
      <trkpt lat="43.48446" lon="6.58758">
        <ele>43.3</ele>
        <time>2025-02-26T14:25:53Z</time>
      </trkpt>
      <trkpt lat="43.48446" lon="6.58758">
        <ele>43.2</ele>
        <time>2025-02-26T14:25:54Z</time>
      </trkpt>
      <trkpt lat="43.48446" lon="6.58758">
        <ele>43.2</ele>
        <time>2025-02-26T14:25:55Z</time>
      </trkpt>
      <trkpt lat="43.48446" lon="6.58758">
        <ele>43.2</ele>
        <time>2025-02-26T14:25:56Z</time>
      </trkpt>
      <trkpt lat="43.48446" lon="6.58758">
        <ele>43.2</ele>
        <time>2025-02-26T14:25:57Z</time>
      </trkpt>
      <trkpt lat="43.48446" lon="6.58758">
        <ele>43.2</ele>
        <time>2025-02-26T14:25:58Z</time>
      </trkpt>
      <trkpt lat="43.48446" lon="6.58758">
        <ele>43.3</ele>
        <time>2025-02-26T14:25:59Z</time>
      </trkpt>
      <trkpt lat="43.48446" lon="6.58757">
        <ele>43.3</ele>
        <time>2025-02-26T14:26:00Z</time>
      </trkpt>
      <trkpt lat="43.48446" lon="6.58757">
        <ele>43.3</ele>
        <time>2025-02-26T14:26:01Z</time>
      </trkpt>
      <trkpt lat="43.48446" lon="6.58758">
        <ele>43.2</ele>
        <time>2025-02-26T14:26:02Z</time>
      </trkpt>
      <trkpt lat="43.48446" lon="6.58758">
        <ele>43.2</ele>
        <time>2025-02-26T14:26:03Z</time>
      </trkpt>
      <trkpt lat="43.48446" lon="6.58758">
        <ele>43.1</ele>
        <time>2025-02-26T14:26:04Z</time>
      </trkpt>
      <trkpt lat="43.48446" lon="6.58758">
        <ele>43.1</ele>
        <time>2025-02-26T14:26:05Z</time>
      </trkpt>
      <trkpt lat="43.48446" lon="6.58758">
        <ele>43.1</ele>
        <time>2025-02-26T14:26:06Z</time>
      </trkpt>
      <trkpt lat="43.48446" lon="6.58758">
        <ele>43.1</ele>
        <time>2025-02-26T14:26:07Z</time>
      </trkpt>
      <trkpt lat="43.48446" lon="6.58758">
        <ele>43.1</ele>
        <time>2025-02-26T14:26:08Z</time>
      </trkpt>
      <trkpt lat="43.48446" lon="6.58758">
        <ele>43.1</ele>
        <time>2025-02-26T14:26:09Z</time>
      </trkpt>
      <trkpt lat="43.48446" lon="6.58758">
        <ele>43.2</ele>
        <time>2025-02-26T14:26:10Z</time>
      </trkpt>
      <trkpt lat="43.48446" lon="6.58758">
        <ele>43.2</ele>
        <time>2025-02-26T14:26:11Z</time>
      </trkpt>
      <trkpt lat="43.48446" lon="6.58758">
        <ele>43.2</ele>
        <time>2025-02-26T14:26:12Z</time>
      </trkpt>
      <trkpt lat="43.48446" lon="6.58758">
        <ele>43.2</ele>
        <time>2025-02-26T14:26:13Z</time>
      </trkpt>
      <trkpt lat="43.48446" lon="6.58758">
        <ele>43.1</ele>
        <time>2025-02-26T14:26:14Z</time>
      </trkpt>
      <trkpt lat="43.48446" lon="6.58758">
        <ele>43.1</ele>
        <time>2025-02-26T14:26:15Z</time>
      </trkpt>
      <trkpt lat="43.48446" lon="6.58758">
        <ele>43</ele>
        <time>2025-02-26T14:26:16Z</time>
      </trkpt>
      <trkpt lat="43.48446" lon="6.58758">
        <ele>43</ele>
        <time>2025-02-26T14:26:17Z</time>
      </trkpt>
      <trkpt lat="43.48446" lon="6.58758">
        <ele>43</ele>
        <time>2025-02-26T14:26:18Z</time>
      </trkpt>
      <trkpt lat="43.48446" lon="6.58758">
        <ele>43.1</ele>
        <time>2025-02-26T14:26:19Z</time>
      </trkpt>
      <trkpt lat="43.48446" lon="6.58758">
        <ele>43.1</ele>
        <time>2025-02-26T14:26:20Z</time>
      </trkpt>
      <trkpt lat="43.48446" lon="6.58758">
        <ele>43.2</ele>
        <time>2025-02-26T14:26:21Z</time>
      </trkpt>
      <trkpt lat="43.48446" lon="6.58758">
        <ele>43.2</ele>
        <time>2025-02-26T14:26:22Z</time>
      </trkpt>
      <trkpt lat="43.48446" lon="6.58758">
        <ele>43.3</ele>
        <time>2025-02-26T14:26:23Z</time>
      </trkpt>
      <trkpt lat="43.48446" lon="6.58758">
        <ele>43.4</ele>
        <time>2025-02-26T14:26:24Z</time>
      </trkpt>
      <trkpt lat="43.48446" lon="6.58758">
        <ele>43.3</ele>
        <time>2025-02-26T14:26:25Z</time>
      </trkpt>
      <trkpt lat="43.48446" lon="6.58757">
        <ele>43.3</ele>
        <time>2025-02-26T14:26:26Z</time>
      </trkpt>
      <trkpt lat="43.48446" lon="6.58757">
        <ele>43.4</ele>
        <time>2025-02-26T14:26:27Z</time>
      </trkpt>
      <trkpt lat="43.48445" lon="6.58757">
        <ele>43.5</ele>
        <time>2025-02-26T14:26:28Z</time>
      </trkpt>
      <trkpt lat="43.48445" lon="6.58758">
        <ele>43.5</ele>
        <time>2025-02-26T14:26:29Z</time>
      </trkpt>
      <trkpt lat="43.48444" lon="6.58759">
        <ele>43.4</ele>
        <time>2025-02-26T14:26:30Z</time>
      </trkpt>
      <trkpt lat="43.48444" lon="6.5876">
        <ele>43.4</ele>
        <time>2025-02-26T14:26:31Z</time>
      </trkpt>
      <trkpt lat="43.48443" lon="6.58761">
        <ele>43.3</ele>
        <time>2025-02-26T14:26:32Z</time>
      </trkpt>
      <trkpt lat="43.48442" lon="6.58762">
        <ele>43.2</ele>
        <time>2025-02-26T14:26:33Z</time>
      </trkpt>
      <trkpt lat="43.48441" lon="6.58763">
        <ele>43.1</ele>
        <time>2025-02-26T14:26:34Z</time>
      </trkpt>
      <trkpt lat="43.48441" lon="6.58763">
        <ele>43</ele>
        <time>2025-02-26T14:26:35Z</time>
      </trkpt>
      <trkpt lat="43.4844" lon="6.58765">
        <ele>42.8</ele>
        <time>2025-02-26T14:26:36Z</time>
      </trkpt>
      <trkpt lat="43.4844" lon="6.58765">
        <ele>42.7</ele>
        <time>2025-02-26T14:26:37Z</time>
      </trkpt>
      <trkpt lat="43.48439" lon="6.58766">
        <ele>42.6</ele>
        <time>2025-02-26T14:26:38Z</time>
      </trkpt>
      <trkpt lat="43.48438" lon="6.58767">
        <ele>42.4</ele>
        <time>2025-02-26T14:26:39Z</time>
      </trkpt>
      <trkpt lat="43.48438" lon="6.58767">
        <ele>42.3</ele>
        <time>2025-02-26T14:26:40Z</time>
      </trkpt>
      <trkpt lat="43.48437" lon="6.58768">
        <ele>42.3</ele>
        <time>2025-02-26T14:26:41Z</time>
      </trkpt>
      <trkpt lat="43.48437" lon="6.58769">
        <ele>42.1</ele>
        <time>2025-02-26T14:26:42Z</time>
      </trkpt>
      <trkpt lat="43.48437" lon="6.58769">
        <ele>41.9</ele>
        <time>2025-02-26T14:26:43Z</time>
      </trkpt>
      <trkpt lat="43.48436" lon="6.5877">
        <ele>41.7</ele>
        <time>2025-02-26T14:26:44Z</time>
      </trkpt>
      <trkpt lat="43.48436" lon="6.58771">
        <ele>41.5</ele>
        <time>2025-02-26T14:26:45Z</time>
      </trkpt>
      <trkpt lat="43.48435" lon="6.58772">
        <ele>41.3</ele>
        <time>2025-02-26T14:26:46Z</time>
      </trkpt>
      <trkpt lat="43.48435" lon="6.58773">
        <ele>41.2</ele>
        <time>2025-02-26T14:26:47Z</time>
      </trkpt>
      <trkpt lat="43.48434" lon="6.58774">
        <ele>41</ele>
        <time>2025-02-26T14:26:48Z</time>
      </trkpt>
      <trkpt lat="43.48434" lon="6.58775">
        <ele>40.8</ele>
        <time>2025-02-26T14:26:49Z</time>
      </trkpt>
      <trkpt lat="43.48433" lon="6.58776">
        <ele>40.6</ele>
        <time>2025-02-26T14:26:50Z</time>
      </trkpt>
      <trkpt lat="43.48433" lon="6.58778">
        <ele>40.4</ele>
        <time>2025-02-26T14:26:51Z</time>
      </trkpt>
      <trkpt lat="43.48433" lon="6.58779">
        <ele>40.2</ele>
        <time>2025-02-26T14:26:52Z</time>
      </trkpt>
      <trkpt lat="43.48432" lon="6.58781">
        <ele>40.2</ele>
        <time>2025-02-26T14:26:53Z</time>
      </trkpt>
      <trkpt lat="43.48432" lon="6.58782">
        <ele>40</ele>
        <time>2025-02-26T14:26:54Z</time>
      </trkpt>
      <trkpt lat="43.48432" lon="6.58783">
        <ele>40</ele>
        <time>2025-02-26T14:26:55Z</time>
      </trkpt>
      <trkpt lat="43.48431" lon="6.58785">
        <ele>39.9</ele>
        <time>2025-02-26T14:26:56Z</time>
      </trkpt>
      <trkpt lat="43.4843" lon="6.58785">
        <ele>39.9</ele>
        <time>2025-02-26T14:26:57Z</time>
      </trkpt>
      <trkpt lat="43.48429" lon="6.58786">
        <ele>39.8</ele>
        <time>2025-02-26T14:26:58Z</time>
      </trkpt>
      <trkpt lat="43.48428" lon="6.58787">
        <ele>39.7</ele>
        <time>2025-02-26T14:26:59Z</time>
      </trkpt>
      <trkpt lat="43.48427" lon="6.58788">
        <ele>39.6</ele>
        <time>2025-02-26T14:27:00Z</time>
      </trkpt>
      <trkpt lat="43.48426" lon="6.58788">
        <ele>39.5</ele>
        <time>2025-02-26T14:27:01Z</time>
      </trkpt>
      <trkpt lat="43.48426" lon="6.58789">
        <ele>39.3</ele>
        <time>2025-02-26T14:27:02Z</time>
      </trkpt>
      <trkpt lat="43.48425" lon="6.58789">
        <ele>39.1</ele>
        <time>2025-02-26T14:27:03Z</time>
      </trkpt>
      <trkpt lat="43.48424" lon="6.5879">
        <ele>39</ele>
        <time>2025-02-26T14:27:04Z</time>
      </trkpt>
      <trkpt lat="43.48423" lon="6.58791">
        <ele>38.9</ele>
        <time>2025-02-26T14:27:05Z</time>
      </trkpt>
      <trkpt lat="43.48422" lon="6.58792">
        <ele>38.9</ele>
        <time>2025-02-26T14:27:06Z</time>
      </trkpt>
      <trkpt lat="43.48421" lon="6.58793">
        <ele>38.8</ele>
        <time>2025-02-26T14:27:07Z</time>
      </trkpt>
      <trkpt lat="43.4842" lon="6.58794">
        <ele>38.8</ele>
        <time>2025-02-26T14:27:08Z</time>
      </trkpt>
      <trkpt lat="43.4842" lon="6.58795">
        <ele>38.7</ele>
        <time>2025-02-26T14:27:09Z</time>
      </trkpt>
      <trkpt lat="43.48419" lon="6.58796">
        <ele>38.6</ele>
        <time>2025-02-26T14:27:10Z</time>
      </trkpt>
      <trkpt lat="43.48418" lon="6.58797">
        <ele>38.5</ele>
        <time>2025-02-26T14:27:11Z</time>
      </trkpt>
      <trkpt lat="43.48417" lon="6.58797">
        <ele>38.4</ele>
        <time>2025-02-26T14:27:12Z</time>
      </trkpt>
      <trkpt lat="43.48416" lon="6.58797">
        <ele>38.4</ele>
        <time>2025-02-26T14:27:13Z</time>
      </trkpt>
      <trkpt lat="43.48416" lon="6.58799">
        <ele>38.3</ele>
        <time>2025-02-26T14:27:14Z</time>
      </trkpt>
      <trkpt lat="43.48415" lon="6.588">
        <ele>38.2</ele>
        <time>2025-02-26T14:27:15Z</time>
      </trkpt>
      <trkpt lat="43.48415" lon="6.58801">
        <ele>38.1</ele>
        <time>2025-02-26T14:27:16Z</time>
      </trkpt>
      <trkpt lat="43.48414" lon="6.58801">
        <ele>38</ele>
        <time>2025-02-26T14:27:17Z</time>
      </trkpt>
      <trkpt lat="43.48413" lon="6.58802">
        <ele>37.8</ele>
        <time>2025-02-26T14:27:18Z</time>
      </trkpt>
      <trkpt lat="43.48412" lon="6.58803">
        <ele>37.7</ele>
        <time>2025-02-26T14:27:19Z</time>
      </trkpt>
      <trkpt lat="43.48411" lon="6.58804">
        <ele>37.5</ele>
        <time>2025-02-26T14:27:20Z</time>
      </trkpt>
      <trkpt lat="43.4841" lon="6.58805">
        <ele>37.5</ele>
        <time>2025-02-26T14:27:21Z</time>
      </trkpt>
      <trkpt lat="43.48409" lon="6.58806">
        <ele>37.4</ele>
        <time>2025-02-26T14:27:22Z</time>
      </trkpt>
      <trkpt lat="43.48408" lon="6.58808">
        <ele>37.3</ele>
        <time>2025-02-26T14:27:23Z</time>
      </trkpt>
      <trkpt lat="43.48407" lon="6.58809">
        <ele>37.3</ele>
        <time>2025-02-26T14:27:24Z</time>
      </trkpt>
      <trkpt lat="43.48406" lon="6.5881">
        <ele>37.2</ele>
        <time>2025-02-26T14:27:25Z</time>
      </trkpt>
      <trkpt lat="43.48406" lon="6.58811">
        <ele>37.2</ele>
        <time>2025-02-26T14:27:26Z</time>
      </trkpt>
      <trkpt lat="43.48405" lon="6.58812">
        <ele>37.3</ele>
        <time>2025-02-26T14:27:27Z</time>
      </trkpt>
      <trkpt lat="43.48404" lon="6.58813">
        <ele>37.2</ele>
        <time>2025-02-26T14:27:28Z</time>
      </trkpt>
      <trkpt lat="43.48403" lon="6.58814">
        <ele>37.3</ele>
        <time>2025-02-26T14:27:29Z</time>
      </trkpt>
      <trkpt lat="43.48403" lon="6.58816">
        <ele>37.4</ele>
        <time>2025-02-26T14:27:30Z</time>
      </trkpt>
      <trkpt lat="43.48402" lon="6.58817">
        <ele>37.4</ele>
        <time>2025-02-26T14:27:31Z</time>
      </trkpt>
      <trkpt lat="43.48401" lon="6.58819">
        <ele>37.3</ele>
        <time>2025-02-26T14:27:32Z</time>
      </trkpt>
      <trkpt lat="43.48401" lon="6.5882">
        <ele>37.3</ele>
        <time>2025-02-26T14:27:33Z</time>
      </trkpt>
      <trkpt lat="43.484" lon="6.58821">
        <ele>37.3</ele>
        <time>2025-02-26T14:27:34Z</time>
      </trkpt>
      <trkpt lat="43.48399" lon="6.58823">
        <ele>37.3</ele>
        <time>2025-02-26T14:27:35Z</time>
      </trkpt>
      <trkpt lat="43.48399" lon="6.58824">
        <ele>37.2</ele>
        <time>2025-02-26T14:27:36Z</time>
      </trkpt>
      <trkpt lat="43.48398" lon="6.58825">
        <ele>37.1</ele>
        <time>2025-02-26T14:27:37Z</time>
      </trkpt>
      <trkpt lat="43.48398" lon="6.58827">
        <ele>37</ele>
        <time>2025-02-26T14:27:38Z</time>
      </trkpt>
      <trkpt lat="43.48397" lon="6.58828">
        <ele>36.8</ele>
        <time>2025-02-26T14:27:39Z</time>
      </trkpt>
      <trkpt lat="43.48396" lon="6.5883">
        <ele>36.6</ele>
        <time>2025-02-26T14:27:40Z</time>
      </trkpt>
      <trkpt lat="43.48396" lon="6.58831">
        <ele>36.5</ele>
        <time>2025-02-26T14:27:41Z</time>
      </trkpt>
      <trkpt lat="43.48395" lon="6.58832">
        <ele>36.4</ele>
        <time>2025-02-26T14:27:42Z</time>
      </trkpt>
      <trkpt lat="43.48395" lon="6.58834">
        <ele>36.1</ele>
        <time>2025-02-26T14:27:43Z</time>
      </trkpt>
      <trkpt lat="43.48394" lon="6.58836">
        <ele>35.9</ele>
        <time>2025-02-26T14:27:44Z</time>
      </trkpt>
      <trkpt lat="43.48394" lon="6.58837">
        <ele>35.7</ele>
        <time>2025-02-26T14:27:45Z</time>
      </trkpt>
      <trkpt lat="43.48394" lon="6.58838">
        <ele>35.5</ele>
        <time>2025-02-26T14:27:46Z</time>
      </trkpt>
      <trkpt lat="43.48394" lon="6.5884">
        <ele>35.4</ele>
        <time>2025-02-26T14:27:47Z</time>
      </trkpt>
      <trkpt lat="43.48393" lon="6.58841">
        <ele>35.3</ele>
        <time>2025-02-26T14:27:48Z</time>
      </trkpt>
      <trkpt lat="43.48393" lon="6.58843">
        <ele>35.2</ele>
        <time>2025-02-26T14:27:49Z</time>
      </trkpt>
      <trkpt lat="43.48392" lon="6.58844">
        <ele>34.9</ele>
        <time>2025-02-26T14:27:50Z</time>
      </trkpt>
      <trkpt lat="43.48392" lon="6.58845">
        <ele>34.8</ele>
        <time>2025-02-26T14:27:51Z</time>
      </trkpt>
      <trkpt lat="43.48391" lon="6.58846">
        <ele>34.7</ele>
        <time>2025-02-26T14:27:52Z</time>
      </trkpt>
      <trkpt lat="43.4839" lon="6.58847">
        <ele>34.7</ele>
        <time>2025-02-26T14:27:53Z</time>
      </trkpt>
      <trkpt lat="43.4839" lon="6.58848">
        <ele>34.7</ele>
        <time>2025-02-26T14:27:54Z</time>
      </trkpt>
      <trkpt lat="43.48389" lon="6.58849">
        <ele>34.5</ele>
        <time>2025-02-26T14:27:55Z</time>
      </trkpt>
      <trkpt lat="43.48389" lon="6.5885">
        <ele>34.5</ele>
        <time>2025-02-26T14:27:56Z</time>
      </trkpt>
      <trkpt lat="43.48388" lon="6.58851">
        <ele>34.4</ele>
        <time>2025-02-26T14:27:57Z</time>
      </trkpt>
      <trkpt lat="43.48388" lon="6.58853">
        <ele>34.3</ele>
        <time>2025-02-26T14:27:58Z</time>
      </trkpt>
      <trkpt lat="43.48387" lon="6.58854">
        <ele>34.2</ele>
        <time>2025-02-26T14:27:59Z</time>
      </trkpt>
      <trkpt lat="43.48386" lon="6.58856">
        <ele>34.1</ele>
        <time>2025-02-26T14:28:00Z</time>
      </trkpt>
      <trkpt lat="43.48386" lon="6.58857">
        <ele>34</ele>
        <time>2025-02-26T14:28:01Z</time>
      </trkpt>
      <trkpt lat="43.48386" lon="6.58858">
        <ele>34</ele>
        <time>2025-02-26T14:28:02Z</time>
      </trkpt>
      <trkpt lat="43.48385" lon="6.5886">
        <ele>34.1</ele>
        <time>2025-02-26T14:28:03Z</time>
      </trkpt>
      <trkpt lat="43.48385" lon="6.58861">
        <ele>34</ele>
        <time>2025-02-26T14:28:04Z</time>
      </trkpt>
      <trkpt lat="43.48384" lon="6.58863">
        <ele>33.9</ele>
        <time>2025-02-26T14:28:05Z</time>
      </trkpt>
      <trkpt lat="43.48384" lon="6.58864">
        <ele>34</ele>
        <time>2025-02-26T14:28:06Z</time>
      </trkpt>
      <trkpt lat="43.48383" lon="6.58866">
        <ele>34</ele>
        <time>2025-02-26T14:28:07Z</time>
      </trkpt>
      <trkpt lat="43.48383" lon="6.58867">
        <ele>34</ele>
        <time>2025-02-26T14:28:08Z</time>
      </trkpt>
      <trkpt lat="43.48383" lon="6.58869">
        <ele>34.1</ele>
        <time>2025-02-26T14:28:09Z</time>
      </trkpt>
      <trkpt lat="43.48382" lon="6.5887">
        <ele>34.1</ele>
        <time>2025-02-26T14:28:10Z</time>
      </trkpt>
      <trkpt lat="43.48382" lon="6.58872">
        <ele>34</ele>
        <time>2025-02-26T14:28:11Z</time>
      </trkpt>
      <trkpt lat="43.48382" lon="6.58873">
        <ele>34</ele>
        <time>2025-02-26T14:28:12Z</time>
      </trkpt>
      <trkpt lat="43.48382" lon="6.58874">
        <ele>34</ele>
        <time>2025-02-26T14:28:13Z</time>
      </trkpt>
      <trkpt lat="43.48381" lon="6.58876">
        <ele>33.9</ele>
        <time>2025-02-26T14:28:14Z</time>
      </trkpt>
      <trkpt lat="43.48381" lon="6.58877">
        <ele>33.9</ele>
        <time>2025-02-26T14:28:15Z</time>
      </trkpt>
      <trkpt lat="43.48381" lon="6.58879">
        <ele>33.8</ele>
        <time>2025-02-26T14:28:16Z</time>
      </trkpt>
      <trkpt lat="43.48381" lon="6.58881">
        <ele>33.9</ele>
        <time>2025-02-26T14:28:17Z</time>
      </trkpt>
      <trkpt lat="43.48381" lon="6.58882">
        <ele>33.8</ele>
        <time>2025-02-26T14:28:18Z</time>
      </trkpt>
      <trkpt lat="43.48381" lon="6.58884">
        <ele>33.7</ele>
        <time>2025-02-26T14:28:19Z</time>
      </trkpt>
      <trkpt lat="43.4838" lon="6.58885">
        <ele>33.8</ele>
        <time>2025-02-26T14:28:20Z</time>
      </trkpt>
      <trkpt lat="43.4838" lon="6.58887">
        <ele>33.9</ele>
        <time>2025-02-26T14:28:21Z</time>
      </trkpt>
      <trkpt lat="43.4838" lon="6.58888">
        <ele>34</ele>
        <time>2025-02-26T14:28:22Z</time>
      </trkpt>
      <trkpt lat="43.4838" lon="6.58889">
        <ele>34</ele>
        <time>2025-02-26T14:28:23Z</time>
      </trkpt>
      <trkpt lat="43.4838" lon="6.5889">
        <ele>34.1</ele>
        <time>2025-02-26T14:28:24Z</time>
      </trkpt>
      <trkpt lat="43.4838" lon="6.58892">
        <ele>34.2</ele>
        <time>2025-02-26T14:28:25Z</time>
      </trkpt>
      <trkpt lat="43.4838" lon="6.58893">
        <ele>34.3</ele>
        <time>2025-02-26T14:28:26Z</time>
      </trkpt>
      <trkpt lat="43.4838" lon="6.58894">
        <ele>34.6</ele>
        <time>2025-02-26T14:28:27Z</time>
      </trkpt>
      <trkpt lat="43.4838" lon="6.58895">
        <ele>34.7</ele>
        <time>2025-02-26T14:28:28Z</time>
      </trkpt>
      <trkpt lat="43.4838" lon="6.58896">
        <ele>34.8</ele>
        <time>2025-02-26T14:28:29Z</time>
      </trkpt>
      <trkpt lat="43.48379" lon="6.58898">
        <ele>34.8</ele>
        <time>2025-02-26T14:28:30Z</time>
      </trkpt>
      <trkpt lat="43.48379" lon="6.58899">
        <ele>35</ele>
        <time>2025-02-26T14:28:31Z</time>
      </trkpt>
      <trkpt lat="43.48379" lon="6.589">
        <ele>35.2</ele>
        <time>2025-02-26T14:28:32Z</time>
      </trkpt>
      <trkpt lat="43.48379" lon="6.58901">
        <ele>35.4</ele>
        <time>2025-02-26T14:28:33Z</time>
      </trkpt>
      <trkpt lat="43.48379" lon="6.58902">
        <ele>35.4</ele>
        <time>2025-02-26T14:28:34Z</time>
      </trkpt>
      <trkpt lat="43.48379" lon="6.58903">
        <ele>35.4</ele>
        <time>2025-02-26T14:28:35Z</time>
      </trkpt>
      <trkpt lat="43.48378" lon="6.58905">
        <ele>35.6</ele>
        <time>2025-02-26T14:28:36Z</time>
      </trkpt>
      <trkpt lat="43.48378" lon="6.58906">
        <ele>35.8</ele>
        <time>2025-02-26T14:28:37Z</time>
      </trkpt>
      <trkpt lat="43.48378" lon="6.58908">
        <ele>36</ele>
        <time>2025-02-26T14:28:38Z</time>
      </trkpt>
      <trkpt lat="43.48378" lon="6.58909">
        <ele>36.1</ele>
        <time>2025-02-26T14:28:39Z</time>
      </trkpt>
      <trkpt lat="43.48378" lon="6.5891">
        <ele>36.3</ele>
        <time>2025-02-26T14:28:40Z</time>
      </trkpt>
      <trkpt lat="43.48378" lon="6.58912">
        <ele>36.4</ele>
        <time>2025-02-26T14:28:41Z</time>
      </trkpt>
      <trkpt lat="43.48379" lon="6.58913">
        <ele>36.5</ele>
        <time>2025-02-26T14:28:42Z</time>
      </trkpt>
      <trkpt lat="43.48379" lon="6.58914">
        <ele>36.6</ele>
        <time>2025-02-26T14:28:43Z</time>
      </trkpt>
      <trkpt lat="43.48379" lon="6.58915">
        <ele>36.7</ele>
        <time>2025-02-26T14:28:44Z</time>
      </trkpt>
      <trkpt lat="43.48379" lon="6.58917">
        <ele>36.8</ele>
        <time>2025-02-26T14:28:45Z</time>
      </trkpt>
      <trkpt lat="43.4838" lon="6.58918">
        <ele>37.1</ele>
        <time>2025-02-26T14:28:46Z</time>
      </trkpt>
      <trkpt lat="43.48381" lon="6.58919">
        <ele>37.2</ele>
        <time>2025-02-26T14:28:47Z</time>
      </trkpt>
      <trkpt lat="43.48382" lon="6.5892">
        <ele>37.3</ele>
        <time>2025-02-26T14:28:48Z</time>
      </trkpt>
      <trkpt lat="43.48382" lon="6.58921">
        <ele>37.3</ele>
        <time>2025-02-26T14:28:49Z</time>
      </trkpt>
      <trkpt lat="43.48383" lon="6.58921">
        <ele>37.3</ele>
        <time>2025-02-26T14:28:50Z</time>
      </trkpt>
      <trkpt lat="43.48384" lon="6.58922">
        <ele>37.4</ele>
        <time>2025-02-26T14:28:51Z</time>
      </trkpt>
      <trkpt lat="43.48385" lon="6.58922">
        <ele>37.6</ele>
        <time>2025-02-26T14:28:52Z</time>
      </trkpt>
      <trkpt lat="43.48386" lon="6.58922">
        <ele>37.7</ele>
        <time>2025-02-26T14:28:53Z</time>
      </trkpt>
      <trkpt lat="43.48386" lon="6.58922">
        <ele>37.8</ele>
        <time>2025-02-26T14:28:54Z</time>
      </trkpt>
      <trkpt lat="43.48386" lon="6.58922">
        <ele>37.9</ele>
        <time>2025-02-26T14:28:55Z</time>
      </trkpt>
      <trkpt lat="43.48387" lon="6.58922">
        <ele>37.9</ele>
        <time>2025-02-26T14:28:56Z</time>
      </trkpt>
      <trkpt lat="43.48388" lon="6.58922">
        <ele>38</ele>
        <time>2025-02-26T14:28:57Z</time>
      </trkpt>
      <trkpt lat="43.48389" lon="6.58923">
        <ele>38.1</ele>
        <time>2025-02-26T14:28:58Z</time>
      </trkpt>
      <trkpt lat="43.4839" lon="6.58923">
        <ele>38.2</ele>
        <time>2025-02-26T14:28:59Z</time>
      </trkpt>
      <trkpt lat="43.48391" lon="6.58923">
        <ele>38.3</ele>
        <time>2025-02-26T14:29:00Z</time>
      </trkpt>
      <trkpt lat="43.48392" lon="6.58923">
        <ele>38.4</ele>
        <time>2025-02-26T14:29:01Z</time>
      </trkpt>
      <trkpt lat="43.48392" lon="6.58923">
        <ele>38.5</ele>
        <time>2025-02-26T14:29:02Z</time>
      </trkpt>
      <trkpt lat="43.48393" lon="6.58923">
        <ele>38.5</ele>
        <time>2025-02-26T14:29:03Z</time>
      </trkpt>
      <trkpt lat="43.48394" lon="6.58924">
        <ele>38.6</ele>
        <time>2025-02-26T14:29:04Z</time>
      </trkpt>
      <trkpt lat="43.48395" lon="6.58924">
        <ele>38.7</ele>
        <time>2025-02-26T14:29:05Z</time>
      </trkpt>
      <trkpt lat="43.48395" lon="6.58925">
        <ele>38.7</ele>
        <time>2025-02-26T14:29:06Z</time>
      </trkpt>
      <trkpt lat="43.48396" lon="6.58925">
        <ele>38.8</ele>
        <time>2025-02-26T14:29:07Z</time>
      </trkpt>
      <trkpt lat="43.48397" lon="6.58925">
        <ele>38.9</ele>
        <time>2025-02-26T14:29:08Z</time>
      </trkpt>
      <trkpt lat="43.48398" lon="6.58925">
        <ele>39</ele>
        <time>2025-02-26T14:29:09Z</time>
      </trkpt>
      <trkpt lat="43.48399" lon="6.58924">
        <ele>39</ele>
        <time>2025-02-26T14:29:10Z</time>
      </trkpt>
      <trkpt lat="43.48399" lon="6.58924">
        <ele>39.2</ele>
        <time>2025-02-26T14:29:11Z</time>
      </trkpt>
      <trkpt lat="43.484" lon="6.58923">
        <ele>39.3</ele>
        <time>2025-02-26T14:29:12Z</time>
      </trkpt>
      <trkpt lat="43.48401" lon="6.58922">
        <ele>39.4</ele>
        <time>2025-02-26T14:29:13Z</time>
      </trkpt>
      <trkpt lat="43.48402" lon="6.58921">
        <ele>39.5</ele>
        <time>2025-02-26T14:29:14Z</time>
      </trkpt>
      <trkpt lat="43.48402" lon="6.58921">
        <ele>39.5</ele>
        <time>2025-02-26T14:29:15Z</time>
      </trkpt>
      <trkpt lat="43.48403" lon="6.5892">
        <ele>39.6</ele>
        <time>2025-02-26T14:29:16Z</time>
      </trkpt>
      <trkpt lat="43.48404" lon="6.5892">
        <ele>39.7</ele>
        <time>2025-02-26T14:29:17Z</time>
      </trkpt>
      <trkpt lat="43.48405" lon="6.5892">
        <ele>39.7</ele>
        <time>2025-02-26T14:29:18Z</time>
      </trkpt>
      <trkpt lat="43.48405" lon="6.5892">
        <ele>39.8</ele>
        <time>2025-02-26T14:29:19Z</time>
      </trkpt>
      <trkpt lat="43.48406" lon="6.5892">
        <ele>39.7</ele>
        <time>2025-02-26T14:29:20Z</time>
      </trkpt>
      <trkpt lat="43.48408" lon="6.58921">
        <ele>39.7</ele>
        <time>2025-02-26T14:29:21Z</time>
      </trkpt>
      <trkpt lat="43.48409" lon="6.58921">
        <ele>39.8</ele>
        <time>2025-02-26T14:29:22Z</time>
      </trkpt>
      <trkpt lat="43.4841" lon="6.58922">
        <ele>39.9</ele>
        <time>2025-02-26T14:29:23Z</time>
      </trkpt>
      <trkpt lat="43.48411" lon="6.58922">
        <ele>40</ele>
        <time>2025-02-26T14:29:24Z</time>
      </trkpt>
      <trkpt lat="43.48412" lon="6.58922">
        <ele>39.9</ele>
        <time>2025-02-26T14:29:25Z</time>
      </trkpt>
      <trkpt lat="43.48413" lon="6.58922">
        <ele>40.1</ele>
        <time>2025-02-26T14:29:26Z</time>
      </trkpt>
      <trkpt lat="43.48414" lon="6.58922">
        <ele>40.2</ele>
        <time>2025-02-26T14:29:27Z</time>
      </trkpt>
      <trkpt lat="43.48415" lon="6.58922">
        <ele>40.3</ele>
        <time>2025-02-26T14:29:28Z</time>
      </trkpt>
      <trkpt lat="43.48416" lon="6.58922">
        <ele>40.4</ele>
        <time>2025-02-26T14:29:29Z</time>
      </trkpt>
      <trkpt lat="43.48417" lon="6.58922">
        <ele>40.6</ele>
        <time>2025-02-26T14:29:30Z</time>
      </trkpt>
      <trkpt lat="43.48418" lon="6.58922">
        <ele>40.7</ele>
        <time>2025-02-26T14:29:31Z</time>
      </trkpt>
      <trkpt lat="43.48419" lon="6.58923">
        <ele>40.9</ele>
        <time>2025-02-26T14:29:32Z</time>
      </trkpt>
      <trkpt lat="43.4842" lon="6.58924">
        <ele>41</ele>
        <time>2025-02-26T14:29:33Z</time>
      </trkpt>
      <trkpt lat="43.48421" lon="6.58924">
        <ele>41.1</ele>
        <time>2025-02-26T14:29:34Z</time>
      </trkpt>
      <trkpt lat="43.48422" lon="6.58925">
        <ele>41.2</ele>
        <time>2025-02-26T14:29:35Z</time>
      </trkpt>
      <trkpt lat="43.48423" lon="6.58925">
        <ele>41.4</ele>
        <time>2025-02-26T14:29:36Z</time>
      </trkpt>
      <trkpt lat="43.48424" lon="6.58925">
        <ele>41.5</ele>
        <time>2025-02-26T14:29:37Z</time>
      </trkpt>
      <trkpt lat="43.48425" lon="6.58925">
        <ele>41.5</ele>
        <time>2025-02-26T14:29:38Z</time>
      </trkpt>
      <trkpt lat="43.48426" lon="6.58924">
        <ele>41.7</ele>
        <time>2025-02-26T14:29:39Z</time>
      </trkpt>
      <trkpt lat="43.48427" lon="6.58924">
        <ele>41.8</ele>
        <time>2025-02-26T14:29:40Z</time>
      </trkpt>
      <trkpt lat="43.48427" lon="6.58923">
        <ele>42</ele>
        <time>2025-02-26T14:29:41Z</time>
      </trkpt>
      <trkpt lat="43.48428" lon="6.58922">
        <ele>42.1</ele>
        <time>2025-02-26T14:29:42Z</time>
      </trkpt>
      <trkpt lat="43.48429" lon="6.58921">
        <ele>42.2</ele>
        <time>2025-02-26T14:29:43Z</time>
      </trkpt>
      <trkpt lat="43.48429" lon="6.5892">
        <ele>42.4</ele>
        <time>2025-02-26T14:29:44Z</time>
      </trkpt>
      <trkpt lat="43.4843" lon="6.5892">
        <ele>42.5</ele>
        <time>2025-02-26T14:29:45Z</time>
      </trkpt>
      <trkpt lat="43.48431" lon="6.58919">
        <ele>42.5</ele>
        <time>2025-02-26T14:29:46Z</time>
      </trkpt>
      <trkpt lat="43.48432" lon="6.58918">
        <ele>42.6</ele>
        <time>2025-02-26T14:29:47Z</time>
      </trkpt>
      <trkpt lat="43.48432" lon="6.58917">
        <ele>42.6</ele>
        <time>2025-02-26T14:29:48Z</time>
      </trkpt>
      <trkpt lat="43.48433" lon="6.58916">
        <ele>42.7</ele>
        <time>2025-02-26T14:29:49Z</time>
      </trkpt>
      <trkpt lat="43.48434" lon="6.58916">
        <ele>42.9</ele>
        <time>2025-02-26T14:29:50Z</time>
      </trkpt>
      <trkpt lat="43.48434" lon="6.58915">
        <ele>42.9</ele>
        <time>2025-02-26T14:29:51Z</time>
      </trkpt>
      <trkpt lat="43.48435" lon="6.58914">
        <ele>42.9</ele>
        <time>2025-02-26T14:29:52Z</time>
      </trkpt>
      <trkpt lat="43.48436" lon="6.58914">
        <ele>43</ele>
        <time>2025-02-26T14:29:53Z</time>
      </trkpt>
      <trkpt lat="43.48437" lon="6.58913">
        <ele>43.1</ele>
        <time>2025-02-26T14:29:54Z</time>
      </trkpt>
      <trkpt lat="43.48438" lon="6.58913">
        <ele>43.2</ele>
        <time>2025-02-26T14:29:55Z</time>
      </trkpt>
      <trkpt lat="43.48439" lon="6.58912">
        <ele>43.2</ele>
        <time>2025-02-26T14:29:56Z</time>
      </trkpt>
      <trkpt lat="43.4844" lon="6.58912">
        <ele>43.2</ele>
        <time>2025-02-26T14:29:57Z</time>
      </trkpt>
      <trkpt lat="43.48441" lon="6.58911">
        <ele>43.3</ele>
        <time>2025-02-26T14:29:58Z</time>
      </trkpt>
      <trkpt lat="43.48442" lon="6.58911">
        <ele>43.4</ele>
        <time>2025-02-26T14:29:59Z</time>
      </trkpt>
      <trkpt lat="43.48443" lon="6.58911">
        <ele>43.5</ele>
        <time>2025-02-26T14:30:00Z</time>
      </trkpt>
      <trkpt lat="43.48444" lon="6.5891">
        <ele>43.5</ele>
        <time>2025-02-26T14:30:01Z</time>
      </trkpt>
      <trkpt lat="43.48445" lon="6.5891">
        <ele>43.6</ele>
        <time>2025-02-26T14:30:02Z</time>
      </trkpt>
      <trkpt lat="43.48446" lon="6.5891">
        <ele>43.6</ele>
        <time>2025-02-26T14:30:03Z</time>
      </trkpt>
      <trkpt lat="43.48447" lon="6.5891">
        <ele>43.7</ele>
        <time>2025-02-26T14:30:04Z</time>
      </trkpt>
      <trkpt lat="43.48448" lon="6.5891">
        <ele>43.8</ele>
        <time>2025-02-26T14:30:05Z</time>
      </trkpt>
      <trkpt lat="43.48449" lon="6.5891">
        <ele>44</ele>
        <time>2025-02-26T14:30:06Z</time>
      </trkpt>
      <trkpt lat="43.4845" lon="6.5891">
        <ele>44.1</ele>
        <time>2025-02-26T14:30:07Z</time>
      </trkpt>
      <trkpt lat="43.48451" lon="6.58909">
        <ele>44.2</ele>
        <time>2025-02-26T14:30:08Z</time>
      </trkpt>
      <trkpt lat="43.48452" lon="6.58909">
        <ele>44.3</ele>
        <time>2025-02-26T14:30:09Z</time>
      </trkpt>
      <trkpt lat="43.48452" lon="6.58908">
        <ele>44.4</ele>
        <time>2025-02-26T14:30:10Z</time>
      </trkpt>
      <trkpt lat="43.48453" lon="6.58908">
        <ele>44.5</ele>
        <time>2025-02-26T14:30:11Z</time>
      </trkpt>
      <trkpt lat="43.48454" lon="6.58907">
        <ele>44.6</ele>
        <time>2025-02-26T14:30:12Z</time>
      </trkpt>
      <trkpt lat="43.48454" lon="6.58907">
        <ele>44.7</ele>
        <time>2025-02-26T14:30:13Z</time>
      </trkpt>
      <trkpt lat="43.48454" lon="6.58906">
        <ele>44.8</ele>
        <time>2025-02-26T14:30:14Z</time>
      </trkpt>
      <trkpt lat="43.48454" lon="6.58906">
        <ele>44.8</ele>
        <time>2025-02-26T14:30:15Z</time>
      </trkpt>
      <trkpt lat="43.48455" lon="6.58906">
        <ele>44.9</ele>
        <time>2025-02-26T14:30:16Z</time>
      </trkpt>
      <trkpt lat="43.48456" lon="6.58906">
        <ele>44.9</ele>
        <time>2025-02-26T14:30:17Z</time>
      </trkpt>
      <trkpt lat="43.48456" lon="6.58906">
        <ele>45.1</ele>
        <time>2025-02-26T14:30:18Z</time>
      </trkpt>
      <trkpt lat="43.48457" lon="6.58906">
        <ele>45.2</ele>
        <time>2025-02-26T14:30:19Z</time>
      </trkpt>
      <trkpt lat="43.48458" lon="6.58906">
        <ele>45.3</ele>
        <time>2025-02-26T14:30:20Z</time>
      </trkpt>
      <trkpt lat="43.48459" lon="6.58906">
        <ele>45.4</ele>
        <time>2025-02-26T14:30:21Z</time>
      </trkpt>
      <trkpt lat="43.4846" lon="6.58906">
        <ele>45.5</ele>
        <time>2025-02-26T14:30:22Z</time>
      </trkpt>
      <trkpt lat="43.4846" lon="6.58906">
        <ele>45.6</ele>
        <time>2025-02-26T14:30:23Z</time>
      </trkpt>
      <trkpt lat="43.48461" lon="6.58906">
        <ele>45.8</ele>
        <time>2025-02-26T14:30:24Z</time>
      </trkpt>
      <trkpt lat="43.48462" lon="6.58905">
        <ele>45.9</ele>
        <time>2025-02-26T14:30:25Z</time>
      </trkpt>
      <trkpt lat="43.48463" lon="6.58905">
        <ele>46</ele>
        <time>2025-02-26T14:30:26Z</time>
      </trkpt>
      <trkpt lat="43.48464" lon="6.58905">
        <ele>46</ele>
        <time>2025-02-26T14:30:27Z</time>
      </trkpt>
      <trkpt lat="43.48465" lon="6.58904">
        <ele>46.1</ele>
        <time>2025-02-26T14:30:28Z</time>
      </trkpt>
      <trkpt lat="43.48466" lon="6.58903">
        <ele>46.2</ele>
        <time>2025-02-26T14:30:29Z</time>
      </trkpt>
      <trkpt lat="43.48466" lon="6.58903">
        <ele>46.3</ele>
        <time>2025-02-26T14:30:30Z</time>
      </trkpt>
      <trkpt lat="43.48467" lon="6.58903">
        <ele>46.4</ele>
        <time>2025-02-26T14:30:31Z</time>
      </trkpt>
      <trkpt lat="43.48469" lon="6.58903">
        <ele>46.4</ele>
        <time>2025-02-26T14:30:32Z</time>
      </trkpt>
      <trkpt lat="43.4847" lon="6.58903">
        <ele>46.4</ele>
        <time>2025-02-26T14:30:33Z</time>
      </trkpt>
      <trkpt lat="43.48471" lon="6.58903">
        <ele>46.5</ele>
        <time>2025-02-26T14:30:34Z</time>
      </trkpt>
      <trkpt lat="43.48472" lon="6.58902">
        <ele>46.5</ele>
        <time>2025-02-26T14:30:35Z</time>
      </trkpt>
      <trkpt lat="43.48473" lon="6.58902">
        <ele>46.7</ele>
        <time>2025-02-26T14:30:36Z</time>
      </trkpt>
      <trkpt lat="43.48474" lon="6.58902">
        <ele>46.8</ele>
        <time>2025-02-26T14:30:37Z</time>
      </trkpt>
      <trkpt lat="43.48475" lon="6.58903">
        <ele>46.9</ele>
        <time>2025-02-26T14:30:38Z</time>
      </trkpt>
      <trkpt lat="43.48476" lon="6.58903">
        <ele>46.9</ele>
        <time>2025-02-26T14:30:39Z</time>
      </trkpt>
      <trkpt lat="43.48477" lon="6.58902">
        <ele>46.9</ele>
        <time>2025-02-26T14:30:40Z</time>
      </trkpt>
      <trkpt lat="43.48478" lon="6.58902">
        <ele>46.9</ele>
        <time>2025-02-26T14:30:41Z</time>
      </trkpt>
      <trkpt lat="43.48479" lon="6.58901">
        <ele>46.9</ele>
        <time>2025-02-26T14:30:42Z</time>
      </trkpt>
      <trkpt lat="43.4848" lon="6.58901">
        <ele>47</ele>
        <time>2025-02-26T14:30:43Z</time>
      </trkpt>
      <trkpt lat="43.48481" lon="6.589">
        <ele>47.1</ele>
        <time>2025-02-26T14:30:44Z</time>
      </trkpt>
      <trkpt lat="43.48482" lon="6.589">
        <ele>47.2</ele>
        <time>2025-02-26T14:30:45Z</time>
      </trkpt>
      <trkpt lat="43.48483" lon="6.58899">
        <ele>47.3</ele>
        <time>2025-02-26T14:30:46Z</time>
      </trkpt>
      <trkpt lat="43.48484" lon="6.58899">
        <ele>47.2</ele>
        <time>2025-02-26T14:30:47Z</time>
      </trkpt>
      <trkpt lat="43.48485" lon="6.58899">
        <ele>47.2</ele>
        <time>2025-02-26T14:30:48Z</time>
      </trkpt>
      <trkpt lat="43.48486" lon="6.58899">
        <ele>47.2</ele>
        <time>2025-02-26T14:30:49Z</time>
      </trkpt>
      <trkpt lat="43.48487" lon="6.58898">
        <ele>47.2</ele>
        <time>2025-02-26T14:30:50Z</time>
      </trkpt>
      <trkpt lat="43.48487" lon="6.58898">
        <ele>47.2</ele>
        <time>2025-02-26T14:30:51Z</time>
      </trkpt>
      <trkpt lat="43.48489" lon="6.58898">
        <ele>47.2</ele>
        <time>2025-02-26T14:30:52Z</time>
      </trkpt>
      <trkpt lat="43.4849" lon="6.58898">
        <ele>47.2</ele>
        <time>2025-02-26T14:30:53Z</time>
      </trkpt>
      <trkpt lat="43.48491" lon="6.58898">
        <ele>47.3</ele>
        <time>2025-02-26T14:30:54Z</time>
      </trkpt>
      <trkpt lat="43.48492" lon="6.58897">
        <ele>47.4</ele>
        <time>2025-02-26T14:30:55Z</time>
      </trkpt>
      <trkpt lat="43.48492" lon="6.58897">
        <ele>47.5</ele>
        <time>2025-02-26T14:30:56Z</time>
      </trkpt>
      <trkpt lat="43.48493" lon="6.58896">
        <ele>47.6</ele>
        <time>2025-02-26T14:30:57Z</time>
      </trkpt>
      <trkpt lat="43.48494" lon="6.58896">
        <ele>47.5</ele>
        <time>2025-02-26T14:30:58Z</time>
      </trkpt>
      <trkpt lat="43.48495" lon="6.58896">
        <ele>47.6</ele>
        <time>2025-02-26T14:30:59Z</time>
      </trkpt>
      <trkpt lat="43.48496" lon="6.58896">
        <ele>47.6</ele>
        <time>2025-02-26T14:31:00Z</time>
      </trkpt>
      <trkpt lat="43.48497" lon="6.58896">
        <ele>47.8</ele>
        <time>2025-02-26T14:31:01Z</time>
      </trkpt>
      <trkpt lat="43.48498" lon="6.58897">
        <ele>47.9</ele>
        <time>2025-02-26T14:31:02Z</time>
      </trkpt>
      <trkpt lat="43.48498" lon="6.58897">
        <ele>47.8</ele>
        <time>2025-02-26T14:31:03Z</time>
      </trkpt>
      <trkpt lat="43.48499" lon="6.58897">
        <ele>47.9</ele>
        <time>2025-02-26T14:31:04Z</time>
      </trkpt>
      <trkpt lat="43.485" lon="6.58897">
        <ele>47.9</ele>
        <time>2025-02-26T14:31:05Z</time>
      </trkpt>
      <trkpt lat="43.48501" lon="6.58897">
        <ele>47.9</ele>
        <time>2025-02-26T14:31:06Z</time>
      </trkpt>
      <trkpt lat="43.48502" lon="6.58896">
        <ele>48</ele>
        <time>2025-02-26T14:31:07Z</time>
      </trkpt>
      <trkpt lat="43.48503" lon="6.58895">
        <ele>48</ele>
        <time>2025-02-26T14:31:08Z</time>
      </trkpt>
      <trkpt lat="43.48504" lon="6.58895">
        <ele>48</ele>
        <time>2025-02-26T14:31:09Z</time>
      </trkpt>
      <trkpt lat="43.48504" lon="6.58894">
        <ele>48.1</ele>
        <time>2025-02-26T14:31:10Z</time>
      </trkpt>
      <trkpt lat="43.48505" lon="6.58894">
        <ele>48.1</ele>
        <time>2025-02-26T14:31:11Z</time>
      </trkpt>
      <trkpt lat="43.48506" lon="6.58893">
        <ele>48.2</ele>
        <time>2025-02-26T14:31:12Z</time>
      </trkpt>
      <trkpt lat="43.48507" lon="6.58893">
        <ele>48.3</ele>
        <time>2025-02-26T14:31:13Z</time>
      </trkpt>
      <trkpt lat="43.48507" lon="6.58893">
        <ele>48.4</ele>
        <time>2025-02-26T14:31:14Z</time>
      </trkpt>
      <trkpt lat="43.48508" lon="6.58892">
        <ele>48.5</ele>
        <time>2025-02-26T14:31:15Z</time>
      </trkpt>
      <trkpt lat="43.48509" lon="6.58892">
        <ele>48.5</ele>
        <time>2025-02-26T14:31:16Z</time>
      </trkpt>
      <trkpt lat="43.4851" lon="6.58892">
        <ele>48.7</ele>
        <time>2025-02-26T14:31:17Z</time>
      </trkpt>
      <trkpt lat="43.48511" lon="6.58891">
        <ele>49</ele>
        <time>2025-02-26T14:31:18Z</time>
      </trkpt>
      <trkpt lat="43.48511" lon="6.5889">
        <ele>49.2</ele>
        <time>2025-02-26T14:31:19Z</time>
      </trkpt>
      <trkpt lat="43.48512" lon="6.5889">
        <ele>49.4</ele>
        <time>2025-02-26T14:31:20Z</time>
      </trkpt>
      <trkpt lat="43.48512" lon="6.5889">
        <ele>49.6</ele>
        <time>2025-02-26T14:31:21Z</time>
      </trkpt>
      <trkpt lat="43.48513" lon="6.5889">
        <ele>49.7</ele>
        <time>2025-02-26T14:31:22Z</time>
      </trkpt>
      <trkpt lat="43.48514" lon="6.58889">
        <ele>49.8</ele>
        <time>2025-02-26T14:31:23Z</time>
      </trkpt>
      <trkpt lat="43.48515" lon="6.58889">
        <ele>50</ele>
        <time>2025-02-26T14:31:24Z</time>
      </trkpt>
      <trkpt lat="43.48515" lon="6.58889">
        <ele>50.1</ele>
        <time>2025-02-26T14:31:25Z</time>
      </trkpt>
      <trkpt lat="43.48516" lon="6.58889">
        <ele>50.1</ele>
        <time>2025-02-26T14:31:26Z</time>
      </trkpt>
      <trkpt lat="43.48517" lon="6.58889">
        <ele>50.2</ele>
        <time>2025-02-26T14:31:27Z</time>
      </trkpt>
      <trkpt lat="43.48518" lon="6.58889">
        <ele>50.3</ele>
        <time>2025-02-26T14:31:28Z</time>
      </trkpt>
      <trkpt lat="43.4852" lon="6.58889">
        <ele>50.5</ele>
        <time>2025-02-26T14:31:29Z</time>
      </trkpt>
      <trkpt lat="43.4852" lon="6.58889">
        <ele>50.5</ele>
        <time>2025-02-26T14:31:30Z</time>
      </trkpt>
      <trkpt lat="43.48522" lon="6.58889">
        <ele>50.5</ele>
        <time>2025-02-26T14:31:31Z</time>
      </trkpt>
      <trkpt lat="43.48523" lon="6.58889">
        <ele>50.5</ele>
        <time>2025-02-26T14:31:32Z</time>
      </trkpt>
      <trkpt lat="43.48524" lon="6.58889">
        <ele>50.6</ele>
        <time>2025-02-26T14:31:33Z</time>
      </trkpt>
      <trkpt lat="43.48525" lon="6.58889">
        <ele>50.6</ele>
        <time>2025-02-26T14:31:34Z</time>
      </trkpt>
      <trkpt lat="43.48526" lon="6.58889">
        <ele>50.6</ele>
        <time>2025-02-26T14:31:35Z</time>
      </trkpt>
      <trkpt lat="43.48527" lon="6.58889">
        <ele>50.7</ele>
        <time>2025-02-26T14:31:36Z</time>
      </trkpt>
      <trkpt lat="43.48528" lon="6.58889">
        <ele>50.7</ele>
        <time>2025-02-26T14:31:37Z</time>
      </trkpt>
      <trkpt lat="43.48528" lon="6.5889">
        <ele>50.8</ele>
        <time>2025-02-26T14:31:38Z</time>
      </trkpt>
      <trkpt lat="43.48529" lon="6.5889">
        <ele>50.9</ele>
        <time>2025-02-26T14:31:39Z</time>
      </trkpt>
      <trkpt lat="43.4853" lon="6.58891">
        <ele>51</ele>
        <time>2025-02-26T14:31:40Z</time>
      </trkpt>
      <trkpt lat="43.48531" lon="6.58891">
        <ele>51</ele>
        <time>2025-02-26T14:31:41Z</time>
      </trkpt>
      <trkpt lat="43.48532" lon="6.58892">
        <ele>51.1</ele>
        <time>2025-02-26T14:31:42Z</time>
      </trkpt>
      <trkpt lat="43.48533" lon="6.58892">
        <ele>51.1</ele>
        <time>2025-02-26T14:31:43Z</time>
      </trkpt>
      <trkpt lat="43.48534" lon="6.58893">
        <ele>51.2</ele>
        <time>2025-02-26T14:31:44Z</time>
      </trkpt>
      <trkpt lat="43.48535" lon="6.58893">
        <ele>51.2</ele>
        <time>2025-02-26T14:31:45Z</time>
      </trkpt>
      <trkpt lat="43.48536" lon="6.58893">
        <ele>51.3</ele>
        <time>2025-02-26T14:31:46Z</time>
      </trkpt>
      <trkpt lat="43.48537" lon="6.58894">
        <ele>51.3</ele>
        <time>2025-02-26T14:31:47Z</time>
      </trkpt>
      <trkpt lat="43.48538" lon="6.58894">
        <ele>51.4</ele>
        <time>2025-02-26T14:31:48Z</time>
      </trkpt>
      <trkpt lat="43.48539" lon="6.58894">
        <ele>51.4</ele>
        <time>2025-02-26T14:31:49Z</time>
      </trkpt>
      <trkpt lat="43.4854" lon="6.58894">
        <ele>51.5</ele>
        <time>2025-02-26T14:31:50Z</time>
      </trkpt>
      <trkpt lat="43.48541" lon="6.58895">
        <ele>51.7</ele>
        <time>2025-02-26T14:31:51Z</time>
      </trkpt>
      <trkpt lat="43.48542" lon="6.58894">
        <ele>51.8</ele>
        <time>2025-02-26T14:31:52Z</time>
      </trkpt>
      <trkpt lat="43.48543" lon="6.58894">
        <ele>51.9</ele>
        <time>2025-02-26T14:31:53Z</time>
      </trkpt>
      <trkpt lat="43.48544" lon="6.58894">
        <ele>52</ele>
        <time>2025-02-26T14:31:54Z</time>
      </trkpt>
      <trkpt lat="43.48544" lon="6.58894">
        <ele>52.1</ele>
        <time>2025-02-26T14:31:55Z</time>
      </trkpt>
      <trkpt lat="43.48545" lon="6.58894">
        <ele>52.2</ele>
        <time>2025-02-26T14:31:56Z</time>
      </trkpt>
      <trkpt lat="43.48545" lon="6.58894">
        <ele>52.3</ele>
        <time>2025-02-26T14:31:57Z</time>
      </trkpt>
      <trkpt lat="43.48546" lon="6.58893">
        <ele>52.3</ele>
        <time>2025-02-26T14:31:58Z</time>
      </trkpt>
      <trkpt lat="43.48546" lon="6.58893">
        <ele>52.3</ele>
        <time>2025-02-26T14:31:59Z</time>
      </trkpt>
      <trkpt lat="43.48546" lon="6.58893">
        <ele>52.3</ele>
        <time>2025-02-26T14:32:00Z</time>
      </trkpt>
      <trkpt lat="43.48546" lon="6.58892">
        <ele>52.2</ele>
        <time>2025-02-26T14:32:01Z</time>
      </trkpt>
      <trkpt lat="43.48546" lon="6.58892">
        <ele>52.1</ele>
        <time>2025-02-26T14:32:02Z</time>
      </trkpt>
      <trkpt lat="43.48546" lon="6.58892">
        <ele>52</ele>
        <time>2025-02-26T14:32:03Z</time>
      </trkpt>
      <trkpt lat="43.48546" lon="6.58892">
        <ele>51.9</ele>
        <time>2025-02-26T14:32:04Z</time>
      </trkpt>
      <trkpt lat="43.48546" lon="6.58892">
        <ele>51.8</ele>
        <time>2025-02-26T14:32:05Z</time>
      </trkpt>
      <trkpt lat="43.48546" lon="6.58892">
        <ele>51.9</ele>
        <time>2025-02-26T14:32:06Z</time>
      </trkpt>
      <trkpt lat="43.48546" lon="6.58892">
        <ele>52</ele>
        <time>2025-02-26T14:32:07Z</time>
      </trkpt>
      <trkpt lat="43.48546" lon="6.58892">
        <ele>52.1</ele>
        <time>2025-02-26T14:32:08Z</time>
      </trkpt>
      <trkpt lat="43.48546" lon="6.58892">
        <ele>52</ele>
        <time>2025-02-26T14:32:09Z</time>
      </trkpt>
      <trkpt lat="43.48546" lon="6.58891">
        <ele>52</ele>
        <time>2025-02-26T14:32:10Z</time>
      </trkpt>
      <trkpt lat="43.48546" lon="6.58891">
        <ele>52</ele>
        <time>2025-02-26T14:32:11Z</time>
      </trkpt>
      <trkpt lat="43.48546" lon="6.58891">
        <ele>52</ele>
        <time>2025-02-26T14:32:12Z</time>
      </trkpt>
      <trkpt lat="43.48546" lon="6.58891">
        <ele>52.2</ele>
        <time>2025-02-26T14:32:13Z</time>
      </trkpt>
      <trkpt lat="43.48546" lon="6.58891">
        <ele>52.2</ele>
        <time>2025-02-26T14:32:14Z</time>
      </trkpt>
      <trkpt lat="43.48546" lon="6.58891">
        <ele>52.3</ele>
        <time>2025-02-26T14:32:15Z</time>
      </trkpt>
      <trkpt lat="43.48546" lon="6.58891">
        <ele>52.1</ele>
        <time>2025-02-26T14:32:16Z</time>
      </trkpt>
      <trkpt lat="43.48546" lon="6.58891">
        <ele>52.1</ele>
        <time>2025-02-26T14:32:17Z</time>
      </trkpt>
      <trkpt lat="43.48546" lon="6.58891">
        <ele>52.1</ele>
        <time>2025-02-26T14:32:18Z</time>
      </trkpt>
      <trkpt lat="43.48546" lon="6.58891">
        <ele>52.1</ele>
        <time>2025-02-26T14:32:19Z</time>
      </trkpt>
      <trkpt lat="43.48546" lon="6.58891">
        <ele>52.1</ele>
        <time>2025-02-26T14:32:20Z</time>
      </trkpt>
      <trkpt lat="43.48546" lon="6.58891">
        <ele>52.1</ele>
        <time>2025-02-26T14:32:21Z</time>
      </trkpt>
      <trkpt lat="43.48546" lon="6.58891">
        <ele>52</ele>
        <time>2025-02-26T14:32:22Z</time>
      </trkpt>
      <trkpt lat="43.48546" lon="6.58891">
        <ele>52.1</ele>
        <time>2025-02-26T14:32:23Z</time>
      </trkpt>
      <trkpt lat="43.48546" lon="6.58891">
        <ele>51.9</ele>
        <time>2025-02-26T14:32:24Z</time>
      </trkpt>
      <trkpt lat="43.48546" lon="6.58891">
        <ele>51.8</ele>
        <time>2025-02-26T14:32:25Z</time>
      </trkpt>
      <trkpt lat="43.48546" lon="6.58891">
        <ele>51.8</ele>
        <time>2025-02-26T14:32:26Z</time>
      </trkpt>
      <trkpt lat="43.48546" lon="6.58891">
        <ele>51.8</ele>
        <time>2025-02-26T14:32:27Z</time>
      </trkpt>
      <trkpt lat="43.48546" lon="6.58891">
        <ele>51.8</ele>
        <time>2025-02-26T14:32:28Z</time>
      </trkpt>
      <trkpt lat="43.48546" lon="6.58891">
        <ele>51.7</ele>
        <time>2025-02-26T14:32:29Z</time>
      </trkpt>
      <trkpt lat="43.48546" lon="6.58891">
        <ele>51.7</ele>
        <time>2025-02-26T14:32:30Z</time>
      </trkpt>
      <trkpt lat="43.48546" lon="6.58891">
        <ele>51.7</ele>
        <time>2025-02-26T14:32:31Z</time>
      </trkpt>
      <trkpt lat="43.48546" lon="6.58891">
        <ele>51.8</ele>
        <time>2025-02-26T14:32:32Z</time>
      </trkpt>
      <trkpt lat="43.48546" lon="6.58891">
        <ele>51.9</ele>
        <time>2025-02-26T14:32:33Z</time>
      </trkpt>
      <trkpt lat="43.48546" lon="6.58891">
        <ele>51.9</ele>
        <time>2025-02-26T14:32:34Z</time>
      </trkpt>
      <trkpt lat="43.48546" lon="6.58891">
        <ele>51.9</ele>
        <time>2025-02-26T14:32:35Z</time>
      </trkpt>
      <trkpt lat="43.48546" lon="6.58891">
        <ele>51.9</ele>
        <time>2025-02-26T14:32:36Z</time>
      </trkpt>
      <trkpt lat="43.48546" lon="6.58891">
        <ele>51.9</ele>
        <time>2025-02-26T14:32:37Z</time>
      </trkpt>
      <trkpt lat="43.48546" lon="6.58891">
        <ele>51.9</ele>
        <time>2025-02-26T14:32:38Z</time>
      </trkpt>
      <trkpt lat="43.48546" lon="6.58891">
        <ele>51.9</ele>
        <time>2025-02-26T14:32:39Z</time>
      </trkpt>
      <trkpt lat="43.48546" lon="6.5889">
        <ele>51.9</ele>
        <time>2025-02-26T14:32:40Z</time>
      </trkpt>
      <trkpt lat="43.48546" lon="6.5889">
        <ele>51.8</ele>
        <time>2025-02-26T14:32:41Z</time>
      </trkpt>
      <trkpt lat="43.48546" lon="6.58891">
        <ele>51.8</ele>
        <time>2025-02-26T14:32:42Z</time>
      </trkpt>
      <trkpt lat="43.48546" lon="6.5889">
        <ele>51.8</ele>
        <time>2025-02-26T14:32:43Z</time>
      </trkpt>
      <trkpt lat="43.48546" lon="6.5889">
        <ele>51.9</ele>
        <time>2025-02-26T14:32:44Z</time>
      </trkpt>
      <trkpt lat="43.48546" lon="6.5889">
        <ele>51.9</ele>
        <time>2025-02-26T14:32:45Z</time>
      </trkpt>
      <trkpt lat="43.48546" lon="6.5889">
        <ele>51.9</ele>
        <time>2025-02-26T14:32:46Z</time>
      </trkpt>
      <trkpt lat="43.48546" lon="6.5889">
        <ele>52</ele>
        <time>2025-02-26T14:32:47Z</time>
      </trkpt>
      <trkpt lat="43.48546" lon="6.5889">
        <ele>52</ele>
        <time>2025-02-26T14:32:48Z</time>
      </trkpt>
      <trkpt lat="43.48546" lon="6.5889">
        <ele>52.1</ele>
        <time>2025-02-26T14:32:49Z</time>
      </trkpt>
      <trkpt lat="43.48546" lon="6.5889">
        <ele>52.1</ele>
        <time>2025-02-26T14:32:50Z</time>
      </trkpt>
      <trkpt lat="43.48546" lon="6.5889">
        <ele>52</ele>
        <time>2025-02-26T14:32:51Z</time>
      </trkpt>
      <trkpt lat="43.48546" lon="6.5889">
        <ele>51.9</ele>
        <time>2025-02-26T14:32:52Z</time>
      </trkpt>
      <trkpt lat="43.48546" lon="6.5889">
        <ele>51.9</ele>
        <time>2025-02-26T14:32:53Z</time>
      </trkpt>
      <trkpt lat="43.48546" lon="6.5889">
        <ele>52</ele>
        <time>2025-02-26T14:32:54Z</time>
      </trkpt>
      <trkpt lat="43.48546" lon="6.5889">
        <ele>52</ele>
        <time>2025-02-26T14:32:55Z</time>
      </trkpt>
      <trkpt lat="43.48546" lon="6.5889">
        <ele>52</ele>
        <time>2025-02-26T14:32:56Z</time>
      </trkpt>
      <trkpt lat="43.48546" lon="6.5889">
        <ele>52.1</ele>
        <time>2025-02-26T14:32:57Z</time>
      </trkpt>
      <trkpt lat="43.48546" lon="6.5889">
        <ele>52.2</ele>
        <time>2025-02-26T14:32:58Z</time>
      </trkpt>
      <trkpt lat="43.48546" lon="6.5889">
        <ele>52.2</ele>
        <time>2025-02-26T14:32:59Z</time>
      </trkpt>
      <trkpt lat="43.48546" lon="6.5889">
        <ele>52.2</ele>
        <time>2025-02-26T14:33:00Z</time>
      </trkpt>
      <trkpt lat="43.48546" lon="6.5889">
        <ele>52.2</ele>
        <time>2025-02-26T14:33:01Z</time>
      </trkpt>
      <trkpt lat="43.48546" lon="6.5889">
        <ele>52.3</ele>
        <time>2025-02-26T14:33:02Z</time>
      </trkpt>
      <trkpt lat="43.48546" lon="6.5889">
        <ele>52.3</ele>
        <time>2025-02-26T14:33:03Z</time>
      </trkpt>
      <trkpt lat="43.48546" lon="6.5889">
        <ele>52.3</ele>
        <time>2025-02-26T14:33:04Z</time>
      </trkpt>
      <trkpt lat="43.48546" lon="6.5889">
        <ele>52.3</ele>
        <time>2025-02-26T14:33:05Z</time>
      </trkpt>
      <trkpt lat="43.48546" lon="6.5889">
        <ele>52.4</ele>
        <time>2025-02-26T14:33:06Z</time>
      </trkpt>
      <trkpt lat="43.48546" lon="6.5889">
        <ele>52.4</ele>
        <time>2025-02-26T14:33:07Z</time>
      </trkpt>
      <trkpt lat="43.48546" lon="6.5889">
        <ele>52.4</ele>
        <time>2025-02-26T14:33:08Z</time>
      </trkpt>
      <trkpt lat="43.48546" lon="6.58889">
        <ele>52.4</ele>
        <time>2025-02-26T14:33:09Z</time>
      </trkpt>
      <trkpt lat="43.48546" lon="6.58889">
        <ele>52.4</ele>
        <time>2025-02-26T14:33:10Z</time>
      </trkpt>
      <trkpt lat="43.48546" lon="6.58889">
        <ele>52.4</ele>
        <time>2025-02-26T14:33:11Z</time>
      </trkpt>
      <trkpt lat="43.48546" lon="6.58889">
        <ele>52.4</ele>
        <time>2025-02-26T14:33:12Z</time>
      </trkpt>
      <trkpt lat="43.48546" lon="6.58889">
        <ele>52.4</ele>
        <time>2025-02-26T14:33:13Z</time>
      </trkpt>
      <trkpt lat="43.48546" lon="6.58889">
        <ele>52.3</ele>
        <time>2025-02-26T14:33:14Z</time>
      </trkpt>
      <trkpt lat="43.48546" lon="6.58889">
        <ele>52.3</ele>
        <time>2025-02-26T14:33:15Z</time>
      </trkpt>
      <trkpt lat="43.48546" lon="6.58889">
        <ele>52.4</ele>
        <time>2025-02-26T14:33:16Z</time>
      </trkpt>
      <trkpt lat="43.48546" lon="6.58889">
        <ele>52.4</ele>
        <time>2025-02-26T14:33:17Z</time>
      </trkpt>
      <trkpt lat="43.48547" lon="6.5889">
        <ele>52.5</ele>
        <time>2025-02-26T14:33:18Z</time>
      </trkpt>
      <trkpt lat="43.48547" lon="6.58889">
        <ele>52.5</ele>
        <time>2025-02-26T14:33:19Z</time>
      </trkpt>
      <trkpt lat="43.48547" lon="6.58889">
        <ele>52.5</ele>
        <time>2025-02-26T14:33:20Z</time>
      </trkpt>
      <trkpt lat="43.48547" lon="6.58889">
        <ele>52.5</ele>
        <time>2025-02-26T14:33:21Z</time>
      </trkpt>
      <trkpt lat="43.48547" lon="6.58889">
        <ele>52.4</ele>
        <time>2025-02-26T14:33:22Z</time>
      </trkpt>
      <trkpt lat="43.48547" lon="6.58889">
        <ele>52.3</ele>
        <time>2025-02-26T14:33:23Z</time>
      </trkpt>
      <trkpt lat="43.48547" lon="6.58889">
        <ele>52.5</ele>
        <time>2025-02-26T14:33:24Z</time>
      </trkpt>
      <trkpt lat="43.48548" lon="6.58889">
        <ele>52.6</ele>
        <time>2025-02-26T14:33:25Z</time>
      </trkpt>
      <trkpt lat="43.48547" lon="6.58889">
        <ele>52.6</ele>
        <time>2025-02-26T14:33:26Z</time>
      </trkpt>
      <trkpt lat="43.48547" lon="6.58889">
        <ele>52.6</ele>
        <time>2025-02-26T14:33:27Z</time>
      </trkpt>
      <trkpt lat="43.48547" lon="6.58889">
        <ele>52.6</ele>
        <time>2025-02-26T14:33:28Z</time>
      </trkpt>
      <trkpt lat="43.48547" lon="6.58889">
        <ele>52.6</ele>
        <time>2025-02-26T14:33:29Z</time>
      </trkpt>
      <trkpt lat="43.48547" lon="6.58889">
        <ele>52.5</ele>
        <time>2025-02-26T14:33:30Z</time>
      </trkpt>
      <trkpt lat="43.48547" lon="6.58889">
        <ele>52.5</ele>
        <time>2025-02-26T14:33:31Z</time>
      </trkpt>
      <trkpt lat="43.48547" lon="6.58889">
        <ele>52.4</ele>
        <time>2025-02-26T14:33:32Z</time>
      </trkpt>
      <trkpt lat="43.48547" lon="6.58889">
        <ele>52.4</ele>
        <time>2025-02-26T14:33:33Z</time>
      </trkpt>
      <trkpt lat="43.48547" lon="6.58889">
        <ele>52.4</ele>
        <time>2025-02-26T14:33:34Z</time>
      </trkpt>
      <trkpt lat="43.48547" lon="6.58889">
        <ele>52.4</ele>
        <time>2025-02-26T14:33:35Z</time>
      </trkpt>
      <trkpt lat="43.48547" lon="6.58889">
        <ele>52.5</ele>
        <time>2025-02-26T14:33:36Z</time>
      </trkpt>
      <trkpt lat="43.48547" lon="6.58889">
        <ele>52.4</ele>
        <time>2025-02-26T14:33:37Z</time>
      </trkpt>
      <trkpt lat="43.48547" lon="6.58889">
        <ele>52.3</ele>
        <time>2025-02-26T14:33:38Z</time>
      </trkpt>
      <trkpt lat="43.48547" lon="6.58889">
        <ele>52.3</ele>
        <time>2025-02-26T14:33:39Z</time>
      </trkpt>
      <trkpt lat="43.48547" lon="6.5889">
        <ele>52.4</ele>
        <time>2025-02-26T14:33:40Z</time>
      </trkpt>
      <trkpt lat="43.48547" lon="6.5889">
        <ele>52.4</ele>
        <time>2025-02-26T14:33:41Z</time>
      </trkpt>
      <trkpt lat="43.48547" lon="6.5889">
        <ele>52.5</ele>
        <time>2025-02-26T14:33:42Z</time>
      </trkpt>
      <trkpt lat="43.48547" lon="6.5889">
        <ele>52.5</ele>
        <time>2025-02-26T14:33:43Z</time>
      </trkpt>
      <trkpt lat="43.48547" lon="6.5889">
        <ele>52.5</ele>
        <time>2025-02-26T14:33:44Z</time>
      </trkpt>
      <trkpt lat="43.48547" lon="6.5889">
        <ele>52.5</ele>
        <time>2025-02-26T14:33:45Z</time>
      </trkpt>
      <trkpt lat="43.48547" lon="6.5889">
        <ele>52.5</ele>
        <time>2025-02-26T14:33:46Z</time>
      </trkpt>
      <trkpt lat="43.48547" lon="6.5889">
        <ele>52.5</ele>
        <time>2025-02-26T14:33:47Z</time>
      </trkpt>
      <trkpt lat="43.48547" lon="6.5889">
        <ele>52.6</ele>
        <time>2025-02-26T14:33:48Z</time>
      </trkpt>
      <trkpt lat="43.48547" lon="6.5889">
        <ele>52.6</ele>
        <time>2025-02-26T14:33:49Z</time>
      </trkpt>
      <trkpt lat="43.48547" lon="6.5889">
        <ele>52.6</ele>
        <time>2025-02-26T14:33:50Z</time>
      </trkpt>
      <trkpt lat="43.48547" lon="6.5889">
        <ele>52.7</ele>
        <time>2025-02-26T14:33:51Z</time>
      </trkpt>
      <trkpt lat="43.48547" lon="6.5889">
        <ele>52.7</ele>
        <time>2025-02-26T14:33:52Z</time>
      </trkpt>
      <trkpt lat="43.48547" lon="6.5889">
        <ele>52.7</ele>
        <time>2025-02-26T14:33:53Z</time>
      </trkpt>
      <trkpt lat="43.48547" lon="6.5889">
        <ele>52.6</ele>
        <time>2025-02-26T14:33:54Z</time>
      </trkpt>
      <trkpt lat="43.48547" lon="6.5889">
        <ele>52.6</ele>
        <time>2025-02-26T14:33:55Z</time>
      </trkpt>
      <trkpt lat="43.48547" lon="6.5889">
        <ele>52.6</ele>
        <time>2025-02-26T14:33:56Z</time>
      </trkpt>
      <trkpt lat="43.48547" lon="6.5889">
        <ele>52.4</ele>
        <time>2025-02-26T14:33:57Z</time>
      </trkpt>
      <trkpt lat="43.48547" lon="6.5889">
        <ele>52.4</ele>
        <time>2025-02-26T14:33:58Z</time>
      </trkpt>
      <trkpt lat="43.48547" lon="6.5889">
        <ele>52.4</ele>
        <time>2025-02-26T14:33:59Z</time>
      </trkpt>
      <trkpt lat="43.48547" lon="6.5889">
        <ele>52.4</ele>
        <time>2025-02-26T14:34:00Z</time>
      </trkpt>
      <trkpt lat="43.48547" lon="6.5889">
        <ele>52.4</ele>
        <time>2025-02-26T14:34:01Z</time>
      </trkpt>
      <trkpt lat="43.48547" lon="6.5889">
        <ele>52.4</ele>
        <time>2025-02-26T14:34:02Z</time>
      </trkpt>
      <trkpt lat="43.48547" lon="6.5889">
        <ele>52.4</ele>
        <time>2025-02-26T14:34:03Z</time>
      </trkpt>
      <trkpt lat="43.48547" lon="6.5889">
        <ele>52.5</ele>
        <time>2025-02-26T14:34:04Z</time>
      </trkpt>
      <trkpt lat="43.48547" lon="6.58889">
        <ele>52.5</ele>
        <time>2025-02-26T14:34:05Z</time>
      </trkpt>
      <trkpt lat="43.48547" lon="6.58889">
        <ele>52.3</ele>
        <time>2025-02-26T14:34:06Z</time>
      </trkpt>
      <trkpt lat="43.48547" lon="6.5889">
        <ele>52.3</ele>
        <time>2025-02-26T14:34:07Z</time>
      </trkpt>
      <trkpt lat="43.48547" lon="6.5889">
        <ele>52.3</ele>
        <time>2025-02-26T14:34:08Z</time>
      </trkpt>
      <trkpt lat="43.48547" lon="6.58889">
        <ele>52.3</ele>
        <time>2025-02-26T14:34:09Z</time>
      </trkpt>
      <trkpt lat="43.48547" lon="6.5889">
        <ele>52.3</ele>
        <time>2025-02-26T14:34:10Z</time>
      </trkpt>
      <trkpt lat="43.48547" lon="6.5889">
        <ele>52.3</ele>
        <time>2025-02-26T14:34:11Z</time>
      </trkpt>
      <trkpt lat="43.48547" lon="6.5889">
        <ele>52.2</ele>
        <time>2025-02-26T14:34:12Z</time>
      </trkpt>
      <trkpt lat="43.48547" lon="6.5889">
        <ele>52.2</ele>
        <time>2025-02-26T14:34:13Z</time>
      </trkpt>
      <trkpt lat="43.48547" lon="6.5889">
        <ele>52.2</ele>
        <time>2025-02-26T14:34:14Z</time>
      </trkpt>
      <trkpt lat="43.48547" lon="6.5889">
        <ele>52.2</ele>
        <time>2025-02-26T14:34:15Z</time>
      </trkpt>
      <trkpt lat="43.48547" lon="6.5889">
        <ele>52.3</ele>
        <time>2025-02-26T14:34:16Z</time>
      </trkpt>
      <trkpt lat="43.48547" lon="6.5889">
        <ele>52.3</ele>
        <time>2025-02-26T14:34:17Z</time>
      </trkpt>
      <trkpt lat="43.48547" lon="6.5889">
        <ele>52.2</ele>
        <time>2025-02-26T14:34:18Z</time>
      </trkpt>
      <trkpt lat="43.48547" lon="6.5889">
        <ele>52.2</ele>
        <time>2025-02-26T14:34:19Z</time>
      </trkpt>
      <trkpt lat="43.48547" lon="6.5889">
        <ele>52.2</ele>
        <time>2025-02-26T14:34:20Z</time>
      </trkpt>
      <trkpt lat="43.48547" lon="6.5889">
        <ele>52.1</ele>
        <time>2025-02-26T14:34:21Z</time>
      </trkpt>
      <trkpt lat="43.48547" lon="6.5889">
        <ele>52.1</ele>
        <time>2025-02-26T14:34:22Z</time>
      </trkpt>
      <trkpt lat="43.48547" lon="6.5889">
        <ele>52.1</ele>
        <time>2025-02-26T14:34:23Z</time>
      </trkpt>
      <trkpt lat="43.48547" lon="6.5889">
        <ele>52.1</ele>
        <time>2025-02-26T14:34:24Z</time>
      </trkpt>
      <trkpt lat="43.48547" lon="6.5889">
        <ele>52.1</ele>
        <time>2025-02-26T14:34:25Z</time>
      </trkpt>
      <trkpt lat="43.48547" lon="6.5889">
        <ele>52.1</ele>
        <time>2025-02-26T14:34:26Z</time>
      </trkpt>
      <trkpt lat="43.48547" lon="6.5889">
        <ele>52.1</ele>
        <time>2025-02-26T14:34:27Z</time>
      </trkpt>
      <trkpt lat="43.48547" lon="6.5889">
        <ele>52</ele>
        <time>2025-02-26T14:34:28Z</time>
      </trkpt>
      <trkpt lat="43.48547" lon="6.5889">
        <ele>51.9</ele>
        <time>2025-02-26T14:34:29Z</time>
      </trkpt>
      <trkpt lat="43.48547" lon="6.58889">
        <ele>51.9</ele>
        <time>2025-02-26T14:34:30Z</time>
      </trkpt>
      <trkpt lat="43.48547" lon="6.58889">
        <ele>51.8</ele>
        <time>2025-02-26T14:34:31Z</time>
      </trkpt>
      <trkpt lat="43.48547" lon="6.58889">
        <ele>51.9</ele>
        <time>2025-02-26T14:34:32Z</time>
      </trkpt>
      <trkpt lat="43.48547" lon="6.58889">
        <ele>51.9</ele>
        <time>2025-02-26T14:34:33Z</time>
      </trkpt>
      <trkpt lat="43.48547" lon="6.58889">
        <ele>52</ele>
        <time>2025-02-26T14:34:34Z</time>
      </trkpt>
      <trkpt lat="43.48547" lon="6.58889">
        <ele>52.2</ele>
        <time>2025-02-26T14:34:35Z</time>
      </trkpt>
      <trkpt lat="43.48547" lon="6.58889">
        <ele>52.3</ele>
        <time>2025-02-26T14:34:36Z</time>
      </trkpt>
      <trkpt lat="43.48547" lon="6.58889">
        <ele>52.3</ele>
        <time>2025-02-26T14:34:37Z</time>
      </trkpt>
      <trkpt lat="43.48547" lon="6.58889">
        <ele>52.4</ele>
        <time>2025-02-26T14:34:38Z</time>
      </trkpt>
      <trkpt lat="43.48547" lon="6.58889">
        <ele>52.4</ele>
        <time>2025-02-26T14:34:39Z</time>
      </trkpt>
      <trkpt lat="43.48547" lon="6.58889">
        <ele>52.3</ele>
        <time>2025-02-26T14:34:40Z</time>
      </trkpt>
      <trkpt lat="43.48547" lon="6.58889">
        <ele>52.2</ele>
        <time>2025-02-26T14:34:41Z</time>
      </trkpt>
      <trkpt lat="43.48547" lon="6.58889">
        <ele>51.9</ele>
        <time>2025-02-26T14:34:42Z</time>
      </trkpt>
      <trkpt lat="43.48547" lon="6.58889">
        <ele>51.9</ele>
        <time>2025-02-26T14:34:43Z</time>
      </trkpt>
      <trkpt lat="43.48547" lon="6.58889">
        <ele>52</ele>
        <time>2025-02-26T14:34:44Z</time>
      </trkpt>
      <trkpt lat="43.48547" lon="6.58889">
        <ele>52.2</ele>
        <time>2025-02-26T14:34:45Z</time>
      </trkpt>
      <trkpt lat="43.48547" lon="6.58889">
        <ele>52.2</ele>
        <time>2025-02-26T14:34:46Z</time>
      </trkpt>
      <trkpt lat="43.48547" lon="6.58889">
        <ele>52.3</ele>
        <time>2025-02-26T14:34:47Z</time>
      </trkpt>
      <trkpt lat="43.48547" lon="6.58889">
        <ele>52.3</ele>
        <time>2025-02-26T14:34:48Z</time>
      </trkpt>
      <trkpt lat="43.48547" lon="6.58889">
        <ele>52.4</ele>
        <time>2025-02-26T14:34:49Z</time>
      </trkpt>
      <trkpt lat="43.48547" lon="6.58889">
        <ele>52.3</ele>
        <time>2025-02-26T14:34:50Z</time>
      </trkpt>
      <trkpt lat="43.48547" lon="6.58889">
        <ele>52.2</ele>
        <time>2025-02-26T14:34:51Z</time>
      </trkpt>
      <trkpt lat="43.48547" lon="6.58889">
        <ele>52.1</ele>
        <time>2025-02-26T14:34:52Z</time>
      </trkpt>
      <trkpt lat="43.48547" lon="6.58889">
        <ele>52.2</ele>
        <time>2025-02-26T14:34:53Z</time>
      </trkpt>
      <trkpt lat="43.48547" lon="6.58889">
        <ele>52</ele>
        <time>2025-02-26T14:34:54Z</time>
      </trkpt>
      <trkpt lat="43.48547" lon="6.58889">
        <ele>51.9</ele>
        <time>2025-02-26T14:34:55Z</time>
      </trkpt>
      <trkpt lat="43.48547" lon="6.58889">
        <ele>51.7</ele>
        <time>2025-02-26T14:34:56Z</time>
      </trkpt>
      <trkpt lat="43.48547" lon="6.58889">
        <ele>51.6</ele>
        <time>2025-02-26T14:34:57Z</time>
      </trkpt>
      <trkpt lat="43.48547" lon="6.58889">
        <ele>51.7</ele>
        <time>2025-02-26T14:34:58Z</time>
      </trkpt>
      <trkpt lat="43.48547" lon="6.58889">
        <ele>51.7</ele>
        <time>2025-02-26T14:34:59Z</time>
      </trkpt>
      <trkpt lat="43.48547" lon="6.58889">
        <ele>51.7</ele>
        <time>2025-02-26T14:35:00Z</time>
      </trkpt>
      <trkpt lat="43.48547" lon="6.58889">
        <ele>51.8</ele>
        <time>2025-02-26T14:35:01Z</time>
      </trkpt>
      <trkpt lat="43.48547" lon="6.58889">
        <ele>51.9</ele>
        <time>2025-02-26T14:35:02Z</time>
      </trkpt>
      <trkpt lat="43.48547" lon="6.58889">
        <ele>52.1</ele>
        <time>2025-02-26T14:35:03Z</time>
      </trkpt>
      <trkpt lat="43.48547" lon="6.58889">
        <ele>52</ele>
        <time>2025-02-26T14:35:04Z</time>
      </trkpt>
      <trkpt lat="43.48547" lon="6.58889">
        <ele>52</ele>
        <time>2025-02-26T14:35:05Z</time>
      </trkpt>
      <trkpt lat="43.48547" lon="6.58889">
        <ele>51.9</ele>
        <time>2025-02-26T14:35:06Z</time>
      </trkpt>
      <trkpt lat="43.48547" lon="6.58889">
        <ele>51.9</ele>
        <time>2025-02-26T14:35:07Z</time>
      </trkpt>
      <trkpt lat="43.48547" lon="6.58889">
        <ele>51.9</ele>
        <time>2025-02-26T14:35:08Z</time>
      </trkpt>
      <trkpt lat="43.48547" lon="6.58889">
        <ele>52</ele>
        <time>2025-02-26T14:35:09Z</time>
      </trkpt>
      <trkpt lat="43.48547" lon="6.5889">
        <ele>52.1</ele>
        <time>2025-02-26T14:35:10Z</time>
      </trkpt>
      <trkpt lat="43.48547" lon="6.58889">
        <ele>52.1</ele>
        <time>2025-02-26T14:35:11Z</time>
      </trkpt>
      <trkpt lat="43.48547" lon="6.58889">
        <ele>52.2</ele>
        <time>2025-02-26T14:35:12Z</time>
      </trkpt>
      <trkpt lat="43.48547" lon="6.58889">
        <ele>52.3</ele>
        <time>2025-02-26T14:35:13Z</time>
      </trkpt>
      <trkpt lat="43.48547" lon="6.58889">
        <ele>52.4</ele>
        <time>2025-02-26T14:35:14Z</time>
      </trkpt>
      <trkpt lat="43.48547" lon="6.58889">
        <ele>52.3</ele>
        <time>2025-02-26T14:35:15Z</time>
      </trkpt>
      <trkpt lat="43.48547" lon="6.58889">
        <ele>52.4</ele>
        <time>2025-02-26T14:35:16Z</time>
      </trkpt>
      <trkpt lat="43.48547" lon="6.58889">
        <ele>52.5</ele>
        <time>2025-02-26T14:35:17Z</time>
      </trkpt>
      <trkpt lat="43.48547" lon="6.58889">
        <ele>52.6</ele>
        <time>2025-02-26T14:35:18Z</time>
      </trkpt>
      <trkpt lat="43.48547" lon="6.58889">
        <ele>52.5</ele>
        <time>2025-02-26T14:35:19Z</time>
      </trkpt>
      <trkpt lat="43.48547" lon="6.58889">
        <ele>52.6</ele>
        <time>2025-02-26T14:35:20Z</time>
      </trkpt>
      <trkpt lat="43.48547" lon="6.58888">
        <ele>52.7</ele>
        <time>2025-02-26T14:35:21Z</time>
      </trkpt>
      <trkpt lat="43.48547" lon="6.58888">
        <ele>52.5</ele>
        <time>2025-02-26T14:35:22Z</time>
      </trkpt>
      <trkpt lat="43.48547" lon="6.58888">
        <ele>52.5</ele>
        <time>2025-02-26T14:35:23Z</time>
      </trkpt>
      <trkpt lat="43.48547" lon="6.58888">
        <ele>52.4</ele>
        <time>2025-02-26T14:35:24Z</time>
      </trkpt>
      <trkpt lat="43.48547" lon="6.58888">
        <ele>52.3</ele>
        <time>2025-02-26T14:35:25Z</time>
      </trkpt>
      <trkpt lat="43.48547" lon="6.58889">
        <ele>52.3</ele>
        <time>2025-02-26T14:35:26Z</time>
      </trkpt>
      <trkpt lat="43.48547" lon="6.58889">
        <ele>52.3</ele>
        <time>2025-02-26T14:35:27Z</time>
      </trkpt>
      <trkpt lat="43.48547" lon="6.58889">
        <ele>52.3</ele>
        <time>2025-02-26T14:35:28Z</time>
      </trkpt>
      <trkpt lat="43.48547" lon="6.58889">
        <ele>52.2</ele>
        <time>2025-02-26T14:35:29Z</time>
      </trkpt>
      <trkpt lat="43.48547" lon="6.58889">
        <ele>52.1</ele>
        <time>2025-02-26T14:35:30Z</time>
      </trkpt>
      <trkpt lat="43.48547" lon="6.58889">
        <ele>52</ele>
        <time>2025-02-26T14:35:31Z</time>
      </trkpt>
      <trkpt lat="43.48547" lon="6.58889">
        <ele>52</ele>
        <time>2025-02-26T14:35:32Z</time>
      </trkpt>
      <trkpt lat="43.48547" lon="6.58889">
        <ele>52</ele>
        <time>2025-02-26T14:35:33Z</time>
      </trkpt>
      <trkpt lat="43.48547" lon="6.58889">
        <ele>51.9</ele>
        <time>2025-02-26T14:35:34Z</time>
      </trkpt>
      <trkpt lat="43.48547" lon="6.58889">
        <ele>51.9</ele>
        <time>2025-02-26T14:35:35Z</time>
      </trkpt>
      <trkpt lat="43.48547" lon="6.58889">
        <ele>51.8</ele>
        <time>2025-02-26T14:35:36Z</time>
      </trkpt>
      <trkpt lat="43.48547" lon="6.58888">
        <ele>51.8</ele>
        <time>2025-02-26T14:35:37Z</time>
      </trkpt>
      <trkpt lat="43.48548" lon="6.58888">
        <ele>51.8</ele>
        <time>2025-02-26T14:35:38Z</time>
      </trkpt>
      <trkpt lat="43.48548" lon="6.58888">
        <ele>51.8</ele>
        <time>2025-02-26T14:35:39Z</time>
      </trkpt>
      <trkpt lat="43.48548" lon="6.58888">
        <ele>51.8</ele>
        <time>2025-02-26T14:35:40Z</time>
      </trkpt>
      <trkpt lat="43.48548" lon="6.58888">
        <ele>51.9</ele>
        <time>2025-02-26T14:35:41Z</time>
      </trkpt>
      <trkpt lat="43.48548" lon="6.58888">
        <ele>52</ele>
        <time>2025-02-26T14:35:42Z</time>
      </trkpt>
      <trkpt lat="43.48548" lon="6.58888">
        <ele>52.1</ele>
        <time>2025-02-26T14:35:43Z</time>
      </trkpt>
      <trkpt lat="43.48548" lon="6.58888">
        <ele>52</ele>
        <time>2025-02-26T14:35:44Z</time>
      </trkpt>
      <trkpt lat="43.48548" lon="6.58888">
        <ele>52</ele>
        <time>2025-02-26T14:35:45Z</time>
      </trkpt>
      <trkpt lat="43.48548" lon="6.58888">
        <ele>52.1</ele>
        <time>2025-02-26T14:35:46Z</time>
      </trkpt>
      <trkpt lat="43.48548" lon="6.58888">
        <ele>52.1</ele>
        <time>2025-02-26T14:35:47Z</time>
      </trkpt>
      <trkpt lat="43.48548" lon="6.58888">
        <ele>52.1</ele>
        <time>2025-02-26T14:35:48Z</time>
      </trkpt>
      <trkpt lat="43.48548" lon="6.58888">
        <ele>52.1</ele>
        <time>2025-02-26T14:35:49Z</time>
      </trkpt>
      <trkpt lat="43.48548" lon="6.58888">
        <ele>52.1</ele>
        <time>2025-02-26T14:35:50Z</time>
      </trkpt>
      <trkpt lat="43.48548" lon="6.58888">
        <ele>52.2</ele>
        <time>2025-02-26T14:35:51Z</time>
      </trkpt>
      <trkpt lat="43.48548" lon="6.58888">
        <ele>52.3</ele>
        <time>2025-02-26T14:35:52Z</time>
      </trkpt>
      <trkpt lat="43.48548" lon="6.58888">
        <ele>52.2</ele>
        <time>2025-02-26T14:35:53Z</time>
      </trkpt>
      <trkpt lat="43.48548" lon="6.58888">
        <ele>52.1</ele>
        <time>2025-02-26T14:35:54Z</time>
      </trkpt>
      <trkpt lat="43.48548" lon="6.58888">
        <ele>52</ele>
        <time>2025-02-26T14:35:55Z</time>
      </trkpt>
      <trkpt lat="43.48548" lon="6.58888">
        <ele>52</ele>
        <time>2025-02-26T14:35:56Z</time>
      </trkpt>
      <trkpt lat="43.48548" lon="6.58888">
        <ele>52</ele>
        <time>2025-02-26T14:35:57Z</time>
      </trkpt>
      <trkpt lat="43.48548" lon="6.58888">
        <ele>51.9</ele>
        <time>2025-02-26T14:35:58Z</time>
      </trkpt>
      <trkpt lat="43.48548" lon="6.58888">
        <ele>52</ele>
        <time>2025-02-26T14:35:59Z</time>
      </trkpt>
      <trkpt lat="43.48549" lon="6.58888">
        <ele>52</ele>
        <time>2025-02-26T14:36:00Z</time>
      </trkpt>
      <trkpt lat="43.48548" lon="6.58888">
        <ele>51.9</ele>
        <time>2025-02-26T14:36:01Z</time>
      </trkpt>
      <trkpt lat="43.48548" lon="6.58889">
        <ele>51.9</ele>
        <time>2025-02-26T14:36:02Z</time>
      </trkpt>
      <trkpt lat="43.48548" lon="6.58888">
        <ele>51.8</ele>
        <time>2025-02-26T14:36:03Z</time>
      </trkpt>
      <trkpt lat="43.48549" lon="6.58888">
        <ele>51.7</ele>
        <time>2025-02-26T14:36:04Z</time>
      </trkpt>
      <trkpt lat="43.48549" lon="6.58888">
        <ele>51.6</ele>
        <time>2025-02-26T14:36:05Z</time>
      </trkpt>
      <trkpt lat="43.48549" lon="6.58888">
        <ele>51.5</ele>
        <time>2025-02-26T14:36:06Z</time>
      </trkpt>
      <trkpt lat="43.48549" lon="6.58888">
        <ele>51.5</ele>
        <time>2025-02-26T14:36:07Z</time>
      </trkpt>
      <trkpt lat="43.48549" lon="6.58888">
        <ele>51.5</ele>
        <time>2025-02-26T14:36:08Z</time>
      </trkpt>
      <trkpt lat="43.48549" lon="6.58888">
        <ele>51.5</ele>
        <time>2025-02-26T14:36:09Z</time>
      </trkpt>
      <trkpt lat="43.48549" lon="6.58888">
        <ele>51.5</ele>
        <time>2025-02-26T14:36:10Z</time>
      </trkpt>
      <trkpt lat="43.48549" lon="6.58889">
        <ele>51.6</ele>
        <time>2025-02-26T14:36:11Z</time>
      </trkpt>
      <trkpt lat="43.48549" lon="6.58888">
        <ele>51.7</ele>
        <time>2025-02-26T14:36:12Z</time>
      </trkpt>
      <trkpt lat="43.48549" lon="6.58888">
        <ele>51.8</ele>
        <time>2025-02-26T14:36:13Z</time>
      </trkpt>
      <trkpt lat="43.48549" lon="6.58888">
        <ele>51.7</ele>
        <time>2025-02-26T14:36:14Z</time>
      </trkpt>
      <trkpt lat="43.48549" lon="6.58888">
        <ele>51.7</ele>
        <time>2025-02-26T14:36:15Z</time>
      </trkpt>
      <trkpt lat="43.48549" lon="6.58888">
        <ele>51.7</ele>
        <time>2025-02-26T14:36:16Z</time>
      </trkpt>
      <trkpt lat="43.48549" lon="6.58888">
        <ele>51.6</ele>
        <time>2025-02-26T14:36:17Z</time>
      </trkpt>
      <trkpt lat="43.48549" lon="6.58888">
        <ele>51.7</ele>
        <time>2025-02-26T14:36:18Z</time>
      </trkpt>
      <trkpt lat="43.48549" lon="6.58888">
        <ele>51.8</ele>
        <time>2025-02-26T14:36:19Z</time>
      </trkpt>
      <trkpt lat="43.48549" lon="6.58888">
        <ele>51.8</ele>
        <time>2025-02-26T14:36:20Z</time>
      </trkpt>
      <trkpt lat="43.48549" lon="6.58888">
        <ele>51.8</ele>
        <time>2025-02-26T14:36:21Z</time>
      </trkpt>
      <trkpt lat="43.48549" lon="6.58888">
        <ele>51.9</ele>
        <time>2025-02-26T14:36:22Z</time>
      </trkpt>
      <trkpt lat="43.48549" lon="6.58888">
        <ele>51.9</ele>
        <time>2025-02-26T14:36:23Z</time>
      </trkpt>
      <trkpt lat="43.48549" lon="6.58888">
        <ele>52.1</ele>
        <time>2025-02-26T14:36:24Z</time>
      </trkpt>
      <trkpt lat="43.48549" lon="6.58888">
        <ele>52.2</ele>
        <time>2025-02-26T14:36:25Z</time>
      </trkpt>
      <trkpt lat="43.48549" lon="6.58889">
        <ele>52.3</ele>
        <time>2025-02-26T14:36:26Z</time>
      </trkpt>
      <trkpt lat="43.48549" lon="6.58888">
        <ele>52.4</ele>
        <time>2025-02-26T14:36:27Z</time>
      </trkpt>
      <trkpt lat="43.48549" lon="6.58888">
        <ele>52.4</ele>
        <time>2025-02-26T14:36:28Z</time>
      </trkpt>
      <trkpt lat="43.48549" lon="6.58889">
        <ele>52.5</ele>
        <time>2025-02-26T14:36:29Z</time>
      </trkpt>
      <trkpt lat="43.48549" lon="6.58889">
        <ele>52.4</ele>
        <time>2025-02-26T14:36:30Z</time>
      </trkpt>
      <trkpt lat="43.48549" lon="6.58889">
        <ele>52.4</ele>
        <time>2025-02-26T14:36:31Z</time>
      </trkpt>
      <trkpt lat="43.48549" lon="6.58889">
        <ele>52.4</ele>
        <time>2025-02-26T14:36:32Z</time>
      </trkpt>
      <trkpt lat="43.48549" lon="6.58889">
        <ele>52.3</ele>
        <time>2025-02-26T14:36:33Z</time>
      </trkpt>
      <trkpt lat="43.48549" lon="6.58889">
        <ele>52.3</ele>
        <time>2025-02-26T14:36:34Z</time>
      </trkpt>
      <trkpt lat="43.48549" lon="6.58889">
        <ele>52.3</ele>
        <time>2025-02-26T14:36:35Z</time>
      </trkpt>
      <trkpt lat="43.48549" lon="6.58889">
        <ele>52.4</ele>
        <time>2025-02-26T14:36:36Z</time>
      </trkpt>
      <trkpt lat="43.48549" lon="6.58889">
        <ele>52.5</ele>
        <time>2025-02-26T14:36:37Z</time>
      </trkpt>
      <trkpt lat="43.48549" lon="6.58889">
        <ele>52.6</ele>
        <time>2025-02-26T14:36:38Z</time>
      </trkpt>
      <trkpt lat="43.48549" lon="6.58889">
        <ele>52.6</ele>
        <time>2025-02-26T14:36:39Z</time>
      </trkpt>
      <trkpt lat="43.48549" lon="6.58889">
        <ele>52.5</ele>
        <time>2025-02-26T14:36:40Z</time>
      </trkpt>
      <trkpt lat="43.48549" lon="6.58889">
        <ele>52.3</ele>
        <time>2025-02-26T14:36:41Z</time>
      </trkpt>
      <trkpt lat="43.48549" lon="6.58889">
        <ele>52.4</ele>
        <time>2025-02-26T14:36:42Z</time>
      </trkpt>
      <trkpt lat="43.48549" lon="6.58889">
        <ele>52.5</ele>
        <time>2025-02-26T14:36:43Z</time>
      </trkpt>
      <trkpt lat="43.48549" lon="6.58889">
        <ele>52.5</ele>
        <time>2025-02-26T14:36:44Z</time>
      </trkpt>
      <trkpt lat="43.48549" lon="6.58889">
        <ele>52.6</ele>
        <time>2025-02-26T14:36:45Z</time>
      </trkpt>
      <trkpt lat="43.48549" lon="6.58889">
        <ele>52.7</ele>
        <time>2025-02-26T14:36:46Z</time>
      </trkpt>
      <trkpt lat="43.48549" lon="6.58889">
        <ele>52.5</ele>
        <time>2025-02-26T14:36:47Z</time>
      </trkpt>
      <trkpt lat="43.48549" lon="6.58889">
        <ele>52.5</ele>
        <time>2025-02-26T14:36:48Z</time>
      </trkpt>
      <trkpt lat="43.48549" lon="6.58889">
        <ele>52.4</ele>
        <time>2025-02-26T14:36:49Z</time>
      </trkpt>
      <trkpt lat="43.48549" lon="6.58889">
        <ele>52.3</ele>
        <time>2025-02-26T14:36:50Z</time>
      </trkpt>
      <trkpt lat="43.48549" lon="6.58889">
        <ele>52.1</ele>
        <time>2025-02-26T14:36:51Z</time>
      </trkpt>
      <trkpt lat="43.48549" lon="6.58889">
        <ele>52</ele>
        <time>2025-02-26T14:36:52Z</time>
      </trkpt>
      <trkpt lat="43.48549" lon="6.58889">
        <ele>52</ele>
        <time>2025-02-26T14:36:53Z</time>
      </trkpt>
      <trkpt lat="43.48549" lon="6.58889">
        <ele>52.1</ele>
        <time>2025-02-26T14:36:54Z</time>
      </trkpt>
      <trkpt lat="43.48549" lon="6.58888">
        <ele>52.2</ele>
        <time>2025-02-26T14:36:55Z</time>
      </trkpt>
      <trkpt lat="43.4855" lon="6.58889">
        <ele>52.2</ele>
        <time>2025-02-26T14:36:56Z</time>
      </trkpt>
      <trkpt lat="43.4855" lon="6.58889">
        <ele>52.2</ele>
        <time>2025-02-26T14:36:57Z</time>
      </trkpt>
      <trkpt lat="43.4855" lon="6.58888">
        <ele>52.1</ele>
        <time>2025-02-26T14:36:58Z</time>
      </trkpt>
      <trkpt lat="43.4855" lon="6.58888">
        <ele>52.1</ele>
        <time>2025-02-26T14:36:59Z</time>
      </trkpt>
      <trkpt lat="43.4855" lon="6.58888">
        <ele>52.1</ele>
        <time>2025-02-26T14:37:00Z</time>
      </trkpt>
      <trkpt lat="43.48549" lon="6.58888">
        <ele>52.1</ele>
        <time>2025-02-26T14:37:01Z</time>
      </trkpt>
      <trkpt lat="43.48549" lon="6.58888">
        <ele>52.1</ele>
        <time>2025-02-26T14:37:02Z</time>
      </trkpt>
      <trkpt lat="43.48549" lon="6.58888">
        <ele>52.2</ele>
        <time>2025-02-26T14:37:03Z</time>
      </trkpt>
      <trkpt lat="43.48549" lon="6.58888">
        <ele>52.2</ele>
        <time>2025-02-26T14:37:04Z</time>
      </trkpt>
      <trkpt lat="43.48549" lon="6.58888">
        <ele>52.2</ele>
        <time>2025-02-26T14:37:05Z</time>
      </trkpt>
      <trkpt lat="43.48549" lon="6.58888">
        <ele>52.2</ele>
        <time>2025-02-26T14:37:06Z</time>
      </trkpt>
      <trkpt lat="43.4855" lon="6.58888">
        <ele>52.2</ele>
        <time>2025-02-26T14:37:07Z</time>
      </trkpt>
      <trkpt lat="43.4855" lon="6.58888">
        <ele>52.2</ele>
        <time>2025-02-26T14:37:08Z</time>
      </trkpt>
      <trkpt lat="43.4855" lon="6.58888">
        <ele>52.2</ele>
        <time>2025-02-26T14:37:09Z</time>
      </trkpt>
      <trkpt lat="43.4855" lon="6.58888">
        <ele>52.2</ele>
        <time>2025-02-26T14:37:10Z</time>
      </trkpt>
      <trkpt lat="43.4855" lon="6.58888">
        <ele>52.2</ele>
        <time>2025-02-26T14:37:11Z</time>
      </trkpt>
      <trkpt lat="43.4855" lon="6.58888">
        <ele>52.2</ele>
        <time>2025-02-26T14:37:12Z</time>
      </trkpt>
      <trkpt lat="43.4855" lon="6.58888">
        <ele>52</ele>
        <time>2025-02-26T14:37:13Z</time>
      </trkpt>
      <trkpt lat="43.4855" lon="6.58888">
        <ele>51.9</ele>
        <time>2025-02-26T14:37:14Z</time>
      </trkpt>
      <trkpt lat="43.4855" lon="6.58888">
        <ele>51.9</ele>
        <time>2025-02-26T14:37:15Z</time>
      </trkpt>
      <trkpt lat="43.4855" lon="6.58888">
        <ele>51.9</ele>
        <time>2025-02-26T14:37:16Z</time>
      </trkpt>
      <trkpt lat="43.4855" lon="6.58888">
        <ele>52</ele>
        <time>2025-02-26T14:37:17Z</time>
      </trkpt>
      <trkpt lat="43.4855" lon="6.58888">
        <ele>52.1</ele>
        <time>2025-02-26T14:37:18Z</time>
      </trkpt>
      <trkpt lat="43.48549" lon="6.58888">
        <ele>52.1</ele>
        <time>2025-02-26T14:37:19Z</time>
      </trkpt>
      <trkpt lat="43.48549" lon="6.58888">
        <ele>52.1</ele>
        <time>2025-02-26T14:37:20Z</time>
      </trkpt>
      <trkpt lat="43.48549" lon="6.58888">
        <ele>52.2</ele>
        <time>2025-02-26T14:37:21Z</time>
      </trkpt>
      <trkpt lat="43.48549" lon="6.58888">
        <ele>52.3</ele>
        <time>2025-02-26T14:37:22Z</time>
      </trkpt>
      <trkpt lat="43.48549" lon="6.58888">
        <ele>52.4</ele>
        <time>2025-02-26T14:37:23Z</time>
      </trkpt>
      <trkpt lat="43.48549" lon="6.58887">
        <ele>52.4</ele>
        <time>2025-02-26T14:37:24Z</time>
      </trkpt>
      <trkpt lat="43.48549" lon="6.58887">
        <ele>52.5</ele>
        <time>2025-02-26T14:37:25Z</time>
      </trkpt>
      <trkpt lat="43.48549" lon="6.58887">
        <ele>52.5</ele>
        <time>2025-02-26T14:37:26Z</time>
      </trkpt>
      <trkpt lat="43.48549" lon="6.58887">
        <ele>52.5</ele>
        <time>2025-02-26T14:37:27Z</time>
      </trkpt>
      <trkpt lat="43.48549" lon="6.58887">
        <ele>52.5</ele>
        <time>2025-02-26T14:37:28Z</time>
      </trkpt>
      <trkpt lat="43.48549" lon="6.58887">
        <ele>52.6</ele>
        <time>2025-02-26T14:37:29Z</time>
      </trkpt>
      <trkpt lat="43.48549" lon="6.58887">
        <ele>52.6</ele>
        <time>2025-02-26T14:37:30Z</time>
      </trkpt>
      <trkpt lat="43.4855" lon="6.58887">
        <ele>52.6</ele>
        <time>2025-02-26T14:37:31Z</time>
      </trkpt>
      <trkpt lat="43.4855" lon="6.58887">
        <ele>52.6</ele>
        <time>2025-02-26T14:37:32Z</time>
      </trkpt>
      <trkpt lat="43.4855" lon="6.58887">
        <ele>52.5</ele>
        <time>2025-02-26T14:37:33Z</time>
      </trkpt>
      <trkpt lat="43.4855" lon="6.58887">
        <ele>52.6</ele>
        <time>2025-02-26T14:37:34Z</time>
      </trkpt>
      <trkpt lat="43.4855" lon="6.58887">
        <ele>52.6</ele>
        <time>2025-02-26T14:37:35Z</time>
      </trkpt>
      <trkpt lat="43.4855" lon="6.58887">
        <ele>52.6</ele>
        <time>2025-02-26T14:37:36Z</time>
      </trkpt>
      <trkpt lat="43.48549" lon="6.58887">
        <ele>52.7</ele>
        <time>2025-02-26T14:37:37Z</time>
      </trkpt>
      <trkpt lat="43.48549" lon="6.58887">
        <ele>52.8</ele>
        <time>2025-02-26T14:37:38Z</time>
      </trkpt>
      <trkpt lat="43.48549" lon="6.58887">
        <ele>52.9</ele>
        <time>2025-02-26T14:37:39Z</time>
      </trkpt>
      <trkpt lat="43.48549" lon="6.58887">
        <ele>52.8</ele>
        <time>2025-02-26T14:37:40Z</time>
      </trkpt>
      <trkpt lat="43.48549" lon="6.58887">
        <ele>52.8</ele>
        <time>2025-02-26T14:37:41Z</time>
      </trkpt>
      <trkpt lat="43.48549" lon="6.58887">
        <ele>52.7</ele>
        <time>2025-02-26T14:37:42Z</time>
      </trkpt>
      <trkpt lat="43.4855" lon="6.58887">
        <ele>52.7</ele>
        <time>2025-02-26T14:37:43Z</time>
      </trkpt>
      <trkpt lat="43.4855" lon="6.58887">
        <ele>52.8</ele>
        <time>2025-02-26T14:37:44Z</time>
      </trkpt>
      <trkpt lat="43.4855" lon="6.58887">
        <ele>52.8</ele>
        <time>2025-02-26T14:37:45Z</time>
      </trkpt>
      <trkpt lat="43.4855" lon="6.58886">
        <ele>52.8</ele>
        <time>2025-02-26T14:37:46Z</time>
      </trkpt>
      <trkpt lat="43.4855" lon="6.58886">
        <ele>52.7</ele>
        <time>2025-02-26T14:37:47Z</time>
      </trkpt>
      <trkpt lat="43.4855" lon="6.58886">
        <ele>52.7</ele>
        <time>2025-02-26T14:37:48Z</time>
      </trkpt>
      <trkpt lat="43.4855" lon="6.58886">
        <ele>52.7</ele>
        <time>2025-02-26T14:37:49Z</time>
      </trkpt>
      <trkpt lat="43.4855" lon="6.58886">
        <ele>52.6</ele>
        <time>2025-02-26T14:37:50Z</time>
      </trkpt>
      <trkpt lat="43.4855" lon="6.58886">
        <ele>52.4</ele>
        <time>2025-02-26T14:37:51Z</time>
      </trkpt>
      <trkpt lat="43.4855" lon="6.58886">
        <ele>52.4</ele>
        <time>2025-02-26T14:37:52Z</time>
      </trkpt>
      <trkpt lat="43.4855" lon="6.58886">
        <ele>52.2</ele>
        <time>2025-02-26T14:37:53Z</time>
      </trkpt>
      <trkpt lat="43.4855" lon="6.58886">
        <ele>52.2</ele>
        <time>2025-02-26T14:37:54Z</time>
      </trkpt>
      <trkpt lat="43.4855" lon="6.58886">
        <ele>52.3</ele>
        <time>2025-02-26T14:37:55Z</time>
      </trkpt>
      <trkpt lat="43.4855" lon="6.58886">
        <ele>52.3</ele>
        <time>2025-02-26T14:37:56Z</time>
      </trkpt>
      <trkpt lat="43.4855" lon="6.58886">
        <ele>52.4</ele>
        <time>2025-02-26T14:37:57Z</time>
      </trkpt>
      <trkpt lat="43.4855" lon="6.58885">
        <ele>52.4</ele>
        <time>2025-02-26T14:37:58Z</time>
      </trkpt>
      <trkpt lat="43.4855" lon="6.58886">
        <ele>52.3</ele>
        <time>2025-02-26T14:37:59Z</time>
      </trkpt>
      <trkpt lat="43.4855" lon="6.58886">
        <ele>52.2</ele>
        <time>2025-02-26T14:38:00Z</time>
      </trkpt>
      <trkpt lat="43.4855" lon="6.58886">
        <ele>52.1</ele>
        <time>2025-02-26T14:38:01Z</time>
      </trkpt>
      <trkpt lat="43.4855" lon="6.58886">
        <ele>52</ele>
        <time>2025-02-26T14:38:02Z</time>
      </trkpt>
      <trkpt lat="43.4855" lon="6.58886">
        <ele>51.9</ele>
        <time>2025-02-26T14:38:03Z</time>
      </trkpt>
      <trkpt lat="43.48551" lon="6.58887">
        <ele>51.9</ele>
        <time>2025-02-26T14:38:04Z</time>
      </trkpt>
      <trkpt lat="43.48551" lon="6.58887">
        <ele>52.1</ele>
        <time>2025-02-26T14:38:05Z</time>
      </trkpt>
      <trkpt lat="43.48552" lon="6.58888">
        <ele>52.1</ele>
        <time>2025-02-26T14:38:06Z</time>
      </trkpt>
      <trkpt lat="43.48553" lon="6.58888">
        <ele>52.1</ele>
        <time>2025-02-26T14:38:07Z</time>
      </trkpt>
      <trkpt lat="43.48553" lon="6.58889">
        <ele>52.1</ele>
        <time>2025-02-26T14:38:08Z</time>
      </trkpt>
      <trkpt lat="43.48554" lon="6.58889">
        <ele>52.1</ele>
        <time>2025-02-26T14:38:09Z</time>
      </trkpt>
      <trkpt lat="43.48554" lon="6.58891">
        <ele>52.2</ele>
        <time>2025-02-26T14:38:10Z</time>
      </trkpt>
      <trkpt lat="43.48554" lon="6.58892">
        <ele>52.2</ele>
        <time>2025-02-26T14:38:11Z</time>
      </trkpt>
      <trkpt lat="43.48555" lon="6.58893">
        <ele>52.3</ele>
        <time>2025-02-26T14:38:12Z</time>
      </trkpt>
      <trkpt lat="43.48555" lon="6.58894">
        <ele>52.3</ele>
        <time>2025-02-26T14:38:13Z</time>
      </trkpt>
      <trkpt lat="43.48555" lon="6.58895">
        <ele>52.3</ele>
        <time>2025-02-26T14:38:14Z</time>
      </trkpt>
      <trkpt lat="43.48555" lon="6.58896">
        <ele>52.3</ele>
        <time>2025-02-26T14:38:15Z</time>
      </trkpt>
      <trkpt lat="43.48555" lon="6.58898">
        <ele>52.3</ele>
        <time>2025-02-26T14:38:16Z</time>
      </trkpt>
      <trkpt lat="43.48556" lon="6.58899">
        <ele>52.3</ele>
        <time>2025-02-26T14:38:17Z</time>
      </trkpt>
      <trkpt lat="43.48556" lon="6.58901">
        <ele>52.3</ele>
        <time>2025-02-26T14:38:18Z</time>
      </trkpt>
      <trkpt lat="43.48555" lon="6.58902">
        <ele>52.1</ele>
        <time>2025-02-26T14:38:19Z</time>
      </trkpt>
      <trkpt lat="43.48555" lon="6.58904">
        <ele>51.9</ele>
        <time>2025-02-26T14:38:20Z</time>
      </trkpt>
      <trkpt lat="43.48555" lon="6.58905">
        <ele>51.9</ele>
        <time>2025-02-26T14:38:21Z</time>
      </trkpt>
      <trkpt lat="43.48555" lon="6.58907">
        <ele>51.9</ele>
        <time>2025-02-26T14:38:22Z</time>
      </trkpt>
      <trkpt lat="43.48555" lon="6.58909">
        <ele>51.8</ele>
        <time>2025-02-26T14:38:23Z</time>
      </trkpt>
      <trkpt lat="43.48556" lon="6.5891">
        <ele>51.7</ele>
        <time>2025-02-26T14:38:24Z</time>
      </trkpt>
      <trkpt lat="43.48556" lon="6.58912">
        <ele>51.7</ele>
        <time>2025-02-26T14:38:25Z</time>
      </trkpt>
      <trkpt lat="43.48556" lon="6.58914">
        <ele>51.6</ele>
        <time>2025-02-26T14:38:26Z</time>
      </trkpt>
      <trkpt lat="43.48556" lon="6.58915">
        <ele>51.4</ele>
        <time>2025-02-26T14:38:27Z</time>
      </trkpt>
      <trkpt lat="43.48556" lon="6.58917">
        <ele>51.3</ele>
        <time>2025-02-26T14:38:28Z</time>
      </trkpt>
      <trkpt lat="43.48556" lon="6.58919">
        <ele>51.2</ele>
        <time>2025-02-26T14:38:29Z</time>
      </trkpt>
      <trkpt lat="43.48557" lon="6.5892">
        <ele>51.2</ele>
        <time>2025-02-26T14:38:30Z</time>
      </trkpt>
      <trkpt lat="43.48557" lon="6.58922">
        <ele>51.1</ele>
        <time>2025-02-26T14:38:31Z</time>
      </trkpt>
      <trkpt lat="43.48557" lon="6.58924">
        <ele>51.1</ele>
        <time>2025-02-26T14:38:32Z</time>
      </trkpt>
      <trkpt lat="43.48557" lon="6.58926">
        <ele>50.9</ele>
        <time>2025-02-26T14:38:33Z</time>
      </trkpt>
      <trkpt lat="43.48558" lon="6.58928">
        <ele>50.9</ele>
        <time>2025-02-26T14:38:34Z</time>
      </trkpt>
      <trkpt lat="43.48558" lon="6.58929">
        <ele>50.7</ele>
        <time>2025-02-26T14:38:35Z</time>
      </trkpt>
      <trkpt lat="43.48558" lon="6.5893">
        <ele>50.5</ele>
        <time>2025-02-26T14:38:36Z</time>
      </trkpt>
      <trkpt lat="43.48558" lon="6.58932">
        <ele>50.3</ele>
        <time>2025-02-26T14:38:37Z</time>
      </trkpt>
      <trkpt lat="43.48558" lon="6.58934">
        <ele>50.2</ele>
        <time>2025-02-26T14:38:38Z</time>
      </trkpt>
      <trkpt lat="43.48558" lon="6.58935">
        <ele>50.3</ele>
        <time>2025-02-26T14:38:39Z</time>
      </trkpt>
      <trkpt lat="43.48558" lon="6.58937">
        <ele>50.1</ele>
        <time>2025-02-26T14:38:40Z</time>
      </trkpt>
      <trkpt lat="43.48558" lon="6.58938">
        <ele>50</ele>
        <time>2025-02-26T14:38:41Z</time>
      </trkpt>
      <trkpt lat="43.48557" lon="6.5894">
        <ele>49.9</ele>
        <time>2025-02-26T14:38:42Z</time>
      </trkpt>
      <trkpt lat="43.48557" lon="6.58942">
        <ele>49.9</ele>
        <time>2025-02-26T14:38:43Z</time>
      </trkpt>
      <trkpt lat="43.48557" lon="6.58944">
        <ele>49.8</ele>
        <time>2025-02-26T14:38:44Z</time>
      </trkpt>
      <trkpt lat="43.48557" lon="6.58946">
        <ele>49.8</ele>
        <time>2025-02-26T14:38:45Z</time>
      </trkpt>
      <trkpt lat="43.48557" lon="6.58947">
        <ele>49.9</ele>
        <time>2025-02-26T14:38:46Z</time>
      </trkpt>
      <trkpt lat="43.48557" lon="6.58949">
        <ele>49.8</ele>
        <time>2025-02-26T14:38:47Z</time>
      </trkpt>
      <trkpt lat="43.48557" lon="6.5895">
        <ele>49.7</ele>
        <time>2025-02-26T14:38:48Z</time>
      </trkpt>
      <trkpt lat="43.48557" lon="6.58952">
        <ele>49.6</ele>
        <time>2025-02-26T14:38:49Z</time>
      </trkpt>
      <trkpt lat="43.48557" lon="6.58954">
        <ele>49.5</ele>
        <time>2025-02-26T14:38:50Z</time>
      </trkpt>
      <trkpt lat="43.48557" lon="6.58955">
        <ele>49.4</ele>
        <time>2025-02-26T14:38:51Z</time>
      </trkpt>
      <trkpt lat="43.48557" lon="6.58957">
        <ele>49.3</ele>
        <time>2025-02-26T14:38:52Z</time>
      </trkpt>
      <trkpt lat="43.48556" lon="6.58959">
        <ele>49.2</ele>
        <time>2025-02-26T14:38:53Z</time>
      </trkpt>
      <trkpt lat="43.48556" lon="6.58961">
        <ele>49.2</ele>
        <time>2025-02-26T14:38:54Z</time>
      </trkpt>
      <trkpt lat="43.48556" lon="6.58962">
        <ele>49.2</ele>
        <time>2025-02-26T14:38:55Z</time>
      </trkpt>
      <trkpt lat="43.48556" lon="6.58963">
        <ele>49.2</ele>
        <time>2025-02-26T14:38:56Z</time>
      </trkpt>
      <trkpt lat="43.48556" lon="6.58965">
        <ele>49.2</ele>
        <time>2025-02-26T14:38:57Z</time>
      </trkpt>
      <trkpt lat="43.48556" lon="6.58967">
        <ele>49.1</ele>
        <time>2025-02-26T14:38:58Z</time>
      </trkpt>
      <trkpt lat="43.48555" lon="6.58969">
        <ele>49.1</ele>
        <time>2025-02-26T14:38:59Z</time>
      </trkpt>
      <trkpt lat="43.48555" lon="6.5897">
        <ele>49</ele>
        <time>2025-02-26T14:39:00Z</time>
      </trkpt>
      <trkpt lat="43.48555" lon="6.58972">
        <ele>48.9</ele>
        <time>2025-02-26T14:39:01Z</time>
      </trkpt>
      <trkpt lat="43.48555" lon="6.58973">
        <ele>48.9</ele>
        <time>2025-02-26T14:39:02Z</time>
      </trkpt>
      <trkpt lat="43.48555" lon="6.58975">
        <ele>48.8</ele>
        <time>2025-02-26T14:39:03Z</time>
      </trkpt>
      <trkpt lat="43.48555" lon="6.58977">
        <ele>48.8</ele>
        <time>2025-02-26T14:39:04Z</time>
      </trkpt>
      <trkpt lat="43.48555" lon="6.58979">
        <ele>48.8</ele>
        <time>2025-02-26T14:39:05Z</time>
      </trkpt>
      <trkpt lat="43.48555" lon="6.5898">
        <ele>48.6</ele>
        <time>2025-02-26T14:39:06Z</time>
      </trkpt>
      <trkpt lat="43.48555" lon="6.58982">
        <ele>48.6</ele>
        <time>2025-02-26T14:39:07Z</time>
      </trkpt>
      <trkpt lat="43.48555" lon="6.58983">
        <ele>48.5</ele>
        <time>2025-02-26T14:39:08Z</time>
      </trkpt>
      <trkpt lat="43.48555" lon="6.58985">
        <ele>48.5</ele>
        <time>2025-02-26T14:39:09Z</time>
      </trkpt>
      <trkpt lat="43.48555" lon="6.58987">
        <ele>48.4</ele>
        <time>2025-02-26T14:39:10Z</time>
      </trkpt>
      <trkpt lat="43.48555" lon="6.58989">
        <ele>48.3</ele>
        <time>2025-02-26T14:39:11Z</time>
      </trkpt>
      <trkpt lat="43.48555" lon="6.58991">
        <ele>48.2</ele>
        <time>2025-02-26T14:39:12Z</time>
      </trkpt>
      <trkpt lat="43.48555" lon="6.58992">
        <ele>48</ele>
        <time>2025-02-26T14:39:13Z</time>
      </trkpt>
      <trkpt lat="43.48555" lon="6.58994">
        <ele>47.9</ele>
        <time>2025-02-26T14:39:14Z</time>
      </trkpt>
      <trkpt lat="43.48555" lon="6.58996">
        <ele>47.8</ele>
        <time>2025-02-26T14:39:15Z</time>
      </trkpt>
      <trkpt lat="43.48555" lon="6.58997">
        <ele>47.7</ele>
        <time>2025-02-26T14:39:16Z</time>
      </trkpt>
      <trkpt lat="43.48555" lon="6.58999">
        <ele>47.6</ele>
        <time>2025-02-26T14:39:17Z</time>
      </trkpt>
      <trkpt lat="43.48556" lon="6.59001">
        <ele>47.5</ele>
        <time>2025-02-26T14:39:18Z</time>
      </trkpt>
      <trkpt lat="43.48556" lon="6.59002">
        <ele>47.5</ele>
        <time>2025-02-26T14:39:19Z</time>
      </trkpt>
      <trkpt lat="43.48556" lon="6.59004">
        <ele>47.4</ele>
        <time>2025-02-26T14:39:20Z</time>
      </trkpt>
      <trkpt lat="43.48556" lon="6.59005">
        <ele>47.2</ele>
        <time>2025-02-26T14:39:21Z</time>
      </trkpt>
      <trkpt lat="43.48556" lon="6.59007">
        <ele>47</ele>
        <time>2025-02-26T14:39:22Z</time>
      </trkpt>
      <trkpt lat="43.48556" lon="6.59008">
        <ele>46.9</ele>
        <time>2025-02-26T14:39:23Z</time>
      </trkpt>
      <trkpt lat="43.48556" lon="6.5901">
        <ele>46.7</ele>
        <time>2025-02-26T14:39:24Z</time>
      </trkpt>
      <trkpt lat="43.48557" lon="6.59012">
        <ele>46.5</ele>
        <time>2025-02-26T14:39:25Z</time>
      </trkpt>
      <trkpt lat="43.48557" lon="6.59014">
        <ele>46.4</ele>
        <time>2025-02-26T14:39:26Z</time>
      </trkpt>
      <trkpt lat="43.48557" lon="6.59015">
        <ele>46.6</ele>
        <time>2025-02-26T14:39:27Z</time>
      </trkpt>
      <trkpt lat="43.48557" lon="6.59017">
        <ele>46.5</ele>
        <time>2025-02-26T14:39:28Z</time>
      </trkpt>
      <trkpt lat="43.48558" lon="6.59019">
        <ele>46.3</ele>
        <time>2025-02-26T14:39:29Z</time>
      </trkpt>
      <trkpt lat="43.48558" lon="6.5902">
        <ele>46.2</ele>
        <time>2025-02-26T14:39:30Z</time>
      </trkpt>
      <trkpt lat="43.48558" lon="6.59022">
        <ele>46.1</ele>
        <time>2025-02-26T14:39:31Z</time>
      </trkpt>
      <trkpt lat="43.48559" lon="6.59024">
        <ele>46</ele>
        <time>2025-02-26T14:39:32Z</time>
      </trkpt>
      <trkpt lat="43.48559" lon="6.59025">
        <ele>46</ele>
        <time>2025-02-26T14:39:33Z</time>
      </trkpt>
      <trkpt lat="43.48559" lon="6.59026">
        <ele>46</ele>
        <time>2025-02-26T14:39:34Z</time>
      </trkpt>
      <trkpt lat="43.4856" lon="6.59028">
        <ele>45.9</ele>
        <time>2025-02-26T14:39:35Z</time>
      </trkpt>
      <trkpt lat="43.48561" lon="6.59029">
        <ele>45.8</ele>
        <time>2025-02-26T14:39:36Z</time>
      </trkpt>
      <trkpt lat="43.48561" lon="6.59031">
        <ele>45.7</ele>
        <time>2025-02-26T14:39:37Z</time>
      </trkpt>
      <trkpt lat="43.48562" lon="6.59032">
        <ele>45.4</ele>
        <time>2025-02-26T14:39:38Z</time>
      </trkpt>
      <trkpt lat="43.48563" lon="6.59034">
        <ele>45.3</ele>
        <time>2025-02-26T14:39:39Z</time>
      </trkpt>
      <trkpt lat="43.48564" lon="6.59035">
        <ele>45.1</ele>
        <time>2025-02-26T14:39:40Z</time>
      </trkpt>
      <trkpt lat="43.48564" lon="6.59037">
        <ele>44.9</ele>
        <time>2025-02-26T14:39:41Z</time>
      </trkpt>
      <trkpt lat="43.48565" lon="6.59038">
        <ele>44.7</ele>
        <time>2025-02-26T14:39:42Z</time>
      </trkpt>
      <trkpt lat="43.48566" lon="6.59039">
        <ele>44.6</ele>
        <time>2025-02-26T14:39:43Z</time>
      </trkpt>
      <trkpt lat="43.48567" lon="6.5904">
        <ele>44.3</ele>
        <time>2025-02-26T14:39:44Z</time>
      </trkpt>
      <trkpt lat="43.48568" lon="6.59041">
        <ele>44.2</ele>
        <time>2025-02-26T14:39:45Z</time>
      </trkpt>
      <trkpt lat="43.48569" lon="6.59041">
        <ele>43.9</ele>
        <time>2025-02-26T14:39:46Z</time>
      </trkpt>
      <trkpt lat="43.48571" lon="6.59042">
        <ele>43.9</ele>
        <time>2025-02-26T14:39:47Z</time>
      </trkpt>
      <trkpt lat="43.48572" lon="6.59043">
        <ele>43.8</ele>
        <time>2025-02-26T14:39:48Z</time>
      </trkpt>
      <trkpt lat="43.48573" lon="6.59044">
        <ele>43.9</ele>
        <time>2025-02-26T14:39:49Z</time>
      </trkpt>
      <trkpt lat="43.48574" lon="6.59045">
        <ele>43.8</ele>
        <time>2025-02-26T14:39:50Z</time>
      </trkpt>
      <trkpt lat="43.48575" lon="6.59046">
        <ele>43.8</ele>
        <time>2025-02-26T14:39:51Z</time>
      </trkpt>
      <trkpt lat="43.48576" lon="6.59047">
        <ele>43.6</ele>
        <time>2025-02-26T14:39:52Z</time>
      </trkpt>
      <trkpt lat="43.48576" lon="6.59048">
        <ele>43.3</ele>
        <time>2025-02-26T14:39:53Z</time>
      </trkpt>
      <trkpt lat="43.48577" lon="6.59049">
        <ele>43.2</ele>
        <time>2025-02-26T14:39:54Z</time>
      </trkpt>
      <trkpt lat="43.48579" lon="6.5905">
        <ele>43.1</ele>
        <time>2025-02-26T14:39:55Z</time>
      </trkpt>
      <trkpt lat="43.4858" lon="6.59051">
        <ele>43.1</ele>
        <time>2025-02-26T14:39:56Z</time>
      </trkpt>
      <trkpt lat="43.48581" lon="6.59052">
        <ele>43.1</ele>
        <time>2025-02-26T14:39:57Z</time>
      </trkpt>
      <trkpt lat="43.48582" lon="6.59052">
        <ele>43.1</ele>
        <time>2025-02-26T14:39:58Z</time>
      </trkpt>
      <trkpt lat="43.48583" lon="6.59053">
        <ele>43</ele>
        <time>2025-02-26T14:39:59Z</time>
      </trkpt>
      <trkpt lat="43.48585" lon="6.59054">
        <ele>43</ele>
        <time>2025-02-26T14:40:00Z</time>
      </trkpt>
      <trkpt lat="43.48586" lon="6.59054">
        <ele>42.9</ele>
        <time>2025-02-26T14:40:01Z</time>
      </trkpt>
      <trkpt lat="43.48587" lon="6.59055">
        <ele>42.8</ele>
        <time>2025-02-26T14:40:02Z</time>
      </trkpt>
      <trkpt lat="43.48588" lon="6.59055">
        <ele>42.8</ele>
        <time>2025-02-26T14:40:03Z</time>
      </trkpt>
      <trkpt lat="43.48589" lon="6.59056">
        <ele>42.6</ele>
        <time>2025-02-26T14:40:04Z</time>
      </trkpt>
      <trkpt lat="43.4859" lon="6.59057">
        <ele>42.5</ele>
        <time>2025-02-26T14:40:05Z</time>
      </trkpt>
      <trkpt lat="43.48591" lon="6.59059">
        <ele>42.4</ele>
        <time>2025-02-26T14:40:06Z</time>
      </trkpt>
      <trkpt lat="43.48592" lon="6.5906">
        <ele>42.3</ele>
        <time>2025-02-26T14:40:07Z</time>
      </trkpt>
      <trkpt lat="43.48593" lon="6.59061">
        <ele>42.3</ele>
        <time>2025-02-26T14:40:08Z</time>
      </trkpt>
      <trkpt lat="43.48594" lon="6.59062">
        <ele>42.2</ele>
        <time>2025-02-26T14:40:09Z</time>
      </trkpt>
      <trkpt lat="43.48595" lon="6.59063">
        <ele>42.2</ele>
        <time>2025-02-26T14:40:10Z</time>
      </trkpt>
      <trkpt lat="43.48596" lon="6.59064">
        <ele>42.1</ele>
        <time>2025-02-26T14:40:11Z</time>
      </trkpt>
      <trkpt lat="43.48596" lon="6.59065">
        <ele>42</ele>
        <time>2025-02-26T14:40:12Z</time>
      </trkpt>
      <trkpt lat="43.48597" lon="6.59067">
        <ele>41.9</ele>
        <time>2025-02-26T14:40:13Z</time>
      </trkpt>
      <trkpt lat="43.48598" lon="6.59068">
        <ele>41.7</ele>
        <time>2025-02-26T14:40:14Z</time>
      </trkpt>
      <trkpt lat="43.48598" lon="6.5907">
        <ele>41.6</ele>
        <time>2025-02-26T14:40:15Z</time>
      </trkpt>
      <trkpt lat="43.48599" lon="6.59071">
        <ele>41.6</ele>
        <time>2025-02-26T14:40:16Z</time>
      </trkpt>
      <trkpt lat="43.48599" lon="6.59073">
        <ele>41.5</ele>
        <time>2025-02-26T14:40:17Z</time>
      </trkpt>
      <trkpt lat="43.486" lon="6.59074">
        <ele>41.5</ele>
        <time>2025-02-26T14:40:18Z</time>
      </trkpt>
      <trkpt lat="43.486" lon="6.59076">
        <ele>41.3</ele>
        <time>2025-02-26T14:40:19Z</time>
      </trkpt>
      <trkpt lat="43.486" lon="6.59078">
        <ele>41.1</ele>
        <time>2025-02-26T14:40:20Z</time>
      </trkpt>
      <trkpt lat="43.486" lon="6.59079">
        <ele>41.1</ele>
        <time>2025-02-26T14:40:21Z</time>
      </trkpt>
      <trkpt lat="43.486" lon="6.59081">
        <ele>41</ele>
        <time>2025-02-26T14:40:22Z</time>
      </trkpt>
      <trkpt lat="43.48601" lon="6.59083">
        <ele>41</ele>
        <time>2025-02-26T14:40:23Z</time>
      </trkpt>
      <trkpt lat="43.48601" lon="6.59085">
        <ele>40.9</ele>
        <time>2025-02-26T14:40:24Z</time>
      </trkpt>
      <trkpt lat="43.48601" lon="6.59086">
        <ele>40.7</ele>
        <time>2025-02-26T14:40:25Z</time>
      </trkpt>
      <trkpt lat="43.48601" lon="6.59087">
        <ele>40.6</ele>
        <time>2025-02-26T14:40:26Z</time>
      </trkpt>
      <trkpt lat="43.486" lon="6.59089">
        <ele>40.6</ele>
        <time>2025-02-26T14:40:27Z</time>
      </trkpt>
      <trkpt lat="43.486" lon="6.59091">
        <ele>40.5</ele>
        <time>2025-02-26T14:40:28Z</time>
      </trkpt>
      <trkpt lat="43.486" lon="6.59092">
        <ele>40.4</ele>
        <time>2025-02-26T14:40:29Z</time>
      </trkpt>
      <trkpt lat="43.486" lon="6.59094">
        <ele>40.4</ele>
        <time>2025-02-26T14:40:30Z</time>
      </trkpt>
      <trkpt lat="43.48599" lon="6.59095">
        <ele>40.3</ele>
        <time>2025-02-26T14:40:31Z</time>
      </trkpt>
      <trkpt lat="43.48599" lon="6.59097">
        <ele>40.4</ele>
        <time>2025-02-26T14:40:32Z</time>
      </trkpt>
      <trkpt lat="43.48599" lon="6.59099">
        <ele>40.4</ele>
        <time>2025-02-26T14:40:33Z</time>
      </trkpt>
      <trkpt lat="43.48599" lon="6.591">
        <ele>40.4</ele>
        <time>2025-02-26T14:40:34Z</time>
      </trkpt>
      <trkpt lat="43.48598" lon="6.59102">
        <ele>40.4</ele>
        <time>2025-02-26T14:40:35Z</time>
      </trkpt>
      <trkpt lat="43.48598" lon="6.59103">
        <ele>40.1</ele>
        <time>2025-02-26T14:40:36Z</time>
      </trkpt>
      <trkpt lat="43.48598" lon="6.59105">
        <ele>39.9</ele>
        <time>2025-02-26T14:40:37Z</time>
      </trkpt>
      <trkpt lat="43.48598" lon="6.59106">
        <ele>39.8</ele>
        <time>2025-02-26T14:40:38Z</time>
      </trkpt>
      <trkpt lat="43.48598" lon="6.59108">
        <ele>39.6</ele>
        <time>2025-02-26T14:40:39Z</time>
      </trkpt>
      <trkpt lat="43.48597" lon="6.59109">
        <ele>39.4</ele>
        <time>2025-02-26T14:40:40Z</time>
      </trkpt>
      <trkpt lat="43.48597" lon="6.59111">
        <ele>39.3</ele>
        <time>2025-02-26T14:40:41Z</time>
      </trkpt>
      <trkpt lat="43.48596" lon="6.59112">
        <ele>39.2</ele>
        <time>2025-02-26T14:40:42Z</time>
      </trkpt>
      <trkpt lat="43.48596" lon="6.59114">
        <ele>39.2</ele>
        <time>2025-02-26T14:40:43Z</time>
      </trkpt>
      <trkpt lat="43.48596" lon="6.59116">
        <ele>39.1</ele>
        <time>2025-02-26T14:40:44Z</time>
      </trkpt>
      <trkpt lat="43.48595" lon="6.59117">
        <ele>39.1</ele>
        <time>2025-02-26T14:40:45Z</time>
      </trkpt>
      <trkpt lat="43.48595" lon="6.59119">
        <ele>39</ele>
        <time>2025-02-26T14:40:46Z</time>
      </trkpt>
      <trkpt lat="43.48594" lon="6.5912">
        <ele>39</ele>
        <time>2025-02-26T14:40:47Z</time>
      </trkpt>
      <trkpt lat="43.48594" lon="6.59122">
        <ele>38.9</ele>
        <time>2025-02-26T14:40:48Z</time>
      </trkpt>
      <trkpt lat="43.48594" lon="6.59123">
        <ele>38.7</ele>
        <time>2025-02-26T14:40:49Z</time>
      </trkpt>
      <trkpt lat="43.48593" lon="6.59125">
        <ele>38.7</ele>
        <time>2025-02-26T14:40:50Z</time>
      </trkpt>
      <trkpt lat="43.48593" lon="6.59127">
        <ele>38.6</ele>
        <time>2025-02-26T14:40:51Z</time>
      </trkpt>
      <trkpt lat="43.48593" lon="6.59128">
        <ele>38.6</ele>
        <time>2025-02-26T14:40:52Z</time>
      </trkpt>
      <trkpt lat="43.48592" lon="6.5913">
        <ele>38.6</ele>
        <time>2025-02-26T14:40:53Z</time>
      </trkpt>
      <trkpt lat="43.48592" lon="6.59132">
        <ele>38.5</ele>
        <time>2025-02-26T14:40:54Z</time>
      </trkpt>
      <trkpt lat="43.48591" lon="6.59133">
        <ele>38.4</ele>
        <time>2025-02-26T14:40:55Z</time>
      </trkpt>
      <trkpt lat="43.48591" lon="6.59135">
        <ele>38.2</ele>
        <time>2025-02-26T14:40:56Z</time>
      </trkpt>
      <trkpt lat="43.48591" lon="6.59136">
        <ele>38</ele>
        <time>2025-02-26T14:40:57Z</time>
      </trkpt>
      <trkpt lat="43.48591" lon="6.59138">
        <ele>37.9</ele>
        <time>2025-02-26T14:40:58Z</time>
      </trkpt>
      <trkpt lat="43.4859" lon="6.59139">
        <ele>37.7</ele>
        <time>2025-02-26T14:40:59Z</time>
      </trkpt>
      <trkpt lat="43.4859" lon="6.59141">
        <ele>37.6</ele>
        <time>2025-02-26T14:41:00Z</time>
      </trkpt>
      <trkpt lat="43.4859" lon="6.59142">
        <ele>37.5</ele>
        <time>2025-02-26T14:41:01Z</time>
      </trkpt>
      <trkpt lat="43.4859" lon="6.59143">
        <ele>37.5</ele>
        <time>2025-02-26T14:41:02Z</time>
      </trkpt>
      <trkpt lat="43.48589" lon="6.59145">
        <ele>37.4</ele>
        <time>2025-02-26T14:41:03Z</time>
      </trkpt>
      <trkpt lat="43.48588" lon="6.59146">
        <ele>37.3</ele>
        <time>2025-02-26T14:41:04Z</time>
      </trkpt>
      <trkpt lat="43.48587" lon="6.59147">
        <ele>37.1</ele>
        <time>2025-02-26T14:41:05Z</time>
      </trkpt>
      <trkpt lat="43.48587" lon="6.59149">
        <ele>37</ele>
        <time>2025-02-26T14:41:06Z</time>
      </trkpt>
      <trkpt lat="43.48586" lon="6.5915">
        <ele>36.7</ele>
        <time>2025-02-26T14:41:07Z</time>
      </trkpt>
      <trkpt lat="43.48586" lon="6.59152">
        <ele>36.5</ele>
        <time>2025-02-26T14:41:08Z</time>
      </trkpt>
      <trkpt lat="43.48585" lon="6.59153">
        <ele>36.2</ele>
        <time>2025-02-26T14:41:09Z</time>
      </trkpt>
      <trkpt lat="43.48585" lon="6.59154">
        <ele>36</ele>
        <time>2025-02-26T14:41:10Z</time>
      </trkpt>
      <trkpt lat="43.48584" lon="6.59156">
        <ele>35.8</ele>
        <time>2025-02-26T14:41:11Z</time>
      </trkpt>
      <trkpt lat="43.48583" lon="6.59157">
        <ele>35.6</ele>
        <time>2025-02-26T14:41:12Z</time>
      </trkpt>
      <trkpt lat="43.48583" lon="6.59158">
        <ele>35.5</ele>
        <time>2025-02-26T14:41:13Z</time>
      </trkpt>
      <trkpt lat="43.48582" lon="6.5916">
        <ele>35.4</ele>
        <time>2025-02-26T14:41:14Z</time>
      </trkpt>
      <trkpt lat="43.48581" lon="6.59161">
        <ele>35.3</ele>
        <time>2025-02-26T14:41:15Z</time>
      </trkpt>
      <trkpt lat="43.48581" lon="6.59162">
        <ele>35</ele>
        <time>2025-02-26T14:41:16Z</time>
      </trkpt>
      <trkpt lat="43.4858" lon="6.59164">
        <ele>34.6</ele>
        <time>2025-02-26T14:41:17Z</time>
      </trkpt>
      <trkpt lat="43.4858" lon="6.59165">
        <ele>34.4</ele>
        <time>2025-02-26T14:41:18Z</time>
      </trkpt>
      <trkpt lat="43.48579" lon="6.59166">
        <ele>34.2</ele>
        <time>2025-02-26T14:41:19Z</time>
      </trkpt>
      <trkpt lat="43.48578" lon="6.59168">
        <ele>34.1</ele>
        <time>2025-02-26T14:41:20Z</time>
      </trkpt>
      <trkpt lat="43.48578" lon="6.59169">
        <ele>34</ele>
        <time>2025-02-26T14:41:21Z</time>
      </trkpt>
      <trkpt lat="43.48577" lon="6.59171">
        <ele>34</ele>
        <time>2025-02-26T14:41:22Z</time>
      </trkpt>
      <trkpt lat="43.48577" lon="6.59172">
        <ele>33.9</ele>
        <time>2025-02-26T14:41:23Z</time>
      </trkpt>
      <trkpt lat="43.48576" lon="6.59174">
        <ele>33.8</ele>
        <time>2025-02-26T14:41:24Z</time>
      </trkpt>
      <trkpt lat="43.48576" lon="6.59176">
        <ele>33.8</ele>
        <time>2025-02-26T14:41:25Z</time>
      </trkpt>
      <trkpt lat="43.48575" lon="6.59177">
        <ele>33.9</ele>
        <time>2025-02-26T14:41:26Z</time>
      </trkpt>
      <trkpt lat="43.48575" lon="6.59179">
        <ele>33.9</ele>
        <time>2025-02-26T14:41:27Z</time>
      </trkpt>
      <trkpt lat="43.48574" lon="6.5918">
        <ele>33.8</ele>
        <time>2025-02-26T14:41:28Z</time>
      </trkpt>
      <trkpt lat="43.48574" lon="6.59182">
        <ele>33.7</ele>
        <time>2025-02-26T14:41:29Z</time>
      </trkpt>
      <trkpt lat="43.48573" lon="6.59184">
        <ele>33.6</ele>
        <time>2025-02-26T14:41:30Z</time>
      </trkpt>
      <trkpt lat="43.48573" lon="6.59185">
        <ele>33.7</ele>
        <time>2025-02-26T14:41:31Z</time>
      </trkpt>
      <trkpt lat="43.48573" lon="6.59187">
        <ele>33.7</ele>
        <time>2025-02-26T14:41:32Z</time>
      </trkpt>
      <trkpt lat="43.48573" lon="6.59189">
        <ele>33.7</ele>
        <time>2025-02-26T14:41:33Z</time>
      </trkpt>
      <trkpt lat="43.48573" lon="6.5919">
        <ele>33.7</ele>
        <time>2025-02-26T14:41:34Z</time>
      </trkpt>
      <trkpt lat="43.48573" lon="6.59192">
        <ele>33.5</ele>
        <time>2025-02-26T14:41:35Z</time>
      </trkpt>
      <trkpt lat="43.48573" lon="6.59194">
        <ele>33.3</ele>
        <time>2025-02-26T14:41:36Z</time>
      </trkpt>
      <trkpt lat="43.48573" lon="6.59196">
        <ele>33.3</ele>
        <time>2025-02-26T14:41:37Z</time>
      </trkpt>
      <trkpt lat="43.48573" lon="6.59198">
        <ele>33.3</ele>
        <time>2025-02-26T14:41:38Z</time>
      </trkpt>
      <trkpt lat="43.48574" lon="6.59199">
        <ele>33.2</ele>
        <time>2025-02-26T14:41:39Z</time>
      </trkpt>
      <trkpt lat="43.48573" lon="6.59202">
        <ele>33.1</ele>
        <time>2025-02-26T14:41:40Z</time>
      </trkpt>
      <trkpt lat="43.48574" lon="6.59203">
        <ele>33.1</ele>
        <time>2025-02-26T14:41:41Z</time>
      </trkpt>
      <trkpt lat="43.48574" lon="6.59205">
        <ele>33</ele>
        <time>2025-02-26T14:41:42Z</time>
      </trkpt>
      <trkpt lat="43.48574" lon="6.59206">
        <ele>32.9</ele>
        <time>2025-02-26T14:41:43Z</time>
      </trkpt>
      <trkpt lat="43.48574" lon="6.59208">
        <ele>32.9</ele>
        <time>2025-02-26T14:41:44Z</time>
      </trkpt>
      <trkpt lat="43.48574" lon="6.5921">
        <ele>32.8</ele>
        <time>2025-02-26T14:41:45Z</time>
      </trkpt>
      <trkpt lat="43.48574" lon="6.59211">
        <ele>32.7</ele>
        <time>2025-02-26T14:41:46Z</time>
      </trkpt>
      <trkpt lat="43.48575" lon="6.59213">
        <ele>32.6</ele>
        <time>2025-02-26T14:41:47Z</time>
      </trkpt>
      <trkpt lat="43.48575" lon="6.59214">
        <ele>32.7</ele>
        <time>2025-02-26T14:41:48Z</time>
      </trkpt>
      <trkpt lat="43.48574" lon="6.59216">
        <ele>32.8</ele>
        <time>2025-02-26T14:41:49Z</time>
      </trkpt>
      <trkpt lat="43.48574" lon="6.59217">
        <ele>32.7</ele>
        <time>2025-02-26T14:41:50Z</time>
      </trkpt>
      <trkpt lat="43.48574" lon="6.59219">
        <ele>32.8</ele>
        <time>2025-02-26T14:41:51Z</time>
      </trkpt>
      <trkpt lat="43.48574" lon="6.5922">
        <ele>32.7</ele>
        <time>2025-02-26T14:41:52Z</time>
      </trkpt>
      <trkpt lat="43.48574" lon="6.59222">
        <ele>32.6</ele>
        <time>2025-02-26T14:41:53Z</time>
      </trkpt>
      <trkpt lat="43.48575" lon="6.59222">
        <ele>32.5</ele>
        <time>2025-02-26T14:41:54Z</time>
      </trkpt>
      <trkpt lat="43.48575" lon="6.59223">
        <ele>32.5</ele>
        <time>2025-02-26T14:41:55Z</time>
      </trkpt>
      <trkpt lat="43.48574" lon="6.59225">
        <ele>32.5</ele>
        <time>2025-02-26T14:41:56Z</time>
      </trkpt>
      <trkpt lat="43.48574" lon="6.59226">
        <ele>32.4</ele>
        <time>2025-02-26T14:41:57Z</time>
      </trkpt>
      <trkpt lat="43.48573" lon="6.59227">
        <ele>32.4</ele>
        <time>2025-02-26T14:41:58Z</time>
      </trkpt>
      <trkpt lat="43.48573" lon="6.59228">
        <ele>32.4</ele>
        <time>2025-02-26T14:41:59Z</time>
      </trkpt>
      <trkpt lat="43.48573" lon="6.59229">
        <ele>32.3</ele>
        <time>2025-02-26T14:42:00Z</time>
      </trkpt>
      <trkpt lat="43.48573" lon="6.5923">
        <ele>32.2</ele>
        <time>2025-02-26T14:42:01Z</time>
      </trkpt>
      <trkpt lat="43.48573" lon="6.59231">
        <ele>32.1</ele>
        <time>2025-02-26T14:42:02Z</time>
      </trkpt>
      <trkpt lat="43.48572" lon="6.59232">
        <ele>32.1</ele>
        <time>2025-02-26T14:42:03Z</time>
      </trkpt>
      <trkpt lat="43.48572" lon="6.59232">
        <ele>32</ele>
        <time>2025-02-26T14:42:04Z</time>
      </trkpt>
      <trkpt lat="43.48571" lon="6.59233">
        <ele>32</ele>
        <time>2025-02-26T14:42:05Z</time>
      </trkpt>
      <trkpt lat="43.48571" lon="6.59234">
        <ele>32</ele>
        <time>2025-02-26T14:42:06Z</time>
      </trkpt>
      <trkpt lat="43.48571" lon="6.59235">
        <ele>31.9</ele>
        <time>2025-02-26T14:42:07Z</time>
      </trkpt>
      <trkpt lat="43.48571" lon="6.59236">
        <ele>32</ele>
        <time>2025-02-26T14:42:08Z</time>
      </trkpt>
      <trkpt lat="43.48571" lon="6.59236">
        <ele>32</ele>
        <time>2025-02-26T14:42:09Z</time>
      </trkpt>
      <trkpt lat="43.48571" lon="6.59237">
        <ele>32</ele>
        <time>2025-02-26T14:42:10Z</time>
      </trkpt>
      <trkpt lat="43.48571" lon="6.59237">
        <ele>32.1</ele>
        <time>2025-02-26T14:42:11Z</time>
      </trkpt>
      <trkpt lat="43.48571" lon="6.59237">
        <ele>32.1</ele>
        <time>2025-02-26T14:42:12Z</time>
      </trkpt>
      <trkpt lat="43.48571" lon="6.59237">
        <ele>32.1</ele>
        <time>2025-02-26T14:42:13Z</time>
      </trkpt>
      <trkpt lat="43.48571" lon="6.59237">
        <ele>32.1</ele>
        <time>2025-02-26T14:42:14Z</time>
      </trkpt>
      <trkpt lat="43.48572" lon="6.59237">
        <ele>32.1</ele>
        <time>2025-02-26T14:42:15Z</time>
      </trkpt>
      <trkpt lat="43.48572" lon="6.59238">
        <ele>32.1</ele>
        <time>2025-02-26T14:42:16Z</time>
      </trkpt>
      <trkpt lat="43.48572" lon="6.59238">
        <ele>32.1</ele>
        <time>2025-02-26T14:42:17Z</time>
      </trkpt>
      <trkpt lat="43.48572" lon="6.59238">
        <ele>32.1</ele>
        <time>2025-02-26T14:42:18Z</time>
      </trkpt>
      <trkpt lat="43.48572" lon="6.59238">
        <ele>32</ele>
        <time>2025-02-26T14:42:19Z</time>
      </trkpt>
      <trkpt lat="43.48572" lon="6.59238">
        <ele>32.1</ele>
        <time>2025-02-26T14:42:20Z</time>
      </trkpt>
      <trkpt lat="43.48572" lon="6.59238">
        <ele>32.1</ele>
        <time>2025-02-26T14:42:21Z</time>
      </trkpt>
      <trkpt lat="43.48572" lon="6.59238">
        <ele>32.2</ele>
        <time>2025-02-26T14:42:22Z</time>
      </trkpt>
      <trkpt lat="43.48572" lon="6.59238">
        <ele>32.1</ele>
        <time>2025-02-26T14:42:23Z</time>
      </trkpt>
      <trkpt lat="43.48572" lon="6.59239">
        <ele>32</ele>
        <time>2025-02-26T14:42:24Z</time>
      </trkpt>
      <trkpt lat="43.48572" lon="6.59239">
        <ele>32</ele>
        <time>2025-02-26T14:42:25Z</time>
      </trkpt>
      <trkpt lat="43.48572" lon="6.59239">
        <ele>32</ele>
        <time>2025-02-26T14:42:26Z</time>
      </trkpt>
      <trkpt lat="43.48572" lon="6.59239">
        <ele>32</ele>
        <time>2025-02-26T14:42:27Z</time>
      </trkpt>
      <trkpt lat="43.48572" lon="6.59239">
        <ele>31.9</ele>
        <time>2025-02-26T14:42:28Z</time>
      </trkpt>
      <trkpt lat="43.48572" lon="6.59239">
        <ele>31.9</ele>
        <time>2025-02-26T14:42:29Z</time>
      </trkpt>
      <trkpt lat="43.48572" lon="6.5924">
        <ele>31.9</ele>
        <time>2025-02-26T14:42:30Z</time>
      </trkpt>
      <trkpt lat="43.48572" lon="6.5924">
        <ele>31.9</ele>
        <time>2025-02-26T14:42:31Z</time>
      </trkpt>
      <trkpt lat="43.48572" lon="6.5924">
        <ele>31.9</ele>
        <time>2025-02-26T14:42:32Z</time>
      </trkpt>
      <trkpt lat="43.48572" lon="6.5924">
        <ele>31.8</ele>
        <time>2025-02-26T14:42:33Z</time>
      </trkpt>
      <trkpt lat="43.48572" lon="6.5924">
        <ele>31.8</ele>
        <time>2025-02-26T14:42:34Z</time>
      </trkpt>
      <trkpt lat="43.48572" lon="6.5924">
        <ele>31.8</ele>
        <time>2025-02-26T14:42:35Z</time>
      </trkpt>
      <trkpt lat="43.48573" lon="6.59239">
        <ele>31.9</ele>
        <time>2025-02-26T14:42:36Z</time>
      </trkpt>
      <trkpt lat="43.48573" lon="6.59239">
        <ele>32</ele>
        <time>2025-02-26T14:42:37Z</time>
      </trkpt>
      <trkpt lat="43.48572" lon="6.59239">
        <ele>31.9</ele>
        <time>2025-02-26T14:42:38Z</time>
      </trkpt>
      <trkpt lat="43.48573" lon="6.5924">
        <ele>31.9</ele>
        <time>2025-02-26T14:42:39Z</time>
      </trkpt>
      <trkpt lat="43.48573" lon="6.5924">
        <ele>31.9</ele>
        <time>2025-02-26T14:42:40Z</time>
      </trkpt>
      <trkpt lat="43.48573" lon="6.5924">
        <ele>31.9</ele>
        <time>2025-02-26T14:42:41Z</time>
      </trkpt>
      <trkpt lat="43.48573" lon="6.5924">
        <ele>31.9</ele>
        <time>2025-02-26T14:42:42Z</time>
      </trkpt>
      <trkpt lat="43.48573" lon="6.59241">
        <ele>31.9</ele>
        <time>2025-02-26T14:42:43Z</time>
      </trkpt>
      <trkpt lat="43.48573" lon="6.59242">
        <ele>31.9</ele>
        <time>2025-02-26T14:42:44Z</time>
      </trkpt>
      <trkpt lat="43.48574" lon="6.59243">
        <ele>31.8</ele>
        <time>2025-02-26T14:42:45Z</time>
      </trkpt>
      <trkpt lat="43.48575" lon="6.59245">
        <ele>31.8</ele>
        <time>2025-02-26T14:42:46Z</time>
      </trkpt>
      <trkpt lat="43.48575" lon="6.59246">
        <ele>31.7</ele>
        <time>2025-02-26T14:42:47Z</time>
      </trkpt>
      <trkpt lat="43.48576" lon="6.59248">
        <ele>31.7</ele>
        <time>2025-02-26T14:42:48Z</time>
      </trkpt>
      <trkpt lat="43.48577" lon="6.59249">
        <ele>31.5</ele>
        <time>2025-02-26T14:42:49Z</time>
      </trkpt>
      <trkpt lat="43.48578" lon="6.5925">
        <ele>31.2</ele>
        <time>2025-02-26T14:42:50Z</time>
      </trkpt>
      <trkpt lat="43.48578" lon="6.59252">
        <ele>30.9</ele>
        <time>2025-02-26T14:42:51Z</time>
      </trkpt>
      <trkpt lat="43.48579" lon="6.59253">
        <ele>30.7</ele>
        <time>2025-02-26T14:42:52Z</time>
      </trkpt>
      <trkpt lat="43.4858" lon="6.59254">
        <ele>30.5</ele>
        <time>2025-02-26T14:42:53Z</time>
      </trkpt>
      <trkpt lat="43.48581" lon="6.59254">
        <ele>30.3</ele>
        <time>2025-02-26T14:42:54Z</time>
      </trkpt>
      <trkpt lat="43.48582" lon="6.59255">
        <ele>30.2</ele>
        <time>2025-02-26T14:42:55Z</time>
      </trkpt>
      <trkpt lat="43.48583" lon="6.59256">
        <ele>30</ele>
        <time>2025-02-26T14:42:56Z</time>
      </trkpt>
      <trkpt lat="43.48584" lon="6.59257">
        <ele>29.8</ele>
        <time>2025-02-26T14:42:57Z</time>
      </trkpt>
      <trkpt lat="43.48585" lon="6.59258">
        <ele>29.8</ele>
        <time>2025-02-26T14:42:58Z</time>
      </trkpt>
      <trkpt lat="43.48586" lon="6.59258">
        <ele>29.7</ele>
        <time>2025-02-26T14:42:59Z</time>
      </trkpt>
      <trkpt lat="43.48586" lon="6.59258">
        <ele>29.5</ele>
        <time>2025-02-26T14:43:00Z</time>
      </trkpt>
      <trkpt lat="43.48587" lon="6.59259">
        <ele>29.3</ele>
        <time>2025-02-26T14:43:01Z</time>
      </trkpt>
      <trkpt lat="43.48588" lon="6.59259">
        <ele>29.1</ele>
        <time>2025-02-26T14:43:02Z</time>
      </trkpt>
      <trkpt lat="43.48589" lon="6.59259">
        <ele>28.9</ele>
        <time>2025-02-26T14:43:03Z</time>
      </trkpt>
      <trkpt lat="43.48591" lon="6.59259">
        <ele>28.5</ele>
        <time>2025-02-26T14:43:04Z</time>
      </trkpt>
      <trkpt lat="43.48592" lon="6.59259">
        <ele>28.3</ele>
        <time>2025-02-26T14:43:05Z</time>
      </trkpt>
      <trkpt lat="43.48593" lon="6.5926">
        <ele>28.1</ele>
        <time>2025-02-26T14:43:06Z</time>
      </trkpt>
      <trkpt lat="43.48593" lon="6.59261">
        <ele>27.8</ele>
        <time>2025-02-26T14:43:07Z</time>
      </trkpt>
      <trkpt lat="43.48594" lon="6.59262">
        <ele>27.6</ele>
        <time>2025-02-26T14:43:08Z</time>
      </trkpt>
      <trkpt lat="43.48595" lon="6.59263">
        <ele>27.4</ele>
        <time>2025-02-26T14:43:09Z</time>
      </trkpt>
      <trkpt lat="43.48596" lon="6.59264">
        <ele>27.2</ele>
        <time>2025-02-26T14:43:10Z</time>
      </trkpt>
      <trkpt lat="43.48597" lon="6.59264">
        <ele>27</ele>
        <time>2025-02-26T14:43:11Z</time>
      </trkpt>
      <trkpt lat="43.48598" lon="6.59265">
        <ele>26.6</ele>
        <time>2025-02-26T14:43:12Z</time>
      </trkpt>
      <trkpt lat="43.48599" lon="6.59266">
        <ele>26.2</ele>
        <time>2025-02-26T14:43:13Z</time>
      </trkpt>
      <trkpt lat="43.486" lon="6.59267">
        <ele>25.9</ele>
        <time>2025-02-26T14:43:14Z</time>
      </trkpt>
      <trkpt lat="43.48601" lon="6.59268">
        <ele>25.6</ele>
        <time>2025-02-26T14:43:15Z</time>
      </trkpt>
      <trkpt lat="43.48602" lon="6.59269">
        <ele>25.3</ele>
        <time>2025-02-26T14:43:16Z</time>
      </trkpt>
      <trkpt lat="43.48603" lon="6.59271">
        <ele>25.1</ele>
        <time>2025-02-26T14:43:17Z</time>
      </trkpt>
      <trkpt lat="43.48603" lon="6.59272">
        <ele>24.9</ele>
        <time>2025-02-26T14:43:18Z</time>
      </trkpt>
      <trkpt lat="43.48604" lon="6.59273">
        <ele>24.9</ele>
        <time>2025-02-26T14:43:19Z</time>
      </trkpt>
      <trkpt lat="43.48604" lon="6.59275">
        <ele>24.9</ele>
        <time>2025-02-26T14:43:20Z</time>
      </trkpt>
      <trkpt lat="43.48604" lon="6.59277">
        <ele>24.9</ele>
        <time>2025-02-26T14:43:21Z</time>
      </trkpt>
      <trkpt lat="43.48605" lon="6.59278">
        <ele>24.9</ele>
        <time>2025-02-26T14:43:22Z</time>
      </trkpt>
      <trkpt lat="43.48605" lon="6.59279">
        <ele>24.8</ele>
        <time>2025-02-26T14:43:23Z</time>
      </trkpt>
      <trkpt lat="43.48606" lon="6.59281">
        <ele>24.8</ele>
        <time>2025-02-26T14:43:24Z</time>
      </trkpt>
      <trkpt lat="43.48607" lon="6.59282">
        <ele>24.8</ele>
        <time>2025-02-26T14:43:25Z</time>
      </trkpt>
      <trkpt lat="43.48607" lon="6.59284">
        <ele>24.8</ele>
        <time>2025-02-26T14:43:26Z</time>
      </trkpt>
      <trkpt lat="43.48608" lon="6.59285">
        <ele>24.7</ele>
        <time>2025-02-26T14:43:27Z</time>
      </trkpt>
      <trkpt lat="43.48609" lon="6.59286">
        <ele>24.7</ele>
        <time>2025-02-26T14:43:28Z</time>
      </trkpt>
      <trkpt lat="43.4861" lon="6.59287">
        <ele>24.7</ele>
        <time>2025-02-26T14:43:29Z</time>
      </trkpt>
      <trkpt lat="43.48611" lon="6.59288">
        <ele>24.6</ele>
        <time>2025-02-26T14:43:30Z</time>
      </trkpt>
      <trkpt lat="43.48612" lon="6.59288">
        <ele>24.6</ele>
        <time>2025-02-26T14:43:31Z</time>
      </trkpt>
      <trkpt lat="43.48613" lon="6.59289">
        <ele>24.6</ele>
        <time>2025-02-26T14:43:32Z</time>
      </trkpt>
      <trkpt lat="43.48614" lon="6.59289">
        <ele>24.6</ele>
        <time>2025-02-26T14:43:33Z</time>
      </trkpt>
      <trkpt lat="43.48615" lon="6.5929">
        <ele>24.6</ele>
        <time>2025-02-26T14:43:34Z</time>
      </trkpt>
      <trkpt lat="43.48616" lon="6.5929">
        <ele>24.5</ele>
        <time>2025-02-26T14:43:35Z</time>
      </trkpt>
      <trkpt lat="43.48617" lon="6.59291">
        <ele>24.5</ele>
        <time>2025-02-26T14:43:36Z</time>
      </trkpt>
      <trkpt lat="43.48618" lon="6.59291">
        <ele>24.5</ele>
        <time>2025-02-26T14:43:37Z</time>
      </trkpt>
      <trkpt lat="43.48619" lon="6.5929">
        <ele>24.4</ele>
        <time>2025-02-26T14:43:38Z</time>
      </trkpt>
      <trkpt lat="43.48619" lon="6.5929">
        <ele>24.5</ele>
        <time>2025-02-26T14:43:39Z</time>
      </trkpt>
      <trkpt lat="43.4862" lon="6.5929">
        <ele>24.6</ele>
        <time>2025-02-26T14:43:40Z</time>
      </trkpt>
      <trkpt lat="43.48621" lon="6.59289">
        <ele>24.6</ele>
        <time>2025-02-26T14:43:41Z</time>
      </trkpt>
      <trkpt lat="43.48622" lon="6.59289">
        <ele>24.5</ele>
        <time>2025-02-26T14:43:42Z</time>
      </trkpt>
      <trkpt lat="43.48623" lon="6.59289">
        <ele>24.4</ele>
        <time>2025-02-26T14:43:43Z</time>
      </trkpt>
      <trkpt lat="43.48623" lon="6.59289">
        <ele>24.3</ele>
        <time>2025-02-26T14:43:44Z</time>
      </trkpt>
      <trkpt lat="43.48623" lon="6.59289">
        <ele>24.1</ele>
        <time>2025-02-26T14:43:45Z</time>
      </trkpt>
      <trkpt lat="43.48624" lon="6.59289">
        <ele>24.1</ele>
        <time>2025-02-26T14:43:46Z</time>
      </trkpt>
      <trkpt lat="43.48624" lon="6.59289">
        <ele>24.1</ele>
        <time>2025-02-26T14:43:47Z</time>
      </trkpt>
      <trkpt lat="43.48624" lon="6.59289">
        <ele>24</ele>
        <time>2025-02-26T14:43:48Z</time>
      </trkpt>
      <trkpt lat="43.48624" lon="6.59289">
        <ele>24</ele>
        <time>2025-02-26T14:43:49Z</time>
      </trkpt>
      <trkpt lat="43.48624" lon="6.59289">
        <ele>24.1</ele>
        <time>2025-02-26T14:43:50Z</time>
      </trkpt>
      <trkpt lat="43.48624" lon="6.59289">
        <ele>24.1</ele>
        <time>2025-02-26T14:43:51Z</time>
      </trkpt>
      <trkpt lat="43.48624" lon="6.59289">
        <ele>24</ele>
        <time>2025-02-26T14:43:52Z</time>
      </trkpt>
      <trkpt lat="43.48624" lon="6.59289">
        <ele>24.1</ele>
        <time>2025-02-26T14:43:53Z</time>
      </trkpt>
      <trkpt lat="43.48625" lon="6.59289">
        <ele>24.1</ele>
        <time>2025-02-26T14:43:54Z</time>
      </trkpt>
      <trkpt lat="43.48625" lon="6.59289">
        <ele>24.1</ele>
        <time>2025-02-26T14:43:55Z</time>
      </trkpt>
      <trkpt lat="43.48626" lon="6.59289">
        <ele>24.1</ele>
        <time>2025-02-26T14:43:56Z</time>
      </trkpt>
      <trkpt lat="43.48627" lon="6.59289">
        <ele>24.1</ele>
        <time>2025-02-26T14:43:57Z</time>
      </trkpt>
      <trkpt lat="43.48628" lon="6.5929">
        <ele>24.1</ele>
        <time>2025-02-26T14:43:58Z</time>
      </trkpt>
      <trkpt lat="43.48629" lon="6.59289">
        <ele>24.1</ele>
        <time>2025-02-26T14:43:59Z</time>
      </trkpt>
      <trkpt lat="43.4863" lon="6.59289">
        <ele>24.1</ele>
        <time>2025-02-26T14:44:00Z</time>
      </trkpt>
      <trkpt lat="43.4863" lon="6.59288">
        <ele>24.1</ele>
        <time>2025-02-26T14:44:01Z</time>
      </trkpt>
      <trkpt lat="43.48631" lon="6.59287">
        <ele>24.2</ele>
        <time>2025-02-26T14:44:02Z</time>
      </trkpt>
      <trkpt lat="43.48631" lon="6.59286">
        <ele>24.3</ele>
        <time>2025-02-26T14:44:03Z</time>
      </trkpt>
      <trkpt lat="43.48631" lon="6.59285">
        <ele>24.3</ele>
        <time>2025-02-26T14:44:04Z</time>
      </trkpt>
      <trkpt lat="43.48631" lon="6.59285">
        <ele>24.4</ele>
        <time>2025-02-26T14:44:05Z</time>
      </trkpt>
      <trkpt lat="43.48631" lon="6.59285">
        <ele>24.3</ele>
        <time>2025-02-26T14:44:06Z</time>
      </trkpt>
      <trkpt lat="43.48631" lon="6.59285">
        <ele>24.4</ele>
        <time>2025-02-26T14:44:07Z</time>
      </trkpt>
      <trkpt lat="43.48631" lon="6.59285">
        <ele>24.3</ele>
        <time>2025-02-26T14:44:08Z</time>
      </trkpt>
      <trkpt lat="43.4863" lon="6.59285">
        <ele>24.2</ele>
        <time>2025-02-26T14:44:09Z</time>
      </trkpt>
      <trkpt lat="43.4863" lon="6.59286">
        <ele>24.2</ele>
        <time>2025-02-26T14:44:10Z</time>
      </trkpt>
      <trkpt lat="43.4863" lon="6.59286">
        <ele>24.2</ele>
        <time>2025-02-26T14:44:11Z</time>
      </trkpt>
      <trkpt lat="43.4863" lon="6.59285">
        <ele>24.1</ele>
        <time>2025-02-26T14:44:12Z</time>
      </trkpt>
      <trkpt lat="43.4863" lon="6.59285">
        <ele>24</ele>
        <time>2025-02-26T14:44:13Z</time>
      </trkpt>
      <trkpt lat="43.4863" lon="6.59285">
        <ele>23.9</ele>
        <time>2025-02-26T14:44:14Z</time>
      </trkpt>
      <trkpt lat="43.4863" lon="6.59285">
        <ele>23.9</ele>
        <time>2025-02-26T14:44:15Z</time>
      </trkpt>
      <trkpt lat="43.4863" lon="6.59285">
        <ele>23.9</ele>
        <time>2025-02-26T14:44:16Z</time>
      </trkpt>
      <trkpt lat="43.4863" lon="6.59285">
        <ele>24</ele>
        <time>2025-02-26T14:44:17Z</time>
      </trkpt>
      <trkpt lat="43.4863" lon="6.59285">
        <ele>23.9</ele>
        <time>2025-02-26T14:44:18Z</time>
      </trkpt>
      <trkpt lat="43.4863" lon="6.59285">
        <ele>24</ele>
        <time>2025-02-26T14:44:19Z</time>
      </trkpt>
      <trkpt lat="43.4863" lon="6.59286">
        <ele>24</ele>
        <time>2025-02-26T14:44:20Z</time>
      </trkpt>
      <trkpt lat="43.48631" lon="6.59287">
        <ele>24</ele>
        <time>2025-02-26T14:44:21Z</time>
      </trkpt>
      <trkpt lat="43.4863" lon="6.59287">
        <ele>24.1</ele>
        <time>2025-02-26T14:44:22Z</time>
      </trkpt>
      <trkpt lat="43.4863" lon="6.59287">
        <ele>24.2</ele>
        <time>2025-02-26T14:44:23Z</time>
      </trkpt>
      <trkpt lat="43.4863" lon="6.59287">
        <ele>24.1</ele>
        <time>2025-02-26T14:44:24Z</time>
      </trkpt>
      <trkpt lat="43.4863" lon="6.59287">
        <ele>24.1</ele>
        <time>2025-02-26T14:44:25Z</time>
      </trkpt>
      <trkpt lat="43.4863" lon="6.59287">
        <ele>24.1</ele>
        <time>2025-02-26T14:44:26Z</time>
      </trkpt>
      <trkpt lat="43.4863" lon="6.59287">
        <ele>24.1</ele>
        <time>2025-02-26T14:44:27Z</time>
      </trkpt>
      <trkpt lat="43.4863" lon="6.59287">
        <ele>24.1</ele>
        <time>2025-02-26T14:44:28Z</time>
      </trkpt>
      <trkpt lat="43.4863" lon="6.59286">
        <ele>24.1</ele>
        <time>2025-02-26T14:44:29Z</time>
      </trkpt>
      <trkpt lat="43.48631" lon="6.59286">
        <ele>24</ele>
        <time>2025-02-26T14:44:30Z</time>
      </trkpt>
      <trkpt lat="43.48632" lon="6.59285">
        <ele>24</ele>
        <time>2025-02-26T14:44:31Z</time>
      </trkpt>
      <trkpt lat="43.48632" lon="6.59284">
        <ele>24</ele>
        <time>2025-02-26T14:44:32Z</time>
      </trkpt>
      <trkpt lat="43.48633" lon="6.59284">
        <ele>23.9</ele>
        <time>2025-02-26T14:44:33Z</time>
      </trkpt>
      <trkpt lat="43.48633" lon="6.59283">
        <ele>24</ele>
        <time>2025-02-26T14:44:34Z</time>
      </trkpt>
      <trkpt lat="43.48634" lon="6.59283">
        <ele>24</ele>
        <time>2025-02-26T14:44:35Z</time>
      </trkpt>
      <trkpt lat="43.48635" lon="6.59283">
        <ele>24</ele>
        <time>2025-02-26T14:44:36Z</time>
      </trkpt>
      <trkpt lat="43.48635" lon="6.59282">
        <ele>24</ele>
        <time>2025-02-26T14:44:37Z</time>
      </trkpt>
      <trkpt lat="43.48636" lon="6.59281">
        <ele>24.1</ele>
        <time>2025-02-26T14:44:38Z</time>
      </trkpt>
      <trkpt lat="43.48637" lon="6.59281">
        <ele>24.1</ele>
        <time>2025-02-26T14:44:39Z</time>
      </trkpt>
      <trkpt lat="43.48638" lon="6.5928">
        <ele>24.1</ele>
        <time>2025-02-26T14:44:40Z</time>
      </trkpt>
      <trkpt lat="43.48639" lon="6.59279">
        <ele>24.1</ele>
        <time>2025-02-26T14:44:41Z</time>
      </trkpt>
      <trkpt lat="43.4864" lon="6.59279">
        <ele>24.1</ele>
        <time>2025-02-26T14:44:42Z</time>
      </trkpt>
      <trkpt lat="43.4864" lon="6.59278">
        <ele>24.1</ele>
        <time>2025-02-26T14:44:43Z</time>
      </trkpt>
      <trkpt lat="43.48641" lon="6.59277">
        <ele>24.2</ele>
        <time>2025-02-26T14:44:44Z</time>
      </trkpt>
      <trkpt lat="43.48642" lon="6.59277">
        <ele>24.2</ele>
        <time>2025-02-26T14:44:45Z</time>
      </trkpt>
      <trkpt lat="43.48643" lon="6.59276">
        <ele>24.3</ele>
        <time>2025-02-26T14:44:46Z</time>
      </trkpt>
      <trkpt lat="43.48644" lon="6.59275">
        <ele>24.3</ele>
        <time>2025-02-26T14:44:47Z</time>
      </trkpt>
      <trkpt lat="43.48645" lon="6.59275">
        <ele>24.3</ele>
        <time>2025-02-26T14:44:48Z</time>
      </trkpt>
      <trkpt lat="43.48646" lon="6.59274">
        <ele>24.3</ele>
        <time>2025-02-26T14:44:49Z</time>
      </trkpt>
      <trkpt lat="43.48647" lon="6.59273">
        <ele>24.2</ele>
        <time>2025-02-26T14:44:50Z</time>
      </trkpt>
      <trkpt lat="43.48648" lon="6.59273">
        <ele>24.1</ele>
        <time>2025-02-26T14:44:51Z</time>
      </trkpt>
      <trkpt lat="43.48649" lon="6.59272">
        <ele>24.2</ele>
        <time>2025-02-26T14:44:52Z</time>
      </trkpt>
      <trkpt lat="43.48649" lon="6.59271">
        <ele>24.3</ele>
        <time>2025-02-26T14:44:53Z</time>
      </trkpt>
      <trkpt lat="43.4865" lon="6.5927">
        <ele>24.4</ele>
        <time>2025-02-26T14:44:54Z</time>
      </trkpt>
      <trkpt lat="43.48651" lon="6.5927">
        <ele>24.5</ele>
        <time>2025-02-26T14:44:55Z</time>
      </trkpt>
      <trkpt lat="43.48652" lon="6.5927">
        <ele>24.3</ele>
        <time>2025-02-26T14:44:56Z</time>
      </trkpt>
      <trkpt lat="43.48654" lon="6.5927">
        <ele>24.5</ele>
        <time>2025-02-26T14:44:57Z</time>
      </trkpt>
      <trkpt lat="43.48655" lon="6.59269">
        <ele>24.5</ele>
        <time>2025-02-26T14:44:58Z</time>
      </trkpt>
      <trkpt lat="43.48655" lon="6.59269">
        <ele>24.6</ele>
        <time>2025-02-26T14:44:59Z</time>
      </trkpt>
      <trkpt lat="43.48656" lon="6.59268">
        <ele>24.6</ele>
        <time>2025-02-26T14:45:00Z</time>
      </trkpt>
      <trkpt lat="43.48658" lon="6.59268">
        <ele>24.7</ele>
        <time>2025-02-26T14:45:01Z</time>
      </trkpt>
      <trkpt lat="43.48658" lon="6.59267">
        <ele>24.8</ele>
        <time>2025-02-26T14:45:02Z</time>
      </trkpt>
      <trkpt lat="43.48659" lon="6.59266">
        <ele>24.7</ele>
        <time>2025-02-26T14:45:03Z</time>
      </trkpt>
      <trkpt lat="43.4866" lon="6.59265">
        <ele>24.7</ele>
        <time>2025-02-26T14:45:04Z</time>
      </trkpt>
      <trkpt lat="43.4866" lon="6.59264">
        <ele>24.6</ele>
        <time>2025-02-26T14:45:05Z</time>
      </trkpt>
      <trkpt lat="43.4866" lon="6.59264">
        <ele>24.6</ele>
        <time>2025-02-26T14:45:06Z</time>
      </trkpt>
      <trkpt lat="43.48661" lon="6.59263">
        <ele>24.6</ele>
        <time>2025-02-26T14:45:07Z</time>
      </trkpt>
      <trkpt lat="43.48661" lon="6.59263">
        <ele>24.5</ele>
        <time>2025-02-26T14:45:08Z</time>
      </trkpt>
      <trkpt lat="43.48661" lon="6.59262">
        <ele>24.6</ele>
        <time>2025-02-26T14:45:09Z</time>
      </trkpt>
      <trkpt lat="43.48661" lon="6.59262">
        <ele>24.6</ele>
        <time>2025-02-26T14:45:10Z</time>
      </trkpt>
      <trkpt lat="43.4866" lon="6.59262">
        <ele>24.7</ele>
        <time>2025-02-26T14:45:11Z</time>
      </trkpt>
      <trkpt lat="43.48661" lon="6.59262">
        <ele>24.7</ele>
        <time>2025-02-26T14:45:12Z</time>
      </trkpt>
      <trkpt lat="43.48661" lon="6.59262">
        <ele>24.7</ele>
        <time>2025-02-26T14:45:13Z</time>
      </trkpt>
      <trkpt lat="43.48661" lon="6.59262">
        <ele>24.7</ele>
        <time>2025-02-26T14:45:14Z</time>
      </trkpt>
      <trkpt lat="43.48661" lon="6.59262">
        <ele>24.7</ele>
        <time>2025-02-26T14:45:15Z</time>
      </trkpt>
      <trkpt lat="43.48661" lon="6.59262">
        <ele>24.7</ele>
        <time>2025-02-26T14:45:16Z</time>
      </trkpt>
      <trkpt lat="43.48661" lon="6.59262">
        <ele>24.8</ele>
        <time>2025-02-26T14:45:17Z</time>
      </trkpt>
      <trkpt lat="43.48661" lon="6.59263">
        <ele>24.8</ele>
        <time>2025-02-26T14:45:18Z</time>
      </trkpt>
      <trkpt lat="43.48661" lon="6.59263">
        <ele>24.8</ele>
        <time>2025-02-26T14:45:19Z</time>
      </trkpt>
      <trkpt lat="43.48661" lon="6.59262">
        <ele>24.8</ele>
        <time>2025-02-26T14:45:20Z</time>
      </trkpt>
      <trkpt lat="43.48661" lon="6.59262">
        <ele>24.8</ele>
        <time>2025-02-26T14:45:21Z</time>
      </trkpt>
      <trkpt lat="43.4866" lon="6.59262">
        <ele>24.8</ele>
        <time>2025-02-26T14:45:22Z</time>
      </trkpt>
      <trkpt lat="43.4866" lon="6.59262">
        <ele>24.7</ele>
        <time>2025-02-26T14:45:23Z</time>
      </trkpt>
      <trkpt lat="43.4866" lon="6.59262">
        <ele>24.7</ele>
        <time>2025-02-26T14:45:24Z</time>
      </trkpt>
      <trkpt lat="43.4866" lon="6.59262">
        <ele>24.6</ele>
        <time>2025-02-26T14:45:25Z</time>
      </trkpt>
      <trkpt lat="43.4866" lon="6.59262">
        <ele>24.5</ele>
        <time>2025-02-26T14:45:26Z</time>
      </trkpt>
      <trkpt lat="43.4866" lon="6.59262">
        <ele>24.6</ele>
        <time>2025-02-26T14:45:27Z</time>
      </trkpt>
      <trkpt lat="43.4866" lon="6.59263">
        <ele>24.6</ele>
        <time>2025-02-26T14:45:28Z</time>
      </trkpt>
      <trkpt lat="43.4866" lon="6.59263">
        <ele>24.6</ele>
        <time>2025-02-26T14:45:29Z</time>
      </trkpt>
      <trkpt lat="43.4866" lon="6.59263">
        <ele>24.6</ele>
        <time>2025-02-26T14:45:30Z</time>
      </trkpt>
      <trkpt lat="43.4866" lon="6.59263">
        <ele>24.6</ele>
        <time>2025-02-26T14:45:31Z</time>
      </trkpt>
      <trkpt lat="43.48659" lon="6.59263">
        <ele>24.6</ele>
        <time>2025-02-26T14:45:32Z</time>
      </trkpt>
      <trkpt lat="43.48659" lon="6.59263">
        <ele>24.8</ele>
        <time>2025-02-26T14:45:33Z</time>
      </trkpt>
      <trkpt lat="43.48659" lon="6.59263">
        <ele>24.9</ele>
        <time>2025-02-26T14:45:34Z</time>
      </trkpt>
      <trkpt lat="43.48659" lon="6.59263">
        <ele>24.9</ele>
        <time>2025-02-26T14:45:35Z</time>
      </trkpt>
      <trkpt lat="43.48659" lon="6.59263">
        <ele>25</ele>
        <time>2025-02-26T14:45:36Z</time>
      </trkpt>
      <trkpt lat="43.48659" lon="6.59262">
        <ele>25.1</ele>
        <time>2025-02-26T14:45:37Z</time>
      </trkpt>
      <trkpt lat="43.48659" lon="6.59262">
        <ele>25.1</ele>
        <time>2025-02-26T14:45:38Z</time>
      </trkpt>
      <trkpt lat="43.4866" lon="6.59262">
        <ele>25.1</ele>
        <time>2025-02-26T14:45:39Z</time>
      </trkpt>
      <trkpt lat="43.4866" lon="6.59263">
        <ele>25.1</ele>
        <time>2025-02-26T14:45:40Z</time>
      </trkpt>
      <trkpt lat="43.48661" lon="6.59263">
        <ele>25.1</ele>
        <time>2025-02-26T14:45:41Z</time>
      </trkpt>
      <trkpt lat="43.48661" lon="6.59264">
        <ele>25.1</ele>
        <time>2025-02-26T14:45:42Z</time>
      </trkpt>
      <trkpt lat="43.48661" lon="6.59264">
        <ele>25.1</ele>
        <time>2025-02-26T14:45:43Z</time>
      </trkpt>
      <trkpt lat="43.48661" lon="6.59264">
        <ele>25.1</ele>
        <time>2025-02-26T14:45:44Z</time>
      </trkpt>
      <trkpt lat="43.48662" lon="6.59264">
        <ele>25</ele>
        <time>2025-02-26T14:45:45Z</time>
      </trkpt>
      <trkpt lat="43.48662" lon="6.59263">
        <ele>25</ele>
        <time>2025-02-26T14:45:46Z</time>
      </trkpt>
      <trkpt lat="43.48662" lon="6.59263">
        <ele>24.9</ele>
        <time>2025-02-26T14:45:47Z</time>
      </trkpt>
      <trkpt lat="43.48662" lon="6.59263">
        <ele>24.8</ele>
        <time>2025-02-26T14:45:48Z</time>
      </trkpt>
      <trkpt lat="43.48662" lon="6.59263">
        <ele>24.8</ele>
        <time>2025-02-26T14:45:49Z</time>
      </trkpt>
      <trkpt lat="43.48662" lon="6.59262">
        <ele>24.7</ele>
        <time>2025-02-26T14:45:50Z</time>
      </trkpt>
      <trkpt lat="43.48662" lon="6.59262">
        <ele>24.7</ele>
        <time>2025-02-26T14:45:51Z</time>
      </trkpt>
      <trkpt lat="43.48663" lon="6.59262">
        <ele>24.6</ele>
        <time>2025-02-26T14:45:52Z</time>
      </trkpt>
      <trkpt lat="43.48663" lon="6.59262">
        <ele>24.6</ele>
        <time>2025-02-26T14:45:53Z</time>
      </trkpt>
      <trkpt lat="43.48663" lon="6.59262">
        <ele>24.6</ele>
        <time>2025-02-26T14:45:54Z</time>
      </trkpt>
      <trkpt lat="43.48663" lon="6.59262">
        <ele>24.6</ele>
        <time>2025-02-26T14:45:55Z</time>
      </trkpt>
      <trkpt lat="43.48664" lon="6.59262">
        <ele>24.7</ele>
        <time>2025-02-26T14:45:56Z</time>
      </trkpt>
      <trkpt lat="43.48664" lon="6.59261">
        <ele>24.6</ele>
        <time>2025-02-26T14:45:57Z</time>
      </trkpt>
      <trkpt lat="43.48664" lon="6.59261">
        <ele>24.6</ele>
        <time>2025-02-26T14:45:58Z</time>
      </trkpt>
      <trkpt lat="43.48664" lon="6.59261">
        <ele>24.6</ele>
        <time>2025-02-26T14:45:59Z</time>
      </trkpt>
      <trkpt lat="43.48664" lon="6.59261">
        <ele>24.7</ele>
        <time>2025-02-26T14:46:00Z</time>
      </trkpt>
      <trkpt lat="43.48664" lon="6.59261">
        <ele>24.7</ele>
        <time>2025-02-26T14:46:01Z</time>
      </trkpt>
      <trkpt lat="43.48664" lon="6.59261">
        <ele>24.8</ele>
        <time>2025-02-26T14:46:02Z</time>
      </trkpt>
      <trkpt lat="43.48664" lon="6.59261">
        <ele>24.8</ele>
        <time>2025-02-26T14:46:03Z</time>
      </trkpt>
      <trkpt lat="43.48664" lon="6.59261">
        <ele>24.8</ele>
        <time>2025-02-26T14:46:04Z</time>
      </trkpt>
      <trkpt lat="43.48664" lon="6.59261">
        <ele>24.8</ele>
        <time>2025-02-26T14:46:05Z</time>
      </trkpt>
      <trkpt lat="43.48664" lon="6.59261">
        <ele>24.8</ele>
        <time>2025-02-26T14:46:06Z</time>
      </trkpt>
      <trkpt lat="43.48664" lon="6.59261">
        <ele>24.7</ele>
        <time>2025-02-26T14:46:07Z</time>
      </trkpt>
      <trkpt lat="43.48664" lon="6.5926">
        <ele>24.6</ele>
        <time>2025-02-26T14:46:08Z</time>
      </trkpt>
      <trkpt lat="43.48664" lon="6.5926">
        <ele>24.6</ele>
        <time>2025-02-26T14:46:09Z</time>
      </trkpt>
      <trkpt lat="43.48664" lon="6.5926">
        <ele>24.5</ele>
        <time>2025-02-26T14:46:10Z</time>
      </trkpt>
      <trkpt lat="43.48664" lon="6.5926">
        <ele>24.5</ele>
        <time>2025-02-26T14:46:11Z</time>
      </trkpt>
      <trkpt lat="43.48664" lon="6.5926">
        <ele>24.5</ele>
        <time>2025-02-26T14:46:12Z</time>
      </trkpt>
      <trkpt lat="43.48664" lon="6.5926">
        <ele>24.5</ele>
        <time>2025-02-26T14:46:13Z</time>
      </trkpt>
      <trkpt lat="43.48664" lon="6.5926">
        <ele>24.5</ele>
        <time>2025-02-26T14:46:14Z</time>
      </trkpt>
      <trkpt lat="43.48664" lon="6.5926">
        <ele>24.5</ele>
        <time>2025-02-26T14:46:15Z</time>
      </trkpt>
      <trkpt lat="43.48664" lon="6.5926">
        <ele>24.5</ele>
        <time>2025-02-26T14:46:16Z</time>
      </trkpt>
      <trkpt lat="43.48664" lon="6.5926">
        <ele>24.5</ele>
        <time>2025-02-26T14:46:17Z</time>
      </trkpt>
      <trkpt lat="43.48664" lon="6.5926">
        <ele>24.5</ele>
        <time>2025-02-26T14:46:18Z</time>
      </trkpt>
      <trkpt lat="43.48664" lon="6.5926">
        <ele>24.5</ele>
        <time>2025-02-26T14:46:19Z</time>
      </trkpt>
      <trkpt lat="43.48664" lon="6.5926">
        <ele>24.5</ele>
        <time>2025-02-26T14:46:20Z</time>
      </trkpt>
      <trkpt lat="43.48664" lon="6.5926">
        <ele>24.5</ele>
        <time>2025-02-26T14:46:21Z</time>
      </trkpt>
      <trkpt lat="43.48664" lon="6.59259">
        <ele>24.6</ele>
        <time>2025-02-26T14:46:22Z</time>
      </trkpt>
      <trkpt lat="43.48664" lon="6.59259">
        <ele>24.6</ele>
        <time>2025-02-26T14:46:23Z</time>
      </trkpt>
      <trkpt lat="43.48664" lon="6.59259">
        <ele>24.7</ele>
        <time>2025-02-26T14:46:24Z</time>
      </trkpt>
      <trkpt lat="43.48664" lon="6.59259">
        <ele>24.7</ele>
        <time>2025-02-26T14:46:25Z</time>
      </trkpt>
      <trkpt lat="43.48664" lon="6.59259">
        <ele>24.7</ele>
        <time>2025-02-26T14:46:26Z</time>
      </trkpt>
      <trkpt lat="43.48663" lon="6.59259">
        <ele>24.8</ele>
        <time>2025-02-26T14:46:27Z</time>
      </trkpt>
      <trkpt lat="43.48663" lon="6.59259">
        <ele>24.8</ele>
        <time>2025-02-26T14:46:28Z</time>
      </trkpt>
      <trkpt lat="43.48663" lon="6.59258">
        <ele>24.8</ele>
        <time>2025-02-26T14:46:29Z</time>
      </trkpt>
      <trkpt lat="43.48663" lon="6.59258">
        <ele>24.9</ele>
        <time>2025-02-26T14:46:30Z</time>
      </trkpt>
      <trkpt lat="43.48663" lon="6.59258">
        <ele>24.8</ele>
        <time>2025-02-26T14:46:31Z</time>
      </trkpt>
      <trkpt lat="43.48663" lon="6.59258">
        <ele>24.8</ele>
        <time>2025-02-26T14:46:32Z</time>
      </trkpt>
      <trkpt lat="43.48663" lon="6.59259">
        <ele>24.7</ele>
        <time>2025-02-26T14:46:33Z</time>
      </trkpt>
      <trkpt lat="43.48663" lon="6.59259">
        <ele>24.6</ele>
        <time>2025-02-26T14:46:34Z</time>
      </trkpt>
      <trkpt lat="43.48663" lon="6.59259">
        <ele>24.6</ele>
        <time>2025-02-26T14:46:35Z</time>
      </trkpt>
      <trkpt lat="43.48664" lon="6.59259">
        <ele>24.7</ele>
        <time>2025-02-26T14:46:36Z</time>
      </trkpt>
      <trkpt lat="43.48664" lon="6.59259">
        <ele>24.9</ele>
        <time>2025-02-26T14:46:37Z</time>
      </trkpt>
      <trkpt lat="43.48664" lon="6.59259">
        <ele>25</ele>
        <time>2025-02-26T14:46:38Z</time>
      </trkpt>
      <trkpt lat="43.48665" lon="6.59258">
        <ele>25</ele>
        <time>2025-02-26T14:46:39Z</time>
      </trkpt>
      <trkpt lat="43.48665" lon="6.59258">
        <ele>25.7</ele>
        <time>2025-02-26T14:46:40Z</time>
      </trkpt>
      <trkpt lat="43.48665" lon="6.59258">
        <ele>25.6</ele>
        <time>2025-02-26T14:46:41Z</time>
      </trkpt>
      <trkpt lat="43.48665" lon="6.59258">
        <ele>25.5</ele>
        <time>2025-02-26T14:46:42Z</time>
      </trkpt>
      <trkpt lat="43.48665" lon="6.59258">
        <ele>25.4</ele>
        <time>2025-02-26T14:46:43Z</time>
      </trkpt>
      <trkpt lat="43.48666" lon="6.59258">
        <ele>25.3</ele>
        <time>2025-02-26T14:46:44Z</time>
      </trkpt>
      <trkpt lat="43.48666" lon="6.59257">
        <ele>25.2</ele>
        <time>2025-02-26T14:46:45Z</time>
      </trkpt>
      <trkpt lat="43.48666" lon="6.59257">
        <ele>25.1</ele>
        <time>2025-02-26T14:46:46Z</time>
      </trkpt>
      <trkpt lat="43.48666" lon="6.59257">
        <ele>24.9</ele>
        <time>2025-02-26T14:46:47Z</time>
      </trkpt>
      <trkpt lat="43.48666" lon="6.59257">
        <ele>24.9</ele>
        <time>2025-02-26T14:46:48Z</time>
      </trkpt>
      <trkpt lat="43.48666" lon="6.59257">
        <ele>24.8</ele>
        <time>2025-02-26T14:46:49Z</time>
      </trkpt>
      <trkpt lat="43.48666" lon="6.59257">
        <ele>24.8</ele>
        <time>2025-02-26T14:46:50Z</time>
      </trkpt>
      <trkpt lat="43.48666" lon="6.59257">
        <ele>24.7</ele>
        <time>2025-02-26T14:46:51Z</time>
      </trkpt>
      <trkpt lat="43.48666" lon="6.59257">
        <ele>24.7</ele>
        <time>2025-02-26T14:46:52Z</time>
      </trkpt>
      <trkpt lat="43.48666" lon="6.59257">
        <ele>24.7</ele>
        <time>2025-02-26T14:46:53Z</time>
      </trkpt>
      <trkpt lat="43.48666" lon="6.59257">
        <ele>24.6</ele>
        <time>2025-02-26T14:46:54Z</time>
      </trkpt>
      <trkpt lat="43.48666" lon="6.59257">
        <ele>24.6</ele>
        <time>2025-02-26T14:46:55Z</time>
      </trkpt>
      <trkpt lat="43.48665" lon="6.59258">
        <ele>24.6</ele>
        <time>2025-02-26T14:46:56Z</time>
      </trkpt>
      <trkpt lat="43.48665" lon="6.59258">
        <ele>24.7</ele>
        <time>2025-02-26T14:46:57Z</time>
      </trkpt>
      <trkpt lat="43.48665" lon="6.59258">
        <ele>24.7</ele>
        <time>2025-02-26T14:46:58Z</time>
      </trkpt>
      <trkpt lat="43.48666" lon="6.59258">
        <ele>24.6</ele>
        <time>2025-02-26T14:46:59Z</time>
      </trkpt>
      <trkpt lat="43.48666" lon="6.59258">
        <ele>24.6</ele>
        <time>2025-02-26T14:47:00Z</time>
      </trkpt>
      <trkpt lat="43.48666" lon="6.59258">
        <ele>24.7</ele>
        <time>2025-02-26T14:47:01Z</time>
      </trkpt>
      <trkpt lat="43.48666" lon="6.59258">
        <ele>24.7</ele>
        <time>2025-02-26T14:47:02Z</time>
      </trkpt>
      <trkpt lat="43.48666" lon="6.59259">
        <ele>24.7</ele>
        <time>2025-02-26T14:47:03Z</time>
      </trkpt>
      <trkpt lat="43.48666" lon="6.59258">
        <ele>24.7</ele>
        <time>2025-02-26T14:47:04Z</time>
      </trkpt>
      <trkpt lat="43.48666" lon="6.59258">
        <ele>24.7</ele>
        <time>2025-02-26T14:47:05Z</time>
      </trkpt>
      <trkpt lat="43.48666" lon="6.59258">
        <ele>24.7</ele>
        <time>2025-02-26T14:47:06Z</time>
      </trkpt>
      <trkpt lat="43.48666" lon="6.59258">
        <ele>24.6</ele>
        <time>2025-02-26T14:47:07Z</time>
      </trkpt>
      <trkpt lat="43.48666" lon="6.59258">
        <ele>24.6</ele>
        <time>2025-02-26T14:47:08Z</time>
      </trkpt>
      <trkpt lat="43.48666" lon="6.59258">
        <ele>24.6</ele>
        <time>2025-02-26T14:47:09Z</time>
      </trkpt>
      <trkpt lat="43.48666" lon="6.59258">
        <ele>24.6</ele>
        <time>2025-02-26T14:47:10Z</time>
      </trkpt>
      <trkpt lat="43.48666" lon="6.59258">
        <ele>24.6</ele>
        <time>2025-02-26T14:47:11Z</time>
      </trkpt>
      <trkpt lat="43.48666" lon="6.59258">
        <ele>24.6</ele>
        <time>2025-02-26T14:47:12Z</time>
      </trkpt>
      <trkpt lat="43.48666" lon="6.59258">
        <ele>24.7</ele>
        <time>2025-02-26T14:47:13Z</time>
      </trkpt>
      <trkpt lat="43.48666" lon="6.59258">
        <ele>24.8</ele>
        <time>2025-02-26T14:47:14Z</time>
      </trkpt>
      <trkpt lat="43.48666" lon="6.59258">
        <ele>24.8</ele>
        <time>2025-02-26T14:47:15Z</time>
      </trkpt>
      <trkpt lat="43.48666" lon="6.59258">
        <ele>24.7</ele>
        <time>2025-02-26T14:47:16Z</time>
      </trkpt>
      <trkpt lat="43.48667" lon="6.59258">
        <ele>24.7</ele>
        <time>2025-02-26T14:47:17Z</time>
      </trkpt>
      <trkpt lat="43.48667" lon="6.59258">
        <ele>24.7</ele>
        <time>2025-02-26T14:47:18Z</time>
      </trkpt>
      <trkpt lat="43.48667" lon="6.59258">
        <ele>24.7</ele>
        <time>2025-02-26T14:47:19Z</time>
      </trkpt>
      <trkpt lat="43.48667" lon="6.59258">
        <ele>24.7</ele>
        <time>2025-02-26T14:47:20Z</time>
      </trkpt>
      <trkpt lat="43.48666" lon="6.59258">
        <ele>24.6</ele>
        <time>2025-02-26T14:47:21Z</time>
      </trkpt>
      <trkpt lat="43.48666" lon="6.59259">
        <ele>24.5</ele>
        <time>2025-02-26T14:47:22Z</time>
      </trkpt>
      <trkpt lat="43.48666" lon="6.59259">
        <ele>24.6</ele>
        <time>2025-02-26T14:47:23Z</time>
      </trkpt>
      <trkpt lat="43.48666" lon="6.59259">
        <ele>24.6</ele>
        <time>2025-02-26T14:47:24Z</time>
      </trkpt>
      <trkpt lat="43.48666" lon="6.59259">
        <ele>24.6</ele>
        <time>2025-02-26T14:47:25Z</time>
      </trkpt>
      <trkpt lat="43.48666" lon="6.59259">
        <ele>24.6</ele>
        <time>2025-02-26T14:47:26Z</time>
      </trkpt>
      <trkpt lat="43.48666" lon="6.59259">
        <ele>24.6</ele>
        <time>2025-02-26T14:47:27Z</time>
      </trkpt>
      <trkpt lat="43.48666" lon="6.59259">
        <ele>24.5</ele>
        <time>2025-02-26T14:47:28Z</time>
      </trkpt>
      <trkpt lat="43.48666" lon="6.59259">
        <ele>24.5</ele>
        <time>2025-02-26T14:47:29Z</time>
      </trkpt>
      <trkpt lat="43.48666" lon="6.59259">
        <ele>24.5</ele>
        <time>2025-02-26T14:47:30Z</time>
      </trkpt>
      <trkpt lat="43.48666" lon="6.59259">
        <ele>24.5</ele>
        <time>2025-02-26T14:47:31Z</time>
      </trkpt>
      <trkpt lat="43.48666" lon="6.59259">
        <ele>24.6</ele>
        <time>2025-02-26T14:47:32Z</time>
      </trkpt>
      <trkpt lat="43.48666" lon="6.59259">
        <ele>24.5</ele>
        <time>2025-02-26T14:47:33Z</time>
      </trkpt>
      <trkpt lat="43.48666" lon="6.5926">
        <ele>24.5</ele>
        <time>2025-02-26T14:47:34Z</time>
      </trkpt>
      <trkpt lat="43.48666" lon="6.5926">
        <ele>24.4</ele>
        <time>2025-02-26T14:47:35Z</time>
      </trkpt>
      <trkpt lat="43.48666" lon="6.5926">
        <ele>24.4</ele>
        <time>2025-02-26T14:47:36Z</time>
      </trkpt>
      <trkpt lat="43.48666" lon="6.5926">
        <ele>24.3</ele>
        <time>2025-02-26T14:47:37Z</time>
      </trkpt>
      <trkpt lat="43.48666" lon="6.5926">
        <ele>24.4</ele>
        <time>2025-02-26T14:47:38Z</time>
      </trkpt>
      <trkpt lat="43.48666" lon="6.5926">
        <ele>24.4</ele>
        <time>2025-02-26T14:47:39Z</time>
      </trkpt>
      <trkpt lat="43.48667" lon="6.5926">
        <ele>24.4</ele>
        <time>2025-02-26T14:47:40Z</time>
      </trkpt>
      <trkpt lat="43.48666" lon="6.5926">
        <ele>24.4</ele>
        <time>2025-02-26T14:47:41Z</time>
      </trkpt>
      <trkpt lat="43.48666" lon="6.5926">
        <ele>24.4</ele>
        <time>2025-02-26T14:47:42Z</time>
      </trkpt>
      <trkpt lat="43.48666" lon="6.5926">
        <ele>24.5</ele>
        <time>2025-02-26T14:47:43Z</time>
      </trkpt>
      <trkpt lat="43.48666" lon="6.5926">
        <ele>24.6</ele>
        <time>2025-02-26T14:47:44Z</time>
      </trkpt>
      <trkpt lat="43.48666" lon="6.5926">
        <ele>24.6</ele>
        <time>2025-02-26T14:47:45Z</time>
      </trkpt>
      <trkpt lat="43.48666" lon="6.5926">
        <ele>24.7</ele>
        <time>2025-02-26T14:47:46Z</time>
      </trkpt>
      <trkpt lat="43.48666" lon="6.5926">
        <ele>24.8</ele>
        <time>2025-02-26T14:47:47Z</time>
      </trkpt>
      <trkpt lat="43.48667" lon="6.5926">
        <ele>24.9</ele>
        <time>2025-02-26T14:47:48Z</time>
      </trkpt>
      <trkpt lat="43.48667" lon="6.59259">
        <ele>24.9</ele>
        <time>2025-02-26T14:47:49Z</time>
      </trkpt>
      <trkpt lat="43.48667" lon="6.59259">
        <ele>25</ele>
        <time>2025-02-26T14:47:50Z</time>
      </trkpt>
      <trkpt lat="43.48667" lon="6.59259">
        <ele>24.9</ele>
        <time>2025-02-26T14:47:51Z</time>
      </trkpt>
      <trkpt lat="43.48667" lon="6.59259">
        <ele>24.9</ele>
        <time>2025-02-26T14:47:52Z</time>
      </trkpt>
      <trkpt lat="43.48667" lon="6.59259">
        <ele>24.9</ele>
        <time>2025-02-26T14:47:53Z</time>
      </trkpt>
      <trkpt lat="43.48666" lon="6.5926">
        <ele>24.9</ele>
        <time>2025-02-26T14:47:54Z</time>
      </trkpt>
      <trkpt lat="43.48666" lon="6.5926">
        <ele>24.8</ele>
        <time>2025-02-26T14:47:55Z</time>
      </trkpt>
      <trkpt lat="43.48666" lon="6.5926">
        <ele>24.8</ele>
        <time>2025-02-26T14:47:56Z</time>
      </trkpt>
      <trkpt lat="43.48665" lon="6.5926">
        <ele>24.8</ele>
        <time>2025-02-26T14:47:57Z</time>
      </trkpt>
      <trkpt lat="43.48665" lon="6.59259">
        <ele>24.8</ele>
        <time>2025-02-26T14:47:58Z</time>
      </trkpt>
      <trkpt lat="43.48665" lon="6.5926">
        <ele>24.7</ele>
        <time>2025-02-26T14:47:59Z</time>
      </trkpt>
      <trkpt lat="43.48665" lon="6.5926">
        <ele>24.8</ele>
        <time>2025-02-26T14:48:00Z</time>
      </trkpt>
      <trkpt lat="43.48665" lon="6.5926">
        <ele>24.7</ele>
        <time>2025-02-26T14:48:01Z</time>
      </trkpt>
      <trkpt lat="43.48665" lon="6.5926">
        <ele>24.6</ele>
        <time>2025-02-26T14:48:02Z</time>
      </trkpt>
      <trkpt lat="43.48665" lon="6.5926">
        <ele>24.6</ele>
        <time>2025-02-26T14:48:03Z</time>
      </trkpt>
      <trkpt lat="43.48664" lon="6.5926">
        <ele>24.7</ele>
        <time>2025-02-26T14:48:04Z</time>
      </trkpt>
      <trkpt lat="43.48664" lon="6.5926">
        <ele>24.8</ele>
        <time>2025-02-26T14:48:05Z</time>
      </trkpt>
      <trkpt lat="43.48664" lon="6.5926">
        <ele>24.8</ele>
        <time>2025-02-26T14:48:06Z</time>
      </trkpt>
      <trkpt lat="43.48664" lon="6.5926">
        <ele>24.8</ele>
        <time>2025-02-26T14:48:07Z</time>
      </trkpt>
      <trkpt lat="43.48664" lon="6.5926">
        <ele>24.7</ele>
        <time>2025-02-26T14:48:08Z</time>
      </trkpt>
      <trkpt lat="43.48664" lon="6.5926">
        <ele>24.8</ele>
        <time>2025-02-26T14:48:09Z</time>
      </trkpt>
      <trkpt lat="43.48663" lon="6.59261">
        <ele>24.8</ele>
        <time>2025-02-26T14:48:10Z</time>
      </trkpt>
      <trkpt lat="43.48663" lon="6.59261">
        <ele>24.8</ele>
        <time>2025-02-26T14:48:11Z</time>
      </trkpt>
      <trkpt lat="43.48663" lon="6.59261">
        <ele>24.8</ele>
        <time>2025-02-26T14:48:12Z</time>
      </trkpt>
      <trkpt lat="43.48663" lon="6.59261">
        <ele>24.8</ele>
        <time>2025-02-26T14:48:13Z</time>
      </trkpt>
      <trkpt lat="43.48663" lon="6.59261">
        <ele>24.8</ele>
        <time>2025-02-26T14:48:14Z</time>
      </trkpt>
      <trkpt lat="43.48663" lon="6.59261">
        <ele>24.7</ele>
        <time>2025-02-26T14:48:15Z</time>
      </trkpt>
      <trkpt lat="43.48663" lon="6.59261">
        <ele>24.6</ele>
        <time>2025-02-26T14:48:16Z</time>
      </trkpt>
      <trkpt lat="43.48664" lon="6.59261">
        <ele>24.5</ele>
        <time>2025-02-26T14:48:17Z</time>
      </trkpt>
      <trkpt lat="43.48664" lon="6.59261">
        <ele>24.6</ele>
        <time>2025-02-26T14:48:18Z</time>
      </trkpt>
      <trkpt lat="43.48664" lon="6.59261">
        <ele>24.5</ele>
        <time>2025-02-26T14:48:19Z</time>
      </trkpt>
      <trkpt lat="43.48664" lon="6.59261">
        <ele>24.6</ele>
        <time>2025-02-26T14:48:20Z</time>
      </trkpt>
      <trkpt lat="43.48664" lon="6.59261">
        <ele>24.6</ele>
        <time>2025-02-26T14:48:21Z</time>
      </trkpt>
      <trkpt lat="43.48664" lon="6.59261">
        <ele>24.5</ele>
        <time>2025-02-26T14:48:22Z</time>
      </trkpt>
      <trkpt lat="43.48664" lon="6.5926">
        <ele>24.4</ele>
        <time>2025-02-26T14:48:23Z</time>
      </trkpt>
      <trkpt lat="43.48664" lon="6.5926">
        <ele>24.5</ele>
        <time>2025-02-26T14:48:24Z</time>
      </trkpt>
      <trkpt lat="43.48664" lon="6.5926">
        <ele>24.4</ele>
        <time>2025-02-26T14:48:25Z</time>
      </trkpt>
      <trkpt lat="43.48664" lon="6.5926">
        <ele>24.4</ele>
        <time>2025-02-26T14:48:26Z</time>
      </trkpt>
      <trkpt lat="43.48664" lon="6.5926">
        <ele>24.3</ele>
        <time>2025-02-26T14:48:27Z</time>
      </trkpt>
      <trkpt lat="43.48665" lon="6.59259">
        <ele>24.3</ele>
        <time>2025-02-26T14:48:28Z</time>
      </trkpt>
      <trkpt lat="43.48665" lon="6.59259">
        <ele>24.3</ele>
        <time>2025-02-26T14:48:29Z</time>
      </trkpt>
      <trkpt lat="43.48665" lon="6.59259">
        <ele>24.3</ele>
        <time>2025-02-26T14:48:30Z</time>
      </trkpt>
      <trkpt lat="43.48665" lon="6.59259">
        <ele>24.3</ele>
        <time>2025-02-26T14:48:31Z</time>
      </trkpt>
      <trkpt lat="43.48665" lon="6.59259">
        <ele>24.3</ele>
        <time>2025-02-26T14:48:32Z</time>
      </trkpt>
      <trkpt lat="43.48665" lon="6.59259">
        <ele>24.3</ele>
        <time>2025-02-26T14:48:33Z</time>
      </trkpt>
      <trkpt lat="43.48665" lon="6.59259">
        <ele>24.3</ele>
        <time>2025-02-26T14:48:34Z</time>
      </trkpt>
      <trkpt lat="43.48665" lon="6.59259">
        <ele>24.3</ele>
        <time>2025-02-26T14:48:35Z</time>
      </trkpt>
      <trkpt lat="43.48665" lon="6.59259">
        <ele>24.3</ele>
        <time>2025-02-26T14:48:36Z</time>
      </trkpt>
      <trkpt lat="43.48665" lon="6.59259">
        <ele>24.2</ele>
        <time>2025-02-26T14:48:37Z</time>
      </trkpt>
      <trkpt lat="43.48665" lon="6.59259">
        <ele>24.2</ele>
        <time>2025-02-26T14:48:38Z</time>
      </trkpt>
      <trkpt lat="43.48665" lon="6.59258">
        <ele>24.2</ele>
        <time>2025-02-26T14:48:39Z</time>
      </trkpt>
      <trkpt lat="43.48665" lon="6.59258">
        <ele>24.2</ele>
        <time>2025-02-26T14:48:40Z</time>
      </trkpt>
      <trkpt lat="43.48666" lon="6.59259">
        <ele>24.3</ele>
        <time>2025-02-26T14:48:41Z</time>
      </trkpt>
      <trkpt lat="43.48666" lon="6.59259">
        <ele>24.3</ele>
        <time>2025-02-26T14:48:42Z</time>
      </trkpt>
      <trkpt lat="43.48666" lon="6.59258">
        <ele>24.3</ele>
        <time>2025-02-26T14:48:43Z</time>
      </trkpt>
      <trkpt lat="43.48666" lon="6.59258">
        <ele>24.3</ele>
        <time>2025-02-26T14:48:44Z</time>
      </trkpt>
      <trkpt lat="43.48666" lon="6.59258">
        <ele>24.3</ele>
        <time>2025-02-26T14:48:45Z</time>
      </trkpt>
      <trkpt lat="43.48666" lon="6.59259">
        <ele>24.3</ele>
        <time>2025-02-26T14:48:46Z</time>
      </trkpt>
      <trkpt lat="43.48667" lon="6.59258">
        <ele>24.3</ele>
        <time>2025-02-26T14:48:47Z</time>
      </trkpt>
      <trkpt lat="43.48667" lon="6.59258">
        <ele>24.2</ele>
        <time>2025-02-26T14:48:48Z</time>
      </trkpt>
      <trkpt lat="43.48667" lon="6.59258">
        <ele>24.2</ele>
        <time>2025-02-26T14:48:49Z</time>
      </trkpt>
      <trkpt lat="43.48667" lon="6.59258">
        <ele>24.2</ele>
        <time>2025-02-26T14:48:50Z</time>
      </trkpt>
      <trkpt lat="43.48667" lon="6.59258">
        <ele>24.3</ele>
        <time>2025-02-26T14:48:51Z</time>
      </trkpt>
      <trkpt lat="43.48667" lon="6.59258">
        <ele>24.3</ele>
        <time>2025-02-26T14:48:52Z</time>
      </trkpt>
      <trkpt lat="43.48667" lon="6.59258">
        <ele>24.2</ele>
        <time>2025-02-26T14:48:53Z</time>
      </trkpt>
      <trkpt lat="43.48667" lon="6.59258">
        <ele>24.2</ele>
        <time>2025-02-26T14:48:54Z</time>
      </trkpt>
      <trkpt lat="43.48667" lon="6.59258">
        <ele>24.3</ele>
        <time>2025-02-26T14:48:55Z</time>
      </trkpt>
      <trkpt lat="43.48667" lon="6.59257">
        <ele>24.3</ele>
        <time>2025-02-26T14:48:56Z</time>
      </trkpt>
      <trkpt lat="43.48667" lon="6.59257">
        <ele>24.3</ele>
        <time>2025-02-26T14:48:57Z</time>
      </trkpt>
      <trkpt lat="43.48668" lon="6.59257">
        <ele>24.3</ele>
        <time>2025-02-26T14:48:58Z</time>
      </trkpt>
      <trkpt lat="43.4867" lon="6.59257">
        <ele>24.2</ele>
        <time>2025-02-26T14:48:59Z</time>
      </trkpt>
      <trkpt lat="43.4867" lon="6.59256">
        <ele>24.1</ele>
        <time>2025-02-26T14:49:00Z</time>
      </trkpt>
      <trkpt lat="43.48671" lon="6.59256">
        <ele>24.1</ele>
        <time>2025-02-26T14:49:01Z</time>
      </trkpt>
      <trkpt lat="43.48672" lon="6.59255">
        <ele>24.1</ele>
        <time>2025-02-26T14:49:02Z</time>
      </trkpt>
      <trkpt lat="43.48673" lon="6.59254">
        <ele>24.2</ele>
        <time>2025-02-26T14:49:03Z</time>
      </trkpt>
      <trkpt lat="43.48675" lon="6.59253">
        <ele>24.2</ele>
        <time>2025-02-26T14:49:04Z</time>
      </trkpt>
      <trkpt lat="43.48677" lon="6.59252">
        <ele>24.3</ele>
        <time>2025-02-26T14:49:05Z</time>
      </trkpt>
      <trkpt lat="43.48678" lon="6.59251">
        <ele>24.4</ele>
        <time>2025-02-26T14:49:06Z</time>
      </trkpt>
      <trkpt lat="43.4868" lon="6.5925">
        <ele>24.5</ele>
        <time>2025-02-26T14:49:07Z</time>
      </trkpt>
      <trkpt lat="43.48681" lon="6.59249">
        <ele>24.4</ele>
        <time>2025-02-26T14:49:08Z</time>
      </trkpt>
      <trkpt lat="43.48683" lon="6.59248">
        <ele>24.4</ele>
        <time>2025-02-26T14:49:09Z</time>
      </trkpt>
      <trkpt lat="43.48684" lon="6.59246">
        <ele>24.4</ele>
        <time>2025-02-26T14:49:10Z</time>
      </trkpt>
      <trkpt lat="43.48685" lon="6.59245">
        <ele>24.4</ele>
        <time>2025-02-26T14:49:11Z</time>
      </trkpt>
      <trkpt lat="43.48686" lon="6.59244">
        <ele>24.4</ele>
        <time>2025-02-26T14:49:12Z</time>
      </trkpt>
      <trkpt lat="43.48687" lon="6.59242">
        <ele>24.4</ele>
        <time>2025-02-26T14:49:13Z</time>
      </trkpt>
      <trkpt lat="43.48688" lon="6.59241">
        <ele>24.5</ele>
        <time>2025-02-26T14:49:14Z</time>
      </trkpt>
      <trkpt lat="43.48689" lon="6.5924">
        <ele>24.6</ele>
        <time>2025-02-26T14:49:15Z</time>
      </trkpt>
      <trkpt lat="43.4869" lon="6.59239">
        <ele>24.6</ele>
        <time>2025-02-26T14:49:16Z</time>
      </trkpt>
      <trkpt lat="43.48691" lon="6.59238">
        <ele>24.7</ele>
        <time>2025-02-26T14:49:17Z</time>
      </trkpt>
      <trkpt lat="43.48692" lon="6.59237">
        <ele>24.8</ele>
        <time>2025-02-26T14:49:18Z</time>
      </trkpt>
      <trkpt lat="43.48693" lon="6.59236">
        <ele>24.9</ele>
        <time>2025-02-26T14:49:19Z</time>
      </trkpt>
      <trkpt lat="43.48695" lon="6.59235">
        <ele>24.9</ele>
        <time>2025-02-26T14:49:20Z</time>
      </trkpt>
      <trkpt lat="43.48696" lon="6.59234">
        <ele>24.9</ele>
        <time>2025-02-26T14:49:21Z</time>
      </trkpt>
      <trkpt lat="43.48697" lon="6.59233">
        <ele>24.9</ele>
        <time>2025-02-26T14:49:22Z</time>
      </trkpt>
      <trkpt lat="43.48699" lon="6.59233">
        <ele>24.9</ele>
        <time>2025-02-26T14:49:23Z</time>
      </trkpt>
      <trkpt lat="43.487" lon="6.59232">
        <ele>24.7</ele>
        <time>2025-02-26T14:49:24Z</time>
      </trkpt>
      <trkpt lat="43.48702" lon="6.59232">
        <ele>24.7</ele>
        <time>2025-02-26T14:49:25Z</time>
      </trkpt>
      <trkpt lat="43.48703" lon="6.59231">
        <ele>24.7</ele>
        <time>2025-02-26T14:49:26Z</time>
      </trkpt>
      <trkpt lat="43.48705" lon="6.59231">
        <ele>24.7</ele>
        <time>2025-02-26T14:49:27Z</time>
      </trkpt>
      <trkpt lat="43.48706" lon="6.5923">
        <ele>24.7</ele>
        <time>2025-02-26T14:49:28Z</time>
      </trkpt>
      <trkpt lat="43.48707" lon="6.59229">
        <ele>24.6</ele>
        <time>2025-02-26T14:49:29Z</time>
      </trkpt>
      <trkpt lat="43.48708" lon="6.59228">
        <ele>24.5</ele>
        <time>2025-02-26T14:49:30Z</time>
      </trkpt>
      <trkpt lat="43.4871" lon="6.59228">
        <ele>24.5</ele>
        <time>2025-02-26T14:49:31Z</time>
      </trkpt>
      <trkpt lat="43.48711" lon="6.59228">
        <ele>24.4</ele>
        <time>2025-02-26T14:49:32Z</time>
      </trkpt>
      <trkpt lat="43.48712" lon="6.59227">
        <ele>24.5</ele>
        <time>2025-02-26T14:49:33Z</time>
      </trkpt>
      <trkpt lat="43.48713" lon="6.59226">
        <ele>24.6</ele>
        <time>2025-02-26T14:49:34Z</time>
      </trkpt>
      <trkpt lat="43.48714" lon="6.59225">
        <ele>24.7</ele>
        <time>2025-02-26T14:49:35Z</time>
      </trkpt>
      <trkpt lat="43.48716" lon="6.59225">
        <ele>24.7</ele>
        <time>2025-02-26T14:49:36Z</time>
      </trkpt>
      <trkpt lat="43.48717" lon="6.59224">
        <ele>24.7</ele>
        <time>2025-02-26T14:49:37Z</time>
      </trkpt>
      <trkpt lat="43.48718" lon="6.59224">
        <ele>24.7</ele>
        <time>2025-02-26T14:49:38Z</time>
      </trkpt>
      <trkpt lat="43.48719" lon="6.59223">
        <ele>24.8</ele>
        <time>2025-02-26T14:49:39Z</time>
      </trkpt>
      <trkpt lat="43.4872" lon="6.59223">
        <ele>24.8</ele>
        <time>2025-02-26T14:49:40Z</time>
      </trkpt>
      <trkpt lat="43.48722" lon="6.59222">
        <ele>24.8</ele>
        <time>2025-02-26T14:49:41Z</time>
      </trkpt>
      <trkpt lat="43.48723" lon="6.59222">
        <ele>24.9</ele>
        <time>2025-02-26T14:49:42Z</time>
      </trkpt>
      <trkpt lat="43.48724" lon="6.59222">
        <ele>25</ele>
        <time>2025-02-26T14:49:43Z</time>
      </trkpt>
      <trkpt lat="43.48726" lon="6.59221">
        <ele>25</ele>
        <time>2025-02-26T14:49:44Z</time>
      </trkpt>
      <trkpt lat="43.48727" lon="6.59221">
        <ele>25</ele>
        <time>2025-02-26T14:49:45Z</time>
      </trkpt>
      <trkpt lat="43.48728" lon="6.59221">
        <ele>24.8</ele>
        <time>2025-02-26T14:49:46Z</time>
      </trkpt>
      <trkpt lat="43.4873" lon="6.59221">
        <ele>24.7</ele>
        <time>2025-02-26T14:49:47Z</time>
      </trkpt>
      <trkpt lat="43.48731" lon="6.5922">
        <ele>24.7</ele>
        <time>2025-02-26T14:49:48Z</time>
      </trkpt>
      <trkpt lat="43.48733" lon="6.5922">
        <ele>24.6</ele>
        <time>2025-02-26T14:49:49Z</time>
      </trkpt>
      <trkpt lat="43.48734" lon="6.59219">
        <ele>24.6</ele>
        <time>2025-02-26T14:49:50Z</time>
      </trkpt>
      <trkpt lat="43.48735" lon="6.59219">
        <ele>24.6</ele>
        <time>2025-02-26T14:49:51Z</time>
      </trkpt>
      <trkpt lat="43.48737" lon="6.59218">
        <ele>24.6</ele>
        <time>2025-02-26T14:49:52Z</time>
      </trkpt>
      <trkpt lat="43.48738" lon="6.59218">
        <ele>24.6</ele>
        <time>2025-02-26T14:49:53Z</time>
      </trkpt>
      <trkpt lat="43.48739" lon="6.59217">
        <ele>24.7</ele>
        <time>2025-02-26T14:49:54Z</time>
      </trkpt>
      <trkpt lat="43.48741" lon="6.59217">
        <ele>24.7</ele>
        <time>2025-02-26T14:49:55Z</time>
      </trkpt>
      <trkpt lat="43.48742" lon="6.59217">
        <ele>24.8</ele>
        <time>2025-02-26T14:49:56Z</time>
      </trkpt>
      <trkpt lat="43.48744" lon="6.59216">
        <ele>24.7</ele>
        <time>2025-02-26T14:49:57Z</time>
      </trkpt>
      <trkpt lat="43.48745" lon="6.59216">
        <ele>24.8</ele>
        <time>2025-02-26T14:49:58Z</time>
      </trkpt>
      <trkpt lat="43.48746" lon="6.59216">
        <ele>24.8</ele>
        <time>2025-02-26T14:49:59Z</time>
      </trkpt>
      <trkpt lat="43.48747" lon="6.59215">
        <ele>24.9</ele>
        <time>2025-02-26T14:50:00Z</time>
      </trkpt>
      <trkpt lat="43.48748" lon="6.59214">
        <ele>24.8</ele>
        <time>2025-02-26T14:50:01Z</time>
      </trkpt>
      <trkpt lat="43.48749" lon="6.59213">
        <ele>24.9</ele>
        <time>2025-02-26T14:50:02Z</time>
      </trkpt>
      <trkpt lat="43.48751" lon="6.59213">
        <ele>24.9</ele>
        <time>2025-02-26T14:50:03Z</time>
      </trkpt>
      <trkpt lat="43.48752" lon="6.59212">
        <ele>24.9</ele>
        <time>2025-02-26T14:50:04Z</time>
      </trkpt>
      <trkpt lat="43.48754" lon="6.59212">
        <ele>24.9</ele>
        <time>2025-02-26T14:50:05Z</time>
      </trkpt>
      <trkpt lat="43.48755" lon="6.59211">
        <ele>25</ele>
        <time>2025-02-26T14:50:06Z</time>
      </trkpt>
      <trkpt lat="43.48756" lon="6.59211">
        <ele>25</ele>
        <time>2025-02-26T14:50:07Z</time>
      </trkpt>
      <trkpt lat="43.48757" lon="6.59211">
        <ele>25</ele>
        <time>2025-02-26T14:50:08Z</time>
      </trkpt>
      <trkpt lat="43.48758" lon="6.5921">
        <ele>25</ele>
        <time>2025-02-26T14:50:09Z</time>
      </trkpt>
      <trkpt lat="43.48758" lon="6.59211">
        <ele>25</ele>
        <time>2025-02-26T14:50:10Z</time>
      </trkpt>
      <trkpt lat="43.48759" lon="6.5921">
        <ele>25</ele>
        <time>2025-02-26T14:50:11Z</time>
      </trkpt>
      <trkpt lat="43.4876" lon="6.5921">
        <ele>25</ele>
        <time>2025-02-26T14:50:12Z</time>
      </trkpt>
      <trkpt lat="43.48762" lon="6.59209">
        <ele>25.1</ele>
        <time>2025-02-26T14:50:13Z</time>
      </trkpt>
      <trkpt lat="43.48763" lon="6.59209">
        <ele>25.1</ele>
        <time>2025-02-26T14:50:14Z</time>
      </trkpt>
      <trkpt lat="43.48764" lon="6.59208">
        <ele>25.1</ele>
        <time>2025-02-26T14:50:15Z</time>
      </trkpt>
      <trkpt lat="43.48765" lon="6.59208">
        <ele>25.1</ele>
        <time>2025-02-26T14:50:16Z</time>
      </trkpt>
      <trkpt lat="43.48767" lon="6.59207">
        <ele>25.1</ele>
        <time>2025-02-26T14:50:17Z</time>
      </trkpt>
      <trkpt lat="43.48768" lon="6.59206">
        <ele>25.1</ele>
        <time>2025-02-26T14:50:18Z</time>
      </trkpt>
      <trkpt lat="43.48769" lon="6.59206">
        <ele>25.1</ele>
        <time>2025-02-26T14:50:19Z</time>
      </trkpt>
      <trkpt lat="43.4877" lon="6.59205">
        <ele>25.1</ele>
        <time>2025-02-26T14:50:20Z</time>
      </trkpt>
      <trkpt lat="43.48771" lon="6.59205">
        <ele>25.1</ele>
        <time>2025-02-26T14:50:21Z</time>
      </trkpt>
      <trkpt lat="43.48773" lon="6.59205">
        <ele>25</ele>
        <time>2025-02-26T14:50:22Z</time>
      </trkpt>
      <trkpt lat="43.48774" lon="6.59204">
        <ele>24.9</ele>
        <time>2025-02-26T14:50:23Z</time>
      </trkpt>
      <trkpt lat="43.48775" lon="6.59203">
        <ele>24.9</ele>
        <time>2025-02-26T14:50:24Z</time>
      </trkpt>
      <trkpt lat="43.48776" lon="6.59203">
        <ele>24.9</ele>
        <time>2025-02-26T14:50:25Z</time>
      </trkpt>
      <trkpt lat="43.48778" lon="6.59202">
        <ele>24.8</ele>
        <time>2025-02-26T14:50:26Z</time>
      </trkpt>
      <trkpt lat="43.48779" lon="6.59202">
        <ele>24.7</ele>
        <time>2025-02-26T14:50:27Z</time>
      </trkpt>
      <trkpt lat="43.4878" lon="6.59201">
        <ele>24.8</ele>
        <time>2025-02-26T14:50:28Z</time>
      </trkpt>
      <trkpt lat="43.48782" lon="6.592">
        <ele>24.9</ele>
        <time>2025-02-26T14:50:29Z</time>
      </trkpt>
      <trkpt lat="43.48783" lon="6.592">
        <ele>25</ele>
        <time>2025-02-26T14:50:30Z</time>
      </trkpt>
      <trkpt lat="43.48784" lon="6.59199">
        <ele>25</ele>
        <time>2025-02-26T14:50:31Z</time>
      </trkpt>
      <trkpt lat="43.48785" lon="6.59198">
        <ele>25.1</ele>
        <time>2025-02-26T14:50:32Z</time>
      </trkpt>
      <trkpt lat="43.48786" lon="6.59198">
        <ele>25.2</ele>
        <time>2025-02-26T14:50:33Z</time>
      </trkpt>
      <trkpt lat="43.48787" lon="6.59197">
        <ele>25.3</ele>
        <time>2025-02-26T14:50:34Z</time>
      </trkpt>
      <trkpt lat="43.48789" lon="6.59196">
        <ele>25.3</ele>
        <time>2025-02-26T14:50:35Z</time>
      </trkpt>
      <trkpt lat="43.4879" lon="6.59196">
        <ele>25.4</ele>
        <time>2025-02-26T14:50:36Z</time>
      </trkpt>
      <trkpt lat="43.48792" lon="6.59196">
        <ele>25.4</ele>
        <time>2025-02-26T14:50:37Z</time>
      </trkpt>
      <trkpt lat="43.48792" lon="6.59195">
        <ele>25.5</ele>
        <time>2025-02-26T14:50:38Z</time>
      </trkpt>
      <trkpt lat="43.48793" lon="6.59194">
        <ele>25.6</ele>
        <time>2025-02-26T14:50:39Z</time>
      </trkpt>
      <trkpt lat="43.48795" lon="6.59194">
        <ele>25.5</ele>
        <time>2025-02-26T14:50:40Z</time>
      </trkpt>
      <trkpt lat="43.48797" lon="6.59194">
        <ele>25.5</ele>
        <time>2025-02-26T14:50:41Z</time>
      </trkpt>
      <trkpt lat="43.48798" lon="6.59194">
        <ele>25.5</ele>
        <time>2025-02-26T14:50:42Z</time>
      </trkpt>
      <trkpt lat="43.488" lon="6.59193">
        <ele>25.5</ele>
        <time>2025-02-26T14:50:43Z</time>
      </trkpt>
      <trkpt lat="43.48801" lon="6.59193">
        <ele>25.5</ele>
        <time>2025-02-26T14:50:44Z</time>
      </trkpt>
      <trkpt lat="43.48803" lon="6.59192">
        <ele>25.5</ele>
        <time>2025-02-26T14:50:45Z</time>
      </trkpt>
      <trkpt lat="43.48804" lon="6.59192">
        <ele>25.4</ele>
        <time>2025-02-26T14:50:46Z</time>
      </trkpt>
      <trkpt lat="43.48805" lon="6.59191">
        <ele>25.3</ele>
        <time>2025-02-26T14:50:47Z</time>
      </trkpt>
      <trkpt lat="43.48806" lon="6.59191">
        <ele>25.3</ele>
        <time>2025-02-26T14:50:48Z</time>
      </trkpt>
      <trkpt lat="43.48808" lon="6.5919">
        <ele>25.3</ele>
        <time>2025-02-26T14:50:49Z</time>
      </trkpt>
      <trkpt lat="43.48809" lon="6.59189">
        <ele>25.5</ele>
        <time>2025-02-26T14:50:50Z</time>
      </trkpt>
      <trkpt lat="43.48811" lon="6.59189">
        <ele>25.5</ele>
        <time>2025-02-26T14:50:51Z</time>
      </trkpt>
      <trkpt lat="43.48812" lon="6.59188">
        <ele>25.6</ele>
        <time>2025-02-26T14:50:52Z</time>
      </trkpt>
      <trkpt lat="43.48813" lon="6.59188">
        <ele>25.7</ele>
        <time>2025-02-26T14:50:53Z</time>
      </trkpt>
      <trkpt lat="43.48815" lon="6.59188">
        <ele>25.8</ele>
        <time>2025-02-26T14:50:54Z</time>
      </trkpt>
      <trkpt lat="43.48816" lon="6.59188">
        <ele>25.7</ele>
        <time>2025-02-26T14:50:55Z</time>
      </trkpt>
      <trkpt lat="43.48817" lon="6.59187">
        <ele>25.6</ele>
        <time>2025-02-26T14:50:56Z</time>
      </trkpt>
      <trkpt lat="43.48819" lon="6.59187">
        <ele>25.7</ele>
        <time>2025-02-26T14:50:57Z</time>
      </trkpt>
      <trkpt lat="43.4882" lon="6.59187">
        <ele>25.7</ele>
        <time>2025-02-26T14:50:58Z</time>
      </trkpt>
      <trkpt lat="43.48821" lon="6.59187">
        <ele>25.7</ele>
        <time>2025-02-26T14:50:59Z</time>
      </trkpt>
      <trkpt lat="43.48823" lon="6.59187">
        <ele>25.6</ele>
        <time>2025-02-26T14:51:00Z</time>
      </trkpt>
      <trkpt lat="43.48824" lon="6.59187">
        <ele>25.6</ele>
        <time>2025-02-26T14:51:01Z</time>
      </trkpt>
      <trkpt lat="43.48826" lon="6.59187">
        <ele>25.7</ele>
        <time>2025-02-26T14:51:02Z</time>
      </trkpt>
      <trkpt lat="43.48827" lon="6.59187">
        <ele>25.7</ele>
        <time>2025-02-26T14:51:03Z</time>
      </trkpt>
      <trkpt lat="43.48828" lon="6.59187">
        <ele>25.7</ele>
        <time>2025-02-26T14:51:04Z</time>
      </trkpt>
      <trkpt lat="43.4883" lon="6.59187">
        <ele>25.7</ele>
        <time>2025-02-26T14:51:05Z</time>
      </trkpt>
      <trkpt lat="43.48831" lon="6.59186">
        <ele>25.7</ele>
        <time>2025-02-26T14:51:06Z</time>
      </trkpt>
      <trkpt lat="43.48833" lon="6.59186">
        <ele>25.7</ele>
        <time>2025-02-26T14:51:07Z</time>
      </trkpt>
      <trkpt lat="43.48834" lon="6.59186">
        <ele>25.8</ele>
        <time>2025-02-26T14:51:08Z</time>
      </trkpt>
      <trkpt lat="43.48836" lon="6.59186">
        <ele>25.8</ele>
        <time>2025-02-26T14:51:09Z</time>
      </trkpt>
      <trkpt lat="43.48837" lon="6.59186">
        <ele>25.8</ele>
        <time>2025-02-26T14:51:10Z</time>
      </trkpt>
      <trkpt lat="43.48839" lon="6.59185">
        <ele>25.9</ele>
        <time>2025-02-26T14:51:11Z</time>
      </trkpt>
      <trkpt lat="43.4884" lon="6.59185">
        <ele>26</ele>
        <time>2025-02-26T14:51:12Z</time>
      </trkpt>
      <trkpt lat="43.48841" lon="6.59184">
        <ele>26.1</ele>
        <time>2025-02-26T14:51:13Z</time>
      </trkpt>
      <trkpt lat="43.48842" lon="6.59184">
        <ele>26</ele>
        <time>2025-02-26T14:51:14Z</time>
      </trkpt>
      <trkpt lat="43.48843" lon="6.59184">
        <ele>26.1</ele>
        <time>2025-02-26T14:51:15Z</time>
      </trkpt>
      <trkpt lat="43.48844" lon="6.59184">
        <ele>26</ele>
        <time>2025-02-26T14:51:16Z</time>
      </trkpt>
      <trkpt lat="43.48845" lon="6.59184">
        <ele>25.9</ele>
        <time>2025-02-26T14:51:17Z</time>
      </trkpt>
      <trkpt lat="43.48846" lon="6.59184">
        <ele>25.8</ele>
        <time>2025-02-26T14:51:18Z</time>
      </trkpt>
      <trkpt lat="43.48847" lon="6.59184">
        <ele>25.9</ele>
        <time>2025-02-26T14:51:19Z</time>
      </trkpt>
      <trkpt lat="43.48848" lon="6.59184">
        <ele>26</ele>
        <time>2025-02-26T14:51:20Z</time>
      </trkpt>
      <trkpt lat="43.4885" lon="6.59184">
        <ele>26</ele>
        <time>2025-02-26T14:51:21Z</time>
      </trkpt>
      <trkpt lat="43.48851" lon="6.59184">
        <ele>26</ele>
        <time>2025-02-26T14:51:22Z</time>
      </trkpt>
      <trkpt lat="43.48852" lon="6.59184">
        <ele>26.1</ele>
        <time>2025-02-26T14:51:23Z</time>
      </trkpt>
      <trkpt lat="43.48854" lon="6.59183">
        <ele>26.1</ele>
        <time>2025-02-26T14:51:24Z</time>
      </trkpt>
      <trkpt lat="43.48855" lon="6.59183">
        <ele>26.2</ele>
        <time>2025-02-26T14:51:25Z</time>
      </trkpt>
      <trkpt lat="43.48856" lon="6.59183">
        <ele>26.2</ele>
        <time>2025-02-26T14:51:26Z</time>
      </trkpt>
      <trkpt lat="43.48858" lon="6.59183">
        <ele>26.2</ele>
        <time>2025-02-26T14:51:27Z</time>
      </trkpt>
      <trkpt lat="43.48859" lon="6.59183">
        <ele>26.2</ele>
        <time>2025-02-26T14:51:28Z</time>
      </trkpt>
      <trkpt lat="43.48861" lon="6.59183">
        <ele>26.1</ele>
        <time>2025-02-26T14:51:29Z</time>
      </trkpt>
      <trkpt lat="43.48862" lon="6.59183">
        <ele>26</ele>
        <time>2025-02-26T14:51:30Z</time>
      </trkpt>
      <trkpt lat="43.48864" lon="6.59183">
        <ele>26</ele>
        <time>2025-02-26T14:51:31Z</time>
      </trkpt>
      <trkpt lat="43.48865" lon="6.59183">
        <ele>26.1</ele>
        <time>2025-02-26T14:51:32Z</time>
      </trkpt>
      <trkpt lat="43.48866" lon="6.59183">
        <ele>26.1</ele>
        <time>2025-02-26T14:51:33Z</time>
      </trkpt>
      <trkpt lat="43.48868" lon="6.59184">
        <ele>26</ele>
        <time>2025-02-26T14:51:34Z</time>
      </trkpt>
      <trkpt lat="43.48869" lon="6.59184">
        <ele>26</ele>
        <time>2025-02-26T14:51:35Z</time>
      </trkpt>
      <trkpt lat="43.48871" lon="6.59184">
        <ele>26</ele>
        <time>2025-02-26T14:51:36Z</time>
      </trkpt>
      <trkpt lat="43.48872" lon="6.59184">
        <ele>26</ele>
        <time>2025-02-26T14:51:37Z</time>
      </trkpt>
      <trkpt lat="43.48874" lon="6.59185">
        <ele>26.1</ele>
        <time>2025-02-26T14:51:38Z</time>
      </trkpt>
      <trkpt lat="43.48875" lon="6.59185">
        <ele>26.1</ele>
        <time>2025-02-26T14:51:39Z</time>
      </trkpt>
      <trkpt lat="43.48877" lon="6.59185">
        <ele>26.1</ele>
        <time>2025-02-26T14:51:40Z</time>
      </trkpt>
      <trkpt lat="43.48878" lon="6.59185">
        <ele>26</ele>
        <time>2025-02-26T14:51:41Z</time>
      </trkpt>
      <trkpt lat="43.48879" lon="6.59185">
        <ele>26</ele>
        <time>2025-02-26T14:51:42Z</time>
      </trkpt>
      <trkpt lat="43.48881" lon="6.59185">
        <ele>26.1</ele>
        <time>2025-02-26T14:51:43Z</time>
      </trkpt>
      <trkpt lat="43.48882" lon="6.59185">
        <ele>26.1</ele>
        <time>2025-02-26T14:51:44Z</time>
      </trkpt>
      <trkpt lat="43.48884" lon="6.59185">
        <ele>26</ele>
        <time>2025-02-26T14:51:45Z</time>
      </trkpt>
      <trkpt lat="43.48885" lon="6.59185">
        <ele>25.9</ele>
        <time>2025-02-26T14:51:46Z</time>
      </trkpt>
      <trkpt lat="43.48887" lon="6.59184">
        <ele>25.9</ele>
        <time>2025-02-26T14:51:47Z</time>
      </trkpt>
      <trkpt lat="43.48888" lon="6.59184">
        <ele>25.9</ele>
        <time>2025-02-26T14:51:48Z</time>
      </trkpt>
      <trkpt lat="43.48889" lon="6.59184">
        <ele>25.9</ele>
        <time>2025-02-26T14:51:49Z</time>
      </trkpt>
      <trkpt lat="43.4889" lon="6.59184">
        <ele>25.8</ele>
        <time>2025-02-26T14:51:50Z</time>
      </trkpt>
      <trkpt lat="43.48891" lon="6.59184">
        <ele>25.8</ele>
        <time>2025-02-26T14:51:51Z</time>
      </trkpt>
      <trkpt lat="43.48892" lon="6.59184">
        <ele>25.9</ele>
        <time>2025-02-26T14:51:52Z</time>
      </trkpt>
      <trkpt lat="43.48893" lon="6.59185">
        <ele>26</ele>
        <time>2025-02-26T14:51:53Z</time>
      </trkpt>
      <trkpt lat="43.48894" lon="6.59185">
        <ele>26.1</ele>
        <time>2025-02-26T14:51:54Z</time>
      </trkpt>
      <trkpt lat="43.48895" lon="6.59186">
        <ele>26.2</ele>
        <time>2025-02-26T14:51:55Z</time>
      </trkpt>
      <trkpt lat="43.48896" lon="6.59186">
        <ele>26.2</ele>
        <time>2025-02-26T14:51:56Z</time>
      </trkpt>
      <trkpt lat="43.48896" lon="6.59187">
        <ele>26.2</ele>
        <time>2025-02-26T14:51:57Z</time>
      </trkpt>
      <trkpt lat="43.48897" lon="6.59187">
        <ele>26.2</ele>
        <time>2025-02-26T14:51:58Z</time>
      </trkpt>
      <trkpt lat="43.48898" lon="6.59187">
        <ele>26.2</ele>
        <time>2025-02-26T14:51:59Z</time>
      </trkpt>
      <trkpt lat="43.48899" lon="6.59188">
        <ele>26.3</ele>
        <time>2025-02-26T14:52:00Z</time>
      </trkpt>
      <trkpt lat="43.489" lon="6.59188">
        <ele>26.3</ele>
        <time>2025-02-26T14:52:01Z</time>
      </trkpt>
      <trkpt lat="43.48901" lon="6.59188">
        <ele>26.3</ele>
        <time>2025-02-26T14:52:02Z</time>
      </trkpt>
      <trkpt lat="43.48901" lon="6.59188">
        <ele>26.4</ele>
        <time>2025-02-26T14:52:03Z</time>
      </trkpt>
      <trkpt lat="43.48902" lon="6.59189">
        <ele>26.4</ele>
        <time>2025-02-26T14:52:04Z</time>
      </trkpt>
      <trkpt lat="43.48902" lon="6.5919">
        <ele>26.4</ele>
        <time>2025-02-26T14:52:05Z</time>
      </trkpt>
      <trkpt lat="43.48902" lon="6.59191">
        <ele>26.4</ele>
        <time>2025-02-26T14:52:06Z</time>
      </trkpt>
      <trkpt lat="43.48902" lon="6.59193">
        <ele>26.3</ele>
        <time>2025-02-26T14:52:07Z</time>
      </trkpt>
      <trkpt lat="43.48903" lon="6.59194">
        <ele>26.2</ele>
        <time>2025-02-26T14:52:08Z</time>
      </trkpt>
      <trkpt lat="43.48903" lon="6.59195">
        <ele>26.2</ele>
        <time>2025-02-26T14:52:09Z</time>
      </trkpt>
      <trkpt lat="43.48903" lon="6.59197">
        <ele>26.2</ele>
        <time>2025-02-26T14:52:10Z</time>
      </trkpt>
      <trkpt lat="43.48902" lon="6.59198">
        <ele>26.1</ele>
        <time>2025-02-26T14:52:11Z</time>
      </trkpt>
      <trkpt lat="43.48902" lon="6.592">
        <ele>26.3</ele>
        <time>2025-02-26T14:52:12Z</time>
      </trkpt>
      <trkpt lat="43.48902" lon="6.59202">
        <ele>26.2</ele>
        <time>2025-02-26T14:52:13Z</time>
      </trkpt>
      <trkpt lat="43.48902" lon="6.59203">
        <ele>26.1</ele>
        <time>2025-02-26T14:52:14Z</time>
      </trkpt>
      <trkpt lat="43.48902" lon="6.59205">
        <ele>26</ele>
        <time>2025-02-26T14:52:15Z</time>
      </trkpt>
      <trkpt lat="43.48901" lon="6.59206">
        <ele>26</ele>
        <time>2025-02-26T14:52:16Z</time>
      </trkpt>
      <trkpt lat="43.48901" lon="6.59208">
        <ele>26</ele>
        <time>2025-02-26T14:52:17Z</time>
      </trkpt>
      <trkpt lat="43.489" lon="6.59209">
        <ele>26</ele>
        <time>2025-02-26T14:52:18Z</time>
      </trkpt>
      <trkpt lat="43.489" lon="6.5921">
        <ele>26</ele>
        <time>2025-02-26T14:52:19Z</time>
      </trkpt>
      <trkpt lat="43.48899" lon="6.59212">
        <ele>26.1</ele>
        <time>2025-02-26T14:52:20Z</time>
      </trkpt>
      <trkpt lat="43.48899" lon="6.59213">
        <ele>26.2</ele>
        <time>2025-02-26T14:52:21Z</time>
      </trkpt>
      <trkpt lat="43.48898" lon="6.59214">
        <ele>26.2</ele>
        <time>2025-02-26T14:52:22Z</time>
      </trkpt>
      <trkpt lat="43.48897" lon="6.59216">
        <ele>26.2</ele>
        <time>2025-02-26T14:52:23Z</time>
      </trkpt>
      <trkpt lat="43.48897" lon="6.59217">
        <ele>26.3</ele>
        <time>2025-02-26T14:52:24Z</time>
      </trkpt>
      <trkpt lat="43.48896" lon="6.59218">
        <ele>26.3</ele>
        <time>2025-02-26T14:52:25Z</time>
      </trkpt>
      <trkpt lat="43.48895" lon="6.5922">
        <ele>26.3</ele>
        <time>2025-02-26T14:52:26Z</time>
      </trkpt>
      <trkpt lat="43.48894" lon="6.59221">
        <ele>26.2</ele>
        <time>2025-02-26T14:52:27Z</time>
      </trkpt>
      <trkpt lat="43.48894" lon="6.59223">
        <ele>26.2</ele>
        <time>2025-02-26T14:52:28Z</time>
      </trkpt>
      <trkpt lat="43.48893" lon="6.59224">
        <ele>26.3</ele>
        <time>2025-02-26T14:52:29Z</time>
      </trkpt>
      <trkpt lat="43.48892" lon="6.59225">
        <ele>26.3</ele>
        <time>2025-02-26T14:52:30Z</time>
      </trkpt>
      <trkpt lat="43.48891" lon="6.59227">
        <ele>26.4</ele>
        <time>2025-02-26T14:52:31Z</time>
      </trkpt>
      <trkpt lat="43.48891" lon="6.59228">
        <ele>26.4</ele>
        <time>2025-02-26T14:52:32Z</time>
      </trkpt>
      <trkpt lat="43.4889" lon="6.5923">
        <ele>26.5</ele>
        <time>2025-02-26T14:52:33Z</time>
      </trkpt>
      <trkpt lat="43.48889" lon="6.59231">
        <ele>26.4</ele>
        <time>2025-02-26T14:52:34Z</time>
      </trkpt>
      <trkpt lat="43.48889" lon="6.59233">
        <ele>26.4</ele>
        <time>2025-02-26T14:52:35Z</time>
      </trkpt>
      <trkpt lat="43.48888" lon="6.59235">
        <ele>26.2</ele>
        <time>2025-02-26T14:52:36Z</time>
      </trkpt>
      <trkpt lat="43.48887" lon="6.59236">
        <ele>26.2</ele>
        <time>2025-02-26T14:52:37Z</time>
      </trkpt>
      <trkpt lat="43.48887" lon="6.59238">
        <ele>26.3</ele>
        <time>2025-02-26T14:52:38Z</time>
      </trkpt>
      <trkpt lat="43.48886" lon="6.59239">
        <ele>26.3</ele>
        <time>2025-02-26T14:52:39Z</time>
      </trkpt>
      <trkpt lat="43.48885" lon="6.5924">
        <ele>26.3</ele>
        <time>2025-02-26T14:52:40Z</time>
      </trkpt>
      <trkpt lat="43.48885" lon="6.59241">
        <ele>26.2</ele>
        <time>2025-02-26T14:52:41Z</time>
      </trkpt>
      <trkpt lat="43.48884" lon="6.59243">
        <ele>26.3</ele>
        <time>2025-02-26T14:52:42Z</time>
      </trkpt>
      <trkpt lat="43.48883" lon="6.59245">
        <ele>26.3</ele>
        <time>2025-02-26T14:52:43Z</time>
      </trkpt>
      <trkpt lat="43.48883" lon="6.59246">
        <ele>26.2</ele>
        <time>2025-02-26T14:52:44Z</time>
      </trkpt>
      <trkpt lat="43.48882" lon="6.59248">
        <ele>26.2</ele>
        <time>2025-02-26T14:52:45Z</time>
      </trkpt>
      <trkpt lat="43.48881" lon="6.59249">
        <ele>26.2</ele>
        <time>2025-02-26T14:52:46Z</time>
      </trkpt>
      <trkpt lat="43.48881" lon="6.59251">
        <ele>26.2</ele>
        <time>2025-02-26T14:52:47Z</time>
      </trkpt>
      <trkpt lat="43.4888" lon="6.59252">
        <ele>26.1</ele>
        <time>2025-02-26T14:52:48Z</time>
      </trkpt>
      <trkpt lat="43.4888" lon="6.59254">
        <ele>26.1</ele>
        <time>2025-02-26T14:52:49Z</time>
      </trkpt>
      <trkpt lat="43.48879" lon="6.59255">
        <ele>26.1</ele>
        <time>2025-02-26T14:52:50Z</time>
      </trkpt>
      <trkpt lat="43.48879" lon="6.59257">
        <ele>26.1</ele>
        <time>2025-02-26T14:52:51Z</time>
      </trkpt>
      <trkpt lat="43.48878" lon="6.59258">
        <ele>26</ele>
        <time>2025-02-26T14:52:52Z</time>
      </trkpt>
      <trkpt lat="43.48878" lon="6.5926">
        <ele>26</ele>
        <time>2025-02-26T14:52:53Z</time>
      </trkpt>
      <trkpt lat="43.48877" lon="6.59261">
        <ele>25.9</ele>
        <time>2025-02-26T14:52:54Z</time>
      </trkpt>
      <trkpt lat="43.48877" lon="6.59263">
        <ele>25.9</ele>
        <time>2025-02-26T14:52:55Z</time>
      </trkpt>
      <trkpt lat="43.48876" lon="6.59264">
        <ele>25.8</ele>
        <time>2025-02-26T14:52:56Z</time>
      </trkpt>
      <trkpt lat="43.48876" lon="6.59266">
        <ele>25.7</ele>
        <time>2025-02-26T14:52:57Z</time>
      </trkpt>
      <trkpt lat="43.48875" lon="6.59267">
        <ele>25.7</ele>
        <time>2025-02-26T14:52:58Z</time>
      </trkpt>
      <trkpt lat="43.48875" lon="6.59269">
        <ele>25.6</ele>
        <time>2025-02-26T14:52:59Z</time>
      </trkpt>
      <trkpt lat="43.48874" lon="6.5927">
        <ele>25.6</ele>
        <time>2025-02-26T14:53:00Z</time>
      </trkpt>
      <trkpt lat="43.48874" lon="6.59272">
        <ele>25.6</ele>
        <time>2025-02-26T14:53:01Z</time>
      </trkpt>
      <trkpt lat="43.48873" lon="6.59273">
        <ele>25.6</ele>
        <time>2025-02-26T14:53:02Z</time>
      </trkpt>
      <trkpt lat="43.48872" lon="6.59275">
        <ele>25.7</ele>
        <time>2025-02-26T14:53:03Z</time>
      </trkpt>
      <trkpt lat="43.48872" lon="6.59276">
        <ele>25.6</ele>
        <time>2025-02-26T14:53:04Z</time>
      </trkpt>
      <trkpt lat="43.48871" lon="6.59278">
        <ele>25.5</ele>
        <time>2025-02-26T14:53:05Z</time>
      </trkpt>
      <trkpt lat="43.4887" lon="6.59279">
        <ele>25.5</ele>
        <time>2025-02-26T14:53:06Z</time>
      </trkpt>
      <trkpt lat="43.48869" lon="6.59281">
        <ele>25.3</ele>
        <time>2025-02-26T14:53:07Z</time>
      </trkpt>
      <trkpt lat="43.48869" lon="6.59283">
        <ele>25.2</ele>
        <time>2025-02-26T14:53:08Z</time>
      </trkpt>
      <trkpt lat="43.48868" lon="6.59284">
        <ele>25.1</ele>
        <time>2025-02-26T14:53:09Z</time>
      </trkpt>
      <trkpt lat="43.48867" lon="6.59286">
        <ele>25.1</ele>
        <time>2025-02-26T14:53:10Z</time>
      </trkpt>
      <trkpt lat="43.48867" lon="6.59288">
        <ele>25</ele>
        <time>2025-02-26T14:53:11Z</time>
      </trkpt>
      <trkpt lat="43.48866" lon="6.59289">
        <ele>24.9</ele>
        <time>2025-02-26T14:53:12Z</time>
      </trkpt>
      <trkpt lat="43.48866" lon="6.59291">
        <ele>24.9</ele>
        <time>2025-02-26T14:53:13Z</time>
      </trkpt>
      <trkpt lat="43.48865" lon="6.59293">
        <ele>24.9</ele>
        <time>2025-02-26T14:53:14Z</time>
      </trkpt>
      <trkpt lat="43.48865" lon="6.59294">
        <ele>24.8</ele>
        <time>2025-02-26T14:53:15Z</time>
      </trkpt>
      <trkpt lat="43.48864" lon="6.59295">
        <ele>24.7</ele>
        <time>2025-02-26T14:53:16Z</time>
      </trkpt>
      <trkpt lat="43.48864" lon="6.59297">
        <ele>24.5</ele>
        <time>2025-02-26T14:53:17Z</time>
      </trkpt>
      <trkpt lat="43.48863" lon="6.59298">
        <ele>24.5</ele>
        <time>2025-02-26T14:53:18Z</time>
      </trkpt>
      <trkpt lat="43.48862" lon="6.593">
        <ele>24.5</ele>
        <time>2025-02-26T14:53:19Z</time>
      </trkpt>
      <trkpt lat="43.48862" lon="6.59302">
        <ele>24.4</ele>
        <time>2025-02-26T14:53:20Z</time>
      </trkpt>
      <trkpt lat="43.48861" lon="6.59304">
        <ele>24.4</ele>
        <time>2025-02-26T14:53:21Z</time>
      </trkpt>
      <trkpt lat="43.4886" lon="6.59305">
        <ele>24.4</ele>
        <time>2025-02-26T14:53:22Z</time>
      </trkpt>
      <trkpt lat="43.4886" lon="6.59307">
        <ele>24.5</ele>
        <time>2025-02-26T14:53:23Z</time>
      </trkpt>
      <trkpt lat="43.48859" lon="6.59308">
        <ele>24.5</ele>
        <time>2025-02-26T14:53:24Z</time>
      </trkpt>
      <trkpt lat="43.48859" lon="6.5931">
        <ele>24.4</ele>
        <time>2025-02-26T14:53:25Z</time>
      </trkpt>
      <trkpt lat="43.48858" lon="6.59312">
        <ele>24.4</ele>
        <time>2025-02-26T14:53:26Z</time>
      </trkpt>
      <trkpt lat="43.48857" lon="6.59313">
        <ele>24.3</ele>
        <time>2025-02-26T14:53:27Z</time>
      </trkpt>
      <trkpt lat="43.48857" lon="6.59315">
        <ele>24.3</ele>
        <time>2025-02-26T14:53:28Z</time>
      </trkpt>
      <trkpt lat="43.48856" lon="6.59317">
        <ele>24.2</ele>
        <time>2025-02-26T14:53:29Z</time>
      </trkpt>
      <trkpt lat="43.48856" lon="6.59318">
        <ele>24.2</ele>
        <time>2025-02-26T14:53:30Z</time>
      </trkpt>
      <trkpt lat="43.48855" lon="6.5932">
        <ele>24.2</ele>
        <time>2025-02-26T14:53:31Z</time>
      </trkpt>
      <trkpt lat="43.48855" lon="6.59321">
        <ele>24.1</ele>
        <time>2025-02-26T14:53:32Z</time>
      </trkpt>
      <trkpt lat="43.48854" lon="6.59323">
        <ele>24</ele>
        <time>2025-02-26T14:53:33Z</time>
      </trkpt>
      <trkpt lat="43.48854" lon="6.59325">
        <ele>24.1</ele>
        <time>2025-02-26T14:53:34Z</time>
      </trkpt>
      <trkpt lat="43.48853" lon="6.59326">
        <ele>24.1</ele>
        <time>2025-02-26T14:53:35Z</time>
      </trkpt>
      <trkpt lat="43.48853" lon="6.59328">
        <ele>24</ele>
        <time>2025-02-26T14:53:36Z</time>
      </trkpt>
      <trkpt lat="43.48852" lon="6.59329">
        <ele>24</ele>
        <time>2025-02-26T14:53:37Z</time>
      </trkpt>
      <trkpt lat="43.48852" lon="6.59331">
        <ele>24</ele>
        <time>2025-02-26T14:53:38Z</time>
      </trkpt>
      <trkpt lat="43.48852" lon="6.59332">
        <ele>24</ele>
        <time>2025-02-26T14:53:39Z</time>
      </trkpt>
      <trkpt lat="43.48851" lon="6.59333">
        <ele>24</ele>
        <time>2025-02-26T14:53:40Z</time>
      </trkpt>
      <trkpt lat="43.48851" lon="6.59335">
        <ele>24</ele>
        <time>2025-02-26T14:53:41Z</time>
      </trkpt>
      <trkpt lat="43.4885" lon="6.59336">
        <ele>23.8</ele>
        <time>2025-02-26T14:53:42Z</time>
      </trkpt>
      <trkpt lat="43.4885" lon="6.59336">
        <ele>23.8</ele>
        <time>2025-02-26T14:53:43Z</time>
      </trkpt>
      <trkpt lat="43.4885" lon="6.59337">
        <ele>23.8</ele>
        <time>2025-02-26T14:53:44Z</time>
      </trkpt>
      <trkpt lat="43.48849" lon="6.59338">
        <ele>23.8</ele>
        <time>2025-02-26T14:53:45Z</time>
      </trkpt>
      <trkpt lat="43.48848" lon="6.5934">
        <ele>23.8</ele>
        <time>2025-02-26T14:53:46Z</time>
      </trkpt>
      <trkpt lat="43.48848" lon="6.59341">
        <ele>23.8</ele>
        <time>2025-02-26T14:53:47Z</time>
      </trkpt>
      <trkpt lat="43.48847" lon="6.59342">
        <ele>23.8</ele>
        <time>2025-02-26T14:53:48Z</time>
      </trkpt>
      <trkpt lat="43.48846" lon="6.59343">
        <ele>23.7</ele>
        <time>2025-02-26T14:53:49Z</time>
      </trkpt>
      <trkpt lat="43.48846" lon="6.59345">
        <ele>23.9</ele>
        <time>2025-02-26T14:53:50Z</time>
      </trkpt>
      <trkpt lat="43.48845" lon="6.59346">
        <ele>23.9</ele>
        <time>2025-02-26T14:53:51Z</time>
      </trkpt>
      <trkpt lat="43.48845" lon="6.59347">
        <ele>23.7</ele>
        <time>2025-02-26T14:53:52Z</time>
      </trkpt>
      <trkpt lat="43.48844" lon="6.59348">
        <ele>23.7</ele>
        <time>2025-02-26T14:53:53Z</time>
      </trkpt>
      <trkpt lat="43.48843" lon="6.59349">
        <ele>23.6</ele>
        <time>2025-02-26T14:53:54Z</time>
      </trkpt>
      <trkpt lat="43.48842" lon="6.59351">
        <ele>23.6</ele>
        <time>2025-02-26T14:53:55Z</time>
      </trkpt>
      <trkpt lat="43.48842" lon="6.59352">
        <ele>23.5</ele>
        <time>2025-02-26T14:53:56Z</time>
      </trkpt>
      <trkpt lat="43.48841" lon="6.59354">
        <ele>23.4</ele>
        <time>2025-02-26T14:53:57Z</time>
      </trkpt>
      <trkpt lat="43.48841" lon="6.59355">
        <ele>23.2</ele>
        <time>2025-02-26T14:53:58Z</time>
      </trkpt>
      <trkpt lat="43.48842" lon="6.59356">
        <ele>23.4</ele>
        <time>2025-02-26T14:53:59Z</time>
      </trkpt>
      <trkpt lat="43.48842" lon="6.59358">
        <ele>23.1</ele>
        <time>2025-02-26T14:54:00Z</time>
      </trkpt>
      <trkpt lat="43.48842" lon="6.59359">
        <ele>22.9</ele>
        <time>2025-02-26T14:54:01Z</time>
      </trkpt>
      <trkpt lat="43.48842" lon="6.59361">
        <ele>22.8</ele>
        <time>2025-02-26T14:54:02Z</time>
      </trkpt>
      <trkpt lat="43.48841" lon="6.59362">
        <ele>22.7</ele>
        <time>2025-02-26T14:54:03Z</time>
      </trkpt>
      <trkpt lat="43.48841" lon="6.59364">
        <ele>22.7</ele>
        <time>2025-02-26T14:54:04Z</time>
      </trkpt>
      <trkpt lat="43.48841" lon="6.59365">
        <ele>22.5</ele>
        <time>2025-02-26T14:54:05Z</time>
      </trkpt>
      <trkpt lat="43.48841" lon="6.59365">
        <ele>22.4</ele>
        <time>2025-02-26T14:54:06Z</time>
      </trkpt>
      <trkpt lat="43.48842" lon="6.59365">
        <ele>22.3</ele>
        <time>2025-02-26T14:54:07Z</time>
      </trkpt>
      <trkpt lat="43.48842" lon="6.59366">
        <ele>22.2</ele>
        <time>2025-02-26T14:54:08Z</time>
      </trkpt>
      <trkpt lat="43.48842" lon="6.59366">
        <ele>22.2</ele>
        <time>2025-02-26T14:54:09Z</time>
      </trkpt>
      <trkpt lat="43.48842" lon="6.59366">
        <ele>22.1</ele>
        <time>2025-02-26T14:54:10Z</time>
      </trkpt>
      <trkpt lat="43.48842" lon="6.59366">
        <ele>22.1</ele>
        <time>2025-02-26T14:54:11Z</time>
      </trkpt>
      <trkpt lat="43.48842" lon="6.59366">
        <ele>22.2</ele>
        <time>2025-02-26T14:54:12Z</time>
      </trkpt>
      <trkpt lat="43.48842" lon="6.59366">
        <ele>22.1</ele>
        <time>2025-02-26T14:54:13Z</time>
      </trkpt>
      <trkpt lat="43.48843" lon="6.59367">
        <ele>22.2</ele>
        <time>2025-02-26T14:54:14Z</time>
      </trkpt>
      <trkpt lat="43.48843" lon="6.59367">
        <ele>22.2</ele>
        <time>2025-02-26T14:54:15Z</time>
      </trkpt>
      <trkpt lat="43.48843" lon="6.59367">
        <ele>22.1</ele>
        <time>2025-02-26T14:54:16Z</time>
      </trkpt>
      <trkpt lat="43.48843" lon="6.59367">
        <ele>22.1</ele>
        <time>2025-02-26T14:54:17Z</time>
      </trkpt>
      <trkpt lat="43.48843" lon="6.59367">
        <ele>22.1</ele>
        <time>2025-02-26T14:54:18Z</time>
      </trkpt>
      <trkpt lat="43.48843" lon="6.59368">
        <ele>22.1</ele>
        <time>2025-02-26T14:54:19Z</time>
      </trkpt>
      <trkpt lat="43.48843" lon="6.59368">
        <ele>22.2</ele>
        <time>2025-02-26T14:54:20Z</time>
      </trkpt>
      <trkpt lat="43.48844" lon="6.59368">
        <ele>22.1</ele>
        <time>2025-02-26T14:54:21Z</time>
      </trkpt>
      <trkpt lat="43.48844" lon="6.59368">
        <ele>22.1</ele>
        <time>2025-02-26T14:54:22Z</time>
      </trkpt>
      <trkpt lat="43.48844" lon="6.59368">
        <ele>22.1</ele>
        <time>2025-02-26T14:54:23Z</time>
      </trkpt>
      <trkpt lat="43.48844" lon="6.59368">
        <ele>22.1</ele>
        <time>2025-02-26T14:54:24Z</time>
      </trkpt>
      <trkpt lat="43.48844" lon="6.59368">
        <ele>22</ele>
        <time>2025-02-26T14:54:25Z</time>
      </trkpt>
      <trkpt lat="43.48844" lon="6.59368">
        <ele>21.9</ele>
        <time>2025-02-26T14:54:26Z</time>
      </trkpt>
      <trkpt lat="43.48844" lon="6.59368">
        <ele>21.9</ele>
        <time>2025-02-26T14:54:27Z</time>
      </trkpt>
      <trkpt lat="43.48844" lon="6.59368">
        <ele>21.8</ele>
        <time>2025-02-26T14:54:28Z</time>
      </trkpt>
      <trkpt lat="43.48844" lon="6.59368">
        <ele>21.8</ele>
        <time>2025-02-26T14:54:29Z</time>
      </trkpt>
      <trkpt lat="43.48845" lon="6.59369">
        <ele>21.8</ele>
        <time>2025-02-26T14:54:30Z</time>
      </trkpt>
      <trkpt lat="43.48844" lon="6.59369">
        <ele>21.8</ele>
        <time>2025-02-26T14:54:31Z</time>
      </trkpt>
      <trkpt lat="43.48845" lon="6.59369">
        <ele>21.8</ele>
        <time>2025-02-26T14:54:32Z</time>
      </trkpt>
      <trkpt lat="43.48845" lon="6.59369">
        <ele>21.8</ele>
        <time>2025-02-26T14:54:33Z</time>
      </trkpt>
      <trkpt lat="43.48845" lon="6.59369">
        <ele>21.7</ele>
        <time>2025-02-26T14:54:34Z</time>
      </trkpt>
      <trkpt lat="43.48845" lon="6.59369">
        <ele>21.7</ele>
        <time>2025-02-26T14:54:35Z</time>
      </trkpt>
      <trkpt lat="43.48845" lon="6.59369">
        <ele>21.7</ele>
        <time>2025-02-26T14:54:36Z</time>
      </trkpt>
      <trkpt lat="43.48845" lon="6.59369">
        <ele>21.7</ele>
        <time>2025-02-26T14:54:37Z</time>
      </trkpt>
      <trkpt lat="43.48845" lon="6.5937">
        <ele>21.8</ele>
        <time>2025-02-26T14:54:38Z</time>
      </trkpt>
      <trkpt lat="43.48845" lon="6.5937">
        <ele>21.8</ele>
        <time>2025-02-26T14:54:39Z</time>
      </trkpt>
      <trkpt lat="43.48845" lon="6.5937">
        <ele>21.9</ele>
        <time>2025-02-26T14:54:40Z</time>
      </trkpt>
      <trkpt lat="43.48845" lon="6.5937">
        <ele>21.9</ele>
        <time>2025-02-26T14:54:41Z</time>
      </trkpt>
      <trkpt lat="43.48845" lon="6.5937">
        <ele>21.8</ele>
        <time>2025-02-26T14:54:42Z</time>
      </trkpt>
      <trkpt lat="43.48845" lon="6.5937">
        <ele>21.8</ele>
        <time>2025-02-26T14:54:43Z</time>
      </trkpt>
      <trkpt lat="43.48845" lon="6.59371">
        <ele>21.8</ele>
        <time>2025-02-26T14:54:44Z</time>
      </trkpt>
      <trkpt lat="43.48845" lon="6.59371">
        <ele>21.7</ele>
        <time>2025-02-26T14:54:45Z</time>
      </trkpt>
      <trkpt lat="43.48845" lon="6.59371">
        <ele>21.7</ele>
        <time>2025-02-26T14:54:46Z</time>
      </trkpt>
      <trkpt lat="43.48845" lon="6.59371">
        <ele>21.7</ele>
        <time>2025-02-26T14:54:47Z</time>
      </trkpt>
      <trkpt lat="43.48845" lon="6.59371">
        <ele>21.8</ele>
        <time>2025-02-26T14:54:48Z</time>
      </trkpt>
      <trkpt lat="43.48845" lon="6.59371">
        <ele>21.8</ele>
        <time>2025-02-26T14:54:49Z</time>
      </trkpt>
      <trkpt lat="43.48845" lon="6.59371">
        <ele>21.7</ele>
        <time>2025-02-26T14:54:50Z</time>
      </trkpt>
      <trkpt lat="43.48845" lon="6.59371">
        <ele>21.7</ele>
        <time>2025-02-26T14:54:51Z</time>
      </trkpt>
      <trkpt lat="43.48845" lon="6.59371">
        <ele>21.6</ele>
        <time>2025-02-26T14:54:52Z</time>
      </trkpt>
      <trkpt lat="43.48845" lon="6.59371">
        <ele>21.6</ele>
        <time>2025-02-26T14:54:53Z</time>
      </trkpt>
      <trkpt lat="43.48845" lon="6.59371">
        <ele>21.6</ele>
        <time>2025-02-26T14:54:54Z</time>
      </trkpt>
      <trkpt lat="43.48846" lon="6.59371">
        <ele>21.5</ele>
        <time>2025-02-26T14:54:55Z</time>
      </trkpt>
      <trkpt lat="43.48846" lon="6.59371">
        <ele>21.5</ele>
        <time>2025-02-26T14:54:56Z</time>
      </trkpt>
      <trkpt lat="43.48846" lon="6.5937">
        <ele>21.5</ele>
        <time>2025-02-26T14:54:57Z</time>
      </trkpt>
      <trkpt lat="43.48846" lon="6.5937">
        <ele>21.5</ele>
        <time>2025-02-26T14:54:58Z</time>
      </trkpt>
      <trkpt lat="43.48846" lon="6.5937">
        <ele>21.5</ele>
        <time>2025-02-26T14:54:59Z</time>
      </trkpt>
      <trkpt lat="43.48846" lon="6.59371">
        <ele>21.5</ele>
        <time>2025-02-26T14:55:00Z</time>
      </trkpt>
      <trkpt lat="43.48846" lon="6.59371">
        <ele>21.5</ele>
        <time>2025-02-26T14:55:01Z</time>
      </trkpt>
      <trkpt lat="43.48846" lon="6.59371">
        <ele>21.5</ele>
        <time>2025-02-26T14:55:02Z</time>
      </trkpt>
      <trkpt lat="43.48846" lon="6.59371">
        <ele>21.6</ele>
        <time>2025-02-26T14:55:03Z</time>
      </trkpt>
      <trkpt lat="43.48846" lon="6.59371">
        <ele>21.5</ele>
        <time>2025-02-26T14:55:04Z</time>
      </trkpt>
      <trkpt lat="43.48846" lon="6.59371">
        <ele>21.4</ele>
        <time>2025-02-26T14:55:05Z</time>
      </trkpt>
      <trkpt lat="43.48846" lon="6.59371">
        <ele>21.5</ele>
        <time>2025-02-26T14:55:06Z</time>
      </trkpt>
      <trkpt lat="43.48846" lon="6.59371">
        <ele>21.5</ele>
        <time>2025-02-26T14:55:07Z</time>
      </trkpt>
      <trkpt lat="43.48846" lon="6.59371">
        <ele>21.5</ele>
        <time>2025-02-26T14:55:08Z</time>
      </trkpt>
      <trkpt lat="43.48847" lon="6.59371">
        <ele>21.6</ele>
        <time>2025-02-26T14:55:09Z</time>
      </trkpt>
      <trkpt lat="43.48847" lon="6.59371">
        <ele>21.6</ele>
        <time>2025-02-26T14:55:10Z</time>
      </trkpt>
      <trkpt lat="43.48847" lon="6.59372">
        <ele>21.6</ele>
        <time>2025-02-26T14:55:11Z</time>
      </trkpt>
      <trkpt lat="43.48846" lon="6.59372">
        <ele>21.6</ele>
        <time>2025-02-26T14:55:12Z</time>
      </trkpt>
      <trkpt lat="43.48846" lon="6.59372">
        <ele>21.6</ele>
        <time>2025-02-26T14:55:13Z</time>
      </trkpt>
      <trkpt lat="43.48847" lon="6.59372">
        <ele>21.5</ele>
        <time>2025-02-26T14:55:14Z</time>
      </trkpt>
      <trkpt lat="43.48847" lon="6.59372">
        <ele>21.4</ele>
        <time>2025-02-26T14:55:15Z</time>
      </trkpt>
      <trkpt lat="43.48847" lon="6.59372">
        <ele>21.4</ele>
        <time>2025-02-26T14:55:16Z</time>
      </trkpt>
      <trkpt lat="43.48847" lon="6.59372">
        <ele>21.5</ele>
        <time>2025-02-26T14:55:17Z</time>
      </trkpt>
      <trkpt lat="43.48847" lon="6.59372">
        <ele>21.4</ele>
        <time>2025-02-26T14:55:18Z</time>
      </trkpt>
      <trkpt lat="43.48847" lon="6.59372">
        <ele>21.3</ele>
        <time>2025-02-26T14:55:19Z</time>
      </trkpt>
      <trkpt lat="43.48847" lon="6.59372">
        <ele>21.3</ele>
        <time>2025-02-26T14:55:20Z</time>
      </trkpt>
      <trkpt lat="43.48847" lon="6.59372">
        <ele>21.3</ele>
        <time>2025-02-26T14:55:21Z</time>
      </trkpt>
      <trkpt lat="43.48847" lon="6.59373">
        <ele>21.3</ele>
        <time>2025-02-26T14:55:22Z</time>
      </trkpt>
      <trkpt lat="43.48847" lon="6.59373">
        <ele>21.2</ele>
        <time>2025-02-26T14:55:23Z</time>
      </trkpt>
      <trkpt lat="43.48847" lon="6.59373">
        <ele>21.3</ele>
        <time>2025-02-26T14:55:24Z</time>
      </trkpt>
      <trkpt lat="43.48847" lon="6.59373">
        <ele>21.2</ele>
        <time>2025-02-26T14:55:25Z</time>
      </trkpt>
      <trkpt lat="43.48847" lon="6.59373">
        <ele>21.2</ele>
        <time>2025-02-26T14:55:26Z</time>
      </trkpt>
      <trkpt lat="43.48848" lon="6.59373">
        <ele>21.2</ele>
        <time>2025-02-26T14:55:27Z</time>
      </trkpt>
      <trkpt lat="43.48848" lon="6.59373">
        <ele>21.1</ele>
        <time>2025-02-26T14:55:28Z</time>
      </trkpt>
      <trkpt lat="43.48848" lon="6.59373">
        <ele>21.2</ele>
        <time>2025-02-26T14:55:29Z</time>
      </trkpt>
      <trkpt lat="43.48848" lon="6.59373">
        <ele>21.3</ele>
        <time>2025-02-26T14:55:30Z</time>
      </trkpt>
      <trkpt lat="43.48848" lon="6.59373">
        <ele>21.3</ele>
        <time>2025-02-26T14:55:31Z</time>
      </trkpt>
      <trkpt lat="43.48848" lon="6.59374">
        <ele>21.3</ele>
        <time>2025-02-26T14:55:32Z</time>
      </trkpt>
      <trkpt lat="43.48848" lon="6.59373">
        <ele>21.3</ele>
        <time>2025-02-26T14:55:33Z</time>
      </trkpt>
      <trkpt lat="43.48848" lon="6.59373">
        <ele>21.3</ele>
        <time>2025-02-26T14:55:34Z</time>
      </trkpt>
      <trkpt lat="43.48848" lon="6.59374">
        <ele>21.3</ele>
        <time>2025-02-26T14:55:35Z</time>
      </trkpt>
      <trkpt lat="43.48848" lon="6.59374">
        <ele>21.2</ele>
        <time>2025-02-26T14:55:36Z</time>
      </trkpt>
      <trkpt lat="43.48848" lon="6.59374">
        <ele>21.2</ele>
        <time>2025-02-26T14:55:37Z</time>
      </trkpt>
      <trkpt lat="43.48848" lon="6.59374">
        <ele>21.1</ele>
        <time>2025-02-26T14:55:38Z</time>
      </trkpt>
      <trkpt lat="43.48848" lon="6.59374">
        <ele>21.1</ele>
        <time>2025-02-26T14:55:39Z</time>
      </trkpt>
      <trkpt lat="43.48847" lon="6.59374">
        <ele>21.1</ele>
        <time>2025-02-26T14:55:40Z</time>
      </trkpt>
      <trkpt lat="43.48847" lon="6.59374">
        <ele>21.2</ele>
        <time>2025-02-26T14:55:41Z</time>
      </trkpt>
      <trkpt lat="43.48847" lon="6.59374">
        <ele>21.2</ele>
        <time>2025-02-26T14:55:42Z</time>
      </trkpt>
      <trkpt lat="43.48847" lon="6.59373">
        <ele>21.3</ele>
        <time>2025-02-26T14:55:43Z</time>
      </trkpt>
      <trkpt lat="43.48847" lon="6.59373">
        <ele>21.3</ele>
        <time>2025-02-26T14:55:44Z</time>
      </trkpt>
      <trkpt lat="43.48847" lon="6.59373">
        <ele>21.3</ele>
        <time>2025-02-26T14:55:45Z</time>
      </trkpt>
      <trkpt lat="43.48846" lon="6.59373">
        <ele>21.3</ele>
        <time>2025-02-26T14:55:46Z</time>
      </trkpt>
      <trkpt lat="43.48846" lon="6.59373">
        <ele>21.3</ele>
        <time>2025-02-26T14:55:47Z</time>
      </trkpt>
      <trkpt lat="43.48846" lon="6.59373">
        <ele>21.3</ele>
        <time>2025-02-26T14:55:48Z</time>
      </trkpt>
      <trkpt lat="43.48847" lon="6.59372">
        <ele>21.3</ele>
        <time>2025-02-26T14:55:49Z</time>
      </trkpt>
      <trkpt lat="43.48847" lon="6.59372">
        <ele>21.4</ele>
        <time>2025-02-26T14:55:50Z</time>
      </trkpt>
      <trkpt lat="43.48847" lon="6.59371">
        <ele>21.4</ele>
        <time>2025-02-26T14:55:51Z</time>
      </trkpt>
      <trkpt lat="43.48847" lon="6.59371">
        <ele>21.4</ele>
        <time>2025-02-26T14:55:52Z</time>
      </trkpt>
      <trkpt lat="43.48847" lon="6.59371">
        <ele>21.4</ele>
        <time>2025-02-26T14:55:53Z</time>
      </trkpt>
      <trkpt lat="43.48847" lon="6.59371">
        <ele>21.5</ele>
        <time>2025-02-26T14:55:54Z</time>
      </trkpt>
      <trkpt lat="43.48847" lon="6.59371">
        <ele>21.5</ele>
        <time>2025-02-26T14:55:55Z</time>
      </trkpt>
      <trkpt lat="43.48847" lon="6.59371">
        <ele>21.6</ele>
        <time>2025-02-26T14:55:56Z</time>
      </trkpt>
      <trkpt lat="43.48847" lon="6.59371">
        <ele>21.6</ele>
        <time>2025-02-26T14:55:57Z</time>
      </trkpt>
      <trkpt lat="43.48846" lon="6.59371">
        <ele>21.7</ele>
        <time>2025-02-26T14:55:58Z</time>
      </trkpt>
      <trkpt lat="43.48846" lon="6.59371">
        <ele>21.5</ele>
        <time>2025-02-26T14:55:59Z</time>
      </trkpt>
      <trkpt lat="43.48847" lon="6.5937">
        <ele>21.4</ele>
        <time>2025-02-26T14:56:00Z</time>
      </trkpt>
      <trkpt lat="43.48846" lon="6.5937">
        <ele>21.4</ele>
        <time>2025-02-26T14:56:01Z</time>
      </trkpt>
      <trkpt lat="43.48846" lon="6.59368">
        <ele>21.3</ele>
        <time>2025-02-26T14:56:02Z</time>
      </trkpt>
      <trkpt lat="43.48847" lon="6.59367">
        <ele>21.3</ele>
        <time>2025-02-26T14:56:03Z</time>
      </trkpt>
      <trkpt lat="43.48847" lon="6.59366">
        <ele>21.4</ele>
        <time>2025-02-26T14:56:04Z</time>
      </trkpt>
      <trkpt lat="43.48846" lon="6.59364">
        <ele>21.4</ele>
        <time>2025-02-26T14:56:05Z</time>
      </trkpt>
      <trkpt lat="43.48846" lon="6.59363">
        <ele>21.4</ele>
        <time>2025-02-26T14:56:06Z</time>
      </trkpt>
      <trkpt lat="43.48847" lon="6.59362">
        <ele>21.6</ele>
        <time>2025-02-26T14:56:07Z</time>
      </trkpt>
      <trkpt lat="43.48847" lon="6.59362">
        <ele>21.5</ele>
        <time>2025-02-26T14:56:08Z</time>
      </trkpt>
      <trkpt lat="43.48847" lon="6.59361">
        <ele>21.6</ele>
        <time>2025-02-26T14:56:09Z</time>
      </trkpt>
      <trkpt lat="43.48847" lon="6.5936">
        <ele>21.8</ele>
        <time>2025-02-26T14:56:10Z</time>
      </trkpt>
      <trkpt lat="43.48847" lon="6.59358">
        <ele>22</ele>
        <time>2025-02-26T14:56:11Z</time>
      </trkpt>
      <trkpt lat="43.48848" lon="6.59356">
        <ele>22.1</ele>
        <time>2025-02-26T14:56:12Z</time>
      </trkpt>
      <trkpt lat="43.48849" lon="6.59355">
        <ele>22.2</ele>
        <time>2025-02-26T14:56:13Z</time>
      </trkpt>
      <trkpt lat="43.48849" lon="6.59354">
        <ele>22.3</ele>
        <time>2025-02-26T14:56:14Z</time>
      </trkpt>
      <trkpt lat="43.48849" lon="6.59352">
        <ele>22.4</ele>
        <time>2025-02-26T14:56:15Z</time>
      </trkpt>
      <trkpt lat="43.48849" lon="6.59352">
        <ele>22.5</ele>
        <time>2025-02-26T14:56:16Z</time>
      </trkpt>
      <trkpt lat="43.4885" lon="6.59351">
        <ele>22.6</ele>
        <time>2025-02-26T14:56:17Z</time>
      </trkpt>
      <trkpt lat="43.4885" lon="6.59351">
        <ele>22.6</ele>
        <time>2025-02-26T14:56:18Z</time>
      </trkpt>
      <trkpt lat="43.48851" lon="6.5935">
        <ele>22.6</ele>
        <time>2025-02-26T14:56:19Z</time>
      </trkpt>
      <trkpt lat="43.48852" lon="6.59349">
        <ele>22.7</ele>
        <time>2025-02-26T14:56:20Z</time>
      </trkpt>
      <trkpt lat="43.48852" lon="6.59348">
        <ele>22.6</ele>
        <time>2025-02-26T14:56:21Z</time>
      </trkpt>
      <trkpt lat="43.48853" lon="6.59347">
        <ele>22.7</ele>
        <time>2025-02-26T14:56:22Z</time>
      </trkpt>
      <trkpt lat="43.48853" lon="6.59346">
        <ele>22.8</ele>
        <time>2025-02-26T14:56:23Z</time>
      </trkpt>
      <trkpt lat="43.48853" lon="6.59345">
        <ele>22.9</ele>
        <time>2025-02-26T14:56:24Z</time>
      </trkpt>
      <trkpt lat="43.48854" lon="6.59344">
        <ele>23</ele>
        <time>2025-02-26T14:56:25Z</time>
      </trkpt>
      <trkpt lat="43.48854" lon="6.59342">
        <ele>23.1</ele>
        <time>2025-02-26T14:56:26Z</time>
      </trkpt>
      <trkpt lat="43.48854" lon="6.59341">
        <ele>23.1</ele>
        <time>2025-02-26T14:56:27Z</time>
      </trkpt>
      <trkpt lat="43.48855" lon="6.5934">
        <ele>23.1</ele>
        <time>2025-02-26T14:56:28Z</time>
      </trkpt>
      <trkpt lat="43.48855" lon="6.59339">
        <ele>23.2</ele>
        <time>2025-02-26T14:56:29Z</time>
      </trkpt>
      <trkpt lat="43.48856" lon="6.59338">
        <ele>23.3</ele>
        <time>2025-02-26T14:56:30Z</time>
      </trkpt>
      <trkpt lat="43.48856" lon="6.59337">
        <ele>23.3</ele>
        <time>2025-02-26T14:56:31Z</time>
      </trkpt>
      <trkpt lat="43.48856" lon="6.59336">
        <ele>23.4</ele>
        <time>2025-02-26T14:56:32Z</time>
      </trkpt>
      <trkpt lat="43.48856" lon="6.59336">
        <ele>23.5</ele>
        <time>2025-02-26T14:56:33Z</time>
      </trkpt>
      <trkpt lat="43.48856" lon="6.59335">
        <ele>23.5</ele>
        <time>2025-02-26T14:56:34Z</time>
      </trkpt>
      <trkpt lat="43.48856" lon="6.59334">
        <ele>23.5</ele>
        <time>2025-02-26T14:56:35Z</time>
      </trkpt>
      <trkpt lat="43.48857" lon="6.59333">
        <ele>23.5</ele>
        <time>2025-02-26T14:56:36Z</time>
      </trkpt>
      <trkpt lat="43.48857" lon="6.59331">
        <ele>23.5</ele>
        <time>2025-02-26T14:56:37Z</time>
      </trkpt>
      <trkpt lat="43.48857" lon="6.5933">
        <ele>23.5</ele>
        <time>2025-02-26T14:56:38Z</time>
      </trkpt>
      <trkpt lat="43.48858" lon="6.59329">
        <ele>23.5</ele>
        <time>2025-02-26T14:56:39Z</time>
      </trkpt>
      <trkpt lat="43.48858" lon="6.59328">
        <ele>23.6</ele>
        <time>2025-02-26T14:56:40Z</time>
      </trkpt>
      <trkpt lat="43.48858" lon="6.59327">
        <ele>23.7</ele>
        <time>2025-02-26T14:56:41Z</time>
      </trkpt>
      <trkpt lat="43.48858" lon="6.59326">
        <ele>23.7</ele>
        <time>2025-02-26T14:56:42Z</time>
      </trkpt>
      <trkpt lat="43.48859" lon="6.59325">
        <ele>23.7</ele>
        <time>2025-02-26T14:56:43Z</time>
      </trkpt>
      <trkpt lat="43.48859" lon="6.59323">
        <ele>23.8</ele>
        <time>2025-02-26T14:56:44Z</time>
      </trkpt>
      <trkpt lat="43.48859" lon="6.59322">
        <ele>23.8</ele>
        <time>2025-02-26T14:56:45Z</time>
      </trkpt>
      <trkpt lat="43.48859" lon="6.59321">
        <ele>23.8</ele>
        <time>2025-02-26T14:56:46Z</time>
      </trkpt>
      <trkpt lat="43.4886" lon="6.5932">
        <ele>23.8</ele>
        <time>2025-02-26T14:56:47Z</time>
      </trkpt>
      <trkpt lat="43.4886" lon="6.59319">
        <ele>23.8</ele>
        <time>2025-02-26T14:56:48Z</time>
      </trkpt>
      <trkpt lat="43.48861" lon="6.59318">
        <ele>23.8</ele>
        <time>2025-02-26T14:56:49Z</time>
      </trkpt>
      <trkpt lat="43.48861" lon="6.59316">
        <ele>23.8</ele>
        <time>2025-02-26T14:56:50Z</time>
      </trkpt>
      <trkpt lat="43.48861" lon="6.59315">
        <ele>23.7</ele>
        <time>2025-02-26T14:56:51Z</time>
      </trkpt>
      <trkpt lat="43.48861" lon="6.59314">
        <ele>23.7</ele>
        <time>2025-02-26T14:56:52Z</time>
      </trkpt>
      <trkpt lat="43.48862" lon="6.59313">
        <ele>23.7</ele>
        <time>2025-02-26T14:56:53Z</time>
      </trkpt>
      <trkpt lat="43.48862" lon="6.59312">
        <ele>23.8</ele>
        <time>2025-02-26T14:56:54Z</time>
      </trkpt>
      <trkpt lat="43.48862" lon="6.5931">
        <ele>23.8</ele>
        <time>2025-02-26T14:56:55Z</time>
      </trkpt>
      <trkpt lat="43.48862" lon="6.59309">
        <ele>23.9</ele>
        <time>2025-02-26T14:56:56Z</time>
      </trkpt>
      <trkpt lat="43.48863" lon="6.59308">
        <ele>23.9</ele>
        <time>2025-02-26T14:56:57Z</time>
      </trkpt>
      <trkpt lat="43.48863" lon="6.59307">
        <ele>24</ele>
        <time>2025-02-26T14:56:58Z</time>
      </trkpt>
      <trkpt lat="43.48863" lon="6.59305">
        <ele>24.1</ele>
        <time>2025-02-26T14:56:59Z</time>
      </trkpt>
      <trkpt lat="43.48863" lon="6.59304">
        <ele>24.1</ele>
        <time>2025-02-26T14:57:00Z</time>
      </trkpt>
      <trkpt lat="43.48863" lon="6.59303">
        <ele>24.2</ele>
        <time>2025-02-26T14:57:01Z</time>
      </trkpt>
      <trkpt lat="43.48864" lon="6.59302">
        <ele>24.2</ele>
        <time>2025-02-26T14:57:02Z</time>
      </trkpt>
      <trkpt lat="43.48864" lon="6.59301">
        <ele>24.2</ele>
        <time>2025-02-26T14:57:03Z</time>
      </trkpt>
      <trkpt lat="43.48865" lon="6.59299">
        <ele>24.2</ele>
        <time>2025-02-26T14:57:04Z</time>
      </trkpt>
      <trkpt lat="43.48865" lon="6.59298">
        <ele>24.3</ele>
        <time>2025-02-26T14:57:05Z</time>
      </trkpt>
      <trkpt lat="43.48866" lon="6.59296">
        <ele>24.3</ele>
        <time>2025-02-26T14:57:06Z</time>
      </trkpt>
      <trkpt lat="43.48866" lon="6.59295">
        <ele>24.4</ele>
        <time>2025-02-26T14:57:07Z</time>
      </trkpt>
      <trkpt lat="43.48866" lon="6.59294">
        <ele>24.3</ele>
        <time>2025-02-26T14:57:08Z</time>
      </trkpt>
      <trkpt lat="43.48867" lon="6.59293">
        <ele>24.4</ele>
        <time>2025-02-26T14:57:09Z</time>
      </trkpt>
      <trkpt lat="43.48868" lon="6.59292">
        <ele>24.5</ele>
        <time>2025-02-26T14:57:10Z</time>
      </trkpt>
      <trkpt lat="43.48868" lon="6.59291">
        <ele>24.6</ele>
        <time>2025-02-26T14:57:11Z</time>
      </trkpt>
      <trkpt lat="43.48869" lon="6.5929">
        <ele>24.6</ele>
        <time>2025-02-26T14:57:12Z</time>
      </trkpt>
      <trkpt lat="43.4887" lon="6.59288">
        <ele>24.6</ele>
        <time>2025-02-26T14:57:13Z</time>
      </trkpt>
      <trkpt lat="43.4887" lon="6.59287">
        <ele>24.7</ele>
        <time>2025-02-26T14:57:14Z</time>
      </trkpt>
      <trkpt lat="43.48871" lon="6.59286">
        <ele>24.7</ele>
        <time>2025-02-26T14:57:15Z</time>
      </trkpt>
      <trkpt lat="43.48871" lon="6.59284">
        <ele>24.8</ele>
        <time>2025-02-26T14:57:16Z</time>
      </trkpt>
      <trkpt lat="43.48872" lon="6.59283">
        <ele>24.9</ele>
        <time>2025-02-26T14:57:17Z</time>
      </trkpt>
      <trkpt lat="43.48873" lon="6.59282">
        <ele>25</ele>
        <time>2025-02-26T14:57:18Z</time>
      </trkpt>
      <trkpt lat="43.48874" lon="6.5928">
        <ele>25</ele>
        <time>2025-02-26T14:57:19Z</time>
      </trkpt>
      <trkpt lat="43.48875" lon="6.59279">
        <ele>25</ele>
        <time>2025-02-26T14:57:20Z</time>
      </trkpt>
      <trkpt lat="43.48875" lon="6.59277">
        <ele>25</ele>
        <time>2025-02-26T14:57:21Z</time>
      </trkpt>
      <trkpt lat="43.48876" lon="6.59276">
        <ele>25</ele>
        <time>2025-02-26T14:57:22Z</time>
      </trkpt>
      <trkpt lat="43.48877" lon="6.59275">
        <ele>25</ele>
        <time>2025-02-26T14:57:23Z</time>
      </trkpt>
      <trkpt lat="43.48877" lon="6.59274">
        <ele>25.1</ele>
        <time>2025-02-26T14:57:24Z</time>
      </trkpt>
      <trkpt lat="43.48877" lon="6.59273">
        <ele>25.1</ele>
        <time>2025-02-26T14:57:25Z</time>
      </trkpt>
      <trkpt lat="43.48878" lon="6.59271">
        <ele>25.1</ele>
        <time>2025-02-26T14:57:26Z</time>
      </trkpt>
      <trkpt lat="43.48879" lon="6.5927">
        <ele>25.2</ele>
        <time>2025-02-26T14:57:27Z</time>
      </trkpt>
      <trkpt lat="43.48879" lon="6.59269">
        <ele>25.2</ele>
        <time>2025-02-26T14:57:28Z</time>
      </trkpt>
      <trkpt lat="43.48879" lon="6.59267">
        <ele>25.2</ele>
        <time>2025-02-26T14:57:29Z</time>
      </trkpt>
      <trkpt lat="43.4888" lon="6.59266">
        <ele>25.3</ele>
        <time>2025-02-26T14:57:30Z</time>
      </trkpt>
      <trkpt lat="43.48881" lon="6.59265">
        <ele>25.3</ele>
        <time>2025-02-26T14:57:31Z</time>
      </trkpt>
      <trkpt lat="43.48881" lon="6.59264">
        <ele>25.3</ele>
        <time>2025-02-26T14:57:32Z</time>
      </trkpt>
      <trkpt lat="43.48882" lon="6.59262">
        <ele>25.4</ele>
        <time>2025-02-26T14:57:33Z</time>
      </trkpt>
      <trkpt lat="43.48883" lon="6.59261">
        <ele>25.4</ele>
        <time>2025-02-26T14:57:34Z</time>
      </trkpt>
      <trkpt lat="43.48883" lon="6.5926">
        <ele>25.5</ele>
        <time>2025-02-26T14:57:35Z</time>
      </trkpt>
      <trkpt lat="43.48883" lon="6.59259">
        <ele>25.5</ele>
        <time>2025-02-26T14:57:36Z</time>
      </trkpt>
      <trkpt lat="43.48884" lon="6.59257">
        <ele>25.5</ele>
        <time>2025-02-26T14:57:37Z</time>
      </trkpt>
      <trkpt lat="43.48884" lon="6.59256">
        <ele>25.6</ele>
        <time>2025-02-26T14:57:38Z</time>
      </trkpt>
      <trkpt lat="43.48885" lon="6.59255">
        <ele>25.6</ele>
        <time>2025-02-26T14:57:39Z</time>
      </trkpt>
      <trkpt lat="43.48885" lon="6.59253">
        <ele>25.7</ele>
        <time>2025-02-26T14:57:40Z</time>
      </trkpt>
      <trkpt lat="43.48886" lon="6.59252">
        <ele>25.7</ele>
        <time>2025-02-26T14:57:41Z</time>
      </trkpt>
      <trkpt lat="43.48887" lon="6.5925">
        <ele>25.6</ele>
        <time>2025-02-26T14:57:42Z</time>
      </trkpt>
      <trkpt lat="43.48887" lon="6.59249">
        <ele>25.6</ele>
        <time>2025-02-26T14:57:43Z</time>
      </trkpt>
      <trkpt lat="43.48887" lon="6.59247">
        <ele>25.6</ele>
        <time>2025-02-26T14:57:44Z</time>
      </trkpt>
      <trkpt lat="43.48888" lon="6.59246">
        <ele>25.7</ele>
        <time>2025-02-26T14:57:45Z</time>
      </trkpt>
      <trkpt lat="43.48889" lon="6.59245">
        <ele>25.8</ele>
        <time>2025-02-26T14:57:46Z</time>
      </trkpt>
      <trkpt lat="43.4889" lon="6.59243">
        <ele>25.8</ele>
        <time>2025-02-26T14:57:47Z</time>
      </trkpt>
      <trkpt lat="43.48891" lon="6.59242">
        <ele>25.8</ele>
        <time>2025-02-26T14:57:48Z</time>
      </trkpt>
      <trkpt lat="43.48891" lon="6.5924">
        <ele>25.8</ele>
        <time>2025-02-26T14:57:49Z</time>
      </trkpt>
      <trkpt lat="43.48892" lon="6.59239">
        <ele>25.9</ele>
        <time>2025-02-26T14:57:50Z</time>
      </trkpt>
      <trkpt lat="43.48893" lon="6.59238">
        <ele>25.9</ele>
        <time>2025-02-26T14:57:51Z</time>
      </trkpt>
      <trkpt lat="43.48894" lon="6.59237">
        <ele>25.9</ele>
        <time>2025-02-26T14:57:52Z</time>
      </trkpt>
      <trkpt lat="43.48895" lon="6.59235">
        <ele>25.9</ele>
        <time>2025-02-26T14:57:53Z</time>
      </trkpt>
      <trkpt lat="43.48895" lon="6.59234">
        <ele>25.8</ele>
        <time>2025-02-26T14:57:54Z</time>
      </trkpt>
      <trkpt lat="43.48896" lon="6.59233">
        <ele>25.8</ele>
        <time>2025-02-26T14:57:55Z</time>
      </trkpt>
      <trkpt lat="43.48896" lon="6.59232">
        <ele>25.7</ele>
        <time>2025-02-26T14:57:56Z</time>
      </trkpt>
      <trkpt lat="43.48897" lon="6.59231">
        <ele>25.8</ele>
        <time>2025-02-26T14:57:57Z</time>
      </trkpt>
      <trkpt lat="43.48897" lon="6.59229">
        <ele>25.8</ele>
        <time>2025-02-26T14:57:58Z</time>
      </trkpt>
      <trkpt lat="43.48898" lon="6.59228">
        <ele>25.9</ele>
        <time>2025-02-26T14:57:59Z</time>
      </trkpt>
      <trkpt lat="43.48899" lon="6.59227">
        <ele>25.9</ele>
        <time>2025-02-26T14:58:00Z</time>
      </trkpt>
      <trkpt lat="43.489" lon="6.59226">
        <ele>25.9</ele>
        <time>2025-02-26T14:58:01Z</time>
      </trkpt>
      <trkpt lat="43.489" lon="6.59224">
        <ele>25.9</ele>
        <time>2025-02-26T14:58:02Z</time>
      </trkpt>
      <trkpt lat="43.48901" lon="6.59223">
        <ele>25.9</ele>
        <time>2025-02-26T14:58:03Z</time>
      </trkpt>
      <trkpt lat="43.48901" lon="6.59221">
        <ele>25.9</ele>
        <time>2025-02-26T14:58:04Z</time>
      </trkpt>
      <trkpt lat="43.48902" lon="6.5922">
        <ele>25.9</ele>
        <time>2025-02-26T14:58:05Z</time>
      </trkpt>
      <trkpt lat="43.48902" lon="6.59218">
        <ele>26</ele>
        <time>2025-02-26T14:58:06Z</time>
      </trkpt>
      <trkpt lat="43.48903" lon="6.59216">
        <ele>26</ele>
        <time>2025-02-26T14:58:07Z</time>
      </trkpt>
      <trkpt lat="43.48904" lon="6.59215">
        <ele>26</ele>
        <time>2025-02-26T14:58:08Z</time>
      </trkpt>
      <trkpt lat="43.48904" lon="6.59214">
        <ele>26</ele>
        <time>2025-02-26T14:58:09Z</time>
      </trkpt>
      <trkpt lat="43.48904" lon="6.59213">
        <ele>25.9</ele>
        <time>2025-02-26T14:58:10Z</time>
      </trkpt>
      <trkpt lat="43.48905" lon="6.59211">
        <ele>25.9</ele>
        <time>2025-02-26T14:58:11Z</time>
      </trkpt>
      <trkpt lat="43.48905" lon="6.59209">
        <ele>25.9</ele>
        <time>2025-02-26T14:58:12Z</time>
      </trkpt>
      <trkpt lat="43.48905" lon="6.59208">
        <ele>25.9</ele>
        <time>2025-02-26T14:58:13Z</time>
      </trkpt>
      <trkpt lat="43.48904" lon="6.59206">
        <ele>26</ele>
        <time>2025-02-26T14:58:14Z</time>
      </trkpt>
      <trkpt lat="43.48904" lon="6.59205">
        <ele>25.9</ele>
        <time>2025-02-26T14:58:15Z</time>
      </trkpt>
      <trkpt lat="43.48903" lon="6.59203">
        <ele>25.8</ele>
        <time>2025-02-26T14:58:16Z</time>
      </trkpt>
      <trkpt lat="43.48903" lon="6.59202">
        <ele>25.8</ele>
        <time>2025-02-26T14:58:17Z</time>
      </trkpt>
      <trkpt lat="43.48903" lon="6.59201">
        <ele>25.7</ele>
        <time>2025-02-26T14:58:18Z</time>
      </trkpt>
      <trkpt lat="43.48903" lon="6.59199">
        <ele>25.6</ele>
        <time>2025-02-26T14:58:19Z</time>
      </trkpt>
      <trkpt lat="43.48902" lon="6.59197">
        <ele>25.6</ele>
        <time>2025-02-26T14:58:20Z</time>
      </trkpt>
      <trkpt lat="43.48901" lon="6.59196">
        <ele>25.7</ele>
        <time>2025-02-26T14:58:21Z</time>
      </trkpt>
      <trkpt lat="43.489" lon="6.59194">
        <ele>25.7</ele>
        <time>2025-02-26T14:58:22Z</time>
      </trkpt>
      <trkpt lat="43.489" lon="6.59193">
        <ele>25.7</ele>
        <time>2025-02-26T14:58:23Z</time>
      </trkpt>
      <trkpt lat="43.48899" lon="6.59192">
        <ele>25.7</ele>
        <time>2025-02-26T14:58:24Z</time>
      </trkpt>
      <trkpt lat="43.48898" lon="6.59191">
        <ele>25.7</ele>
        <time>2025-02-26T14:58:25Z</time>
      </trkpt>
      <trkpt lat="43.48897" lon="6.5919">
        <ele>25.8</ele>
        <time>2025-02-26T14:58:26Z</time>
      </trkpt>
      <trkpt lat="43.48896" lon="6.59189">
        <ele>25.8</ele>
        <time>2025-02-26T14:58:27Z</time>
      </trkpt>
      <trkpt lat="43.48895" lon="6.59188">
        <ele>25.8</ele>
        <time>2025-02-26T14:58:28Z</time>
      </trkpt>
      <trkpt lat="43.48893" lon="6.59187">
        <ele>25.7</ele>
        <time>2025-02-26T14:58:29Z</time>
      </trkpt>
      <trkpt lat="43.48892" lon="6.59186">
        <ele>25.7</ele>
        <time>2025-02-26T14:58:30Z</time>
      </trkpt>
      <trkpt lat="43.48891" lon="6.59186">
        <ele>25.7</ele>
        <time>2025-02-26T14:58:31Z</time>
      </trkpt>
      <trkpt lat="43.4889" lon="6.59186">
        <ele>25.5</ele>
        <time>2025-02-26T14:58:32Z</time>
      </trkpt>
      <trkpt lat="43.48889" lon="6.59185">
        <ele>25.5</ele>
        <time>2025-02-26T14:58:33Z</time>
      </trkpt>
      <trkpt lat="43.48888" lon="6.59185">
        <ele>25.5</ele>
        <time>2025-02-26T14:58:34Z</time>
      </trkpt>
      <trkpt lat="43.48887" lon="6.59185">
        <ele>25.5</ele>
        <time>2025-02-26T14:58:35Z</time>
      </trkpt>
      <trkpt lat="43.48885" lon="6.59184">
        <ele>25.5</ele>
        <time>2025-02-26T14:58:36Z</time>
      </trkpt>
      <trkpt lat="43.48884" lon="6.59184">
        <ele>25.5</ele>
        <time>2025-02-26T14:58:37Z</time>
      </trkpt>
      <trkpt lat="43.48883" lon="6.59183">
        <ele>25.5</ele>
        <time>2025-02-26T14:58:38Z</time>
      </trkpt>
      <trkpt lat="43.48882" lon="6.59183">
        <ele>25.5</ele>
        <time>2025-02-26T14:58:39Z</time>
      </trkpt>
      <trkpt lat="43.48881" lon="6.59183">
        <ele>25.5</ele>
        <time>2025-02-26T14:58:40Z</time>
      </trkpt>
      <trkpt lat="43.4888" lon="6.59183">
        <ele>25.6</ele>
        <time>2025-02-26T14:58:41Z</time>
      </trkpt>
      <trkpt lat="43.48878" lon="6.59182">
        <ele>25.7</ele>
        <time>2025-02-26T14:58:42Z</time>
      </trkpt>
      <trkpt lat="43.48877" lon="6.59182">
        <ele>25.8</ele>
        <time>2025-02-26T14:58:43Z</time>
      </trkpt>
      <trkpt lat="43.48876" lon="6.59182">
        <ele>25.8</ele>
        <time>2025-02-26T14:58:44Z</time>
      </trkpt>
      <trkpt lat="43.48875" lon="6.59181">
        <ele>26.1</ele>
        <time>2025-02-26T14:58:45Z</time>
      </trkpt>
      <trkpt lat="43.48874" lon="6.59181">
        <ele>26.1</ele>
        <time>2025-02-26T14:58:46Z</time>
      </trkpt>
      <trkpt lat="43.48873" lon="6.59181">
        <ele>26.1</ele>
        <time>2025-02-26T14:58:47Z</time>
      </trkpt>
      <trkpt lat="43.48872" lon="6.59181">
        <ele>26.1</ele>
        <time>2025-02-26T14:58:48Z</time>
      </trkpt>
      <trkpt lat="43.48871" lon="6.59181">
        <ele>26.2</ele>
        <time>2025-02-26T14:58:49Z</time>
      </trkpt>
      <trkpt lat="43.48869" lon="6.5918">
        <ele>26.2</ele>
        <time>2025-02-26T14:58:50Z</time>
      </trkpt>
      <trkpt lat="43.48868" lon="6.5918">
        <ele>26.2</ele>
        <time>2025-02-26T14:58:51Z</time>
      </trkpt>
      <trkpt lat="43.48867" lon="6.5918">
        <ele>26.3</ele>
        <time>2025-02-26T14:58:52Z</time>
      </trkpt>
      <trkpt lat="43.48866" lon="6.5918">
        <ele>26.3</ele>
        <time>2025-02-26T14:58:53Z</time>
      </trkpt>
      <trkpt lat="43.48865" lon="6.5918">
        <ele>26.3</ele>
        <time>2025-02-26T14:58:54Z</time>
      </trkpt>
      <trkpt lat="43.48864" lon="6.5918">
        <ele>26.3</ele>
        <time>2025-02-26T14:58:55Z</time>
      </trkpt>
      <trkpt lat="43.48862" lon="6.5918">
        <ele>26.3</ele>
        <time>2025-02-26T14:58:56Z</time>
      </trkpt>
      <trkpt lat="43.48861" lon="6.59179">
        <ele>26.3</ele>
        <time>2025-02-26T14:58:57Z</time>
      </trkpt>
      <trkpt lat="43.4886" lon="6.5918">
        <ele>26.3</ele>
        <time>2025-02-26T14:58:58Z</time>
      </trkpt>
      <trkpt lat="43.48859" lon="6.5918">
        <ele>26.3</ele>
        <time>2025-02-26T14:58:59Z</time>
      </trkpt>
      <trkpt lat="43.48858" lon="6.5918">
        <ele>26.3</ele>
        <time>2025-02-26T14:59:00Z</time>
      </trkpt>
      <trkpt lat="43.48856" lon="6.59179">
        <ele>26.3</ele>
        <time>2025-02-26T14:59:01Z</time>
      </trkpt>
      <trkpt lat="43.48855" lon="6.59179">
        <ele>26.4</ele>
        <time>2025-02-26T14:59:02Z</time>
      </trkpt>
      <trkpt lat="43.48853" lon="6.5918">
        <ele>26.4</ele>
        <time>2025-02-26T14:59:03Z</time>
      </trkpt>
      <trkpt lat="43.48852" lon="6.5918">
        <ele>26.4</ele>
        <time>2025-02-26T14:59:04Z</time>
      </trkpt>
      <trkpt lat="43.48851" lon="6.5918">
        <ele>26.4</ele>
        <time>2025-02-26T14:59:05Z</time>
      </trkpt>
      <trkpt lat="43.4885" lon="6.5918">
        <ele>26.2</ele>
        <time>2025-02-26T14:59:06Z</time>
      </trkpt>
      <trkpt lat="43.48849" lon="6.59181">
        <ele>26.1</ele>
        <time>2025-02-26T14:59:07Z</time>
      </trkpt>
      <trkpt lat="43.48848" lon="6.59181">
        <ele>26.2</ele>
        <time>2025-02-26T14:59:08Z</time>
      </trkpt>
      <trkpt lat="43.48847" lon="6.59181">
        <ele>26.2</ele>
        <time>2025-02-26T14:59:09Z</time>
      </trkpt>
      <trkpt lat="43.48845" lon="6.59181">
        <ele>26.1</ele>
        <time>2025-02-26T14:59:10Z</time>
      </trkpt>
      <trkpt lat="43.48844" lon="6.59181">
        <ele>26.2</ele>
        <time>2025-02-26T14:59:11Z</time>
      </trkpt>
      <trkpt lat="43.48843" lon="6.59182">
        <ele>26.1</ele>
        <time>2025-02-26T14:59:12Z</time>
      </trkpt>
      <trkpt lat="43.48842" lon="6.59182">
        <ele>26</ele>
        <time>2025-02-26T14:59:13Z</time>
      </trkpt>
      <trkpt lat="43.4884" lon="6.59182">
        <ele>26</ele>
        <time>2025-02-26T14:59:14Z</time>
      </trkpt>
      <trkpt lat="43.48839" lon="6.59182">
        <ele>25.9</ele>
        <time>2025-02-26T14:59:15Z</time>
      </trkpt>
      <trkpt lat="43.48837" lon="6.59183">
        <ele>25.8</ele>
        <time>2025-02-26T14:59:16Z</time>
      </trkpt>
      <trkpt lat="43.48836" lon="6.59183">
        <ele>25.8</ele>
        <time>2025-02-26T14:59:17Z</time>
      </trkpt>
      <trkpt lat="43.48834" lon="6.59183">
        <ele>25.8</ele>
        <time>2025-02-26T14:59:18Z</time>
      </trkpt>
      <trkpt lat="43.48833" lon="6.59183">
        <ele>25.7</ele>
        <time>2025-02-26T14:59:19Z</time>
      </trkpt>
      <trkpt lat="43.48832" lon="6.59183">
        <ele>25.7</ele>
        <time>2025-02-26T14:59:20Z</time>
      </trkpt>
      <trkpt lat="43.4883" lon="6.59182">
        <ele>25.6</ele>
        <time>2025-02-26T14:59:21Z</time>
      </trkpt>
      <trkpt lat="43.48829" lon="6.59183">
        <ele>25.6</ele>
        <time>2025-02-26T14:59:22Z</time>
      </trkpt>
      <trkpt lat="43.48828" lon="6.59183">
        <ele>25.5</ele>
        <time>2025-02-26T14:59:23Z</time>
      </trkpt>
      <trkpt lat="43.48827" lon="6.59183">
        <ele>25.5</ele>
        <time>2025-02-26T14:59:24Z</time>
      </trkpt>
      <trkpt lat="43.48825" lon="6.59182">
        <ele>25.5</ele>
        <time>2025-02-26T14:59:25Z</time>
      </trkpt>
      <trkpt lat="43.48824" lon="6.59183">
        <ele>25.6</ele>
        <time>2025-02-26T14:59:26Z</time>
      </trkpt>
      <trkpt lat="43.48823" lon="6.59183">
        <ele>25.6</ele>
        <time>2025-02-26T14:59:27Z</time>
      </trkpt>
      <trkpt lat="43.48822" lon="6.59183">
        <ele>25.6</ele>
        <time>2025-02-26T14:59:28Z</time>
      </trkpt>
      <trkpt lat="43.48821" lon="6.59184">
        <ele>25.6</ele>
        <time>2025-02-26T14:59:29Z</time>
      </trkpt>
      <trkpt lat="43.4882" lon="6.59184">
        <ele>25.5</ele>
        <time>2025-02-26T14:59:30Z</time>
      </trkpt>
      <trkpt lat="43.48819" lon="6.59184">
        <ele>25.3</ele>
        <time>2025-02-26T14:59:31Z</time>
      </trkpt>
      <trkpt lat="43.48818" lon="6.59184">
        <ele>25.2</ele>
        <time>2025-02-26T14:59:32Z</time>
      </trkpt>
      <trkpt lat="43.48817" lon="6.59185">
        <ele>25.2</ele>
        <time>2025-02-26T14:59:33Z</time>
      </trkpt>
      <trkpt lat="43.48815" lon="6.59185">
        <ele>25.1</ele>
        <time>2025-02-26T14:59:34Z</time>
      </trkpt>
      <trkpt lat="43.48814" lon="6.59185">
        <ele>25.1</ele>
        <time>2025-02-26T14:59:35Z</time>
      </trkpt>
      <trkpt lat="43.48813" lon="6.59185">
        <ele>25</ele>
        <time>2025-02-26T14:59:36Z</time>
      </trkpt>
      <trkpt lat="43.48811" lon="6.59185">
        <ele>24.9</ele>
        <time>2025-02-26T14:59:37Z</time>
      </trkpt>
      <trkpt lat="43.4881" lon="6.59185">
        <ele>25</ele>
        <time>2025-02-26T14:59:38Z</time>
      </trkpt>
      <trkpt lat="43.48809" lon="6.59185">
        <ele>25.1</ele>
        <time>2025-02-26T14:59:39Z</time>
      </trkpt>
      <trkpt lat="43.48807" lon="6.59186">
        <ele>24.9</ele>
        <time>2025-02-26T14:59:40Z</time>
      </trkpt>
      <trkpt lat="43.48806" lon="6.59186">
        <ele>24.8</ele>
        <time>2025-02-26T14:59:41Z</time>
      </trkpt>
      <trkpt lat="43.48804" lon="6.59187">
        <ele>25</ele>
        <time>2025-02-26T14:59:42Z</time>
      </trkpt>
      <trkpt lat="43.48803" lon="6.59187">
        <ele>25</ele>
        <time>2025-02-26T14:59:43Z</time>
      </trkpt>
      <trkpt lat="43.48802" lon="6.59187">
        <ele>25.2</ele>
        <time>2025-02-26T14:59:44Z</time>
      </trkpt>
      <trkpt lat="43.48801" lon="6.59188">
        <ele>25.2</ele>
        <time>2025-02-26T14:59:45Z</time>
      </trkpt>
      <trkpt lat="43.488" lon="6.59188">
        <ele>25.2</ele>
        <time>2025-02-26T14:59:46Z</time>
      </trkpt>
      <trkpt lat="43.48798" lon="6.59189">
        <ele>25.1</ele>
        <time>2025-02-26T14:59:47Z</time>
      </trkpt>
      <trkpt lat="43.48797" lon="6.59189">
        <ele>25</ele>
        <time>2025-02-26T14:59:48Z</time>
      </trkpt>
      <trkpt lat="43.48795" lon="6.5919">
        <ele>24.9</ele>
        <time>2025-02-26T14:59:49Z</time>
      </trkpt>
      <trkpt lat="43.48794" lon="6.5919">
        <ele>25</ele>
        <time>2025-02-26T14:59:50Z</time>
      </trkpt>
      <trkpt lat="43.48793" lon="6.5919">
        <ele>24.8</ele>
        <time>2025-02-26T14:59:51Z</time>
      </trkpt>
      <trkpt lat="43.48792" lon="6.59191">
        <ele>24.7</ele>
        <time>2025-02-26T14:59:52Z</time>
      </trkpt>
      <trkpt lat="43.48791" lon="6.59191">
        <ele>24.8</ele>
        <time>2025-02-26T14:59:53Z</time>
      </trkpt>
      <trkpt lat="43.48789" lon="6.59192">
        <ele>24.8</ele>
        <time>2025-02-26T14:59:54Z</time>
      </trkpt>
      <trkpt lat="43.48788" lon="6.59193">
        <ele>24.8</ele>
        <time>2025-02-26T14:59:55Z</time>
      </trkpt>
      <trkpt lat="43.48787" lon="6.59194">
        <ele>24.8</ele>
        <time>2025-02-26T14:59:56Z</time>
      </trkpt>
      <trkpt lat="43.48787" lon="6.59194">
        <ele>24.8</ele>
        <time>2025-02-26T14:59:57Z</time>
      </trkpt>
      <trkpt lat="43.48786" lon="6.59194">
        <ele>24.8</ele>
        <time>2025-02-26T14:59:58Z</time>
      </trkpt>
      <trkpt lat="43.48785" lon="6.59194">
        <ele>24.8</ele>
        <time>2025-02-26T14:59:59Z</time>
      </trkpt>
      <trkpt lat="43.48783" lon="6.59194">
        <ele>24.8</ele>
        <time>2025-02-26T15:00:00Z</time>
      </trkpt>
      <trkpt lat="43.48782" lon="6.59195">
        <ele>24.7</ele>
        <time>2025-02-26T15:00:01Z</time>
      </trkpt>
      <trkpt lat="43.48781" lon="6.59195">
        <ele>24.7</ele>
        <time>2025-02-26T15:00:02Z</time>
      </trkpt>
      <trkpt lat="43.48779" lon="6.59195">
        <ele>24.8</ele>
        <time>2025-02-26T15:00:03Z</time>
      </trkpt>
      <trkpt lat="43.48778" lon="6.59196">
        <ele>24.8</ele>
        <time>2025-02-26T15:00:04Z</time>
      </trkpt>
      <trkpt lat="43.48777" lon="6.59196">
        <ele>24.7</ele>
        <time>2025-02-26T15:00:05Z</time>
      </trkpt>
      <trkpt lat="43.48776" lon="6.59197">
        <ele>24.7</ele>
        <time>2025-02-26T15:00:06Z</time>
      </trkpt>
      <trkpt lat="43.48775" lon="6.59197">
        <ele>24.7</ele>
        <time>2025-02-26T15:00:07Z</time>
      </trkpt>
      <trkpt lat="43.48774" lon="6.59198">
        <ele>24.8</ele>
        <time>2025-02-26T15:00:08Z</time>
      </trkpt>
      <trkpt lat="43.48773" lon="6.59198">
        <ele>24.6</ele>
        <time>2025-02-26T15:00:09Z</time>
      </trkpt>
      <trkpt lat="43.48771" lon="6.59199">
        <ele>24.6</ele>
        <time>2025-02-26T15:00:10Z</time>
      </trkpt>
      <trkpt lat="43.4877" lon="6.59199">
        <ele>24.5</ele>
        <time>2025-02-26T15:00:11Z</time>
      </trkpt>
      <trkpt lat="43.48769" lon="6.592">
        <ele>24.5</ele>
        <time>2025-02-26T15:00:12Z</time>
      </trkpt>
      <trkpt lat="43.48768" lon="6.592">
        <ele>24.6</ele>
        <time>2025-02-26T15:00:13Z</time>
      </trkpt>
      <trkpt lat="43.48767" lon="6.59202">
        <ele>24.6</ele>
        <time>2025-02-26T15:00:14Z</time>
      </trkpt>
      <trkpt lat="43.48766" lon="6.59203">
        <ele>24.5</ele>
        <time>2025-02-26T15:00:15Z</time>
      </trkpt>
      <trkpt lat="43.48765" lon="6.59203">
        <ele>24.5</ele>
        <time>2025-02-26T15:00:16Z</time>
      </trkpt>
      <trkpt lat="43.48764" lon="6.59203">
        <ele>24.6</ele>
        <time>2025-02-26T15:00:17Z</time>
      </trkpt>
      <trkpt lat="43.48763" lon="6.59204">
        <ele>24.5</ele>
        <time>2025-02-26T15:00:18Z</time>
      </trkpt>
      <trkpt lat="43.48762" lon="6.59205">
        <ele>24.4</ele>
        <time>2025-02-26T15:00:19Z</time>
      </trkpt>
      <trkpt lat="43.48761" lon="6.59205">
        <ele>24.4</ele>
        <time>2025-02-26T15:00:20Z</time>
      </trkpt>
      <trkpt lat="43.4876" lon="6.59205">
        <ele>24.3</ele>
        <time>2025-02-26T15:00:21Z</time>
      </trkpt>
      <trkpt lat="43.48758" lon="6.59206">
        <ele>24.3</ele>
        <time>2025-02-26T15:00:22Z</time>
      </trkpt>
      <trkpt lat="43.48757" lon="6.59207">
        <ele>24.3</ele>
        <time>2025-02-26T15:00:23Z</time>
      </trkpt>
      <trkpt lat="43.48756" lon="6.59207">
        <ele>24.3</ele>
        <time>2025-02-26T15:00:24Z</time>
      </trkpt>
      <trkpt lat="43.48755" lon="6.59208">
        <ele>24.3</ele>
        <time>2025-02-26T15:00:25Z</time>
      </trkpt>
      <trkpt lat="43.48754" lon="6.59208">
        <ele>24.3</ele>
        <time>2025-02-26T15:00:26Z</time>
      </trkpt>
      <trkpt lat="43.48753" lon="6.59209">
        <ele>24.3</ele>
        <time>2025-02-26T15:00:27Z</time>
      </trkpt>
      <trkpt lat="43.48752" lon="6.59209">
        <ele>24.3</ele>
        <time>2025-02-26T15:00:28Z</time>
      </trkpt>
      <trkpt lat="43.48751" lon="6.5921">
        <ele>24.2</ele>
        <time>2025-02-26T15:00:29Z</time>
      </trkpt>
      <trkpt lat="43.4875" lon="6.59211">
        <ele>24.1</ele>
        <time>2025-02-26T15:00:30Z</time>
      </trkpt>
      <trkpt lat="43.48749" lon="6.59212">
        <ele>24.1</ele>
        <time>2025-02-26T15:00:31Z</time>
      </trkpt>
      <trkpt lat="43.48747" lon="6.59212">
        <ele>24.1</ele>
        <time>2025-02-26T15:00:32Z</time>
      </trkpt>
      <trkpt lat="43.48746" lon="6.59212">
        <ele>24.2</ele>
        <time>2025-02-26T15:00:33Z</time>
      </trkpt>
      <trkpt lat="43.48745" lon="6.59213">
        <ele>24.2</ele>
        <time>2025-02-26T15:00:34Z</time>
      </trkpt>
      <trkpt lat="43.48744" lon="6.59213">
        <ele>24.3</ele>
        <time>2025-02-26T15:00:35Z</time>
      </trkpt>
      <trkpt lat="43.48743" lon="6.59214">
        <ele>24.3</ele>
        <time>2025-02-26T15:00:36Z</time>
      </trkpt>
      <trkpt lat="43.48741" lon="6.59214">
        <ele>24.4</ele>
        <time>2025-02-26T15:00:37Z</time>
      </trkpt>
      <trkpt lat="43.4874" lon="6.59215">
        <ele>24.4</ele>
        <time>2025-02-26T15:00:38Z</time>
      </trkpt>
      <trkpt lat="43.48739" lon="6.59215">
        <ele>24.4</ele>
        <time>2025-02-26T15:00:39Z</time>
      </trkpt>
      <trkpt lat="43.48738" lon="6.59216">
        <ele>24.5</ele>
        <time>2025-02-26T15:00:40Z</time>
      </trkpt>
      <trkpt lat="43.48737" lon="6.59216">
        <ele>24.4</ele>
        <time>2025-02-26T15:00:41Z</time>
      </trkpt>
      <trkpt lat="43.48736" lon="6.59216">
        <ele>24.4</ele>
        <time>2025-02-26T15:00:42Z</time>
      </trkpt>
      <trkpt lat="43.48735" lon="6.59217">
        <ele>24.5</ele>
        <time>2025-02-26T15:00:43Z</time>
      </trkpt>
      <trkpt lat="43.48733" lon="6.59217">
        <ele>24.5</ele>
        <time>2025-02-26T15:00:44Z</time>
      </trkpt>
      <trkpt lat="43.48732" lon="6.59217">
        <ele>24.5</ele>
        <time>2025-02-26T15:00:45Z</time>
      </trkpt>
      <trkpt lat="43.48731" lon="6.59217">
        <ele>24.5</ele>
        <time>2025-02-26T15:00:46Z</time>
      </trkpt>
      <trkpt lat="43.48729" lon="6.59218">
        <ele>24.4</ele>
        <time>2025-02-26T15:00:47Z</time>
      </trkpt>
      <trkpt lat="43.48728" lon="6.59218">
        <ele>24.3</ele>
        <time>2025-02-26T15:00:48Z</time>
      </trkpt>
      <trkpt lat="43.48727" lon="6.59219">
        <ele>24.3</ele>
        <time>2025-02-26T15:00:49Z</time>
      </trkpt>
      <trkpt lat="43.48726" lon="6.5922">
        <ele>24.3</ele>
        <time>2025-02-26T15:00:50Z</time>
      </trkpt>
      <trkpt lat="43.48725" lon="6.5922">
        <ele>24.3</ele>
        <time>2025-02-26T15:00:51Z</time>
      </trkpt>
      <trkpt lat="43.48724" lon="6.5922">
        <ele>24.3</ele>
        <time>2025-02-26T15:00:52Z</time>
      </trkpt>
      <trkpt lat="43.48723" lon="6.59221">
        <ele>24.4</ele>
        <time>2025-02-26T15:00:53Z</time>
      </trkpt>
      <trkpt lat="43.48722" lon="6.59221">
        <ele>24.3</ele>
        <time>2025-02-26T15:00:54Z</time>
      </trkpt>
      <trkpt lat="43.4872" lon="6.59221">
        <ele>24.3</ele>
        <time>2025-02-26T15:00:55Z</time>
      </trkpt>
      <trkpt lat="43.48719" lon="6.59221">
        <ele>24.2</ele>
        <time>2025-02-26T15:00:56Z</time>
      </trkpt>
      <trkpt lat="43.48718" lon="6.59222">
        <ele>24.4</ele>
        <time>2025-02-26T15:00:57Z</time>
      </trkpt>
      <trkpt lat="43.48717" lon="6.59222">
        <ele>24.4</ele>
        <time>2025-02-26T15:00:58Z</time>
      </trkpt>
      <trkpt lat="43.48716" lon="6.59223">
        <ele>24.4</ele>
        <time>2025-02-26T15:00:59Z</time>
      </trkpt>
      <trkpt lat="43.48715" lon="6.59224">
        <ele>24.5</ele>
        <time>2025-02-26T15:01:00Z</time>
      </trkpt>
      <trkpt lat="43.48714" lon="6.59224">
        <ele>24.5</ele>
        <time>2025-02-26T15:01:01Z</time>
      </trkpt>
      <trkpt lat="43.48713" lon="6.59224">
        <ele>24.5</ele>
        <time>2025-02-26T15:01:02Z</time>
      </trkpt>
      <trkpt lat="43.48712" lon="6.59225">
        <ele>24.5</ele>
        <time>2025-02-26T15:01:03Z</time>
      </trkpt>
      <trkpt lat="43.48711" lon="6.59226">
        <ele>24.4</ele>
        <time>2025-02-26T15:01:04Z</time>
      </trkpt>
      <trkpt lat="43.4871" lon="6.59227">
        <ele>24.5</ele>
        <time>2025-02-26T15:01:05Z</time>
      </trkpt>
      <trkpt lat="43.48709" lon="6.59227">
        <ele>24.6</ele>
        <time>2025-02-26T15:01:06Z</time>
      </trkpt>
      <trkpt lat="43.48707" lon="6.59228">
        <ele>24.7</ele>
        <time>2025-02-26T15:01:07Z</time>
      </trkpt>
      <trkpt lat="43.48706" lon="6.59228">
        <ele>24.7</ele>
        <time>2025-02-26T15:01:08Z</time>
      </trkpt>
      <trkpt lat="43.48705" lon="6.59229">
        <ele>24.7</ele>
        <time>2025-02-26T15:01:09Z</time>
      </trkpt>
      <trkpt lat="43.48704" lon="6.59229">
        <ele>24.8</ele>
        <time>2025-02-26T15:01:10Z</time>
      </trkpt>
      <trkpt lat="43.48703" lon="6.5923">
        <ele>24.8</ele>
        <time>2025-02-26T15:01:11Z</time>
      </trkpt>
      <trkpt lat="43.48702" lon="6.5923">
        <ele>24.7</ele>
        <time>2025-02-26T15:01:12Z</time>
      </trkpt>
      <trkpt lat="43.48701" lon="6.59231">
        <ele>24.8</ele>
        <time>2025-02-26T15:01:13Z</time>
      </trkpt>
      <trkpt lat="43.487" lon="6.59232">
        <ele>24.5</ele>
        <time>2025-02-26T15:01:14Z</time>
      </trkpt>
      <trkpt lat="43.48698" lon="6.59234">
        <ele>24.4</ele>
        <time>2025-02-26T15:01:15Z</time>
      </trkpt>
      <trkpt lat="43.48697" lon="6.59234">
        <ele>24.3</ele>
        <time>2025-02-26T15:01:16Z</time>
      </trkpt>
      <trkpt lat="43.48696" lon="6.59235">
        <ele>24.2</ele>
        <time>2025-02-26T15:01:17Z</time>
      </trkpt>
      <trkpt lat="43.48695" lon="6.59235">
        <ele>24.3</ele>
        <time>2025-02-26T15:01:18Z</time>
      </trkpt>
      <trkpt lat="43.48694" lon="6.59236">
        <ele>24.3</ele>
        <time>2025-02-26T15:01:19Z</time>
      </trkpt>
      <trkpt lat="43.48693" lon="6.59237">
        <ele>24.3</ele>
        <time>2025-02-26T15:01:20Z</time>
      </trkpt>
      <trkpt lat="43.48692" lon="6.59237">
        <ele>24.3</ele>
        <time>2025-02-26T15:01:21Z</time>
      </trkpt>
      <trkpt lat="43.48691" lon="6.59238">
        <ele>24.3</ele>
        <time>2025-02-26T15:01:22Z</time>
      </trkpt>
      <trkpt lat="43.4869" lon="6.59239">
        <ele>24.3</ele>
        <time>2025-02-26T15:01:23Z</time>
      </trkpt>
      <trkpt lat="43.48689" lon="6.5924">
        <ele>24.2</ele>
        <time>2025-02-26T15:01:24Z</time>
      </trkpt>
      <trkpt lat="43.48688" lon="6.59241">
        <ele>24.1</ele>
        <time>2025-02-26T15:01:25Z</time>
      </trkpt>
      <trkpt lat="43.48688" lon="6.59241">
        <ele>24</ele>
        <time>2025-02-26T15:01:26Z</time>
      </trkpt>
      <trkpt lat="43.48686" lon="6.59242">
        <ele>24</ele>
        <time>2025-02-26T15:01:27Z</time>
      </trkpt>
      <trkpt lat="43.48685" lon="6.59243">
        <ele>24.1</ele>
        <time>2025-02-26T15:01:28Z</time>
      </trkpt>
      <trkpt lat="43.48684" lon="6.59243">
        <ele>24.1</ele>
        <time>2025-02-26T15:01:29Z</time>
      </trkpt>
      <trkpt lat="43.48684" lon="6.59244">
        <ele>24.2</ele>
        <time>2025-02-26T15:01:30Z</time>
      </trkpt>
      <trkpt lat="43.48683" lon="6.59245">
        <ele>24.1</ele>
        <time>2025-02-26T15:01:31Z</time>
      </trkpt>
      <trkpt lat="43.48682" lon="6.59246">
        <ele>24.2</ele>
        <time>2025-02-26T15:01:32Z</time>
      </trkpt>
      <trkpt lat="43.48681" lon="6.59247">
        <ele>24.3</ele>
        <time>2025-02-26T15:01:33Z</time>
      </trkpt>
      <trkpt lat="43.4868" lon="6.59248">
        <ele>24.3</ele>
        <time>2025-02-26T15:01:34Z</time>
      </trkpt>
      <trkpt lat="43.48679" lon="6.59249">
        <ele>24.4</ele>
        <time>2025-02-26T15:01:35Z</time>
      </trkpt>
      <trkpt lat="43.48678" lon="6.5925">
        <ele>24.4</ele>
        <time>2025-02-26T15:01:36Z</time>
      </trkpt>
      <trkpt lat="43.48677" lon="6.59251">
        <ele>24.4</ele>
        <time>2025-02-26T15:01:37Z</time>
      </trkpt>
      <trkpt lat="43.48676" lon="6.59251">
        <ele>24.3</ele>
        <time>2025-02-26T15:01:38Z</time>
      </trkpt>
      <trkpt lat="43.48675" lon="6.59252">
        <ele>24.3</ele>
        <time>2025-02-26T15:01:39Z</time>
      </trkpt>
      <trkpt lat="43.48674" lon="6.59253">
        <ele>24.2</ele>
        <time>2025-02-26T15:01:40Z</time>
      </trkpt>
      <trkpt lat="43.48673" lon="6.59253">
        <ele>24.2</ele>
        <time>2025-02-26T15:01:41Z</time>
      </trkpt>
      <trkpt lat="43.48672" lon="6.59254">
        <ele>24.1</ele>
        <time>2025-02-26T15:01:42Z</time>
      </trkpt>
      <trkpt lat="43.48671" lon="6.59255">
        <ele>24.2</ele>
        <time>2025-02-26T15:01:43Z</time>
      </trkpt>
      <trkpt lat="43.4867" lon="6.59256">
        <ele>24</ele>
        <time>2025-02-26T15:01:44Z</time>
      </trkpt>
      <trkpt lat="43.48669" lon="6.59257">
        <ele>24.2</ele>
        <time>2025-02-26T15:01:45Z</time>
      </trkpt>
      <trkpt lat="43.48667" lon="6.59257">
        <ele>24.2</ele>
        <time>2025-02-26T15:01:46Z</time>
      </trkpt>
      <trkpt lat="43.48666" lon="6.59258">
        <ele>24.3</ele>
        <time>2025-02-26T15:01:47Z</time>
      </trkpt>
      <trkpt lat="43.48665" lon="6.59259">
        <ele>24.4</ele>
        <time>2025-02-26T15:01:48Z</time>
      </trkpt>
      <trkpt lat="43.48664" lon="6.59259">
        <ele>24.4</ele>
        <time>2025-02-26T15:01:49Z</time>
      </trkpt>
      <trkpt lat="43.48663" lon="6.5926">
        <ele>24.5</ele>
        <time>2025-02-26T15:01:50Z</time>
      </trkpt>
      <trkpt lat="43.48662" lon="6.59261">
        <ele>24.5</ele>
        <time>2025-02-26T15:01:51Z</time>
      </trkpt>
      <trkpt lat="43.48661" lon="6.59262">
        <ele>24.5</ele>
        <time>2025-02-26T15:01:52Z</time>
      </trkpt>
      <trkpt lat="43.4866" lon="6.59263">
        <ele>24.6</ele>
        <time>2025-02-26T15:01:53Z</time>
      </trkpt>
      <trkpt lat="43.48659" lon="6.59264">
        <ele>24.6</ele>
        <time>2025-02-26T15:01:54Z</time>
      </trkpt>
      <trkpt lat="43.48658" lon="6.59264">
        <ele>24.5</ele>
        <time>2025-02-26T15:01:55Z</time>
      </trkpt>
      <trkpt lat="43.48657" lon="6.59264">
        <ele>24.5</ele>
        <time>2025-02-26T15:01:56Z</time>
      </trkpt>
      <trkpt lat="43.48656" lon="6.59265">
        <ele>24.4</ele>
        <time>2025-02-26T15:01:57Z</time>
      </trkpt>
      <trkpt lat="43.48655" lon="6.59265">
        <ele>24.5</ele>
        <time>2025-02-26T15:01:58Z</time>
      </trkpt>
      <trkpt lat="43.48654" lon="6.59266">
        <ele>24.5</ele>
        <time>2025-02-26T15:01:59Z</time>
      </trkpt>
      <trkpt lat="43.48653" lon="6.59267">
        <ele>24.3</ele>
        <time>2025-02-26T15:02:00Z</time>
      </trkpt>
      <trkpt lat="43.48652" lon="6.59268">
        <ele>24.3</ele>
        <time>2025-02-26T15:02:01Z</time>
      </trkpt>
      <trkpt lat="43.4865" lon="6.59269">
        <ele>24.3</ele>
        <time>2025-02-26T15:02:02Z</time>
      </trkpt>
      <trkpt lat="43.48649" lon="6.59269">
        <ele>24.4</ele>
        <time>2025-02-26T15:02:03Z</time>
      </trkpt>
      <trkpt lat="43.48648" lon="6.5927">
        <ele>24.4</ele>
        <time>2025-02-26T15:02:04Z</time>
      </trkpt>
      <trkpt lat="43.48647" lon="6.59271">
        <ele>24.3</ele>
        <time>2025-02-26T15:02:05Z</time>
      </trkpt>
      <trkpt lat="43.48646" lon="6.59272">
        <ele>24.3</ele>
        <time>2025-02-26T15:02:06Z</time>
      </trkpt>
      <trkpt lat="43.48645" lon="6.59272">
        <ele>24.3</ele>
        <time>2025-02-26T15:02:07Z</time>
      </trkpt>
      <trkpt lat="43.48644" lon="6.59273">
        <ele>24.2</ele>
        <time>2025-02-26T15:02:08Z</time>
      </trkpt>
      <trkpt lat="43.48643" lon="6.59274">
        <ele>24.2</ele>
        <time>2025-02-26T15:02:09Z</time>
      </trkpt>
      <trkpt lat="43.48642" lon="6.59274">
        <ele>24.2</ele>
        <time>2025-02-26T15:02:10Z</time>
      </trkpt>
      <trkpt lat="43.48641" lon="6.59275">
        <ele>24.2</ele>
        <time>2025-02-26T15:02:11Z</time>
      </trkpt>
      <trkpt lat="43.4864" lon="6.59276">
        <ele>24</ele>
        <time>2025-02-26T15:02:12Z</time>
      </trkpt>
      <trkpt lat="43.48639" lon="6.59276">
        <ele>24</ele>
        <time>2025-02-26T15:02:13Z</time>
      </trkpt>
      <trkpt lat="43.48638" lon="6.59277">
        <ele>24</ele>
        <time>2025-02-26T15:02:14Z</time>
      </trkpt>
      <trkpt lat="43.48636" lon="6.59277">
        <ele>24</ele>
        <time>2025-02-26T15:02:15Z</time>
      </trkpt>
      <trkpt lat="43.48635" lon="6.59278">
        <ele>24</ele>
        <time>2025-02-26T15:02:16Z</time>
      </trkpt>
      <trkpt lat="43.48634" lon="6.59278">
        <ele>24</ele>
        <time>2025-02-26T15:02:17Z</time>
      </trkpt>
      <trkpt lat="43.48633" lon="6.59279">
        <ele>24</ele>
        <time>2025-02-26T15:02:18Z</time>
      </trkpt>
      <trkpt lat="43.48631" lon="6.5928">
        <ele>24.2</ele>
        <time>2025-02-26T15:02:19Z</time>
      </trkpt>
      <trkpt lat="43.4863" lon="6.5928">
        <ele>24.2</ele>
        <time>2025-02-26T15:02:20Z</time>
      </trkpt>
      <trkpt lat="43.48629" lon="6.5928">
        <ele>24.3</ele>
        <time>2025-02-26T15:02:21Z</time>
      </trkpt>
      <trkpt lat="43.48628" lon="6.59281">
        <ele>24.4</ele>
        <time>2025-02-26T15:02:22Z</time>
      </trkpt>
      <trkpt lat="43.48627" lon="6.59282">
        <ele>24.4</ele>
        <time>2025-02-26T15:02:23Z</time>
      </trkpt>
      <trkpt lat="43.48626" lon="6.59283">
        <ele>24.5</ele>
        <time>2025-02-26T15:02:24Z</time>
      </trkpt>
      <trkpt lat="43.48625" lon="6.59284">
        <ele>24.5</ele>
        <time>2025-02-26T15:02:25Z</time>
      </trkpt>
      <trkpt lat="43.48623" lon="6.59284">
        <ele>24.5</ele>
        <time>2025-02-26T15:02:26Z</time>
      </trkpt>
      <trkpt lat="43.48622" lon="6.59285">
        <ele>24.5</ele>
        <time>2025-02-26T15:02:27Z</time>
      </trkpt>
      <trkpt lat="43.48621" lon="6.59286">
        <ele>24.6</ele>
        <time>2025-02-26T15:02:28Z</time>
      </trkpt>
      <trkpt lat="43.4862" lon="6.59286">
        <ele>24.5</ele>
        <time>2025-02-26T15:02:29Z</time>
      </trkpt>
      <trkpt lat="43.48619" lon="6.59287">
        <ele>24.5</ele>
        <time>2025-02-26T15:02:30Z</time>
      </trkpt>
      <trkpt lat="43.48618" lon="6.59288">
        <ele>24.5</ele>
        <time>2025-02-26T15:02:31Z</time>
      </trkpt>
      <trkpt lat="43.48617" lon="6.59288">
        <ele>24.4</ele>
        <time>2025-02-26T15:02:32Z</time>
      </trkpt>
      <trkpt lat="43.48616" lon="6.59289">
        <ele>24.4</ele>
        <time>2025-02-26T15:02:33Z</time>
      </trkpt>
      <trkpt lat="43.48614" lon="6.59289">
        <ele>24.4</ele>
        <time>2025-02-26T15:02:34Z</time>
      </trkpt>
      <trkpt lat="43.48613" lon="6.5929">
        <ele>24.4</ele>
        <time>2025-02-26T15:02:35Z</time>
      </trkpt>
      <trkpt lat="43.48612" lon="6.59291">
        <ele>24.3</ele>
        <time>2025-02-26T15:02:36Z</time>
      </trkpt>
      <trkpt lat="43.48611" lon="6.59292">
        <ele>24.3</ele>
        <time>2025-02-26T15:02:37Z</time>
      </trkpt>
      <trkpt lat="43.4861" lon="6.59292">
        <ele>24.4</ele>
        <time>2025-02-26T15:02:38Z</time>
      </trkpt>
      <trkpt lat="43.48609" lon="6.59293">
        <ele>24.3</ele>
        <time>2025-02-26T15:02:39Z</time>
      </trkpt>
      <trkpt lat="43.48608" lon="6.59293">
        <ele>24.3</ele>
        <time>2025-02-26T15:02:40Z</time>
      </trkpt>
      <trkpt lat="43.48607" lon="6.59293">
        <ele>24.3</ele>
        <time>2025-02-26T15:02:41Z</time>
      </trkpt>
      <trkpt lat="43.48606" lon="6.59293">
        <ele>24.3</ele>
        <time>2025-02-26T15:02:42Z</time>
      </trkpt>
      <trkpt lat="43.48605" lon="6.59293">
        <ele>24.2</ele>
        <time>2025-02-26T15:02:43Z</time>
      </trkpt>
      <trkpt lat="43.48604" lon="6.59292">
        <ele>24.2</ele>
        <time>2025-02-26T15:02:44Z</time>
      </trkpt>
      <trkpt lat="43.48603" lon="6.59292">
        <ele>24.1</ele>
        <time>2025-02-26T15:02:45Z</time>
      </trkpt>
      <trkpt lat="43.48602" lon="6.59291">
        <ele>24.1</ele>
        <time>2025-02-26T15:02:46Z</time>
      </trkpt>
      <trkpt lat="43.48601" lon="6.59291">
        <ele>24.1</ele>
        <time>2025-02-26T15:02:47Z</time>
      </trkpt>
      <trkpt lat="43.486" lon="6.5929">
        <ele>24</ele>
        <time>2025-02-26T15:02:48Z</time>
      </trkpt>
      <trkpt lat="43.486" lon="6.5929">
        <ele>24</ele>
        <time>2025-02-26T15:02:49Z</time>
      </trkpt>
      <trkpt lat="43.48598" lon="6.59289">
        <ele>24</ele>
        <time>2025-02-26T15:02:50Z</time>
      </trkpt>
      <trkpt lat="43.48598" lon="6.59289">
        <ele>24</ele>
        <time>2025-02-26T15:02:51Z</time>
      </trkpt>
      <trkpt lat="43.48597" lon="6.59288">
        <ele>24</ele>
        <time>2025-02-26T15:02:52Z</time>
      </trkpt>
      <trkpt lat="43.48596" lon="6.59287">
        <ele>23.9</ele>
        <time>2025-02-26T15:02:53Z</time>
      </trkpt>
      <trkpt lat="43.48594" lon="6.59286">
        <ele>23.9</ele>
        <time>2025-02-26T15:02:54Z</time>
      </trkpt>
      <trkpt lat="43.48594" lon="6.59285">
        <ele>23.8</ele>
        <time>2025-02-26T15:02:55Z</time>
      </trkpt>
      <trkpt lat="43.48593" lon="6.59284">
        <ele>23.8</ele>
        <time>2025-02-26T15:02:56Z</time>
      </trkpt>
      <trkpt lat="43.48592" lon="6.59284">
        <ele>23.8</ele>
        <time>2025-02-26T15:02:57Z</time>
      </trkpt>
      <trkpt lat="43.48591" lon="6.59283">
        <ele>23.8</ele>
        <time>2025-02-26T15:02:58Z</time>
      </trkpt>
      <trkpt lat="43.4859" lon="6.59282">
        <ele>23.7</ele>
        <time>2025-02-26T15:02:59Z</time>
      </trkpt>
      <trkpt lat="43.48589" lon="6.59282">
        <ele>23.6</ele>
        <time>2025-02-26T15:03:00Z</time>
      </trkpt>
      <trkpt lat="43.48588" lon="6.59282">
        <ele>23.6</ele>
        <time>2025-02-26T15:03:01Z</time>
      </trkpt>
      <trkpt lat="43.48587" lon="6.59281">
        <ele>23.6</ele>
        <time>2025-02-26T15:03:02Z</time>
      </trkpt>
      <trkpt lat="43.48586" lon="6.5928">
        <ele>23.6</ele>
        <time>2025-02-26T15:03:03Z</time>
      </trkpt>
      <trkpt lat="43.48584" lon="6.5928">
        <ele>23.6</ele>
        <time>2025-02-26T15:03:04Z</time>
      </trkpt>
      <trkpt lat="43.48583" lon="6.59279">
        <ele>23.6</ele>
        <time>2025-02-26T15:03:05Z</time>
      </trkpt>
      <trkpt lat="43.48582" lon="6.59279">
        <ele>23.8</ele>
        <time>2025-02-26T15:03:06Z</time>
      </trkpt>
      <trkpt lat="43.48582" lon="6.59279">
        <ele>23.7</ele>
        <time>2025-02-26T15:03:07Z</time>
      </trkpt>
      <trkpt lat="43.48581" lon="6.59279">
        <ele>23.6</ele>
        <time>2025-02-26T15:03:08Z</time>
      </trkpt>
      <trkpt lat="43.4858" lon="6.59279">
        <ele>23.6</ele>
        <time>2025-02-26T15:03:09Z</time>
      </trkpt>
      <trkpt lat="43.48578" lon="6.59278">
        <ele>23.6</ele>
        <time>2025-02-26T15:03:10Z</time>
      </trkpt>
      <trkpt lat="43.48577" lon="6.59278">
        <ele>23.6</ele>
        <time>2025-02-26T15:03:11Z</time>
      </trkpt>
      <trkpt lat="43.48576" lon="6.59278">
        <ele>23.5</ele>
        <time>2025-02-26T15:03:12Z</time>
      </trkpt>
      <trkpt lat="43.48574" lon="6.59277">
        <ele>23.5</ele>
        <time>2025-02-26T15:03:13Z</time>
      </trkpt>
      <trkpt lat="43.48573" lon="6.59277">
        <ele>23.6</ele>
        <time>2025-02-26T15:03:14Z</time>
      </trkpt>
      <trkpt lat="43.48572" lon="6.59277">
        <ele>23.8</ele>
        <time>2025-02-26T15:03:15Z</time>
      </trkpt>
      <trkpt lat="43.48571" lon="6.59276">
        <ele>23.8</ele>
        <time>2025-02-26T15:03:16Z</time>
      </trkpt>
      <trkpt lat="43.4857" lon="6.59276">
        <ele>23.8</ele>
        <time>2025-02-26T15:03:17Z</time>
      </trkpt>
      <trkpt lat="43.48569" lon="6.59276">
        <ele>23.7</ele>
        <time>2025-02-26T15:03:18Z</time>
      </trkpt>
      <trkpt lat="43.48568" lon="6.59275">
        <ele>23.8</ele>
        <time>2025-02-26T15:03:19Z</time>
      </trkpt>
      <trkpt lat="43.48567" lon="6.59275">
        <ele>23.8</ele>
        <time>2025-02-26T15:03:20Z</time>
      </trkpt>
      <trkpt lat="43.48566" lon="6.59274">
        <ele>23.8</ele>
        <time>2025-02-26T15:03:21Z</time>
      </trkpt>
      <trkpt lat="43.48565" lon="6.59274">
        <ele>23.7</ele>
        <time>2025-02-26T15:03:22Z</time>
      </trkpt>
      <trkpt lat="43.48564" lon="6.59274">
        <ele>23.6</ele>
        <time>2025-02-26T15:03:23Z</time>
      </trkpt>
      <trkpt lat="43.48562" lon="6.59273">
        <ele>23.6</ele>
        <time>2025-02-26T15:03:24Z</time>
      </trkpt>
      <trkpt lat="43.48562" lon="6.59272">
        <ele>23.5</ele>
        <time>2025-02-26T15:03:25Z</time>
      </trkpt>
      <trkpt lat="43.48561" lon="6.59272">
        <ele>23.5</ele>
        <time>2025-02-26T15:03:26Z</time>
      </trkpt>
      <trkpt lat="43.4856" lon="6.59271">
        <ele>23.5</ele>
        <time>2025-02-26T15:03:27Z</time>
      </trkpt>
      <trkpt lat="43.48559" lon="6.5927">
        <ele>23.6</ele>
        <time>2025-02-26T15:03:28Z</time>
      </trkpt>
      <trkpt lat="43.48558" lon="6.59269">
        <ele>23.6</ele>
        <time>2025-02-26T15:03:29Z</time>
      </trkpt>
      <trkpt lat="43.48557" lon="6.59268">
        <ele>23.6</ele>
        <time>2025-02-26T15:03:30Z</time>
      </trkpt>
      <trkpt lat="43.48556" lon="6.59267">
        <ele>23.5</ele>
        <time>2025-02-26T15:03:31Z</time>
      </trkpt>
      <trkpt lat="43.48555" lon="6.59266">
        <ele>23.5</ele>
        <time>2025-02-26T15:03:32Z</time>
      </trkpt>
      <trkpt lat="43.48554" lon="6.59265">
        <ele>23.4</ele>
        <time>2025-02-26T15:03:33Z</time>
      </trkpt>
      <trkpt lat="43.48553" lon="6.59264">
        <ele>23.4</ele>
        <time>2025-02-26T15:03:34Z</time>
      </trkpt>
      <trkpt lat="43.48552" lon="6.59263">
        <ele>23.4</ele>
        <time>2025-02-26T15:03:35Z</time>
      </trkpt>
      <trkpt lat="43.48551" lon="6.59262">
        <ele>23.4</ele>
        <time>2025-02-26T15:03:36Z</time>
      </trkpt>
      <trkpt lat="43.4855" lon="6.5926">
        <ele>23.5</ele>
        <time>2025-02-26T15:03:37Z</time>
      </trkpt>
      <trkpt lat="43.48549" lon="6.59259">
        <ele>23.5</ele>
        <time>2025-02-26T15:03:38Z</time>
      </trkpt>
      <trkpt lat="43.48548" lon="6.59259">
        <ele>23.6</ele>
        <time>2025-02-26T15:03:39Z</time>
      </trkpt>
      <trkpt lat="43.48547" lon="6.59258">
        <ele>23.6</ele>
        <time>2025-02-26T15:03:40Z</time>
      </trkpt>
      <trkpt lat="43.48546" lon="6.59257">
        <ele>23.5</ele>
        <time>2025-02-26T15:03:41Z</time>
      </trkpt>
      <trkpt lat="43.48545" lon="6.59256">
        <ele>23.4</ele>
        <time>2025-02-26T15:03:42Z</time>
      </trkpt>
      <trkpt lat="43.48544" lon="6.59255">
        <ele>23.2</ele>
        <time>2025-02-26T15:03:43Z</time>
      </trkpt>
      <trkpt lat="43.48543" lon="6.59254">
        <ele>23.4</ele>
        <time>2025-02-26T15:03:44Z</time>
      </trkpt>
      <trkpt lat="43.48542" lon="6.59253">
        <ele>23.4</ele>
        <time>2025-02-26T15:03:45Z</time>
      </trkpt>
      <trkpt lat="43.48541" lon="6.59252">
        <ele>23.4</ele>
        <time>2025-02-26T15:03:46Z</time>
      </trkpt>
      <trkpt lat="43.4854" lon="6.59251">
        <ele>23.3</ele>
        <time>2025-02-26T15:03:47Z</time>
      </trkpt>
      <trkpt lat="43.48539" lon="6.5925">
        <ele>23.2</ele>
        <time>2025-02-26T15:03:48Z</time>
      </trkpt>
      <trkpt lat="43.48537" lon="6.59249">
        <ele>23.2</ele>
        <time>2025-02-26T15:03:49Z</time>
      </trkpt>
      <trkpt lat="43.48535" lon="6.59248">
        <ele>23.2</ele>
        <time>2025-02-26T15:03:50Z</time>
      </trkpt>
      <trkpt lat="43.48534" lon="6.59247">
        <ele>23.2</ele>
        <time>2025-02-26T15:03:51Z</time>
      </trkpt>
      <trkpt lat="43.48533" lon="6.59246">
        <ele>23.3</ele>
        <time>2025-02-26T15:03:52Z</time>
      </trkpt>
      <trkpt lat="43.48532" lon="6.59245">
        <ele>23.2</ele>
        <time>2025-02-26T15:03:53Z</time>
      </trkpt>
      <trkpt lat="43.48532" lon="6.59244">
        <ele>23.2</ele>
        <time>2025-02-26T15:03:54Z</time>
      </trkpt>
      <trkpt lat="43.4853" lon="6.59244">
        <ele>23.2</ele>
        <time>2025-02-26T15:03:55Z</time>
      </trkpt>
      <trkpt lat="43.48529" lon="6.59243">
        <ele>23.3</ele>
        <time>2025-02-26T15:03:56Z</time>
      </trkpt>
      <trkpt lat="43.48528" lon="6.59243">
        <ele>23.3</ele>
        <time>2025-02-26T15:03:57Z</time>
      </trkpt>
      <trkpt lat="43.48526" lon="6.59242">
        <ele>23.2</ele>
        <time>2025-02-26T15:03:58Z</time>
      </trkpt>
      <trkpt lat="43.48525" lon="6.59241">
        <ele>23.2</ele>
        <time>2025-02-26T15:03:59Z</time>
      </trkpt>
      <trkpt lat="43.48524" lon="6.59241">
        <ele>23.2</ele>
        <time>2025-02-26T15:04:00Z</time>
      </trkpt>
      <trkpt lat="43.48523" lon="6.59241">
        <ele>23.3</ele>
        <time>2025-02-26T15:04:01Z</time>
      </trkpt>
      <trkpt lat="43.48522" lon="6.5924">
        <ele>23.3</ele>
        <time>2025-02-26T15:04:02Z</time>
      </trkpt>
      <trkpt lat="43.48521" lon="6.5924">
        <ele>23.4</ele>
        <time>2025-02-26T15:04:03Z</time>
      </trkpt>
      <trkpt lat="43.4852" lon="6.59239">
        <ele>23.4</ele>
        <time>2025-02-26T15:04:04Z</time>
      </trkpt>
      <trkpt lat="43.48519" lon="6.59238">
        <ele>23.5</ele>
        <time>2025-02-26T15:04:05Z</time>
      </trkpt>
      <trkpt lat="43.48518" lon="6.59238">
        <ele>23.5</ele>
        <time>2025-02-26T15:04:06Z</time>
      </trkpt>
      <trkpt lat="43.48517" lon="6.59237">
        <ele>23.5</ele>
        <time>2025-02-26T15:04:07Z</time>
      </trkpt>
      <trkpt lat="43.48515" lon="6.59237">
        <ele>23.3</ele>
        <time>2025-02-26T15:04:08Z</time>
      </trkpt>
      <trkpt lat="43.48514" lon="6.59236">
        <ele>23.1</ele>
        <time>2025-02-26T15:04:09Z</time>
      </trkpt>
      <trkpt lat="43.48513" lon="6.59236">
        <ele>23.2</ele>
        <time>2025-02-26T15:04:10Z</time>
      </trkpt>
      <trkpt lat="43.48512" lon="6.59235">
        <ele>23.1</ele>
        <time>2025-02-26T15:04:11Z</time>
      </trkpt>
      <trkpt lat="43.48511" lon="6.59235">
        <ele>23</ele>
        <time>2025-02-26T15:04:12Z</time>
      </trkpt>
      <trkpt lat="43.48509" lon="6.59235">
        <ele>22.9</ele>
        <time>2025-02-26T15:04:13Z</time>
      </trkpt>
      <trkpt lat="43.48508" lon="6.59235">
        <ele>22.8</ele>
        <time>2025-02-26T15:04:14Z</time>
      </trkpt>
      <trkpt lat="43.48506" lon="6.59234">
        <ele>22.8</ele>
        <time>2025-02-26T15:04:15Z</time>
      </trkpt>
      <trkpt lat="43.48505" lon="6.59234">
        <ele>22.8</ele>
        <time>2025-02-26T15:04:16Z</time>
      </trkpt>
      <trkpt lat="43.48503" lon="6.59233">
        <ele>22.8</ele>
        <time>2025-02-26T15:04:17Z</time>
      </trkpt>
      <trkpt lat="43.48502" lon="6.59233">
        <ele>22.9</ele>
        <time>2025-02-26T15:04:18Z</time>
      </trkpt>
      <trkpt lat="43.48501" lon="6.59232">
        <ele>22.9</ele>
        <time>2025-02-26T15:04:19Z</time>
      </trkpt>
      <trkpt lat="43.485" lon="6.59232">
        <ele>22.9</ele>
        <time>2025-02-26T15:04:20Z</time>
      </trkpt>
      <trkpt lat="43.48498" lon="6.59232">
        <ele>23</ele>
        <time>2025-02-26T15:04:21Z</time>
      </trkpt>
      <trkpt lat="43.48497" lon="6.59231">
        <ele>23.1</ele>
        <time>2025-02-26T15:04:22Z</time>
      </trkpt>
      <trkpt lat="43.48496" lon="6.59231">
        <ele>23.1</ele>
        <time>2025-02-26T15:04:23Z</time>
      </trkpt>
      <trkpt lat="43.48495" lon="6.5923">
        <ele>23.1</ele>
        <time>2025-02-26T15:04:24Z</time>
      </trkpt>
      <trkpt lat="43.48494" lon="6.5923">
        <ele>23.1</ele>
        <time>2025-02-26T15:04:25Z</time>
      </trkpt>
      <trkpt lat="43.48493" lon="6.59229">
        <ele>23.2</ele>
        <time>2025-02-26T15:04:26Z</time>
      </trkpt>
      <trkpt lat="43.48492" lon="6.59229">
        <ele>23.2</ele>
        <time>2025-02-26T15:04:27Z</time>
      </trkpt>
      <trkpt lat="43.48491" lon="6.59229">
        <ele>23.1</ele>
        <time>2025-02-26T15:04:28Z</time>
      </trkpt>
      <trkpt lat="43.4849" lon="6.59228">
        <ele>23</ele>
        <time>2025-02-26T15:04:29Z</time>
      </trkpt>
      <trkpt lat="43.48488" lon="6.59227">
        <ele>23</ele>
        <time>2025-02-26T15:04:30Z</time>
      </trkpt>
      <trkpt lat="43.48487" lon="6.59227">
        <ele>23</ele>
        <time>2025-02-26T15:04:31Z</time>
      </trkpt>
      <trkpt lat="43.48486" lon="6.59226">
        <ele>22.9</ele>
        <time>2025-02-26T15:04:32Z</time>
      </trkpt>
      <trkpt lat="43.48485" lon="6.59225">
        <ele>22.9</ele>
        <time>2025-02-26T15:04:33Z</time>
      </trkpt>
      <trkpt lat="43.48484" lon="6.59225">
        <ele>22.9</ele>
        <time>2025-02-26T15:04:34Z</time>
      </trkpt>
      <trkpt lat="43.48483" lon="6.59225">
        <ele>22.9</ele>
        <time>2025-02-26T15:04:35Z</time>
      </trkpt>
      <trkpt lat="43.48482" lon="6.59225">
        <ele>22.9</ele>
        <time>2025-02-26T15:04:36Z</time>
      </trkpt>
      <trkpt lat="43.48481" lon="6.59224">
        <ele>22.9</ele>
        <time>2025-02-26T15:04:37Z</time>
      </trkpt>
      <trkpt lat="43.48479" lon="6.59223">
        <ele>23</ele>
        <time>2025-02-26T15:04:38Z</time>
      </trkpt>
      <trkpt lat="43.48478" lon="6.59222">
        <ele>23.1</ele>
        <time>2025-02-26T15:04:39Z</time>
      </trkpt>
      <trkpt lat="43.48477" lon="6.59222">
        <ele>23.2</ele>
        <time>2025-02-26T15:04:40Z</time>
      </trkpt>
      <trkpt lat="43.48476" lon="6.59221">
        <ele>23.1</ele>
        <time>2025-02-26T15:04:41Z</time>
      </trkpt>
      <trkpt lat="43.48474" lon="6.5922">
        <ele>23</ele>
        <time>2025-02-26T15:04:42Z</time>
      </trkpt>
      <trkpt lat="43.48473" lon="6.5922">
        <ele>23</ele>
        <time>2025-02-26T15:04:43Z</time>
      </trkpt>
      <trkpt lat="43.48472" lon="6.59219">
        <ele>23</ele>
        <time>2025-02-26T15:04:44Z</time>
      </trkpt>
      <trkpt lat="43.48471" lon="6.59219">
        <ele>23.1</ele>
        <time>2025-02-26T15:04:45Z</time>
      </trkpt>
      <trkpt lat="43.4847" lon="6.59219">
        <ele>23.1</ele>
        <time>2025-02-26T15:04:46Z</time>
      </trkpt>
      <trkpt lat="43.48469" lon="6.59218">
        <ele>23.2</ele>
        <time>2025-02-26T15:04:47Z</time>
      </trkpt>
      <trkpt lat="43.48467" lon="6.59218">
        <ele>23.2</ele>
        <time>2025-02-26T15:04:48Z</time>
      </trkpt>
      <trkpt lat="43.48466" lon="6.59218">
        <ele>23.2</ele>
        <time>2025-02-26T15:04:49Z</time>
      </trkpt>
      <trkpt lat="43.48465" lon="6.59217">
        <ele>23.2</ele>
        <time>2025-02-26T15:04:50Z</time>
      </trkpt>
      <trkpt lat="43.48464" lon="6.59217">
        <ele>23.3</ele>
        <time>2025-02-26T15:04:51Z</time>
      </trkpt>
      <trkpt lat="43.48462" lon="6.59216">
        <ele>23.4</ele>
        <time>2025-02-26T15:04:52Z</time>
      </trkpt>
      <trkpt lat="43.48461" lon="6.59216">
        <ele>23.3</ele>
        <time>2025-02-26T15:04:53Z</time>
      </trkpt>
      <trkpt lat="43.4846" lon="6.59216">
        <ele>23.3</ele>
        <time>2025-02-26T15:04:54Z</time>
      </trkpt>
      <trkpt lat="43.48459" lon="6.59215">
        <ele>23.3</ele>
        <time>2025-02-26T15:04:55Z</time>
      </trkpt>
      <trkpt lat="43.48457" lon="6.59215">
        <ele>23.3</ele>
        <time>2025-02-26T15:04:56Z</time>
      </trkpt>
      <trkpt lat="43.48456" lon="6.59215">
        <ele>23.3</ele>
        <time>2025-02-26T15:04:57Z</time>
      </trkpt>
      <trkpt lat="43.48455" lon="6.59215">
        <ele>23.4</ele>
        <time>2025-02-26T15:04:58Z</time>
      </trkpt>
      <trkpt lat="43.48453" lon="6.59214">
        <ele>23.4</ele>
        <time>2025-02-26T15:04:59Z</time>
      </trkpt>
      <trkpt lat="43.48452" lon="6.59214">
        <ele>23.4</ele>
        <time>2025-02-26T15:05:00Z</time>
      </trkpt>
      <trkpt lat="43.48451" lon="6.59214">
        <ele>23.4</ele>
        <time>2025-02-26T15:05:01Z</time>
      </trkpt>
      <trkpt lat="43.48449" lon="6.59214">
        <ele>23.4</ele>
        <time>2025-02-26T15:05:02Z</time>
      </trkpt>
      <trkpt lat="43.48448" lon="6.59213">
        <ele>23.4</ele>
        <time>2025-02-26T15:05:03Z</time>
      </trkpt>
      <trkpt lat="43.48447" lon="6.59213">
        <ele>23.3</ele>
        <time>2025-02-26T15:05:04Z</time>
      </trkpt>
      <trkpt lat="43.48445" lon="6.59212">
        <ele>23</ele>
        <time>2025-02-26T15:05:05Z</time>
      </trkpt>
      <trkpt lat="43.48444" lon="6.59212">
        <ele>22.9</ele>
        <time>2025-02-26T15:05:06Z</time>
      </trkpt>
      <trkpt lat="43.48443" lon="6.59212">
        <ele>22.9</ele>
        <time>2025-02-26T15:05:07Z</time>
      </trkpt>
      <trkpt lat="43.48441" lon="6.59211">
        <ele>22.9</ele>
        <time>2025-02-26T15:05:08Z</time>
      </trkpt>
      <trkpt lat="43.4844" lon="6.59211">
        <ele>22.8</ele>
        <time>2025-02-26T15:05:09Z</time>
      </trkpt>
      <trkpt lat="43.48439" lon="6.59211">
        <ele>22.8</ele>
        <time>2025-02-26T15:05:10Z</time>
      </trkpt>
      <trkpt lat="43.48438" lon="6.5921">
        <ele>22.8</ele>
        <time>2025-02-26T15:05:11Z</time>
      </trkpt>
      <trkpt lat="43.48437" lon="6.5921">
        <ele>22.8</ele>
        <time>2025-02-26T15:05:12Z</time>
      </trkpt>
      <trkpt lat="43.48435" lon="6.5921">
        <ele>22.9</ele>
        <time>2025-02-26T15:05:13Z</time>
      </trkpt>
      <trkpt lat="43.48434" lon="6.5921">
        <ele>23</ele>
        <time>2025-02-26T15:05:14Z</time>
      </trkpt>
      <trkpt lat="43.48433" lon="6.59209">
        <ele>23</ele>
        <time>2025-02-26T15:05:15Z</time>
      </trkpt>
      <trkpt lat="43.48431" lon="6.59209">
        <ele>23.1</ele>
        <time>2025-02-26T15:05:16Z</time>
      </trkpt>
      <trkpt lat="43.4843" lon="6.59209">
        <ele>23.1</ele>
        <time>2025-02-26T15:05:17Z</time>
      </trkpt>
      <trkpt lat="43.48429" lon="6.59209">
        <ele>23.2</ele>
        <time>2025-02-26T15:05:18Z</time>
      </trkpt>
      <trkpt lat="43.48427" lon="6.59209">
        <ele>23.2</ele>
        <time>2025-02-26T15:05:19Z</time>
      </trkpt>
      <trkpt lat="43.48426" lon="6.59208">
        <ele>23.2</ele>
        <time>2025-02-26T15:05:20Z</time>
      </trkpt>
      <trkpt lat="43.48425" lon="6.59208">
        <ele>23.2</ele>
        <time>2025-02-26T15:05:21Z</time>
      </trkpt>
      <trkpt lat="43.48424" lon="6.59208">
        <ele>23.1</ele>
        <time>2025-02-26T15:05:22Z</time>
      </trkpt>
      <trkpt lat="43.48423" lon="6.59207">
        <ele>23.1</ele>
        <time>2025-02-26T15:05:23Z</time>
      </trkpt>
      <trkpt lat="43.48422" lon="6.59207">
        <ele>23</ele>
        <time>2025-02-26T15:05:24Z</time>
      </trkpt>
      <trkpt lat="43.4842" lon="6.59207">
        <ele>23</ele>
        <time>2025-02-26T15:05:25Z</time>
      </trkpt>
      <trkpt lat="43.48419" lon="6.59207">
        <ele>23</ele>
        <time>2025-02-26T15:05:26Z</time>
      </trkpt>
      <trkpt lat="43.48418" lon="6.59206">
        <ele>23</ele>
        <time>2025-02-26T15:05:27Z</time>
      </trkpt>
      <trkpt lat="43.48417" lon="6.59206">
        <ele>23</ele>
        <time>2025-02-26T15:05:28Z</time>
      </trkpt>
      <trkpt lat="43.48416" lon="6.59205">
        <ele>23</ele>
        <time>2025-02-26T15:05:29Z</time>
      </trkpt>
      <trkpt lat="43.48415" lon="6.59204">
        <ele>23.1</ele>
        <time>2025-02-26T15:05:30Z</time>
      </trkpt>
      <trkpt lat="43.48414" lon="6.59203">
        <ele>23</ele>
        <time>2025-02-26T15:05:31Z</time>
      </trkpt>
      <trkpt lat="43.48412" lon="6.59203">
        <ele>23</ele>
        <time>2025-02-26T15:05:32Z</time>
      </trkpt>
      <trkpt lat="43.48411" lon="6.59203">
        <ele>23</ele>
        <time>2025-02-26T15:05:33Z</time>
      </trkpt>
      <trkpt lat="43.4841" lon="6.59203">
        <ele>22.8</ele>
        <time>2025-02-26T15:05:34Z</time>
      </trkpt>
      <trkpt lat="43.48409" lon="6.59203">
        <ele>22.8</ele>
        <time>2025-02-26T15:05:35Z</time>
      </trkpt>
      <trkpt lat="43.48408" lon="6.59204">
        <ele>22.8</ele>
        <time>2025-02-26T15:05:36Z</time>
      </trkpt>
      <trkpt lat="43.48407" lon="6.59203">
        <ele>22.8</ele>
        <time>2025-02-26T15:05:37Z</time>
      </trkpt>
      <trkpt lat="43.48406" lon="6.59203">
        <ele>22.9</ele>
        <time>2025-02-26T15:05:38Z</time>
      </trkpt>
      <trkpt lat="43.48404" lon="6.59203">
        <ele>23.1</ele>
        <time>2025-02-26T15:05:39Z</time>
      </trkpt>
      <trkpt lat="43.48403" lon="6.59202">
        <ele>23.1</ele>
        <time>2025-02-26T15:05:40Z</time>
      </trkpt>
      <trkpt lat="43.48402" lon="6.59202">
        <ele>23.1</ele>
        <time>2025-02-26T15:05:41Z</time>
      </trkpt>
      <trkpt lat="43.48401" lon="6.59202">
        <ele>23.1</ele>
        <time>2025-02-26T15:05:42Z</time>
      </trkpt>
      <trkpt lat="43.484" lon="6.59202">
        <ele>23.1</ele>
        <time>2025-02-26T15:05:43Z</time>
      </trkpt>
      <trkpt lat="43.48399" lon="6.59201">
        <ele>23.2</ele>
        <time>2025-02-26T15:05:44Z</time>
      </trkpt>
      <trkpt lat="43.48398" lon="6.59201">
        <ele>23.2</ele>
        <time>2025-02-26T15:05:45Z</time>
      </trkpt>
      <trkpt lat="43.48397" lon="6.592">
        <ele>23.2</ele>
        <time>2025-02-26T15:05:46Z</time>
      </trkpt>
      <trkpt lat="43.48396" lon="6.592">
        <ele>23.2</ele>
        <time>2025-02-26T15:05:47Z</time>
      </trkpt>
      <trkpt lat="43.48396" lon="6.592">
        <ele>23.2</ele>
        <time>2025-02-26T15:05:48Z</time>
      </trkpt>
      <trkpt lat="43.48395" lon="6.592">
        <ele>23.2</ele>
        <time>2025-02-26T15:05:49Z</time>
      </trkpt>
      <trkpt lat="43.48394" lon="6.59199">
        <ele>23.3</ele>
        <time>2025-02-26T15:05:50Z</time>
      </trkpt>
      <trkpt lat="43.48393" lon="6.59198">
        <ele>23.3</ele>
        <time>2025-02-26T15:05:51Z</time>
      </trkpt>
      <trkpt lat="43.48392" lon="6.59198">
        <ele>23.3</ele>
        <time>2025-02-26T15:05:52Z</time>
      </trkpt>
      <trkpt lat="43.48391" lon="6.59198">
        <ele>23.2</ele>
        <time>2025-02-26T15:05:53Z</time>
      </trkpt>
      <trkpt lat="43.4839" lon="6.59197">
        <ele>23.4</ele>
        <time>2025-02-26T15:05:54Z</time>
      </trkpt>
      <trkpt lat="43.48389" lon="6.59197">
        <ele>23.3</ele>
        <time>2025-02-26T15:05:55Z</time>
      </trkpt>
      <trkpt lat="43.48388" lon="6.59196">
        <ele>23.5</ele>
        <time>2025-02-26T15:05:56Z</time>
      </trkpt>
      <trkpt lat="43.48387" lon="6.59196">
        <ele>23.5</ele>
        <time>2025-02-26T15:05:57Z</time>
      </trkpt>
      <trkpt lat="43.48386" lon="6.59196">
        <ele>23.4</ele>
        <time>2025-02-26T15:05:58Z</time>
      </trkpt>
      <trkpt lat="43.48385" lon="6.59195">
        <ele>23.5</ele>
        <time>2025-02-26T15:05:59Z</time>
      </trkpt>
      <trkpt lat="43.48383" lon="6.59195">
        <ele>23.5</ele>
        <time>2025-02-26T15:06:00Z</time>
      </trkpt>
      <trkpt lat="43.48382" lon="6.59195">
        <ele>23.4</ele>
        <time>2025-02-26T15:06:01Z</time>
      </trkpt>
      <trkpt lat="43.48381" lon="6.59194">
        <ele>23.4</ele>
        <time>2025-02-26T15:06:02Z</time>
      </trkpt>
      <trkpt lat="43.4838" lon="6.59194">
        <ele>23.4</ele>
        <time>2025-02-26T15:06:03Z</time>
      </trkpt>
      <trkpt lat="43.48379" lon="6.59193">
        <ele>23.4</ele>
        <time>2025-02-26T15:06:04Z</time>
      </trkpt>
      <trkpt lat="43.48378" lon="6.59193">
        <ele>23.5</ele>
        <time>2025-02-26T15:06:05Z</time>
      </trkpt>
      <trkpt lat="43.48377" lon="6.59192">
        <ele>23.4</ele>
        <time>2025-02-26T15:06:06Z</time>
      </trkpt>
      <trkpt lat="43.48376" lon="6.59191">
        <ele>23.4</ele>
        <time>2025-02-26T15:06:07Z</time>
      </trkpt>
      <trkpt lat="43.48375" lon="6.59191">
        <ele>23.4</ele>
        <time>2025-02-26T15:06:08Z</time>
      </trkpt>
      <trkpt lat="43.48373" lon="6.5919">
        <ele>23.3</ele>
        <time>2025-02-26T15:06:09Z</time>
      </trkpt>
      <trkpt lat="43.48372" lon="6.59189">
        <ele>23.3</ele>
        <time>2025-02-26T15:06:10Z</time>
      </trkpt>
      <trkpt lat="43.48372" lon="6.59189">
        <ele>23.3</ele>
        <time>2025-02-26T15:06:11Z</time>
      </trkpt>
      <trkpt lat="43.4837" lon="6.59188">
        <ele>23.3</ele>
        <time>2025-02-26T15:06:12Z</time>
      </trkpt>
      <trkpt lat="43.48369" lon="6.59187">
        <ele>23.2</ele>
        <time>2025-02-26T15:06:13Z</time>
      </trkpt>
      <trkpt lat="43.48369" lon="6.59186">
        <ele>23.3</ele>
        <time>2025-02-26T15:06:14Z</time>
      </trkpt>
      <trkpt lat="43.48368" lon="6.59185">
        <ele>23.3</ele>
        <time>2025-02-26T15:06:15Z</time>
      </trkpt>
      <trkpt lat="43.48367" lon="6.59184">
        <ele>23.3</ele>
        <time>2025-02-26T15:06:16Z</time>
      </trkpt>
      <trkpt lat="43.48366" lon="6.59183">
        <ele>23.3</ele>
        <time>2025-02-26T15:06:17Z</time>
      </trkpt>
      <trkpt lat="43.48365" lon="6.59182">
        <ele>23.3</ele>
        <time>2025-02-26T15:06:18Z</time>
      </trkpt>
      <trkpt lat="43.48364" lon="6.59181">
        <ele>23.3</ele>
        <time>2025-02-26T15:06:19Z</time>
      </trkpt>
      <trkpt lat="43.48364" lon="6.5918">
        <ele>23.3</ele>
        <time>2025-02-26T15:06:20Z</time>
      </trkpt>
      <trkpt lat="43.48363" lon="6.5918">
        <ele>23.4</ele>
        <time>2025-02-26T15:06:21Z</time>
      </trkpt>
      <trkpt lat="43.48362" lon="6.59179">
        <ele>23.5</ele>
        <time>2025-02-26T15:06:22Z</time>
      </trkpt>
      <trkpt lat="43.4836" lon="6.59177">
        <ele>23.5</ele>
        <time>2025-02-26T15:06:23Z</time>
      </trkpt>
      <trkpt lat="43.48359" lon="6.59176">
        <ele>23.5</ele>
        <time>2025-02-26T15:06:24Z</time>
      </trkpt>
      <trkpt lat="43.48358" lon="6.59175">
        <ele>23.4</ele>
        <time>2025-02-26T15:06:25Z</time>
      </trkpt>
      <trkpt lat="43.48358" lon="6.59174">
        <ele>23.2</ele>
        <time>2025-02-26T15:06:26Z</time>
      </trkpt>
      <trkpt lat="43.48357" lon="6.59172">
        <ele>23.2</ele>
        <time>2025-02-26T15:06:27Z</time>
      </trkpt>
      <trkpt lat="43.48356" lon="6.59171">
        <ele>23.3</ele>
        <time>2025-02-26T15:06:28Z</time>
      </trkpt>
      <trkpt lat="43.48356" lon="6.5917">
        <ele>23.3</ele>
        <time>2025-02-26T15:06:29Z</time>
      </trkpt>
      <trkpt lat="43.48355" lon="6.59169">
        <ele>23.3</ele>
        <time>2025-02-26T15:06:30Z</time>
      </trkpt>
      <trkpt lat="43.48355" lon="6.59167">
        <ele>23.2</ele>
        <time>2025-02-26T15:06:31Z</time>
      </trkpt>
      <trkpt lat="43.48354" lon="6.59166">
        <ele>23.3</ele>
        <time>2025-02-26T15:06:32Z</time>
      </trkpt>
      <trkpt lat="43.48354" lon="6.59165">
        <ele>23.2</ele>
        <time>2025-02-26T15:06:33Z</time>
      </trkpt>
      <trkpt lat="43.48353" lon="6.59163">
        <ele>23.1</ele>
        <time>2025-02-26T15:06:34Z</time>
      </trkpt>
      <trkpt lat="43.48353" lon="6.59163">
        <ele>23.1</ele>
        <time>2025-02-26T15:06:35Z</time>
      </trkpt>
      <trkpt lat="43.48352" lon="6.59162">
        <ele>23</ele>
        <time>2025-02-26T15:06:36Z</time>
      </trkpt>
      <trkpt lat="43.48352" lon="6.59161">
        <ele>23.1</ele>
        <time>2025-02-26T15:06:37Z</time>
      </trkpt>
      <trkpt lat="43.48351" lon="6.59159">
        <ele>23</ele>
        <time>2025-02-26T15:06:38Z</time>
      </trkpt>
      <trkpt lat="43.4835" lon="6.59157">
        <ele>23</ele>
        <time>2025-02-26T15:06:39Z</time>
      </trkpt>
      <trkpt lat="43.48349" lon="6.59156">
        <ele>23.1</ele>
        <time>2025-02-26T15:06:40Z</time>
      </trkpt>
      <trkpt lat="43.48349" lon="6.59155">
        <ele>23.1</ele>
        <time>2025-02-26T15:06:41Z</time>
      </trkpt>
      <trkpt lat="43.48348" lon="6.59154">
        <ele>23.1</ele>
        <time>2025-02-26T15:06:42Z</time>
      </trkpt>
      <trkpt lat="43.48347" lon="6.59153">
        <ele>23.2</ele>
        <time>2025-02-26T15:06:43Z</time>
      </trkpt>
      <trkpt lat="43.48347" lon="6.59153">
        <ele>23.2</ele>
        <time>2025-02-26T15:06:44Z</time>
      </trkpt>
      <trkpt lat="43.48347" lon="6.59152">
        <ele>23</ele>
        <time>2025-02-26T15:06:45Z</time>
      </trkpt>
      <trkpt lat="43.48345" lon="6.59151">
        <ele>23</ele>
        <time>2025-02-26T15:06:46Z</time>
      </trkpt>
      <trkpt lat="43.48344" lon="6.5915">
        <ele>23</ele>
        <time>2025-02-26T15:06:47Z</time>
      </trkpt>
      <trkpt lat="43.48343" lon="6.59149">
        <ele>23</ele>
        <time>2025-02-26T15:06:48Z</time>
      </trkpt>
      <trkpt lat="43.48343" lon="6.59148">
        <ele>22.9</ele>
        <time>2025-02-26T15:06:49Z</time>
      </trkpt>
      <trkpt lat="43.48342" lon="6.59147">
        <ele>22.9</ele>
        <time>2025-02-26T15:06:50Z</time>
      </trkpt>
      <trkpt lat="43.4834" lon="6.59146">
        <ele>22.9</ele>
        <time>2025-02-26T15:06:51Z</time>
      </trkpt>
      <trkpt lat="43.48339" lon="6.59144">
        <ele>22.9</ele>
        <time>2025-02-26T15:06:52Z</time>
      </trkpt>
      <trkpt lat="43.48338" lon="6.59143">
        <ele>22.9</ele>
        <time>2025-02-26T15:06:53Z</time>
      </trkpt>
      <trkpt lat="43.48338" lon="6.59143">
        <ele>22.9</ele>
        <time>2025-02-26T15:06:54Z</time>
      </trkpt>
      <trkpt lat="43.48337" lon="6.59141">
        <ele>22.9</ele>
        <time>2025-02-26T15:06:55Z</time>
      </trkpt>
      <trkpt lat="43.48335" lon="6.5914">
        <ele>22.9</ele>
        <time>2025-02-26T15:06:56Z</time>
      </trkpt>
      <trkpt lat="43.48335" lon="6.59138">
        <ele>22.9</ele>
        <time>2025-02-26T15:06:57Z</time>
      </trkpt>
      <trkpt lat="43.48333" lon="6.59137">
        <ele>23</ele>
        <time>2025-02-26T15:06:58Z</time>
      </trkpt>
      <trkpt lat="43.48332" lon="6.59136">
        <ele>23</ele>
        <time>2025-02-26T15:06:59Z</time>
      </trkpt>
      <trkpt lat="43.48331" lon="6.59135">
        <ele>23</ele>
        <time>2025-02-26T15:07:00Z</time>
      </trkpt>
      <trkpt lat="43.4833" lon="6.59134">
        <ele>23</ele>
        <time>2025-02-26T15:07:01Z</time>
      </trkpt>
      <trkpt lat="43.4833" lon="6.59133">
        <ele>23.1</ele>
        <time>2025-02-26T15:07:02Z</time>
      </trkpt>
      <trkpt lat="43.48329" lon="6.59132">
        <ele>23.1</ele>
        <time>2025-02-26T15:07:03Z</time>
      </trkpt>
      <trkpt lat="43.48328" lon="6.59132">
        <ele>22.9</ele>
        <time>2025-02-26T15:07:04Z</time>
      </trkpt>
      <trkpt lat="43.48327" lon="6.5913">
        <ele>22.9</ele>
        <time>2025-02-26T15:07:05Z</time>
      </trkpt>
      <trkpt lat="43.48326" lon="6.59129">
        <ele>22.9</ele>
        <time>2025-02-26T15:07:06Z</time>
      </trkpt>
      <trkpt lat="43.48325" lon="6.59128">
        <ele>22.9</ele>
        <time>2025-02-26T15:07:07Z</time>
      </trkpt>
      <trkpt lat="43.48324" lon="6.59126">
        <ele>22.8</ele>
        <time>2025-02-26T15:07:08Z</time>
      </trkpt>
      <trkpt lat="43.48323" lon="6.59125">
        <ele>22.8</ele>
        <time>2025-02-26T15:07:09Z</time>
      </trkpt>
      <trkpt lat="43.48322" lon="6.59124">
        <ele>22.7</ele>
        <time>2025-02-26T15:07:10Z</time>
      </trkpt>
      <trkpt lat="43.48321" lon="6.59123">
        <ele>22.7</ele>
        <time>2025-02-26T15:07:11Z</time>
      </trkpt>
      <trkpt lat="43.4832" lon="6.59121">
        <ele>22.7</ele>
        <time>2025-02-26T15:07:12Z</time>
      </trkpt>
      <trkpt lat="43.48319" lon="6.5912">
        <ele>22.8</ele>
        <time>2025-02-26T15:07:13Z</time>
      </trkpt>
      <trkpt lat="43.48319" lon="6.59119">
        <ele>22.8</ele>
        <time>2025-02-26T15:07:14Z</time>
      </trkpt>
      <trkpt lat="43.48318" lon="6.59118">
        <ele>22.8</ele>
        <time>2025-02-26T15:07:15Z</time>
      </trkpt>
      <trkpt lat="43.48317" lon="6.59116">
        <ele>22.9</ele>
        <time>2025-02-26T15:07:16Z</time>
      </trkpt>
      <trkpt lat="43.48316" lon="6.59114">
        <ele>22.9</ele>
        <time>2025-02-26T15:07:17Z</time>
      </trkpt>
      <trkpt lat="43.48315" lon="6.59112">
        <ele>22.8</ele>
        <time>2025-02-26T15:07:18Z</time>
      </trkpt>
      <trkpt lat="43.48313" lon="6.59111">
        <ele>22.7</ele>
        <time>2025-02-26T15:07:19Z</time>
      </trkpt>
      <trkpt lat="43.48312" lon="6.59109">
        <ele>22.8</ele>
        <time>2025-02-26T15:07:20Z</time>
      </trkpt>
      <trkpt lat="43.48312" lon="6.59108">
        <ele>22.9</ele>
        <time>2025-02-26T15:07:21Z</time>
      </trkpt>
      <trkpt lat="43.48311" lon="6.59106">
        <ele>22.8</ele>
        <time>2025-02-26T15:07:22Z</time>
      </trkpt>
      <trkpt lat="43.4831" lon="6.59105">
        <ele>22.9</ele>
        <time>2025-02-26T15:07:23Z</time>
      </trkpt>
      <trkpt lat="43.48309" lon="6.59104">
        <ele>22.9</ele>
        <time>2025-02-26T15:07:24Z</time>
      </trkpt>
      <trkpt lat="43.48309" lon="6.59104">
        <ele>22.9</ele>
        <time>2025-02-26T15:07:25Z</time>
      </trkpt>
      <trkpt lat="43.48308" lon="6.59103">
        <ele>22.9</ele>
        <time>2025-02-26T15:07:26Z</time>
      </trkpt>
      <trkpt lat="43.48307" lon="6.59102">
        <ele>22.9</ele>
        <time>2025-02-26T15:07:27Z</time>
      </trkpt>
      <trkpt lat="43.48306" lon="6.591">
        <ele>22.9</ele>
        <time>2025-02-26T15:07:28Z</time>
      </trkpt>
      <trkpt lat="43.48305" lon="6.591">
        <ele>22.8</ele>
        <time>2025-02-26T15:07:29Z</time>
      </trkpt>
      <trkpt lat="43.48304" lon="6.59099">
        <ele>22.8</ele>
        <time>2025-02-26T15:07:30Z</time>
      </trkpt>
      <trkpt lat="43.48303" lon="6.59098">
        <ele>22.7</ele>
        <time>2025-02-26T15:07:31Z</time>
      </trkpt>
      <trkpt lat="43.48302" lon="6.59097">
        <ele>22.7</ele>
        <time>2025-02-26T15:07:32Z</time>
      </trkpt>
      <trkpt lat="43.48301" lon="6.59096">
        <ele>22.7</ele>
        <time>2025-02-26T15:07:33Z</time>
      </trkpt>
      <trkpt lat="43.483" lon="6.59095">
        <ele>22.7</ele>
        <time>2025-02-26T15:07:34Z</time>
      </trkpt>
      <trkpt lat="43.48299" lon="6.59094">
        <ele>22.5</ele>
        <time>2025-02-26T15:07:35Z</time>
      </trkpt>
      <trkpt lat="43.48299" lon="6.59093">
        <ele>22.6</ele>
        <time>2025-02-26T15:07:36Z</time>
      </trkpt>
      <trkpt lat="43.48297" lon="6.59092">
        <ele>22.8</ele>
        <time>2025-02-26T15:07:37Z</time>
      </trkpt>
      <trkpt lat="43.48297" lon="6.59091">
        <ele>22.8</ele>
        <time>2025-02-26T15:07:38Z</time>
      </trkpt>
      <trkpt lat="43.48296" lon="6.5909">
        <ele>22.9</ele>
        <time>2025-02-26T15:07:39Z</time>
      </trkpt>
      <trkpt lat="43.48295" lon="6.59089">
        <ele>22.8</ele>
        <time>2025-02-26T15:07:40Z</time>
      </trkpt>
      <trkpt lat="43.48293" lon="6.59088">
        <ele>22.7</ele>
        <time>2025-02-26T15:07:41Z</time>
      </trkpt>
      <trkpt lat="43.48292" lon="6.59086">
        <ele>22.7</ele>
        <time>2025-02-26T15:07:42Z</time>
      </trkpt>
      <trkpt lat="43.48291" lon="6.59085">
        <ele>22.5</ele>
        <time>2025-02-26T15:07:43Z</time>
      </trkpt>
      <trkpt lat="43.4829" lon="6.59084">
        <ele>22.5</ele>
        <time>2025-02-26T15:07:44Z</time>
      </trkpt>
      <trkpt lat="43.48289" lon="6.59083">
        <ele>22.5</ele>
        <time>2025-02-26T15:07:45Z</time>
      </trkpt>
      <trkpt lat="43.48289" lon="6.59084">
        <ele>22.5</ele>
        <time>2025-02-26T15:07:46Z</time>
      </trkpt>
      <trkpt lat="43.48288" lon="6.59083">
        <ele>22.6</ele>
        <time>2025-02-26T15:07:47Z</time>
      </trkpt>
      <trkpt lat="43.48287" lon="6.59081">
        <ele>22.7</ele>
        <time>2025-02-26T15:07:48Z</time>
      </trkpt>
      <trkpt lat="43.48286" lon="6.5908">
        <ele>22.7</ele>
        <time>2025-02-26T15:07:49Z</time>
      </trkpt>
      <trkpt lat="43.48285" lon="6.59079">
        <ele>22.8</ele>
        <time>2025-02-26T15:07:50Z</time>
      </trkpt>
      <trkpt lat="43.48283" lon="6.59078">
        <ele>22.8</ele>
        <time>2025-02-26T15:07:51Z</time>
      </trkpt>
      <trkpt lat="43.48282" lon="6.59077">
        <ele>22.8</ele>
        <time>2025-02-26T15:07:52Z</time>
      </trkpt>
      <trkpt lat="43.48281" lon="6.59076">
        <ele>22.8</ele>
        <time>2025-02-26T15:07:53Z</time>
      </trkpt>
      <trkpt lat="43.4828" lon="6.59076">
        <ele>22.9</ele>
        <time>2025-02-26T15:07:54Z</time>
      </trkpt>
      <trkpt lat="43.48279" lon="6.59075">
        <ele>22.9</ele>
        <time>2025-02-26T15:07:55Z</time>
      </trkpt>
      <trkpt lat="43.48278" lon="6.59074">
        <ele>22.9</ele>
        <time>2025-02-26T15:07:56Z</time>
      </trkpt>
      <trkpt lat="43.48277" lon="6.59073">
        <ele>22.8</ele>
        <time>2025-02-26T15:07:57Z</time>
      </trkpt>
      <trkpt lat="43.48276" lon="6.59072">
        <ele>23</ele>
        <time>2025-02-26T15:07:58Z</time>
      </trkpt>
      <trkpt lat="43.48275" lon="6.59071">
        <ele>23.2</ele>
        <time>2025-02-26T15:07:59Z</time>
      </trkpt>
      <trkpt lat="43.48274" lon="6.5907">
        <ele>23.3</ele>
        <time>2025-02-26T15:08:00Z</time>
      </trkpt>
      <trkpt lat="43.48273" lon="6.59069">
        <ele>23.2</ele>
        <time>2025-02-26T15:08:01Z</time>
      </trkpt>
      <trkpt lat="43.48272" lon="6.59067">
        <ele>23.1</ele>
        <time>2025-02-26T15:08:02Z</time>
      </trkpt>
      <trkpt lat="43.48271" lon="6.59066">
        <ele>23</ele>
        <time>2025-02-26T15:08:03Z</time>
      </trkpt>
      <trkpt lat="43.4827" lon="6.59065">
        <ele>23</ele>
        <time>2025-02-26T15:08:04Z</time>
      </trkpt>
      <trkpt lat="43.48269" lon="6.59065">
        <ele>23</ele>
        <time>2025-02-26T15:08:05Z</time>
      </trkpt>
      <trkpt lat="43.48268" lon="6.59063">
        <ele>22.9</ele>
        <time>2025-02-26T15:08:06Z</time>
      </trkpt>
      <trkpt lat="43.48267" lon="6.59062">
        <ele>22.8</ele>
        <time>2025-02-26T15:08:07Z</time>
      </trkpt>
      <trkpt lat="43.48265" lon="6.5906">
        <ele>22.7</ele>
        <time>2025-02-26T15:08:08Z</time>
      </trkpt>
      <trkpt lat="43.48264" lon="6.59059">
        <ele>22.6</ele>
        <time>2025-02-26T15:08:09Z</time>
      </trkpt>
      <trkpt lat="43.48263" lon="6.59058">
        <ele>22.6</ele>
        <time>2025-02-26T15:08:10Z</time>
      </trkpt>
      <trkpt lat="43.48262" lon="6.59056">
        <ele>22.6</ele>
        <time>2025-02-26T15:08:11Z</time>
      </trkpt>
      <trkpt lat="43.48261" lon="6.59055">
        <ele>22.6</ele>
        <time>2025-02-26T15:08:12Z</time>
      </trkpt>
      <trkpt lat="43.4826" lon="6.59055">
        <ele>22.6</ele>
        <time>2025-02-26T15:08:13Z</time>
      </trkpt>
      <trkpt lat="43.48259" lon="6.59054">
        <ele>22.5</ele>
        <time>2025-02-26T15:08:14Z</time>
      </trkpt>
      <trkpt lat="43.48258" lon="6.59053">
        <ele>22.5</ele>
        <time>2025-02-26T15:08:15Z</time>
      </trkpt>
      <trkpt lat="43.48256" lon="6.59052">
        <ele>22.5</ele>
        <time>2025-02-26T15:08:16Z</time>
      </trkpt>
      <trkpt lat="43.48255" lon="6.59051">
        <ele>22.4</ele>
        <time>2025-02-26T15:08:17Z</time>
      </trkpt>
      <trkpt lat="43.48254" lon="6.5905">
        <ele>22.3</ele>
        <time>2025-02-26T15:08:18Z</time>
      </trkpt>
      <trkpt lat="43.48253" lon="6.59049">
        <ele>22.2</ele>
        <time>2025-02-26T15:08:19Z</time>
      </trkpt>
      <trkpt lat="43.48251" lon="6.59048">
        <ele>22.2</ele>
        <time>2025-02-26T15:08:20Z</time>
      </trkpt>
      <trkpt lat="43.4825" lon="6.59047">
        <ele>22.3</ele>
        <time>2025-02-26T15:08:21Z</time>
      </trkpt>
      <trkpt lat="43.48249" lon="6.59047">
        <ele>22.3</ele>
        <time>2025-02-26T15:08:22Z</time>
      </trkpt>
      <trkpt lat="43.48248" lon="6.59046">
        <ele>22.4</ele>
        <time>2025-02-26T15:08:23Z</time>
      </trkpt>
      <trkpt lat="43.48246" lon="6.59046">
        <ele>22.5</ele>
        <time>2025-02-26T15:08:24Z</time>
      </trkpt>
      <trkpt lat="43.48245" lon="6.59046">
        <ele>22.5</ele>
        <time>2025-02-26T15:08:25Z</time>
      </trkpt>
      <trkpt lat="43.48244" lon="6.59046">
        <ele>22.4</ele>
        <time>2025-02-26T15:08:26Z</time>
      </trkpt>
      <trkpt lat="43.48243" lon="6.59046">
        <ele>22.4</ele>
        <time>2025-02-26T15:08:27Z</time>
      </trkpt>
      <trkpt lat="43.48242" lon="6.59045">
        <ele>22.5</ele>
        <time>2025-02-26T15:08:28Z</time>
      </trkpt>
      <trkpt lat="43.4824" lon="6.59045">
        <ele>22.5</ele>
        <time>2025-02-26T15:08:29Z</time>
      </trkpt>
      <trkpt lat="43.48239" lon="6.59045">
        <ele>22.5</ele>
        <time>2025-02-26T15:08:30Z</time>
      </trkpt>
      <trkpt lat="43.48238" lon="6.59046">
        <ele>22.5</ele>
        <time>2025-02-26T15:08:31Z</time>
      </trkpt>
      <trkpt lat="43.48237" lon="6.59046">
        <ele>22.6</ele>
        <time>2025-02-26T15:08:32Z</time>
      </trkpt>
      <trkpt lat="43.48236" lon="6.59046">
        <ele>22.7</ele>
        <time>2025-02-26T15:08:33Z</time>
      </trkpt>
      <trkpt lat="43.48234" lon="6.59046">
        <ele>22.7</ele>
        <time>2025-02-26T15:08:34Z</time>
      </trkpt>
      <trkpt lat="43.48233" lon="6.59047">
        <ele>22.6</ele>
        <time>2025-02-26T15:08:35Z</time>
      </trkpt>
      <trkpt lat="43.48232" lon="6.59047">
        <ele>22.6</ele>
        <time>2025-02-26T15:08:36Z</time>
      </trkpt>
      <trkpt lat="43.4823" lon="6.59047">
        <ele>22.6</ele>
        <time>2025-02-26T15:08:37Z</time>
      </trkpt>
      <trkpt lat="43.48229" lon="6.59047">
        <ele>22.7</ele>
        <time>2025-02-26T15:08:38Z</time>
      </trkpt>
      <trkpt lat="43.48227" lon="6.59046">
        <ele>22.8</ele>
        <time>2025-02-26T15:08:39Z</time>
      </trkpt>
      <trkpt lat="43.48226" lon="6.59047">
        <ele>22.7</ele>
        <time>2025-02-26T15:08:40Z</time>
      </trkpt>
      <trkpt lat="43.48225" lon="6.59047">
        <ele>22.8</ele>
        <time>2025-02-26T15:08:41Z</time>
      </trkpt>
      <trkpt lat="43.48224" lon="6.59047">
        <ele>22.8</ele>
        <time>2025-02-26T15:08:42Z</time>
      </trkpt>
      <trkpt lat="43.48222" lon="6.59047">
        <ele>22.8</ele>
        <time>2025-02-26T15:08:43Z</time>
      </trkpt>
      <trkpt lat="43.48221" lon="6.59047">
        <ele>22.8</ele>
        <time>2025-02-26T15:08:44Z</time>
      </trkpt>
      <trkpt lat="43.4822" lon="6.59047">
        <ele>22.7</ele>
        <time>2025-02-26T15:08:45Z</time>
      </trkpt>
      <trkpt lat="43.48218" lon="6.59047">
        <ele>22.9</ele>
        <time>2025-02-26T15:08:46Z</time>
      </trkpt>
      <trkpt lat="43.48217" lon="6.59047">
        <ele>23</ele>
        <time>2025-02-26T15:08:47Z</time>
      </trkpt>
      <trkpt lat="43.48215" lon="6.59047">
        <ele>23.1</ele>
        <time>2025-02-26T15:08:48Z</time>
      </trkpt>
      <trkpt lat="43.48214" lon="6.59047">
        <ele>23.1</ele>
        <time>2025-02-26T15:08:49Z</time>
      </trkpt>
      <trkpt lat="43.48213" lon="6.59047">
        <ele>23.2</ele>
        <time>2025-02-26T15:08:50Z</time>
      </trkpt>
      <trkpt lat="43.48211" lon="6.59047">
        <ele>23.1</ele>
        <time>2025-02-26T15:08:51Z</time>
      </trkpt>
      <trkpt lat="43.4821" lon="6.59047">
        <ele>23.2</ele>
        <time>2025-02-26T15:08:52Z</time>
      </trkpt>
      <trkpt lat="43.48208" lon="6.59047">
        <ele>23.3</ele>
        <time>2025-02-26T15:08:53Z</time>
      </trkpt>
      <trkpt lat="43.48207" lon="6.59047">
        <ele>23.4</ele>
        <time>2025-02-26T15:08:54Z</time>
      </trkpt>
      <trkpt lat="43.48206" lon="6.59047">
        <ele>23.3</ele>
        <time>2025-02-26T15:08:55Z</time>
      </trkpt>
      <trkpt lat="43.48204" lon="6.59047">
        <ele>23.3</ele>
        <time>2025-02-26T15:08:56Z</time>
      </trkpt>
      <trkpt lat="43.48203" lon="6.59048">
        <ele>23.4</ele>
        <time>2025-02-26T15:08:57Z</time>
      </trkpt>
      <trkpt lat="43.48202" lon="6.59048">
        <ele>23.5</ele>
        <time>2025-02-26T15:08:58Z</time>
      </trkpt>
      <trkpt lat="43.48201" lon="6.59049">
        <ele>23.5</ele>
        <time>2025-02-26T15:08:59Z</time>
      </trkpt>
      <trkpt lat="43.48199" lon="6.5905">
        <ele>23.6</ele>
        <time>2025-02-26T15:09:00Z</time>
      </trkpt>
      <trkpt lat="43.48198" lon="6.5905">
        <ele>23.5</ele>
        <time>2025-02-26T15:09:01Z</time>
      </trkpt>
      <trkpt lat="43.48197" lon="6.59051">
        <ele>23.5</ele>
        <time>2025-02-26T15:09:02Z</time>
      </trkpt>
      <trkpt lat="43.48196" lon="6.59052">
        <ele>23.4</ele>
        <time>2025-02-26T15:09:03Z</time>
      </trkpt>
      <trkpt lat="43.48195" lon="6.59053">
        <ele>23.3</ele>
        <time>2025-02-26T15:09:04Z</time>
      </trkpt>
      <trkpt lat="43.48194" lon="6.59054">
        <ele>23.3</ele>
        <time>2025-02-26T15:09:05Z</time>
      </trkpt>
      <trkpt lat="43.48192" lon="6.59055">
        <ele>23.3</ele>
        <time>2025-02-26T15:09:06Z</time>
      </trkpt>
      <trkpt lat="43.48191" lon="6.59056">
        <ele>23.3</ele>
        <time>2025-02-26T15:09:07Z</time>
      </trkpt>
      <trkpt lat="43.4819" lon="6.59057">
        <ele>23.2</ele>
        <time>2025-02-26T15:09:08Z</time>
      </trkpt>
      <trkpt lat="43.4819" lon="6.59058">
        <ele>23.2</ele>
        <time>2025-02-26T15:09:09Z</time>
      </trkpt>
      <trkpt lat="43.48189" lon="6.5906">
        <ele>23.1</ele>
        <time>2025-02-26T15:09:10Z</time>
      </trkpt>
      <trkpt lat="43.48188" lon="6.59061">
        <ele>23</ele>
        <time>2025-02-26T15:09:11Z</time>
      </trkpt>
      <trkpt lat="43.48188" lon="6.59062">
        <ele>22.9</ele>
        <time>2025-02-26T15:09:12Z</time>
      </trkpt>
      <trkpt lat="43.48187" lon="6.59063">
        <ele>22.8</ele>
        <time>2025-02-26T15:09:13Z</time>
      </trkpt>
      <trkpt lat="43.48186" lon="6.59065">
        <ele>22.7</ele>
        <time>2025-02-26T15:09:14Z</time>
      </trkpt>
      <trkpt lat="43.48185" lon="6.59066">
        <ele>22.8</ele>
        <time>2025-02-26T15:09:15Z</time>
      </trkpt>
      <trkpt lat="43.48184" lon="6.59068">
        <ele>22.7</ele>
        <time>2025-02-26T15:09:16Z</time>
      </trkpt>
      <trkpt lat="43.48183" lon="6.59069">
        <ele>22.6</ele>
        <time>2025-02-26T15:09:17Z</time>
      </trkpt>
      <trkpt lat="43.48183" lon="6.59071">
        <ele>22.7</ele>
        <time>2025-02-26T15:09:18Z</time>
      </trkpt>
      <trkpt lat="43.48182" lon="6.59072">
        <ele>22.8</ele>
        <time>2025-02-26T15:09:19Z</time>
      </trkpt>
      <trkpt lat="43.48181" lon="6.59074">
        <ele>22.8</ele>
        <time>2025-02-26T15:09:20Z</time>
      </trkpt>
      <trkpt lat="43.48181" lon="6.59075">
        <ele>22.8</ele>
        <time>2025-02-26T15:09:21Z</time>
      </trkpt>
      <trkpt lat="43.4818" lon="6.59077">
        <ele>22.9</ele>
        <time>2025-02-26T15:09:22Z</time>
      </trkpt>
      <trkpt lat="43.4818" lon="6.59078">
        <ele>22.9</ele>
        <time>2025-02-26T15:09:23Z</time>
      </trkpt>
      <trkpt lat="43.48179" lon="6.5908">
        <ele>22.8</ele>
        <time>2025-02-26T15:09:24Z</time>
      </trkpt>
      <trkpt lat="43.48178" lon="6.59081">
        <ele>23</ele>
        <time>2025-02-26T15:09:25Z</time>
      </trkpt>
      <trkpt lat="43.48178" lon="6.59083">
        <ele>23.1</ele>
        <time>2025-02-26T15:09:26Z</time>
      </trkpt>
      <trkpt lat="43.48177" lon="6.59084">
        <ele>23.2</ele>
        <time>2025-02-26T15:09:27Z</time>
      </trkpt>
      <trkpt lat="43.48176" lon="6.59085">
        <ele>23.3</ele>
        <time>2025-02-26T15:09:28Z</time>
      </trkpt>
      <trkpt lat="43.48176" lon="6.59087">
        <ele>23.1</ele>
        <time>2025-02-26T15:09:29Z</time>
      </trkpt>
      <trkpt lat="43.48175" lon="6.59089">
        <ele>23</ele>
        <time>2025-02-26T15:09:30Z</time>
      </trkpt>
      <trkpt lat="43.48174" lon="6.5909">
        <ele>22.9</ele>
        <time>2025-02-26T15:09:31Z</time>
      </trkpt>
      <trkpt lat="43.48174" lon="6.59092">
        <ele>22.8</ele>
        <time>2025-02-26T15:09:32Z</time>
      </trkpt>
      <trkpt lat="43.48173" lon="6.59094">
        <ele>22.8</ele>
        <time>2025-02-26T15:09:33Z</time>
      </trkpt>
      <trkpt lat="43.48173" lon="6.59095">
        <ele>22.8</ele>
        <time>2025-02-26T15:09:34Z</time>
      </trkpt>
      <trkpt lat="43.48172" lon="6.59097">
        <ele>22.8</ele>
        <time>2025-02-26T15:09:35Z</time>
      </trkpt>
      <trkpt lat="43.48172" lon="6.59099">
        <ele>22.7</ele>
        <time>2025-02-26T15:09:36Z</time>
      </trkpt>
      <trkpt lat="43.48171" lon="6.591">
        <ele>22.7</ele>
        <time>2025-02-26T15:09:37Z</time>
      </trkpt>
      <trkpt lat="43.4817" lon="6.59102">
        <ele>22.6</ele>
        <time>2025-02-26T15:09:38Z</time>
      </trkpt>
      <trkpt lat="43.4817" lon="6.59104">
        <ele>22.6</ele>
        <time>2025-02-26T15:09:39Z</time>
      </trkpt>
      <trkpt lat="43.48169" lon="6.59105">
        <ele>22.6</ele>
        <time>2025-02-26T15:09:40Z</time>
      </trkpt>
      <trkpt lat="43.48168" lon="6.59107">
        <ele>22.7</ele>
        <time>2025-02-26T15:09:41Z</time>
      </trkpt>
      <trkpt lat="43.48167" lon="6.59109">
        <ele>22.7</ele>
        <time>2025-02-26T15:09:42Z</time>
      </trkpt>
      <trkpt lat="43.48167" lon="6.5911">
        <ele>22.7</ele>
        <time>2025-02-26T15:09:43Z</time>
      </trkpt>
      <trkpt lat="43.48166" lon="6.59112">
        <ele>22.7</ele>
        <time>2025-02-26T15:09:44Z</time>
      </trkpt>
      <trkpt lat="43.48165" lon="6.59113">
        <ele>22.5</ele>
        <time>2025-02-26T15:09:45Z</time>
      </trkpt>
      <trkpt lat="43.48164" lon="6.59114">
        <ele>22.4</ele>
        <time>2025-02-26T15:09:46Z</time>
      </trkpt>
      <trkpt lat="43.48163" lon="6.59115">
        <ele>22.6</ele>
        <time>2025-02-26T15:09:47Z</time>
      </trkpt>
      <trkpt lat="43.48162" lon="6.59116">
        <ele>22.7</ele>
        <time>2025-02-26T15:09:48Z</time>
      </trkpt>
      <trkpt lat="43.48161" lon="6.59117">
        <ele>22.7</ele>
        <time>2025-02-26T15:09:49Z</time>
      </trkpt>
      <trkpt lat="43.48159" lon="6.59118">
        <ele>22.8</ele>
        <time>2025-02-26T15:09:50Z</time>
      </trkpt>
      <trkpt lat="43.48158" lon="6.59119">
        <ele>22.7</ele>
        <time>2025-02-26T15:09:51Z</time>
      </trkpt>
      <trkpt lat="43.48157" lon="6.59119">
        <ele>22.5</ele>
        <time>2025-02-26T15:09:52Z</time>
      </trkpt>
      <trkpt lat="43.48156" lon="6.5912">
        <ele>22.3</ele>
        <time>2025-02-26T15:09:53Z</time>
      </trkpt>
      <trkpt lat="43.48154" lon="6.5912">
        <ele>22.4</ele>
        <time>2025-02-26T15:09:54Z</time>
      </trkpt>
      <trkpt lat="43.48153" lon="6.59121">
        <ele>22.2</ele>
        <time>2025-02-26T15:09:55Z</time>
      </trkpt>
      <trkpt lat="43.48152" lon="6.59121">
        <ele>22.2</ele>
        <time>2025-02-26T15:09:56Z</time>
      </trkpt>
      <trkpt lat="43.48151" lon="6.59121">
        <ele>22.3</ele>
        <time>2025-02-26T15:09:57Z</time>
      </trkpt>
      <trkpt lat="43.48149" lon="6.59121">
        <ele>22.5</ele>
        <time>2025-02-26T15:09:58Z</time>
      </trkpt>
      <trkpt lat="43.48148" lon="6.59122">
        <ele>22.2</ele>
        <time>2025-02-26T15:09:59Z</time>
      </trkpt>
      <trkpt lat="43.48147" lon="6.59122">
        <ele>22.1</ele>
        <time>2025-02-26T15:10:00Z</time>
      </trkpt>
      <trkpt lat="43.48146" lon="6.59123">
        <ele>22.1</ele>
        <time>2025-02-26T15:10:01Z</time>
      </trkpt>
      <trkpt lat="43.48145" lon="6.59123">
        <ele>22.3</ele>
        <time>2025-02-26T15:10:02Z</time>
      </trkpt>
      <trkpt lat="43.48143" lon="6.59123">
        <ele>22.1</ele>
        <time>2025-02-26T15:10:03Z</time>
      </trkpt>
      <trkpt lat="43.48142" lon="6.59123">
        <ele>21.8</ele>
        <time>2025-02-26T15:10:04Z</time>
      </trkpt>
      <trkpt lat="43.48141" lon="6.59123">
        <ele>21.8</ele>
        <time>2025-02-26T15:10:05Z</time>
      </trkpt>
      <trkpt lat="43.48139" lon="6.59123">
        <ele>21.9</ele>
        <time>2025-02-26T15:10:06Z</time>
      </trkpt>
      <trkpt lat="43.48138" lon="6.59123">
        <ele>21.9</ele>
        <time>2025-02-26T15:10:07Z</time>
      </trkpt>
      <trkpt lat="43.48137" lon="6.59124">
        <ele>21.8</ele>
        <time>2025-02-26T15:10:08Z</time>
      </trkpt>
      <trkpt lat="43.48136" lon="6.59124">
        <ele>21.8</ele>
        <time>2025-02-26T15:10:09Z</time>
      </trkpt>
      <trkpt lat="43.48135" lon="6.59125">
        <ele>21.8</ele>
        <time>2025-02-26T15:10:10Z</time>
      </trkpt>
      <trkpt lat="43.48133" lon="6.59125">
        <ele>21.8</ele>
        <time>2025-02-26T15:10:11Z</time>
      </trkpt>
      <trkpt lat="43.48132" lon="6.59125">
        <ele>21.6</ele>
        <time>2025-02-26T15:10:12Z</time>
      </trkpt>
      <trkpt lat="43.48131" lon="6.59124">
        <ele>21.7</ele>
        <time>2025-02-26T15:10:13Z</time>
      </trkpt>
      <trkpt lat="43.4813" lon="6.59124">
        <ele>21.7</ele>
        <time>2025-02-26T15:10:14Z</time>
      </trkpt>
      <trkpt lat="43.48128" lon="6.59124">
        <ele>21.8</ele>
        <time>2025-02-26T15:10:15Z</time>
      </trkpt>
      <trkpt lat="43.48127" lon="6.59124">
        <ele>21.7</ele>
        <time>2025-02-26T15:10:16Z</time>
      </trkpt>
      <trkpt lat="43.48126" lon="6.59124">
        <ele>21.8</ele>
        <time>2025-02-26T15:10:17Z</time>
      </trkpt>
      <trkpt lat="43.48125" lon="6.59124">
        <ele>21.8</ele>
        <time>2025-02-26T15:10:18Z</time>
      </trkpt>
      <trkpt lat="43.48124" lon="6.59123">
        <ele>21.7</ele>
        <time>2025-02-26T15:10:19Z</time>
      </trkpt>
      <trkpt lat="43.48123" lon="6.59123">
        <ele>21.8</ele>
        <time>2025-02-26T15:10:20Z</time>
      </trkpt>
      <trkpt lat="43.48122" lon="6.59122">
        <ele>21.8</ele>
        <time>2025-02-26T15:10:21Z</time>
      </trkpt>
      <trkpt lat="43.4812" lon="6.59122">
        <ele>21.8</ele>
        <time>2025-02-26T15:10:22Z</time>
      </trkpt>
      <trkpt lat="43.48119" lon="6.59122">
        <ele>21.7</ele>
        <time>2025-02-26T15:10:23Z</time>
      </trkpt>
      <trkpt lat="43.48118" lon="6.59121">
        <ele>21.9</ele>
        <time>2025-02-26T15:10:24Z</time>
      </trkpt>
      <trkpt lat="43.48117" lon="6.59121">
        <ele>21.9</ele>
        <time>2025-02-26T15:10:25Z</time>
      </trkpt>
      <trkpt lat="43.48116" lon="6.5912">
        <ele>21.9</ele>
        <time>2025-02-26T15:10:26Z</time>
      </trkpt>
      <trkpt lat="43.48115" lon="6.5912">
        <ele>21.9</ele>
        <time>2025-02-26T15:10:27Z</time>
      </trkpt>
      <trkpt lat="43.48114" lon="6.5912">
        <ele>21.9</ele>
        <time>2025-02-26T15:10:28Z</time>
      </trkpt>
      <trkpt lat="43.48113" lon="6.5912">
        <ele>21.9</ele>
        <time>2025-02-26T15:10:29Z</time>
      </trkpt>
      <trkpt lat="43.48112" lon="6.5912">
        <ele>21.9</ele>
        <time>2025-02-26T15:10:30Z</time>
      </trkpt>
      <trkpt lat="43.4811" lon="6.59119">
        <ele>21.8</ele>
        <time>2025-02-26T15:10:31Z</time>
      </trkpt>
      <trkpt lat="43.48109" lon="6.59119">
        <ele>21.7</ele>
        <time>2025-02-26T15:10:32Z</time>
      </trkpt>
      <trkpt lat="43.48108" lon="6.59118">
        <ele>21.7</ele>
        <time>2025-02-26T15:10:33Z</time>
      </trkpt>
      <trkpt lat="43.48106" lon="6.59118">
        <ele>21.6</ele>
        <time>2025-02-26T15:10:34Z</time>
      </trkpt>
      <trkpt lat="43.48106" lon="6.59118">
        <ele>21.6</ele>
        <time>2025-02-26T15:10:35Z</time>
      </trkpt>
      <trkpt lat="43.48105" lon="6.59118">
        <ele>21.6</ele>
        <time>2025-02-26T15:10:36Z</time>
      </trkpt>
      <trkpt lat="43.48104" lon="6.59118">
        <ele>21.6</ele>
        <time>2025-02-26T15:10:37Z</time>
      </trkpt>
      <trkpt lat="43.48102" lon="6.59117">
        <ele>21.6</ele>
        <time>2025-02-26T15:10:38Z</time>
      </trkpt>
      <trkpt lat="43.48101" lon="6.59116">
        <ele>21.6</ele>
        <time>2025-02-26T15:10:39Z</time>
      </trkpt>
      <trkpt lat="43.481" lon="6.59116">
        <ele>21.6</ele>
        <time>2025-02-26T15:10:40Z</time>
      </trkpt>
      <trkpt lat="43.48098" lon="6.59115">
        <ele>21.6</ele>
        <time>2025-02-26T15:10:41Z</time>
      </trkpt>
      <trkpt lat="43.48097" lon="6.59115">
        <ele>21.7</ele>
        <time>2025-02-26T15:10:42Z</time>
      </trkpt>
      <trkpt lat="43.48096" lon="6.59115">
        <ele>21.8</ele>
        <time>2025-02-26T15:10:43Z</time>
      </trkpt>
      <trkpt lat="43.48095" lon="6.59114">
        <ele>21.9</ele>
        <time>2025-02-26T15:10:44Z</time>
      </trkpt>
      <trkpt lat="43.48094" lon="6.59114">
        <ele>21.9</ele>
        <time>2025-02-26T15:10:45Z</time>
      </trkpt>
      <trkpt lat="43.48092" lon="6.59113">
        <ele>22</ele>
        <time>2025-02-26T15:10:46Z</time>
      </trkpt>
      <trkpt lat="43.48091" lon="6.59113">
        <ele>21.9</ele>
        <time>2025-02-26T15:10:47Z</time>
      </trkpt>
      <trkpt lat="43.4809" lon="6.59113">
        <ele>21.8</ele>
        <time>2025-02-26T15:10:48Z</time>
      </trkpt>
      <trkpt lat="43.48089" lon="6.59112">
        <ele>21.7</ele>
        <time>2025-02-26T15:10:49Z</time>
      </trkpt>
      <trkpt lat="43.48088" lon="6.59112">
        <ele>21.6</ele>
        <time>2025-02-26T15:10:50Z</time>
      </trkpt>
      <trkpt lat="43.48086" lon="6.59111">
        <ele>21.5</ele>
        <time>2025-02-26T15:10:51Z</time>
      </trkpt>
      <trkpt lat="43.48085" lon="6.59111">
        <ele>21.6</ele>
        <time>2025-02-26T15:10:52Z</time>
      </trkpt>
      <trkpt lat="43.48084" lon="6.59111">
        <ele>21.5</ele>
        <time>2025-02-26T15:10:53Z</time>
      </trkpt>
      <trkpt lat="43.48083" lon="6.5911">
        <ele>21.6</ele>
        <time>2025-02-26T15:10:54Z</time>
      </trkpt>
      <trkpt lat="43.48082" lon="6.5911">
        <ele>21.5</ele>
        <time>2025-02-26T15:10:55Z</time>
      </trkpt>
      <trkpt lat="43.4808" lon="6.59109">
        <ele>21.5</ele>
        <time>2025-02-26T15:10:56Z</time>
      </trkpt>
      <trkpt lat="43.4808" lon="6.59109">
        <ele>21.5</ele>
        <time>2025-02-26T15:10:57Z</time>
      </trkpt>
      <trkpt lat="43.48079" lon="6.59108">
        <ele>21.5</ele>
        <time>2025-02-26T15:10:58Z</time>
      </trkpt>
      <trkpt lat="43.48077" lon="6.59108">
        <ele>21.7</ele>
        <time>2025-02-26T15:10:59Z</time>
      </trkpt>
      <trkpt lat="43.48076" lon="6.59107">
        <ele>21.6</ele>
        <time>2025-02-26T15:11:00Z</time>
      </trkpt>
      <trkpt lat="43.48075" lon="6.59106">
        <ele>21.6</ele>
        <time>2025-02-26T15:11:01Z</time>
      </trkpt>
      <trkpt lat="43.48073" lon="6.59105">
        <ele>21.6</ele>
        <time>2025-02-26T15:11:02Z</time>
      </trkpt>
      <trkpt lat="43.48072" lon="6.59105">
        <ele>21.6</ele>
        <time>2025-02-26T15:11:03Z</time>
      </trkpt>
      <trkpt lat="43.48071" lon="6.59105">
        <ele>21.6</ele>
        <time>2025-02-26T15:11:04Z</time>
      </trkpt>
      <trkpt lat="43.4807" lon="6.59104">
        <ele>21.6</ele>
        <time>2025-02-26T15:11:05Z</time>
      </trkpt>
      <trkpt lat="43.48069" lon="6.59104">
        <ele>21.5</ele>
        <time>2025-02-26T15:11:06Z</time>
      </trkpt>
      <trkpt lat="43.48068" lon="6.59104">
        <ele>21.4</ele>
        <time>2025-02-26T15:11:07Z</time>
      </trkpt>
      <trkpt lat="43.48067" lon="6.59104">
        <ele>21.4</ele>
        <time>2025-02-26T15:11:08Z</time>
      </trkpt>
      <trkpt lat="43.48065" lon="6.59103">
        <ele>21.4</ele>
        <time>2025-02-26T15:11:09Z</time>
      </trkpt>
      <trkpt lat="43.48064" lon="6.59102">
        <ele>21.4</ele>
        <time>2025-02-26T15:11:10Z</time>
      </trkpt>
      <trkpt lat="43.48062" lon="6.59102">
        <ele>21.5</ele>
        <time>2025-02-26T15:11:11Z</time>
      </trkpt>
      <trkpt lat="43.48061" lon="6.59101">
        <ele>21.5</ele>
        <time>2025-02-26T15:11:12Z</time>
      </trkpt>
      <trkpt lat="43.4806" lon="6.591">
        <ele>21.4</ele>
        <time>2025-02-26T15:11:13Z</time>
      </trkpt>
      <trkpt lat="43.48058" lon="6.591">
        <ele>21.3</ele>
        <time>2025-02-26T15:11:14Z</time>
      </trkpt>
      <trkpt lat="43.48057" lon="6.59099">
        <ele>21.2</ele>
        <time>2025-02-26T15:11:15Z</time>
      </trkpt>
      <trkpt lat="43.48056" lon="6.59098">
        <ele>21.2</ele>
        <time>2025-02-26T15:11:16Z</time>
      </trkpt>
      <trkpt lat="43.48055" lon="6.59098">
        <ele>21.2</ele>
        <time>2025-02-26T15:11:17Z</time>
      </trkpt>
      <trkpt lat="43.48054" lon="6.59097">
        <ele>21.2</ele>
        <time>2025-02-26T15:11:18Z</time>
      </trkpt>
      <trkpt lat="43.48052" lon="6.59096">
        <ele>21.3</ele>
        <time>2025-02-26T15:11:19Z</time>
      </trkpt>
      <trkpt lat="43.48051" lon="6.59095">
        <ele>21.1</ele>
        <time>2025-02-26T15:11:20Z</time>
      </trkpt>
      <trkpt lat="43.4805" lon="6.59095">
        <ele>21.1</ele>
        <time>2025-02-26T15:11:21Z</time>
      </trkpt>
      <trkpt lat="43.48049" lon="6.59094">
        <ele>21.2</ele>
        <time>2025-02-26T15:11:22Z</time>
      </trkpt>
      <trkpt lat="43.48048" lon="6.59093">
        <ele>21.2</ele>
        <time>2025-02-26T15:11:23Z</time>
      </trkpt>
      <trkpt lat="43.48046" lon="6.59093">
        <ele>21.2</ele>
        <time>2025-02-26T15:11:24Z</time>
      </trkpt>
      <trkpt lat="43.48045" lon="6.59092">
        <ele>21.1</ele>
        <time>2025-02-26T15:11:25Z</time>
      </trkpt>
      <trkpt lat="43.48044" lon="6.59091">
        <ele>21.1</ele>
        <time>2025-02-26T15:11:26Z</time>
      </trkpt>
      <trkpt lat="43.48042" lon="6.5909">
        <ele>21.1</ele>
        <time>2025-02-26T15:11:27Z</time>
      </trkpt>
      <trkpt lat="43.48041" lon="6.59089">
        <ele>21.1</ele>
        <time>2025-02-26T15:11:28Z</time>
      </trkpt>
      <trkpt lat="43.4804" lon="6.59088">
        <ele>21.1</ele>
        <time>2025-02-26T15:11:29Z</time>
      </trkpt>
      <trkpt lat="43.48039" lon="6.59087">
        <ele>21.2</ele>
        <time>2025-02-26T15:11:30Z</time>
      </trkpt>
      <trkpt lat="43.48038" lon="6.59086">
        <ele>21.3</ele>
        <time>2025-02-26T15:11:31Z</time>
      </trkpt>
      <trkpt lat="43.48037" lon="6.59085">
        <ele>21.3</ele>
        <time>2025-02-26T15:11:32Z</time>
      </trkpt>
      <trkpt lat="43.48036" lon="6.59084">
        <ele>21.2</ele>
        <time>2025-02-26T15:11:33Z</time>
      </trkpt>
      <trkpt lat="43.48035" lon="6.59083">
        <ele>21.4</ele>
        <time>2025-02-26T15:11:34Z</time>
      </trkpt>
      <trkpt lat="43.48034" lon="6.59082">
        <ele>21.5</ele>
        <time>2025-02-26T15:11:35Z</time>
      </trkpt>
      <trkpt lat="43.48033" lon="6.59081">
        <ele>21.4</ele>
        <time>2025-02-26T15:11:36Z</time>
      </trkpt>
      <trkpt lat="43.48032" lon="6.5908">
        <ele>21.4</ele>
        <time>2025-02-26T15:11:37Z</time>
      </trkpt>
      <trkpt lat="43.48031" lon="6.59079">
        <ele>21.2</ele>
        <time>2025-02-26T15:11:38Z</time>
      </trkpt>
      <trkpt lat="43.4803" lon="6.59078">
        <ele>21.2</ele>
        <time>2025-02-26T15:11:39Z</time>
      </trkpt>
      <trkpt lat="43.48029" lon="6.59077">
        <ele>21.2</ele>
        <time>2025-02-26T15:11:40Z</time>
      </trkpt>
      <trkpt lat="43.48028" lon="6.59076">
        <ele>21.2</ele>
        <time>2025-02-26T15:11:41Z</time>
      </trkpt>
      <trkpt lat="43.48026" lon="6.59075">
        <ele>21.1</ele>
        <time>2025-02-26T15:11:42Z</time>
      </trkpt>
      <trkpt lat="43.48025" lon="6.59074">
        <ele>21.1</ele>
        <time>2025-02-26T15:11:43Z</time>
      </trkpt>
      <trkpt lat="43.48025" lon="6.59073">
        <ele>21.2</ele>
        <time>2025-02-26T15:11:44Z</time>
      </trkpt>
      <trkpt lat="43.48023" lon="6.59071">
        <ele>21.3</ele>
        <time>2025-02-26T15:11:45Z</time>
      </trkpt>
      <trkpt lat="43.48022" lon="6.5907">
        <ele>21.5</ele>
        <time>2025-02-26T15:11:46Z</time>
      </trkpt>
      <trkpt lat="43.48021" lon="6.59069">
        <ele>21.6</ele>
        <time>2025-02-26T15:11:47Z</time>
      </trkpt>
      <trkpt lat="43.4802" lon="6.59068">
        <ele>21.7</ele>
        <time>2025-02-26T15:11:48Z</time>
      </trkpt>
      <trkpt lat="43.4802" lon="6.59066">
        <ele>21.7</ele>
        <time>2025-02-26T15:11:49Z</time>
      </trkpt>
      <trkpt lat="43.48019" lon="6.59065">
        <ele>21.8</ele>
        <time>2025-02-26T15:11:50Z</time>
      </trkpt>
      <trkpt lat="43.48018" lon="6.59064">
        <ele>21.9</ele>
        <time>2025-02-26T15:11:51Z</time>
      </trkpt>
      <trkpt lat="43.48017" lon="6.59063">
        <ele>21.8</ele>
        <time>2025-02-26T15:11:52Z</time>
      </trkpt>
      <trkpt lat="43.48016" lon="6.59062">
        <ele>21.8</ele>
        <time>2025-02-26T15:11:53Z</time>
      </trkpt>
      <trkpt lat="43.48015" lon="6.59061">
        <ele>21.9</ele>
        <time>2025-02-26T15:11:54Z</time>
      </trkpt>
      <trkpt lat="43.48014" lon="6.5906">
        <ele>21.8</ele>
        <time>2025-02-26T15:11:55Z</time>
      </trkpt>
      <trkpt lat="43.48014" lon="6.59059">
        <ele>21.9</ele>
        <time>2025-02-26T15:11:56Z</time>
      </trkpt>
      <trkpt lat="43.48013" lon="6.59058">
        <ele>22.1</ele>
        <time>2025-02-26T15:11:57Z</time>
      </trkpt>
      <trkpt lat="43.48011" lon="6.59056">
        <ele>22.2</ele>
        <time>2025-02-26T15:11:58Z</time>
      </trkpt>
      <trkpt lat="43.4801" lon="6.59055">
        <ele>22.3</ele>
        <time>2025-02-26T15:11:59Z</time>
      </trkpt>
      <trkpt lat="43.48009" lon="6.59054">
        <ele>22.3</ele>
        <time>2025-02-26T15:12:00Z</time>
      </trkpt>
      <trkpt lat="43.48009" lon="6.59053">
        <ele>22.3</ele>
        <time>2025-02-26T15:12:01Z</time>
      </trkpt>
      <trkpt lat="43.48008" lon="6.59052">
        <ele>22.1</ele>
        <time>2025-02-26T15:12:02Z</time>
      </trkpt>
      <trkpt lat="43.48007" lon="6.5905">
        <ele>22.2</ele>
        <time>2025-02-26T15:12:03Z</time>
      </trkpt>
      <trkpt lat="43.48007" lon="6.59049">
        <ele>22.3</ele>
        <time>2025-02-26T15:12:04Z</time>
      </trkpt>
      <trkpt lat="43.48006" lon="6.59047">
        <ele>22.2</ele>
        <time>2025-02-26T15:12:05Z</time>
      </trkpt>
      <trkpt lat="43.48005" lon="6.59046">
        <ele>22.1</ele>
        <time>2025-02-26T15:12:06Z</time>
      </trkpt>
      <trkpt lat="43.48004" lon="6.59044">
        <ele>22</ele>
        <time>2025-02-26T15:12:07Z</time>
      </trkpt>
      <trkpt lat="43.48004" lon="6.59043">
        <ele>22</ele>
        <time>2025-02-26T15:12:08Z</time>
      </trkpt>
      <trkpt lat="43.48003" lon="6.59041">
        <ele>21.8</ele>
        <time>2025-02-26T15:12:09Z</time>
      </trkpt>
      <trkpt lat="43.48003" lon="6.5904">
        <ele>22</ele>
        <time>2025-02-26T15:12:10Z</time>
      </trkpt>
      <trkpt lat="43.48002" lon="6.59038">
        <ele>22</ele>
        <time>2025-02-26T15:12:11Z</time>
      </trkpt>
      <trkpt lat="43.48002" lon="6.59036">
        <ele>22</ele>
        <time>2025-02-26T15:12:12Z</time>
      </trkpt>
      <trkpt lat="43.48001" lon="6.59034">
        <ele>21.8</ele>
        <time>2025-02-26T15:12:13Z</time>
      </trkpt>
      <trkpt lat="43.48001" lon="6.59032">
        <ele>21.7</ele>
        <time>2025-02-26T15:12:14Z</time>
      </trkpt>
      <trkpt lat="43.48" lon="6.5903">
        <ele>21.7</ele>
        <time>2025-02-26T15:12:15Z</time>
      </trkpt>
      <trkpt lat="43.48" lon="6.59028">
        <ele>21.6</ele>
        <time>2025-02-26T15:12:16Z</time>
      </trkpt>
      <trkpt lat="43.48" lon="6.59026">
        <ele>21.7</ele>
        <time>2025-02-26T15:12:17Z</time>
      </trkpt>
      <trkpt lat="43.47999" lon="6.59024">
        <ele>21.7</ele>
        <time>2025-02-26T15:12:18Z</time>
      </trkpt>
      <trkpt lat="43.47999" lon="6.59022">
        <ele>21.7</ele>
        <time>2025-02-26T15:12:19Z</time>
      </trkpt>
      <trkpt lat="43.47999" lon="6.5902">
        <ele>21.7</ele>
        <time>2025-02-26T15:12:20Z</time>
      </trkpt>
      <trkpt lat="43.47999" lon="6.59018">
        <ele>21.7</ele>
        <time>2025-02-26T15:12:21Z</time>
      </trkpt>
      <trkpt lat="43.47998" lon="6.59017">
        <ele>21.7</ele>
        <time>2025-02-26T15:12:22Z</time>
      </trkpt>
      <trkpt lat="43.47998" lon="6.59015">
        <ele>21.7</ele>
        <time>2025-02-26T15:12:23Z</time>
      </trkpt>
      <trkpt lat="43.47998" lon="6.59014">
        <ele>21.5</ele>
        <time>2025-02-26T15:12:24Z</time>
      </trkpt>
      <trkpt lat="43.47998" lon="6.59012">
        <ele>21.4</ele>
        <time>2025-02-26T15:12:25Z</time>
      </trkpt>
      <trkpt lat="43.47998" lon="6.5901">
        <ele>21.4</ele>
        <time>2025-02-26T15:12:26Z</time>
      </trkpt>
      <trkpt lat="43.47997" lon="6.59008">
        <ele>21.3</ele>
        <time>2025-02-26T15:12:27Z</time>
      </trkpt>
      <trkpt lat="43.47997" lon="6.59007">
        <ele>21.4</ele>
        <time>2025-02-26T15:12:28Z</time>
      </trkpt>
      <trkpt lat="43.47996" lon="6.59005">
        <ele>21.5</ele>
        <time>2025-02-26T15:12:29Z</time>
      </trkpt>
      <trkpt lat="43.47996" lon="6.59003">
        <ele>21.6</ele>
        <time>2025-02-26T15:12:30Z</time>
      </trkpt>
      <trkpt lat="43.47995" lon="6.59002">
        <ele>21.5</ele>
        <time>2025-02-26T15:12:31Z</time>
      </trkpt>
      <trkpt lat="43.47995" lon="6.59">
        <ele>21.6</ele>
        <time>2025-02-26T15:12:32Z</time>
      </trkpt>
      <trkpt lat="43.47995" lon="6.58999">
        <ele>21.6</ele>
        <time>2025-02-26T15:12:33Z</time>
      </trkpt>
      <trkpt lat="43.47995" lon="6.58997">
        <ele>21.6</ele>
        <time>2025-02-26T15:12:34Z</time>
      </trkpt>
      <trkpt lat="43.47995" lon="6.58996">
        <ele>21.7</ele>
        <time>2025-02-26T15:12:35Z</time>
      </trkpt>
      <trkpt lat="43.47994" lon="6.58995">
        <ele>21.5</ele>
        <time>2025-02-26T15:12:36Z</time>
      </trkpt>
      <trkpt lat="43.47994" lon="6.58993">
        <ele>21.5</ele>
        <time>2025-02-26T15:12:37Z</time>
      </trkpt>
      <trkpt lat="43.47994" lon="6.58991">
        <ele>21.4</ele>
        <time>2025-02-26T15:12:38Z</time>
      </trkpt>
      <trkpt lat="43.47994" lon="6.58989">
        <ele>21.4</ele>
        <time>2025-02-26T15:12:39Z</time>
      </trkpt>
      <trkpt lat="43.47993" lon="6.58987">
        <ele>21.2</ele>
        <time>2025-02-26T15:12:40Z</time>
      </trkpt>
      <trkpt lat="43.47993" lon="6.58985">
        <ele>21.1</ele>
        <time>2025-02-26T15:12:41Z</time>
      </trkpt>
      <trkpt lat="43.47993" lon="6.58984">
        <ele>21</ele>
        <time>2025-02-26T15:12:42Z</time>
      </trkpt>
      <trkpt lat="43.47992" lon="6.58982">
        <ele>20.9</ele>
        <time>2025-02-26T15:12:43Z</time>
      </trkpt>
      <trkpt lat="43.47991" lon="6.5898">
        <ele>20.9</ele>
        <time>2025-02-26T15:12:44Z</time>
      </trkpt>
      <trkpt lat="43.47991" lon="6.58979">
        <ele>20.8</ele>
        <time>2025-02-26T15:12:45Z</time>
      </trkpt>
      <trkpt lat="43.47991" lon="6.58977">
        <ele>20.8</ele>
        <time>2025-02-26T15:12:46Z</time>
      </trkpt>
      <trkpt lat="43.4799" lon="6.58976">
        <ele>21.1</ele>
        <time>2025-02-26T15:12:47Z</time>
      </trkpt>
      <trkpt lat="43.4799" lon="6.58975">
        <ele>21.1</ele>
        <time>2025-02-26T15:12:48Z</time>
      </trkpt>
      <trkpt lat="43.4799" lon="6.58974">
        <ele>21</ele>
        <time>2025-02-26T15:12:49Z</time>
      </trkpt>
      <trkpt lat="43.4799" lon="6.58973">
        <ele>21.1</ele>
        <time>2025-02-26T15:12:50Z</time>
      </trkpt>
      <trkpt lat="43.47989" lon="6.58972">
        <ele>20.9</ele>
        <time>2025-02-26T15:12:51Z</time>
      </trkpt>
      <trkpt lat="43.47988" lon="6.58971">
        <ele>20.7</ele>
        <time>2025-02-26T15:12:52Z</time>
      </trkpt>
      <trkpt lat="43.47988" lon="6.5897">
        <ele>20.6</ele>
        <time>2025-02-26T15:12:53Z</time>
      </trkpt>
      <trkpt lat="43.47987" lon="6.58969">
        <ele>20.5</ele>
        <time>2025-02-26T15:12:54Z</time>
      </trkpt>
      <trkpt lat="43.47986" lon="6.58967">
        <ele>20.5</ele>
        <time>2025-02-26T15:12:55Z</time>
      </trkpt>
      <trkpt lat="43.47986" lon="6.58967">
        <ele>20.5</ele>
        <time>2025-02-26T15:12:56Z</time>
      </trkpt>
      <trkpt lat="43.47985" lon="6.58966">
        <ele>20.5</ele>
        <time>2025-02-26T15:12:57Z</time>
      </trkpt>
      <trkpt lat="43.47985" lon="6.58965">
        <ele>20.5</ele>
        <time>2025-02-26T15:12:58Z</time>
      </trkpt>
      <trkpt lat="43.47984" lon="6.58965">
        <ele>20.7</ele>
        <time>2025-02-26T15:12:59Z</time>
      </trkpt>
      <trkpt lat="43.47983" lon="6.58964">
        <ele>20.8</ele>
        <time>2025-02-26T15:13:00Z</time>
      </trkpt>
      <trkpt lat="43.47982" lon="6.58963">
        <ele>20.9</ele>
        <time>2025-02-26T15:13:01Z</time>
      </trkpt>
      <trkpt lat="43.47982" lon="6.58962">
        <ele>21</ele>
        <time>2025-02-26T15:13:02Z</time>
      </trkpt>
      <trkpt lat="43.47981" lon="6.58962">
        <ele>20.8</ele>
        <time>2025-02-26T15:13:03Z</time>
      </trkpt>
      <trkpt lat="43.4798" lon="6.58961">
        <ele>20.8</ele>
        <time>2025-02-26T15:13:04Z</time>
      </trkpt>
      <trkpt lat="43.47979" lon="6.5896">
        <ele>20.6</ele>
        <time>2025-02-26T15:13:05Z</time>
      </trkpt>
      <trkpt lat="43.47978" lon="6.58959">
        <ele>20.4</ele>
        <time>2025-02-26T15:13:06Z</time>
      </trkpt>
      <trkpt lat="43.47977" lon="6.58958">
        <ele>20.3</ele>
        <time>2025-02-26T15:13:07Z</time>
      </trkpt>
      <trkpt lat="43.47976" lon="6.58957">
        <ele>20.3</ele>
        <time>2025-02-26T15:13:08Z</time>
      </trkpt>
      <trkpt lat="43.47976" lon="6.58957">
        <ele>20.2</ele>
        <time>2025-02-26T15:13:09Z</time>
      </trkpt>
      <trkpt lat="43.47975" lon="6.58956">
        <ele>20.3</ele>
        <time>2025-02-26T15:13:10Z</time>
      </trkpt>
      <trkpt lat="43.47973" lon="6.58955">
        <ele>20.3</ele>
        <time>2025-02-26T15:13:11Z</time>
      </trkpt>
      <trkpt lat="43.47972" lon="6.58954">
        <ele>20.3</ele>
        <time>2025-02-26T15:13:12Z</time>
      </trkpt>
      <trkpt lat="43.47971" lon="6.58953">
        <ele>20.5</ele>
        <time>2025-02-26T15:13:13Z</time>
      </trkpt>
      <trkpt lat="43.4797" lon="6.58952">
        <ele>20.6</ele>
        <time>2025-02-26T15:13:14Z</time>
      </trkpt>
      <trkpt lat="43.47969" lon="6.58951">
        <ele>20.7</ele>
        <time>2025-02-26T15:13:15Z</time>
      </trkpt>
      <trkpt lat="43.47968" lon="6.5895">
        <ele>20.8</ele>
        <time>2025-02-26T15:13:16Z</time>
      </trkpt>
      <trkpt lat="43.47967" lon="6.58949">
        <ele>20.8</ele>
        <time>2025-02-26T15:13:17Z</time>
      </trkpt>
      <trkpt lat="43.47966" lon="6.58947">
        <ele>21</ele>
        <time>2025-02-26T15:13:18Z</time>
      </trkpt>
      <trkpt lat="43.47965" lon="6.58946">
        <ele>21.1</ele>
        <time>2025-02-26T15:13:19Z</time>
      </trkpt>
      <trkpt lat="43.47964" lon="6.58945">
        <ele>20.9</ele>
        <time>2025-02-26T15:13:20Z</time>
      </trkpt>
      <trkpt lat="43.47963" lon="6.58944">
        <ele>20.9</ele>
        <time>2025-02-26T15:13:21Z</time>
      </trkpt>
      <trkpt lat="43.47962" lon="6.58943">
        <ele>20.9</ele>
        <time>2025-02-26T15:13:22Z</time>
      </trkpt>
      <trkpt lat="43.4796" lon="6.58942">
        <ele>20.8</ele>
        <time>2025-02-26T15:13:23Z</time>
      </trkpt>
      <trkpt lat="43.47959" lon="6.58941">
        <ele>20.8</ele>
        <time>2025-02-26T15:13:24Z</time>
      </trkpt>
      <trkpt lat="43.47958" lon="6.58941">
        <ele>20.8</ele>
        <time>2025-02-26T15:13:25Z</time>
      </trkpt>
      <trkpt lat="43.47958" lon="6.5894">
        <ele>20.8</ele>
        <time>2025-02-26T15:13:26Z</time>
      </trkpt>
      <trkpt lat="43.47957" lon="6.58939">
        <ele>20.8</ele>
        <time>2025-02-26T15:13:27Z</time>
      </trkpt>
      <trkpt lat="43.47956" lon="6.58939">
        <ele>20.9</ele>
        <time>2025-02-26T15:13:28Z</time>
      </trkpt>
      <trkpt lat="43.47955" lon="6.58938">
        <ele>21</ele>
        <time>2025-02-26T15:13:29Z</time>
      </trkpt>
      <trkpt lat="43.47953" lon="6.58937">
        <ele>21</ele>
        <time>2025-02-26T15:13:30Z</time>
      </trkpt>
      <trkpt lat="43.47953" lon="6.58936">
        <ele>21.1</ele>
        <time>2025-02-26T15:13:31Z</time>
      </trkpt>
      <trkpt lat="43.47951" lon="6.58936">
        <ele>21.1</ele>
        <time>2025-02-26T15:13:32Z</time>
      </trkpt>
      <trkpt lat="43.4795" lon="6.58935">
        <ele>21.1</ele>
        <time>2025-02-26T15:13:33Z</time>
      </trkpt>
      <trkpt lat="43.47948" lon="6.58934">
        <ele>21.1</ele>
        <time>2025-02-26T15:13:34Z</time>
      </trkpt>
      <trkpt lat="43.47947" lon="6.58934">
        <ele>21.2</ele>
        <time>2025-02-26T15:13:35Z</time>
      </trkpt>
      <trkpt lat="43.47946" lon="6.58933">
        <ele>21.2</ele>
        <time>2025-02-26T15:13:36Z</time>
      </trkpt>
      <trkpt lat="43.47945" lon="6.58933">
        <ele>21.3</ele>
        <time>2025-02-26T15:13:37Z</time>
      </trkpt>
      <trkpt lat="43.47943" lon="6.58932">
        <ele>21.4</ele>
        <time>2025-02-26T15:13:38Z</time>
      </trkpt>
      <trkpt lat="43.47942" lon="6.58932">
        <ele>21.3</ele>
        <time>2025-02-26T15:13:39Z</time>
      </trkpt>
      <trkpt lat="43.47941" lon="6.58931">
        <ele>21.1</ele>
        <time>2025-02-26T15:13:40Z</time>
      </trkpt>
      <trkpt lat="43.47939" lon="6.58932">
        <ele>21</ele>
        <time>2025-02-26T15:13:41Z</time>
      </trkpt>
      <trkpt lat="43.47938" lon="6.58932">
        <ele>20.9</ele>
        <time>2025-02-26T15:13:42Z</time>
      </trkpt>
      <trkpt lat="43.47937" lon="6.58932">
        <ele>20.9</ele>
        <time>2025-02-26T15:13:43Z</time>
      </trkpt>
      <trkpt lat="43.47935" lon="6.58932">
        <ele>20.9</ele>
        <time>2025-02-26T15:13:44Z</time>
      </trkpt>
      <trkpt lat="43.47934" lon="6.58932">
        <ele>20.9</ele>
        <time>2025-02-26T15:13:45Z</time>
      </trkpt>
      <trkpt lat="43.47933" lon="6.58932">
        <ele>20.9</ele>
        <time>2025-02-26T15:13:46Z</time>
      </trkpt>
      <trkpt lat="43.47931" lon="6.58932">
        <ele>20.9</ele>
        <time>2025-02-26T15:13:47Z</time>
      </trkpt>
      <trkpt lat="43.4793" lon="6.58932">
        <ele>20.9</ele>
        <time>2025-02-26T15:13:48Z</time>
      </trkpt>
      <trkpt lat="43.47928" lon="6.58932">
        <ele>20.8</ele>
        <time>2025-02-26T15:13:49Z</time>
      </trkpt>
      <trkpt lat="43.47927" lon="6.58933">
        <ele>20.8</ele>
        <time>2025-02-26T15:13:50Z</time>
      </trkpt>
      <trkpt lat="43.47926" lon="6.58933">
        <ele>20.9</ele>
        <time>2025-02-26T15:13:51Z</time>
      </trkpt>
      <trkpt lat="43.47925" lon="6.58933">
        <ele>20.8</ele>
        <time>2025-02-26T15:13:52Z</time>
      </trkpt>
      <trkpt lat="43.47924" lon="6.58934">
        <ele>20.9</ele>
        <time>2025-02-26T15:13:53Z</time>
      </trkpt>
      <trkpt lat="43.47922" lon="6.58934">
        <ele>21</ele>
        <time>2025-02-26T15:13:54Z</time>
      </trkpt>
      <trkpt lat="43.47921" lon="6.58934">
        <ele>21.1</ele>
        <time>2025-02-26T15:13:55Z</time>
      </trkpt>
      <trkpt lat="43.4792" lon="6.58935">
        <ele>21.1</ele>
        <time>2025-02-26T15:13:56Z</time>
      </trkpt>
      <trkpt lat="43.47919" lon="6.58935">
        <ele>21.2</ele>
        <time>2025-02-26T15:13:57Z</time>
      </trkpt>
      <trkpt lat="43.47917" lon="6.58935">
        <ele>21.3</ele>
        <time>2025-02-26T15:13:58Z</time>
      </trkpt>
      <trkpt lat="43.47916" lon="6.58936">
        <ele>21.3</ele>
        <time>2025-02-26T15:13:59Z</time>
      </trkpt>
      <trkpt lat="43.47915" lon="6.58936">
        <ele>21.4</ele>
        <time>2025-02-26T15:14:00Z</time>
      </trkpt>
      <trkpt lat="43.47914" lon="6.58937">
        <ele>21.4</ele>
        <time>2025-02-26T15:14:01Z</time>
      </trkpt>
      <trkpt lat="43.47912" lon="6.58937">
        <ele>21.5</ele>
        <time>2025-02-26T15:14:02Z</time>
      </trkpt>
      <trkpt lat="43.47911" lon="6.58937">
        <ele>21.5</ele>
        <time>2025-02-26T15:14:03Z</time>
      </trkpt>
      <trkpt lat="43.4791" lon="6.58938">
        <ele>21.5</ele>
        <time>2025-02-26T15:14:04Z</time>
      </trkpt>
      <trkpt lat="43.47909" lon="6.58938">
        <ele>21.4</ele>
        <time>2025-02-26T15:14:05Z</time>
      </trkpt>
      <trkpt lat="43.47907" lon="6.58938">
        <ele>21.3</ele>
        <time>2025-02-26T15:14:06Z</time>
      </trkpt>
      <trkpt lat="43.47906" lon="6.58938">
        <ele>21.4</ele>
        <time>2025-02-26T15:14:07Z</time>
      </trkpt>
      <trkpt lat="43.47905" lon="6.58938">
        <ele>21.3</ele>
        <time>2025-02-26T15:14:08Z</time>
      </trkpt>
      <trkpt lat="43.47904" lon="6.58938">
        <ele>21.3</ele>
        <time>2025-02-26T15:14:09Z</time>
      </trkpt>
      <trkpt lat="43.47903" lon="6.58938">
        <ele>21.3</ele>
        <time>2025-02-26T15:14:10Z</time>
      </trkpt>
      <trkpt lat="43.47902" lon="6.58938">
        <ele>21.5</ele>
        <time>2025-02-26T15:14:11Z</time>
      </trkpt>
      <trkpt lat="43.47901" lon="6.58938">
        <ele>21.5</ele>
        <time>2025-02-26T15:14:12Z</time>
      </trkpt>
      <trkpt lat="43.479" lon="6.58938">
        <ele>21.6</ele>
        <time>2025-02-26T15:14:13Z</time>
      </trkpt>
      <trkpt lat="43.47898" lon="6.58938">
        <ele>21.6</ele>
        <time>2025-02-26T15:14:14Z</time>
      </trkpt>
      <trkpt lat="43.47897" lon="6.58938">
        <ele>21.6</ele>
        <time>2025-02-26T15:14:15Z</time>
      </trkpt>
      <trkpt lat="43.47895" lon="6.58938">
        <ele>21.5</ele>
        <time>2025-02-26T15:14:16Z</time>
      </trkpt>
      <trkpt lat="43.47894" lon="6.58938">
        <ele>21.4</ele>
        <time>2025-02-26T15:14:17Z</time>
      </trkpt>
      <trkpt lat="43.47893" lon="6.58938">
        <ele>21.3</ele>
        <time>2025-02-26T15:14:18Z</time>
      </trkpt>
      <trkpt lat="43.47892" lon="6.58938">
        <ele>21.2</ele>
        <time>2025-02-26T15:14:19Z</time>
      </trkpt>
      <trkpt lat="43.47891" lon="6.58937">
        <ele>21.2</ele>
        <time>2025-02-26T15:14:20Z</time>
      </trkpt>
      <trkpt lat="43.47889" lon="6.58937">
        <ele>21.1</ele>
        <time>2025-02-26T15:14:21Z</time>
      </trkpt>
      <trkpt lat="43.47888" lon="6.58937">
        <ele>21</ele>
        <time>2025-02-26T15:14:22Z</time>
      </trkpt>
      <trkpt lat="43.47887" lon="6.58937">
        <ele>21</ele>
        <time>2025-02-26T15:14:23Z</time>
      </trkpt>
      <trkpt lat="43.47886" lon="6.58937">
        <ele>21.1</ele>
        <time>2025-02-26T15:14:24Z</time>
      </trkpt>
      <trkpt lat="43.47885" lon="6.58937">
        <ele>21.2</ele>
        <time>2025-02-26T15:14:25Z</time>
      </trkpt>
      <trkpt lat="43.47884" lon="6.58937">
        <ele>21.2</ele>
        <time>2025-02-26T15:14:26Z</time>
      </trkpt>
      <trkpt lat="43.47883" lon="6.58937">
        <ele>21.2</ele>
        <time>2025-02-26T15:14:27Z</time>
      </trkpt>
      <trkpt lat="43.47882" lon="6.58937">
        <ele>21.3</ele>
        <time>2025-02-26T15:14:28Z</time>
      </trkpt>
      <trkpt lat="43.47881" lon="6.58937">
        <ele>21.4</ele>
        <time>2025-02-26T15:14:29Z</time>
      </trkpt>
      <trkpt lat="43.47879" lon="6.58937">
        <ele>21.5</ele>
        <time>2025-02-26T15:14:30Z</time>
      </trkpt>
      <trkpt lat="43.47878" lon="6.58937">
        <ele>21.6</ele>
        <time>2025-02-26T15:14:31Z</time>
      </trkpt>
      <trkpt lat="43.47877" lon="6.58937">
        <ele>21.4</ele>
        <time>2025-02-26T15:14:32Z</time>
      </trkpt>
      <trkpt lat="43.47876" lon="6.58937">
        <ele>21.4</ele>
        <time>2025-02-26T15:14:33Z</time>
      </trkpt>
      <trkpt lat="43.47876" lon="6.58937">
        <ele>21.3</ele>
        <time>2025-02-26T15:14:34Z</time>
      </trkpt>
      <trkpt lat="43.47876" lon="6.58937">
        <ele>21.3</ele>
        <time>2025-02-26T15:14:35Z</time>
      </trkpt>
      <trkpt lat="43.47876" lon="6.58938">
        <ele>21.3</ele>
        <time>2025-02-26T15:14:36Z</time>
      </trkpt>
      <trkpt lat="43.47876" lon="6.58938">
        <ele>21.3</ele>
        <time>2025-02-26T15:14:37Z</time>
      </trkpt>
      <trkpt lat="43.47876" lon="6.58938">
        <ele>21.3</ele>
        <time>2025-02-26T15:14:38Z</time>
      </trkpt>
      <trkpt lat="43.47875" lon="6.58938">
        <ele>21.2</ele>
        <time>2025-02-26T15:14:39Z</time>
      </trkpt>
      <trkpt lat="43.47875" lon="6.58938">
        <ele>21.2</ele>
        <time>2025-02-26T15:14:40Z</time>
      </trkpt>
      <trkpt lat="43.47875" lon="6.58938">
        <ele>21.2</ele>
        <time>2025-02-26T15:14:41Z</time>
      </trkpt>
      <trkpt lat="43.47875" lon="6.58937">
        <ele>21.1</ele>
        <time>2025-02-26T15:14:42Z</time>
      </trkpt>
      <trkpt lat="43.47875" lon="6.58938">
        <ele>21.1</ele>
        <time>2025-02-26T15:14:43Z</time>
      </trkpt>
      <trkpt lat="43.47875" lon="6.58938">
        <ele>21.1</ele>
        <time>2025-02-26T15:14:44Z</time>
      </trkpt>
      <trkpt lat="43.47874" lon="6.58938">
        <ele>21.1</ele>
        <time>2025-02-26T15:14:45Z</time>
      </trkpt>
      <trkpt lat="43.47874" lon="6.58938">
        <ele>21</ele>
        <time>2025-02-26T15:14:46Z</time>
      </trkpt>
      <trkpt lat="43.47873" lon="6.58938">
        <ele>21</ele>
        <time>2025-02-26T15:14:47Z</time>
      </trkpt>
      <trkpt lat="43.47873" lon="6.58938">
        <ele>21</ele>
        <time>2025-02-26T15:14:48Z</time>
      </trkpt>
      <trkpt lat="43.47873" lon="6.58938">
        <ele>21</ele>
        <time>2025-02-26T15:14:49Z</time>
      </trkpt>
      <trkpt lat="43.47872" lon="6.58938">
        <ele>21.2</ele>
        <time>2025-02-26T15:14:50Z</time>
      </trkpt>
      <trkpt lat="43.47872" lon="6.58939">
        <ele>21.3</ele>
        <time>2025-02-26T15:14:51Z</time>
      </trkpt>
      <trkpt lat="43.47872" lon="6.58939">
        <ele>21.2</ele>
        <time>2025-02-26T15:14:52Z</time>
      </trkpt>
      <trkpt lat="43.47872" lon="6.58939">
        <ele>21.3</ele>
        <time>2025-02-26T15:14:53Z</time>
      </trkpt>
      <trkpt lat="43.47872" lon="6.58939">
        <ele>21.3</ele>
        <time>2025-02-26T15:14:54Z</time>
      </trkpt>
      <trkpt lat="43.47872" lon="6.58939">
        <ele>21.3</ele>
        <time>2025-02-26T15:14:55Z</time>
      </trkpt>
      <trkpt lat="43.47872" lon="6.58939">
        <ele>21.4</ele>
        <time>2025-02-26T15:14:56Z</time>
      </trkpt>
      <trkpt lat="43.47872" lon="6.58939">
        <ele>21.5</ele>
        <time>2025-02-26T15:14:57Z</time>
      </trkpt>
      <trkpt lat="43.47872" lon="6.58939">
        <ele>21.5</ele>
        <time>2025-02-26T15:14:58Z</time>
      </trkpt>
      <trkpt lat="43.47872" lon="6.58939">
        <ele>21.6</ele>
        <time>2025-02-26T15:14:59Z</time>
      </trkpt>
      <trkpt lat="43.47871" lon="6.58939">
        <ele>21.6</ele>
        <time>2025-02-26T15:15:00Z</time>
      </trkpt>
      <trkpt lat="43.47871" lon="6.58939">
        <ele>21.7</ele>
        <time>2025-02-26T15:15:01Z</time>
      </trkpt>
      <trkpt lat="43.47871" lon="6.58939">
        <ele>21.8</ele>
        <time>2025-02-26T15:15:02Z</time>
      </trkpt>
      <trkpt lat="43.47871" lon="6.5894">
        <ele>21.8</ele>
        <time>2025-02-26T15:15:03Z</time>
      </trkpt>
      <trkpt lat="43.47871" lon="6.5894">
        <ele>21.8</ele>
        <time>2025-02-26T15:15:04Z</time>
      </trkpt>
      <trkpt lat="43.47872" lon="6.5894">
        <ele>21.8</ele>
        <time>2025-02-26T15:15:05Z</time>
      </trkpt>
      <trkpt lat="43.47871" lon="6.5894">
        <ele>21.8</ele>
        <time>2025-02-26T15:15:06Z</time>
      </trkpt>
      <trkpt lat="43.47871" lon="6.5894">
        <ele>21.8</ele>
        <time>2025-02-26T15:15:07Z</time>
      </trkpt>
      <trkpt lat="43.47871" lon="6.5894">
        <ele>21.8</ele>
        <time>2025-02-26T15:15:08Z</time>
      </trkpt>
      <trkpt lat="43.47871" lon="6.5894">
        <ele>21.8</ele>
        <time>2025-02-26T15:15:09Z</time>
      </trkpt>
      <trkpt lat="43.47871" lon="6.5894">
        <ele>21.8</ele>
        <time>2025-02-26T15:15:10Z</time>
      </trkpt>
      <trkpt lat="43.47871" lon="6.5894">
        <ele>21.8</ele>
        <time>2025-02-26T15:15:11Z</time>
      </trkpt>
      <trkpt lat="43.47871" lon="6.5894">
        <ele>21.7</ele>
        <time>2025-02-26T15:15:12Z</time>
      </trkpt>
      <trkpt lat="43.47871" lon="6.5894">
        <ele>21.7</ele>
        <time>2025-02-26T15:15:13Z</time>
      </trkpt>
      <trkpt lat="43.47871" lon="6.5894">
        <ele>21.7</ele>
        <time>2025-02-26T15:15:14Z</time>
      </trkpt>
      <trkpt lat="43.47871" lon="6.5894">
        <ele>21.7</ele>
        <time>2025-02-26T15:15:15Z</time>
      </trkpt>
      <trkpt lat="43.47871" lon="6.5894">
        <ele>21.6</ele>
        <time>2025-02-26T15:15:16Z</time>
      </trkpt>
      <trkpt lat="43.47871" lon="6.5894">
        <ele>21.6</ele>
        <time>2025-02-26T15:15:17Z</time>
      </trkpt>
      <trkpt lat="43.47871" lon="6.58941">
        <ele>21.6</ele>
        <time>2025-02-26T15:15:18Z</time>
      </trkpt>
      <trkpt lat="43.47871" lon="6.58941">
        <ele>21.7</ele>
        <time>2025-02-26T15:15:19Z</time>
      </trkpt>
      <trkpt lat="43.47871" lon="6.58941">
        <ele>21.6</ele>
        <time>2025-02-26T15:15:20Z</time>
      </trkpt>
      <trkpt lat="43.47871" lon="6.58941">
        <ele>21.6</ele>
        <time>2025-02-26T15:15:21Z</time>
      </trkpt>
      <trkpt lat="43.47871" lon="6.58941">
        <ele>21.6</ele>
        <time>2025-02-26T15:15:22Z</time>
      </trkpt>
      <trkpt lat="43.47871" lon="6.58941">
        <ele>21.6</ele>
        <time>2025-02-26T15:15:23Z</time>
      </trkpt>
      <trkpt lat="43.47872" lon="6.58941">
        <ele>21.6</ele>
        <time>2025-02-26T15:15:24Z</time>
      </trkpt>
      <trkpt lat="43.47872" lon="6.58941">
        <ele>21.6</ele>
        <time>2025-02-26T15:15:25Z</time>
      </trkpt>
      <trkpt lat="43.47872" lon="6.58941">
        <ele>21.6</ele>
        <time>2025-02-26T15:15:26Z</time>
      </trkpt>
      <trkpt lat="43.47871" lon="6.58941">
        <ele>21.5</ele>
        <time>2025-02-26T15:15:27Z</time>
      </trkpt>
      <trkpt lat="43.47871" lon="6.58941">
        <ele>21.4</ele>
        <time>2025-02-26T15:15:28Z</time>
      </trkpt>
      <trkpt lat="43.47871" lon="6.58941">
        <ele>21.4</ele>
        <time>2025-02-26T15:15:29Z</time>
      </trkpt>
      <trkpt lat="43.47871" lon="6.58941">
        <ele>21.4</ele>
        <time>2025-02-26T15:15:30Z</time>
      </trkpt>
      <trkpt lat="43.47871" lon="6.58941">
        <ele>21.3</ele>
        <time>2025-02-26T15:15:31Z</time>
      </trkpt>
      <trkpt lat="43.47871" lon="6.58941">
        <ele>21.4</ele>
        <time>2025-02-26T15:15:32Z</time>
      </trkpt>
      <trkpt lat="43.47871" lon="6.58942">
        <ele>21.4</ele>
        <time>2025-02-26T15:15:33Z</time>
      </trkpt>
      <trkpt lat="43.47871" lon="6.58942">
        <ele>21.5</ele>
        <time>2025-02-26T15:15:34Z</time>
      </trkpt>
      <trkpt lat="43.47871" lon="6.58942">
        <ele>21.4</ele>
        <time>2025-02-26T15:15:35Z</time>
      </trkpt>
      <trkpt lat="43.47871" lon="6.58942">
        <ele>21.4</ele>
        <time>2025-02-26T15:15:36Z</time>
      </trkpt>
      <trkpt lat="43.47871" lon="6.58942">
        <ele>21.4</ele>
        <time>2025-02-26T15:15:37Z</time>
      </trkpt>
      <trkpt lat="43.47871" lon="6.58942">
        <ele>21.4</ele>
        <time>2025-02-26T15:15:38Z</time>
      </trkpt>
      <trkpt lat="43.47871" lon="6.58942">
        <ele>21.4</ele>
        <time>2025-02-26T15:15:39Z</time>
      </trkpt>
      <trkpt lat="43.47871" lon="6.58942">
        <ele>21.3</ele>
        <time>2025-02-26T15:15:40Z</time>
      </trkpt>
      <trkpt lat="43.47871" lon="6.58942">
        <ele>21.3</ele>
        <time>2025-02-26T15:15:41Z</time>
      </trkpt>
      <trkpt lat="43.47871" lon="6.58942">
        <ele>21.3</ele>
        <time>2025-02-26T15:15:42Z</time>
      </trkpt>
      <trkpt lat="43.47871" lon="6.58942">
        <ele>21.4</ele>
        <time>2025-02-26T15:15:43Z</time>
      </trkpt>
      <trkpt lat="43.47871" lon="6.58942">
        <ele>21.4</ele>
        <time>2025-02-26T15:15:44Z</time>
      </trkpt>
      <trkpt lat="43.47871" lon="6.58942">
        <ele>21.4</ele>
        <time>2025-02-26T15:15:45Z</time>
      </trkpt>
      <trkpt lat="43.47871" lon="6.58942">
        <ele>21.4</ele>
        <time>2025-02-26T15:15:46Z</time>
      </trkpt>
      <trkpt lat="43.47871" lon="6.58942">
        <ele>21.4</ele>
        <time>2025-02-26T15:15:47Z</time>
      </trkpt>
      <trkpt lat="43.47871" lon="6.58942">
        <ele>21.4</ele>
        <time>2025-02-26T15:15:48Z</time>
      </trkpt>
      <trkpt lat="43.47871" lon="6.58942">
        <ele>21.4</ele>
        <time>2025-02-26T15:15:49Z</time>
      </trkpt>
      <trkpt lat="43.47871" lon="6.58942">
        <ele>21.4</ele>
        <time>2025-02-26T15:15:50Z</time>
      </trkpt>
      <trkpt lat="43.47871" lon="6.58943">
        <ele>21.4</ele>
        <time>2025-02-26T15:15:51Z</time>
      </trkpt>
      <trkpt lat="43.4787" lon="6.58943">
        <ele>21.4</ele>
        <time>2025-02-26T15:15:52Z</time>
      </trkpt>
      <trkpt lat="43.4787" lon="6.58943">
        <ele>21.4</ele>
        <time>2025-02-26T15:15:53Z</time>
      </trkpt>
      <trkpt lat="43.4787" lon="6.58943">
        <ele>21.4</ele>
        <time>2025-02-26T15:15:54Z</time>
      </trkpt>
      <trkpt lat="43.4787" lon="6.58943">
        <ele>21.3</ele>
        <time>2025-02-26T15:15:55Z</time>
      </trkpt>
      <trkpt lat="43.4787" lon="6.58943">
        <ele>21.3</ele>
        <time>2025-02-26T15:15:56Z</time>
      </trkpt>
      <trkpt lat="43.4787" lon="6.58943">
        <ele>21.3</ele>
        <time>2025-02-26T15:15:57Z</time>
      </trkpt>
      <trkpt lat="43.4787" lon="6.58943">
        <ele>21.2</ele>
        <time>2025-02-26T15:15:58Z</time>
      </trkpt>
      <trkpt lat="43.4787" lon="6.58943">
        <ele>21.1</ele>
        <time>2025-02-26T15:15:59Z</time>
      </trkpt>
      <trkpt lat="43.4787" lon="6.58943">
        <ele>21.1</ele>
        <time>2025-02-26T15:16:00Z</time>
      </trkpt>
      <trkpt lat="43.4787" lon="6.58943">
        <ele>21.2</ele>
        <time>2025-02-26T15:16:01Z</time>
      </trkpt>
      <trkpt lat="43.4787" lon="6.58943">
        <ele>21.3</ele>
        <time>2025-02-26T15:16:02Z</time>
      </trkpt>
      <trkpt lat="43.4787" lon="6.58943">
        <ele>21.3</ele>
        <time>2025-02-26T15:16:03Z</time>
      </trkpt>
      <trkpt lat="43.4787" lon="6.58943">
        <ele>21.4</ele>
        <time>2025-02-26T15:16:04Z</time>
      </trkpt>
      <trkpt lat="43.4787" lon="6.58943">
        <ele>21.4</ele>
        <time>2025-02-26T15:16:05Z</time>
      </trkpt>
      <trkpt lat="43.4787" lon="6.58943">
        <ele>21.3</ele>
        <time>2025-02-26T15:16:06Z</time>
      </trkpt>
      <trkpt lat="43.4787" lon="6.58943">
        <ele>21.2</ele>
        <time>2025-02-26T15:16:07Z</time>
      </trkpt>
      <trkpt lat="43.4787" lon="6.58943">
        <ele>21.1</ele>
        <time>2025-02-26T15:16:08Z</time>
      </trkpt>
      <trkpt lat="43.4787" lon="6.58943">
        <ele>21.1</ele>
        <time>2025-02-26T15:16:09Z</time>
      </trkpt>
      <trkpt lat="43.4787" lon="6.58943">
        <ele>21.1</ele>
        <time>2025-02-26T15:16:10Z</time>
      </trkpt>
      <trkpt lat="43.4787" lon="6.58943">
        <ele>21.2</ele>
        <time>2025-02-26T15:16:11Z</time>
      </trkpt>
      <trkpt lat="43.4787" lon="6.58943">
        <ele>21.2</ele>
        <time>2025-02-26T15:16:12Z</time>
      </trkpt>
      <trkpt lat="43.4787" lon="6.58943">
        <ele>21.3</ele>
        <time>2025-02-26T15:16:13Z</time>
      </trkpt>
      <trkpt lat="43.4787" lon="6.58943">
        <ele>21.3</ele>
        <time>2025-02-26T15:16:14Z</time>
      </trkpt>
      <trkpt lat="43.4787" lon="6.58943">
        <ele>21.4</ele>
        <time>2025-02-26T15:16:15Z</time>
      </trkpt>
      <trkpt lat="43.4787" lon="6.58943">
        <ele>21.5</ele>
        <time>2025-02-26T15:16:16Z</time>
      </trkpt>
      <trkpt lat="43.47869" lon="6.58943">
        <ele>21.4</ele>
        <time>2025-02-26T15:16:17Z</time>
      </trkpt>
      <trkpt lat="43.47869" lon="6.58942">
        <ele>21.3</ele>
        <time>2025-02-26T15:16:18Z</time>
      </trkpt>
      <trkpt lat="43.47869" lon="6.58942">
        <ele>21.3</ele>
        <time>2025-02-26T15:16:19Z</time>
      </trkpt>
      <trkpt lat="43.47869" lon="6.58942">
        <ele>21.4</ele>
        <time>2025-02-26T15:16:20Z</time>
      </trkpt>
      <trkpt lat="43.47869" lon="6.58942">
        <ele>21.4</ele>
        <time>2025-02-26T15:16:21Z</time>
      </trkpt>
      <trkpt lat="43.47869" lon="6.58942">
        <ele>21.5</ele>
        <time>2025-02-26T15:16:22Z</time>
      </trkpt>
      <trkpt lat="43.47869" lon="6.58942">
        <ele>21.6</ele>
        <time>2025-02-26T15:16:23Z</time>
      </trkpt>
      <trkpt lat="43.47869" lon="6.58941">
        <ele>21.6</ele>
        <time>2025-02-26T15:16:24Z</time>
      </trkpt>
      <trkpt lat="43.47869" lon="6.58941">
        <ele>21.6</ele>
        <time>2025-02-26T15:16:25Z</time>
      </trkpt>
      <trkpt lat="43.47869" lon="6.5894">
        <ele>21.6</ele>
        <time>2025-02-26T15:16:26Z</time>
      </trkpt>
      <trkpt lat="43.47869" lon="6.58939">
        <ele>21.7</ele>
        <time>2025-02-26T15:16:27Z</time>
      </trkpt>
      <trkpt lat="43.47869" lon="6.58938">
        <ele>21.7</ele>
        <time>2025-02-26T15:16:28Z</time>
      </trkpt>
      <trkpt lat="43.4787" lon="6.58936">
        <ele>21.7</ele>
        <time>2025-02-26T15:16:29Z</time>
      </trkpt>
      <trkpt lat="43.4787" lon="6.58935">
        <ele>21.7</ele>
        <time>2025-02-26T15:16:30Z</time>
      </trkpt>
      <trkpt lat="43.47871" lon="6.58934">
        <ele>21.8</ele>
        <time>2025-02-26T15:16:31Z</time>
      </trkpt>
      <trkpt lat="43.47871" lon="6.58933">
        <ele>22</ele>
        <time>2025-02-26T15:16:32Z</time>
      </trkpt>
      <trkpt lat="43.47872" lon="6.58931">
        <ele>22.1</ele>
        <time>2025-02-26T15:16:33Z</time>
      </trkpt>
      <trkpt lat="43.47873" lon="6.5893">
        <ele>22.3</ele>
        <time>2025-02-26T15:16:34Z</time>
      </trkpt>
      <trkpt lat="43.47874" lon="6.5893">
        <ele>22.3</ele>
        <time>2025-02-26T15:16:35Z</time>
      </trkpt>
      <trkpt lat="43.47874" lon="6.58929">
        <ele>22.3</ele>
        <time>2025-02-26T15:16:36Z</time>
      </trkpt>
      <trkpt lat="43.47875" lon="6.58928">
        <ele>22.3</ele>
        <time>2025-02-26T15:16:37Z</time>
      </trkpt>
      <trkpt lat="43.47876" lon="6.58928">
        <ele>22.4</ele>
        <time>2025-02-26T15:16:38Z</time>
      </trkpt>
      <trkpt lat="43.47876" lon="6.58928">
        <ele>22.5</ele>
        <time>2025-02-26T15:16:39Z</time>
      </trkpt>
      <trkpt lat="43.47877" lon="6.58928">
        <ele>22.5</ele>
        <time>2025-02-26T15:16:40Z</time>
      </trkpt>
      <trkpt lat="43.47878" lon="6.58928">
        <ele>22.6</ele>
        <time>2025-02-26T15:16:41Z</time>
      </trkpt>
      <trkpt lat="43.47879" lon="6.58929">
        <ele>22.7</ele>
        <time>2025-02-26T15:16:42Z</time>
      </trkpt>
      <trkpt lat="43.4788" lon="6.58929">
        <ele>22.8</ele>
        <time>2025-02-26T15:16:43Z</time>
      </trkpt>
      <trkpt lat="43.47881" lon="6.58929">
        <ele>22.8</ele>
        <time>2025-02-26T15:16:44Z</time>
      </trkpt>
      <trkpt lat="43.47882" lon="6.5893">
        <ele>22.9</ele>
        <time>2025-02-26T15:16:45Z</time>
      </trkpt>
      <trkpt lat="43.47883" lon="6.5893">
        <ele>22.9</ele>
        <time>2025-02-26T15:16:46Z</time>
      </trkpt>
      <trkpt lat="43.47885" lon="6.58931">
        <ele>22.9</ele>
        <time>2025-02-26T15:16:47Z</time>
      </trkpt>
      <trkpt lat="43.47886" lon="6.58931">
        <ele>23</ele>
        <time>2025-02-26T15:16:48Z</time>
      </trkpt>
      <trkpt lat="43.47887" lon="6.58931">
        <ele>23.1</ele>
        <time>2025-02-26T15:16:49Z</time>
      </trkpt>
      <trkpt lat="43.47888" lon="6.58931">
        <ele>23.2</ele>
        <time>2025-02-26T15:16:50Z</time>
      </trkpt>
      <trkpt lat="43.47889" lon="6.58931">
        <ele>23.2</ele>
        <time>2025-02-26T15:16:51Z</time>
      </trkpt>
      <trkpt lat="43.4789" lon="6.58931">
        <ele>23.2</ele>
        <time>2025-02-26T15:16:52Z</time>
      </trkpt>
      <trkpt lat="43.47891" lon="6.5893">
        <ele>23.1</ele>
        <time>2025-02-26T15:16:53Z</time>
      </trkpt>
      <trkpt lat="43.47892" lon="6.5893">
        <ele>23</ele>
        <time>2025-02-26T15:16:54Z</time>
      </trkpt>
      <trkpt lat="43.47893" lon="6.5893">
        <ele>23.1</ele>
        <time>2025-02-26T15:16:55Z</time>
      </trkpt>
      <trkpt lat="43.47895" lon="6.58929">
        <ele>23.2</ele>
        <time>2025-02-26T15:16:56Z</time>
      </trkpt>
      <trkpt lat="43.47896" lon="6.58928">
        <ele>23.2</ele>
        <time>2025-02-26T15:16:57Z</time>
      </trkpt>
      <trkpt lat="43.47897" lon="6.58928">
        <ele>23.2</ele>
        <time>2025-02-26T15:16:58Z</time>
      </trkpt>
      <trkpt lat="43.47898" lon="6.58927">
        <ele>23.3</ele>
        <time>2025-02-26T15:16:59Z</time>
      </trkpt>
      <trkpt lat="43.47899" lon="6.58926">
        <ele>23.3</ele>
        <time>2025-02-26T15:17:00Z</time>
      </trkpt>
      <trkpt lat="43.479" lon="6.58926">
        <ele>23.5</ele>
        <time>2025-02-26T15:17:01Z</time>
      </trkpt>
      <trkpt lat="43.47901" lon="6.58925">
        <ele>23.7</ele>
        <time>2025-02-26T15:17:02Z</time>
      </trkpt>
      <trkpt lat="43.47902" lon="6.58925">
        <ele>23.8</ele>
        <time>2025-02-26T15:17:03Z</time>
      </trkpt>
      <trkpt lat="43.47903" lon="6.58924">
        <ele>23.9</ele>
        <time>2025-02-26T15:17:04Z</time>
      </trkpt>
      <trkpt lat="43.47904" lon="6.58923">
        <ele>24</ele>
        <time>2025-02-26T15:17:05Z</time>
      </trkpt>
      <trkpt lat="43.47905" lon="6.58922">
        <ele>24</ele>
        <time>2025-02-26T15:17:06Z</time>
      </trkpt>
      <trkpt lat="43.47906" lon="6.58921">
        <ele>24.1</ele>
        <time>2025-02-26T15:17:07Z</time>
      </trkpt>
      <trkpt lat="43.47907" lon="6.58921">
        <ele>24.1</ele>
        <time>2025-02-26T15:17:08Z</time>
      </trkpt>
      <trkpt lat="43.47908" lon="6.5892">
        <ele>24.1</ele>
        <time>2025-02-26T15:17:09Z</time>
      </trkpt>
      <trkpt lat="43.47909" lon="6.58919">
        <ele>24.2</ele>
        <time>2025-02-26T15:17:10Z</time>
      </trkpt>
      <trkpt lat="43.4791" lon="6.58918">
        <ele>24.3</ele>
        <time>2025-02-26T15:17:11Z</time>
      </trkpt>
      <trkpt lat="43.47911" lon="6.58917">
        <ele>24.4</ele>
        <time>2025-02-26T15:17:12Z</time>
      </trkpt>
      <trkpt lat="43.47912" lon="6.58916">
        <ele>24.4</ele>
        <time>2025-02-26T15:17:13Z</time>
      </trkpt>
      <trkpt lat="43.47913" lon="6.58915">
        <ele>24.5</ele>
        <time>2025-02-26T15:17:14Z</time>
      </trkpt>
      <trkpt lat="43.47914" lon="6.58914">
        <ele>24.7</ele>
        <time>2025-02-26T15:17:15Z</time>
      </trkpt>
      <trkpt lat="43.47915" lon="6.58913">
        <ele>24.8</ele>
        <time>2025-02-26T15:17:16Z</time>
      </trkpt>
      <trkpt lat="43.47915" lon="6.58911">
        <ele>24.9</ele>
        <time>2025-02-26T15:17:17Z</time>
      </trkpt>
      <trkpt lat="43.47916" lon="6.5891">
        <ele>25</ele>
        <time>2025-02-26T15:17:18Z</time>
      </trkpt>
      <trkpt lat="43.47916" lon="6.58909">
        <ele>25</ele>
        <time>2025-02-26T15:17:19Z</time>
      </trkpt>
      <trkpt lat="43.47917" lon="6.58907">
        <ele>25</ele>
        <time>2025-02-26T15:17:20Z</time>
      </trkpt>
      <trkpt lat="43.47917" lon="6.58905">
        <ele>25.1</ele>
        <time>2025-02-26T15:17:21Z</time>
      </trkpt>
      <trkpt lat="43.47917" lon="6.58904">
        <ele>25.2</ele>
        <time>2025-02-26T15:17:22Z</time>
      </trkpt>
      <trkpt lat="43.47917" lon="6.58902">
        <ele>25.3</ele>
        <time>2025-02-26T15:17:23Z</time>
      </trkpt>
      <trkpt lat="43.47918" lon="6.58901">
        <ele>25.5</ele>
        <time>2025-02-26T15:17:24Z</time>
      </trkpt>
      <trkpt lat="43.47918" lon="6.58899">
        <ele>25.7</ele>
        <time>2025-02-26T15:17:25Z</time>
      </trkpt>
      <trkpt lat="43.47918" lon="6.58898">
        <ele>25.7</ele>
        <time>2025-02-26T15:17:26Z</time>
      </trkpt>
      <trkpt lat="43.47919" lon="6.58897">
        <ele>25.8</ele>
        <time>2025-02-26T15:17:27Z</time>
      </trkpt>
      <trkpt lat="43.47919" lon="6.58896">
        <ele>25.9</ele>
        <time>2025-02-26T15:17:28Z</time>
      </trkpt>
      <trkpt lat="43.4792" lon="6.58895">
        <ele>26.1</ele>
        <time>2025-02-26T15:17:29Z</time>
      </trkpt>
      <trkpt lat="43.47921" lon="6.58894">
        <ele>26.2</ele>
        <time>2025-02-26T15:17:30Z</time>
      </trkpt>
      <trkpt lat="43.47921" lon="6.58893">
        <ele>26.3</ele>
        <time>2025-02-26T15:17:31Z</time>
      </trkpt>
      <trkpt lat="43.47922" lon="6.58892">
        <ele>26.5</ele>
        <time>2025-02-26T15:17:32Z</time>
      </trkpt>
      <trkpt lat="43.47923" lon="6.58891">
        <ele>26.7</ele>
        <time>2025-02-26T15:17:33Z</time>
      </trkpt>
      <trkpt lat="43.47924" lon="6.58891">
        <ele>26.7</ele>
        <time>2025-02-26T15:17:34Z</time>
      </trkpt>
      <trkpt lat="43.47925" lon="6.5889">
        <ele>26.8</ele>
        <time>2025-02-26T15:17:35Z</time>
      </trkpt>
      <trkpt lat="43.47926" lon="6.58889">
        <ele>26.9</ele>
        <time>2025-02-26T15:17:36Z</time>
      </trkpt>
      <trkpt lat="43.47927" lon="6.58888">
        <ele>26.8</ele>
        <time>2025-02-26T15:17:37Z</time>
      </trkpt>
      <trkpt lat="43.47928" lon="6.58887">
        <ele>27</ele>
        <time>2025-02-26T15:17:38Z</time>
      </trkpt>
      <trkpt lat="43.47928" lon="6.58886">
        <ele>27.1</ele>
        <time>2025-02-26T15:17:39Z</time>
      </trkpt>
      <trkpt lat="43.47929" lon="6.58885">
        <ele>27.1</ele>
        <time>2025-02-26T15:17:40Z</time>
      </trkpt>
      <trkpt lat="43.4793" lon="6.58884">
        <ele>27.1</ele>
        <time>2025-02-26T15:17:41Z</time>
      </trkpt>
      <trkpt lat="43.47931" lon="6.58884">
        <ele>27.2</ele>
        <time>2025-02-26T15:17:42Z</time>
      </trkpt>
      <trkpt lat="43.47931" lon="6.58883">
        <ele>27.3</ele>
        <time>2025-02-26T15:17:43Z</time>
      </trkpt>
      <trkpt lat="43.47932" lon="6.58882">
        <ele>27.3</ele>
        <time>2025-02-26T15:17:44Z</time>
      </trkpt>
      <trkpt lat="43.47932" lon="6.58881">
        <ele>27.4</ele>
        <time>2025-02-26T15:17:45Z</time>
      </trkpt>
      <trkpt lat="43.47933" lon="6.5888">
        <ele>27.5</ele>
        <time>2025-02-26T15:17:46Z</time>
      </trkpt>
      <trkpt lat="43.47933" lon="6.58879">
        <ele>27.5</ele>
        <time>2025-02-26T15:17:47Z</time>
      </trkpt>
      <trkpt lat="43.47934" lon="6.58878">
        <ele>27.6</ele>
        <time>2025-02-26T15:17:48Z</time>
      </trkpt>
      <trkpt lat="43.47934" lon="6.58876">
        <ele>27.7</ele>
        <time>2025-02-26T15:17:49Z</time>
      </trkpt>
      <trkpt lat="43.47934" lon="6.58875">
        <ele>27.8</ele>
        <time>2025-02-26T15:17:50Z</time>
      </trkpt>
      <trkpt lat="43.47935" lon="6.58874">
        <ele>28</ele>
        <time>2025-02-26T15:17:51Z</time>
      </trkpt>
      <trkpt lat="43.47935" lon="6.58872">
        <ele>28.1</ele>
        <time>2025-02-26T15:17:52Z</time>
      </trkpt>
      <trkpt lat="43.47935" lon="6.58871">
        <ele>28.3</ele>
        <time>2025-02-26T15:17:53Z</time>
      </trkpt>
      <trkpt lat="43.47935" lon="6.58869">
        <ele>28.5</ele>
        <time>2025-02-26T15:17:54Z</time>
      </trkpt>
      <trkpt lat="43.47935" lon="6.58868">
        <ele>28.6</ele>
        <time>2025-02-26T15:17:55Z</time>
      </trkpt>
      <trkpt lat="43.47936" lon="6.58866">
        <ele>28.8</ele>
        <time>2025-02-26T15:17:56Z</time>
      </trkpt>
      <trkpt lat="43.47936" lon="6.58865">
        <ele>28.8</ele>
        <time>2025-02-26T15:17:57Z</time>
      </trkpt>
      <trkpt lat="43.47937" lon="6.58863">
        <ele>29</ele>
        <time>2025-02-26T15:17:58Z</time>
      </trkpt>
      <trkpt lat="43.47937" lon="6.58862">
        <ele>29.1</ele>
        <time>2025-02-26T15:17:59Z</time>
      </trkpt>
      <trkpt lat="43.47938" lon="6.58861">
        <ele>29.1</ele>
        <time>2025-02-26T15:18:00Z</time>
      </trkpt>
      <trkpt lat="43.47938" lon="6.5886">
        <ele>29.3</ele>
        <time>2025-02-26T15:18:01Z</time>
      </trkpt>
      <trkpt lat="43.47939" lon="6.58859">
        <ele>29.5</ele>
        <time>2025-02-26T15:18:02Z</time>
      </trkpt>
      <trkpt lat="43.4794" lon="6.58857">
        <ele>29.6</ele>
        <time>2025-02-26T15:18:03Z</time>
      </trkpt>
      <trkpt lat="43.4794" lon="6.58856">
        <ele>29.7</ele>
        <time>2025-02-26T15:18:04Z</time>
      </trkpt>
      <trkpt lat="43.47941" lon="6.58855">
        <ele>29.7</ele>
        <time>2025-02-26T15:18:05Z</time>
      </trkpt>
      <trkpt lat="43.47941" lon="6.58853">
        <ele>29.8</ele>
        <time>2025-02-26T15:18:06Z</time>
      </trkpt>
      <trkpt lat="43.47942" lon="6.58852">
        <ele>29.8</ele>
        <time>2025-02-26T15:18:07Z</time>
      </trkpt>
      <trkpt lat="43.47943" lon="6.58851">
        <ele>29.9</ele>
        <time>2025-02-26T15:18:08Z</time>
      </trkpt>
      <trkpt lat="43.47943" lon="6.5885">
        <ele>29.9</ele>
        <time>2025-02-26T15:18:09Z</time>
      </trkpt>
      <trkpt lat="43.47943" lon="6.58848">
        <ele>30.1</ele>
        <time>2025-02-26T15:18:10Z</time>
      </trkpt>
      <trkpt lat="43.47943" lon="6.58847">
        <ele>30.2</ele>
        <time>2025-02-26T15:18:11Z</time>
      </trkpt>
      <trkpt lat="43.47944" lon="6.58846">
        <ele>30.3</ele>
        <time>2025-02-26T15:18:12Z</time>
      </trkpt>
      <trkpt lat="43.47944" lon="6.58844">
        <ele>30.4</ele>
        <time>2025-02-26T15:18:13Z</time>
      </trkpt>
      <trkpt lat="43.47945" lon="6.58843">
        <ele>30.6</ele>
        <time>2025-02-26T15:18:14Z</time>
      </trkpt>
      <trkpt lat="43.47945" lon="6.58842">
        <ele>30.7</ele>
        <time>2025-02-26T15:18:15Z</time>
      </trkpt>
      <trkpt lat="43.47945" lon="6.58841">
        <ele>30.8</ele>
        <time>2025-02-26T15:18:16Z</time>
      </trkpt>
      <trkpt lat="43.47946" lon="6.58839">
        <ele>30.8</ele>
        <time>2025-02-26T15:18:17Z</time>
      </trkpt>
      <trkpt lat="43.47946" lon="6.58838">
        <ele>30.9</ele>
        <time>2025-02-26T15:18:18Z</time>
      </trkpt>
      <trkpt lat="43.47947" lon="6.58837">
        <ele>31.1</ele>
        <time>2025-02-26T15:18:19Z</time>
      </trkpt>
      <trkpt lat="43.47947" lon="6.58836">
        <ele>31.2</ele>
        <time>2025-02-26T15:18:20Z</time>
      </trkpt>
      <trkpt lat="43.47948" lon="6.58835">
        <ele>31.2</ele>
        <time>2025-02-26T15:18:21Z</time>
      </trkpt>
      <trkpt lat="43.47949" lon="6.58834">
        <ele>31.3</ele>
        <time>2025-02-26T15:18:22Z</time>
      </trkpt>
      <trkpt lat="43.47949" lon="6.58832">
        <ele>31.4</ele>
        <time>2025-02-26T15:18:23Z</time>
      </trkpt>
      <trkpt lat="43.47949" lon="6.5883">
        <ele>31.4</ele>
        <time>2025-02-26T15:18:24Z</time>
      </trkpt>
      <trkpt lat="43.4795" lon="6.58829">
        <ele>31.4</ele>
        <time>2025-02-26T15:18:25Z</time>
      </trkpt>
      <trkpt lat="43.4795" lon="6.58828">
        <ele>31.5</ele>
        <time>2025-02-26T15:18:26Z</time>
      </trkpt>
      <trkpt lat="43.47951" lon="6.58827">
        <ele>31.5</ele>
        <time>2025-02-26T15:18:27Z</time>
      </trkpt>
      <trkpt lat="43.47952" lon="6.58825">
        <ele>31.6</ele>
        <time>2025-02-26T15:18:28Z</time>
      </trkpt>
      <trkpt lat="43.47953" lon="6.58824">
        <ele>31.7</ele>
        <time>2025-02-26T15:18:29Z</time>
      </trkpt>
      <trkpt lat="43.47953" lon="6.58822">
        <ele>31.7</ele>
        <time>2025-02-26T15:18:30Z</time>
      </trkpt>
      <trkpt lat="43.47954" lon="6.58821">
        <ele>31.8</ele>
        <time>2025-02-26T15:18:31Z</time>
      </trkpt>
      <trkpt lat="43.47954" lon="6.58819">
        <ele>31.9</ele>
        <time>2025-02-26T15:18:32Z</time>
      </trkpt>
      <trkpt lat="43.47955" lon="6.58818">
        <ele>31.9</ele>
        <time>2025-02-26T15:18:33Z</time>
      </trkpt>
      <trkpt lat="43.47956" lon="6.58816">
        <ele>32.1</ele>
        <time>2025-02-26T15:18:34Z</time>
      </trkpt>
      <trkpt lat="43.47957" lon="6.58814">
        <ele>32.3</ele>
        <time>2025-02-26T15:18:35Z</time>
      </trkpt>
      <trkpt lat="43.47957" lon="6.58812">
        <ele>32.5</ele>
        <time>2025-02-26T15:18:36Z</time>
      </trkpt>
      <trkpt lat="43.47959" lon="6.58811">
        <ele>32.8</ele>
        <time>2025-02-26T15:18:37Z</time>
      </trkpt>
      <trkpt lat="43.47959" lon="6.5881">
        <ele>32.8</ele>
        <time>2025-02-26T15:18:38Z</time>
      </trkpt>
      <trkpt lat="43.4796" lon="6.58808">
        <ele>32.9</ele>
        <time>2025-02-26T15:18:39Z</time>
      </trkpt>
      <trkpt lat="43.47961" lon="6.58807">
        <ele>33</ele>
        <time>2025-02-26T15:18:40Z</time>
      </trkpt>
      <trkpt lat="43.47962" lon="6.58805">
        <ele>33.1</ele>
        <time>2025-02-26T15:18:41Z</time>
      </trkpt>
      <trkpt lat="43.47963" lon="6.58804">
        <ele>33.2</ele>
        <time>2025-02-26T15:18:42Z</time>
      </trkpt>
      <trkpt lat="43.47964" lon="6.58803">
        <ele>33.3</ele>
        <time>2025-02-26T15:18:43Z</time>
      </trkpt>
      <trkpt lat="43.47966" lon="6.58801">
        <ele>33.4</ele>
        <time>2025-02-26T15:18:44Z</time>
      </trkpt>
      <trkpt lat="43.47967" lon="6.588">
        <ele>33.4</ele>
        <time>2025-02-26T15:18:45Z</time>
      </trkpt>
      <trkpt lat="43.47968" lon="6.58798">
        <ele>33.4</ele>
        <time>2025-02-26T15:18:46Z</time>
      </trkpt>
      <trkpt lat="43.47969" lon="6.58797">
        <ele>33.5</ele>
        <time>2025-02-26T15:18:47Z</time>
      </trkpt>
      <trkpt lat="43.47969" lon="6.58797">
        <ele>33.6</ele>
        <time>2025-02-26T15:18:48Z</time>
      </trkpt>
      <trkpt lat="43.47969" lon="6.58796">
        <ele>33.7</ele>
        <time>2025-02-26T15:18:49Z</time>
      </trkpt>
      <trkpt lat="43.47969" lon="6.58796">
        <ele>33.9</ele>
        <time>2025-02-26T15:18:50Z</time>
      </trkpt>
      <trkpt lat="43.47969" lon="6.58796">
        <ele>34</ele>
        <time>2025-02-26T15:18:51Z</time>
      </trkpt>
      <trkpt lat="43.4797" lon="6.58796">
        <ele>34.1</ele>
        <time>2025-02-26T15:18:52Z</time>
      </trkpt>
      <trkpt lat="43.47969" lon="6.58796">
        <ele>34.2</ele>
        <time>2025-02-26T15:18:53Z</time>
      </trkpt>
      <trkpt lat="43.47969" lon="6.58795">
        <ele>34.2</ele>
        <time>2025-02-26T15:18:54Z</time>
      </trkpt>
      <trkpt lat="43.47969" lon="6.58795">
        <ele>34.2</ele>
        <time>2025-02-26T15:18:55Z</time>
      </trkpt>
      <trkpt lat="43.47969" lon="6.58795">
        <ele>34.2</ele>
        <time>2025-02-26T15:18:56Z</time>
      </trkpt>
      <trkpt lat="43.47969" lon="6.58795">
        <ele>34.2</ele>
        <time>2025-02-26T15:18:57Z</time>
      </trkpt>
      <trkpt lat="43.47969" lon="6.58795">
        <ele>34.3</ele>
        <time>2025-02-26T15:18:58Z</time>
      </trkpt>
      <trkpt lat="43.47969" lon="6.58795">
        <ele>34.3</ele>
        <time>2025-02-26T15:18:59Z</time>
      </trkpt>
      <trkpt lat="43.47969" lon="6.58795">
        <ele>34.3</ele>
        <time>2025-02-26T15:19:00Z</time>
      </trkpt>
      <trkpt lat="43.4797" lon="6.58794">
        <ele>34.3</ele>
        <time>2025-02-26T15:19:01Z</time>
      </trkpt>
      <trkpt lat="43.4797" lon="6.58793">
        <ele>34.4</ele>
        <time>2025-02-26T15:19:02Z</time>
      </trkpt>
      <trkpt lat="43.47971" lon="6.58792">
        <ele>34.4</ele>
        <time>2025-02-26T15:19:03Z</time>
      </trkpt>
      <trkpt lat="43.47972" lon="6.58791">
        <ele>34.4</ele>
        <time>2025-02-26T15:19:04Z</time>
      </trkpt>
      <trkpt lat="43.47972" lon="6.5879">
        <ele>34.4</ele>
        <time>2025-02-26T15:19:05Z</time>
      </trkpt>
      <trkpt lat="43.47973" lon="6.58789">
        <ele>34.6</ele>
        <time>2025-02-26T15:19:06Z</time>
      </trkpt>
      <trkpt lat="43.47973" lon="6.58788">
        <ele>34.6</ele>
        <time>2025-02-26T15:19:07Z</time>
      </trkpt>
      <trkpt lat="43.47974" lon="6.58787">
        <ele>34.5</ele>
        <time>2025-02-26T15:19:08Z</time>
      </trkpt>
      <trkpt lat="43.47975" lon="6.58786">
        <ele>34.5</ele>
        <time>2025-02-26T15:19:09Z</time>
      </trkpt>
      <trkpt lat="43.47976" lon="6.58785">
        <ele>34.6</ele>
        <time>2025-02-26T15:19:10Z</time>
      </trkpt>
      <trkpt lat="43.47976" lon="6.58784">
        <ele>34.7</ele>
        <time>2025-02-26T15:19:11Z</time>
      </trkpt>
      <trkpt lat="43.47977" lon="6.58783">
        <ele>34.6</ele>
        <time>2025-02-26T15:19:12Z</time>
      </trkpt>
      <trkpt lat="43.47977" lon="6.58782">
        <ele>34.6</ele>
        <time>2025-02-26T15:19:13Z</time>
      </trkpt>
      <trkpt lat="43.47978" lon="6.58781">
        <ele>34.8</ele>
        <time>2025-02-26T15:19:14Z</time>
      </trkpt>
      <trkpt lat="43.47979" lon="6.58779">
        <ele>35</ele>
        <time>2025-02-26T15:19:15Z</time>
      </trkpt>
      <trkpt lat="43.47979" lon="6.58778">
        <ele>35.1</ele>
        <time>2025-02-26T15:19:16Z</time>
      </trkpt>
      <trkpt lat="43.4798" lon="6.58777">
        <ele>35.3</ele>
        <time>2025-02-26T15:19:17Z</time>
      </trkpt>
      <trkpt lat="43.4798" lon="6.58776">
        <ele>35.4</ele>
        <time>2025-02-26T15:19:18Z</time>
      </trkpt>
      <trkpt lat="43.47981" lon="6.58774">
        <ele>35.6</ele>
        <time>2025-02-26T15:19:19Z</time>
      </trkpt>
      <trkpt lat="43.47981" lon="6.58773">
        <ele>35.8</ele>
        <time>2025-02-26T15:19:20Z</time>
      </trkpt>
      <trkpt lat="43.47982" lon="6.58772">
        <ele>36.1</ele>
        <time>2025-02-26T15:19:21Z</time>
      </trkpt>
      <trkpt lat="43.47983" lon="6.58771">
        <ele>36.2</ele>
        <time>2025-02-26T15:19:22Z</time>
      </trkpt>
      <trkpt lat="43.47984" lon="6.5877">
        <ele>36.4</ele>
        <time>2025-02-26T15:19:23Z</time>
      </trkpt>
      <trkpt lat="43.47985" lon="6.58769">
        <ele>36.5</ele>
        <time>2025-02-26T15:19:24Z</time>
      </trkpt>
      <trkpt lat="43.47986" lon="6.58768">
        <ele>36.7</ele>
        <time>2025-02-26T15:19:25Z</time>
      </trkpt>
      <trkpt lat="43.47987" lon="6.58767">
        <ele>36.8</ele>
        <time>2025-02-26T15:19:26Z</time>
      </trkpt>
      <trkpt lat="43.47987" lon="6.58766">
        <ele>36.8</ele>
        <time>2025-02-26T15:19:27Z</time>
      </trkpt>
      <trkpt lat="43.47988" lon="6.58765">
        <ele>36.8</ele>
        <time>2025-02-26T15:19:28Z</time>
      </trkpt>
      <trkpt lat="43.47989" lon="6.58764">
        <ele>36.8</ele>
        <time>2025-02-26T15:19:29Z</time>
      </trkpt>
      <trkpt lat="43.4799" lon="6.58763">
        <ele>36.9</ele>
        <time>2025-02-26T15:19:30Z</time>
      </trkpt>
      <trkpt lat="43.4799" lon="6.58762">
        <ele>37</ele>
        <time>2025-02-26T15:19:31Z</time>
      </trkpt>
      <trkpt lat="43.47991" lon="6.58761">
        <ele>37.2</ele>
        <time>2025-02-26T15:19:32Z</time>
      </trkpt>
      <trkpt lat="43.47992" lon="6.5876">
        <ele>37.3</ele>
        <time>2025-02-26T15:19:33Z</time>
      </trkpt>
      <trkpt lat="43.47993" lon="6.58758">
        <ele>37.4</ele>
        <time>2025-02-26T15:19:34Z</time>
      </trkpt>
      <trkpt lat="43.47994" lon="6.58757">
        <ele>37.6</ele>
        <time>2025-02-26T15:19:35Z</time>
      </trkpt>
      <trkpt lat="43.47995" lon="6.58756">
        <ele>37.8</ele>
        <time>2025-02-26T15:19:36Z</time>
      </trkpt>
      <trkpt lat="43.47996" lon="6.58755">
        <ele>38</ele>
        <time>2025-02-26T15:19:37Z</time>
      </trkpt>
      <trkpt lat="43.47995" lon="6.58753">
        <ele>38.2</ele>
        <time>2025-02-26T15:19:38Z</time>
      </trkpt>
      <trkpt lat="43.47996" lon="6.58752">
        <ele>38.3</ele>
        <time>2025-02-26T15:19:39Z</time>
      </trkpt>
      <trkpt lat="43.47997" lon="6.58751">
        <ele>38.4</ele>
        <time>2025-02-26T15:19:40Z</time>
      </trkpt>
      <trkpt lat="43.47998" lon="6.5875">
        <ele>38.6</ele>
        <time>2025-02-26T15:19:41Z</time>
      </trkpt>
      <trkpt lat="43.47998" lon="6.58749">
        <ele>38.8</ele>
        <time>2025-02-26T15:19:42Z</time>
      </trkpt>
      <trkpt lat="43.47999" lon="6.58748">
        <ele>39.1</ele>
        <time>2025-02-26T15:19:43Z</time>
      </trkpt>
      <trkpt lat="43.48" lon="6.58746">
        <ele>39.3</ele>
        <time>2025-02-26T15:19:44Z</time>
      </trkpt>
      <trkpt lat="43.48001" lon="6.58745">
        <ele>39.3</ele>
        <time>2025-02-26T15:19:45Z</time>
      </trkpt>
      <trkpt lat="43.48001" lon="6.58744">
        <ele>39.4</ele>
        <time>2025-02-26T15:19:46Z</time>
      </trkpt>
      <trkpt lat="43.48002" lon="6.58743">
        <ele>39.4</ele>
        <time>2025-02-26T15:19:47Z</time>
      </trkpt>
      <trkpt lat="43.48002" lon="6.58742">
        <ele>39.4</ele>
        <time>2025-02-26T15:19:48Z</time>
      </trkpt>
      <trkpt lat="43.48004" lon="6.5874">
        <ele>39.4</ele>
        <time>2025-02-26T15:19:49Z</time>
      </trkpt>
      <trkpt lat="43.48004" lon="6.58738">
        <ele>39.7</ele>
        <time>2025-02-26T15:19:50Z</time>
      </trkpt>
      <trkpt lat="43.48005" lon="6.58737">
        <ele>39.7</ele>
        <time>2025-02-26T15:19:51Z</time>
      </trkpt>
      <trkpt lat="43.48005" lon="6.58735">
        <ele>39.8</ele>
        <time>2025-02-26T15:19:52Z</time>
      </trkpt>
      <trkpt lat="43.48006" lon="6.58734">
        <ele>39.8</ele>
        <time>2025-02-26T15:19:53Z</time>
      </trkpt>
      <trkpt lat="43.48006" lon="6.58732">
        <ele>40</ele>
        <time>2025-02-26T15:19:54Z</time>
      </trkpt>
      <trkpt lat="43.48007" lon="6.58731">
        <ele>40.2</ele>
        <time>2025-02-26T15:19:55Z</time>
      </trkpt>
      <trkpt lat="43.48007" lon="6.58729">
        <ele>40.4</ele>
        <time>2025-02-26T15:19:56Z</time>
      </trkpt>
      <trkpt lat="43.48007" lon="6.58728">
        <ele>40.5</ele>
        <time>2025-02-26T15:19:57Z</time>
      </trkpt>
      <trkpt lat="43.48007" lon="6.58727">
        <ele>40.6</ele>
        <time>2025-02-26T15:19:58Z</time>
      </trkpt>
      <trkpt lat="43.48008" lon="6.58725">
        <ele>40.7</ele>
        <time>2025-02-26T15:19:59Z</time>
      </trkpt>
      <trkpt lat="43.48008" lon="6.58724">
        <ele>40.8</ele>
        <time>2025-02-26T15:20:00Z</time>
      </trkpt>
      <trkpt lat="43.48008" lon="6.58722">
        <ele>40.8</ele>
        <time>2025-02-26T15:20:01Z</time>
      </trkpt>
      <trkpt lat="43.48008" lon="6.58721">
        <ele>40.8</ele>
        <time>2025-02-26T15:20:02Z</time>
      </trkpt>
      <trkpt lat="43.48009" lon="6.5872">
        <ele>40.8</ele>
        <time>2025-02-26T15:20:03Z</time>
      </trkpt>
      <trkpt lat="43.48009" lon="6.58718">
        <ele>40.9</ele>
        <time>2025-02-26T15:20:04Z</time>
      </trkpt>
      <trkpt lat="43.48009" lon="6.58717">
        <ele>41.2</ele>
        <time>2025-02-26T15:20:05Z</time>
      </trkpt>
      <trkpt lat="43.48009" lon="6.58715">
        <ele>41.3</ele>
        <time>2025-02-26T15:20:06Z</time>
      </trkpt>
      <trkpt lat="43.48009" lon="6.58714">
        <ele>41.4</ele>
        <time>2025-02-26T15:20:07Z</time>
      </trkpt>
      <trkpt lat="43.48009" lon="6.58712">
        <ele>41.5</ele>
        <time>2025-02-26T15:20:08Z</time>
      </trkpt>
      <trkpt lat="43.4801" lon="6.58711">
        <ele>41.6</ele>
        <time>2025-02-26T15:20:09Z</time>
      </trkpt>
      <trkpt lat="43.4801" lon="6.58709">
        <ele>41.7</ele>
        <time>2025-02-26T15:20:10Z</time>
      </trkpt>
      <trkpt lat="43.4801" lon="6.58708">
        <ele>41.7</ele>
        <time>2025-02-26T15:20:11Z</time>
      </trkpt>
      <trkpt lat="43.4801" lon="6.58706">
        <ele>41.8</ele>
        <time>2025-02-26T15:20:12Z</time>
      </trkpt>
      <trkpt lat="43.4801" lon="6.58705">
        <ele>41.9</ele>
        <time>2025-02-26T15:20:13Z</time>
      </trkpt>
      <trkpt lat="43.48011" lon="6.58703">
        <ele>41.9</ele>
        <time>2025-02-26T15:20:14Z</time>
      </trkpt>
      <trkpt lat="43.48011" lon="6.58701">
        <ele>42</ele>
        <time>2025-02-26T15:20:15Z</time>
      </trkpt>
      <trkpt lat="43.48011" lon="6.587">
        <ele>42.1</ele>
        <time>2025-02-26T15:20:16Z</time>
      </trkpt>
      <trkpt lat="43.48012" lon="6.58698">
        <ele>42.2</ele>
        <time>2025-02-26T15:20:17Z</time>
      </trkpt>
      <trkpt lat="43.48012" lon="6.58696">
        <ele>42.3</ele>
        <time>2025-02-26T15:20:18Z</time>
      </trkpt>
      <trkpt lat="43.48013" lon="6.58695">
        <ele>42.4</ele>
        <time>2025-02-26T15:20:19Z</time>
      </trkpt>
      <trkpt lat="43.48013" lon="6.58693">
        <ele>42.5</ele>
        <time>2025-02-26T15:20:20Z</time>
      </trkpt>
      <trkpt lat="43.48014" lon="6.58692">
        <ele>42.4</ele>
        <time>2025-02-26T15:20:21Z</time>
      </trkpt>
      <trkpt lat="43.48014" lon="6.5869">
        <ele>42.4</ele>
        <time>2025-02-26T15:20:22Z</time>
      </trkpt>
      <trkpt lat="43.48014" lon="6.58689">
        <ele>42.5</ele>
        <time>2025-02-26T15:20:23Z</time>
      </trkpt>
      <trkpt lat="43.48015" lon="6.58687">
        <ele>42.6</ele>
        <time>2025-02-26T15:20:24Z</time>
      </trkpt>
      <trkpt lat="43.48015" lon="6.58686">
        <ele>42.6</ele>
        <time>2025-02-26T15:20:25Z</time>
      </trkpt>
      <trkpt lat="43.48016" lon="6.58684">
        <ele>42.8</ele>
        <time>2025-02-26T15:20:26Z</time>
      </trkpt>
      <trkpt lat="43.48016" lon="6.58683">
        <ele>42.8</ele>
        <time>2025-02-26T15:20:27Z</time>
      </trkpt>
      <trkpt lat="43.48017" lon="6.58681">
        <ele>42.9</ele>
        <time>2025-02-26T15:20:28Z</time>
      </trkpt>
      <trkpt lat="43.48017" lon="6.5868">
        <ele>42.9</ele>
        <time>2025-02-26T15:20:29Z</time>
      </trkpt>
      <trkpt lat="43.48018" lon="6.58678">
        <ele>43</ele>
        <time>2025-02-26T15:20:30Z</time>
      </trkpt>
      <trkpt lat="43.48018" lon="6.58677">
        <ele>43.1</ele>
        <time>2025-02-26T15:20:31Z</time>
      </trkpt>
      <trkpt lat="43.48019" lon="6.58676">
        <ele>43.3</ele>
        <time>2025-02-26T15:20:32Z</time>
      </trkpt>
      <trkpt lat="43.48019" lon="6.58674">
        <ele>43.6</ele>
        <time>2025-02-26T15:20:33Z</time>
      </trkpt>
      <trkpt lat="43.4802" lon="6.58673">
        <ele>43.9</ele>
        <time>2025-02-26T15:20:34Z</time>
      </trkpt>
      <trkpt lat="43.4802" lon="6.58672">
        <ele>44.1</ele>
        <time>2025-02-26T15:20:35Z</time>
      </trkpt>
      <trkpt lat="43.48021" lon="6.58671">
        <ele>44.3</ele>
        <time>2025-02-26T15:20:36Z</time>
      </trkpt>
      <trkpt lat="43.48022" lon="6.5867">
        <ele>44.4</ele>
        <time>2025-02-26T15:20:37Z</time>
      </trkpt>
      <trkpt lat="43.48022" lon="6.58669">
        <ele>44.5</ele>
        <time>2025-02-26T15:20:38Z</time>
      </trkpt>
      <trkpt lat="43.48023" lon="6.58667">
        <ele>44.6</ele>
        <time>2025-02-26T15:20:39Z</time>
      </trkpt>
      <trkpt lat="43.48024" lon="6.58666">
        <ele>44.7</ele>
        <time>2025-02-26T15:20:40Z</time>
      </trkpt>
      <trkpt lat="43.48025" lon="6.58665">
        <ele>44.8</ele>
        <time>2025-02-26T15:20:41Z</time>
      </trkpt>
      <trkpt lat="43.48026" lon="6.58664">
        <ele>44.9</ele>
        <time>2025-02-26T15:20:42Z</time>
      </trkpt>
      <trkpt lat="43.48027" lon="6.58663">
        <ele>45</ele>
        <time>2025-02-26T15:20:43Z</time>
      </trkpt>
      <trkpt lat="43.48028" lon="6.58662">
        <ele>45</ele>
        <time>2025-02-26T15:20:44Z</time>
      </trkpt>
      <trkpt lat="43.48029" lon="6.58661">
        <ele>45.1</ele>
        <time>2025-02-26T15:20:45Z</time>
      </trkpt>
      <trkpt lat="43.4803" lon="6.5866">
        <ele>45.2</ele>
        <time>2025-02-26T15:20:46Z</time>
      </trkpt>
      <trkpt lat="43.48031" lon="6.58659">
        <ele>45.3</ele>
        <time>2025-02-26T15:20:47Z</time>
      </trkpt>
      <trkpt lat="43.48032" lon="6.58658">
        <ele>45.3</ele>
        <time>2025-02-26T15:20:48Z</time>
      </trkpt>
      <trkpt lat="43.48032" lon="6.58657">
        <ele>45.5</ele>
        <time>2025-02-26T15:20:49Z</time>
      </trkpt>
      <trkpt lat="43.48033" lon="6.58655">
        <ele>45.6</ele>
        <time>2025-02-26T15:20:50Z</time>
      </trkpt>
      <trkpt lat="43.48034" lon="6.58654">
        <ele>45.6</ele>
        <time>2025-02-26T15:20:51Z</time>
      </trkpt>
      <trkpt lat="43.48035" lon="6.58653">
        <ele>45.9</ele>
        <time>2025-02-26T15:20:52Z</time>
      </trkpt>
      <trkpt lat="43.48036" lon="6.58652">
        <ele>46.1</ele>
        <time>2025-02-26T15:20:53Z</time>
      </trkpt>
      <trkpt lat="43.48037" lon="6.58651">
        <ele>46.3</ele>
        <time>2025-02-26T15:20:54Z</time>
      </trkpt>
      <trkpt lat="43.48038" lon="6.5865">
        <ele>46.4</ele>
        <time>2025-02-26T15:20:55Z</time>
      </trkpt>
      <trkpt lat="43.48039" lon="6.58649">
        <ele>46.5</ele>
        <time>2025-02-26T15:20:56Z</time>
      </trkpt>
      <trkpt lat="43.4804" lon="6.58648">
        <ele>46.5</ele>
        <time>2025-02-26T15:20:57Z</time>
      </trkpt>
      <trkpt lat="43.4804" lon="6.58646">
        <ele>46.6</ele>
        <time>2025-02-26T15:20:58Z</time>
      </trkpt>
      <trkpt lat="43.48041" lon="6.58645">
        <ele>46.7</ele>
        <time>2025-02-26T15:20:59Z</time>
      </trkpt>
      <trkpt lat="43.48042" lon="6.58645">
        <ele>46.8</ele>
        <time>2025-02-26T15:21:00Z</time>
      </trkpt>
      <trkpt lat="43.48043" lon="6.58643">
        <ele>46.8</ele>
        <time>2025-02-26T15:21:01Z</time>
      </trkpt>
      <trkpt lat="43.48044" lon="6.58642">
        <ele>46.9</ele>
        <time>2025-02-26T15:21:02Z</time>
      </trkpt>
      <trkpt lat="43.48045" lon="6.58641">
        <ele>47</ele>
        <time>2025-02-26T15:21:03Z</time>
      </trkpt>
      <trkpt lat="43.48045" lon="6.58639">
        <ele>47.2</ele>
        <time>2025-02-26T15:21:04Z</time>
      </trkpt>
      <trkpt lat="43.48046" lon="6.58638">
        <ele>47.2</ele>
        <time>2025-02-26T15:21:05Z</time>
      </trkpt>
      <trkpt lat="43.48047" lon="6.58637">
        <ele>47.4</ele>
        <time>2025-02-26T15:21:06Z</time>
      </trkpt>
      <trkpt lat="43.48047" lon="6.58635">
        <ele>47.6</ele>
        <time>2025-02-26T15:21:07Z</time>
      </trkpt>
      <trkpt lat="43.48048" lon="6.58634">
        <ele>47.6</ele>
        <time>2025-02-26T15:21:08Z</time>
      </trkpt>
      <trkpt lat="43.48049" lon="6.58633">
        <ele>47.6</ele>
        <time>2025-02-26T15:21:09Z</time>
      </trkpt>
      <trkpt lat="43.4805" lon="6.58631">
        <ele>47.7</ele>
        <time>2025-02-26T15:21:10Z</time>
      </trkpt>
      <trkpt lat="43.4805" lon="6.5863">
        <ele>47.9</ele>
        <time>2025-02-26T15:21:11Z</time>
      </trkpt>
      <trkpt lat="43.48052" lon="6.58629">
        <ele>48</ele>
        <time>2025-02-26T15:21:12Z</time>
      </trkpt>
      <trkpt lat="43.48052" lon="6.58628">
        <ele>48</ele>
        <time>2025-02-26T15:21:13Z</time>
      </trkpt>
      <trkpt lat="43.48053" lon="6.58627">
        <ele>48.1</ele>
        <time>2025-02-26T15:21:14Z</time>
      </trkpt>
      <trkpt lat="43.48054" lon="6.58625">
        <ele>48.2</ele>
        <time>2025-02-26T15:21:15Z</time>
      </trkpt>
      <trkpt lat="43.48055" lon="6.58624">
        <ele>48.2</ele>
        <time>2025-02-26T15:21:16Z</time>
      </trkpt>
      <trkpt lat="43.48055" lon="6.58623">
        <ele>48.3</ele>
        <time>2025-02-26T15:21:17Z</time>
      </trkpt>
      <trkpt lat="43.48056" lon="6.58622">
        <ele>48.3</ele>
        <time>2025-02-26T15:21:18Z</time>
      </trkpt>
      <trkpt lat="43.48056" lon="6.58621">
        <ele>48.4</ele>
        <time>2025-02-26T15:21:19Z</time>
      </trkpt>
      <trkpt lat="43.48057" lon="6.58619">
        <ele>48.5</ele>
        <time>2025-02-26T15:21:20Z</time>
      </trkpt>
      <trkpt lat="43.48058" lon="6.58618">
        <ele>48.4</ele>
        <time>2025-02-26T15:21:21Z</time>
      </trkpt>
      <trkpt lat="43.48059" lon="6.58617">
        <ele>48.5</ele>
        <time>2025-02-26T15:21:22Z</time>
      </trkpt>
      <trkpt lat="43.48059" lon="6.58615">
        <ele>48.5</ele>
        <time>2025-02-26T15:21:23Z</time>
      </trkpt>
      <trkpt lat="43.4806" lon="6.58614">
        <ele>48.6</ele>
        <time>2025-02-26T15:21:24Z</time>
      </trkpt>
      <trkpt lat="43.48061" lon="6.58613">
        <ele>48.7</ele>
        <time>2025-02-26T15:21:25Z</time>
      </trkpt>
      <trkpt lat="43.48061" lon="6.58612">
        <ele>48.8</ele>
        <time>2025-02-26T15:21:26Z</time>
      </trkpt>
      <trkpt lat="43.48062" lon="6.5861">
        <ele>48.9</ele>
        <time>2025-02-26T15:21:27Z</time>
      </trkpt>
      <trkpt lat="43.48062" lon="6.58609">
        <ele>49.1</ele>
        <time>2025-02-26T15:21:28Z</time>
      </trkpt>
      <trkpt lat="43.48063" lon="6.58608">
        <ele>49.4</ele>
        <time>2025-02-26T15:21:29Z</time>
      </trkpt>
      <trkpt lat="43.48064" lon="6.58607">
        <ele>49.4</ele>
        <time>2025-02-26T15:21:30Z</time>
      </trkpt>
      <trkpt lat="43.48065" lon="6.58606">
        <ele>49.4</ele>
        <time>2025-02-26T15:21:31Z</time>
      </trkpt>
      <trkpt lat="43.48065" lon="6.58605">
        <ele>49.7</ele>
        <time>2025-02-26T15:21:32Z</time>
      </trkpt>
      <trkpt lat="43.48066" lon="6.58604">
        <ele>49.9</ele>
        <time>2025-02-26T15:21:33Z</time>
      </trkpt>
      <trkpt lat="43.48067" lon="6.58603">
        <ele>50</ele>
        <time>2025-02-26T15:21:34Z</time>
      </trkpt>
      <trkpt lat="43.48068" lon="6.58602">
        <ele>50.1</ele>
        <time>2025-02-26T15:21:35Z</time>
      </trkpt>
      <trkpt lat="43.48069" lon="6.58601">
        <ele>50.3</ele>
        <time>2025-02-26T15:21:36Z</time>
      </trkpt>
      <trkpt lat="43.4807" lon="6.58599">
        <ele>50.3</ele>
        <time>2025-02-26T15:21:37Z</time>
      </trkpt>
      <trkpt lat="43.48071" lon="6.58598">
        <ele>50.4</ele>
        <time>2025-02-26T15:21:38Z</time>
      </trkpt>
      <trkpt lat="43.48072" lon="6.58596">
        <ele>50.6</ele>
        <time>2025-02-26T15:21:39Z</time>
      </trkpt>
      <trkpt lat="43.48072" lon="6.58595">
        <ele>50.6</ele>
        <time>2025-02-26T15:21:40Z</time>
      </trkpt>
      <trkpt lat="43.48073" lon="6.58594">
        <ele>50.5</ele>
        <time>2025-02-26T15:21:41Z</time>
      </trkpt>
      <trkpt lat="43.48074" lon="6.58593">
        <ele>50.5</ele>
        <time>2025-02-26T15:21:42Z</time>
      </trkpt>
      <trkpt lat="43.48074" lon="6.58592">
        <ele>50.6</ele>
        <time>2025-02-26T15:21:43Z</time>
      </trkpt>
      <trkpt lat="43.48075" lon="6.5859">
        <ele>50.7</ele>
        <time>2025-02-26T15:21:44Z</time>
      </trkpt>
      <trkpt lat="43.48075" lon="6.58589">
        <ele>50.8</ele>
        <time>2025-02-26T15:21:45Z</time>
      </trkpt>
      <trkpt lat="43.48076" lon="6.58587">
        <ele>50.8</ele>
        <time>2025-02-26T15:21:46Z</time>
      </trkpt>
      <trkpt lat="43.48076" lon="6.58586">
        <ele>50.7</ele>
        <time>2025-02-26T15:21:47Z</time>
      </trkpt>
      <trkpt lat="43.48077" lon="6.58585">
        <ele>50.8</ele>
        <time>2025-02-26T15:21:48Z</time>
      </trkpt>
      <trkpt lat="43.48078" lon="6.58584">
        <ele>51</ele>
        <time>2025-02-26T15:21:49Z</time>
      </trkpt>
      <trkpt lat="43.4808" lon="6.58583">
        <ele>51.1</ele>
        <time>2025-02-26T15:21:50Z</time>
      </trkpt>
      <trkpt lat="43.48081" lon="6.58582">
        <ele>51.3</ele>
        <time>2025-02-26T15:21:51Z</time>
      </trkpt>
      <trkpt lat="43.48082" lon="6.5858">
        <ele>51.5</ele>
        <time>2025-02-26T15:21:52Z</time>
      </trkpt>
      <trkpt lat="43.48082" lon="6.58579">
        <ele>51.6</ele>
        <time>2025-02-26T15:21:53Z</time>
      </trkpt>
      <trkpt lat="43.48083" lon="6.58578">
        <ele>51.8</ele>
        <time>2025-02-26T15:21:54Z</time>
      </trkpt>
      <trkpt lat="43.48083" lon="6.58577">
        <ele>51.9</ele>
        <time>2025-02-26T15:21:55Z</time>
      </trkpt>
      <trkpt lat="43.48084" lon="6.58575">
        <ele>52.1</ele>
        <time>2025-02-26T15:21:56Z</time>
      </trkpt>
      <trkpt lat="43.48084" lon="6.58574">
        <ele>52.2</ele>
        <time>2025-02-26T15:21:57Z</time>
      </trkpt>
      <trkpt lat="43.48084" lon="6.58573">
        <ele>52.4</ele>
        <time>2025-02-26T15:21:58Z</time>
      </trkpt>
      <trkpt lat="43.48085" lon="6.58573">
        <ele>52.6</ele>
        <time>2025-02-26T15:21:59Z</time>
      </trkpt>
      <trkpt lat="43.48086" lon="6.58572">
        <ele>52.8</ele>
        <time>2025-02-26T15:22:00Z</time>
      </trkpt>
      <trkpt lat="43.48087" lon="6.58571">
        <ele>53</ele>
        <time>2025-02-26T15:22:01Z</time>
      </trkpt>
      <trkpt lat="43.48088" lon="6.58569">
        <ele>53.3</ele>
        <time>2025-02-26T15:22:02Z</time>
      </trkpt>
      <trkpt lat="43.48088" lon="6.58568">
        <ele>53.4</ele>
        <time>2025-02-26T15:22:03Z</time>
      </trkpt>
      <trkpt lat="43.48088" lon="6.58567">
        <ele>53.5</ele>
        <time>2025-02-26T15:22:04Z</time>
      </trkpt>
      <trkpt lat="43.48089" lon="6.58566">
        <ele>53.6</ele>
        <time>2025-02-26T15:22:05Z</time>
      </trkpt>
      <trkpt lat="43.4809" lon="6.58565">
        <ele>53.7</ele>
        <time>2025-02-26T15:22:06Z</time>
      </trkpt>
      <trkpt lat="43.4809" lon="6.58564">
        <ele>53.7</ele>
        <time>2025-02-26T15:22:07Z</time>
      </trkpt>
      <trkpt lat="43.48091" lon="6.58563">
        <ele>53.7</ele>
        <time>2025-02-26T15:22:08Z</time>
      </trkpt>
      <trkpt lat="43.48092" lon="6.58561">
        <ele>53.9</ele>
        <time>2025-02-26T15:22:09Z</time>
      </trkpt>
      <trkpt lat="43.48092" lon="6.5856">
        <ele>54</ele>
        <time>2025-02-26T15:22:10Z</time>
      </trkpt>
      <trkpt lat="43.48092" lon="6.58558">
        <ele>54</ele>
        <time>2025-02-26T15:22:11Z</time>
      </trkpt>
      <trkpt lat="43.48092" lon="6.58557">
        <ele>54.1</ele>
        <time>2025-02-26T15:22:12Z</time>
      </trkpt>
      <trkpt lat="43.48092" lon="6.58555">
        <ele>54.1</ele>
        <time>2025-02-26T15:22:13Z</time>
      </trkpt>
      <trkpt lat="43.48092" lon="6.58554">
        <ele>54.3</ele>
        <time>2025-02-26T15:22:14Z</time>
      </trkpt>
      <trkpt lat="43.48092" lon="6.58552">
        <ele>54.4</ele>
        <time>2025-02-26T15:22:15Z</time>
      </trkpt>
      <trkpt lat="43.48093" lon="6.58551">
        <ele>54.5</ele>
        <time>2025-02-26T15:22:16Z</time>
      </trkpt>
      <trkpt lat="43.48093" lon="6.58549">
        <ele>54.7</ele>
        <time>2025-02-26T15:22:17Z</time>
      </trkpt>
      <trkpt lat="43.48093" lon="6.58547">
        <ele>54.6</ele>
        <time>2025-02-26T15:22:18Z</time>
      </trkpt>
      <trkpt lat="43.48093" lon="6.58545">
        <ele>54.7</ele>
        <time>2025-02-26T15:22:19Z</time>
      </trkpt>
      <trkpt lat="43.48093" lon="6.58544">
        <ele>54.8</ele>
        <time>2025-02-26T15:22:20Z</time>
      </trkpt>
      <trkpt lat="43.48093" lon="6.58542">
        <ele>54.8</ele>
        <time>2025-02-26T15:22:21Z</time>
      </trkpt>
      <trkpt lat="43.48092" lon="6.5854">
        <ele>54.7</ele>
        <time>2025-02-26T15:22:22Z</time>
      </trkpt>
      <trkpt lat="43.48092" lon="6.58539">
        <ele>54.7</ele>
        <time>2025-02-26T15:22:23Z</time>
      </trkpt>
      <trkpt lat="43.48092" lon="6.58537">
        <ele>54.7</ele>
        <time>2025-02-26T15:22:24Z</time>
      </trkpt>
      <trkpt lat="43.48092" lon="6.58536">
        <ele>54.7</ele>
        <time>2025-02-26T15:22:25Z</time>
      </trkpt>
      <trkpt lat="43.48092" lon="6.58535">
        <ele>54.9</ele>
        <time>2025-02-26T15:22:26Z</time>
      </trkpt>
      <trkpt lat="43.48092" lon="6.58533">
        <ele>54.8</ele>
        <time>2025-02-26T15:22:27Z</time>
      </trkpt>
      <trkpt lat="43.48092" lon="6.58531">
        <ele>54.9</ele>
        <time>2025-02-26T15:22:28Z</time>
      </trkpt>
      <trkpt lat="43.48091" lon="6.5853">
        <ele>55</ele>
        <time>2025-02-26T15:22:29Z</time>
      </trkpt>
      <trkpt lat="43.48091" lon="6.58528">
        <ele>55.1</ele>
        <time>2025-02-26T15:22:30Z</time>
      </trkpt>
      <trkpt lat="43.48091" lon="6.58526">
        <ele>55.2</ele>
        <time>2025-02-26T15:22:31Z</time>
      </trkpt>
      <trkpt lat="43.48091" lon="6.58525">
        <ele>55.2</ele>
        <time>2025-02-26T15:22:32Z</time>
      </trkpt>
      <trkpt lat="43.48092" lon="6.58523">
        <ele>55.4</ele>
        <time>2025-02-26T15:22:33Z</time>
      </trkpt>
      <trkpt lat="43.48092" lon="6.58522">
        <ele>55.5</ele>
        <time>2025-02-26T15:22:34Z</time>
      </trkpt>
      <trkpt lat="43.48092" lon="6.5852">
        <ele>55.6</ele>
        <time>2025-02-26T15:22:35Z</time>
      </trkpt>
      <trkpt lat="43.48091" lon="6.58518">
        <ele>55.6</ele>
        <time>2025-02-26T15:22:36Z</time>
      </trkpt>
      <trkpt lat="43.48091" lon="6.58517">
        <ele>55.6</ele>
        <time>2025-02-26T15:22:37Z</time>
      </trkpt>
      <trkpt lat="43.48091" lon="6.58516">
        <ele>55.6</ele>
        <time>2025-02-26T15:22:38Z</time>
      </trkpt>
      <trkpt lat="43.48091" lon="6.58515">
        <ele>55.8</ele>
        <time>2025-02-26T15:22:39Z</time>
      </trkpt>
      <trkpt lat="43.48091" lon="6.58513">
        <ele>55.9</ele>
        <time>2025-02-26T15:22:40Z</time>
      </trkpt>
      <trkpt lat="43.48092" lon="6.58512">
        <ele>56</ele>
        <time>2025-02-26T15:22:41Z</time>
      </trkpt>
      <trkpt lat="43.48092" lon="6.5851">
        <ele>56</ele>
        <time>2025-02-26T15:22:42Z</time>
      </trkpt>
      <trkpt lat="43.48092" lon="6.58508">
        <ele>56.1</ele>
        <time>2025-02-26T15:22:43Z</time>
      </trkpt>
      <trkpt lat="43.48092" lon="6.58507">
        <ele>56.2</ele>
        <time>2025-02-26T15:22:44Z</time>
      </trkpt>
      <trkpt lat="43.48092" lon="6.58505">
        <ele>56.3</ele>
        <time>2025-02-26T15:22:45Z</time>
      </trkpt>
      <trkpt lat="43.48093" lon="6.58504">
        <ele>56.3</ele>
        <time>2025-02-26T15:22:46Z</time>
      </trkpt>
      <trkpt lat="43.48093" lon="6.58503">
        <ele>56.2</ele>
        <time>2025-02-26T15:22:47Z</time>
      </trkpt>
      <trkpt lat="43.48094" lon="6.58501">
        <ele>56.3</ele>
        <time>2025-02-26T15:22:48Z</time>
      </trkpt>
      <trkpt lat="43.48094" lon="6.585">
        <ele>56.4</ele>
        <time>2025-02-26T15:22:49Z</time>
      </trkpt>
      <trkpt lat="43.48094" lon="6.58499">
        <ele>56.6</ele>
        <time>2025-02-26T15:22:50Z</time>
      </trkpt>
      <trkpt lat="43.48094" lon="6.58498">
        <ele>56.8</ele>
        <time>2025-02-26T15:22:51Z</time>
      </trkpt>
      <trkpt lat="43.48094" lon="6.58496">
        <ele>56.9</ele>
        <time>2025-02-26T15:22:52Z</time>
      </trkpt>
      <trkpt lat="43.48094" lon="6.58495">
        <ele>57.1</ele>
        <time>2025-02-26T15:22:53Z</time>
      </trkpt>
      <trkpt lat="43.48093" lon="6.58493">
        <ele>57.4</ele>
        <time>2025-02-26T15:22:54Z</time>
      </trkpt>
      <trkpt lat="43.48093" lon="6.58492">
        <ele>57.5</ele>
        <time>2025-02-26T15:22:55Z</time>
      </trkpt>
      <trkpt lat="43.48093" lon="6.5849">
        <ele>57.5</ele>
        <time>2025-02-26T15:22:56Z</time>
      </trkpt>
      <trkpt lat="43.48093" lon="6.58489">
        <ele>57.7</ele>
        <time>2025-02-26T15:22:57Z</time>
      </trkpt>
      <trkpt lat="43.48092" lon="6.58488">
        <ele>57.8</ele>
        <time>2025-02-26T15:22:58Z</time>
      </trkpt>
      <trkpt lat="43.48092" lon="6.58487">
        <ele>57.7</ele>
        <time>2025-02-26T15:22:59Z</time>
      </trkpt>
      <trkpt lat="43.48091" lon="6.58487">
        <ele>57.8</ele>
        <time>2025-02-26T15:23:00Z</time>
      </trkpt>
      <trkpt lat="43.48091" lon="6.58486">
        <ele>57.8</ele>
        <time>2025-02-26T15:23:01Z</time>
      </trkpt>
      <trkpt lat="43.4809" lon="6.58486">
        <ele>57.9</ele>
        <time>2025-02-26T15:23:02Z</time>
      </trkpt>
      <trkpt lat="43.48089" lon="6.58486">
        <ele>57.9</ele>
        <time>2025-02-26T15:23:03Z</time>
      </trkpt>
      <trkpt lat="43.48088" lon="6.58487">
        <ele>58</ele>
        <time>2025-02-26T15:23:04Z</time>
      </trkpt>
      <trkpt lat="43.48087" lon="6.58487">
        <ele>58.1</ele>
        <time>2025-02-26T15:23:05Z</time>
      </trkpt>
      <trkpt lat="43.48087" lon="6.58488">
        <ele>58.2</ele>
        <time>2025-02-26T15:23:06Z</time>
      </trkpt>
      <trkpt lat="43.48086" lon="6.58488">
        <ele>58.3</ele>
        <time>2025-02-26T15:23:07Z</time>
      </trkpt>
      <trkpt lat="43.48085" lon="6.58488">
        <ele>58.4</ele>
        <time>2025-02-26T15:23:08Z</time>
      </trkpt>
      <trkpt lat="43.48085" lon="6.58488">
        <ele>58.4</ele>
        <time>2025-02-26T15:23:09Z</time>
      </trkpt>
      <trkpt lat="43.48085" lon="6.58489">
        <ele>58.5</ele>
        <time>2025-02-26T15:23:10Z</time>
      </trkpt>
      <trkpt lat="43.48084" lon="6.5849">
        <ele>58.6</ele>
        <time>2025-02-26T15:23:11Z</time>
      </trkpt>
      <trkpt lat="43.48084" lon="6.58491">
        <ele>58.6</ele>
        <time>2025-02-26T15:23:12Z</time>
      </trkpt>
      <trkpt lat="43.48083" lon="6.58492">
        <ele>58.6</ele>
        <time>2025-02-26T15:23:13Z</time>
      </trkpt>
      <trkpt lat="43.48083" lon="6.58493">
        <ele>58.7</ele>
        <time>2025-02-26T15:23:14Z</time>
      </trkpt>
      <trkpt lat="43.48082" lon="6.58494">
        <ele>58.7</ele>
        <time>2025-02-26T15:23:15Z</time>
      </trkpt>
      <trkpt lat="43.48082" lon="6.58495">
        <ele>58.7</ele>
        <time>2025-02-26T15:23:16Z</time>
      </trkpt>
      <trkpt lat="43.48081" lon="6.58495">
        <ele>58.7</ele>
        <time>2025-02-26T15:23:17Z</time>
      </trkpt>
      <trkpt lat="43.48081" lon="6.58496">
        <ele>58.8</ele>
        <time>2025-02-26T15:23:18Z</time>
      </trkpt>
      <trkpt lat="43.48081" lon="6.58497">
        <ele>58.8</ele>
        <time>2025-02-26T15:23:19Z</time>
      </trkpt>
      <trkpt lat="43.4808" lon="6.58498">
        <ele>58.9</ele>
        <time>2025-02-26T15:23:20Z</time>
      </trkpt>
      <trkpt lat="43.4808" lon="6.58499">
        <ele>58.9</ele>
        <time>2025-02-26T15:23:21Z</time>
      </trkpt>
      <trkpt lat="43.48079" lon="6.585">
        <ele>59</ele>
        <time>2025-02-26T15:23:22Z</time>
      </trkpt>
      <trkpt lat="43.48079" lon="6.58502">
        <ele>59.1</ele>
        <time>2025-02-26T15:23:23Z</time>
      </trkpt>
      <trkpt lat="43.48079" lon="6.58503">
        <ele>59.2</ele>
        <time>2025-02-26T15:23:24Z</time>
      </trkpt>
      <trkpt lat="43.48079" lon="6.58504">
        <ele>59.2</ele>
        <time>2025-02-26T15:23:25Z</time>
      </trkpt>
      <trkpt lat="43.48078" lon="6.58505">
        <ele>59.2</ele>
        <time>2025-02-26T15:23:26Z</time>
      </trkpt>
      <trkpt lat="43.48078" lon="6.58507">
        <ele>59.3</ele>
        <time>2025-02-26T15:23:27Z</time>
      </trkpt>
      <trkpt lat="43.48078" lon="6.58508">
        <ele>59.2</ele>
        <time>2025-02-26T15:23:28Z</time>
      </trkpt>
      <trkpt lat="43.48078" lon="6.58509">
        <ele>59.3</ele>
        <time>2025-02-26T15:23:29Z</time>
      </trkpt>
      <trkpt lat="43.48077" lon="6.58509">
        <ele>59.4</ele>
        <time>2025-02-26T15:23:30Z</time>
      </trkpt>
      <trkpt lat="43.48077" lon="6.5851">
        <ele>59.4</ele>
        <time>2025-02-26T15:23:31Z</time>
      </trkpt>
      <trkpt lat="43.48076" lon="6.58511">
        <ele>59.5</ele>
        <time>2025-02-26T15:23:32Z</time>
      </trkpt>
      <trkpt lat="43.48076" lon="6.58513">
        <ele>59.5</ele>
        <time>2025-02-26T15:23:33Z</time>
      </trkpt>
      <trkpt lat="43.48075" lon="6.58514">
        <ele>59.5</ele>
        <time>2025-02-26T15:23:34Z</time>
      </trkpt>
      <trkpt lat="43.48074" lon="6.58515">
        <ele>59.5</ele>
        <time>2025-02-26T15:23:35Z</time>
      </trkpt>
      <trkpt lat="43.48073" lon="6.58516">
        <ele>59.5</ele>
        <time>2025-02-26T15:23:36Z</time>
      </trkpt>
      <trkpt lat="43.48073" lon="6.58517">
        <ele>59.6</ele>
        <time>2025-02-26T15:23:37Z</time>
      </trkpt>
      <trkpt lat="43.48072" lon="6.58518">
        <ele>59.6</ele>
        <time>2025-02-26T15:23:38Z</time>
      </trkpt>
      <trkpt lat="43.48072" lon="6.58519">
        <ele>59.7</ele>
        <time>2025-02-26T15:23:39Z</time>
      </trkpt>
      <trkpt lat="43.48071" lon="6.5852">
        <ele>59.9</ele>
        <time>2025-02-26T15:23:40Z</time>
      </trkpt>
      <trkpt lat="43.4807" lon="6.58521">
        <ele>59.8</ele>
        <time>2025-02-26T15:23:41Z</time>
      </trkpt>
      <trkpt lat="43.4807" lon="6.58521">
        <ele>59.8</ele>
        <time>2025-02-26T15:23:42Z</time>
      </trkpt>
      <trkpt lat="43.48069" lon="6.58522">
        <ele>59.8</ele>
        <time>2025-02-26T15:23:43Z</time>
      </trkpt>
      <trkpt lat="43.48068" lon="6.58522">
        <ele>60</ele>
        <time>2025-02-26T15:23:44Z</time>
      </trkpt>
      <trkpt lat="43.48067" lon="6.58523">
        <ele>60</ele>
        <time>2025-02-26T15:23:45Z</time>
      </trkpt>
      <trkpt lat="43.48067" lon="6.58524">
        <ele>60</ele>
        <time>2025-02-26T15:23:46Z</time>
      </trkpt>
      <trkpt lat="43.48066" lon="6.58525">
        <ele>60.1</ele>
        <time>2025-02-26T15:23:47Z</time>
      </trkpt>
      <trkpt lat="43.48065" lon="6.58526">
        <ele>60.1</ele>
        <time>2025-02-26T15:23:48Z</time>
      </trkpt>
      <trkpt lat="43.48064" lon="6.58527">
        <ele>60.1</ele>
        <time>2025-02-26T15:23:49Z</time>
      </trkpt>
      <trkpt lat="43.48063" lon="6.58528">
        <ele>60.1</ele>
        <time>2025-02-26T15:23:50Z</time>
      </trkpt>
      <trkpt lat="43.48063" lon="6.58528">
        <ele>60.2</ele>
        <time>2025-02-26T15:23:51Z</time>
      </trkpt>
      <trkpt lat="43.48062" lon="6.58529">
        <ele>60.2</ele>
        <time>2025-02-26T15:23:52Z</time>
      </trkpt>
      <trkpt lat="43.48061" lon="6.5853">
        <ele>60.3</ele>
        <time>2025-02-26T15:23:53Z</time>
      </trkpt>
      <trkpt lat="43.4806" lon="6.5853">
        <ele>60.3</ele>
        <time>2025-02-26T15:23:54Z</time>
      </trkpt>
      <trkpt lat="43.48059" lon="6.58531">
        <ele>60.3</ele>
        <time>2025-02-26T15:23:55Z</time>
      </trkpt>
      <trkpt lat="43.48058" lon="6.58531">
        <ele>60.3</ele>
        <time>2025-02-26T15:23:56Z</time>
      </trkpt>
      <trkpt lat="43.48057" lon="6.58531">
        <ele>60.3</ele>
        <time>2025-02-26T15:23:57Z</time>
      </trkpt>
      <trkpt lat="43.48057" lon="6.58532">
        <ele>60.5</ele>
        <time>2025-02-26T15:23:58Z</time>
      </trkpt>
      <trkpt lat="43.48056" lon="6.58532">
        <ele>60.6</ele>
        <time>2025-02-26T15:23:59Z</time>
      </trkpt>
      <trkpt lat="43.48055" lon="6.58532">
        <ele>60.7</ele>
        <time>2025-02-26T15:24:00Z</time>
      </trkpt>
      <trkpt lat="43.48055" lon="6.58533">
        <ele>60.7</ele>
        <time>2025-02-26T15:24:01Z</time>
      </trkpt>
      <trkpt lat="43.48054" lon="6.58533">
        <ele>60.8</ele>
        <time>2025-02-26T15:24:02Z</time>
      </trkpt>
      <trkpt lat="43.48053" lon="6.58534">
        <ele>60.9</ele>
        <time>2025-02-26T15:24:03Z</time>
      </trkpt>
      <trkpt lat="43.48052" lon="6.58535">
        <ele>61.1</ele>
        <time>2025-02-26T15:24:04Z</time>
      </trkpt>
      <trkpt lat="43.48052" lon="6.58535">
        <ele>61.2</ele>
        <time>2025-02-26T15:24:05Z</time>
      </trkpt>
      <trkpt lat="43.4805" lon="6.58535">
        <ele>61.2</ele>
        <time>2025-02-26T15:24:06Z</time>
      </trkpt>
      <trkpt lat="43.4805" lon="6.58536">
        <ele>61.3</ele>
        <time>2025-02-26T15:24:07Z</time>
      </trkpt>
      <trkpt lat="43.48049" lon="6.58536">
        <ele>61.5</ele>
        <time>2025-02-26T15:24:08Z</time>
      </trkpt>
      <trkpt lat="43.48048" lon="6.58537">
        <ele>61.7</ele>
        <time>2025-02-26T15:24:09Z</time>
      </trkpt>
      <trkpt lat="43.48047" lon="6.58537">
        <ele>61.8</ele>
        <time>2025-02-26T15:24:10Z</time>
      </trkpt>
      <trkpt lat="43.48046" lon="6.58537">
        <ele>62</ele>
        <time>2025-02-26T15:24:11Z</time>
      </trkpt>
      <trkpt lat="43.48045" lon="6.58537">
        <ele>62</ele>
        <time>2025-02-26T15:24:12Z</time>
      </trkpt>
      <trkpt lat="43.48044" lon="6.58537">
        <ele>62.1</ele>
        <time>2025-02-26T15:24:13Z</time>
      </trkpt>
      <trkpt lat="43.48043" lon="6.58538">
        <ele>62.1</ele>
        <time>2025-02-26T15:24:14Z</time>
      </trkpt>
      <trkpt lat="43.48042" lon="6.58538">
        <ele>62.2</ele>
        <time>2025-02-26T15:24:15Z</time>
      </trkpt>
      <trkpt lat="43.48041" lon="6.58538">
        <ele>62.3</ele>
        <time>2025-02-26T15:24:16Z</time>
      </trkpt>
      <trkpt lat="43.48041" lon="6.58539">
        <ele>62.5</ele>
        <time>2025-02-26T15:24:17Z</time>
      </trkpt>
      <trkpt lat="43.48039" lon="6.58539">
        <ele>62.7</ele>
        <time>2025-02-26T15:24:18Z</time>
      </trkpt>
      <trkpt lat="43.48038" lon="6.58539">
        <ele>62.8</ele>
        <time>2025-02-26T15:24:19Z</time>
      </trkpt>
      <trkpt lat="43.48038" lon="6.5854">
        <ele>63</ele>
        <time>2025-02-26T15:24:20Z</time>
      </trkpt>
      <trkpt lat="43.48036" lon="6.5854">
        <ele>63.1</ele>
        <time>2025-02-26T15:24:21Z</time>
      </trkpt>
      <trkpt lat="43.48036" lon="6.58541">
        <ele>63.3</ele>
        <time>2025-02-26T15:24:22Z</time>
      </trkpt>
      <trkpt lat="43.48034" lon="6.58541">
        <ele>63.5</ele>
        <time>2025-02-26T15:24:23Z</time>
      </trkpt>
      <trkpt lat="43.48034" lon="6.58541">
        <ele>63.6</ele>
        <time>2025-02-26T15:24:24Z</time>
      </trkpt>
      <trkpt lat="43.48033" lon="6.58542">
        <ele>63.8</ele>
        <time>2025-02-26T15:24:25Z</time>
      </trkpt>
      <trkpt lat="43.48032" lon="6.58542">
        <ele>63.9</ele>
        <time>2025-02-26T15:24:26Z</time>
      </trkpt>
      <trkpt lat="43.48031" lon="6.58542">
        <ele>64</ele>
        <time>2025-02-26T15:24:27Z</time>
      </trkpt>
      <trkpt lat="43.4803" lon="6.58542">
        <ele>64.1</ele>
        <time>2025-02-26T15:24:28Z</time>
      </trkpt>
      <trkpt lat="43.48029" lon="6.58542">
        <ele>64.4</ele>
        <time>2025-02-26T15:24:29Z</time>
      </trkpt>
      <trkpt lat="43.48028" lon="6.58542">
        <ele>64.5</ele>
        <time>2025-02-26T15:24:30Z</time>
      </trkpt>
      <trkpt lat="43.48028" lon="6.58543">
        <ele>64.8</ele>
        <time>2025-02-26T15:24:31Z</time>
      </trkpt>
      <trkpt lat="43.48027" lon="6.58543">
        <ele>65.1</ele>
        <time>2025-02-26T15:24:32Z</time>
      </trkpt>
      <trkpt lat="43.48026" lon="6.58543">
        <ele>65.3</ele>
        <time>2025-02-26T15:24:33Z</time>
      </trkpt>
      <trkpt lat="43.48025" lon="6.58543">
        <ele>65.5</ele>
        <time>2025-02-26T15:24:34Z</time>
      </trkpt>
      <trkpt lat="43.48024" lon="6.58543">
        <ele>65.7</ele>
        <time>2025-02-26T15:24:35Z</time>
      </trkpt>
      <trkpt lat="43.48023" lon="6.58544">
        <ele>65.8</ele>
        <time>2025-02-26T15:24:36Z</time>
      </trkpt>
      <trkpt lat="43.48022" lon="6.58544">
        <ele>66</ele>
        <time>2025-02-26T15:24:37Z</time>
      </trkpt>
      <trkpt lat="43.48021" lon="6.58544">
        <ele>66.1</ele>
        <time>2025-02-26T15:24:38Z</time>
      </trkpt>
      <trkpt lat="43.4802" lon="6.58544">
        <ele>66.2</ele>
        <time>2025-02-26T15:24:39Z</time>
      </trkpt>
      <trkpt lat="43.48019" lon="6.58544">
        <ele>66.2</ele>
        <time>2025-02-26T15:24:40Z</time>
      </trkpt>
      <trkpt lat="43.48017" lon="6.58544">
        <ele>66.2</ele>
        <time>2025-02-26T15:24:41Z</time>
      </trkpt>
      <trkpt lat="43.48017" lon="6.58545">
        <ele>66.2</ele>
        <time>2025-02-26T15:24:42Z</time>
      </trkpt>
      <trkpt lat="43.48016" lon="6.58545">
        <ele>66.3</ele>
        <time>2025-02-26T15:24:43Z</time>
      </trkpt>
      <trkpt lat="43.48015" lon="6.58545">
        <ele>66.6</ele>
        <time>2025-02-26T15:24:44Z</time>
      </trkpt>
      <trkpt lat="43.48014" lon="6.58545">
        <ele>66.8</ele>
        <time>2025-02-26T15:24:45Z</time>
      </trkpt>
      <trkpt lat="43.48013" lon="6.58545">
        <ele>67.1</ele>
        <time>2025-02-26T15:24:46Z</time>
      </trkpt>
      <trkpt lat="43.48012" lon="6.58545">
        <ele>67.2</ele>
        <time>2025-02-26T15:24:47Z</time>
      </trkpt>
      <trkpt lat="43.48011" lon="6.58545">
        <ele>67.3</ele>
        <time>2025-02-26T15:24:48Z</time>
      </trkpt>
      <trkpt lat="43.48011" lon="6.58545">
        <ele>67.3</ele>
        <time>2025-02-26T15:24:49Z</time>
      </trkpt>
      <trkpt lat="43.48011" lon="6.58545">
        <ele>67.3</ele>
        <time>2025-02-26T15:24:50Z</time>
      </trkpt>
      <trkpt lat="43.4801" lon="6.58545">
        <ele>67.4</ele>
        <time>2025-02-26T15:24:51Z</time>
      </trkpt>
      <trkpt lat="43.4801" lon="6.58545">
        <ele>67.4</ele>
        <time>2025-02-26T15:24:52Z</time>
      </trkpt>
      <trkpt lat="43.4801" lon="6.58545">
        <ele>67.4</ele>
        <time>2025-02-26T15:24:53Z</time>
      </trkpt>
      <trkpt lat="43.4801" lon="6.58545">
        <ele>67.4</ele>
        <time>2025-02-26T15:24:54Z</time>
      </trkpt>
      <trkpt lat="43.4801" lon="6.58544">
        <ele>67.3</ele>
        <time>2025-02-26T15:24:55Z</time>
      </trkpt>
      <trkpt lat="43.4801" lon="6.58544">
        <ele>67.3</ele>
        <time>2025-02-26T15:24:56Z</time>
      </trkpt>
      <trkpt lat="43.4801" lon="6.58544">
        <ele>67.3</ele>
        <time>2025-02-26T15:24:57Z</time>
      </trkpt>
      <trkpt lat="43.4801" lon="6.58544">
        <ele>67.3</ele>
        <time>2025-02-26T15:24:58Z</time>
      </trkpt>
      <trkpt lat="43.4801" lon="6.58544">
        <ele>67.2</ele>
        <time>2025-02-26T15:24:59Z</time>
      </trkpt>
      <trkpt lat="43.48009" lon="6.58544">
        <ele>67.2</ele>
        <time>2025-02-26T15:25:00Z</time>
      </trkpt>
      <trkpt lat="43.48009" lon="6.58544">
        <ele>67.1</ele>
        <time>2025-02-26T15:25:01Z</time>
      </trkpt>
      <trkpt lat="43.48009" lon="6.58544">
        <ele>67.1</ele>
        <time>2025-02-26T15:25:02Z</time>
      </trkpt>
      <trkpt lat="43.48009" lon="6.58544">
        <ele>67</ele>
        <time>2025-02-26T15:25:03Z</time>
      </trkpt>
      <trkpt lat="43.48008" lon="6.58544">
        <ele>67.1</ele>
        <time>2025-02-26T15:25:04Z</time>
      </trkpt>
      <trkpt lat="43.48008" lon="6.58544">
        <ele>67.1</ele>
        <time>2025-02-26T15:25:05Z</time>
      </trkpt>
      <trkpt lat="43.48008" lon="6.58545">
        <ele>67.1</ele>
        <time>2025-02-26T15:25:06Z</time>
      </trkpt>
      <trkpt lat="43.48008" lon="6.58545">
        <ele>67.2</ele>
        <time>2025-02-26T15:25:07Z</time>
      </trkpt>
      <trkpt lat="43.48008" lon="6.58545">
        <ele>67.2</ele>
        <time>2025-02-26T15:25:08Z</time>
      </trkpt>
      <trkpt lat="43.48008" lon="6.58545">
        <ele>67.3</ele>
        <time>2025-02-26T15:25:09Z</time>
      </trkpt>
      <trkpt lat="43.48008" lon="6.58546">
        <ele>67.3</ele>
        <time>2025-02-26T15:25:10Z</time>
      </trkpt>
      <trkpt lat="43.48007" lon="6.58546">
        <ele>67.3</ele>
        <time>2025-02-26T15:25:11Z</time>
      </trkpt>
      <trkpt lat="43.48007" lon="6.58546">
        <ele>67.3</ele>
        <time>2025-02-26T15:25:12Z</time>
      </trkpt>
      <trkpt lat="43.48007" lon="6.58546">
        <ele>67.3</ele>
        <time>2025-02-26T15:25:13Z</time>
      </trkpt>
      <trkpt lat="43.48007" lon="6.58546">
        <ele>67.3</ele>
        <time>2025-02-26T15:25:14Z</time>
      </trkpt>
      <trkpt lat="43.48007" lon="6.58546">
        <ele>67.3</ele>
        <time>2025-02-26T15:25:15Z</time>
      </trkpt>
      <trkpt lat="43.48007" lon="6.58546">
        <ele>67.3</ele>
        <time>2025-02-26T15:25:16Z</time>
      </trkpt>
      <trkpt lat="43.48007" lon="6.58546">
        <ele>67.3</ele>
        <time>2025-02-26T15:25:17Z</time>
      </trkpt>
      <trkpt lat="43.48007" lon="6.58546">
        <ele>67.3</ele>
        <time>2025-02-26T15:25:18Z</time>
      </trkpt>
      <trkpt lat="43.48007" lon="6.58546">
        <ele>67.3</ele>
        <time>2025-02-26T15:25:19Z</time>
      </trkpt>
      <trkpt lat="43.48007" lon="6.58546">
        <ele>67.3</ele>
        <time>2025-02-26T15:25:20Z</time>
      </trkpt>
      <trkpt lat="43.48006" lon="6.58546">
        <ele>67.3</ele>
        <time>2025-02-26T15:25:21Z</time>
      </trkpt>
      <trkpt lat="43.48006" lon="6.58546">
        <ele>67.3</ele>
        <time>2025-02-26T15:25:22Z</time>
      </trkpt>
      <trkpt lat="43.48006" lon="6.58546">
        <ele>67.3</ele>
        <time>2025-02-26T15:25:23Z</time>
      </trkpt>
      <trkpt lat="43.48006" lon="6.58546">
        <ele>67.3</ele>
        <time>2025-02-26T15:25:24Z</time>
      </trkpt>
      <trkpt lat="43.48006" lon="6.58546">
        <ele>67.4</ele>
        <time>2025-02-26T15:25:25Z</time>
      </trkpt>
      <trkpt lat="43.48006" lon="6.58546">
        <ele>67.5</ele>
        <time>2025-02-26T15:25:26Z</time>
      </trkpt>
      <trkpt lat="43.48006" lon="6.58546">
        <ele>67.5</ele>
        <time>2025-02-26T15:25:27Z</time>
      </trkpt>
      <trkpt lat="43.48006" lon="6.58546">
        <ele>67.5</ele>
        <time>2025-02-26T15:25:28Z</time>
      </trkpt>
      <trkpt lat="43.48006" lon="6.58546">
        <ele>67.6</ele>
        <time>2025-02-26T15:25:29Z</time>
      </trkpt>
      <trkpt lat="43.48006" lon="6.58546">
        <ele>67.6</ele>
        <time>2025-02-26T15:25:30Z</time>
      </trkpt>
      <trkpt lat="43.48006" lon="6.58546">
        <ele>67.4</ele>
        <time>2025-02-26T15:25:31Z</time>
      </trkpt>
      <trkpt lat="43.48006" lon="6.58546">
        <ele>67.3</ele>
        <time>2025-02-26T15:25:32Z</time>
      </trkpt>
      <trkpt lat="43.48005" lon="6.58546">
        <ele>67.2</ele>
        <time>2025-02-26T15:25:33Z</time>
      </trkpt>
      <trkpt lat="43.48005" lon="6.58546">
        <ele>67.1</ele>
        <time>2025-02-26T15:25:34Z</time>
      </trkpt>
      <trkpt lat="43.48005" lon="6.58547">
        <ele>67.1</ele>
        <time>2025-02-26T15:25:35Z</time>
      </trkpt>
      <trkpt lat="43.48005" lon="6.58547">
        <ele>67.1</ele>
        <time>2025-02-26T15:25:36Z</time>
      </trkpt>
      <trkpt lat="43.48005" lon="6.58547">
        <ele>67.1</ele>
        <time>2025-02-26T15:25:37Z</time>
      </trkpt>
      <trkpt lat="43.48005" lon="6.58546">
        <ele>67.2</ele>
        <time>2025-02-26T15:25:38Z</time>
      </trkpt>
      <trkpt lat="43.48005" lon="6.58546">
        <ele>67.2</ele>
        <time>2025-02-26T15:25:39Z</time>
      </trkpt>
      <trkpt lat="43.48005" lon="6.58546">
        <ele>67.3</ele>
        <time>2025-02-26T15:25:40Z</time>
      </trkpt>
      <trkpt lat="43.48005" lon="6.58546">
        <ele>67.3</ele>
        <time>2025-02-26T15:25:41Z</time>
      </trkpt>
      <trkpt lat="43.48005" lon="6.58546">
        <ele>67.4</ele>
        <time>2025-02-26T15:25:42Z</time>
      </trkpt>
      <trkpt lat="43.48004" lon="6.58547">
        <ele>67.3</ele>
        <time>2025-02-26T15:25:43Z</time>
      </trkpt>
      <trkpt lat="43.48004" lon="6.58547">
        <ele>67.4</ele>
        <time>2025-02-26T15:25:44Z</time>
      </trkpt>
      <trkpt lat="43.48004" lon="6.58547">
        <ele>67.4</ele>
        <time>2025-02-26T15:25:45Z</time>
      </trkpt>
      <trkpt lat="43.48004" lon="6.58546">
        <ele>67.5</ele>
        <time>2025-02-26T15:25:46Z</time>
      </trkpt>
      <trkpt lat="43.48004" lon="6.58547">
        <ele>67.5</ele>
        <time>2025-02-26T15:25:47Z</time>
      </trkpt>
      <trkpt lat="43.48004" lon="6.58547">
        <ele>67.4</ele>
        <time>2025-02-26T15:25:48Z</time>
      </trkpt>
      <trkpt lat="43.48004" lon="6.58547">
        <ele>67.4</ele>
        <time>2025-02-26T15:25:49Z</time>
      </trkpt>
      <trkpt lat="43.48004" lon="6.58547">
        <ele>67.3</ele>
        <time>2025-02-26T15:25:50Z</time>
      </trkpt>
      <trkpt lat="43.48004" lon="6.58547">
        <ele>67.4</ele>
        <time>2025-02-26T15:25:51Z</time>
      </trkpt>
      <trkpt lat="43.48004" lon="6.58548">
        <ele>67.4</ele>
        <time>2025-02-26T15:25:52Z</time>
      </trkpt>
      <trkpt lat="43.48004" lon="6.58548">
        <ele>67.5</ele>
        <time>2025-02-26T15:25:53Z</time>
      </trkpt>
      <trkpt lat="43.48004" lon="6.58548">
        <ele>67.5</ele>
        <time>2025-02-26T15:25:54Z</time>
      </trkpt>
      <trkpt lat="43.48004" lon="6.58548">
        <ele>67.5</ele>
        <time>2025-02-26T15:25:55Z</time>
      </trkpt>
      <trkpt lat="43.48004" lon="6.58548">
        <ele>67.6</ele>
        <time>2025-02-26T15:25:56Z</time>
      </trkpt>
      <trkpt lat="43.48004" lon="6.58548">
        <ele>67.5</ele>
        <time>2025-02-26T15:25:57Z</time>
      </trkpt>
      <trkpt lat="43.48004" lon="6.58548">
        <ele>67.6</ele>
        <time>2025-02-26T15:25:58Z</time>
      </trkpt>
      <trkpt lat="43.48004" lon="6.58548">
        <ele>67.6</ele>
        <time>2025-02-26T15:25:59Z</time>
      </trkpt>
      <trkpt lat="43.48004" lon="6.58548">
        <ele>67.7</ele>
        <time>2025-02-26T15:26:00Z</time>
      </trkpt>
      <trkpt lat="43.48004" lon="6.58548">
        <ele>67.7</ele>
        <time>2025-02-26T15:26:01Z</time>
      </trkpt>
      <trkpt lat="43.48003" lon="6.58548">
        <ele>67.7</ele>
        <time>2025-02-26T15:26:02Z</time>
      </trkpt>
      <trkpt lat="43.48003" lon="6.58548">
        <ele>67.6</ele>
        <time>2025-02-26T15:26:03Z</time>
      </trkpt>
      <trkpt lat="43.48003" lon="6.58548">
        <ele>67.6</ele>
        <time>2025-02-26T15:26:04Z</time>
      </trkpt>
      <trkpt lat="43.48003" lon="6.58548">
        <ele>67.6</ele>
        <time>2025-02-26T15:26:05Z</time>
      </trkpt>
      <trkpt lat="43.48003" lon="6.58548">
        <ele>67.6</ele>
        <time>2025-02-26T15:26:06Z</time>
      </trkpt>
      <trkpt lat="43.48004" lon="6.58547">
        <ele>67.6</ele>
        <time>2025-02-26T15:26:07Z</time>
      </trkpt>
      <trkpt lat="43.48004" lon="6.58547">
        <ele>67.7</ele>
        <time>2025-02-26T15:26:08Z</time>
      </trkpt>
      <trkpt lat="43.48004" lon="6.58547">
        <ele>67.8</ele>
        <time>2025-02-26T15:26:09Z</time>
      </trkpt>
      <trkpt lat="43.48004" lon="6.58547">
        <ele>67.8</ele>
        <time>2025-02-26T15:26:10Z</time>
      </trkpt>
      <trkpt lat="43.48004" lon="6.58548">
        <ele>67.8</ele>
        <time>2025-02-26T15:26:11Z</time>
      </trkpt>
      <trkpt lat="43.48004" lon="6.58548">
        <ele>67.8</ele>
        <time>2025-02-26T15:26:12Z</time>
      </trkpt>
      <trkpt lat="43.48004" lon="6.58548">
        <ele>67.7</ele>
        <time>2025-02-26T15:26:13Z</time>
      </trkpt>
      <trkpt lat="43.48004" lon="6.58548">
        <ele>67.8</ele>
        <time>2025-02-26T15:26:14Z</time>
      </trkpt>
      <trkpt lat="43.48004" lon="6.58548">
        <ele>67.8</ele>
        <time>2025-02-26T15:26:15Z</time>
      </trkpt>
      <trkpt lat="43.48004" lon="6.58548">
        <ele>67.7</ele>
        <time>2025-02-26T15:26:16Z</time>
      </trkpt>
      <trkpt lat="43.48004" lon="6.58548">
        <ele>67.6</ele>
        <time>2025-02-26T15:26:17Z</time>
      </trkpt>
      <trkpt lat="43.48004" lon="6.58548">
        <ele>67.6</ele>
        <time>2025-02-26T15:26:18Z</time>
      </trkpt>
      <trkpt lat="43.48004" lon="6.58548">
        <ele>67.7</ele>
        <time>2025-02-26T15:26:19Z</time>
      </trkpt>
      <trkpt lat="43.48004" lon="6.58548">
        <ele>67.6</ele>
        <time>2025-02-26T15:26:20Z</time>
      </trkpt>
      <trkpt lat="43.48004" lon="6.58548">
        <ele>67.5</ele>
        <time>2025-02-26T15:26:21Z</time>
      </trkpt>
      <trkpt lat="43.48004" lon="6.58548">
        <ele>67.4</ele>
        <time>2025-02-26T15:26:22Z</time>
      </trkpt>
      <trkpt lat="43.48003" lon="6.58548">
        <ele>67.3</ele>
        <time>2025-02-26T15:26:23Z</time>
      </trkpt>
      <trkpt lat="43.48003" lon="6.58548">
        <ele>67.2</ele>
        <time>2025-02-26T15:26:24Z</time>
      </trkpt>
      <trkpt lat="43.48003" lon="6.58548">
        <ele>67.2</ele>
        <time>2025-02-26T15:26:25Z</time>
      </trkpt>
      <trkpt lat="43.48003" lon="6.58548">
        <ele>67.1</ele>
        <time>2025-02-26T15:26:26Z</time>
      </trkpt>
      <trkpt lat="43.48003" lon="6.58548">
        <ele>67.1</ele>
        <time>2025-02-26T15:26:27Z</time>
      </trkpt>
      <trkpt lat="43.48003" lon="6.58548">
        <ele>67.1</ele>
        <time>2025-02-26T15:26:28Z</time>
      </trkpt>
      <trkpt lat="43.48003" lon="6.58548">
        <ele>67.1</ele>
        <time>2025-02-26T15:26:29Z</time>
      </trkpt>
      <trkpt lat="43.48003" lon="6.58548">
        <ele>67.1</ele>
        <time>2025-02-26T15:26:30Z</time>
      </trkpt>
      <trkpt lat="43.48003" lon="6.58548">
        <ele>67.1</ele>
        <time>2025-02-26T15:26:31Z</time>
      </trkpt>
      <trkpt lat="43.48003" lon="6.58548">
        <ele>67</ele>
        <time>2025-02-26T15:26:32Z</time>
      </trkpt>
      <trkpt lat="43.48003" lon="6.58548">
        <ele>67</ele>
        <time>2025-02-26T15:26:33Z</time>
      </trkpt>
      <trkpt lat="43.48003" lon="6.58548">
        <ele>67.1</ele>
        <time>2025-02-26T15:26:34Z</time>
      </trkpt>
      <trkpt lat="43.48003" lon="6.58548">
        <ele>67.1</ele>
        <time>2025-02-26T15:26:35Z</time>
      </trkpt>
      <trkpt lat="43.48003" lon="6.58548">
        <ele>67.1</ele>
        <time>2025-02-26T15:26:36Z</time>
      </trkpt>
      <trkpt lat="43.48003" lon="6.58548">
        <ele>67.3</ele>
        <time>2025-02-26T15:26:37Z</time>
      </trkpt>
      <trkpt lat="43.48003" lon="6.58548">
        <ele>67.3</ele>
        <time>2025-02-26T15:26:38Z</time>
      </trkpt>
      <trkpt lat="43.48003" lon="6.58548">
        <ele>67.4</ele>
        <time>2025-02-26T15:26:39Z</time>
      </trkpt>
      <trkpt lat="43.48003" lon="6.58548">
        <ele>67.3</ele>
        <time>2025-02-26T15:26:40Z</time>
      </trkpt>
      <trkpt lat="43.48003" lon="6.58548">
        <ele>67.3</ele>
        <time>2025-02-26T15:26:41Z</time>
      </trkpt>
      <trkpt lat="43.48003" lon="6.58548">
        <ele>67.3</ele>
        <time>2025-02-26T15:26:42Z</time>
      </trkpt>
      <trkpt lat="43.48003" lon="6.58548">
        <ele>67.3</ele>
        <time>2025-02-26T15:26:43Z</time>
      </trkpt>
      <trkpt lat="43.48003" lon="6.58548">
        <ele>67.3</ele>
        <time>2025-02-26T15:26:44Z</time>
      </trkpt>
      <trkpt lat="43.48003" lon="6.58548">
        <ele>67.3</ele>
        <time>2025-02-26T15:26:45Z</time>
      </trkpt>
      <trkpt lat="43.48003" lon="6.58548">
        <ele>67.3</ele>
        <time>2025-02-26T15:26:46Z</time>
      </trkpt>
      <trkpt lat="43.48003" lon="6.58548">
        <ele>67.3</ele>
        <time>2025-02-26T15:26:47Z</time>
      </trkpt>
      <trkpt lat="43.48003" lon="6.58548">
        <ele>67.3</ele>
        <time>2025-02-26T15:26:48Z</time>
      </trkpt>
      <trkpt lat="43.48003" lon="6.58548">
        <ele>67.4</ele>
        <time>2025-02-26T15:26:49Z</time>
      </trkpt>
      <trkpt lat="43.48003" lon="6.58548">
        <ele>67.4</ele>
        <time>2025-02-26T15:26:50Z</time>
      </trkpt>
      <trkpt lat="43.48003" lon="6.58548">
        <ele>67.4</ele>
        <time>2025-02-26T15:26:51Z</time>
      </trkpt>
      <trkpt lat="43.48003" lon="6.58548">
        <ele>67.4</ele>
        <time>2025-02-26T15:26:52Z</time>
      </trkpt>
      <trkpt lat="43.48003" lon="6.58548">
        <ele>67.4</ele>
        <time>2025-02-26T15:26:53Z</time>
      </trkpt>
      <trkpt lat="43.48003" lon="6.58548">
        <ele>67.4</ele>
        <time>2025-02-26T15:26:54Z</time>
      </trkpt>
      <trkpt lat="43.48003" lon="6.58548">
        <ele>67.3</ele>
        <time>2025-02-26T15:26:55Z</time>
      </trkpt>
      <trkpt lat="43.48003" lon="6.58548">
        <ele>67.3</ele>
        <time>2025-02-26T15:26:56Z</time>
      </trkpt>
      <trkpt lat="43.48003" lon="6.58548">
        <ele>67.3</ele>
        <time>2025-02-26T15:26:57Z</time>
      </trkpt>
      <trkpt lat="43.48003" lon="6.58548">
        <ele>67.3</ele>
        <time>2025-02-26T15:26:58Z</time>
      </trkpt>
      <trkpt lat="43.48003" lon="6.58548">
        <ele>67.3</ele>
        <time>2025-02-26T15:26:59Z</time>
      </trkpt>
      <trkpt lat="43.48003" lon="6.58548">
        <ele>67.3</ele>
        <time>2025-02-26T15:27:00Z</time>
      </trkpt>
      <trkpt lat="43.48003" lon="6.58548">
        <ele>67.4</ele>
        <time>2025-02-26T15:27:01Z</time>
      </trkpt>
      <trkpt lat="43.48003" lon="6.58548">
        <ele>67.4</ele>
        <time>2025-02-26T15:27:02Z</time>
      </trkpt>
      <trkpt lat="43.48003" lon="6.58548">
        <ele>67.4</ele>
        <time>2025-02-26T15:27:03Z</time>
      </trkpt>
      <trkpt lat="43.48002" lon="6.58548">
        <ele>67.4</ele>
        <time>2025-02-26T15:27:04Z</time>
      </trkpt>
      <trkpt lat="43.48002" lon="6.58548">
        <ele>67.3</ele>
        <time>2025-02-26T15:27:05Z</time>
      </trkpt>
      <trkpt lat="43.48002" lon="6.58549">
        <ele>67.3</ele>
        <time>2025-02-26T15:27:06Z</time>
      </trkpt>
      <trkpt lat="43.48002" lon="6.58549">
        <ele>67.3</ele>
        <time>2025-02-26T15:27:07Z</time>
      </trkpt>
      <trkpt lat="43.48002" lon="6.58549">
        <ele>67.3</ele>
        <time>2025-02-26T15:27:08Z</time>
      </trkpt>
      <trkpt lat="43.48002" lon="6.58549">
        <ele>67.3</ele>
        <time>2025-02-26T15:27:09Z</time>
      </trkpt>
      <trkpt lat="43.48002" lon="6.58549">
        <ele>67.2</ele>
        <time>2025-02-26T15:27:10Z</time>
      </trkpt>
      <trkpt lat="43.48002" lon="6.58549">
        <ele>67.3</ele>
        <time>2025-02-26T15:27:11Z</time>
      </trkpt>
      <trkpt lat="43.48002" lon="6.58549">
        <ele>67.2</ele>
        <time>2025-02-26T15:27:12Z</time>
      </trkpt>
      <trkpt lat="43.48002" lon="6.58549">
        <ele>67.2</ele>
        <time>2025-02-26T15:27:13Z</time>
      </trkpt>
      <trkpt lat="43.48003" lon="6.58549">
        <ele>67.2</ele>
        <time>2025-02-26T15:27:14Z</time>
      </trkpt>
      <trkpt lat="43.48003" lon="6.58549">
        <ele>67.2</ele>
        <time>2025-02-26T15:27:15Z</time>
      </trkpt>
      <trkpt lat="43.48003" lon="6.58549">
        <ele>67.1</ele>
        <time>2025-02-26T15:27:16Z</time>
      </trkpt>
      <trkpt lat="43.48002" lon="6.58549">
        <ele>67.1</ele>
        <time>2025-02-26T15:27:17Z</time>
      </trkpt>
      <trkpt lat="43.48003" lon="6.58549">
        <ele>67</ele>
        <time>2025-02-26T15:27:18Z</time>
      </trkpt>
      <trkpt lat="43.48002" lon="6.58549">
        <ele>66.9</ele>
        <time>2025-02-26T15:27:19Z</time>
      </trkpt>
      <trkpt lat="43.48002" lon="6.58549">
        <ele>67</ele>
        <time>2025-02-26T15:27:20Z</time>
      </trkpt>
      <trkpt lat="43.48002" lon="6.58549">
        <ele>67.1</ele>
        <time>2025-02-26T15:27:21Z</time>
      </trkpt>
      <trkpt lat="43.48002" lon="6.58549">
        <ele>67.2</ele>
        <time>2025-02-26T15:27:22Z</time>
      </trkpt>
      <trkpt lat="43.48002" lon="6.58549">
        <ele>67.2</ele>
        <time>2025-02-26T15:27:23Z</time>
      </trkpt>
      <trkpt lat="43.48002" lon="6.58549">
        <ele>67.3</ele>
        <time>2025-02-26T15:27:24Z</time>
      </trkpt>
      <trkpt lat="43.48002" lon="6.58549">
        <ele>67.4</ele>
        <time>2025-02-26T15:27:25Z</time>
      </trkpt>
      <trkpt lat="43.48002" lon="6.58549">
        <ele>67.4</ele>
        <time>2025-02-26T15:27:26Z</time>
      </trkpt>
      <trkpt lat="43.48002" lon="6.5855">
        <ele>67.3</ele>
        <time>2025-02-26T15:27:27Z</time>
      </trkpt>
      <trkpt lat="43.48002" lon="6.5855">
        <ele>67.3</ele>
        <time>2025-02-26T15:27:28Z</time>
      </trkpt>
      <trkpt lat="43.48002" lon="6.5855">
        <ele>67.3</ele>
        <time>2025-02-26T15:27:29Z</time>
      </trkpt>
      <trkpt lat="43.48002" lon="6.5855">
        <ele>67.3</ele>
        <time>2025-02-26T15:27:30Z</time>
      </trkpt>
      <trkpt lat="43.48002" lon="6.5855">
        <ele>67.3</ele>
        <time>2025-02-26T15:27:31Z</time>
      </trkpt>
      <trkpt lat="43.48002" lon="6.5855">
        <ele>67.3</ele>
        <time>2025-02-26T15:27:32Z</time>
      </trkpt>
      <trkpt lat="43.48002" lon="6.5855">
        <ele>67.3</ele>
        <time>2025-02-26T15:27:33Z</time>
      </trkpt>
      <trkpt lat="43.48002" lon="6.5855">
        <ele>67.3</ele>
        <time>2025-02-26T15:27:34Z</time>
      </trkpt>
      <trkpt lat="43.48002" lon="6.58549">
        <ele>67.4</ele>
        <time>2025-02-26T15:27:35Z</time>
      </trkpt>
      <trkpt lat="43.48002" lon="6.58549">
        <ele>67.4</ele>
        <time>2025-02-26T15:27:36Z</time>
      </trkpt>
      <trkpt lat="43.48002" lon="6.58549">
        <ele>67.4</ele>
        <time>2025-02-26T15:27:37Z</time>
      </trkpt>
      <trkpt lat="43.48002" lon="6.58549">
        <ele>67.3</ele>
        <time>2025-02-26T15:27:38Z</time>
      </trkpt>
      <trkpt lat="43.48002" lon="6.58549">
        <ele>67.2</ele>
        <time>2025-02-26T15:27:39Z</time>
      </trkpt>
      <trkpt lat="43.48002" lon="6.58549">
        <ele>67.1</ele>
        <time>2025-02-26T15:27:40Z</time>
      </trkpt>
      <trkpt lat="43.48002" lon="6.58549">
        <ele>67.1</ele>
        <time>2025-02-26T15:27:41Z</time>
      </trkpt>
      <trkpt lat="43.48002" lon="6.58549">
        <ele>67.1</ele>
        <time>2025-02-26T15:27:42Z</time>
      </trkpt>
      <trkpt lat="43.48002" lon="6.58549">
        <ele>67.1</ele>
        <time>2025-02-26T15:27:43Z</time>
      </trkpt>
      <trkpt lat="43.48002" lon="6.58549">
        <ele>67.1</ele>
        <time>2025-02-26T15:27:44Z</time>
      </trkpt>
      <trkpt lat="43.48002" lon="6.58549">
        <ele>67.1</ele>
        <time>2025-02-26T15:27:45Z</time>
      </trkpt>
      <trkpt lat="43.48002" lon="6.58549">
        <ele>67.2</ele>
        <time>2025-02-26T15:27:46Z</time>
      </trkpt>
      <trkpt lat="43.48002" lon="6.58549">
        <ele>67.2</ele>
        <time>2025-02-26T15:27:47Z</time>
      </trkpt>
      <trkpt lat="43.48002" lon="6.5855">
        <ele>67.2</ele>
        <time>2025-02-26T15:27:48Z</time>
      </trkpt>
      <trkpt lat="43.48002" lon="6.5855">
        <ele>67.2</ele>
        <time>2025-02-26T15:27:49Z</time>
      </trkpt>
      <trkpt lat="43.48003" lon="6.5855">
        <ele>67.3</ele>
        <time>2025-02-26T15:27:50Z</time>
      </trkpt>
      <trkpt lat="43.48003" lon="6.5855">
        <ele>67.2</ele>
        <time>2025-02-26T15:27:51Z</time>
      </trkpt>
      <trkpt lat="43.48003" lon="6.5855">
        <ele>67.2</ele>
        <time>2025-02-26T15:27:52Z</time>
      </trkpt>
      <trkpt lat="43.48003" lon="6.5855">
        <ele>67.2</ele>
        <time>2025-02-26T15:27:53Z</time>
      </trkpt>
      <trkpt lat="43.48003" lon="6.5855">
        <ele>67.2</ele>
        <time>2025-02-26T15:27:54Z</time>
      </trkpt>
      <trkpt lat="43.48003" lon="6.58551">
        <ele>67.2</ele>
        <time>2025-02-26T15:27:55Z</time>
      </trkpt>
      <trkpt lat="43.48003" lon="6.58551">
        <ele>67.2</ele>
        <time>2025-02-26T15:27:56Z</time>
      </trkpt>
      <trkpt lat="43.48003" lon="6.58551">
        <ele>67.2</ele>
        <time>2025-02-26T15:27:57Z</time>
      </trkpt>
      <trkpt lat="43.48003" lon="6.58551">
        <ele>67.2</ele>
        <time>2025-02-26T15:27:58Z</time>
      </trkpt>
      <trkpt lat="43.48003" lon="6.58551">
        <ele>67.2</ele>
        <time>2025-02-26T15:27:59Z</time>
      </trkpt>
      <trkpt lat="43.48003" lon="6.58551">
        <ele>67.2</ele>
        <time>2025-02-26T15:28:00Z</time>
      </trkpt>
      <trkpt lat="43.48004" lon="6.58551">
        <ele>67.2</ele>
        <time>2025-02-26T15:28:01Z</time>
      </trkpt>
      <trkpt lat="43.48004" lon="6.58551">
        <ele>67.2</ele>
        <time>2025-02-26T15:28:02Z</time>
      </trkpt>
      <trkpt lat="43.48003" lon="6.58551">
        <ele>67.2</ele>
        <time>2025-02-26T15:28:03Z</time>
      </trkpt>
      <trkpt lat="43.48003" lon="6.58551">
        <ele>67.2</ele>
        <time>2025-02-26T15:28:04Z</time>
      </trkpt>
      <trkpt lat="43.48003" lon="6.58551">
        <ele>67.2</ele>
        <time>2025-02-26T15:28:05Z</time>
      </trkpt>
      <trkpt lat="43.48003" lon="6.58551">
        <ele>67.2</ele>
        <time>2025-02-26T15:28:06Z</time>
      </trkpt>
      <trkpt lat="43.48003" lon="6.58551">
        <ele>67.3</ele>
        <time>2025-02-26T15:28:07Z</time>
      </trkpt>
      <trkpt lat="43.48003" lon="6.5855">
        <ele>67.3</ele>
        <time>2025-02-26T15:28:08Z</time>
      </trkpt>
      <trkpt lat="43.48003" lon="6.5855">
        <ele>67.4</ele>
        <time>2025-02-26T15:28:09Z</time>
      </trkpt>
      <trkpt lat="43.48003" lon="6.5855">
        <ele>67.4</ele>
        <time>2025-02-26T15:28:10Z</time>
      </trkpt>
      <trkpt lat="43.48003" lon="6.5855">
        <ele>67.5</ele>
        <time>2025-02-26T15:28:11Z</time>
      </trkpt>
      <trkpt lat="43.48003" lon="6.5855">
        <ele>67.5</ele>
        <time>2025-02-26T15:28:12Z</time>
      </trkpt>
      <trkpt lat="43.48003" lon="6.5855">
        <ele>67.5</ele>
        <time>2025-02-26T15:28:13Z</time>
      </trkpt>
      <trkpt lat="43.48003" lon="6.5855">
        <ele>67.5</ele>
        <time>2025-02-26T15:28:14Z</time>
      </trkpt>
      <trkpt lat="43.48003" lon="6.5855">
        <ele>67.5</ele>
        <time>2025-02-26T15:28:15Z</time>
      </trkpt>
      <trkpt lat="43.48003" lon="6.58549">
        <ele>67.4</ele>
        <time>2025-02-26T15:28:16Z</time>
      </trkpt>
      <trkpt lat="43.48003" lon="6.58549">
        <ele>67.5</ele>
        <time>2025-02-26T15:28:17Z</time>
      </trkpt>
      <trkpt lat="43.48003" lon="6.58549">
        <ele>67.5</ele>
        <time>2025-02-26T15:28:18Z</time>
      </trkpt>
      <trkpt lat="43.48003" lon="6.5855">
        <ele>67.5</ele>
        <time>2025-02-26T15:28:19Z</time>
      </trkpt>
      <trkpt lat="43.48003" lon="6.5855">
        <ele>67.5</ele>
        <time>2025-02-26T15:28:20Z</time>
      </trkpt>
      <trkpt lat="43.48003" lon="6.5855">
        <ele>67.5</ele>
        <time>2025-02-26T15:28:21Z</time>
      </trkpt>
      <trkpt lat="43.48003" lon="6.5855">
        <ele>67.4</ele>
        <time>2025-02-26T15:28:22Z</time>
      </trkpt>
      <trkpt lat="43.48003" lon="6.5855">
        <ele>67.4</ele>
        <time>2025-02-26T15:28:23Z</time>
      </trkpt>
      <trkpt lat="43.48003" lon="6.5855">
        <ele>67.4</ele>
        <time>2025-02-26T15:28:24Z</time>
      </trkpt>
      <trkpt lat="43.48003" lon="6.5855">
        <ele>67.4</ele>
        <time>2025-02-26T15:28:25Z</time>
      </trkpt>
      <trkpt lat="43.48003" lon="6.5855">
        <ele>67.4</ele>
        <time>2025-02-26T15:28:26Z</time>
      </trkpt>
      <trkpt lat="43.48003" lon="6.5855">
        <ele>67.4</ele>
        <time>2025-02-26T15:28:27Z</time>
      </trkpt>
      <trkpt lat="43.48003" lon="6.5855">
        <ele>67.4</ele>
        <time>2025-02-26T15:28:28Z</time>
      </trkpt>
      <trkpt lat="43.48003" lon="6.5855">
        <ele>67.3</ele>
        <time>2025-02-26T15:28:29Z</time>
      </trkpt>
      <trkpt lat="43.48003" lon="6.5855">
        <ele>67.3</ele>
        <time>2025-02-26T15:28:30Z</time>
      </trkpt>
      <trkpt lat="43.48003" lon="6.5855">
        <ele>67.2</ele>
        <time>2025-02-26T15:28:31Z</time>
      </trkpt>
      <trkpt lat="43.48003" lon="6.5855">
        <ele>67.3</ele>
        <time>2025-02-26T15:28:32Z</time>
      </trkpt>
      <trkpt lat="43.48003" lon="6.5855">
        <ele>67.3</ele>
        <time>2025-02-26T15:28:33Z</time>
      </trkpt>
      <trkpt lat="43.48004" lon="6.5855">
        <ele>67.4</ele>
        <time>2025-02-26T15:28:34Z</time>
      </trkpt>
      <trkpt lat="43.48003" lon="6.5855">
        <ele>67.4</ele>
        <time>2025-02-26T15:28:35Z</time>
      </trkpt>
      <trkpt lat="43.48003" lon="6.5855">
        <ele>67.4</ele>
        <time>2025-02-26T15:28:36Z</time>
      </trkpt>
      <trkpt lat="43.48003" lon="6.58549">
        <ele>67.4</ele>
        <time>2025-02-26T15:28:37Z</time>
      </trkpt>
      <trkpt lat="43.48003" lon="6.58549">
        <ele>67.3</ele>
        <time>2025-02-26T15:28:38Z</time>
      </trkpt>
      <trkpt lat="43.48003" lon="6.58549">
        <ele>67.3</ele>
        <time>2025-02-26T15:28:39Z</time>
      </trkpt>
      <trkpt lat="43.48002" lon="6.58549">
        <ele>67.3</ele>
        <time>2025-02-26T15:28:40Z</time>
      </trkpt>
      <trkpt lat="43.48002" lon="6.58548">
        <ele>67.4</ele>
        <time>2025-02-26T15:28:41Z</time>
      </trkpt>
      <trkpt lat="43.48002" lon="6.58548">
        <ele>67.4</ele>
        <time>2025-02-26T15:28:42Z</time>
      </trkpt>
      <trkpt lat="43.48002" lon="6.58547">
        <ele>67.3</ele>
        <time>2025-02-26T15:28:43Z</time>
      </trkpt>
      <trkpt lat="43.48002" lon="6.58547">
        <ele>67.4</ele>
        <time>2025-02-26T15:28:44Z</time>
      </trkpt>
      <trkpt lat="43.48001" lon="6.58547">
        <ele>67.4</ele>
        <time>2025-02-26T15:28:45Z</time>
      </trkpt>
      <trkpt lat="43.48001" lon="6.58547">
        <ele>67.3</ele>
        <time>2025-02-26T15:28:46Z</time>
      </trkpt>
      <trkpt lat="43.48001" lon="6.58546">
        <ele>67.3</ele>
        <time>2025-02-26T15:28:47Z</time>
      </trkpt>
      <trkpt lat="43.48001" lon="6.58546">
        <ele>67.3</ele>
        <time>2025-02-26T15:28:48Z</time>
      </trkpt>
      <trkpt lat="43.48001" lon="6.58545">
        <ele>67.3</ele>
        <time>2025-02-26T15:28:49Z</time>
      </trkpt>
      <trkpt lat="43.48001" lon="6.58545">
        <ele>67.2</ele>
        <time>2025-02-26T15:28:50Z</time>
      </trkpt>
      <trkpt lat="43.48001" lon="6.58545">
        <ele>67.2</ele>
        <time>2025-02-26T15:28:51Z</time>
      </trkpt>
      <trkpt lat="43.48001" lon="6.58544">
        <ele>67.2</ele>
        <time>2025-02-26T15:28:52Z</time>
      </trkpt>
      <trkpt lat="43.48001" lon="6.58544">
        <ele>67.1</ele>
        <time>2025-02-26T15:28:53Z</time>
      </trkpt>
      <trkpt lat="43.48001" lon="6.58544">
        <ele>67.1</ele>
        <time>2025-02-26T15:28:54Z</time>
      </trkpt>
      <trkpt lat="43.48001" lon="6.58544">
        <ele>67.1</ele>
        <time>2025-02-26T15:28:55Z</time>
      </trkpt>
      <trkpt lat="43.48001" lon="6.58544">
        <ele>67</ele>
        <time>2025-02-26T15:28:56Z</time>
      </trkpt>
      <trkpt lat="43.48001" lon="6.58544">
        <ele>67</ele>
        <time>2025-02-26T15:28:57Z</time>
      </trkpt>
      <trkpt lat="43.48001" lon="6.58543">
        <ele>66.9</ele>
        <time>2025-02-26T15:28:58Z</time>
      </trkpt>
      <trkpt lat="43.48001" lon="6.58543">
        <ele>66.9</ele>
        <time>2025-02-26T15:28:59Z</time>
      </trkpt>
      <trkpt lat="43.48001" lon="6.58543">
        <ele>66.9</ele>
        <time>2025-02-26T15:29:00Z</time>
      </trkpt>
      <trkpt lat="43.48001" lon="6.58543">
        <ele>67</ele>
        <time>2025-02-26T15:29:01Z</time>
      </trkpt>
      <trkpt lat="43.48001" lon="6.58542">
        <ele>67</ele>
        <time>2025-02-26T15:29:02Z</time>
      </trkpt>
      <trkpt lat="43.48001" lon="6.58542">
        <ele>67.1</ele>
        <time>2025-02-26T15:29:03Z</time>
      </trkpt>
      <trkpt lat="43.48001" lon="6.58542">
        <ele>67.2</ele>
        <time>2025-02-26T15:29:04Z</time>
      </trkpt>
      <trkpt lat="43.48001" lon="6.58542">
        <ele>67.1</ele>
        <time>2025-02-26T15:29:05Z</time>
      </trkpt>
      <trkpt lat="43.48001" lon="6.58542">
        <ele>67.1</ele>
        <time>2025-02-26T15:29:06Z</time>
      </trkpt>
      <trkpt lat="43.48001" lon="6.58542">
        <ele>67.2</ele>
        <time>2025-02-26T15:29:07Z</time>
      </trkpt>
      <trkpt lat="43.48001" lon="6.58542">
        <ele>67.3</ele>
        <time>2025-02-26T15:29:08Z</time>
      </trkpt>
      <trkpt lat="43.48001" lon="6.58542">
        <ele>67.4</ele>
        <time>2025-02-26T15:29:09Z</time>
      </trkpt>
      <trkpt lat="43.48001" lon="6.58541">
        <ele>67.4</ele>
        <time>2025-02-26T15:29:10Z</time>
      </trkpt>
      <trkpt lat="43.48" lon="6.5854">
        <ele>67.3</ele>
        <time>2025-02-26T15:29:11Z</time>
      </trkpt>
      <trkpt lat="43.48" lon="6.58539">
        <ele>67.3</ele>
        <time>2025-02-26T15:29:12Z</time>
      </trkpt>
      <trkpt lat="43.48" lon="6.58537">
        <ele>67.3</ele>
        <time>2025-02-26T15:29:13Z</time>
      </trkpt>
      <trkpt lat="43.48" lon="6.58535">
        <ele>67.3</ele>
        <time>2025-02-26T15:29:14Z</time>
      </trkpt>
      <trkpt lat="43.48" lon="6.58534">
        <ele>67.4</ele>
        <time>2025-02-26T15:29:15Z</time>
      </trkpt>
      <trkpt lat="43.48001" lon="6.58533">
        <ele>67.4</ele>
        <time>2025-02-26T15:29:16Z</time>
      </trkpt>
      <trkpt lat="43.48001" lon="6.58531">
        <ele>67.5</ele>
        <time>2025-02-26T15:29:17Z</time>
      </trkpt>
      <trkpt lat="43.48001" lon="6.5853">
        <ele>67.6</ele>
        <time>2025-02-26T15:29:18Z</time>
      </trkpt>
      <trkpt lat="43.48002" lon="6.58529">
        <ele>67.7</ele>
        <time>2025-02-26T15:29:19Z</time>
      </trkpt>
      <trkpt lat="43.48002" lon="6.58527">
        <ele>67.8</ele>
        <time>2025-02-26T15:29:20Z</time>
      </trkpt>
      <trkpt lat="43.48002" lon="6.58526">
        <ele>67.9</ele>
        <time>2025-02-26T15:29:21Z</time>
      </trkpt>
      <trkpt lat="43.48002" lon="6.58525">
        <ele>68</ele>
        <time>2025-02-26T15:29:22Z</time>
      </trkpt>
      <trkpt lat="43.48003" lon="6.58523">
        <ele>68</ele>
        <time>2025-02-26T15:29:23Z</time>
      </trkpt>
      <trkpt lat="43.48003" lon="6.58522">
        <ele>68.1</ele>
        <time>2025-02-26T15:29:24Z</time>
      </trkpt>
      <trkpt lat="43.48003" lon="6.58521">
        <ele>68.2</ele>
        <time>2025-02-26T15:29:25Z</time>
      </trkpt>
      <trkpt lat="43.48003" lon="6.58519">
        <ele>68.3</ele>
        <time>2025-02-26T15:29:26Z</time>
      </trkpt>
      <trkpt lat="43.48004" lon="6.58518">
        <ele>68.3</ele>
        <time>2025-02-26T15:29:27Z</time>
      </trkpt>
      <trkpt lat="43.48004" lon="6.58517">
        <ele>68.4</ele>
        <time>2025-02-26T15:29:28Z</time>
      </trkpt>
      <trkpt lat="43.48004" lon="6.58516">
        <ele>68.5</ele>
        <time>2025-02-26T15:29:29Z</time>
      </trkpt>
      <trkpt lat="43.48005" lon="6.58515">
        <ele>68.6</ele>
        <time>2025-02-26T15:29:30Z</time>
      </trkpt>
      <trkpt lat="43.48006" lon="6.58513">
        <ele>68.6</ele>
        <time>2025-02-26T15:29:31Z</time>
      </trkpt>
      <trkpt lat="43.48007" lon="6.58512">
        <ele>68.8</ele>
        <time>2025-02-26T15:29:32Z</time>
      </trkpt>
      <trkpt lat="43.48007" lon="6.58511">
        <ele>68.9</ele>
        <time>2025-02-26T15:29:33Z</time>
      </trkpt>
      <trkpt lat="43.48008" lon="6.5851">
        <ele>68.9</ele>
        <time>2025-02-26T15:29:34Z</time>
      </trkpt>
      <trkpt lat="43.48009" lon="6.58509">
        <ele>68.9</ele>
        <time>2025-02-26T15:29:35Z</time>
      </trkpt>
      <trkpt lat="43.48009" lon="6.58507">
        <ele>68.9</ele>
        <time>2025-02-26T15:29:36Z</time>
      </trkpt>
      <trkpt lat="43.4801" lon="6.58506">
        <ele>69.1</ele>
        <time>2025-02-26T15:29:37Z</time>
      </trkpt>
      <trkpt lat="43.48011" lon="6.58505">
        <ele>69.3</ele>
        <time>2025-02-26T15:29:38Z</time>
      </trkpt>
      <trkpt lat="43.48012" lon="6.58503">
        <ele>69.5</ele>
        <time>2025-02-26T15:29:39Z</time>
      </trkpt>
      <trkpt lat="43.48012" lon="6.58502">
        <ele>69.6</ele>
        <time>2025-02-26T15:29:40Z</time>
      </trkpt>
      <trkpt lat="43.48013" lon="6.58501">
        <ele>69.6</ele>
        <time>2025-02-26T15:29:41Z</time>
      </trkpt>
      <trkpt lat="43.48014" lon="6.58499">
        <ele>69.6</ele>
        <time>2025-02-26T15:29:42Z</time>
      </trkpt>
      <trkpt lat="43.48015" lon="6.58498">
        <ele>69.7</ele>
        <time>2025-02-26T15:29:43Z</time>
      </trkpt>
      <trkpt lat="43.48016" lon="6.58497">
        <ele>69.8</ele>
        <time>2025-02-26T15:29:44Z</time>
      </trkpt>
      <trkpt lat="43.48016" lon="6.58496">
        <ele>69.8</ele>
        <time>2025-02-26T15:29:45Z</time>
      </trkpt>
      <trkpt lat="43.48016" lon="6.58495">
        <ele>69.9</ele>
        <time>2025-02-26T15:29:46Z</time>
      </trkpt>
      <trkpt lat="43.48016" lon="6.58493">
        <ele>69.9</ele>
        <time>2025-02-26T15:29:47Z</time>
      </trkpt>
      <trkpt lat="43.48016" lon="6.58492">
        <ele>70</ele>
        <time>2025-02-26T15:29:48Z</time>
      </trkpt>
      <trkpt lat="43.48017" lon="6.5849">
        <ele>70</ele>
        <time>2025-02-26T15:29:49Z</time>
      </trkpt>
      <trkpt lat="43.48017" lon="6.58489">
        <ele>70</ele>
        <time>2025-02-26T15:29:50Z</time>
      </trkpt>
      <trkpt lat="43.48018" lon="6.58488">
        <ele>70</ele>
        <time>2025-02-26T15:29:51Z</time>
      </trkpt>
      <trkpt lat="43.48019" lon="6.58487">
        <ele>70</ele>
        <time>2025-02-26T15:29:52Z</time>
      </trkpt>
      <trkpt lat="43.48019" lon="6.58485">
        <ele>70.1</ele>
        <time>2025-02-26T15:29:53Z</time>
      </trkpt>
      <trkpt lat="43.4802" lon="6.58484">
        <ele>70.2</ele>
        <time>2025-02-26T15:29:54Z</time>
      </trkpt>
      <trkpt lat="43.48021" lon="6.58482">
        <ele>70.3</ele>
        <time>2025-02-26T15:29:55Z</time>
      </trkpt>
      <trkpt lat="43.48022" lon="6.58481">
        <ele>70.3</ele>
        <time>2025-02-26T15:29:56Z</time>
      </trkpt>
      <trkpt lat="43.48022" lon="6.5848">
        <ele>70.4</ele>
        <time>2025-02-26T15:29:57Z</time>
      </trkpt>
      <trkpt lat="43.48023" lon="6.58479">
        <ele>70.4</ele>
        <time>2025-02-26T15:29:58Z</time>
      </trkpt>
      <trkpt lat="43.48024" lon="6.58478">
        <ele>70.4</ele>
        <time>2025-02-26T15:29:59Z</time>
      </trkpt>
      <trkpt lat="43.48024" lon="6.58477">
        <ele>70.5</ele>
        <time>2025-02-26T15:30:00Z</time>
      </trkpt>
      <trkpt lat="43.48024" lon="6.58475">
        <ele>70.6</ele>
        <time>2025-02-26T15:30:01Z</time>
      </trkpt>
      <trkpt lat="43.48024" lon="6.58474">
        <ele>70.6</ele>
        <time>2025-02-26T15:30:02Z</time>
      </trkpt>
      <trkpt lat="43.48025" lon="6.58473">
        <ele>70.7</ele>
        <time>2025-02-26T15:30:03Z</time>
      </trkpt>
      <trkpt lat="43.48025" lon="6.58471">
        <ele>70.9</ele>
        <time>2025-02-26T15:30:04Z</time>
      </trkpt>
      <trkpt lat="43.48026" lon="6.5847">
        <ele>71</ele>
        <time>2025-02-26T15:30:05Z</time>
      </trkpt>
      <trkpt lat="43.48026" lon="6.58468">
        <ele>71</ele>
        <time>2025-02-26T15:30:06Z</time>
      </trkpt>
      <trkpt lat="43.48027" lon="6.58467">
        <ele>71.1</ele>
        <time>2025-02-26T15:30:07Z</time>
      </trkpt>
      <trkpt lat="43.48028" lon="6.58466">
        <ele>71.1</ele>
        <time>2025-02-26T15:30:08Z</time>
      </trkpt>
      <trkpt lat="43.48029" lon="6.58464">
        <ele>71.2</ele>
        <time>2025-02-26T15:30:09Z</time>
      </trkpt>
      <trkpt lat="43.4803" lon="6.58464">
        <ele>71.2</ele>
        <time>2025-02-26T15:30:10Z</time>
      </trkpt>
      <trkpt lat="43.48031" lon="6.58463">
        <ele>71.2</ele>
        <time>2025-02-26T15:30:11Z</time>
      </trkpt>
      <trkpt lat="43.48032" lon="6.58462">
        <ele>71.3</ele>
        <time>2025-02-26T15:30:12Z</time>
      </trkpt>
      <trkpt lat="43.48033" lon="6.5846">
        <ele>71.5</ele>
        <time>2025-02-26T15:30:13Z</time>
      </trkpt>
      <trkpt lat="43.48033" lon="6.58459">
        <ele>71.7</ele>
        <time>2025-02-26T15:30:14Z</time>
      </trkpt>
      <trkpt lat="43.48034" lon="6.58458">
        <ele>71.7</ele>
        <time>2025-02-26T15:30:15Z</time>
      </trkpt>
      <trkpt lat="43.48034" lon="6.58456">
        <ele>71.7</ele>
        <time>2025-02-26T15:30:16Z</time>
      </trkpt>
      <trkpt lat="43.48035" lon="6.58455">
        <ele>71.7</ele>
        <time>2025-02-26T15:30:17Z</time>
      </trkpt>
      <trkpt lat="43.48035" lon="6.58454">
        <ele>71.8</ele>
        <time>2025-02-26T15:30:18Z</time>
      </trkpt>
      <trkpt lat="43.48036" lon="6.58453">
        <ele>71.9</ele>
        <time>2025-02-26T15:30:19Z</time>
      </trkpt>
      <trkpt lat="43.48037" lon="6.58452">
        <ele>71.9</ele>
        <time>2025-02-26T15:30:20Z</time>
      </trkpt>
      <trkpt lat="43.48038" lon="6.58451">
        <ele>72</ele>
        <time>2025-02-26T15:30:21Z</time>
      </trkpt>
      <trkpt lat="43.48039" lon="6.5845">
        <ele>72</ele>
        <time>2025-02-26T15:30:22Z</time>
      </trkpt>
      <trkpt lat="43.4804" lon="6.58449">
        <ele>72.2</ele>
        <time>2025-02-26T15:30:23Z</time>
      </trkpt>
      <trkpt lat="43.4804" lon="6.58448">
        <ele>72.3</ele>
        <time>2025-02-26T15:30:24Z</time>
      </trkpt>
      <trkpt lat="43.4804" lon="6.58447">
        <ele>72.3</ele>
        <time>2025-02-26T15:30:25Z</time>
      </trkpt>
      <trkpt lat="43.48041" lon="6.58446">
        <ele>72.3</ele>
        <time>2025-02-26T15:30:26Z</time>
      </trkpt>
      <trkpt lat="43.48042" lon="6.58445">
        <ele>72.3</ele>
        <time>2025-02-26T15:30:27Z</time>
      </trkpt>
      <trkpt lat="43.48042" lon="6.58443">
        <ele>72.2</ele>
        <time>2025-02-26T15:30:28Z</time>
      </trkpt>
      <trkpt lat="43.48042" lon="6.58442">
        <ele>72.4</ele>
        <time>2025-02-26T15:30:29Z</time>
      </trkpt>
      <trkpt lat="43.48043" lon="6.58441">
        <ele>72.3</ele>
        <time>2025-02-26T15:30:30Z</time>
      </trkpt>
      <trkpt lat="43.48044" lon="6.58439">
        <ele>72.4</ele>
        <time>2025-02-26T15:30:31Z</time>
      </trkpt>
      <trkpt lat="43.48044" lon="6.58438">
        <ele>72.5</ele>
        <time>2025-02-26T15:30:32Z</time>
      </trkpt>
      <trkpt lat="43.48044" lon="6.58437">
        <ele>72.5</ele>
        <time>2025-02-26T15:30:33Z</time>
      </trkpt>
      <trkpt lat="43.48044" lon="6.58435">
        <ele>72.6</ele>
        <time>2025-02-26T15:30:34Z</time>
      </trkpt>
      <trkpt lat="43.48044" lon="6.58433">
        <ele>72.6</ele>
        <time>2025-02-26T15:30:35Z</time>
      </trkpt>
      <trkpt lat="43.48044" lon="6.58432">
        <ele>72.6</ele>
        <time>2025-02-26T15:30:36Z</time>
      </trkpt>
      <trkpt lat="43.48044" lon="6.5843">
        <ele>72.7</ele>
        <time>2025-02-26T15:30:37Z</time>
      </trkpt>
      <trkpt lat="43.48044" lon="6.5843">
        <ele>72.9</ele>
        <time>2025-02-26T15:30:38Z</time>
      </trkpt>
      <trkpt lat="43.48044" lon="6.58428">
        <ele>73.1</ele>
        <time>2025-02-26T15:30:39Z</time>
      </trkpt>
      <trkpt lat="43.48043" lon="6.58427">
        <ele>73.3</ele>
        <time>2025-02-26T15:30:40Z</time>
      </trkpt>
      <trkpt lat="43.48043" lon="6.58426">
        <ele>73.4</ele>
        <time>2025-02-26T15:30:41Z</time>
      </trkpt>
      <trkpt lat="43.48043" lon="6.58424">
        <ele>73.6</ele>
        <time>2025-02-26T15:30:42Z</time>
      </trkpt>
      <trkpt lat="43.48043" lon="6.58423">
        <ele>73.7</ele>
        <time>2025-02-26T15:30:43Z</time>
      </trkpt>
      <trkpt lat="43.48043" lon="6.58423">
        <ele>73.7</ele>
        <time>2025-02-26T15:30:44Z</time>
      </trkpt>
      <trkpt lat="43.48043" lon="6.58422">
        <ele>73.8</ele>
        <time>2025-02-26T15:30:45Z</time>
      </trkpt>
      <trkpt lat="43.48042" lon="6.58421">
        <ele>73.9</ele>
        <time>2025-02-26T15:30:46Z</time>
      </trkpt>
      <trkpt lat="43.48042" lon="6.5842">
        <ele>74.1</ele>
        <time>2025-02-26T15:30:47Z</time>
      </trkpt>
      <trkpt lat="43.48041" lon="6.58419">
        <ele>74.2</ele>
        <time>2025-02-26T15:30:48Z</time>
      </trkpt>
      <trkpt lat="43.48041" lon="6.58419">
        <ele>74.3</ele>
        <time>2025-02-26T15:30:49Z</time>
      </trkpt>
      <trkpt lat="43.48041" lon="6.58418">
        <ele>74.4</ele>
        <time>2025-02-26T15:30:50Z</time>
      </trkpt>
      <trkpt lat="43.4804" lon="6.58417">
        <ele>74.3</ele>
        <time>2025-02-26T15:30:51Z</time>
      </trkpt>
      <trkpt lat="43.4804" lon="6.58416">
        <ele>74.4</ele>
        <time>2025-02-26T15:30:52Z</time>
      </trkpt>
      <trkpt lat="43.48039" lon="6.58415">
        <ele>74.6</ele>
        <time>2025-02-26T15:30:53Z</time>
      </trkpt>
      <trkpt lat="43.48039" lon="6.58413">
        <ele>74.7</ele>
        <time>2025-02-26T15:30:54Z</time>
      </trkpt>
      <trkpt lat="43.48038" lon="6.58413">
        <ele>74.8</ele>
        <time>2025-02-26T15:30:55Z</time>
      </trkpt>
      <trkpt lat="43.48037" lon="6.58412">
        <ele>74.9</ele>
        <time>2025-02-26T15:30:56Z</time>
      </trkpt>
      <trkpt lat="43.48037" lon="6.58411">
        <ele>74.9</ele>
        <time>2025-02-26T15:30:57Z</time>
      </trkpt>
      <trkpt lat="43.48036" lon="6.58409">
        <ele>75</ele>
        <time>2025-02-26T15:30:58Z</time>
      </trkpt>
      <trkpt lat="43.48036" lon="6.58408">
        <ele>75</ele>
        <time>2025-02-26T15:30:59Z</time>
      </trkpt>
      <trkpt lat="43.48035" lon="6.58408">
        <ele>75</ele>
        <time>2025-02-26T15:31:00Z</time>
      </trkpt>
      <trkpt lat="43.48035" lon="6.58407">
        <ele>74.9</ele>
        <time>2025-02-26T15:31:01Z</time>
      </trkpt>
      <trkpt lat="43.48034" lon="6.58407">
        <ele>74.8</ele>
        <time>2025-02-26T15:31:02Z</time>
      </trkpt>
      <trkpt lat="43.48034" lon="6.58406">
        <ele>74.8</ele>
        <time>2025-02-26T15:31:03Z</time>
      </trkpt>
      <trkpt lat="43.48034" lon="6.58404">
        <ele>74.9</ele>
        <time>2025-02-26T15:31:04Z</time>
      </trkpt>
      <trkpt lat="43.48033" lon="6.58403">
        <ele>74.9</ele>
        <time>2025-02-26T15:31:05Z</time>
      </trkpt>
      <trkpt lat="43.48032" lon="6.58402">
        <ele>74.9</ele>
        <time>2025-02-26T15:31:06Z</time>
      </trkpt>
      <trkpt lat="43.48032" lon="6.584">
        <ele>75</ele>
        <time>2025-02-26T15:31:07Z</time>
      </trkpt>
      <trkpt lat="43.48032" lon="6.58399">
        <ele>75</ele>
        <time>2025-02-26T15:31:08Z</time>
      </trkpt>
      <trkpt lat="43.48031" lon="6.58397">
        <ele>75</ele>
        <time>2025-02-26T15:31:09Z</time>
      </trkpt>
      <trkpt lat="43.48031" lon="6.58396">
        <ele>75</ele>
        <time>2025-02-26T15:31:10Z</time>
      </trkpt>
      <trkpt lat="43.4803" lon="6.58394">
        <ele>75.1</ele>
        <time>2025-02-26T15:31:11Z</time>
      </trkpt>
      <trkpt lat="43.4803" lon="6.58393">
        <ele>75.1</ele>
        <time>2025-02-26T15:31:12Z</time>
      </trkpt>
      <trkpt lat="43.48029" lon="6.58391">
        <ele>75.1</ele>
        <time>2025-02-26T15:31:13Z</time>
      </trkpt>
      <trkpt lat="43.48029" lon="6.58389">
        <ele>75.1</ele>
        <time>2025-02-26T15:31:14Z</time>
      </trkpt>
      <trkpt lat="43.48028" lon="6.58388">
        <ele>75.1</ele>
        <time>2025-02-26T15:31:15Z</time>
      </trkpt>
      <trkpt lat="43.48028" lon="6.58386">
        <ele>75.1</ele>
        <time>2025-02-26T15:31:16Z</time>
      </trkpt>
      <trkpt lat="43.48028" lon="6.58385">
        <ele>75.2</ele>
        <time>2025-02-26T15:31:17Z</time>
      </trkpt>
      <trkpt lat="43.48029" lon="6.58383">
        <ele>75.1</ele>
        <time>2025-02-26T15:31:18Z</time>
      </trkpt>
      <trkpt lat="43.48029" lon="6.58381">
        <ele>75.2</ele>
        <time>2025-02-26T15:31:19Z</time>
      </trkpt>
      <trkpt lat="43.48029" lon="6.58379">
        <ele>75.2</ele>
        <time>2025-02-26T15:31:20Z</time>
      </trkpt>
      <trkpt lat="43.48029" lon="6.58377">
        <ele>75.3</ele>
        <time>2025-02-26T15:31:21Z</time>
      </trkpt>
      <trkpt lat="43.48029" lon="6.58375">
        <ele>75.5</ele>
        <time>2025-02-26T15:31:22Z</time>
      </trkpt>
      <trkpt lat="43.48029" lon="6.58373">
        <ele>75.6</ele>
        <time>2025-02-26T15:31:23Z</time>
      </trkpt>
      <trkpt lat="43.48029" lon="6.58372">
        <ele>75.7</ele>
        <time>2025-02-26T15:31:24Z</time>
      </trkpt>
      <trkpt lat="43.4803" lon="6.5837">
        <ele>75.8</ele>
        <time>2025-02-26T15:31:25Z</time>
      </trkpt>
      <trkpt lat="43.4803" lon="6.58368">
        <ele>75.8</ele>
        <time>2025-02-26T15:31:26Z</time>
      </trkpt>
      <trkpt lat="43.4803" lon="6.58366">
        <ele>75.8</ele>
        <time>2025-02-26T15:31:27Z</time>
      </trkpt>
      <trkpt lat="43.4803" lon="6.58365">
        <ele>75.9</ele>
        <time>2025-02-26T15:31:28Z</time>
      </trkpt>
      <trkpt lat="43.4803" lon="6.58363">
        <ele>75.8</ele>
        <time>2025-02-26T15:31:29Z</time>
      </trkpt>
      <trkpt lat="43.4803" lon="6.58361">
        <ele>75.9</ele>
        <time>2025-02-26T15:31:30Z</time>
      </trkpt>
      <trkpt lat="43.4803" lon="6.5836">
        <ele>76</ele>
        <time>2025-02-26T15:31:31Z</time>
      </trkpt>
      <trkpt lat="43.4803" lon="6.58358">
        <ele>76.2</ele>
        <time>2025-02-26T15:31:32Z</time>
      </trkpt>
      <trkpt lat="43.4803" lon="6.58357">
        <ele>76.3</ele>
        <time>2025-02-26T15:31:33Z</time>
      </trkpt>
      <trkpt lat="43.4803" lon="6.58355">
        <ele>76.3</ele>
        <time>2025-02-26T15:31:34Z</time>
      </trkpt>
      <trkpt lat="43.4803" lon="6.58354">
        <ele>76.4</ele>
        <time>2025-02-26T15:31:35Z</time>
      </trkpt>
      <trkpt lat="43.4803" lon="6.58352">
        <ele>76.5</ele>
        <time>2025-02-26T15:31:36Z</time>
      </trkpt>
      <trkpt lat="43.48029" lon="6.58351">
        <ele>76.7</ele>
        <time>2025-02-26T15:31:37Z</time>
      </trkpt>
      <trkpt lat="43.48029" lon="6.58349">
        <ele>76.8</ele>
        <time>2025-02-26T15:31:38Z</time>
      </trkpt>
      <trkpt lat="43.48029" lon="6.58348">
        <ele>76.9</ele>
        <time>2025-02-26T15:31:39Z</time>
      </trkpt>
      <trkpt lat="43.48029" lon="6.58346">
        <ele>76.9</ele>
        <time>2025-02-26T15:31:40Z</time>
      </trkpt>
      <trkpt lat="43.48028" lon="6.58344">
        <ele>77</ele>
        <time>2025-02-26T15:31:41Z</time>
      </trkpt>
      <trkpt lat="43.48028" lon="6.58343">
        <ele>77</ele>
        <time>2025-02-26T15:31:42Z</time>
      </trkpt>
      <trkpt lat="43.48028" lon="6.58341">
        <ele>77</ele>
        <time>2025-02-26T15:31:43Z</time>
      </trkpt>
      <trkpt lat="43.48028" lon="6.5834">
        <ele>76.9</ele>
        <time>2025-02-26T15:31:44Z</time>
      </trkpt>
      <trkpt lat="43.48028" lon="6.5834">
        <ele>76.9</ele>
        <time>2025-02-26T15:31:45Z</time>
      </trkpt>
      <trkpt lat="43.48027" lon="6.58338">
        <ele>76.8</ele>
        <time>2025-02-26T15:31:46Z</time>
      </trkpt>
      <trkpt lat="43.48028" lon="6.58338">
        <ele>76.6</ele>
        <time>2025-02-26T15:31:47Z</time>
      </trkpt>
      <trkpt lat="43.48028" lon="6.58336">
        <ele>76.7</ele>
        <time>2025-02-26T15:31:48Z</time>
      </trkpt>
      <trkpt lat="43.48028" lon="6.58335">
        <ele>76.8</ele>
        <time>2025-02-26T15:31:49Z</time>
      </trkpt>
      <trkpt lat="43.48028" lon="6.58334">
        <ele>76.9</ele>
        <time>2025-02-26T15:31:50Z</time>
      </trkpt>
      <trkpt lat="43.48028" lon="6.58332">
        <ele>76.9</ele>
        <time>2025-02-26T15:31:51Z</time>
      </trkpt>
      <trkpt lat="43.48028" lon="6.58331">
        <ele>77</ele>
        <time>2025-02-26T15:31:52Z</time>
      </trkpt>
      <trkpt lat="43.48027" lon="6.58329">
        <ele>77</ele>
        <time>2025-02-26T15:31:53Z</time>
      </trkpt>
      <trkpt lat="43.48027" lon="6.58328">
        <ele>77</ele>
        <time>2025-02-26T15:31:54Z</time>
      </trkpt>
      <trkpt lat="43.48028" lon="6.58326">
        <ele>77</ele>
        <time>2025-02-26T15:31:55Z</time>
      </trkpt>
      <trkpt lat="43.48028" lon="6.58325">
        <ele>76.8</ele>
        <time>2025-02-26T15:31:56Z</time>
      </trkpt>
      <trkpt lat="43.48028" lon="6.58323">
        <ele>76.9</ele>
        <time>2025-02-26T15:31:57Z</time>
      </trkpt>
      <trkpt lat="43.48027" lon="6.58321">
        <ele>76.9</ele>
        <time>2025-02-26T15:31:58Z</time>
      </trkpt>
      <trkpt lat="43.48027" lon="6.5832">
        <ele>77</ele>
        <time>2025-02-26T15:31:59Z</time>
      </trkpt>
      <trkpt lat="43.48027" lon="6.58318">
        <ele>77.1</ele>
        <time>2025-02-26T15:32:00Z</time>
      </trkpt>
      <trkpt lat="43.48027" lon="6.58317">
        <ele>77.1</ele>
        <time>2025-02-26T15:32:01Z</time>
      </trkpt>
      <trkpt lat="43.48027" lon="6.58315">
        <ele>77.1</ele>
        <time>2025-02-26T15:32:02Z</time>
      </trkpt>
      <trkpt lat="43.48028" lon="6.58313">
        <ele>77.1</ele>
        <time>2025-02-26T15:32:03Z</time>
      </trkpt>
      <trkpt lat="43.48028" lon="6.58311">
        <ele>77.1</ele>
        <time>2025-02-26T15:32:04Z</time>
      </trkpt>
      <trkpt lat="43.48028" lon="6.5831">
        <ele>77.1</ele>
        <time>2025-02-26T15:32:05Z</time>
      </trkpt>
      <trkpt lat="43.48028" lon="6.58308">
        <ele>77.1</ele>
        <time>2025-02-26T15:32:06Z</time>
      </trkpt>
      <trkpt lat="43.48028" lon="6.58306">
        <ele>77.2</ele>
        <time>2025-02-26T15:32:07Z</time>
      </trkpt>
      <trkpt lat="43.48028" lon="6.58305">
        <ele>77.2</ele>
        <time>2025-02-26T15:32:08Z</time>
      </trkpt>
      <trkpt lat="43.48029" lon="6.58303">
        <ele>77.2</ele>
        <time>2025-02-26T15:32:09Z</time>
      </trkpt>
      <trkpt lat="43.48029" lon="6.58301">
        <ele>77.2</ele>
        <time>2025-02-26T15:32:10Z</time>
      </trkpt>
      <trkpt lat="43.48029" lon="6.583">
        <ele>77.2</ele>
        <time>2025-02-26T15:32:11Z</time>
      </trkpt>
      <trkpt lat="43.48029" lon="6.58298">
        <ele>77.2</ele>
        <time>2025-02-26T15:32:12Z</time>
      </trkpt>
      <trkpt lat="43.48029" lon="6.58296">
        <ele>77.3</ele>
        <time>2025-02-26T15:32:13Z</time>
      </trkpt>
      <trkpt lat="43.4803" lon="6.58295">
        <ele>77.5</ele>
        <time>2025-02-26T15:32:14Z</time>
      </trkpt>
      <trkpt lat="43.4803" lon="6.58293">
        <ele>77.5</ele>
        <time>2025-02-26T15:32:15Z</time>
      </trkpt>
      <trkpt lat="43.4803" lon="6.58291">
        <ele>77.7</ele>
        <time>2025-02-26T15:32:16Z</time>
      </trkpt>
      <trkpt lat="43.4803" lon="6.5829">
        <ele>77.9</ele>
        <time>2025-02-26T15:32:17Z</time>
      </trkpt>
      <trkpt lat="43.48031" lon="6.58288">
        <ele>78</ele>
        <time>2025-02-26T15:32:18Z</time>
      </trkpt>
      <trkpt lat="43.48031" lon="6.58286">
        <ele>77.9</ele>
        <time>2025-02-26T15:32:19Z</time>
      </trkpt>
      <trkpt lat="43.48032" lon="6.58284">
        <ele>77.9</ele>
        <time>2025-02-26T15:32:20Z</time>
      </trkpt>
      <trkpt lat="43.48031" lon="6.58282">
        <ele>77.8</ele>
        <time>2025-02-26T15:32:21Z</time>
      </trkpt>
      <trkpt lat="43.48031" lon="6.58281">
        <ele>77.8</ele>
        <time>2025-02-26T15:32:22Z</time>
      </trkpt>
      <trkpt lat="43.48031" lon="6.58279">
        <ele>77.9</ele>
        <time>2025-02-26T15:32:23Z</time>
      </trkpt>
      <trkpt lat="43.48031" lon="6.58278">
        <ele>77.9</ele>
        <time>2025-02-26T15:32:24Z</time>
      </trkpt>
      <trkpt lat="43.4803" lon="6.58276">
        <ele>78.1</ele>
        <time>2025-02-26T15:32:25Z</time>
      </trkpt>
      <trkpt lat="43.4803" lon="6.58275">
        <ele>78.3</ele>
        <time>2025-02-26T15:32:26Z</time>
      </trkpt>
      <trkpt lat="43.4803" lon="6.58274">
        <ele>78.5</ele>
        <time>2025-02-26T15:32:27Z</time>
      </trkpt>
      <trkpt lat="43.48029" lon="6.58273">
        <ele>78.6</ele>
        <time>2025-02-26T15:32:28Z</time>
      </trkpt>
      <trkpt lat="43.48029" lon="6.58272">
        <ele>78.7</ele>
        <time>2025-02-26T15:32:29Z</time>
      </trkpt>
      <trkpt lat="43.48028" lon="6.5827">
        <ele>78.8</ele>
        <time>2025-02-26T15:32:30Z</time>
      </trkpt>
      <trkpt lat="43.48028" lon="6.58269">
        <ele>78.9</ele>
        <time>2025-02-26T15:32:31Z</time>
      </trkpt>
      <trkpt lat="43.48027" lon="6.58268">
        <ele>79</ele>
        <time>2025-02-26T15:32:32Z</time>
      </trkpt>
      <trkpt lat="43.48027" lon="6.58266">
        <ele>78.9</ele>
        <time>2025-02-26T15:32:33Z</time>
      </trkpt>
      <trkpt lat="43.48026" lon="6.58265">
        <ele>78.9</ele>
        <time>2025-02-26T15:32:34Z</time>
      </trkpt>
      <trkpt lat="43.48026" lon="6.58265">
        <ele>79</ele>
        <time>2025-02-26T15:32:35Z</time>
      </trkpt>
      <trkpt lat="43.48026" lon="6.58264">
        <ele>79</ele>
        <time>2025-02-26T15:32:36Z</time>
      </trkpt>
      <trkpt lat="43.48026" lon="6.58264">
        <ele>79</ele>
        <time>2025-02-26T15:32:37Z</time>
      </trkpt>
      <trkpt lat="43.48026" lon="6.58264">
        <ele>79</ele>
        <time>2025-02-26T15:32:38Z</time>
      </trkpt>
      <trkpt lat="43.48026" lon="6.58264">
        <ele>79</ele>
        <time>2025-02-26T15:32:39Z</time>
      </trkpt>
      <trkpt lat="43.48026" lon="6.58264">
        <ele>79</ele>
        <time>2025-02-26T15:32:40Z</time>
      </trkpt>
      <trkpt lat="43.48026" lon="6.58264">
        <ele>79</ele>
        <time>2025-02-26T15:32:41Z</time>
      </trkpt>
      <trkpt lat="43.48026" lon="6.58263">
        <ele>79.1</ele>
        <time>2025-02-26T15:32:42Z</time>
      </trkpt>
      <trkpt lat="43.48026" lon="6.58264">
        <ele>79.2</ele>
        <time>2025-02-26T15:32:43Z</time>
      </trkpt>
      <trkpt lat="43.48025" lon="6.58264">
        <ele>79.3</ele>
        <time>2025-02-26T15:32:44Z</time>
      </trkpt>
      <trkpt lat="43.48025" lon="6.58263">
        <ele>79.4</ele>
        <time>2025-02-26T15:32:45Z</time>
      </trkpt>
      <trkpt lat="43.48025" lon="6.58263">
        <ele>79.5</ele>
        <time>2025-02-26T15:32:46Z</time>
      </trkpt>
      <trkpt lat="43.48025" lon="6.58262">
        <ele>79.6</ele>
        <time>2025-02-26T15:32:47Z</time>
      </trkpt>
      <trkpt lat="43.48025" lon="6.58262">
        <ele>79.6</ele>
        <time>2025-02-26T15:32:48Z</time>
      </trkpt>
      <trkpt lat="43.48025" lon="6.58262">
        <ele>79.6</ele>
        <time>2025-02-26T15:32:49Z</time>
      </trkpt>
      <trkpt lat="43.48026" lon="6.58262">
        <ele>79.6</ele>
        <time>2025-02-26T15:32:50Z</time>
      </trkpt>
      <trkpt lat="43.48026" lon="6.58262">
        <ele>79.6</ele>
        <time>2025-02-26T15:32:51Z</time>
      </trkpt>
      <trkpt lat="43.48026" lon="6.58262">
        <ele>79.5</ele>
        <time>2025-02-26T15:32:52Z</time>
      </trkpt>
      <trkpt lat="43.48026" lon="6.58262">
        <ele>79.4</ele>
        <time>2025-02-26T15:32:53Z</time>
      </trkpt>
      <trkpt lat="43.48026" lon="6.58262">
        <ele>79.3</ele>
        <time>2025-02-26T15:32:54Z</time>
      </trkpt>
      <trkpt lat="43.48026" lon="6.58262">
        <ele>79.4</ele>
        <time>2025-02-26T15:32:55Z</time>
      </trkpt>
      <trkpt lat="43.48026" lon="6.58262">
        <ele>79.5</ele>
        <time>2025-02-26T15:32:56Z</time>
      </trkpt>
      <trkpt lat="43.48026" lon="6.58262">
        <ele>79.6</ele>
        <time>2025-02-26T15:32:57Z</time>
      </trkpt>
      <trkpt lat="43.48026" lon="6.58262">
        <ele>79.7</ele>
        <time>2025-02-26T15:32:58Z</time>
      </trkpt>
      <trkpt lat="43.48026" lon="6.58262">
        <ele>79.6</ele>
        <time>2025-02-26T15:32:59Z</time>
      </trkpt>
      <trkpt lat="43.48026" lon="6.58262">
        <ele>79.6</ele>
        <time>2025-02-26T15:33:00Z</time>
      </trkpt>
      <trkpt lat="43.48026" lon="6.58262">
        <ele>79.6</ele>
        <time>2025-02-26T15:33:01Z</time>
      </trkpt>
      <trkpt lat="43.48026" lon="6.58262">
        <ele>79.7</ele>
        <time>2025-02-26T15:33:02Z</time>
      </trkpt>
      <trkpt lat="43.48026" lon="6.58262">
        <ele>79.7</ele>
        <time>2025-02-26T15:33:03Z</time>
      </trkpt>
      <trkpt lat="43.48026" lon="6.58262">
        <ele>79.8</ele>
        <time>2025-02-26T15:33:04Z</time>
      </trkpt>
      <trkpt lat="43.48026" lon="6.58262">
        <ele>79.9</ele>
        <time>2025-02-26T15:33:05Z</time>
      </trkpt>
      <trkpt lat="43.48026" lon="6.58262">
        <ele>80</ele>
        <time>2025-02-26T15:33:06Z</time>
      </trkpt>
      <trkpt lat="43.48026" lon="6.58262">
        <ele>79.9</ele>
        <time>2025-02-26T15:33:07Z</time>
      </trkpt>
      <trkpt lat="43.48027" lon="6.58262">
        <ele>79.9</ele>
        <time>2025-02-26T15:33:08Z</time>
      </trkpt>
      <trkpt lat="43.48026" lon="6.58262">
        <ele>80</ele>
        <time>2025-02-26T15:33:09Z</time>
      </trkpt>
      <trkpt lat="43.48026" lon="6.58262">
        <ele>79.9</ele>
        <time>2025-02-26T15:33:10Z</time>
      </trkpt>
      <trkpt lat="43.48026" lon="6.58262">
        <ele>79.9</ele>
        <time>2025-02-26T15:33:11Z</time>
      </trkpt>
      <trkpt lat="43.48027" lon="6.58262">
        <ele>79.9</ele>
        <time>2025-02-26T15:33:12Z</time>
      </trkpt>
      <trkpt lat="43.48027" lon="6.58262">
        <ele>79.9</ele>
        <time>2025-02-26T15:33:13Z</time>
      </trkpt>
      <trkpt lat="43.48027" lon="6.58262">
        <ele>79.8</ele>
        <time>2025-02-26T15:33:14Z</time>
      </trkpt>
      <trkpt lat="43.48027" lon="6.58262">
        <ele>79.8</ele>
        <time>2025-02-26T15:33:15Z</time>
      </trkpt>
      <trkpt lat="43.48026" lon="6.58262">
        <ele>79.8</ele>
        <time>2025-02-26T15:33:16Z</time>
      </trkpt>
      <trkpt lat="43.48026" lon="6.58262">
        <ele>79.7</ele>
        <time>2025-02-26T15:33:17Z</time>
      </trkpt>
      <trkpt lat="43.48026" lon="6.58261">
        <ele>79.6</ele>
        <time>2025-02-26T15:33:18Z</time>
      </trkpt>
      <trkpt lat="43.48027" lon="6.58261">
        <ele>79.5</ele>
        <time>2025-02-26T15:33:19Z</time>
      </trkpt>
      <trkpt lat="43.48027" lon="6.58261">
        <ele>79.5</ele>
        <time>2025-02-26T15:33:20Z</time>
      </trkpt>
      <trkpt lat="43.48027" lon="6.58261">
        <ele>79.5</ele>
        <time>2025-02-26T15:33:21Z</time>
      </trkpt>
      <trkpt lat="43.48027" lon="6.58261">
        <ele>79.5</ele>
        <time>2025-02-26T15:33:22Z</time>
      </trkpt>
      <trkpt lat="43.48027" lon="6.58261">
        <ele>79.3</ele>
        <time>2025-02-26T15:33:23Z</time>
      </trkpt>
      <trkpt lat="43.48027" lon="6.58261">
        <ele>79.3</ele>
        <time>2025-02-26T15:33:24Z</time>
      </trkpt>
      <trkpt lat="43.48027" lon="6.58261">
        <ele>79.3</ele>
        <time>2025-02-26T15:33:25Z</time>
      </trkpt>
      <trkpt lat="43.48027" lon="6.58261">
        <ele>79.3</ele>
        <time>2025-02-26T15:33:26Z</time>
      </trkpt>
      <trkpt lat="43.48027" lon="6.58261">
        <ele>79.2</ele>
        <time>2025-02-26T15:33:27Z</time>
      </trkpt>
      <trkpt lat="43.48027" lon="6.58261">
        <ele>79.2</ele>
        <time>2025-02-26T15:33:28Z</time>
      </trkpt>
      <trkpt lat="43.48027" lon="6.58261">
        <ele>79.2</ele>
        <time>2025-02-26T15:33:29Z</time>
      </trkpt>
      <trkpt lat="43.48027" lon="6.58261">
        <ele>79.2</ele>
        <time>2025-02-26T15:33:30Z</time>
      </trkpt>
      <trkpt lat="43.48027" lon="6.5826">
        <ele>79.3</ele>
        <time>2025-02-26T15:33:31Z</time>
      </trkpt>
      <trkpt lat="43.48026" lon="6.5826">
        <ele>79.3</ele>
        <time>2025-02-26T15:33:32Z</time>
      </trkpt>
      <trkpt lat="43.48026" lon="6.5826">
        <ele>79.4</ele>
        <time>2025-02-26T15:33:33Z</time>
      </trkpt>
      <trkpt lat="43.48026" lon="6.5826">
        <ele>79.4</ele>
        <time>2025-02-26T15:33:34Z</time>
      </trkpt>
      <trkpt lat="43.48026" lon="6.5826">
        <ele>79.4</ele>
        <time>2025-02-26T15:33:35Z</time>
      </trkpt>
      <trkpt lat="43.48026" lon="6.58259">
        <ele>79.5</ele>
        <time>2025-02-26T15:33:36Z</time>
      </trkpt>
      <trkpt lat="43.48026" lon="6.58259">
        <ele>79.5</ele>
        <time>2025-02-26T15:33:37Z</time>
      </trkpt>
      <trkpt lat="43.48026" lon="6.58259">
        <ele>79.5</ele>
        <time>2025-02-26T15:33:38Z</time>
      </trkpt>
      <trkpt lat="43.48026" lon="6.58259">
        <ele>79.5</ele>
        <time>2025-02-26T15:33:39Z</time>
      </trkpt>
      <trkpt lat="43.48025" lon="6.58259">
        <ele>79.6</ele>
        <time>2025-02-26T15:33:40Z</time>
      </trkpt>
      <trkpt lat="43.48025" lon="6.58258">
        <ele>79.6</ele>
        <time>2025-02-26T15:33:41Z</time>
      </trkpt>
      <trkpt lat="43.48025" lon="6.58258">
        <ele>79.6</ele>
        <time>2025-02-26T15:33:42Z</time>
      </trkpt>
      <trkpt lat="43.48025" lon="6.58257">
        <ele>79.7</ele>
        <time>2025-02-26T15:33:43Z</time>
      </trkpt>
      <trkpt lat="43.48025" lon="6.58257">
        <ele>79.8</ele>
        <time>2025-02-26T15:33:44Z</time>
      </trkpt>
      <trkpt lat="43.48024" lon="6.58257">
        <ele>79.8</ele>
        <time>2025-02-26T15:33:45Z</time>
      </trkpt>
      <trkpt lat="43.48024" lon="6.58257">
        <ele>79.9</ele>
        <time>2025-02-26T15:33:46Z</time>
      </trkpt>
      <trkpt lat="43.48024" lon="6.58256">
        <ele>79.9</ele>
        <time>2025-02-26T15:33:47Z</time>
      </trkpt>
      <trkpt lat="43.48024" lon="6.58256">
        <ele>80</ele>
        <time>2025-02-26T15:33:48Z</time>
      </trkpt>
      <trkpt lat="43.48024" lon="6.58256">
        <ele>79.9</ele>
        <time>2025-02-26T15:33:49Z</time>
      </trkpt>
      <trkpt lat="43.48024" lon="6.58256">
        <ele>79.9</ele>
        <time>2025-02-26T15:33:50Z</time>
      </trkpt>
      <trkpt lat="43.48024" lon="6.58256">
        <ele>79.9</ele>
        <time>2025-02-26T15:33:51Z</time>
      </trkpt>
      <trkpt lat="43.48024" lon="6.58255">
        <ele>79.9</ele>
        <time>2025-02-26T15:33:52Z</time>
      </trkpt>
      <trkpt lat="43.48024" lon="6.58254">
        <ele>79.8</ele>
        <time>2025-02-26T15:33:53Z</time>
      </trkpt>
      <trkpt lat="43.48023" lon="6.58253">
        <ele>79.9</ele>
        <time>2025-02-26T15:33:54Z</time>
      </trkpt>
      <trkpt lat="43.48023" lon="6.58252">
        <ele>80</ele>
        <time>2025-02-26T15:33:55Z</time>
      </trkpt>
      <trkpt lat="43.48023" lon="6.58251">
        <ele>79.9</ele>
        <time>2025-02-26T15:33:56Z</time>
      </trkpt>
      <trkpt lat="43.48023" lon="6.58251">
        <ele>79.9</ele>
        <time>2025-02-26T15:33:57Z</time>
      </trkpt>
      <trkpt lat="43.48023" lon="6.5825">
        <ele>79.9</ele>
        <time>2025-02-26T15:33:58Z</time>
      </trkpt>
      <trkpt lat="43.48023" lon="6.58249">
        <ele>80</ele>
        <time>2025-02-26T15:33:59Z</time>
      </trkpt>
      <trkpt lat="43.48023" lon="6.58248">
        <ele>80</ele>
        <time>2025-02-26T15:34:00Z</time>
      </trkpt>
      <trkpt lat="43.48023" lon="6.58246">
        <ele>80.1</ele>
        <time>2025-02-26T15:34:01Z</time>
      </trkpt>
      <trkpt lat="43.48023" lon="6.58246">
        <ele>80.1</ele>
        <time>2025-02-26T15:34:02Z</time>
      </trkpt>
      <trkpt lat="43.48023" lon="6.58244">
        <ele>80.2</ele>
        <time>2025-02-26T15:34:03Z</time>
      </trkpt>
      <trkpt lat="43.48023" lon="6.58242">
        <ele>80.2</ele>
        <time>2025-02-26T15:34:04Z</time>
      </trkpt>
      <trkpt lat="43.48023" lon="6.58241">
        <ele>80.2</ele>
        <time>2025-02-26T15:34:05Z</time>
      </trkpt>
      <trkpt lat="43.48023" lon="6.58239">
        <ele>80.2</ele>
        <time>2025-02-26T15:34:06Z</time>
      </trkpt>
      <trkpt lat="43.48022" lon="6.58237">
        <ele>80.3</ele>
        <time>2025-02-26T15:34:07Z</time>
      </trkpt>
      <trkpt lat="43.48023" lon="6.58235">
        <ele>80.3</ele>
        <time>2025-02-26T15:34:08Z</time>
      </trkpt>
      <trkpt lat="43.48023" lon="6.58234">
        <ele>80.5</ele>
        <time>2025-02-26T15:34:09Z</time>
      </trkpt>
      <trkpt lat="43.48023" lon="6.58232">
        <ele>80.6</ele>
        <time>2025-02-26T15:34:10Z</time>
      </trkpt>
      <trkpt lat="43.48023" lon="6.58231">
        <ele>80.6</ele>
        <time>2025-02-26T15:34:11Z</time>
      </trkpt>
      <trkpt lat="43.48022" lon="6.58229">
        <ele>80.8</ele>
        <time>2025-02-26T15:34:12Z</time>
      </trkpt>
      <trkpt lat="43.48022" lon="6.58228">
        <ele>80.9</ele>
        <time>2025-02-26T15:34:13Z</time>
      </trkpt>
      <trkpt lat="43.48022" lon="6.58226">
        <ele>80.9</ele>
        <time>2025-02-26T15:34:14Z</time>
      </trkpt>
      <trkpt lat="43.48022" lon="6.58225">
        <ele>80.9</ele>
        <time>2025-02-26T15:34:15Z</time>
      </trkpt>
      <trkpt lat="43.48022" lon="6.58225">
        <ele>81</ele>
        <time>2025-02-26T15:34:16Z</time>
      </trkpt>
      <trkpt lat="43.48022" lon="6.58224">
        <ele>81</ele>
        <time>2025-02-26T15:34:17Z</time>
      </trkpt>
      <trkpt lat="43.48023" lon="6.58223">
        <ele>81.1</ele>
        <time>2025-02-26T15:34:18Z</time>
      </trkpt>
      <trkpt lat="43.48023" lon="6.58221">
        <ele>81.3</ele>
        <time>2025-02-26T15:34:19Z</time>
      </trkpt>
      <trkpt lat="43.48022" lon="6.5822">
        <ele>81.4</ele>
        <time>2025-02-26T15:34:20Z</time>
      </trkpt>
      <trkpt lat="43.48022" lon="6.58218">
        <ele>81.5</ele>
        <time>2025-02-26T15:34:21Z</time>
      </trkpt>
      <trkpt lat="43.48022" lon="6.58217">
        <ele>81.6</ele>
        <time>2025-02-26T15:34:22Z</time>
      </trkpt>
      <trkpt lat="43.48022" lon="6.58215">
        <ele>81.7</ele>
        <time>2025-02-26T15:34:23Z</time>
      </trkpt>
      <trkpt lat="43.48022" lon="6.58214">
        <ele>81.7</ele>
        <time>2025-02-26T15:34:24Z</time>
      </trkpt>
      <trkpt lat="43.48022" lon="6.58212">
        <ele>81.7</ele>
        <time>2025-02-26T15:34:25Z</time>
      </trkpt>
      <trkpt lat="43.48023" lon="6.5821">
        <ele>81.7</ele>
        <time>2025-02-26T15:34:26Z</time>
      </trkpt>
      <trkpt lat="43.48023" lon="6.58209">
        <ele>81.8</ele>
        <time>2025-02-26T15:34:27Z</time>
      </trkpt>
      <trkpt lat="43.48024" lon="6.58208">
        <ele>81.8</ele>
        <time>2025-02-26T15:34:28Z</time>
      </trkpt>
      <trkpt lat="43.48024" lon="6.58206">
        <ele>81.8</ele>
        <time>2025-02-26T15:34:29Z</time>
      </trkpt>
      <trkpt lat="43.48025" lon="6.58205">
        <ele>81.9</ele>
        <time>2025-02-26T15:34:30Z</time>
      </trkpt>
      <trkpt lat="43.48025" lon="6.58204">
        <ele>82</ele>
        <time>2025-02-26T15:34:31Z</time>
      </trkpt>
      <trkpt lat="43.48026" lon="6.58202">
        <ele>82</ele>
        <time>2025-02-26T15:34:32Z</time>
      </trkpt>
      <trkpt lat="43.48026" lon="6.58201">
        <ele>82.1</ele>
        <time>2025-02-26T15:34:33Z</time>
      </trkpt>
      <trkpt lat="43.48027" lon="6.58199">
        <ele>82.2</ele>
        <time>2025-02-26T15:34:34Z</time>
      </trkpt>
      <trkpt lat="43.48028" lon="6.58198">
        <ele>82.5</ele>
        <time>2025-02-26T15:34:35Z</time>
      </trkpt>
      <trkpt lat="43.48028" lon="6.58197">
        <ele>82.5</ele>
        <time>2025-02-26T15:34:36Z</time>
      </trkpt>
      <trkpt lat="43.48029" lon="6.58196">
        <ele>82.6</ele>
        <time>2025-02-26T15:34:37Z</time>
      </trkpt>
      <trkpt lat="43.4803" lon="6.58195">
        <ele>82.7</ele>
        <time>2025-02-26T15:34:38Z</time>
      </trkpt>
      <trkpt lat="43.4803" lon="6.58193">
        <ele>82.8</ele>
        <time>2025-02-26T15:34:39Z</time>
      </trkpt>
      <trkpt lat="43.4803" lon="6.58192">
        <ele>82.9</ele>
        <time>2025-02-26T15:34:40Z</time>
      </trkpt>
      <trkpt lat="43.48031" lon="6.5819">
        <ele>83</ele>
        <time>2025-02-26T15:34:41Z</time>
      </trkpt>
      <trkpt lat="43.48031" lon="6.58189">
        <ele>83.2</ele>
        <time>2025-02-26T15:34:42Z</time>
      </trkpt>
      <trkpt lat="43.48031" lon="6.58187">
        <ele>83.2</ele>
        <time>2025-02-26T15:34:43Z</time>
      </trkpt>
      <trkpt lat="43.48031" lon="6.58186">
        <ele>83.2</ele>
        <time>2025-02-26T15:34:44Z</time>
      </trkpt>
      <trkpt lat="43.48032" lon="6.58184">
        <ele>83.3</ele>
        <time>2025-02-26T15:34:45Z</time>
      </trkpt>
      <trkpt lat="43.48033" lon="6.58183">
        <ele>83.5</ele>
        <time>2025-02-26T15:34:46Z</time>
      </trkpt>
      <trkpt lat="43.48034" lon="6.58182">
        <ele>83.6</ele>
        <time>2025-02-26T15:34:47Z</time>
      </trkpt>
      <trkpt lat="43.48035" lon="6.5818">
        <ele>83.7</ele>
        <time>2025-02-26T15:34:48Z</time>
      </trkpt>
      <trkpt lat="43.48036" lon="6.58179">
        <ele>83.9</ele>
        <time>2025-02-26T15:34:49Z</time>
      </trkpt>
      <trkpt lat="43.48037" lon="6.58178">
        <ele>84</ele>
        <time>2025-02-26T15:34:50Z</time>
      </trkpt>
      <trkpt lat="43.48037" lon="6.58176">
        <ele>84.1</ele>
        <time>2025-02-26T15:34:51Z</time>
      </trkpt>
      <trkpt lat="43.48038" lon="6.58175">
        <ele>84.2</ele>
        <time>2025-02-26T15:34:52Z</time>
      </trkpt>
      <trkpt lat="43.48039" lon="6.58174">
        <ele>84.4</ele>
        <time>2025-02-26T15:34:53Z</time>
      </trkpt>
      <trkpt lat="43.4804" lon="6.58173">
        <ele>84.5</ele>
        <time>2025-02-26T15:34:54Z</time>
      </trkpt>
      <trkpt lat="43.48041" lon="6.58173">
        <ele>84.6</ele>
        <time>2025-02-26T15:34:55Z</time>
      </trkpt>
      <trkpt lat="43.48043" lon="6.58172">
        <ele>84.7</ele>
        <time>2025-02-26T15:34:56Z</time>
      </trkpt>
      <trkpt lat="43.48044" lon="6.58171">
        <ele>84.8</ele>
        <time>2025-02-26T15:34:57Z</time>
      </trkpt>
      <trkpt lat="43.48045" lon="6.5817">
        <ele>84.9</ele>
        <time>2025-02-26T15:34:58Z</time>
      </trkpt>
      <trkpt lat="43.48046" lon="6.58169">
        <ele>85</ele>
        <time>2025-02-26T15:34:59Z</time>
      </trkpt>
      <trkpt lat="43.48047" lon="6.58168">
        <ele>85.1</ele>
        <time>2025-02-26T15:35:00Z</time>
      </trkpt>
      <trkpt lat="43.48048" lon="6.58167">
        <ele>85</ele>
        <time>2025-02-26T15:35:01Z</time>
      </trkpt>
      <trkpt lat="43.48048" lon="6.58166">
        <ele>85.1</ele>
        <time>2025-02-26T15:35:02Z</time>
      </trkpt>
      <trkpt lat="43.48049" lon="6.58164">
        <ele>85.3</ele>
        <time>2025-02-26T15:35:03Z</time>
      </trkpt>
      <trkpt lat="43.48049" lon="6.58163">
        <ele>85.3</ele>
        <time>2025-02-26T15:35:04Z</time>
      </trkpt>
      <trkpt lat="43.4805" lon="6.58161">
        <ele>85.3</ele>
        <time>2025-02-26T15:35:05Z</time>
      </trkpt>
      <trkpt lat="43.4805" lon="6.5816">
        <ele>85.4</ele>
        <time>2025-02-26T15:35:06Z</time>
      </trkpt>
      <trkpt lat="43.4805" lon="6.58159">
        <ele>85.5</ele>
        <time>2025-02-26T15:35:07Z</time>
      </trkpt>
      <trkpt lat="43.48051" lon="6.58158">
        <ele>85.7</ele>
        <time>2025-02-26T15:35:08Z</time>
      </trkpt>
      <trkpt lat="43.48052" lon="6.58157">
        <ele>85.8</ele>
        <time>2025-02-26T15:35:09Z</time>
      </trkpt>
      <trkpt lat="43.48052" lon="6.58155">
        <ele>85.9</ele>
        <time>2025-02-26T15:35:10Z</time>
      </trkpt>
      <trkpt lat="43.48053" lon="6.58153">
        <ele>85.9</ele>
        <time>2025-02-26T15:35:11Z</time>
      </trkpt>
      <trkpt lat="43.48054" lon="6.58151">
        <ele>86</ele>
        <time>2025-02-26T15:35:12Z</time>
      </trkpt>
      <trkpt lat="43.48055" lon="6.5815">
        <ele>86</ele>
        <time>2025-02-26T15:35:13Z</time>
      </trkpt>
      <trkpt lat="43.48055" lon="6.58149">
        <ele>86</ele>
        <time>2025-02-26T15:35:14Z</time>
      </trkpt>
      <trkpt lat="43.48055" lon="6.58147">
        <ele>86</ele>
        <time>2025-02-26T15:35:15Z</time>
      </trkpt>
      <trkpt lat="43.48056" lon="6.58146">
        <ele>86.1</ele>
        <time>2025-02-26T15:35:16Z</time>
      </trkpt>
      <trkpt lat="43.48055" lon="6.58144">
        <ele>86.2</ele>
        <time>2025-02-26T15:35:17Z</time>
      </trkpt>
      <trkpt lat="43.48056" lon="6.58143">
        <ele>86.4</ele>
        <time>2025-02-26T15:35:18Z</time>
      </trkpt>
      <trkpt lat="43.48056" lon="6.58142">
        <ele>86.6</ele>
        <time>2025-02-26T15:35:19Z</time>
      </trkpt>
      <trkpt lat="43.48056" lon="6.5814">
        <ele>86.8</ele>
        <time>2025-02-26T15:35:20Z</time>
      </trkpt>
      <trkpt lat="43.48057" lon="6.58139">
        <ele>87</ele>
        <time>2025-02-26T15:35:21Z</time>
      </trkpt>
      <trkpt lat="43.48058" lon="6.58138">
        <ele>87</ele>
        <time>2025-02-26T15:35:22Z</time>
      </trkpt>
      <trkpt lat="43.48058" lon="6.58137">
        <ele>87</ele>
        <time>2025-02-26T15:35:23Z</time>
      </trkpt>
      <trkpt lat="43.48059" lon="6.58135">
        <ele>87.1</ele>
        <time>2025-02-26T15:35:24Z</time>
      </trkpt>
      <trkpt lat="43.4806" lon="6.58133">
        <ele>87.2</ele>
        <time>2025-02-26T15:35:25Z</time>
      </trkpt>
      <trkpt lat="43.48061" lon="6.58132">
        <ele>87.2</ele>
        <time>2025-02-26T15:35:26Z</time>
      </trkpt>
      <trkpt lat="43.48061" lon="6.58131">
        <ele>87.3</ele>
        <time>2025-02-26T15:35:27Z</time>
      </trkpt>
      <trkpt lat="43.48062" lon="6.5813">
        <ele>87.4</ele>
        <time>2025-02-26T15:35:28Z</time>
      </trkpt>
      <trkpt lat="43.48063" lon="6.58128">
        <ele>87.4</ele>
        <time>2025-02-26T15:35:29Z</time>
      </trkpt>
      <trkpt lat="43.48064" lon="6.58127">
        <ele>87.5</ele>
        <time>2025-02-26T15:35:30Z</time>
      </trkpt>
      <trkpt lat="43.48064" lon="6.58126">
        <ele>87.6</ele>
        <time>2025-02-26T15:35:31Z</time>
      </trkpt>
      <trkpt lat="43.48065" lon="6.58124">
        <ele>87.7</ele>
        <time>2025-02-26T15:35:32Z</time>
      </trkpt>
      <trkpt lat="43.48066" lon="6.58123">
        <ele>87.9</ele>
        <time>2025-02-26T15:35:33Z</time>
      </trkpt>
      <trkpt lat="43.48066" lon="6.58121">
        <ele>87.9</ele>
        <time>2025-02-26T15:35:34Z</time>
      </trkpt>
      <trkpt lat="43.48067" lon="6.5812">
        <ele>87.8</ele>
        <time>2025-02-26T15:35:35Z</time>
      </trkpt>
      <trkpt lat="43.48067" lon="6.58119">
        <ele>87.8</ele>
        <time>2025-02-26T15:35:36Z</time>
      </trkpt>
      <trkpt lat="43.48068" lon="6.58118">
        <ele>87.6</ele>
        <time>2025-02-26T15:35:37Z</time>
      </trkpt>
      <trkpt lat="43.48069" lon="6.58117">
        <ele>87.6</ele>
        <time>2025-02-26T15:35:38Z</time>
      </trkpt>
      <trkpt lat="43.48071" lon="6.58116">
        <ele>87.5</ele>
        <time>2025-02-26T15:35:39Z</time>
      </trkpt>
      <trkpt lat="43.48072" lon="6.58115">
        <ele>87.5</ele>
        <time>2025-02-26T15:35:40Z</time>
      </trkpt>
      <trkpt lat="43.48073" lon="6.58114">
        <ele>87.6</ele>
        <time>2025-02-26T15:35:41Z</time>
      </trkpt>
      <trkpt lat="43.48074" lon="6.58113">
        <ele>87.5</ele>
        <time>2025-02-26T15:35:42Z</time>
      </trkpt>
      <trkpt lat="43.48074" lon="6.58111">
        <ele>87.5</ele>
        <time>2025-02-26T15:35:43Z</time>
      </trkpt>
      <trkpt lat="43.48075" lon="6.58109">
        <ele>87.5</ele>
        <time>2025-02-26T15:35:44Z</time>
      </trkpt>
      <trkpt lat="43.48075" lon="6.58108">
        <ele>87.5</ele>
        <time>2025-02-26T15:35:45Z</time>
      </trkpt>
      <trkpt lat="43.48076" lon="6.58106">
        <ele>87.5</ele>
        <time>2025-02-26T15:35:46Z</time>
      </trkpt>
      <trkpt lat="43.48077" lon="6.58105">
        <ele>87.5</ele>
        <time>2025-02-26T15:35:47Z</time>
      </trkpt>
      <trkpt lat="43.48078" lon="6.58104">
        <ele>87.3</ele>
        <time>2025-02-26T15:35:48Z</time>
      </trkpt>
      <trkpt lat="43.48079" lon="6.58103">
        <ele>87.1</ele>
        <time>2025-02-26T15:35:49Z</time>
      </trkpt>
      <trkpt lat="43.4808" lon="6.58102">
        <ele>87</ele>
        <time>2025-02-26T15:35:50Z</time>
      </trkpt>
      <trkpt lat="43.4808" lon="6.581">
        <ele>87</ele>
        <time>2025-02-26T15:35:51Z</time>
      </trkpt>
      <trkpt lat="43.4808" lon="6.58099">
        <ele>87.1</ele>
        <time>2025-02-26T15:35:52Z</time>
      </trkpt>
      <trkpt lat="43.48081" lon="6.58097">
        <ele>87.2</ele>
        <time>2025-02-26T15:35:53Z</time>
      </trkpt>
      <trkpt lat="43.48081" lon="6.58096">
        <ele>87.3</ele>
        <time>2025-02-26T15:35:54Z</time>
      </trkpt>
      <trkpt lat="43.48082" lon="6.58094">
        <ele>87.5</ele>
        <time>2025-02-26T15:35:55Z</time>
      </trkpt>
      <trkpt lat="43.48082" lon="6.58093">
        <ele>87.6</ele>
        <time>2025-02-26T15:35:56Z</time>
      </trkpt>
      <trkpt lat="43.48083" lon="6.58091">
        <ele>87.6</ele>
        <time>2025-02-26T15:35:57Z</time>
      </trkpt>
      <trkpt lat="43.48083" lon="6.5809">
        <ele>87.5</ele>
        <time>2025-02-26T15:35:58Z</time>
      </trkpt>
      <trkpt lat="43.48083" lon="6.58088">
        <ele>87.5</ele>
        <time>2025-02-26T15:35:59Z</time>
      </trkpt>
      <trkpt lat="43.48084" lon="6.58086">
        <ele>87.6</ele>
        <time>2025-02-26T15:36:00Z</time>
      </trkpt>
      <trkpt lat="43.48084" lon="6.58085">
        <ele>87.6</ele>
        <time>2025-02-26T15:36:01Z</time>
      </trkpt>
      <trkpt lat="43.48085" lon="6.58084">
        <ele>87.5</ele>
        <time>2025-02-26T15:36:02Z</time>
      </trkpt>
      <trkpt lat="43.48086" lon="6.58083">
        <ele>87.6</ele>
        <time>2025-02-26T15:36:03Z</time>
      </trkpt>
      <trkpt lat="43.48087" lon="6.58081">
        <ele>87.7</ele>
        <time>2025-02-26T15:36:04Z</time>
      </trkpt>
      <trkpt lat="43.48087" lon="6.5808">
        <ele>87.7</ele>
        <time>2025-02-26T15:36:05Z</time>
      </trkpt>
      <trkpt lat="43.48089" lon="6.58079">
        <ele>87.8</ele>
        <time>2025-02-26T15:36:06Z</time>
      </trkpt>
      <trkpt lat="43.48089" lon="6.58077">
        <ele>87.9</ele>
        <time>2025-02-26T15:36:07Z</time>
      </trkpt>
      <trkpt lat="43.4809" lon="6.58076">
        <ele>88</ele>
        <time>2025-02-26T15:36:08Z</time>
      </trkpt>
      <trkpt lat="43.4809" lon="6.58075">
        <ele>88.1</ele>
        <time>2025-02-26T15:36:09Z</time>
      </trkpt>
      <trkpt lat="43.48091" lon="6.58073">
        <ele>88.2</ele>
        <time>2025-02-26T15:36:10Z</time>
      </trkpt>
      <trkpt lat="43.48091" lon="6.58072">
        <ele>88.4</ele>
        <time>2025-02-26T15:36:11Z</time>
      </trkpt>
      <trkpt lat="43.48092" lon="6.5807">
        <ele>88.6</ele>
        <time>2025-02-26T15:36:12Z</time>
      </trkpt>
      <trkpt lat="43.48093" lon="6.58069">
        <ele>88.8</ele>
        <time>2025-02-26T15:36:13Z</time>
      </trkpt>
      <trkpt lat="43.48093" lon="6.58068">
        <ele>88.9</ele>
        <time>2025-02-26T15:36:14Z</time>
      </trkpt>
      <trkpt lat="43.48094" lon="6.58066">
        <ele>88.9</ele>
        <time>2025-02-26T15:36:15Z</time>
      </trkpt>
      <trkpt lat="43.48094" lon="6.58065">
        <ele>89</ele>
        <time>2025-02-26T15:36:16Z</time>
      </trkpt>
      <trkpt lat="43.48095" lon="6.58064">
        <ele>89.2</ele>
        <time>2025-02-26T15:36:17Z</time>
      </trkpt>
      <trkpt lat="43.48096" lon="6.58062">
        <ele>89.2</ele>
        <time>2025-02-26T15:36:18Z</time>
      </trkpt>
      <trkpt lat="43.48097" lon="6.58061">
        <ele>89.2</ele>
        <time>2025-02-26T15:36:19Z</time>
      </trkpt>
      <trkpt lat="43.48098" lon="6.5806">
        <ele>89.2</ele>
        <time>2025-02-26T15:36:20Z</time>
      </trkpt>
      <trkpt lat="43.48098" lon="6.58059">
        <ele>89.3</ele>
        <time>2025-02-26T15:36:21Z</time>
      </trkpt>
      <trkpt lat="43.48099" lon="6.58057">
        <ele>89.3</ele>
        <time>2025-02-26T15:36:22Z</time>
      </trkpt>
      <trkpt lat="43.481" lon="6.58056">
        <ele>89.4</ele>
        <time>2025-02-26T15:36:23Z</time>
      </trkpt>
      <trkpt lat="43.48101" lon="6.58055">
        <ele>89.4</ele>
        <time>2025-02-26T15:36:24Z</time>
      </trkpt>
      <trkpt lat="43.48102" lon="6.58053">
        <ele>89.4</ele>
        <time>2025-02-26T15:36:25Z</time>
      </trkpt>
      <trkpt lat="43.48102" lon="6.58052">
        <ele>89.4</ele>
        <time>2025-02-26T15:36:26Z</time>
      </trkpt>
      <trkpt lat="43.48103" lon="6.58051">
        <ele>89.6</ele>
        <time>2025-02-26T15:36:27Z</time>
      </trkpt>
      <trkpt lat="43.48104" lon="6.5805">
        <ele>89.5</ele>
        <time>2025-02-26T15:36:28Z</time>
      </trkpt>
      <trkpt lat="43.48106" lon="6.58049">
        <ele>89.6</ele>
        <time>2025-02-26T15:36:29Z</time>
      </trkpt>
      <trkpt lat="43.48107" lon="6.58047">
        <ele>89.6</ele>
        <time>2025-02-26T15:36:30Z</time>
      </trkpt>
      <trkpt lat="43.48107" lon="6.58046">
        <ele>89.7</ele>
        <time>2025-02-26T15:36:31Z</time>
      </trkpt>
      <trkpt lat="43.48108" lon="6.58045">
        <ele>89.8</ele>
        <time>2025-02-26T15:36:32Z</time>
      </trkpt>
      <trkpt lat="43.4811" lon="6.58044">
        <ele>89.8</ele>
        <time>2025-02-26T15:36:33Z</time>
      </trkpt>
      <trkpt lat="43.48111" lon="6.58043">
        <ele>89.8</ele>
        <time>2025-02-26T15:36:34Z</time>
      </trkpt>
      <trkpt lat="43.48112" lon="6.58042">
        <ele>89.7</ele>
        <time>2025-02-26T15:36:35Z</time>
      </trkpt>
      <trkpt lat="43.48114" lon="6.5804">
        <ele>89.9</ele>
        <time>2025-02-26T15:36:36Z</time>
      </trkpt>
      <trkpt lat="43.48115" lon="6.58039">
        <ele>90</ele>
        <time>2025-02-26T15:36:37Z</time>
      </trkpt>
      <trkpt lat="43.48116" lon="6.58038">
        <ele>90.2</ele>
        <time>2025-02-26T15:36:38Z</time>
      </trkpt>
      <trkpt lat="43.48117" lon="6.58037">
        <ele>90.2</ele>
        <time>2025-02-26T15:36:39Z</time>
      </trkpt>
      <trkpt lat="43.48118" lon="6.58035">
        <ele>90.3</ele>
        <time>2025-02-26T15:36:40Z</time>
      </trkpt>
      <trkpt lat="43.48119" lon="6.58034">
        <ele>90.3</ele>
        <time>2025-02-26T15:36:41Z</time>
      </trkpt>
      <trkpt lat="43.4812" lon="6.58033">
        <ele>90.3</ele>
        <time>2025-02-26T15:36:42Z</time>
      </trkpt>
      <trkpt lat="43.48121" lon="6.58031">
        <ele>90.2</ele>
        <time>2025-02-26T15:36:43Z</time>
      </trkpt>
      <trkpt lat="43.48121" lon="6.58029">
        <ele>90.3</ele>
        <time>2025-02-26T15:36:44Z</time>
      </trkpt>
      <trkpt lat="43.48122" lon="6.58028">
        <ele>90.4</ele>
        <time>2025-02-26T15:36:45Z</time>
      </trkpt>
      <trkpt lat="43.48122" lon="6.58026">
        <ele>90.6</ele>
        <time>2025-02-26T15:36:46Z</time>
      </trkpt>
      <trkpt lat="43.48123" lon="6.58024">
        <ele>90.7</ele>
        <time>2025-02-26T15:36:47Z</time>
      </trkpt>
      <trkpt lat="43.48124" lon="6.58023">
        <ele>90.9</ele>
        <time>2025-02-26T15:36:48Z</time>
      </trkpt>
      <trkpt lat="43.48124" lon="6.58021">
        <ele>90.9</ele>
        <time>2025-02-26T15:36:49Z</time>
      </trkpt>
      <trkpt lat="43.48125" lon="6.5802">
        <ele>90.9</ele>
        <time>2025-02-26T15:36:50Z</time>
      </trkpt>
      <trkpt lat="43.48125" lon="6.58018">
        <ele>90.8</ele>
        <time>2025-02-26T15:36:51Z</time>
      </trkpt>
      <trkpt lat="43.48126" lon="6.58017">
        <ele>90.9</ele>
        <time>2025-02-26T15:36:52Z</time>
      </trkpt>
      <trkpt lat="43.48127" lon="6.58016">
        <ele>91.1</ele>
        <time>2025-02-26T15:36:53Z</time>
      </trkpt>
      <trkpt lat="43.48128" lon="6.58014">
        <ele>91.3</ele>
        <time>2025-02-26T15:36:54Z</time>
      </trkpt>
      <trkpt lat="43.48129" lon="6.58012">
        <ele>91.4</ele>
        <time>2025-02-26T15:36:55Z</time>
      </trkpt>
      <trkpt lat="43.48129" lon="6.58011">
        <ele>91.5</ele>
        <time>2025-02-26T15:36:56Z</time>
      </trkpt>
      <trkpt lat="43.4813" lon="6.58009">
        <ele>91.5</ele>
        <time>2025-02-26T15:36:57Z</time>
      </trkpt>
      <trkpt lat="43.48131" lon="6.58008">
        <ele>91.6</ele>
        <time>2025-02-26T15:36:58Z</time>
      </trkpt>
      <trkpt lat="43.48131" lon="6.58006">
        <ele>91.7</ele>
        <time>2025-02-26T15:36:59Z</time>
      </trkpt>
      <trkpt lat="43.48132" lon="6.58004">
        <ele>91.7</ele>
        <time>2025-02-26T15:37:00Z</time>
      </trkpt>
      <trkpt lat="43.48132" lon="6.58002">
        <ele>91.8</ele>
        <time>2025-02-26T15:37:01Z</time>
      </trkpt>
      <trkpt lat="43.48131" lon="6.58001">
        <ele>91.8</ele>
        <time>2025-02-26T15:37:02Z</time>
      </trkpt>
      <trkpt lat="43.48131" lon="6.57999">
        <ele>91.9</ele>
        <time>2025-02-26T15:37:03Z</time>
      </trkpt>
      <trkpt lat="43.48131" lon="6.57998">
        <ele>92</ele>
        <time>2025-02-26T15:37:04Z</time>
      </trkpt>
      <trkpt lat="43.48131" lon="6.57996">
        <ele>92.2</ele>
        <time>2025-02-26T15:37:05Z</time>
      </trkpt>
      <trkpt lat="43.48131" lon="6.57995">
        <ele>92.4</ele>
        <time>2025-02-26T15:37:06Z</time>
      </trkpt>
      <trkpt lat="43.48131" lon="6.57993">
        <ele>92.5</ele>
        <time>2025-02-26T15:37:07Z</time>
      </trkpt>
      <trkpt lat="43.48131" lon="6.57991">
        <ele>92.6</ele>
        <time>2025-02-26T15:37:08Z</time>
      </trkpt>
      <trkpt lat="43.48131" lon="6.57989">
        <ele>92.7</ele>
        <time>2025-02-26T15:37:09Z</time>
      </trkpt>
      <trkpt lat="43.48131" lon="6.57987">
        <ele>92.8</ele>
        <time>2025-02-26T15:37:10Z</time>
      </trkpt>
      <trkpt lat="43.48131" lon="6.57986">
        <ele>92.8</ele>
        <time>2025-02-26T15:37:11Z</time>
      </trkpt>
      <trkpt lat="43.48131" lon="6.57984">
        <ele>92.8</ele>
        <time>2025-02-26T15:37:12Z</time>
      </trkpt>
      <trkpt lat="43.48131" lon="6.57983">
        <ele>92.9</ele>
        <time>2025-02-26T15:37:13Z</time>
      </trkpt>
      <trkpt lat="43.48131" lon="6.57981">
        <ele>93</ele>
        <time>2025-02-26T15:37:14Z</time>
      </trkpt>
      <trkpt lat="43.48131" lon="6.57979">
        <ele>93.1</ele>
        <time>2025-02-26T15:37:15Z</time>
      </trkpt>
      <trkpt lat="43.48131" lon="6.57978">
        <ele>93</ele>
        <time>2025-02-26T15:37:16Z</time>
      </trkpt>
      <trkpt lat="43.4813" lon="6.57976">
        <ele>93.1</ele>
        <time>2025-02-26T15:37:17Z</time>
      </trkpt>
      <trkpt lat="43.4813" lon="6.57975">
        <ele>93.3</ele>
        <time>2025-02-26T15:37:18Z</time>
      </trkpt>
      <trkpt lat="43.48129" lon="6.57973">
        <ele>93.4</ele>
        <time>2025-02-26T15:37:19Z</time>
      </trkpt>
      <trkpt lat="43.48129" lon="6.57972">
        <ele>93.5</ele>
        <time>2025-02-26T15:37:20Z</time>
      </trkpt>
      <trkpt lat="43.48129" lon="6.5797">
        <ele>93.5</ele>
        <time>2025-02-26T15:37:21Z</time>
      </trkpt>
      <trkpt lat="43.48129" lon="6.57969">
        <ele>93.5</ele>
        <time>2025-02-26T15:37:22Z</time>
      </trkpt>
      <trkpt lat="43.48129" lon="6.57967">
        <ele>93.8</ele>
        <time>2025-02-26T15:37:23Z</time>
      </trkpt>
      <trkpt lat="43.48129" lon="6.57965">
        <ele>93.7</ele>
        <time>2025-02-26T15:37:24Z</time>
      </trkpt>
      <trkpt lat="43.48129" lon="6.57963">
        <ele>93.7</ele>
        <time>2025-02-26T15:37:25Z</time>
      </trkpt>
      <trkpt lat="43.48129" lon="6.57961">
        <ele>93.8</ele>
        <time>2025-02-26T15:37:26Z</time>
      </trkpt>
      <trkpt lat="43.48129" lon="6.57959">
        <ele>93.7</ele>
        <time>2025-02-26T15:37:27Z</time>
      </trkpt>
      <trkpt lat="43.48129" lon="6.57957">
        <ele>93.6</ele>
        <time>2025-02-26T15:37:28Z</time>
      </trkpt>
      <trkpt lat="43.48129" lon="6.57955">
        <ele>93.6</ele>
        <time>2025-02-26T15:37:29Z</time>
      </trkpt>
      <trkpt lat="43.48129" lon="6.57953">
        <ele>93.7</ele>
        <time>2025-02-26T15:37:30Z</time>
      </trkpt>
      <trkpt lat="43.4813" lon="6.57951">
        <ele>93.7</ele>
        <time>2025-02-26T15:37:31Z</time>
      </trkpt>
      <trkpt lat="43.4813" lon="6.57949">
        <ele>93.8</ele>
        <time>2025-02-26T15:37:32Z</time>
      </trkpt>
      <trkpt lat="43.4813" lon="6.57947">
        <ele>93.8</ele>
        <time>2025-02-26T15:37:33Z</time>
      </trkpt>
      <trkpt lat="43.4813" lon="6.57945">
        <ele>93.9</ele>
        <time>2025-02-26T15:37:34Z</time>
      </trkpt>
      <trkpt lat="43.4813" lon="6.57943">
        <ele>94</ele>
        <time>2025-02-26T15:37:35Z</time>
      </trkpt>
      <trkpt lat="43.4813" lon="6.57942">
        <ele>94.1</ele>
        <time>2025-02-26T15:37:36Z</time>
      </trkpt>
      <trkpt lat="43.4813" lon="6.5794">
        <ele>94.2</ele>
        <time>2025-02-26T15:37:37Z</time>
      </trkpt>
      <trkpt lat="43.4813" lon="6.57939">
        <ele>94.2</ele>
        <time>2025-02-26T15:37:38Z</time>
      </trkpt>
      <trkpt lat="43.48131" lon="6.57937">
        <ele>94.3</ele>
        <time>2025-02-26T15:37:39Z</time>
      </trkpt>
      <trkpt lat="43.48131" lon="6.57936">
        <ele>94.4</ele>
        <time>2025-02-26T15:37:40Z</time>
      </trkpt>
      <trkpt lat="43.48132" lon="6.57934">
        <ele>94.2</ele>
        <time>2025-02-26T15:37:41Z</time>
      </trkpt>
      <trkpt lat="43.48132" lon="6.57933">
        <ele>94.3</ele>
        <time>2025-02-26T15:37:42Z</time>
      </trkpt>
      <trkpt lat="43.48131" lon="6.57931">
        <ele>94.5</ele>
        <time>2025-02-26T15:37:43Z</time>
      </trkpt>
      <trkpt lat="43.48132" lon="6.5793">
        <ele>94.5</ele>
        <time>2025-02-26T15:37:44Z</time>
      </trkpt>
      <trkpt lat="43.48132" lon="6.57928">
        <ele>94.4</ele>
        <time>2025-02-26T15:37:45Z</time>
      </trkpt>
      <trkpt lat="43.48132" lon="6.57926">
        <ele>94.4</ele>
        <time>2025-02-26T15:37:46Z</time>
      </trkpt>
      <trkpt lat="43.48133" lon="6.57925">
        <ele>94.5</ele>
        <time>2025-02-26T15:37:47Z</time>
      </trkpt>
      <trkpt lat="43.48133" lon="6.57923">
        <ele>94.8</ele>
        <time>2025-02-26T15:37:48Z</time>
      </trkpt>
      <trkpt lat="43.48134" lon="6.57922">
        <ele>94.7</ele>
        <time>2025-02-26T15:37:49Z</time>
      </trkpt>
      <trkpt lat="43.48135" lon="6.57921">
        <ele>94.7</ele>
        <time>2025-02-26T15:37:50Z</time>
      </trkpt>
      <trkpt lat="43.48135" lon="6.5792">
        <ele>94.8</ele>
        <time>2025-02-26T15:37:51Z</time>
      </trkpt>
      <trkpt lat="43.48136" lon="6.57919">
        <ele>94.9</ele>
        <time>2025-02-26T15:37:52Z</time>
      </trkpt>
      <trkpt lat="43.48136" lon="6.57918">
        <ele>95.1</ele>
        <time>2025-02-26T15:37:53Z</time>
      </trkpt>
      <trkpt lat="43.48137" lon="6.57916">
        <ele>95.1</ele>
        <time>2025-02-26T15:37:54Z</time>
      </trkpt>
      <trkpt lat="43.48138" lon="6.57915">
        <ele>95</ele>
        <time>2025-02-26T15:37:55Z</time>
      </trkpt>
      <trkpt lat="43.48139" lon="6.57914">
        <ele>94.9</ele>
        <time>2025-02-26T15:37:56Z</time>
      </trkpt>
      <trkpt lat="43.48139" lon="6.57913">
        <ele>94.9</ele>
        <time>2025-02-26T15:37:57Z</time>
      </trkpt>
      <trkpt lat="43.48139" lon="6.57913">
        <ele>94.9</ele>
        <time>2025-02-26T15:37:58Z</time>
      </trkpt>
      <trkpt lat="43.48138" lon="6.57912">
        <ele>94.8</ele>
        <time>2025-02-26T15:37:59Z</time>
      </trkpt>
      <trkpt lat="43.48138" lon="6.57912">
        <ele>94.8</ele>
        <time>2025-02-26T15:38:00Z</time>
      </trkpt>
      <trkpt lat="43.48138" lon="6.57912">
        <ele>94.8</ele>
        <time>2025-02-26T15:38:01Z</time>
      </trkpt>
      <trkpt lat="43.48137" lon="6.57912">
        <ele>94.8</ele>
        <time>2025-02-26T15:38:02Z</time>
      </trkpt>
      <trkpt lat="43.48137" lon="6.57912">
        <ele>94.8</ele>
        <time>2025-02-26T15:38:03Z</time>
      </trkpt>
      <trkpt lat="43.48137" lon="6.57912">
        <ele>94.7</ele>
        <time>2025-02-26T15:38:04Z</time>
      </trkpt>
      <trkpt lat="43.48137" lon="6.57912">
        <ele>94.8</ele>
        <time>2025-02-26T15:38:05Z</time>
      </trkpt>
      <trkpt lat="43.48137" lon="6.57911">
        <ele>94.8</ele>
        <time>2025-02-26T15:38:06Z</time>
      </trkpt>
      <trkpt lat="43.48137" lon="6.57911">
        <ele>94.7</ele>
        <time>2025-02-26T15:38:07Z</time>
      </trkpt>
      <trkpt lat="43.48137" lon="6.57911">
        <ele>94.6</ele>
        <time>2025-02-26T15:38:08Z</time>
      </trkpt>
      <trkpt lat="43.48137" lon="6.57911">
        <ele>94.6</ele>
        <time>2025-02-26T15:38:09Z</time>
      </trkpt>
      <trkpt lat="43.48137" lon="6.57911">
        <ele>94.4</ele>
        <time>2025-02-26T15:38:10Z</time>
      </trkpt>
      <trkpt lat="43.48137" lon="6.57911">
        <ele>94.3</ele>
        <time>2025-02-26T15:38:11Z</time>
      </trkpt>
      <trkpt lat="43.48137" lon="6.5791">
        <ele>94.3</ele>
        <time>2025-02-26T15:38:12Z</time>
      </trkpt>
      <trkpt lat="43.48137" lon="6.57911">
        <ele>94.3</ele>
        <time>2025-02-26T15:38:13Z</time>
      </trkpt>
      <trkpt lat="43.48137" lon="6.57911">
        <ele>94.2</ele>
        <time>2025-02-26T15:38:14Z</time>
      </trkpt>
      <trkpt lat="43.48137" lon="6.57911">
        <ele>94.2</ele>
        <time>2025-02-26T15:38:15Z</time>
      </trkpt>
      <trkpt lat="43.48137" lon="6.5791">
        <ele>94.2</ele>
        <time>2025-02-26T15:38:16Z</time>
      </trkpt>
      <trkpt lat="43.48137" lon="6.5791">
        <ele>94.1</ele>
        <time>2025-02-26T15:38:17Z</time>
      </trkpt>
      <trkpt lat="43.48137" lon="6.5791">
        <ele>94.2</ele>
        <time>2025-02-26T15:38:18Z</time>
      </trkpt>
      <trkpt lat="43.48137" lon="6.5791">
        <ele>94.1</ele>
        <time>2025-02-26T15:38:19Z</time>
      </trkpt>
      <trkpt lat="43.48137" lon="6.5791">
        <ele>94.1</ele>
        <time>2025-02-26T15:38:20Z</time>
      </trkpt>
      <trkpt lat="43.48137" lon="6.5791">
        <ele>94.1</ele>
        <time>2025-02-26T15:38:21Z</time>
      </trkpt>
      <trkpt lat="43.48137" lon="6.57909">
        <ele>94.1</ele>
        <time>2025-02-26T15:38:22Z</time>
      </trkpt>
      <trkpt lat="43.48137" lon="6.57909">
        <ele>94</ele>
        <time>2025-02-26T15:38:23Z</time>
      </trkpt>
      <trkpt lat="43.48137" lon="6.57909">
        <ele>94.1</ele>
        <time>2025-02-26T15:38:24Z</time>
      </trkpt>
      <trkpt lat="43.48137" lon="6.57909">
        <ele>94.2</ele>
        <time>2025-02-26T15:38:25Z</time>
      </trkpt>
      <trkpt lat="43.48137" lon="6.57909">
        <ele>94.2</ele>
        <time>2025-02-26T15:38:26Z</time>
      </trkpt>
      <trkpt lat="43.48137" lon="6.57909">
        <ele>94.2</ele>
        <time>2025-02-26T15:38:27Z</time>
      </trkpt>
      <trkpt lat="43.48137" lon="6.57909">
        <ele>94.3</ele>
        <time>2025-02-26T15:38:28Z</time>
      </trkpt>
      <trkpt lat="43.48137" lon="6.57909">
        <ele>94.2</ele>
        <time>2025-02-26T15:38:29Z</time>
      </trkpt>
      <trkpt lat="43.48137" lon="6.57909">
        <ele>94.2</ele>
        <time>2025-02-26T15:38:30Z</time>
      </trkpt>
      <trkpt lat="43.48138" lon="6.57908">
        <ele>94.2</ele>
        <time>2025-02-26T15:38:31Z</time>
      </trkpt>
      <trkpt lat="43.48138" lon="6.57908">
        <ele>94.1</ele>
        <time>2025-02-26T15:38:32Z</time>
      </trkpt>
      <trkpt lat="43.48138" lon="6.57908">
        <ele>94.1</ele>
        <time>2025-02-26T15:38:33Z</time>
      </trkpt>
      <trkpt lat="43.48138" lon="6.57908">
        <ele>94.1</ele>
        <time>2025-02-26T15:38:34Z</time>
      </trkpt>
      <trkpt lat="43.48138" lon="6.57908">
        <ele>94.1</ele>
        <time>2025-02-26T15:38:35Z</time>
      </trkpt>
      <trkpt lat="43.48138" lon="6.57908">
        <ele>94.3</ele>
        <time>2025-02-26T15:38:36Z</time>
      </trkpt>
      <trkpt lat="43.48138" lon="6.57908">
        <ele>94.4</ele>
        <time>2025-02-26T15:38:37Z</time>
      </trkpt>
      <trkpt lat="43.48138" lon="6.57907">
        <ele>94.4</ele>
        <time>2025-02-26T15:38:38Z</time>
      </trkpt>
      <trkpt lat="43.48138" lon="6.57907">
        <ele>94.4</ele>
        <time>2025-02-26T15:38:39Z</time>
      </trkpt>
      <trkpt lat="43.48138" lon="6.57907">
        <ele>94.5</ele>
        <time>2025-02-26T15:38:40Z</time>
      </trkpt>
      <trkpt lat="43.48138" lon="6.57907">
        <ele>94.5</ele>
        <time>2025-02-26T15:38:41Z</time>
      </trkpt>
      <trkpt lat="43.48138" lon="6.57907">
        <ele>94.4</ele>
        <time>2025-02-26T15:38:42Z</time>
      </trkpt>
      <trkpt lat="43.48137" lon="6.57907">
        <ele>94.6</ele>
        <time>2025-02-26T15:38:43Z</time>
      </trkpt>
      <trkpt lat="43.48137" lon="6.57907">
        <ele>94.7</ele>
        <time>2025-02-26T15:38:44Z</time>
      </trkpt>
      <trkpt lat="43.48136" lon="6.57908">
        <ele>94.7</ele>
        <time>2025-02-26T15:38:45Z</time>
      </trkpt>
      <trkpt lat="43.48136" lon="6.57908">
        <ele>94.7</ele>
        <time>2025-02-26T15:38:46Z</time>
      </trkpt>
      <trkpt lat="43.48136" lon="6.57908">
        <ele>94.7</ele>
        <time>2025-02-26T15:38:47Z</time>
      </trkpt>
      <trkpt lat="43.48136" lon="6.57908">
        <ele>94.8</ele>
        <time>2025-02-26T15:38:48Z</time>
      </trkpt>
      <trkpt lat="43.48136" lon="6.57908">
        <ele>94.8</ele>
        <time>2025-02-26T15:38:49Z</time>
      </trkpt>
      <trkpt lat="43.48136" lon="6.57908">
        <ele>94.8</ele>
        <time>2025-02-26T15:38:50Z</time>
      </trkpt>
      <trkpt lat="43.48136" lon="6.57908">
        <ele>95</ele>
        <time>2025-02-26T15:38:51Z</time>
      </trkpt>
      <trkpt lat="43.48136" lon="6.57908">
        <ele>94.9</ele>
        <time>2025-02-26T15:38:52Z</time>
      </trkpt>
      <trkpt lat="43.48136" lon="6.57908">
        <ele>94.8</ele>
        <time>2025-02-26T15:38:53Z</time>
      </trkpt>
      <trkpt lat="43.48136" lon="6.57908">
        <ele>94.8</ele>
        <time>2025-02-26T15:38:54Z</time>
      </trkpt>
      <trkpt lat="43.48136" lon="6.57908">
        <ele>94.8</ele>
        <time>2025-02-26T15:38:55Z</time>
      </trkpt>
      <trkpt lat="43.48136" lon="6.57908">
        <ele>94.8</ele>
        <time>2025-02-26T15:38:56Z</time>
      </trkpt>
      <trkpt lat="43.48136" lon="6.57908">
        <ele>94.8</ele>
        <time>2025-02-26T15:38:57Z</time>
      </trkpt>
      <trkpt lat="43.48136" lon="6.57909">
        <ele>94.8</ele>
        <time>2025-02-26T15:38:58Z</time>
      </trkpt>
      <trkpt lat="43.48136" lon="6.57908">
        <ele>94.8</ele>
        <time>2025-02-26T15:38:59Z</time>
      </trkpt>
      <trkpt lat="43.48136" lon="6.57908">
        <ele>94.7</ele>
        <time>2025-02-26T15:39:00Z</time>
      </trkpt>
      <trkpt lat="43.48136" lon="6.57908">
        <ele>94.7</ele>
        <time>2025-02-26T15:39:01Z</time>
      </trkpt>
      <trkpt lat="43.48136" lon="6.57908">
        <ele>94.8</ele>
        <time>2025-02-26T15:39:02Z</time>
      </trkpt>
      <trkpt lat="43.48136" lon="6.57908">
        <ele>94.8</ele>
        <time>2025-02-26T15:39:03Z</time>
      </trkpt>
      <trkpt lat="43.48136" lon="6.57908">
        <ele>94.8</ele>
        <time>2025-02-26T15:39:04Z</time>
      </trkpt>
      <trkpt lat="43.48136" lon="6.57908">
        <ele>94.9</ele>
        <time>2025-02-26T15:39:05Z</time>
      </trkpt>
      <trkpt lat="43.48136" lon="6.57908">
        <ele>94.9</ele>
        <time>2025-02-26T15:39:06Z</time>
      </trkpt>
      <trkpt lat="43.48136" lon="6.57908">
        <ele>94.9</ele>
        <time>2025-02-26T15:39:07Z</time>
      </trkpt>
      <trkpt lat="43.48136" lon="6.57908">
        <ele>94.9</ele>
        <time>2025-02-26T15:39:08Z</time>
      </trkpt>
      <trkpt lat="43.48136" lon="6.57908">
        <ele>94.9</ele>
        <time>2025-02-26T15:39:09Z</time>
      </trkpt>
      <trkpt lat="43.48136" lon="6.57908">
        <ele>94.8</ele>
        <time>2025-02-26T15:39:10Z</time>
      </trkpt>
      <trkpt lat="43.48136" lon="6.57908">
        <ele>94.8</ele>
        <time>2025-02-26T15:39:11Z</time>
      </trkpt>
      <trkpt lat="43.48136" lon="6.57908">
        <ele>94.8</ele>
        <time>2025-02-26T15:39:12Z</time>
      </trkpt>
      <trkpt lat="43.48136" lon="6.57908">
        <ele>94.7</ele>
        <time>2025-02-26T15:39:13Z</time>
      </trkpt>
      <trkpt lat="43.48136" lon="6.57908">
        <ele>94.7</ele>
        <time>2025-02-26T15:39:14Z</time>
      </trkpt>
      <trkpt lat="43.48136" lon="6.57908">
        <ele>94.7</ele>
        <time>2025-02-26T15:39:15Z</time>
      </trkpt>
      <trkpt lat="43.48136" lon="6.57908">
        <ele>94.7</ele>
        <time>2025-02-26T15:39:16Z</time>
      </trkpt>
      <trkpt lat="43.48136" lon="6.57908">
        <ele>94.7</ele>
        <time>2025-02-26T15:39:17Z</time>
      </trkpt>
      <trkpt lat="43.48136" lon="6.57908">
        <ele>94.6</ele>
        <time>2025-02-26T15:39:18Z</time>
      </trkpt>
      <trkpt lat="43.48136" lon="6.57908">
        <ele>94.7</ele>
        <time>2025-02-26T15:39:19Z</time>
      </trkpt>
      <trkpt lat="43.48136" lon="6.57907">
        <ele>94.8</ele>
        <time>2025-02-26T15:39:20Z</time>
      </trkpt>
      <trkpt lat="43.48136" lon="6.57907">
        <ele>94.8</ele>
        <time>2025-02-26T15:39:21Z</time>
      </trkpt>
      <trkpt lat="43.48136" lon="6.57907">
        <ele>94.8</ele>
        <time>2025-02-26T15:39:22Z</time>
      </trkpt>
      <trkpt lat="43.48136" lon="6.57907">
        <ele>94.8</ele>
        <time>2025-02-26T15:39:23Z</time>
      </trkpt>
      <trkpt lat="43.48136" lon="6.57907">
        <ele>94.8</ele>
        <time>2025-02-26T15:39:24Z</time>
      </trkpt>
      <trkpt lat="43.48135" lon="6.57907">
        <ele>94.9</ele>
        <time>2025-02-26T15:39:25Z</time>
      </trkpt>
      <trkpt lat="43.48135" lon="6.57907">
        <ele>95</ele>
        <time>2025-02-26T15:39:26Z</time>
      </trkpt>
      <trkpt lat="43.48136" lon="6.57907">
        <ele>95.1</ele>
        <time>2025-02-26T15:39:27Z</time>
      </trkpt>
      <trkpt lat="43.48136" lon="6.57907">
        <ele>95.1</ele>
        <time>2025-02-26T15:39:28Z</time>
      </trkpt>
      <trkpt lat="43.48136" lon="6.57907">
        <ele>95.1</ele>
        <time>2025-02-26T15:39:29Z</time>
      </trkpt>
      <trkpt lat="43.48136" lon="6.57907">
        <ele>95</ele>
        <time>2025-02-26T15:39:30Z</time>
      </trkpt>
      <trkpt lat="43.48136" lon="6.57907">
        <ele>95.2</ele>
        <time>2025-02-26T15:39:31Z</time>
      </trkpt>
      <trkpt lat="43.48136" lon="6.57907">
        <ele>95.3</ele>
        <time>2025-02-26T15:39:32Z</time>
      </trkpt>
      <trkpt lat="43.48136" lon="6.57906">
        <ele>95.3</ele>
        <time>2025-02-26T15:39:33Z</time>
      </trkpt>
      <trkpt lat="43.48136" lon="6.57906">
        <ele>95.1</ele>
        <time>2025-02-26T15:39:34Z</time>
      </trkpt>
      <trkpt lat="43.48136" lon="6.57906">
        <ele>95</ele>
        <time>2025-02-26T15:39:35Z</time>
      </trkpt>
      <trkpt lat="43.48136" lon="6.57906">
        <ele>94.9</ele>
        <time>2025-02-26T15:39:36Z</time>
      </trkpt>
      <trkpt lat="43.48136" lon="6.57906">
        <ele>94.9</ele>
        <time>2025-02-26T15:39:37Z</time>
      </trkpt>
      <trkpt lat="43.48136" lon="6.57907">
        <ele>94.8</ele>
        <time>2025-02-26T15:39:38Z</time>
      </trkpt>
      <trkpt lat="43.48135" lon="6.57907">
        <ele>94.8</ele>
        <time>2025-02-26T15:39:39Z</time>
      </trkpt>
      <trkpt lat="43.48135" lon="6.57907">
        <ele>94.8</ele>
        <time>2025-02-26T15:39:40Z</time>
      </trkpt>
      <trkpt lat="43.48135" lon="6.57907">
        <ele>94.9</ele>
        <time>2025-02-26T15:39:41Z</time>
      </trkpt>
      <trkpt lat="43.48135" lon="6.57907">
        <ele>94.9</ele>
        <time>2025-02-26T15:39:42Z</time>
      </trkpt>
      <trkpt lat="43.48136" lon="6.57906">
        <ele>94.9</ele>
        <time>2025-02-26T15:39:43Z</time>
      </trkpt>
      <trkpt lat="43.48136" lon="6.57906">
        <ele>94.9</ele>
        <time>2025-02-26T15:39:44Z</time>
      </trkpt>
      <trkpt lat="43.48136" lon="6.57907">
        <ele>94.7</ele>
        <time>2025-02-26T15:39:45Z</time>
      </trkpt>
      <trkpt lat="43.48135" lon="6.57907">
        <ele>94.6</ele>
        <time>2025-02-26T15:39:46Z</time>
      </trkpt>
      <trkpt lat="43.48135" lon="6.57907">
        <ele>94.6</ele>
        <time>2025-02-26T15:39:47Z</time>
      </trkpt>
      <trkpt lat="43.48135" lon="6.57907">
        <ele>94.6</ele>
        <time>2025-02-26T15:39:48Z</time>
      </trkpt>
      <trkpt lat="43.48135" lon="6.57907">
        <ele>94.7</ele>
        <time>2025-02-26T15:39:49Z</time>
      </trkpt>
      <trkpt lat="43.48135" lon="6.57907">
        <ele>94.8</ele>
        <time>2025-02-26T15:39:50Z</time>
      </trkpt>
      <trkpt lat="43.48135" lon="6.57907">
        <ele>94.9</ele>
        <time>2025-02-26T15:39:51Z</time>
      </trkpt>
      <trkpt lat="43.48135" lon="6.57907">
        <ele>94.9</ele>
        <time>2025-02-26T15:39:52Z</time>
      </trkpt>
      <trkpt lat="43.48135" lon="6.57907">
        <ele>94.9</ele>
        <time>2025-02-26T15:39:53Z</time>
      </trkpt>
      <trkpt lat="43.48135" lon="6.57907">
        <ele>94.9</ele>
        <time>2025-02-26T15:39:54Z</time>
      </trkpt>
      <trkpt lat="43.48135" lon="6.57907">
        <ele>94.9</ele>
        <time>2025-02-26T15:39:55Z</time>
      </trkpt>
      <trkpt lat="43.48135" lon="6.57907">
        <ele>94.8</ele>
        <time>2025-02-26T15:39:56Z</time>
      </trkpt>
      <trkpt lat="43.48135" lon="6.57907">
        <ele>94.7</ele>
        <time>2025-02-26T15:39:57Z</time>
      </trkpt>
      <trkpt lat="43.48135" lon="6.57907">
        <ele>94.8</ele>
        <time>2025-02-26T15:39:58Z</time>
      </trkpt>
      <trkpt lat="43.48135" lon="6.57907">
        <ele>94.9</ele>
        <time>2025-02-26T15:39:59Z</time>
      </trkpt>
      <trkpt lat="43.48135" lon="6.57907">
        <ele>94.9</ele>
        <time>2025-02-26T15:40:00Z</time>
      </trkpt>
      <trkpt lat="43.48135" lon="6.57907">
        <ele>95</ele>
        <time>2025-02-26T15:40:01Z</time>
      </trkpt>
      <trkpt lat="43.48135" lon="6.57907">
        <ele>95.1</ele>
        <time>2025-02-26T15:40:02Z</time>
      </trkpt>
      <trkpt lat="43.48135" lon="6.57907">
        <ele>95.1</ele>
        <time>2025-02-26T15:40:03Z</time>
      </trkpt>
      <trkpt lat="43.48135" lon="6.57907">
        <ele>95.1</ele>
        <time>2025-02-26T15:40:04Z</time>
      </trkpt>
      <trkpt lat="43.48135" lon="6.57906">
        <ele>95.1</ele>
        <time>2025-02-26T15:40:05Z</time>
      </trkpt>
      <trkpt lat="43.48135" lon="6.57906">
        <ele>95.1</ele>
        <time>2025-02-26T15:40:06Z</time>
      </trkpt>
      <trkpt lat="43.48135" lon="6.57906">
        <ele>95.1</ele>
        <time>2025-02-26T15:40:07Z</time>
      </trkpt>
      <trkpt lat="43.48135" lon="6.57907">
        <ele>95.1</ele>
        <time>2025-02-26T15:40:08Z</time>
      </trkpt>
      <trkpt lat="43.48135" lon="6.57907">
        <ele>95.2</ele>
        <time>2025-02-26T15:40:09Z</time>
      </trkpt>
      <trkpt lat="43.48135" lon="6.57907">
        <ele>95.2</ele>
        <time>2025-02-26T15:40:10Z</time>
      </trkpt>
      <trkpt lat="43.48135" lon="6.57906">
        <ele>94.8</ele>
        <time>2025-02-26T15:40:11Z</time>
      </trkpt>
      <trkpt lat="43.48135" lon="6.57906">
        <ele>94.8</ele>
        <time>2025-02-26T15:40:12Z</time>
      </trkpt>
      <trkpt lat="43.48135" lon="6.57906">
        <ele>94.8</ele>
        <time>2025-02-26T15:40:13Z</time>
      </trkpt>
      <trkpt lat="43.48135" lon="6.57906">
        <ele>94.8</ele>
        <time>2025-02-26T15:40:14Z</time>
      </trkpt>
      <trkpt lat="43.48135" lon="6.57906">
        <ele>94.9</ele>
        <time>2025-02-26T15:40:15Z</time>
      </trkpt>
      <trkpt lat="43.48135" lon="6.57906">
        <ele>95</ele>
        <time>2025-02-26T15:40:16Z</time>
      </trkpt>
      <trkpt lat="43.48135" lon="6.57906">
        <ele>95.1</ele>
        <time>2025-02-26T15:40:17Z</time>
      </trkpt>
      <trkpt lat="43.48135" lon="6.57906">
        <ele>95</ele>
        <time>2025-02-26T15:40:18Z</time>
      </trkpt>
      <trkpt lat="43.48134" lon="6.57906">
        <ele>94.9</ele>
        <time>2025-02-26T15:40:19Z</time>
      </trkpt>
      <trkpt lat="43.48134" lon="6.57906">
        <ele>94.9</ele>
        <time>2025-02-26T15:40:20Z</time>
      </trkpt>
      <trkpt lat="43.48134" lon="6.57906">
        <ele>94.8</ele>
        <time>2025-02-26T15:40:21Z</time>
      </trkpt>
      <trkpt lat="43.48134" lon="6.57906">
        <ele>94.7</ele>
        <time>2025-02-26T15:40:22Z</time>
      </trkpt>
      <trkpt lat="43.48134" lon="6.57906">
        <ele>94.6</ele>
        <time>2025-02-26T15:40:23Z</time>
      </trkpt>
      <trkpt lat="43.48134" lon="6.57906">
        <ele>94.6</ele>
        <time>2025-02-26T15:40:24Z</time>
      </trkpt>
      <trkpt lat="43.48134" lon="6.57906">
        <ele>94.6</ele>
        <time>2025-02-26T15:40:25Z</time>
      </trkpt>
      <trkpt lat="43.48134" lon="6.57906">
        <ele>94.7</ele>
        <time>2025-02-26T15:40:26Z</time>
      </trkpt>
      <trkpt lat="43.48134" lon="6.57906">
        <ele>94.7</ele>
        <time>2025-02-26T15:40:27Z</time>
      </trkpt>
      <trkpt lat="43.48134" lon="6.57906">
        <ele>94.8</ele>
        <time>2025-02-26T15:40:28Z</time>
      </trkpt>
      <trkpt lat="43.48134" lon="6.57906">
        <ele>94.8</ele>
        <time>2025-02-26T15:40:29Z</time>
      </trkpt>
      <trkpt lat="43.48134" lon="6.57905">
        <ele>94.9</ele>
        <time>2025-02-26T15:40:30Z</time>
      </trkpt>
      <trkpt lat="43.48134" lon="6.57905">
        <ele>95</ele>
        <time>2025-02-26T15:40:31Z</time>
      </trkpt>
      <trkpt lat="43.48134" lon="6.57905">
        <ele>95.1</ele>
        <time>2025-02-26T15:40:32Z</time>
      </trkpt>
      <trkpt lat="43.48134" lon="6.57905">
        <ele>95.2</ele>
        <time>2025-02-26T15:40:33Z</time>
      </trkpt>
      <trkpt lat="43.48134" lon="6.57905">
        <ele>95.2</ele>
        <time>2025-02-26T15:40:34Z</time>
      </trkpt>
      <trkpt lat="43.48134" lon="6.57905">
        <ele>95.1</ele>
        <time>2025-02-26T15:40:35Z</time>
      </trkpt>
      <trkpt lat="43.48135" lon="6.57905">
        <ele>94.9</ele>
        <time>2025-02-26T15:40:36Z</time>
      </trkpt>
      <trkpt lat="43.48135" lon="6.57905">
        <ele>94.8</ele>
        <time>2025-02-26T15:40:37Z</time>
      </trkpt>
      <trkpt lat="43.48135" lon="6.57905">
        <ele>94.7</ele>
        <time>2025-02-26T15:40:38Z</time>
      </trkpt>
      <trkpt lat="43.48135" lon="6.57905">
        <ele>94.7</ele>
        <time>2025-02-26T15:40:39Z</time>
      </trkpt>
      <trkpt lat="43.48135" lon="6.57905">
        <ele>94.7</ele>
        <time>2025-02-26T15:40:40Z</time>
      </trkpt>
      <trkpt lat="43.48135" lon="6.57905">
        <ele>94.8</ele>
        <time>2025-02-26T15:40:41Z</time>
      </trkpt>
      <trkpt lat="43.48135" lon="6.57905">
        <ele>94.9</ele>
        <time>2025-02-26T15:40:42Z</time>
      </trkpt>
      <trkpt lat="43.48135" lon="6.57905">
        <ele>94.8</ele>
        <time>2025-02-26T15:40:43Z</time>
      </trkpt>
      <trkpt lat="43.48133" lon="6.57905">
        <ele>95</ele>
        <time>2025-02-26T15:40:44Z</time>
      </trkpt>
      <trkpt lat="43.48132" lon="6.57905">
        <ele>95.1</ele>
        <time>2025-02-26T15:40:45Z</time>
      </trkpt>
      <trkpt lat="43.48132" lon="6.57905">
        <ele>95.2</ele>
        <time>2025-02-26T15:40:46Z</time>
      </trkpt>
      <trkpt lat="43.48131" lon="6.57905">
        <ele>95</ele>
        <time>2025-02-26T15:40:47Z</time>
      </trkpt>
      <trkpt lat="43.4813" lon="6.57906">
        <ele>94.9</ele>
        <time>2025-02-26T15:40:48Z</time>
      </trkpt>
      <trkpt lat="43.48129" lon="6.57906">
        <ele>94.8</ele>
        <time>2025-02-26T15:40:49Z</time>
      </trkpt>
      <trkpt lat="43.48128" lon="6.57907">
        <ele>94.8</ele>
        <time>2025-02-26T15:40:50Z</time>
      </trkpt>
      <trkpt lat="43.48126" lon="6.57907">
        <ele>95.1</ele>
        <time>2025-02-26T15:40:51Z</time>
      </trkpt>
      <trkpt lat="43.48125" lon="6.57908">
        <ele>95.2</ele>
        <time>2025-02-26T15:40:52Z</time>
      </trkpt>
      <trkpt lat="43.48124" lon="6.57909">
        <ele>95.3</ele>
        <time>2025-02-26T15:40:53Z</time>
      </trkpt>
      <trkpt lat="43.48123" lon="6.57909">
        <ele>95.6</ele>
        <time>2025-02-26T15:40:54Z</time>
      </trkpt>
      <trkpt lat="43.48122" lon="6.5791">
        <ele>95.6</ele>
        <time>2025-02-26T15:40:55Z</time>
      </trkpt>
      <trkpt lat="43.48121" lon="6.57911">
        <ele>95.8</ele>
        <time>2025-02-26T15:40:56Z</time>
      </trkpt>
      <trkpt lat="43.4812" lon="6.57911">
        <ele>96.1</ele>
        <time>2025-02-26T15:40:57Z</time>
      </trkpt>
      <trkpt lat="43.4812" lon="6.57912">
        <ele>96.1</ele>
        <time>2025-02-26T15:40:58Z</time>
      </trkpt>
      <trkpt lat="43.48119" lon="6.57912">
        <ele>96.3</ele>
        <time>2025-02-26T15:40:59Z</time>
      </trkpt>
      <trkpt lat="43.48118" lon="6.57912">
        <ele>96.5</ele>
        <time>2025-02-26T15:41:00Z</time>
      </trkpt>
      <trkpt lat="43.48117" lon="6.57912">
        <ele>96.7</ele>
        <time>2025-02-26T15:41:01Z</time>
      </trkpt>
      <trkpt lat="43.48116" lon="6.57913">
        <ele>96.7</ele>
        <time>2025-02-26T15:41:02Z</time>
      </trkpt>
      <trkpt lat="43.48115" lon="6.57913">
        <ele>97</ele>
        <time>2025-02-26T15:41:03Z</time>
      </trkpt>
      <trkpt lat="43.48114" lon="6.57913">
        <ele>97.1</ele>
        <time>2025-02-26T15:41:04Z</time>
      </trkpt>
      <trkpt lat="43.48113" lon="6.57914">
        <ele>97.3</ele>
        <time>2025-02-26T15:41:05Z</time>
      </trkpt>
      <trkpt lat="43.48112" lon="6.57914">
        <ele>97.4</ele>
        <time>2025-02-26T15:41:06Z</time>
      </trkpt>
      <trkpt lat="43.48111" lon="6.57914">
        <ele>97.5</ele>
        <time>2025-02-26T15:41:07Z</time>
      </trkpt>
      <trkpt lat="43.4811" lon="6.57915">
        <ele>97.5</ele>
        <time>2025-02-26T15:41:08Z</time>
      </trkpt>
      <trkpt lat="43.48108" lon="6.57916">
        <ele>97.6</ele>
        <time>2025-02-26T15:41:09Z</time>
      </trkpt>
      <trkpt lat="43.48107" lon="6.57916">
        <ele>97.6</ele>
        <time>2025-02-26T15:41:10Z</time>
      </trkpt>
      <trkpt lat="43.48106" lon="6.57916">
        <ele>97.6</ele>
        <time>2025-02-26T15:41:11Z</time>
      </trkpt>
      <trkpt lat="43.48105" lon="6.57917">
        <ele>97.6</ele>
        <time>2025-02-26T15:41:12Z</time>
      </trkpt>
      <trkpt lat="43.48104" lon="6.57917">
        <ele>97.6</ele>
        <time>2025-02-26T15:41:13Z</time>
      </trkpt>
      <trkpt lat="43.48103" lon="6.57917">
        <ele>97.7</ele>
        <time>2025-02-26T15:41:14Z</time>
      </trkpt>
      <trkpt lat="43.48102" lon="6.57918">
        <ele>97.9</ele>
        <time>2025-02-26T15:41:15Z</time>
      </trkpt>
      <trkpt lat="43.481" lon="6.57918">
        <ele>98</ele>
        <time>2025-02-26T15:41:16Z</time>
      </trkpt>
      <trkpt lat="43.48099" lon="6.57918">
        <ele>98</ele>
        <time>2025-02-26T15:41:17Z</time>
      </trkpt>
      <trkpt lat="43.48099" lon="6.57919">
        <ele>98.1</ele>
        <time>2025-02-26T15:41:18Z</time>
      </trkpt>
      <trkpt lat="43.48098" lon="6.5792">
        <ele>98.2</ele>
        <time>2025-02-26T15:41:19Z</time>
      </trkpt>
      <trkpt lat="43.48097" lon="6.5792">
        <ele>98.2</ele>
        <time>2025-02-26T15:41:20Z</time>
      </trkpt>
      <trkpt lat="43.48096" lon="6.57921">
        <ele>98.3</ele>
        <time>2025-02-26T15:41:21Z</time>
      </trkpt>
      <trkpt lat="43.48094" lon="6.57921">
        <ele>98.3</ele>
        <time>2025-02-26T15:41:22Z</time>
      </trkpt>
      <trkpt lat="43.48093" lon="6.57922">
        <ele>98.4</ele>
        <time>2025-02-26T15:41:23Z</time>
      </trkpt>
      <trkpt lat="43.48092" lon="6.57922">
        <ele>98.4</ele>
        <time>2025-02-26T15:41:24Z</time>
      </trkpt>
      <trkpt lat="43.48091" lon="6.57922">
        <ele>98.5</ele>
        <time>2025-02-26T15:41:25Z</time>
      </trkpt>
      <trkpt lat="43.4809" lon="6.57922">
        <ele>98.6</ele>
        <time>2025-02-26T15:41:26Z</time>
      </trkpt>
      <trkpt lat="43.48088" lon="6.57922">
        <ele>98.7</ele>
        <time>2025-02-26T15:41:27Z</time>
      </trkpt>
      <trkpt lat="43.48087" lon="6.57922">
        <ele>98.8</ele>
        <time>2025-02-26T15:41:28Z</time>
      </trkpt>
      <trkpt lat="43.48086" lon="6.57922">
        <ele>98.8</ele>
        <time>2025-02-26T15:41:29Z</time>
      </trkpt>
      <trkpt lat="43.48085" lon="6.57923">
        <ele>99</ele>
        <time>2025-02-26T15:41:30Z</time>
      </trkpt>
      <trkpt lat="43.48084" lon="6.57923">
        <ele>99.1</ele>
        <time>2025-02-26T15:41:31Z</time>
      </trkpt>
      <trkpt lat="43.48083" lon="6.57924">
        <ele>99.1</ele>
        <time>2025-02-26T15:41:32Z</time>
      </trkpt>
      <trkpt lat="43.48081" lon="6.57926">
        <ele>99.1</ele>
        <time>2025-02-26T15:41:33Z</time>
      </trkpt>
      <trkpt lat="43.4808" lon="6.57927">
        <ele>99.2</ele>
        <time>2025-02-26T15:41:34Z</time>
      </trkpt>
      <trkpt lat="43.48079" lon="6.57928">
        <ele>99.2</ele>
        <time>2025-02-26T15:41:35Z</time>
      </trkpt>
      <trkpt lat="43.48078" lon="6.5793">
        <ele>99</ele>
        <time>2025-02-26T15:41:36Z</time>
      </trkpt>
      <trkpt lat="43.48078" lon="6.57931">
        <ele>99.3</ele>
        <time>2025-02-26T15:41:37Z</time>
      </trkpt>
      <trkpt lat="43.48077" lon="6.57932">
        <ele>99.5</ele>
        <time>2025-02-26T15:41:38Z</time>
      </trkpt>
      <trkpt lat="43.48076" lon="6.57933">
        <ele>99.8</ele>
        <time>2025-02-26T15:41:39Z</time>
      </trkpt>
      <trkpt lat="43.48075" lon="6.57934">
        <ele>100</ele>
        <time>2025-02-26T15:41:40Z</time>
      </trkpt>
      <trkpt lat="43.48075" lon="6.57935">
        <ele>100</ele>
        <time>2025-02-26T15:41:41Z</time>
      </trkpt>
      <trkpt lat="43.48075" lon="6.57935">
        <ele>100</ele>
        <time>2025-02-26T15:41:42Z</time>
      </trkpt>
      <trkpt lat="43.48075" lon="6.57936">
        <ele>99.9</ele>
        <time>2025-02-26T15:41:43Z</time>
      </trkpt>
      <trkpt lat="43.48075" lon="6.57936">
        <ele>99.9</ele>
        <time>2025-02-26T15:41:44Z</time>
      </trkpt>
      <trkpt lat="43.48075" lon="6.57936">
        <ele>99.8</ele>
        <time>2025-02-26T15:41:45Z</time>
      </trkpt>
      <trkpt lat="43.48074" lon="6.57936">
        <ele>99.8</ele>
        <time>2025-02-26T15:41:46Z</time>
      </trkpt>
      <trkpt lat="43.48074" lon="6.57936">
        <ele>99.7</ele>
        <time>2025-02-26T15:41:47Z</time>
      </trkpt>
      <trkpt lat="43.48073" lon="6.57935">
        <ele>99.9</ele>
        <time>2025-02-26T15:41:48Z</time>
      </trkpt>
      <trkpt lat="43.48072" lon="6.57936">
        <ele>100</ele>
        <time>2025-02-26T15:41:49Z</time>
      </trkpt>
      <trkpt lat="43.48072" lon="6.57936">
        <ele>100.1</ele>
        <time>2025-02-26T15:41:50Z</time>
      </trkpt>
      <trkpt lat="43.48071" lon="6.57936">
        <ele>100.2</ele>
        <time>2025-02-26T15:41:51Z</time>
      </trkpt>
      <trkpt lat="43.48071" lon="6.57935">
        <ele>100.3</ele>
        <time>2025-02-26T15:41:52Z</time>
      </trkpt>
      <trkpt lat="43.4807" lon="6.57936">
        <ele>100.3</ele>
        <time>2025-02-26T15:41:53Z</time>
      </trkpt>
      <trkpt lat="43.48069" lon="6.57935">
        <ele>100.5</ele>
        <time>2025-02-26T15:41:54Z</time>
      </trkpt>
      <trkpt lat="43.48068" lon="6.57935">
        <ele>100.6</ele>
        <time>2025-02-26T15:41:55Z</time>
      </trkpt>
      <trkpt lat="43.48067" lon="6.57935">
        <ele>100.7</ele>
        <time>2025-02-26T15:41:56Z</time>
      </trkpt>
      <trkpt lat="43.48066" lon="6.57935">
        <ele>101</ele>
        <time>2025-02-26T15:41:57Z</time>
      </trkpt>
      <trkpt lat="43.48065" lon="6.57935">
        <ele>101.2</ele>
        <time>2025-02-26T15:41:58Z</time>
      </trkpt>
      <trkpt lat="43.48064" lon="6.57935">
        <ele>101.5</ele>
        <time>2025-02-26T15:41:59Z</time>
      </trkpt>
      <trkpt lat="43.48064" lon="6.57935">
        <ele>101.9</ele>
        <time>2025-02-26T15:42:00Z</time>
      </trkpt>
      <trkpt lat="43.48063" lon="6.57934">
        <ele>102.2</ele>
        <time>2025-02-26T15:42:01Z</time>
      </trkpt>
      <trkpt lat="43.48062" lon="6.57935">
        <ele>102.5</ele>
        <time>2025-02-26T15:42:02Z</time>
      </trkpt>
      <trkpt lat="43.48061" lon="6.57935">
        <ele>102.9</ele>
        <time>2025-02-26T15:42:03Z</time>
      </trkpt>
      <trkpt lat="43.4806" lon="6.57935">
        <ele>103.3</ele>
        <time>2025-02-26T15:42:04Z</time>
      </trkpt>
      <trkpt lat="43.4806" lon="6.57935">
        <ele>103.6</ele>
        <time>2025-02-26T15:42:05Z</time>
      </trkpt>
      <trkpt lat="43.48059" lon="6.57935">
        <ele>104</ele>
        <time>2025-02-26T15:42:06Z</time>
      </trkpt>
      <trkpt lat="43.48058" lon="6.57935">
        <ele>104.4</ele>
        <time>2025-02-26T15:42:07Z</time>
      </trkpt>
      <trkpt lat="43.48057" lon="6.57935">
        <ele>104.8</ele>
        <time>2025-02-26T15:42:08Z</time>
      </trkpt>
      <trkpt lat="43.48056" lon="6.57934">
        <ele>105</ele>
        <time>2025-02-26T15:42:09Z</time>
      </trkpt>
      <trkpt lat="43.48055" lon="6.57934">
        <ele>105.3</ele>
        <time>2025-02-26T15:42:10Z</time>
      </trkpt>
      <trkpt lat="43.48054" lon="6.57934">
        <ele>105.6</ele>
        <time>2025-02-26T15:42:11Z</time>
      </trkpt>
      <trkpt lat="43.48053" lon="6.57933">
        <ele>105.9</ele>
        <time>2025-02-26T15:42:12Z</time>
      </trkpt>
      <trkpt lat="43.48053" lon="6.57933">
        <ele>106</ele>
        <time>2025-02-26T15:42:13Z</time>
      </trkpt>
      <trkpt lat="43.48052" lon="6.57933">
        <ele>106.2</ele>
        <time>2025-02-26T15:42:14Z</time>
      </trkpt>
      <trkpt lat="43.48051" lon="6.57932">
        <ele>106.3</ele>
        <time>2025-02-26T15:42:15Z</time>
      </trkpt>
      <trkpt lat="43.4805" lon="6.57932">
        <ele>106.4</ele>
        <time>2025-02-26T15:42:16Z</time>
      </trkpt>
      <trkpt lat="43.48049" lon="6.57931">
        <ele>106.4</ele>
        <time>2025-02-26T15:42:17Z</time>
      </trkpt>
      <trkpt lat="43.48048" lon="6.57931">
        <ele>106.4</ele>
        <time>2025-02-26T15:42:18Z</time>
      </trkpt>
      <trkpt lat="43.48047" lon="6.5793">
        <ele>106.5</ele>
        <time>2025-02-26T15:42:19Z</time>
      </trkpt>
      <trkpt lat="43.48047" lon="6.5793">
        <ele>106.6</ele>
        <time>2025-02-26T15:42:20Z</time>
      </trkpt>
      <trkpt lat="43.48046" lon="6.5793">
        <ele>106.9</ele>
        <time>2025-02-26T15:42:21Z</time>
      </trkpt>
      <trkpt lat="43.48045" lon="6.57929">
        <ele>107.1</ele>
        <time>2025-02-26T15:42:22Z</time>
      </trkpt>
      <trkpt lat="43.48044" lon="6.57929">
        <ele>107.3</ele>
        <time>2025-02-26T15:42:23Z</time>
      </trkpt>
      <trkpt lat="43.48044" lon="6.57929">
        <ele>107.5</ele>
        <time>2025-02-26T15:42:24Z</time>
      </trkpt>
      <trkpt lat="43.48043" lon="6.57929">
        <ele>107.7</ele>
        <time>2025-02-26T15:42:25Z</time>
      </trkpt>
      <trkpt lat="43.48042" lon="6.57929">
        <ele>107.9</ele>
        <time>2025-02-26T15:42:26Z</time>
      </trkpt>
      <trkpt lat="43.48041" lon="6.57928">
        <ele>108.3</ele>
        <time>2025-02-26T15:42:27Z</time>
      </trkpt>
      <trkpt lat="43.4804" lon="6.57928">
        <ele>108.6</ele>
        <time>2025-02-26T15:42:28Z</time>
      </trkpt>
      <trkpt lat="43.48039" lon="6.57928">
        <ele>108.9</ele>
        <time>2025-02-26T15:42:29Z</time>
      </trkpt>
      <trkpt lat="43.48038" lon="6.57928">
        <ele>109.3</ele>
        <time>2025-02-26T15:42:30Z</time>
      </trkpt>
      <trkpt lat="43.48036" lon="6.57928">
        <ele>109.6</ele>
        <time>2025-02-26T15:42:31Z</time>
      </trkpt>
      <trkpt lat="43.48035" lon="6.57928">
        <ele>109.9</ele>
        <time>2025-02-26T15:42:32Z</time>
      </trkpt>
      <trkpt lat="43.48034" lon="6.57927">
        <ele>110.1</ele>
        <time>2025-02-26T15:42:33Z</time>
      </trkpt>
      <trkpt lat="43.48033" lon="6.57927">
        <ele>110.3</ele>
        <time>2025-02-26T15:42:34Z</time>
      </trkpt>
      <trkpt lat="43.48032" lon="6.57927">
        <ele>110.5</ele>
        <time>2025-02-26T15:42:35Z</time>
      </trkpt>
      <trkpt lat="43.48031" lon="6.57926">
        <ele>110.8</ele>
        <time>2025-02-26T15:42:36Z</time>
      </trkpt>
      <trkpt lat="43.4803" lon="6.57926">
        <ele>110.9</ele>
        <time>2025-02-26T15:42:37Z</time>
      </trkpt>
      <trkpt lat="43.48029" lon="6.57926">
        <ele>111.1</ele>
        <time>2025-02-26T15:42:38Z</time>
      </trkpt>
      <trkpt lat="43.48028" lon="6.57926">
        <ele>111.3</ele>
        <time>2025-02-26T15:42:39Z</time>
      </trkpt>
      <trkpt lat="43.48027" lon="6.57925">
        <ele>111.4</ele>
        <time>2025-02-26T15:42:40Z</time>
      </trkpt>
      <trkpt lat="43.48026" lon="6.57926">
        <ele>111.5</ele>
        <time>2025-02-26T15:42:41Z</time>
      </trkpt>
      <trkpt lat="43.48025" lon="6.57926">
        <ele>111.6</ele>
        <time>2025-02-26T15:42:42Z</time>
      </trkpt>
      <trkpt lat="43.48023" lon="6.57925">
        <ele>111.8</ele>
        <time>2025-02-26T15:42:43Z</time>
      </trkpt>
      <trkpt lat="43.48023" lon="6.57925">
        <ele>111.9</ele>
        <time>2025-02-26T15:42:44Z</time>
      </trkpt>
      <trkpt lat="43.48022" lon="6.57925">
        <ele>112.1</ele>
        <time>2025-02-26T15:42:45Z</time>
      </trkpt>
      <trkpt lat="43.4802" lon="6.57925">
        <ele>112.2</ele>
        <time>2025-02-26T15:42:46Z</time>
      </trkpt>
      <trkpt lat="43.48019" lon="6.57925">
        <ele>112.3</ele>
        <time>2025-02-26T15:42:47Z</time>
      </trkpt>
      <trkpt lat="43.48018" lon="6.57924">
        <ele>112.3</ele>
        <time>2025-02-26T15:42:48Z</time>
      </trkpt>
      <trkpt lat="43.48017" lon="6.57924">
        <ele>112.4</ele>
        <time>2025-02-26T15:42:49Z</time>
      </trkpt>
      <trkpt lat="43.48016" lon="6.57924">
        <ele>112.5</ele>
        <time>2025-02-26T15:42:50Z</time>
      </trkpt>
      <trkpt lat="43.48015" lon="6.57923">
        <ele>112.6</ele>
        <time>2025-02-26T15:42:51Z</time>
      </trkpt>
      <trkpt lat="43.48014" lon="6.57923">
        <ele>112.8</ele>
        <time>2025-02-26T15:42:52Z</time>
      </trkpt>
      <trkpt lat="43.48013" lon="6.57923">
        <ele>112.9</ele>
        <time>2025-02-26T15:42:53Z</time>
      </trkpt>
      <trkpt lat="43.48012" lon="6.57922">
        <ele>113</ele>
        <time>2025-02-26T15:42:54Z</time>
      </trkpt>
      <trkpt lat="43.48011" lon="6.57921">
        <ele>113.1</ele>
        <time>2025-02-26T15:42:55Z</time>
      </trkpt>
      <trkpt lat="43.4801" lon="6.57921">
        <ele>113.2</ele>
        <time>2025-02-26T15:42:56Z</time>
      </trkpt>
      <trkpt lat="43.48009" lon="6.5792">
        <ele>113.2</ele>
        <time>2025-02-26T15:42:57Z</time>
      </trkpt>
      <trkpt lat="43.48008" lon="6.57919">
        <ele>113.3</ele>
        <time>2025-02-26T15:42:58Z</time>
      </trkpt>
      <trkpt lat="43.48007" lon="6.57918">
        <ele>113.2</ele>
        <time>2025-02-26T15:42:59Z</time>
      </trkpt>
      <trkpt lat="43.48006" lon="6.57917">
        <ele>113.2</ele>
        <time>2025-02-26T15:43:00Z</time>
      </trkpt>
      <trkpt lat="43.48005" lon="6.57916">
        <ele>113.1</ele>
        <time>2025-02-26T15:43:01Z</time>
      </trkpt>
      <trkpt lat="43.48005" lon="6.57916">
        <ele>113</ele>
        <time>2025-02-26T15:43:02Z</time>
      </trkpt>
      <trkpt lat="43.48004" lon="6.57915">
        <ele>113</ele>
        <time>2025-02-26T15:43:03Z</time>
      </trkpt>
      <trkpt lat="43.48004" lon="6.57914">
        <ele>113</ele>
        <time>2025-02-26T15:43:04Z</time>
      </trkpt>
      <trkpt lat="43.48003" lon="6.57914">
        <ele>112.9</ele>
        <time>2025-02-26T15:43:05Z</time>
      </trkpt>
      <trkpt lat="43.48003" lon="6.57913">
        <ele>112.9</ele>
        <time>2025-02-26T15:43:06Z</time>
      </trkpt>
      <trkpt lat="43.48003" lon="6.57913">
        <ele>112.9</ele>
        <time>2025-02-26T15:43:07Z</time>
      </trkpt>
      <trkpt lat="43.48002" lon="6.57912">
        <ele>113</ele>
        <time>2025-02-26T15:43:08Z</time>
      </trkpt>
      <trkpt lat="43.48001" lon="6.57912">
        <ele>112.9</ele>
        <time>2025-02-26T15:43:09Z</time>
      </trkpt>
      <trkpt lat="43.48" lon="6.5791">
        <ele>112.9</ele>
        <time>2025-02-26T15:43:10Z</time>
      </trkpt>
      <trkpt lat="43.47999" lon="6.57909">
        <ele>112.9</ele>
        <time>2025-02-26T15:43:11Z</time>
      </trkpt>
      <trkpt lat="43.47998" lon="6.57909">
        <ele>112.8</ele>
        <time>2025-02-26T15:43:12Z</time>
      </trkpt>
      <trkpt lat="43.47997" lon="6.57908">
        <ele>112.7</ele>
        <time>2025-02-26T15:43:13Z</time>
      </trkpt>
      <trkpt lat="43.47996" lon="6.57908">
        <ele>112.7</ele>
        <time>2025-02-26T15:43:14Z</time>
      </trkpt>
      <trkpt lat="43.47995" lon="6.57908">
        <ele>112.7</ele>
        <time>2025-02-26T15:43:15Z</time>
      </trkpt>
      <trkpt lat="43.47994" lon="6.57907">
        <ele>112.7</ele>
        <time>2025-02-26T15:43:16Z</time>
      </trkpt>
      <trkpt lat="43.47994" lon="6.57908">
        <ele>112.6</ele>
        <time>2025-02-26T15:43:17Z</time>
      </trkpt>
      <trkpt lat="43.47993" lon="6.57907">
        <ele>112.6</ele>
        <time>2025-02-26T15:43:18Z</time>
      </trkpt>
      <trkpt lat="43.47993" lon="6.57907">
        <ele>112.5</ele>
        <time>2025-02-26T15:43:19Z</time>
      </trkpt>
      <trkpt lat="43.47992" lon="6.57907">
        <ele>112.4</ele>
        <time>2025-02-26T15:43:20Z</time>
      </trkpt>
      <trkpt lat="43.47991" lon="6.57907">
        <ele>112.4</ele>
        <time>2025-02-26T15:43:21Z</time>
      </trkpt>
      <trkpt lat="43.47991" lon="6.57907">
        <ele>112.3</ele>
        <time>2025-02-26T15:43:22Z</time>
      </trkpt>
      <trkpt lat="43.4799" lon="6.57907">
        <ele>112.3</ele>
        <time>2025-02-26T15:43:23Z</time>
      </trkpt>
      <trkpt lat="43.47989" lon="6.57907">
        <ele>112.4</ele>
        <time>2025-02-26T15:43:24Z</time>
      </trkpt>
      <trkpt lat="43.47988" lon="6.57907">
        <ele>112.5</ele>
        <time>2025-02-26T15:43:25Z</time>
      </trkpt>
      <trkpt lat="43.47987" lon="6.57907">
        <ele>112.5</ele>
        <time>2025-02-26T15:43:26Z</time>
      </trkpt>
      <trkpt lat="43.47986" lon="6.57907">
        <ele>112.3</ele>
        <time>2025-02-26T15:43:27Z</time>
      </trkpt>
      <trkpt lat="43.47985" lon="6.57907">
        <ele>112.1</ele>
        <time>2025-02-26T15:43:28Z</time>
      </trkpt>
      <trkpt lat="43.47984" lon="6.57907">
        <ele>111.9</ele>
        <time>2025-02-26T15:43:29Z</time>
      </trkpt>
      <trkpt lat="43.47983" lon="6.57907">
        <ele>111.7</ele>
        <time>2025-02-26T15:43:30Z</time>
      </trkpt>
      <trkpt lat="43.47982" lon="6.57907">
        <ele>111.6</ele>
        <time>2025-02-26T15:43:31Z</time>
      </trkpt>
      <trkpt lat="43.47981" lon="6.57907">
        <ele>111.5</ele>
        <time>2025-02-26T15:43:32Z</time>
      </trkpt>
      <trkpt lat="43.4798" lon="6.57908">
        <ele>111.6</ele>
        <time>2025-02-26T15:43:33Z</time>
      </trkpt>
      <trkpt lat="43.47979" lon="6.57908">
        <ele>111.6</ele>
        <time>2025-02-26T15:43:34Z</time>
      </trkpt>
      <trkpt lat="43.47978" lon="6.57908">
        <ele>111.5</ele>
        <time>2025-02-26T15:43:35Z</time>
      </trkpt>
      <trkpt lat="43.47978" lon="6.57908">
        <ele>111.5</ele>
        <time>2025-02-26T15:43:36Z</time>
      </trkpt>
      <trkpt lat="43.47977" lon="6.57908">
        <ele>111.3</ele>
        <time>2025-02-26T15:43:37Z</time>
      </trkpt>
      <trkpt lat="43.47977" lon="6.57908">
        <ele>111.1</ele>
        <time>2025-02-26T15:43:38Z</time>
      </trkpt>
      <trkpt lat="43.47976" lon="6.57908">
        <ele>111.2</ele>
        <time>2025-02-26T15:43:39Z</time>
      </trkpt>
      <trkpt lat="43.47975" lon="6.57908">
        <ele>111.3</ele>
        <time>2025-02-26T15:43:40Z</time>
      </trkpt>
      <trkpt lat="43.47975" lon="6.57908">
        <ele>111.4</ele>
        <time>2025-02-26T15:43:41Z</time>
      </trkpt>
      <trkpt lat="43.47974" lon="6.57909">
        <ele>111.3</ele>
        <time>2025-02-26T15:43:42Z</time>
      </trkpt>
      <trkpt lat="43.47974" lon="6.57908">
        <ele>111.3</ele>
        <time>2025-02-26T15:43:43Z</time>
      </trkpt>
      <trkpt lat="43.47973" lon="6.57908">
        <ele>111.2</ele>
        <time>2025-02-26T15:43:44Z</time>
      </trkpt>
      <trkpt lat="43.47972" lon="6.57909">
        <ele>111.1</ele>
        <time>2025-02-26T15:43:45Z</time>
      </trkpt>
      <trkpt lat="43.47971" lon="6.57909">
        <ele>111</ele>
        <time>2025-02-26T15:43:46Z</time>
      </trkpt>
      <trkpt lat="43.4797" lon="6.57909">
        <ele>111.1</ele>
        <time>2025-02-26T15:43:47Z</time>
      </trkpt>
      <trkpt lat="43.47969" lon="6.57909">
        <ele>111.1</ele>
        <time>2025-02-26T15:43:48Z</time>
      </trkpt>
      <trkpt lat="43.47967" lon="6.57909">
        <ele>111.2</ele>
        <time>2025-02-26T15:43:49Z</time>
      </trkpt>
      <trkpt lat="43.47966" lon="6.5791">
        <ele>111.2</ele>
        <time>2025-02-26T15:43:50Z</time>
      </trkpt>
      <trkpt lat="43.47965" lon="6.5791">
        <ele>111.1</ele>
        <time>2025-02-26T15:43:51Z</time>
      </trkpt>
      <trkpt lat="43.47964" lon="6.5791">
        <ele>111.1</ele>
        <time>2025-02-26T15:43:52Z</time>
      </trkpt>
      <trkpt lat="43.47963" lon="6.5791">
        <ele>111.1</ele>
        <time>2025-02-26T15:43:53Z</time>
      </trkpt>
      <trkpt lat="43.47962" lon="6.5791">
        <ele>111</ele>
        <time>2025-02-26T15:43:54Z</time>
      </trkpt>
      <trkpt lat="43.47961" lon="6.5791">
        <ele>111</ele>
        <time>2025-02-26T15:43:55Z</time>
      </trkpt>
      <trkpt lat="43.4796" lon="6.5791">
        <ele>111</ele>
        <time>2025-02-26T15:43:56Z</time>
      </trkpt>
      <trkpt lat="43.47959" lon="6.57911">
        <ele>110.9</ele>
        <time>2025-02-26T15:43:57Z</time>
      </trkpt>
      <trkpt lat="43.47958" lon="6.57911">
        <ele>110.9</ele>
        <time>2025-02-26T15:43:58Z</time>
      </trkpt>
      <trkpt lat="43.47957" lon="6.57911">
        <ele>110.7</ele>
        <time>2025-02-26T15:43:59Z</time>
      </trkpt>
      <trkpt lat="43.47956" lon="6.57912">
        <ele>110.7</ele>
        <time>2025-02-26T15:44:00Z</time>
      </trkpt>
      <trkpt lat="43.47955" lon="6.57912">
        <ele>110.7</ele>
        <time>2025-02-26T15:44:01Z</time>
      </trkpt>
      <trkpt lat="43.47953" lon="6.57913">
        <ele>110.7</ele>
        <time>2025-02-26T15:44:02Z</time>
      </trkpt>
      <trkpt lat="43.47952" lon="6.57913">
        <ele>110.8</ele>
        <time>2025-02-26T15:44:03Z</time>
      </trkpt>
      <trkpt lat="43.47951" lon="6.57914">
        <ele>110.8</ele>
        <time>2025-02-26T15:44:04Z</time>
      </trkpt>
      <trkpt lat="43.4795" lon="6.57914">
        <ele>110.7</ele>
        <time>2025-02-26T15:44:05Z</time>
      </trkpt>
      <trkpt lat="43.47949" lon="6.57914">
        <ele>110.7</ele>
        <time>2025-02-26T15:44:06Z</time>
      </trkpt>
      <trkpt lat="43.47947" lon="6.57914">
        <ele>111</ele>
        <time>2025-02-26T15:44:07Z</time>
      </trkpt>
      <trkpt lat="43.47946" lon="6.57915">
        <ele>111.1</ele>
        <time>2025-02-26T15:44:08Z</time>
      </trkpt>
      <trkpt lat="43.47945" lon="6.57915">
        <ele>111.3</ele>
        <time>2025-02-26T15:44:09Z</time>
      </trkpt>
      <trkpt lat="43.47944" lon="6.57916">
        <ele>111.5</ele>
        <time>2025-02-26T15:44:10Z</time>
      </trkpt>
      <trkpt lat="43.47943" lon="6.57916">
        <ele>111.7</ele>
        <time>2025-02-26T15:44:11Z</time>
      </trkpt>
      <trkpt lat="43.47942" lon="6.57917">
        <ele>111.9</ele>
        <time>2025-02-26T15:44:12Z</time>
      </trkpt>
      <trkpt lat="43.47941" lon="6.57917">
        <ele>112</ele>
        <time>2025-02-26T15:44:13Z</time>
      </trkpt>
      <trkpt lat="43.4794" lon="6.57918">
        <ele>112</ele>
        <time>2025-02-26T15:44:14Z</time>
      </trkpt>
      <trkpt lat="43.47939" lon="6.57918">
        <ele>111.7</ele>
        <time>2025-02-26T15:44:15Z</time>
      </trkpt>
      <trkpt lat="43.47938" lon="6.57918">
        <ele>111.6</ele>
        <time>2025-02-26T15:44:16Z</time>
      </trkpt>
      <trkpt lat="43.47937" lon="6.57918">
        <ele>111.6</ele>
        <time>2025-02-26T15:44:17Z</time>
      </trkpt>
      <trkpt lat="43.47936" lon="6.57918">
        <ele>111.6</ele>
        <time>2025-02-26T15:44:18Z</time>
      </trkpt>
      <trkpt lat="43.47935" lon="6.57918">
        <ele>111.4</ele>
        <time>2025-02-26T15:44:19Z</time>
      </trkpt>
      <trkpt lat="43.47935" lon="6.57919">
        <ele>111.3</ele>
        <time>2025-02-26T15:44:20Z</time>
      </trkpt>
      <trkpt lat="43.47934" lon="6.57919">
        <ele>110.9</ele>
        <time>2025-02-26T15:44:21Z</time>
      </trkpt>
      <trkpt lat="43.47933" lon="6.57919">
        <ele>110.6</ele>
        <time>2025-02-26T15:44:22Z</time>
      </trkpt>
      <trkpt lat="43.47932" lon="6.57919">
        <ele>110.3</ele>
        <time>2025-02-26T15:44:23Z</time>
      </trkpt>
      <trkpt lat="43.47932" lon="6.57919">
        <ele>110.1</ele>
        <time>2025-02-26T15:44:24Z</time>
      </trkpt>
      <trkpt lat="43.47931" lon="6.57919">
        <ele>110.1</ele>
        <time>2025-02-26T15:44:25Z</time>
      </trkpt>
      <trkpt lat="43.4793" lon="6.57919">
        <ele>110.2</ele>
        <time>2025-02-26T15:44:26Z</time>
      </trkpt>
      <trkpt lat="43.47929" lon="6.57919">
        <ele>110.2</ele>
        <time>2025-02-26T15:44:27Z</time>
      </trkpt>
      <trkpt lat="43.47928" lon="6.57919">
        <ele>110</ele>
        <time>2025-02-26T15:44:28Z</time>
      </trkpt>
      <trkpt lat="43.47927" lon="6.57919">
        <ele>109.8</ele>
        <time>2025-02-26T15:44:29Z</time>
      </trkpt>
      <trkpt lat="43.47926" lon="6.5792">
        <ele>109.6</ele>
        <time>2025-02-26T15:44:30Z</time>
      </trkpt>
      <trkpt lat="43.47925" lon="6.5792">
        <ele>109.3</ele>
        <time>2025-02-26T15:44:31Z</time>
      </trkpt>
      <trkpt lat="43.47925" lon="6.57919">
        <ele>109</ele>
        <time>2025-02-26T15:44:32Z</time>
      </trkpt>
      <trkpt lat="43.47924" lon="6.57919">
        <ele>108.8</ele>
        <time>2025-02-26T15:44:33Z</time>
      </trkpt>
      <trkpt lat="43.47924" lon="6.57919">
        <ele>108.7</ele>
        <time>2025-02-26T15:44:34Z</time>
      </trkpt>
      <trkpt lat="43.47924" lon="6.57919">
        <ele>108.7</ele>
        <time>2025-02-26T15:44:35Z</time>
      </trkpt>
      <trkpt lat="43.47924" lon="6.57919">
        <ele>108.8</ele>
        <time>2025-02-26T15:44:36Z</time>
      </trkpt>
      <trkpt lat="43.47924" lon="6.57919">
        <ele>108.9</ele>
        <time>2025-02-26T15:44:37Z</time>
      </trkpt>
      <trkpt lat="43.47923" lon="6.57919">
        <ele>108.9</ele>
        <time>2025-02-26T15:44:38Z</time>
      </trkpt>
      <trkpt lat="43.47923" lon="6.57919">
        <ele>109</ele>
        <time>2025-02-26T15:44:39Z</time>
      </trkpt>
      <trkpt lat="43.47923" lon="6.57919">
        <ele>109</ele>
        <time>2025-02-26T15:44:40Z</time>
      </trkpt>
      <trkpt lat="43.47923" lon="6.57919">
        <ele>109</ele>
        <time>2025-02-26T15:44:41Z</time>
      </trkpt>
      <trkpt lat="43.47922" lon="6.57919">
        <ele>108.9</ele>
        <time>2025-02-26T15:44:42Z</time>
      </trkpt>
      <trkpt lat="43.47921" lon="6.57919">
        <ele>108.7</ele>
        <time>2025-02-26T15:44:43Z</time>
      </trkpt>
      <trkpt lat="43.4792" lon="6.57919">
        <ele>108.6</ele>
        <time>2025-02-26T15:44:44Z</time>
      </trkpt>
      <trkpt lat="43.4792" lon="6.57919">
        <ele>108.4</ele>
        <time>2025-02-26T15:44:45Z</time>
      </trkpt>
      <trkpt lat="43.47919" lon="6.57919">
        <ele>108.2</ele>
        <time>2025-02-26T15:44:46Z</time>
      </trkpt>
      <trkpt lat="43.47919" lon="6.57919">
        <ele>108.3</ele>
        <time>2025-02-26T15:44:47Z</time>
      </trkpt>
      <trkpt lat="43.47918" lon="6.57919">
        <ele>108.3</ele>
        <time>2025-02-26T15:44:48Z</time>
      </trkpt>
      <trkpt lat="43.47917" lon="6.57919">
        <ele>108.4</ele>
        <time>2025-02-26T15:44:49Z</time>
      </trkpt>
      <trkpt lat="43.47917" lon="6.57919">
        <ele>108.3</ele>
        <time>2025-02-26T15:44:50Z</time>
      </trkpt>
      <trkpt lat="43.47916" lon="6.57919">
        <ele>108.2</ele>
        <time>2025-02-26T15:44:51Z</time>
      </trkpt>
      <trkpt lat="43.47915" lon="6.57918">
        <ele>108.2</ele>
        <time>2025-02-26T15:44:52Z</time>
      </trkpt>
      <trkpt lat="43.47914" lon="6.57918">
        <ele>108.1</ele>
        <time>2025-02-26T15:44:53Z</time>
      </trkpt>
      <trkpt lat="43.47913" lon="6.57918">
        <ele>107.9</ele>
        <time>2025-02-26T15:44:54Z</time>
      </trkpt>
      <trkpt lat="43.47912" lon="6.57917">
        <ele>107.7</ele>
        <time>2025-02-26T15:44:55Z</time>
      </trkpt>
      <trkpt lat="43.47911" lon="6.57917">
        <ele>107.4</ele>
        <time>2025-02-26T15:44:56Z</time>
      </trkpt>
      <trkpt lat="43.4791" lon="6.57917">
        <ele>107.2</ele>
        <time>2025-02-26T15:44:57Z</time>
      </trkpt>
      <trkpt lat="43.47909" lon="6.57916">
        <ele>107</ele>
        <time>2025-02-26T15:44:58Z</time>
      </trkpt>
      <trkpt lat="43.47909" lon="6.57915">
        <ele>107</ele>
        <time>2025-02-26T15:44:59Z</time>
      </trkpt>
      <trkpt lat="43.47908" lon="6.57914">
        <ele>106.7</ele>
        <time>2025-02-26T15:45:00Z</time>
      </trkpt>
      <trkpt lat="43.47907" lon="6.57913">
        <ele>106.5</ele>
        <time>2025-02-26T15:45:01Z</time>
      </trkpt>
      <trkpt lat="43.47906" lon="6.57912">
        <ele>106.3</ele>
        <time>2025-02-26T15:45:02Z</time>
      </trkpt>
      <trkpt lat="43.47906" lon="6.57911">
        <ele>106.2</ele>
        <time>2025-02-26T15:45:03Z</time>
      </trkpt>
      <trkpt lat="43.47905" lon="6.5791">
        <ele>106</ele>
        <time>2025-02-26T15:45:04Z</time>
      </trkpt>
      <trkpt lat="43.47905" lon="6.57909">
        <ele>105.8</ele>
        <time>2025-02-26T15:45:05Z</time>
      </trkpt>
      <trkpt lat="43.47905" lon="6.57907">
        <ele>105.9</ele>
        <time>2025-02-26T15:45:06Z</time>
      </trkpt>
      <trkpt lat="43.47904" lon="6.57906">
        <ele>105.7</ele>
        <time>2025-02-26T15:45:07Z</time>
      </trkpt>
      <trkpt lat="43.47904" lon="6.57904">
        <ele>105.4</ele>
        <time>2025-02-26T15:45:08Z</time>
      </trkpt>
      <trkpt lat="43.47903" lon="6.57903">
        <ele>105.1</ele>
        <time>2025-02-26T15:45:09Z</time>
      </trkpt>
      <trkpt lat="43.47903" lon="6.57902">
        <ele>104.9</ele>
        <time>2025-02-26T15:45:10Z</time>
      </trkpt>
      <trkpt lat="43.47903" lon="6.57901">
        <ele>104.8</ele>
        <time>2025-02-26T15:45:11Z</time>
      </trkpt>
      <trkpt lat="43.47903" lon="6.579">
        <ele>104.7</ele>
        <time>2025-02-26T15:45:12Z</time>
      </trkpt>
      <trkpt lat="43.47903" lon="6.57899">
        <ele>104.7</ele>
        <time>2025-02-26T15:45:13Z</time>
      </trkpt>
      <trkpt lat="43.47903" lon="6.57898">
        <ele>104.6</ele>
        <time>2025-02-26T15:45:14Z</time>
      </trkpt>
      <trkpt lat="43.47903" lon="6.57897">
        <ele>104.3</ele>
        <time>2025-02-26T15:45:15Z</time>
      </trkpt>
      <trkpt lat="43.47903" lon="6.57897">
        <ele>104.2</ele>
        <time>2025-02-26T15:45:16Z</time>
      </trkpt>
      <trkpt lat="43.47903" lon="6.57896">
        <ele>103.9</ele>
        <time>2025-02-26T15:45:17Z</time>
      </trkpt>
      <trkpt lat="43.47903" lon="6.57895">
        <ele>103.6</ele>
        <time>2025-02-26T15:45:18Z</time>
      </trkpt>
      <trkpt lat="43.47903" lon="6.57894">
        <ele>103.4</ele>
        <time>2025-02-26T15:45:19Z</time>
      </trkpt>
      <trkpt lat="43.47903" lon="6.57893">
        <ele>103.2</ele>
        <time>2025-02-26T15:45:20Z</time>
      </trkpt>
      <trkpt lat="43.47902" lon="6.57891">
        <ele>103.1</ele>
        <time>2025-02-26T15:45:21Z</time>
      </trkpt>
      <trkpt lat="43.47901" lon="6.5789">
        <ele>102.7</ele>
        <time>2025-02-26T15:45:22Z</time>
      </trkpt>
      <trkpt lat="43.47901" lon="6.57889">
        <ele>102.5</ele>
        <time>2025-02-26T15:45:23Z</time>
      </trkpt>
      <trkpt lat="43.479" lon="6.57888">
        <ele>102.3</ele>
        <time>2025-02-26T15:45:24Z</time>
      </trkpt>
      <trkpt lat="43.47899" lon="6.57886">
        <ele>102.1</ele>
        <time>2025-02-26T15:45:25Z</time>
      </trkpt>
      <trkpt lat="43.47899" lon="6.57886">
        <ele>101.8</ele>
        <time>2025-02-26T15:45:26Z</time>
      </trkpt>
      <trkpt lat="43.47898" lon="6.57885">
        <ele>101.5</ele>
        <time>2025-02-26T15:45:27Z</time>
      </trkpt>
      <trkpt lat="43.47897" lon="6.57884">
        <ele>101.2</ele>
        <time>2025-02-26T15:45:28Z</time>
      </trkpt>
      <trkpt lat="43.47896" lon="6.57883">
        <ele>101.1</ele>
        <time>2025-02-26T15:45:29Z</time>
      </trkpt>
      <trkpt lat="43.47895" lon="6.57882">
        <ele>100.8</ele>
        <time>2025-02-26T15:45:30Z</time>
      </trkpt>
      <trkpt lat="43.47895" lon="6.57881">
        <ele>100.7</ele>
        <time>2025-02-26T15:45:31Z</time>
      </trkpt>
      <trkpt lat="43.47894" lon="6.5788">
        <ele>100.5</ele>
        <time>2025-02-26T15:45:32Z</time>
      </trkpt>
      <trkpt lat="43.47893" lon="6.57879">
        <ele>100.3</ele>
        <time>2025-02-26T15:45:33Z</time>
      </trkpt>
      <trkpt lat="43.47892" lon="6.57878">
        <ele>100.1</ele>
        <time>2025-02-26T15:45:34Z</time>
      </trkpt>
      <trkpt lat="43.47891" lon="6.57878">
        <ele>100</ele>
        <time>2025-02-26T15:45:35Z</time>
      </trkpt>
      <trkpt lat="43.4789" lon="6.57877">
        <ele>99.9</ele>
        <time>2025-02-26T15:45:36Z</time>
      </trkpt>
      <trkpt lat="43.47889" lon="6.57877">
        <ele>99.8</ele>
        <time>2025-02-26T15:45:37Z</time>
      </trkpt>
      <trkpt lat="43.47888" lon="6.57876">
        <ele>99.7</ele>
        <time>2025-02-26T15:45:38Z</time>
      </trkpt>
      <trkpt lat="43.47887" lon="6.57875">
        <ele>99.4</ele>
        <time>2025-02-26T15:45:39Z</time>
      </trkpt>
      <trkpt lat="43.47886" lon="6.57874">
        <ele>99.4</ele>
        <time>2025-02-26T15:45:40Z</time>
      </trkpt>
      <trkpt lat="43.47885" lon="6.57873">
        <ele>99.4</ele>
        <time>2025-02-26T15:45:41Z</time>
      </trkpt>
      <trkpt lat="43.47884" lon="6.57871">
        <ele>99.3</ele>
        <time>2025-02-26T15:45:42Z</time>
      </trkpt>
      <trkpt lat="43.47883" lon="6.57871">
        <ele>99.3</ele>
        <time>2025-02-26T15:45:43Z</time>
      </trkpt>
      <trkpt lat="43.47882" lon="6.5787">
        <ele>99.3</ele>
        <time>2025-02-26T15:45:44Z</time>
      </trkpt>
      <trkpt lat="43.47882" lon="6.57869">
        <ele>99.3</ele>
        <time>2025-02-26T15:45:45Z</time>
      </trkpt>
      <trkpt lat="43.47881" lon="6.57868">
        <ele>99.4</ele>
        <time>2025-02-26T15:45:46Z</time>
      </trkpt>
      <trkpt lat="43.4788" lon="6.57867">
        <ele>99.3</ele>
        <time>2025-02-26T15:45:47Z</time>
      </trkpt>
      <trkpt lat="43.47879" lon="6.57866">
        <ele>99.2</ele>
        <time>2025-02-26T15:45:48Z</time>
      </trkpt>
      <trkpt lat="43.47879" lon="6.57865">
        <ele>99.2</ele>
        <time>2025-02-26T15:45:49Z</time>
      </trkpt>
      <trkpt lat="43.47878" lon="6.57864">
        <ele>99.1</ele>
        <time>2025-02-26T15:45:50Z</time>
      </trkpt>
      <trkpt lat="43.47878" lon="6.57864">
        <ele>99.1</ele>
        <time>2025-02-26T15:45:51Z</time>
      </trkpt>
      <trkpt lat="43.47877" lon="6.57862">
        <ele>99.1</ele>
        <time>2025-02-26T15:45:52Z</time>
      </trkpt>
      <trkpt lat="43.47876" lon="6.57861">
        <ele>99</ele>
        <time>2025-02-26T15:45:53Z</time>
      </trkpt>
      <trkpt lat="43.47876" lon="6.57861">
        <ele>98.9</ele>
        <time>2025-02-26T15:45:54Z</time>
      </trkpt>
      <trkpt lat="43.47875" lon="6.5786">
        <ele>98.8</ele>
        <time>2025-02-26T15:45:55Z</time>
      </trkpt>
      <trkpt lat="43.47875" lon="6.5786">
        <ele>98.7</ele>
        <time>2025-02-26T15:45:56Z</time>
      </trkpt>
      <trkpt lat="43.47875" lon="6.5786">
        <ele>98.6</ele>
        <time>2025-02-26T15:45:57Z</time>
      </trkpt>
      <trkpt lat="43.47874" lon="6.57859">
        <ele>98.6</ele>
        <time>2025-02-26T15:45:58Z</time>
      </trkpt>
      <trkpt lat="43.47874" lon="6.57859">
        <ele>98.5</ele>
        <time>2025-02-26T15:45:59Z</time>
      </trkpt>
      <trkpt lat="43.47874" lon="6.57859">
        <ele>98.5</ele>
        <time>2025-02-26T15:46:00Z</time>
      </trkpt>
      <trkpt lat="43.47874" lon="6.57859">
        <ele>98.5</ele>
        <time>2025-02-26T15:46:01Z</time>
      </trkpt>
      <trkpt lat="43.47874" lon="6.57859">
        <ele>98.4</ele>
        <time>2025-02-26T15:46:02Z</time>
      </trkpt>
      <trkpt lat="43.47874" lon="6.57859">
        <ele>98.4</ele>
        <time>2025-02-26T15:46:03Z</time>
      </trkpt>
      <trkpt lat="43.47874" lon="6.57859">
        <ele>98.4</ele>
        <time>2025-02-26T15:46:04Z</time>
      </trkpt>
      <trkpt lat="43.47873" lon="6.57859">
        <ele>98.3</ele>
        <time>2025-02-26T15:46:05Z</time>
      </trkpt>
      <trkpt lat="43.47873" lon="6.57859">
        <ele>98.2</ele>
        <time>2025-02-26T15:46:06Z</time>
      </trkpt>
      <trkpt lat="43.47873" lon="6.57859">
        <ele>98.2</ele>
        <time>2025-02-26T15:46:07Z</time>
      </trkpt>
      <trkpt lat="43.47873" lon="6.57859">
        <ele>98.4</ele>
        <time>2025-02-26T15:46:08Z</time>
      </trkpt>
      <trkpt lat="43.47873" lon="6.57859">
        <ele>98.5</ele>
        <time>2025-02-26T15:46:09Z</time>
      </trkpt>
      <trkpt lat="43.47872" lon="6.57859">
        <ele>98.6</ele>
        <time>2025-02-26T15:46:10Z</time>
      </trkpt>
      <trkpt lat="43.47872" lon="6.57859">
        <ele>98.5</ele>
        <time>2025-02-26T15:46:11Z</time>
      </trkpt>
      <trkpt lat="43.47872" lon="6.5786">
        <ele>98.5</ele>
        <time>2025-02-26T15:46:12Z</time>
      </trkpt>
      <trkpt lat="43.47872" lon="6.57859">
        <ele>98.5</ele>
        <time>2025-02-26T15:46:13Z</time>
      </trkpt>
      <trkpt lat="43.47872" lon="6.5786">
        <ele>98.6</ele>
        <time>2025-02-26T15:46:14Z</time>
      </trkpt>
      <trkpt lat="43.47872" lon="6.5786">
        <ele>98.7</ele>
        <time>2025-02-26T15:46:15Z</time>
      </trkpt>
      <trkpt lat="43.47872" lon="6.5786">
        <ele>98.7</ele>
        <time>2025-02-26T15:46:16Z</time>
      </trkpt>
      <trkpt lat="43.47872" lon="6.5786">
        <ele>98.7</ele>
        <time>2025-02-26T15:46:17Z</time>
      </trkpt>
      <trkpt lat="43.47871" lon="6.5786">
        <ele>98.7</ele>
        <time>2025-02-26T15:46:18Z</time>
      </trkpt>
      <trkpt lat="43.47871" lon="6.5786">
        <ele>98.7</ele>
        <time>2025-02-26T15:46:19Z</time>
      </trkpt>
      <trkpt lat="43.47871" lon="6.5786">
        <ele>98.7</ele>
        <time>2025-02-26T15:46:20Z</time>
      </trkpt>
      <trkpt lat="43.47871" lon="6.5786">
        <ele>98.7</ele>
        <time>2025-02-26T15:46:21Z</time>
      </trkpt>
      <trkpt lat="43.47871" lon="6.5786">
        <ele>98.8</ele>
        <time>2025-02-26T15:46:22Z</time>
      </trkpt>
      <trkpt lat="43.47871" lon="6.57859">
        <ele>98.8</ele>
        <time>2025-02-26T15:46:23Z</time>
      </trkpt>
      <trkpt lat="43.47871" lon="6.57859">
        <ele>98.8</ele>
        <time>2025-02-26T15:46:24Z</time>
      </trkpt>
      <trkpt lat="43.47871" lon="6.57859">
        <ele>98.8</ele>
        <time>2025-02-26T15:46:25Z</time>
      </trkpt>
      <trkpt lat="43.47871" lon="6.57859">
        <ele>98.7</ele>
        <time>2025-02-26T15:46:26Z</time>
      </trkpt>
      <trkpt lat="43.47871" lon="6.57859">
        <ele>98.7</ele>
        <time>2025-02-26T15:46:27Z</time>
      </trkpt>
      <trkpt lat="43.47871" lon="6.57859">
        <ele>98.7</ele>
        <time>2025-02-26T15:46:28Z</time>
      </trkpt>
      <trkpt lat="43.47871" lon="6.57859">
        <ele>98.6</ele>
        <time>2025-02-26T15:46:29Z</time>
      </trkpt>
      <trkpt lat="43.47871" lon="6.57859">
        <ele>98.5</ele>
        <time>2025-02-26T15:46:30Z</time>
      </trkpt>
      <trkpt lat="43.47871" lon="6.57859">
        <ele>98.4</ele>
        <time>2025-02-26T15:46:31Z</time>
      </trkpt>
      <trkpt lat="43.47871" lon="6.57859">
        <ele>98.4</ele>
        <time>2025-02-26T15:46:32Z</time>
      </trkpt>
      <trkpt lat="43.47871" lon="6.57859">
        <ele>98.4</ele>
        <time>2025-02-26T15:46:33Z</time>
      </trkpt>
      <trkpt lat="43.47871" lon="6.57859">
        <ele>98.4</ele>
        <time>2025-02-26T15:46:34Z</time>
      </trkpt>
      <trkpt lat="43.47871" lon="6.57859">
        <ele>98.4</ele>
        <time>2025-02-26T15:46:35Z</time>
      </trkpt>
      <trkpt lat="43.47871" lon="6.57859">
        <ele>98.4</ele>
        <time>2025-02-26T15:46:36Z</time>
      </trkpt>
      <trkpt lat="43.47871" lon="6.57859">
        <ele>98.3</ele>
        <time>2025-02-26T15:46:37Z</time>
      </trkpt>
      <trkpt lat="43.47871" lon="6.57858">
        <ele>98.3</ele>
        <time>2025-02-26T15:46:38Z</time>
      </trkpt>
      <trkpt lat="43.4787" lon="6.57858">
        <ele>98.3</ele>
        <time>2025-02-26T15:46:39Z</time>
      </trkpt>
      <trkpt lat="43.4787" lon="6.57858">
        <ele>98.3</ele>
        <time>2025-02-26T15:46:40Z</time>
      </trkpt>
      <trkpt lat="43.4787" lon="6.57859">
        <ele>98.3</ele>
        <time>2025-02-26T15:46:41Z</time>
      </trkpt>
      <trkpt lat="43.4787" lon="6.57859">
        <ele>98.3</ele>
        <time>2025-02-26T15:46:42Z</time>
      </trkpt>
      <trkpt lat="43.4787" lon="6.57859">
        <ele>98.3</ele>
        <time>2025-02-26T15:46:43Z</time>
      </trkpt>
      <trkpt lat="43.4787" lon="6.57859">
        <ele>98.3</ele>
        <time>2025-02-26T15:46:44Z</time>
      </trkpt>
      <trkpt lat="43.4787" lon="6.57859">
        <ele>98.3</ele>
        <time>2025-02-26T15:46:45Z</time>
      </trkpt>
      <trkpt lat="43.4787" lon="6.57859">
        <ele>98.3</ele>
        <time>2025-02-26T15:46:46Z</time>
      </trkpt>
      <trkpt lat="43.4787" lon="6.57859">
        <ele>98.3</ele>
        <time>2025-02-26T15:46:47Z</time>
      </trkpt>
      <trkpt lat="43.4787" lon="6.57858">
        <ele>98.3</ele>
        <time>2025-02-26T15:46:48Z</time>
      </trkpt>
      <trkpt lat="43.4787" lon="6.57858">
        <ele>98.2</ele>
        <time>2025-02-26T15:46:49Z</time>
      </trkpt>
      <trkpt lat="43.4787" lon="6.57858">
        <ele>98.1</ele>
        <time>2025-02-26T15:46:50Z</time>
      </trkpt>
      <trkpt lat="43.4787" lon="6.57858">
        <ele>98.1</ele>
        <time>2025-02-26T15:46:51Z</time>
      </trkpt>
      <trkpt lat="43.4787" lon="6.57858">
        <ele>98.1</ele>
        <time>2025-02-26T15:46:52Z</time>
      </trkpt>
      <trkpt lat="43.4787" lon="6.57858">
        <ele>98.1</ele>
        <time>2025-02-26T15:46:53Z</time>
      </trkpt>
      <trkpt lat="43.4787" lon="6.57858">
        <ele>98.1</ele>
        <time>2025-02-26T15:46:54Z</time>
      </trkpt>
      <trkpt lat="43.4787" lon="6.57858">
        <ele>98.2</ele>
        <time>2025-02-26T15:46:55Z</time>
      </trkpt>
      <trkpt lat="43.4787" lon="6.57858">
        <ele>98.2</ele>
        <time>2025-02-26T15:46:56Z</time>
      </trkpt>
      <trkpt lat="43.4787" lon="6.57858">
        <ele>98.2</ele>
        <time>2025-02-26T15:46:57Z</time>
      </trkpt>
      <trkpt lat="43.4787" lon="6.57857">
        <ele>98.2</ele>
        <time>2025-02-26T15:46:58Z</time>
      </trkpt>
      <trkpt lat="43.4787" lon="6.57857">
        <ele>98.2</ele>
        <time>2025-02-26T15:46:59Z</time>
      </trkpt>
      <trkpt lat="43.4787" lon="6.57857">
        <ele>98.3</ele>
        <time>2025-02-26T15:47:00Z</time>
      </trkpt>
      <trkpt lat="43.4787" lon="6.57857">
        <ele>98.3</ele>
        <time>2025-02-26T15:47:01Z</time>
      </trkpt>
      <trkpt lat="43.4787" lon="6.57857">
        <ele>98.3</ele>
        <time>2025-02-26T15:47:02Z</time>
      </trkpt>
      <trkpt lat="43.4787" lon="6.57857">
        <ele>98.3</ele>
        <time>2025-02-26T15:47:03Z</time>
      </trkpt>
      <trkpt lat="43.4787" lon="6.57857">
        <ele>98.4</ele>
        <time>2025-02-26T15:47:04Z</time>
      </trkpt>
      <trkpt lat="43.4787" lon="6.57856">
        <ele>98.5</ele>
        <time>2025-02-26T15:47:05Z</time>
      </trkpt>
      <trkpt lat="43.4787" lon="6.57856">
        <ele>98.5</ele>
        <time>2025-02-26T15:47:06Z</time>
      </trkpt>
      <trkpt lat="43.4787" lon="6.57856">
        <ele>98.5</ele>
        <time>2025-02-26T15:47:07Z</time>
      </trkpt>
      <trkpt lat="43.4787" lon="6.57856">
        <ele>98.6</ele>
        <time>2025-02-26T15:47:08Z</time>
      </trkpt>
      <trkpt lat="43.4787" lon="6.57856">
        <ele>98.6</ele>
        <time>2025-02-26T15:47:09Z</time>
      </trkpt>
      <trkpt lat="43.4787" lon="6.57856">
        <ele>98.7</ele>
        <time>2025-02-26T15:47:10Z</time>
      </trkpt>
      <trkpt lat="43.4787" lon="6.57857">
        <ele>98.7</ele>
        <time>2025-02-26T15:47:11Z</time>
      </trkpt>
      <trkpt lat="43.4787" lon="6.57856">
        <ele>98.6</ele>
        <time>2025-02-26T15:47:12Z</time>
      </trkpt>
      <trkpt lat="43.4787" lon="6.57856">
        <ele>98.6</ele>
        <time>2025-02-26T15:47:13Z</time>
      </trkpt>
      <trkpt lat="43.4787" lon="6.57856">
        <ele>98.5</ele>
        <time>2025-02-26T15:47:14Z</time>
      </trkpt>
      <trkpt lat="43.4787" lon="6.57857">
        <ele>98.5</ele>
        <time>2025-02-26T15:47:15Z</time>
      </trkpt>
      <trkpt lat="43.4787" lon="6.57856">
        <ele>98.5</ele>
        <time>2025-02-26T15:47:16Z</time>
      </trkpt>
      <trkpt lat="43.4787" lon="6.57856">
        <ele>98.5</ele>
        <time>2025-02-26T15:47:17Z</time>
      </trkpt>
      <trkpt lat="43.4787" lon="6.57856">
        <ele>98.5</ele>
        <time>2025-02-26T15:47:18Z</time>
      </trkpt>
      <trkpt lat="43.4787" lon="6.57856">
        <ele>98.5</ele>
        <time>2025-02-26T15:47:19Z</time>
      </trkpt>
      <trkpt lat="43.47869" lon="6.57857">
        <ele>98.6</ele>
        <time>2025-02-26T15:47:20Z</time>
      </trkpt>
      <trkpt lat="43.47869" lon="6.57857">
        <ele>98.8</ele>
        <time>2025-02-26T15:47:21Z</time>
      </trkpt>
      <trkpt lat="43.47869" lon="6.57857">
        <ele>98.8</ele>
        <time>2025-02-26T15:47:22Z</time>
      </trkpt>
      <trkpt lat="43.47869" lon="6.57857">
        <ele>98.7</ele>
        <time>2025-02-26T15:47:23Z</time>
      </trkpt>
      <trkpt lat="43.47869" lon="6.57857">
        <ele>98.6</ele>
        <time>2025-02-26T15:47:24Z</time>
      </trkpt>
      <trkpt lat="43.47869" lon="6.57857">
        <ele>98.4</ele>
        <time>2025-02-26T15:47:25Z</time>
      </trkpt>
      <trkpt lat="43.47869" lon="6.57857">
        <ele>98.4</ele>
        <time>2025-02-26T15:47:26Z</time>
      </trkpt>
      <trkpt lat="43.4787" lon="6.57856">
        <ele>98.3</ele>
        <time>2025-02-26T15:47:27Z</time>
      </trkpt>
      <trkpt lat="43.4787" lon="6.57856">
        <ele>98.2</ele>
        <time>2025-02-26T15:47:28Z</time>
      </trkpt>
      <trkpt lat="43.47869" lon="6.57857">
        <ele>98.2</ele>
        <time>2025-02-26T15:47:29Z</time>
      </trkpt>
      <trkpt lat="43.4787" lon="6.57856">
        <ele>98.3</ele>
        <time>2025-02-26T15:47:30Z</time>
      </trkpt>
      <trkpt lat="43.4787" lon="6.57856">
        <ele>98.3</ele>
        <time>2025-02-26T15:47:31Z</time>
      </trkpt>
      <trkpt lat="43.4787" lon="6.57856">
        <ele>98.3</ele>
        <time>2025-02-26T15:47:32Z</time>
      </trkpt>
      <trkpt lat="43.4787" lon="6.57857">
        <ele>98.3</ele>
        <time>2025-02-26T15:47:33Z</time>
      </trkpt>
      <trkpt lat="43.4787" lon="6.57857">
        <ele>98.3</ele>
        <time>2025-02-26T15:47:34Z</time>
      </trkpt>
      <trkpt lat="43.47869" lon="6.57857">
        <ele>98.3</ele>
        <time>2025-02-26T15:47:35Z</time>
      </trkpt>
      <trkpt lat="43.47869" lon="6.57857">
        <ele>98.2</ele>
        <time>2025-02-26T15:47:36Z</time>
      </trkpt>
      <trkpt lat="43.47869" lon="6.57857">
        <ele>98.2</ele>
        <time>2025-02-26T15:47:37Z</time>
      </trkpt>
      <trkpt lat="43.47869" lon="6.57857">
        <ele>98.2</ele>
        <time>2025-02-26T15:47:38Z</time>
      </trkpt>
      <trkpt lat="43.47869" lon="6.57857">
        <ele>98.2</ele>
        <time>2025-02-26T15:47:39Z</time>
      </trkpt>
      <trkpt lat="43.47869" lon="6.57857">
        <ele>98.2</ele>
        <time>2025-02-26T15:47:40Z</time>
      </trkpt>
      <trkpt lat="43.47869" lon="6.57857">
        <ele>98.2</ele>
        <time>2025-02-26T15:47:41Z</time>
      </trkpt>
      <trkpt lat="43.47869" lon="6.57857">
        <ele>98.2</ele>
        <time>2025-02-26T15:47:42Z</time>
      </trkpt>
      <trkpt lat="43.47869" lon="6.57857">
        <ele>98.2</ele>
        <time>2025-02-26T15:47:43Z</time>
      </trkpt>
      <trkpt lat="43.47869" lon="6.57857">
        <ele>98.2</ele>
        <time>2025-02-26T15:47:44Z</time>
      </trkpt>
      <trkpt lat="43.47869" lon="6.57857">
        <ele>98.2</ele>
        <time>2025-02-26T15:47:45Z</time>
      </trkpt>
      <trkpt lat="43.47869" lon="6.57857">
        <ele>98.1</ele>
        <time>2025-02-26T15:47:46Z</time>
      </trkpt>
      <trkpt lat="43.4787" lon="6.57857">
        <ele>98.1</ele>
        <time>2025-02-26T15:47:47Z</time>
      </trkpt>
      <trkpt lat="43.4787" lon="6.57857">
        <ele>98</ele>
        <time>2025-02-26T15:47:48Z</time>
      </trkpt>
      <trkpt lat="43.4787" lon="6.57857">
        <ele>98</ele>
        <time>2025-02-26T15:47:49Z</time>
      </trkpt>
      <trkpt lat="43.4787" lon="6.57857">
        <ele>97.9</ele>
        <time>2025-02-26T15:47:50Z</time>
      </trkpt>
      <trkpt lat="43.4787" lon="6.57856">
        <ele>98</ele>
        <time>2025-02-26T15:47:51Z</time>
      </trkpt>
      <trkpt lat="43.4787" lon="6.57856">
        <ele>98</ele>
        <time>2025-02-26T15:47:52Z</time>
      </trkpt>
      <trkpt lat="43.4787" lon="6.57856">
        <ele>98</ele>
        <time>2025-02-26T15:47:53Z</time>
      </trkpt>
      <trkpt lat="43.4787" lon="6.57856">
        <ele>98</ele>
        <time>2025-02-26T15:47:54Z</time>
      </trkpt>
      <trkpt lat="43.4787" lon="6.57856">
        <ele>97.9</ele>
        <time>2025-02-26T15:47:55Z</time>
      </trkpt>
      <trkpt lat="43.4787" lon="6.57855">
        <ele>97.9</ele>
        <time>2025-02-26T15:47:56Z</time>
      </trkpt>
      <trkpt lat="43.4787" lon="6.57856">
        <ele>97.8</ele>
        <time>2025-02-26T15:47:57Z</time>
      </trkpt>
      <trkpt lat="43.4787" lon="6.57856">
        <ele>97.8</ele>
        <time>2025-02-26T15:47:58Z</time>
      </trkpt>
      <trkpt lat="43.4787" lon="6.57856">
        <ele>97.8</ele>
        <time>2025-02-26T15:47:59Z</time>
      </trkpt>
      <trkpt lat="43.4787" lon="6.57856">
        <ele>97.8</ele>
        <time>2025-02-26T15:48:00Z</time>
      </trkpt>
      <trkpt lat="43.4787" lon="6.57856">
        <ele>97.7</ele>
        <time>2025-02-26T15:48:01Z</time>
      </trkpt>
      <trkpt lat="43.4787" lon="6.57856">
        <ele>97.7</ele>
        <time>2025-02-26T15:48:02Z</time>
      </trkpt>
      <trkpt lat="43.4787" lon="6.57856">
        <ele>97.9</ele>
        <time>2025-02-26T15:48:03Z</time>
      </trkpt>
      <trkpt lat="43.4787" lon="6.57856">
        <ele>98</ele>
        <time>2025-02-26T15:48:04Z</time>
      </trkpt>
      <trkpt lat="43.4787" lon="6.57856">
        <ele>98.1</ele>
        <time>2025-02-26T15:48:05Z</time>
      </trkpt>
      <trkpt lat="43.4787" lon="6.57856">
        <ele>98.1</ele>
        <time>2025-02-26T15:48:06Z</time>
      </trkpt>
      <trkpt lat="43.4787" lon="6.57856">
        <ele>98.1</ele>
        <time>2025-02-26T15:48:07Z</time>
      </trkpt>
      <trkpt lat="43.4787" lon="6.57857">
        <ele>98.1</ele>
        <time>2025-02-26T15:48:08Z</time>
      </trkpt>
      <trkpt lat="43.4787" lon="6.57857">
        <ele>98.1</ele>
        <time>2025-02-26T15:48:09Z</time>
      </trkpt>
      <trkpt lat="43.4787" lon="6.57857">
        <ele>98.1</ele>
        <time>2025-02-26T15:48:10Z</time>
      </trkpt>
      <trkpt lat="43.4787" lon="6.57857">
        <ele>98.1</ele>
        <time>2025-02-26T15:48:11Z</time>
      </trkpt>
      <trkpt lat="43.4787" lon="6.57857">
        <ele>98.1</ele>
        <time>2025-02-26T15:48:12Z</time>
      </trkpt>
      <trkpt lat="43.4787" lon="6.57857">
        <ele>98.1</ele>
        <time>2025-02-26T15:48:13Z</time>
      </trkpt>
      <trkpt lat="43.4787" lon="6.57857">
        <ele>98.1</ele>
        <time>2025-02-26T15:48:14Z</time>
      </trkpt>
      <trkpt lat="43.4787" lon="6.57857">
        <ele>98.1</ele>
        <time>2025-02-26T15:48:15Z</time>
      </trkpt>
      <trkpt lat="43.47871" lon="6.57856">
        <ele>98.1</ele>
        <time>2025-02-26T15:48:16Z</time>
      </trkpt>
      <trkpt lat="43.47871" lon="6.57856">
        <ele>98</ele>
        <time>2025-02-26T15:48:17Z</time>
      </trkpt>
      <trkpt lat="43.47872" lon="6.57856">
        <ele>98</ele>
        <time>2025-02-26T15:48:18Z</time>
      </trkpt>
      <trkpt lat="43.47872" lon="6.57856">
        <ele>97.9</ele>
        <time>2025-02-26T15:48:19Z</time>
      </trkpt>
      <trkpt lat="43.47873" lon="6.57857">
        <ele>97.9</ele>
        <time>2025-02-26T15:48:20Z</time>
      </trkpt>
      <trkpt lat="43.47874" lon="6.57857">
        <ele>97.9</ele>
        <time>2025-02-26T15:48:21Z</time>
      </trkpt>
      <trkpt lat="43.47876" lon="6.57857">
        <ele>97.8</ele>
        <time>2025-02-26T15:48:22Z</time>
      </trkpt>
      <trkpt lat="43.47876" lon="6.57856">
        <ele>97.7</ele>
        <time>2025-02-26T15:48:23Z</time>
      </trkpt>
      <trkpt lat="43.47877" lon="6.57856">
        <ele>97.6</ele>
        <time>2025-02-26T15:48:24Z</time>
      </trkpt>
      <trkpt lat="43.47878" lon="6.57856">
        <ele>97.5</ele>
        <time>2025-02-26T15:48:25Z</time>
      </trkpt>
      <trkpt lat="43.4788" lon="6.57855">
        <ele>97.5</ele>
        <time>2025-02-26T15:48:26Z</time>
      </trkpt>
      <trkpt lat="43.47881" lon="6.57855">
        <ele>97.6</ele>
        <time>2025-02-26T15:48:27Z</time>
      </trkpt>
      <trkpt lat="43.47882" lon="6.57855">
        <ele>97.4</ele>
        <time>2025-02-26T15:48:28Z</time>
      </trkpt>
      <trkpt lat="43.47883" lon="6.57853">
        <ele>97.2</ele>
        <time>2025-02-26T15:48:29Z</time>
      </trkpt>
      <trkpt lat="43.47883" lon="6.57853">
        <ele>97.2</ele>
        <time>2025-02-26T15:48:30Z</time>
      </trkpt>
      <trkpt lat="43.47883" lon="6.57852">
        <ele>97.2</ele>
        <time>2025-02-26T15:48:31Z</time>
      </trkpt>
      <trkpt lat="43.47884" lon="6.57851">
        <ele>97</ele>
        <time>2025-02-26T15:48:32Z</time>
      </trkpt>
      <trkpt lat="43.47885" lon="6.57851">
        <ele>96.9</ele>
        <time>2025-02-26T15:48:33Z</time>
      </trkpt>
      <trkpt lat="43.47885" lon="6.5785">
        <ele>97</ele>
        <time>2025-02-26T15:48:34Z</time>
      </trkpt>
      <trkpt lat="43.47886" lon="6.57849">
        <ele>97</ele>
        <time>2025-02-26T15:48:35Z</time>
      </trkpt>
      <trkpt lat="43.47886" lon="6.57848">
        <ele>96.8</ele>
        <time>2025-02-26T15:48:36Z</time>
      </trkpt>
      <trkpt lat="43.47887" lon="6.57847">
        <ele>96.6</ele>
        <time>2025-02-26T15:48:37Z</time>
      </trkpt>
      <trkpt lat="43.47888" lon="6.57846">
        <ele>96.4</ele>
        <time>2025-02-26T15:48:38Z</time>
      </trkpt>
      <trkpt lat="43.47889" lon="6.57846">
        <ele>96.2</ele>
        <time>2025-02-26T15:48:39Z</time>
      </trkpt>
      <trkpt lat="43.4789" lon="6.57845">
        <ele>96</ele>
        <time>2025-02-26T15:48:40Z</time>
      </trkpt>
      <trkpt lat="43.47891" lon="6.57844">
        <ele>95.9</ele>
        <time>2025-02-26T15:48:41Z</time>
      </trkpt>
      <trkpt lat="43.47891" lon="6.57843">
        <ele>95.7</ele>
        <time>2025-02-26T15:48:42Z</time>
      </trkpt>
      <trkpt lat="43.47892" lon="6.57842">
        <ele>95.5</ele>
        <time>2025-02-26T15:48:43Z</time>
      </trkpt>
      <trkpt lat="43.47893" lon="6.57841">
        <ele>95.4</ele>
        <time>2025-02-26T15:48:44Z</time>
      </trkpt>
      <trkpt lat="43.47894" lon="6.57841">
        <ele>95.2</ele>
        <time>2025-02-26T15:48:45Z</time>
      </trkpt>
      <trkpt lat="43.47895" lon="6.5784">
        <ele>95.1</ele>
        <time>2025-02-26T15:48:46Z</time>
      </trkpt>
      <trkpt lat="43.47896" lon="6.57839">
        <ele>94.9</ele>
        <time>2025-02-26T15:48:47Z</time>
      </trkpt>
      <trkpt lat="43.47897" lon="6.57838">
        <ele>94.7</ele>
        <time>2025-02-26T15:48:48Z</time>
      </trkpt>
      <trkpt lat="43.47899" lon="6.57837">
        <ele>94.6</ele>
        <time>2025-02-26T15:48:49Z</time>
      </trkpt>
      <trkpt lat="43.47899" lon="6.57835">
        <ele>94.4</ele>
        <time>2025-02-26T15:48:50Z</time>
      </trkpt>
      <trkpt lat="43.47899" lon="6.57834">
        <ele>94.3</ele>
        <time>2025-02-26T15:48:51Z</time>
      </trkpt>
      <trkpt lat="43.479" lon="6.57832">
        <ele>94.3</ele>
        <time>2025-02-26T15:48:52Z</time>
      </trkpt>
      <trkpt lat="43.47901" lon="6.57831">
        <ele>94.1</ele>
        <time>2025-02-26T15:48:53Z</time>
      </trkpt>
      <trkpt lat="43.47902" lon="6.57829">
        <ele>94.2</ele>
        <time>2025-02-26T15:48:54Z</time>
      </trkpt>
      <trkpt lat="43.47903" lon="6.57828">
        <ele>94.2</ele>
        <time>2025-02-26T15:48:55Z</time>
      </trkpt>
      <trkpt lat="43.47903" lon="6.57826">
        <ele>94.1</ele>
        <time>2025-02-26T15:48:56Z</time>
      </trkpt>
      <trkpt lat="43.47903" lon="6.57824">
        <ele>94</ele>
        <time>2025-02-26T15:48:57Z</time>
      </trkpt>
      <trkpt lat="43.47904" lon="6.57823">
        <ele>93.9</ele>
        <time>2025-02-26T15:48:58Z</time>
      </trkpt>
      <trkpt lat="43.47904" lon="6.57822">
        <ele>93.7</ele>
        <time>2025-02-26T15:48:59Z</time>
      </trkpt>
      <trkpt lat="43.47905" lon="6.57821">
        <ele>93.6</ele>
        <time>2025-02-26T15:49:00Z</time>
      </trkpt>
      <trkpt lat="43.47906" lon="6.57819">
        <ele>93.5</ele>
        <time>2025-02-26T15:49:01Z</time>
      </trkpt>
      <trkpt lat="43.47906" lon="6.57817">
        <ele>93.5</ele>
        <time>2025-02-26T15:49:02Z</time>
      </trkpt>
      <trkpt lat="43.47907" lon="6.57816">
        <ele>93.5</ele>
        <time>2025-02-26T15:49:03Z</time>
      </trkpt>
      <trkpt lat="43.47907" lon="6.57814">
        <ele>93.4</ele>
        <time>2025-02-26T15:49:04Z</time>
      </trkpt>
      <trkpt lat="43.47907" lon="6.57813">
        <ele>93.4</ele>
        <time>2025-02-26T15:49:05Z</time>
      </trkpt>
      <trkpt lat="43.47907" lon="6.57811">
        <ele>93.3</ele>
        <time>2025-02-26T15:49:06Z</time>
      </trkpt>
      <trkpt lat="43.47908" lon="6.57809">
        <ele>93.4</ele>
        <time>2025-02-26T15:49:07Z</time>
      </trkpt>
      <trkpt lat="43.47908" lon="6.57807">
        <ele>93.4</ele>
        <time>2025-02-26T15:49:08Z</time>
      </trkpt>
      <trkpt lat="43.47909" lon="6.57806">
        <ele>93.3</ele>
        <time>2025-02-26T15:49:09Z</time>
      </trkpt>
      <trkpt lat="43.47911" lon="6.57804">
        <ele>93.2</ele>
        <time>2025-02-26T15:49:10Z</time>
      </trkpt>
      <trkpt lat="43.47911" lon="6.57802">
        <ele>93.2</ele>
        <time>2025-02-26T15:49:11Z</time>
      </trkpt>
      <trkpt lat="43.47912" lon="6.578">
        <ele>93</ele>
        <time>2025-02-26T15:49:12Z</time>
      </trkpt>
      <trkpt lat="43.47913" lon="6.57799">
        <ele>93</ele>
        <time>2025-02-26T15:49:13Z</time>
      </trkpt>
      <trkpt lat="43.47913" lon="6.57797">
        <ele>93</ele>
        <time>2025-02-26T15:49:14Z</time>
      </trkpt>
      <trkpt lat="43.47914" lon="6.57796">
        <ele>92.9</ele>
        <time>2025-02-26T15:49:15Z</time>
      </trkpt>
      <trkpt lat="43.47915" lon="6.57794">
        <ele>92.8</ele>
        <time>2025-02-26T15:49:16Z</time>
      </trkpt>
      <trkpt lat="43.47914" lon="6.57792">
        <ele>92.6</ele>
        <time>2025-02-26T15:49:17Z</time>
      </trkpt>
      <trkpt lat="43.47914" lon="6.5779">
        <ele>92.5</ele>
        <time>2025-02-26T15:49:18Z</time>
      </trkpt>
      <trkpt lat="43.47916" lon="6.57789">
        <ele>92.5</ele>
        <time>2025-02-26T15:49:19Z</time>
      </trkpt>
      <trkpt lat="43.47917" lon="6.57787">
        <ele>92.5</ele>
        <time>2025-02-26T15:49:20Z</time>
      </trkpt>
      <trkpt lat="43.47917" lon="6.57786">
        <ele>92.5</ele>
        <time>2025-02-26T15:49:21Z</time>
      </trkpt>
      <trkpt lat="43.47918" lon="6.57785">
        <ele>92.6</ele>
        <time>2025-02-26T15:49:22Z</time>
      </trkpt>
      <trkpt lat="43.47918" lon="6.57783">
        <ele>92.6</ele>
        <time>2025-02-26T15:49:23Z</time>
      </trkpt>
      <trkpt lat="43.47918" lon="6.57781">
        <ele>92.7</ele>
        <time>2025-02-26T15:49:24Z</time>
      </trkpt>
      <trkpt lat="43.47918" lon="6.5778">
        <ele>92.7</ele>
        <time>2025-02-26T15:49:25Z</time>
      </trkpt>
      <trkpt lat="43.47919" lon="6.57778">
        <ele>92.7</ele>
        <time>2025-02-26T15:49:26Z</time>
      </trkpt>
      <trkpt lat="43.4792" lon="6.57777">
        <ele>92.7</ele>
        <time>2025-02-26T15:49:27Z</time>
      </trkpt>
      <trkpt lat="43.47921" lon="6.57776">
        <ele>92.8</ele>
        <time>2025-02-26T15:49:28Z</time>
      </trkpt>
      <trkpt lat="43.47922" lon="6.57774">
        <ele>92.9</ele>
        <time>2025-02-26T15:49:29Z</time>
      </trkpt>
      <trkpt lat="43.47923" lon="6.57773">
        <ele>92.9</ele>
        <time>2025-02-26T15:49:30Z</time>
      </trkpt>
      <trkpt lat="43.47924" lon="6.57771">
        <ele>92.9</ele>
        <time>2025-02-26T15:49:31Z</time>
      </trkpt>
      <trkpt lat="43.47924" lon="6.5777">
        <ele>92.8</ele>
        <time>2025-02-26T15:49:32Z</time>
      </trkpt>
      <trkpt lat="43.47925" lon="6.57769">
        <ele>92.8</ele>
        <time>2025-02-26T15:49:33Z</time>
      </trkpt>
      <trkpt lat="43.47926" lon="6.57767">
        <ele>92.8</ele>
        <time>2025-02-26T15:49:34Z</time>
      </trkpt>
      <trkpt lat="43.47927" lon="6.57766">
        <ele>92.7</ele>
        <time>2025-02-26T15:49:35Z</time>
      </trkpt>
      <trkpt lat="43.47928" lon="6.57764">
        <ele>92.7</ele>
        <time>2025-02-26T15:49:36Z</time>
      </trkpt>
      <trkpt lat="43.47928" lon="6.57763">
        <ele>92.6</ele>
        <time>2025-02-26T15:49:37Z</time>
      </trkpt>
      <trkpt lat="43.47929" lon="6.57761">
        <ele>92.6</ele>
        <time>2025-02-26T15:49:38Z</time>
      </trkpt>
      <trkpt lat="43.4793" lon="6.5776">
        <ele>92.4</ele>
        <time>2025-02-26T15:49:39Z</time>
      </trkpt>
      <trkpt lat="43.4793" lon="6.57758">
        <ele>92.2</ele>
        <time>2025-02-26T15:49:40Z</time>
      </trkpt>
      <trkpt lat="43.4793" lon="6.57757">
        <ele>92.1</ele>
        <time>2025-02-26T15:49:41Z</time>
      </trkpt>
      <trkpt lat="43.47931" lon="6.57755">
        <ele>92</ele>
        <time>2025-02-26T15:49:42Z</time>
      </trkpt>
      <trkpt lat="43.4793" lon="6.57754">
        <ele>91.9</ele>
        <time>2025-02-26T15:49:43Z</time>
      </trkpt>
      <trkpt lat="43.4793" lon="6.57754">
        <ele>91.8</ele>
        <time>2025-02-26T15:49:44Z</time>
      </trkpt>
      <trkpt lat="43.4793" lon="6.57753">
        <ele>91.7</ele>
        <time>2025-02-26T15:49:45Z</time>
      </trkpt>
      <trkpt lat="43.4793" lon="6.57753">
        <ele>91.5</ele>
        <time>2025-02-26T15:49:46Z</time>
      </trkpt>
      <trkpt lat="43.4793" lon="6.57753">
        <ele>91.4</ele>
        <time>2025-02-26T15:49:47Z</time>
      </trkpt>
      <trkpt lat="43.47929" lon="6.57752">
        <ele>91.4</ele>
        <time>2025-02-26T15:49:48Z</time>
      </trkpt>
      <trkpt lat="43.47929" lon="6.57752">
        <ele>91.4</ele>
        <time>2025-02-26T15:49:49Z</time>
      </trkpt>
      <trkpt lat="43.47929" lon="6.57752">
        <ele>91.4</ele>
        <time>2025-02-26T15:49:50Z</time>
      </trkpt>
      <trkpt lat="43.47928" lon="6.57751">
        <ele>91.4</ele>
        <time>2025-02-26T15:49:51Z</time>
      </trkpt>
      <trkpt lat="43.47928" lon="6.57751">
        <ele>91.4</ele>
        <time>2025-02-26T15:49:52Z</time>
      </trkpt>
      <trkpt lat="43.47928" lon="6.57751">
        <ele>91.4</ele>
        <time>2025-02-26T15:49:53Z</time>
      </trkpt>
      <trkpt lat="43.47927" lon="6.57751">
        <ele>91.5</ele>
        <time>2025-02-26T15:49:54Z</time>
      </trkpt>
      <trkpt lat="43.47927" lon="6.57751">
        <ele>91.5</ele>
        <time>2025-02-26T15:49:55Z</time>
      </trkpt>
      <trkpt lat="43.47927" lon="6.5775">
        <ele>91.6</ele>
        <time>2025-02-26T15:49:56Z</time>
      </trkpt>
      <trkpt lat="43.47927" lon="6.5775">
        <ele>91.6</ele>
        <time>2025-02-26T15:49:57Z</time>
      </trkpt>
      <trkpt lat="43.47927" lon="6.5775">
        <ele>91.7</ele>
        <time>2025-02-26T15:49:58Z</time>
      </trkpt>
      <trkpt lat="43.47927" lon="6.5775">
        <ele>91.7</ele>
        <time>2025-02-26T15:49:59Z</time>
      </trkpt>
      <trkpt lat="43.47928" lon="6.5775">
        <ele>91.6</ele>
        <time>2025-02-26T15:50:00Z</time>
      </trkpt>
      <trkpt lat="43.47928" lon="6.5775">
        <ele>91.6</ele>
        <time>2025-02-26T15:50:01Z</time>
      </trkpt>
      <trkpt lat="43.47928" lon="6.57749">
        <ele>91.6</ele>
        <time>2025-02-26T15:50:02Z</time>
      </trkpt>
      <trkpt lat="43.47928" lon="6.57749">
        <ele>91.6</ele>
        <time>2025-02-26T15:50:03Z</time>
      </trkpt>
      <trkpt lat="43.47928" lon="6.57749">
        <ele>91.7</ele>
        <time>2025-02-26T15:50:04Z</time>
      </trkpt>
      <trkpt lat="43.47928" lon="6.57749">
        <ele>91.7</ele>
        <time>2025-02-26T15:50:05Z</time>
      </trkpt>
      <trkpt lat="43.47928" lon="6.57749">
        <ele>91.8</ele>
        <time>2025-02-26T15:50:06Z</time>
      </trkpt>
      <trkpt lat="43.47928" lon="6.57748">
        <ele>91.8</ele>
        <time>2025-02-26T15:50:07Z</time>
      </trkpt>
      <trkpt lat="43.47928" lon="6.57748">
        <ele>91.8</ele>
        <time>2025-02-26T15:50:08Z</time>
      </trkpt>
      <trkpt lat="43.47928" lon="6.57748">
        <ele>91.8</ele>
        <time>2025-02-26T15:50:09Z</time>
      </trkpt>
      <trkpt lat="43.47928" lon="6.57748">
        <ele>91.7</ele>
        <time>2025-02-26T15:50:10Z</time>
      </trkpt>
      <trkpt lat="43.47928" lon="6.57748">
        <ele>91.7</ele>
        <time>2025-02-26T15:50:11Z</time>
      </trkpt>
      <trkpt lat="43.47928" lon="6.57748">
        <ele>91.6</ele>
        <time>2025-02-26T15:50:12Z</time>
      </trkpt>
      <trkpt lat="43.47928" lon="6.57747">
        <ele>91.5</ele>
        <time>2025-02-26T15:50:13Z</time>
      </trkpt>
      <trkpt lat="43.47928" lon="6.57747">
        <ele>91.4</ele>
        <time>2025-02-26T15:50:14Z</time>
      </trkpt>
      <trkpt lat="43.47928" lon="6.57747">
        <ele>91.4</ele>
        <time>2025-02-26T15:50:15Z</time>
      </trkpt>
      <trkpt lat="43.47928" lon="6.57747">
        <ele>91.4</ele>
        <time>2025-02-26T15:50:16Z</time>
      </trkpt>
      <trkpt lat="43.47928" lon="6.57747">
        <ele>91.4</ele>
        <time>2025-02-26T15:50:17Z</time>
      </trkpt>
      <trkpt lat="43.47928" lon="6.57747">
        <ele>91.3</ele>
        <time>2025-02-26T15:50:18Z</time>
      </trkpt>
      <trkpt lat="43.47928" lon="6.57747">
        <ele>91.3</ele>
        <time>2025-02-26T15:50:19Z</time>
      </trkpt>
      <trkpt lat="43.47928" lon="6.57747">
        <ele>91.4</ele>
        <time>2025-02-26T15:50:20Z</time>
      </trkpt>
      <trkpt lat="43.47928" lon="6.57747">
        <ele>91.4</ele>
        <time>2025-02-26T15:50:21Z</time>
      </trkpt>
      <trkpt lat="43.47928" lon="6.57747">
        <ele>91.4</ele>
        <time>2025-02-26T15:50:22Z</time>
      </trkpt>
      <trkpt lat="43.47927" lon="6.57747">
        <ele>91.4</ele>
        <time>2025-02-26T15:50:23Z</time>
      </trkpt>
      <trkpt lat="43.47927" lon="6.57748">
        <ele>91.6</ele>
        <time>2025-02-26T15:50:24Z</time>
      </trkpt>
      <trkpt lat="43.47926" lon="6.57748">
        <ele>91.5</ele>
        <time>2025-02-26T15:50:25Z</time>
      </trkpt>
      <trkpt lat="43.47926" lon="6.57748">
        <ele>91.4</ele>
        <time>2025-02-26T15:50:26Z</time>
      </trkpt>
      <trkpt lat="43.47925" lon="6.57748">
        <ele>91.4</ele>
        <time>2025-02-26T15:50:27Z</time>
      </trkpt>
      <trkpt lat="43.47924" lon="6.57748">
        <ele>91.3</ele>
        <time>2025-02-26T15:50:28Z</time>
      </trkpt>
      <trkpt lat="43.47924" lon="6.57749">
        <ele>91</ele>
        <time>2025-02-26T15:50:29Z</time>
      </trkpt>
      <trkpt lat="43.47923" lon="6.5775">
        <ele>91.1</ele>
        <time>2025-02-26T15:50:30Z</time>
      </trkpt>
      <trkpt lat="43.47922" lon="6.5775">
        <ele>91.1</ele>
        <time>2025-02-26T15:50:31Z</time>
      </trkpt>
      <trkpt lat="43.4792" lon="6.57751">
        <ele>90.9</ele>
        <time>2025-02-26T15:50:32Z</time>
      </trkpt>
      <trkpt lat="43.47919" lon="6.57752">
        <ele>90.8</ele>
        <time>2025-02-26T15:50:33Z</time>
      </trkpt>
      <trkpt lat="43.47918" lon="6.57752">
        <ele>90.7</ele>
        <time>2025-02-26T15:50:34Z</time>
      </trkpt>
      <trkpt lat="43.47917" lon="6.57754">
        <ele>90.7</ele>
        <time>2025-02-26T15:50:35Z</time>
      </trkpt>
      <trkpt lat="43.47916" lon="6.57755">
        <ele>90.5</ele>
        <time>2025-02-26T15:50:36Z</time>
      </trkpt>
      <trkpt lat="43.47915" lon="6.57756">
        <ele>90.4</ele>
        <time>2025-02-26T15:50:37Z</time>
      </trkpt>
      <trkpt lat="43.47914" lon="6.57757">
        <ele>90.4</ele>
        <time>2025-02-26T15:50:38Z</time>
      </trkpt>
      <trkpt lat="43.47913" lon="6.57757">
        <ele>90.4</ele>
        <time>2025-02-26T15:50:39Z</time>
      </trkpt>
      <trkpt lat="43.47912" lon="6.57758">
        <ele>90.3</ele>
        <time>2025-02-26T15:50:40Z</time>
      </trkpt>
      <trkpt lat="43.47911" lon="6.57759">
        <ele>90.2</ele>
        <time>2025-02-26T15:50:41Z</time>
      </trkpt>
      <trkpt lat="43.4791" lon="6.5776">
        <ele>90.2</ele>
        <time>2025-02-26T15:50:42Z</time>
      </trkpt>
      <trkpt lat="43.47909" lon="6.57761">
        <ele>90.1</ele>
        <time>2025-02-26T15:50:43Z</time>
      </trkpt>
      <trkpt lat="43.47909" lon="6.57761">
        <ele>90</ele>
        <time>2025-02-26T15:50:44Z</time>
      </trkpt>
      <trkpt lat="43.47908" lon="6.57761">
        <ele>89.8</ele>
        <time>2025-02-26T15:50:45Z</time>
      </trkpt>
      <trkpt lat="43.47907" lon="6.57762">
        <ele>89.7</ele>
        <time>2025-02-26T15:50:46Z</time>
      </trkpt>
      <trkpt lat="43.47905" lon="6.57763">
        <ele>89.5</ele>
        <time>2025-02-26T15:50:47Z</time>
      </trkpt>
      <trkpt lat="43.47904" lon="6.57764">
        <ele>89.4</ele>
        <time>2025-02-26T15:50:48Z</time>
      </trkpt>
      <trkpt lat="43.47904" lon="6.57764">
        <ele>89.3</ele>
        <time>2025-02-26T15:50:49Z</time>
      </trkpt>
      <trkpt lat="43.47903" lon="6.57765">
        <ele>89.3</ele>
        <time>2025-02-26T15:50:50Z</time>
      </trkpt>
      <trkpt lat="43.47902" lon="6.57765">
        <ele>89.1</ele>
        <time>2025-02-26T15:50:51Z</time>
      </trkpt>
      <trkpt lat="43.47901" lon="6.57765">
        <ele>88.9</ele>
        <time>2025-02-26T15:50:52Z</time>
      </trkpt>
      <trkpt lat="43.479" lon="6.57766">
        <ele>88.8</ele>
        <time>2025-02-26T15:50:53Z</time>
      </trkpt>
      <trkpt lat="43.47899" lon="6.57766">
        <ele>88.8</ele>
        <time>2025-02-26T15:50:54Z</time>
      </trkpt>
      <trkpt lat="43.47898" lon="6.57766">
        <ele>88.6</ele>
        <time>2025-02-26T15:50:55Z</time>
      </trkpt>
      <trkpt lat="43.47897" lon="6.57767">
        <ele>88.6</ele>
        <time>2025-02-26T15:50:56Z</time>
      </trkpt>
      <trkpt lat="43.47896" lon="6.57766">
        <ele>88.6</ele>
        <time>2025-02-26T15:50:57Z</time>
      </trkpt>
      <trkpt lat="43.47896" lon="6.57766">
        <ele>88.5</ele>
        <time>2025-02-26T15:50:58Z</time>
      </trkpt>
      <trkpt lat="43.47895" lon="6.57766">
        <ele>88.3</ele>
        <time>2025-02-26T15:50:59Z</time>
      </trkpt>
      <trkpt lat="43.47895" lon="6.57766">
        <ele>88.2</ele>
        <time>2025-02-26T15:51:00Z</time>
      </trkpt>
      <trkpt lat="43.47894" lon="6.57766">
        <ele>88.1</ele>
        <time>2025-02-26T15:51:01Z</time>
      </trkpt>
      <trkpt lat="43.47894" lon="6.57765">
        <ele>88.1</ele>
        <time>2025-02-26T15:51:02Z</time>
      </trkpt>
      <trkpt lat="43.47893" lon="6.57763">
        <ele>88</ele>
        <time>2025-02-26T15:51:03Z</time>
      </trkpt>
      <trkpt lat="43.47892" lon="6.57762">
        <ele>87.9</ele>
        <time>2025-02-26T15:51:04Z</time>
      </trkpt>
      <trkpt lat="43.47892" lon="6.57762">
        <ele>87.9</ele>
        <time>2025-02-26T15:51:05Z</time>
      </trkpt>
      <trkpt lat="43.47891" lon="6.57761">
        <ele>87.9</ele>
        <time>2025-02-26T15:51:06Z</time>
      </trkpt>
      <trkpt lat="43.4789" lon="6.57761">
        <ele>87.8</ele>
        <time>2025-02-26T15:51:07Z</time>
      </trkpt>
      <trkpt lat="43.4789" lon="6.57759">
        <ele>87.7</ele>
        <time>2025-02-26T15:51:08Z</time>
      </trkpt>
      <trkpt lat="43.47889" lon="6.57758">
        <ele>87.8</ele>
        <time>2025-02-26T15:51:09Z</time>
      </trkpt>
      <trkpt lat="43.47888" lon="6.57757">
        <ele>87.8</ele>
        <time>2025-02-26T15:51:10Z</time>
      </trkpt>
      <trkpt lat="43.47888" lon="6.57755">
        <ele>87.8</ele>
        <time>2025-02-26T15:51:11Z</time>
      </trkpt>
      <trkpt lat="43.47887" lon="6.57755">
        <ele>87.9</ele>
        <time>2025-02-26T15:51:12Z</time>
      </trkpt>
      <trkpt lat="43.47886" lon="6.57754">
        <ele>87.7</ele>
        <time>2025-02-26T15:51:13Z</time>
      </trkpt>
      <trkpt lat="43.47886" lon="6.57752">
        <ele>87.6</ele>
        <time>2025-02-26T15:51:14Z</time>
      </trkpt>
      <trkpt lat="43.47885" lon="6.57751">
        <ele>87.5</ele>
        <time>2025-02-26T15:51:15Z</time>
      </trkpt>
      <trkpt lat="43.47885" lon="6.5775">
        <ele>87.5</ele>
        <time>2025-02-26T15:51:16Z</time>
      </trkpt>
      <trkpt lat="43.47884" lon="6.57749">
        <ele>87.5</ele>
        <time>2025-02-26T15:51:17Z</time>
      </trkpt>
      <trkpt lat="43.47883" lon="6.57749">
        <ele>87.5</ele>
        <time>2025-02-26T15:51:18Z</time>
      </trkpt>
      <trkpt lat="43.47882" lon="6.57748">
        <ele>87.3</ele>
        <time>2025-02-26T15:51:19Z</time>
      </trkpt>
      <trkpt lat="43.47882" lon="6.57747">
        <ele>87.2</ele>
        <time>2025-02-26T15:51:20Z</time>
      </trkpt>
      <trkpt lat="43.47881" lon="6.57746">
        <ele>87.1</ele>
        <time>2025-02-26T15:51:21Z</time>
      </trkpt>
      <trkpt lat="43.4788" lon="6.57745">
        <ele>87</ele>
        <time>2025-02-26T15:51:22Z</time>
      </trkpt>
      <trkpt lat="43.47879" lon="6.57744">
        <ele>87</ele>
        <time>2025-02-26T15:51:23Z</time>
      </trkpt>
      <trkpt lat="43.47878" lon="6.57743">
        <ele>86.9</ele>
        <time>2025-02-26T15:51:24Z</time>
      </trkpt>
      <trkpt lat="43.47877" lon="6.57742">
        <ele>86.9</ele>
        <time>2025-02-26T15:51:25Z</time>
      </trkpt>
      <trkpt lat="43.47876" lon="6.57741">
        <ele>87</ele>
        <time>2025-02-26T15:51:26Z</time>
      </trkpt>
      <trkpt lat="43.47874" lon="6.5774">
        <ele>87.1</ele>
        <time>2025-02-26T15:51:27Z</time>
      </trkpt>
      <trkpt lat="43.47873" lon="6.57739">
        <ele>87.3</ele>
        <time>2025-02-26T15:51:28Z</time>
      </trkpt>
      <trkpt lat="43.47872" lon="6.57738">
        <ele>87.3</ele>
        <time>2025-02-26T15:51:29Z</time>
      </trkpt>
      <trkpt lat="43.47871" lon="6.57737">
        <ele>87.1</ele>
        <time>2025-02-26T15:51:30Z</time>
      </trkpt>
      <trkpt lat="43.4787" lon="6.57735">
        <ele>86.9</ele>
        <time>2025-02-26T15:51:31Z</time>
      </trkpt>
      <trkpt lat="43.47869" lon="6.57734">
        <ele>86.8</ele>
        <time>2025-02-26T15:51:32Z</time>
      </trkpt>
      <trkpt lat="43.47868" lon="6.57734">
        <ele>86.7</ele>
        <time>2025-02-26T15:51:33Z</time>
      </trkpt>
      <trkpt lat="43.47867" lon="6.57733">
        <ele>86.5</ele>
        <time>2025-02-26T15:51:34Z</time>
      </trkpt>
      <trkpt lat="43.47866" lon="6.57733">
        <ele>86.3</ele>
        <time>2025-02-26T15:51:35Z</time>
      </trkpt>
      <trkpt lat="43.47865" lon="6.57732">
        <ele>86.3</ele>
        <time>2025-02-26T15:51:36Z</time>
      </trkpt>
      <trkpt lat="43.47864" lon="6.57732">
        <ele>86.2</ele>
        <time>2025-02-26T15:51:37Z</time>
      </trkpt>
      <trkpt lat="43.47863" lon="6.57732">
        <ele>86.2</ele>
        <time>2025-02-26T15:51:38Z</time>
      </trkpt>
      <trkpt lat="43.47862" lon="6.57731">
        <ele>86.2</ele>
        <time>2025-02-26T15:51:39Z</time>
      </trkpt>
      <trkpt lat="43.47861" lon="6.57731">
        <ele>86.1</ele>
        <time>2025-02-26T15:51:40Z</time>
      </trkpt>
      <trkpt lat="43.4786" lon="6.57731">
        <ele>86</ele>
        <time>2025-02-26T15:51:41Z</time>
      </trkpt>
      <trkpt lat="43.47859" lon="6.5773">
        <ele>85.9</ele>
        <time>2025-02-26T15:51:42Z</time>
      </trkpt>
      <trkpt lat="43.47858" lon="6.5773">
        <ele>85.7</ele>
        <time>2025-02-26T15:51:43Z</time>
      </trkpt>
      <trkpt lat="43.47856" lon="6.5773">
        <ele>85.5</ele>
        <time>2025-02-26T15:51:44Z</time>
      </trkpt>
      <trkpt lat="43.47855" lon="6.57728">
        <ele>85.5</ele>
        <time>2025-02-26T15:51:45Z</time>
      </trkpt>
      <trkpt lat="43.47854" lon="6.57728">
        <ele>85.3</ele>
        <time>2025-02-26T15:51:46Z</time>
      </trkpt>
      <trkpt lat="43.47853" lon="6.57728">
        <ele>85.2</ele>
        <time>2025-02-26T15:51:47Z</time>
      </trkpt>
      <trkpt lat="43.47851" lon="6.57727">
        <ele>85.2</ele>
        <time>2025-02-26T15:51:48Z</time>
      </trkpt>
      <trkpt lat="43.4785" lon="6.57727">
        <ele>85.3</ele>
        <time>2025-02-26T15:51:49Z</time>
      </trkpt>
      <trkpt lat="43.47849" lon="6.57727">
        <ele>85.4</ele>
        <time>2025-02-26T15:51:50Z</time>
      </trkpt>
      <trkpt lat="43.47848" lon="6.57726">
        <ele>85.4</ele>
        <time>2025-02-26T15:51:51Z</time>
      </trkpt>
      <trkpt lat="43.47847" lon="6.57725">
        <ele>85.2</ele>
        <time>2025-02-26T15:51:52Z</time>
      </trkpt>
      <trkpt lat="43.47845" lon="6.57725">
        <ele>85.1</ele>
        <time>2025-02-26T15:51:53Z</time>
      </trkpt>
      <trkpt lat="43.47844" lon="6.57725">
        <ele>85.1</ele>
        <time>2025-02-26T15:51:54Z</time>
      </trkpt>
      <trkpt lat="43.47843" lon="6.57724">
        <ele>85.1</ele>
        <time>2025-02-26T15:51:55Z</time>
      </trkpt>
      <trkpt lat="43.47842" lon="6.57724">
        <ele>85</ele>
        <time>2025-02-26T15:51:56Z</time>
      </trkpt>
      <trkpt lat="43.47841" lon="6.57723">
        <ele>84.9</ele>
        <time>2025-02-26T15:51:57Z</time>
      </trkpt>
      <trkpt lat="43.4784" lon="6.57723">
        <ele>84.9</ele>
        <time>2025-02-26T15:51:58Z</time>
      </trkpt>
      <trkpt lat="43.47838" lon="6.57723">
        <ele>84.9</ele>
        <time>2025-02-26T15:51:59Z</time>
      </trkpt>
      <trkpt lat="43.47837" lon="6.57723">
        <ele>84.9</ele>
        <time>2025-02-26T15:52:00Z</time>
      </trkpt>
      <trkpt lat="43.47836" lon="6.57722">
        <ele>84.9</ele>
        <time>2025-02-26T15:52:01Z</time>
      </trkpt>
      <trkpt lat="43.47834" lon="6.57721">
        <ele>84.9</ele>
        <time>2025-02-26T15:52:02Z</time>
      </trkpt>
      <trkpt lat="43.47833" lon="6.57721">
        <ele>84.9</ele>
        <time>2025-02-26T15:52:03Z</time>
      </trkpt>
      <trkpt lat="43.47832" lon="6.57721">
        <ele>84.9</ele>
        <time>2025-02-26T15:52:04Z</time>
      </trkpt>
      <trkpt lat="43.47831" lon="6.57721">
        <ele>84.8</ele>
        <time>2025-02-26T15:52:05Z</time>
      </trkpt>
      <trkpt lat="43.4783" lon="6.5772">
        <ele>84.7</ele>
        <time>2025-02-26T15:52:06Z</time>
      </trkpt>
      <trkpt lat="43.47829" lon="6.57719">
        <ele>84.6</ele>
        <time>2025-02-26T15:52:07Z</time>
      </trkpt>
      <trkpt lat="43.47827" lon="6.57719">
        <ele>84.7</ele>
        <time>2025-02-26T15:52:08Z</time>
      </trkpt>
      <trkpt lat="43.47826" lon="6.5772">
        <ele>84.6</ele>
        <time>2025-02-26T15:52:09Z</time>
      </trkpt>
      <trkpt lat="43.47825" lon="6.57719">
        <ele>84.6</ele>
        <time>2025-02-26T15:52:10Z</time>
      </trkpt>
      <trkpt lat="43.47824" lon="6.57719">
        <ele>84.5</ele>
        <time>2025-02-26T15:52:11Z</time>
      </trkpt>
      <trkpt lat="43.47822" lon="6.57719">
        <ele>84.4</ele>
        <time>2025-02-26T15:52:12Z</time>
      </trkpt>
      <trkpt lat="43.47821" lon="6.57719">
        <ele>84.5</ele>
        <time>2025-02-26T15:52:13Z</time>
      </trkpt>
      <trkpt lat="43.4782" lon="6.57719">
        <ele>84.4</ele>
        <time>2025-02-26T15:52:14Z</time>
      </trkpt>
      <trkpt lat="43.47819" lon="6.5772">
        <ele>84.4</ele>
        <time>2025-02-26T15:52:15Z</time>
      </trkpt>
      <trkpt lat="43.47818" lon="6.57719">
        <ele>84.4</ele>
        <time>2025-02-26T15:52:16Z</time>
      </trkpt>
      <trkpt lat="43.47817" lon="6.57719">
        <ele>84.4</ele>
        <time>2025-02-26T15:52:17Z</time>
      </trkpt>
      <trkpt lat="43.47816" lon="6.57719">
        <ele>84.4</ele>
        <time>2025-02-26T15:52:18Z</time>
      </trkpt>
      <trkpt lat="43.47815" lon="6.57719">
        <ele>84.2</ele>
        <time>2025-02-26T15:52:19Z</time>
      </trkpt>
      <trkpt lat="43.47813" lon="6.57718">
        <ele>84.2</ele>
        <time>2025-02-26T15:52:20Z</time>
      </trkpt>
      <trkpt lat="43.47812" lon="6.57717">
        <ele>84</ele>
        <time>2025-02-26T15:52:21Z</time>
      </trkpt>
      <trkpt lat="43.47811" lon="6.57716">
        <ele>84</ele>
        <time>2025-02-26T15:52:22Z</time>
      </trkpt>
      <trkpt lat="43.4781" lon="6.57716">
        <ele>83.9</ele>
        <time>2025-02-26T15:52:23Z</time>
      </trkpt>
      <trkpt lat="43.47809" lon="6.57714">
        <ele>83.9</ele>
        <time>2025-02-26T15:52:24Z</time>
      </trkpt>
      <trkpt lat="43.47807" lon="6.57714">
        <ele>83.9</ele>
        <time>2025-02-26T15:52:25Z</time>
      </trkpt>
      <trkpt lat="43.47806" lon="6.57713">
        <ele>83.8</ele>
        <time>2025-02-26T15:52:26Z</time>
      </trkpt>
      <trkpt lat="43.47805" lon="6.57712">
        <ele>83.7</ele>
        <time>2025-02-26T15:52:27Z</time>
      </trkpt>
      <trkpt lat="43.47805" lon="6.57711">
        <ele>83.7</ele>
        <time>2025-02-26T15:52:28Z</time>
      </trkpt>
      <trkpt lat="43.47804" lon="6.57709">
        <ele>83.7</ele>
        <time>2025-02-26T15:52:29Z</time>
      </trkpt>
      <trkpt lat="43.47803" lon="6.57708">
        <ele>83.6</ele>
        <time>2025-02-26T15:52:30Z</time>
      </trkpt>
      <trkpt lat="43.47802" lon="6.57708">
        <ele>83.4</ele>
        <time>2025-02-26T15:52:31Z</time>
      </trkpt>
      <trkpt lat="43.478" lon="6.57706">
        <ele>83.4</ele>
        <time>2025-02-26T15:52:32Z</time>
      </trkpt>
      <trkpt lat="43.478" lon="6.57705">
        <ele>83.3</ele>
        <time>2025-02-26T15:52:33Z</time>
      </trkpt>
      <trkpt lat="43.47799" lon="6.57704">
        <ele>83.3</ele>
        <time>2025-02-26T15:52:34Z</time>
      </trkpt>
      <trkpt lat="43.47798" lon="6.57703">
        <ele>83.2</ele>
        <time>2025-02-26T15:52:35Z</time>
      </trkpt>
      <trkpt lat="43.47797" lon="6.57703">
        <ele>83.1</ele>
        <time>2025-02-26T15:52:36Z</time>
      </trkpt>
      <trkpt lat="43.47797" lon="6.57702">
        <ele>83</ele>
        <time>2025-02-26T15:52:37Z</time>
      </trkpt>
      <trkpt lat="43.47796" lon="6.57702">
        <ele>82.8</ele>
        <time>2025-02-26T15:52:38Z</time>
      </trkpt>
      <trkpt lat="43.47795" lon="6.57702">
        <ele>82.8</ele>
        <time>2025-02-26T15:52:39Z</time>
      </trkpt>
      <trkpt lat="43.47793" lon="6.57702">
        <ele>82.9</ele>
        <time>2025-02-26T15:52:40Z</time>
      </trkpt>
      <trkpt lat="43.47792" lon="6.57701">
        <ele>82.9</ele>
        <time>2025-02-26T15:52:41Z</time>
      </trkpt>
      <trkpt lat="43.47791" lon="6.577">
        <ele>82.8</ele>
        <time>2025-02-26T15:52:42Z</time>
      </trkpt>
      <trkpt lat="43.4779" lon="6.577">
        <ele>82.6</ele>
        <time>2025-02-26T15:52:43Z</time>
      </trkpt>
      <trkpt lat="43.47789" lon="6.57699">
        <ele>82.7</ele>
        <time>2025-02-26T15:52:44Z</time>
      </trkpt>
      <trkpt lat="43.47788" lon="6.57699">
        <ele>82.8</ele>
        <time>2025-02-26T15:52:45Z</time>
      </trkpt>
      <trkpt lat="43.47787" lon="6.57698">
        <ele>82.8</ele>
        <time>2025-02-26T15:52:46Z</time>
      </trkpt>
      <trkpt lat="43.47785" lon="6.57697">
        <ele>82.8</ele>
        <time>2025-02-26T15:52:47Z</time>
      </trkpt>
      <trkpt lat="43.47784" lon="6.57697">
        <ele>82.8</ele>
        <time>2025-02-26T15:52:48Z</time>
      </trkpt>
      <trkpt lat="43.47783" lon="6.57696">
        <ele>82.6</ele>
        <time>2025-02-26T15:52:49Z</time>
      </trkpt>
      <trkpt lat="43.47782" lon="6.57696">
        <ele>82.4</ele>
        <time>2025-02-26T15:52:50Z</time>
      </trkpt>
      <trkpt lat="43.47781" lon="6.57695">
        <ele>82.3</ele>
        <time>2025-02-26T15:52:51Z</time>
      </trkpt>
      <trkpt lat="43.4778" lon="6.57695">
        <ele>82.2</ele>
        <time>2025-02-26T15:52:52Z</time>
      </trkpt>
      <trkpt lat="43.47779" lon="6.57695">
        <ele>82.1</ele>
        <time>2025-02-26T15:52:53Z</time>
      </trkpt>
      <trkpt lat="43.47777" lon="6.57695">
        <ele>82</ele>
        <time>2025-02-26T15:52:54Z</time>
      </trkpt>
      <trkpt lat="43.47776" lon="6.57694">
        <ele>82.2</ele>
        <time>2025-02-26T15:52:55Z</time>
      </trkpt>
      <trkpt lat="43.47775" lon="6.57694">
        <ele>82.1</ele>
        <time>2025-02-26T15:52:56Z</time>
      </trkpt>
      <trkpt lat="43.47774" lon="6.57693">
        <ele>82.1</ele>
        <time>2025-02-26T15:52:57Z</time>
      </trkpt>
      <trkpt lat="43.47773" lon="6.57693">
        <ele>82.1</ele>
        <time>2025-02-26T15:52:58Z</time>
      </trkpt>
      <trkpt lat="43.47771" lon="6.57692">
        <ele>82.2</ele>
        <time>2025-02-26T15:52:59Z</time>
      </trkpt>
      <trkpt lat="43.4777" lon="6.57692">
        <ele>82.3</ele>
        <time>2025-02-26T15:53:00Z</time>
      </trkpt>
      <trkpt lat="43.47769" lon="6.57692">
        <ele>82.2</ele>
        <time>2025-02-26T15:53:01Z</time>
      </trkpt>
      <trkpt lat="43.47767" lon="6.57692">
        <ele>82.1</ele>
        <time>2025-02-26T15:53:02Z</time>
      </trkpt>
      <trkpt lat="43.47766" lon="6.57692">
        <ele>82.1</ele>
        <time>2025-02-26T15:53:03Z</time>
      </trkpt>
      <trkpt lat="43.47765" lon="6.57692">
        <ele>82.1</ele>
        <time>2025-02-26T15:53:04Z</time>
      </trkpt>
      <trkpt lat="43.47763" lon="6.57691">
        <ele>82.1</ele>
        <time>2025-02-26T15:53:05Z</time>
      </trkpt>
      <trkpt lat="43.47762" lon="6.57691">
        <ele>82.1</ele>
        <time>2025-02-26T15:53:06Z</time>
      </trkpt>
      <trkpt lat="43.4776" lon="6.5769">
        <ele>81.9</ele>
        <time>2025-02-26T15:53:07Z</time>
      </trkpt>
      <trkpt lat="43.47759" lon="6.5769">
        <ele>81.8</ele>
        <time>2025-02-26T15:53:08Z</time>
      </trkpt>
      <trkpt lat="43.47758" lon="6.57689">
        <ele>81.8</ele>
        <time>2025-02-26T15:53:09Z</time>
      </trkpt>
      <trkpt lat="43.47757" lon="6.57688">
        <ele>81.9</ele>
        <time>2025-02-26T15:53:10Z</time>
      </trkpt>
      <trkpt lat="43.47756" lon="6.57688">
        <ele>81.9</ele>
        <time>2025-02-26T15:53:11Z</time>
      </trkpt>
      <trkpt lat="43.47754" lon="6.57687">
        <ele>81.7</ele>
        <time>2025-02-26T15:53:12Z</time>
      </trkpt>
      <trkpt lat="43.47753" lon="6.57687">
        <ele>81.7</ele>
        <time>2025-02-26T15:53:13Z</time>
      </trkpt>
      <trkpt lat="43.47752" lon="6.57686">
        <ele>81.7</ele>
        <time>2025-02-26T15:53:14Z</time>
      </trkpt>
      <trkpt lat="43.47751" lon="6.57685">
        <ele>81.7</ele>
        <time>2025-02-26T15:53:15Z</time>
      </trkpt>
      <trkpt lat="43.4775" lon="6.57684">
        <ele>81.6</ele>
        <time>2025-02-26T15:53:16Z</time>
      </trkpt>
      <trkpt lat="43.4775" lon="6.57684">
        <ele>81.7</ele>
        <time>2025-02-26T15:53:17Z</time>
      </trkpt>
      <trkpt lat="43.4775" lon="6.57684">
        <ele>81.7</ele>
        <time>2025-02-26T15:53:18Z</time>
      </trkpt>
      <trkpt lat="43.4775" lon="6.57684">
        <ele>81.6</ele>
        <time>2025-02-26T15:53:19Z</time>
      </trkpt>
      <trkpt lat="43.4775" lon="6.57684">
        <ele>81.6</ele>
        <time>2025-02-26T15:53:20Z</time>
      </trkpt>
      <trkpt lat="43.4775" lon="6.57684">
        <ele>81.6</ele>
        <time>2025-02-26T15:53:21Z</time>
      </trkpt>
      <trkpt lat="43.4775" lon="6.57684">
        <ele>81.7</ele>
        <time>2025-02-26T15:53:22Z</time>
      </trkpt>
      <trkpt lat="43.4775" lon="6.57684">
        <ele>81.7</ele>
        <time>2025-02-26T15:53:23Z</time>
      </trkpt>
      <trkpt lat="43.4775" lon="6.57684">
        <ele>81.7</ele>
        <time>2025-02-26T15:53:24Z</time>
      </trkpt>
      <trkpt lat="43.4775" lon="6.57684">
        <ele>81.6</ele>
        <time>2025-02-26T15:53:25Z</time>
      </trkpt>
      <trkpt lat="43.4775" lon="6.57684">
        <ele>81.6</ele>
        <time>2025-02-26T15:53:26Z</time>
      </trkpt>
      <trkpt lat="43.47749" lon="6.57684">
        <ele>81.6</ele>
        <time>2025-02-26T15:53:27Z</time>
      </trkpt>
      <trkpt lat="43.47749" lon="6.57684">
        <ele>81.6</ele>
        <time>2025-02-26T15:53:28Z</time>
      </trkpt>
      <trkpt lat="43.47749" lon="6.57683">
        <ele>81.6</ele>
        <time>2025-02-26T15:53:29Z</time>
      </trkpt>
      <trkpt lat="43.47749" lon="6.57683">
        <ele>81.5</ele>
        <time>2025-02-26T15:53:30Z</time>
      </trkpt>
      <trkpt lat="43.47749" lon="6.57683">
        <ele>81.5</ele>
        <time>2025-02-26T15:53:31Z</time>
      </trkpt>
      <trkpt lat="43.47749" lon="6.57684">
        <ele>81.4</ele>
        <time>2025-02-26T15:53:32Z</time>
      </trkpt>
      <trkpt lat="43.47749" lon="6.57684">
        <ele>81.3</ele>
        <time>2025-02-26T15:53:33Z</time>
      </trkpt>
      <trkpt lat="43.47748" lon="6.57684">
        <ele>81.3</ele>
        <time>2025-02-26T15:53:34Z</time>
      </trkpt>
      <trkpt lat="43.47748" lon="6.57684">
        <ele>81.4</ele>
        <time>2025-02-26T15:53:35Z</time>
      </trkpt>
      <trkpt lat="43.47748" lon="6.57684">
        <ele>81.4</ele>
        <time>2025-02-26T15:53:36Z</time>
      </trkpt>
      <trkpt lat="43.47748" lon="6.57684">
        <ele>81.5</ele>
        <time>2025-02-26T15:53:37Z</time>
      </trkpt>
      <trkpt lat="43.47748" lon="6.57683">
        <ele>81.5</ele>
        <time>2025-02-26T15:53:38Z</time>
      </trkpt>
      <trkpt lat="43.47749" lon="6.57683">
        <ele>81.4</ele>
        <time>2025-02-26T15:53:39Z</time>
      </trkpt>
      <trkpt lat="43.47749" lon="6.57684">
        <ele>81.5</ele>
        <time>2025-02-26T15:53:40Z</time>
      </trkpt>
      <trkpt lat="43.47748" lon="6.57684">
        <ele>81.5</ele>
        <time>2025-02-26T15:53:41Z</time>
      </trkpt>
      <trkpt lat="43.47748" lon="6.57684">
        <ele>81.5</ele>
        <time>2025-02-26T15:53:42Z</time>
      </trkpt>
      <trkpt lat="43.47749" lon="6.57684">
        <ele>81.6</ele>
        <time>2025-02-26T15:53:43Z</time>
      </trkpt>
      <trkpt lat="43.47749" lon="6.57684">
        <ele>81.7</ele>
        <time>2025-02-26T15:53:44Z</time>
      </trkpt>
      <trkpt lat="43.47749" lon="6.57684">
        <ele>81.7</ele>
        <time>2025-02-26T15:53:45Z</time>
      </trkpt>
      <trkpt lat="43.47749" lon="6.57684">
        <ele>81.8</ele>
        <time>2025-02-26T15:53:46Z</time>
      </trkpt>
      <trkpt lat="43.47749" lon="6.57684">
        <ele>81.8</ele>
        <time>2025-02-26T15:53:47Z</time>
      </trkpt>
      <trkpt lat="43.47749" lon="6.57684">
        <ele>81.8</ele>
        <time>2025-02-26T15:53:48Z</time>
      </trkpt>
      <trkpt lat="43.47749" lon="6.57684">
        <ele>81.8</ele>
        <time>2025-02-26T15:53:49Z</time>
      </trkpt>
      <trkpt lat="43.47749" lon="6.57684">
        <ele>81.8</ele>
        <time>2025-02-26T15:53:50Z</time>
      </trkpt>
      <trkpt lat="43.47749" lon="6.57684">
        <ele>81.8</ele>
        <time>2025-02-26T15:53:51Z</time>
      </trkpt>
      <trkpt lat="43.47749" lon="6.57684">
        <ele>81.8</ele>
        <time>2025-02-26T15:53:52Z</time>
      </trkpt>
      <trkpt lat="43.47749" lon="6.57683">
        <ele>81.7</ele>
        <time>2025-02-26T15:53:53Z</time>
      </trkpt>
      <trkpt lat="43.47748" lon="6.57683">
        <ele>81.7</ele>
        <time>2025-02-26T15:53:54Z</time>
      </trkpt>
      <trkpt lat="43.47748" lon="6.57683">
        <ele>81.7</ele>
        <time>2025-02-26T15:53:55Z</time>
      </trkpt>
      <trkpt lat="43.47748" lon="6.57683">
        <ele>81.7</ele>
        <time>2025-02-26T15:53:56Z</time>
      </trkpt>
      <trkpt lat="43.47747" lon="6.57683">
        <ele>81.7</ele>
        <time>2025-02-26T15:53:57Z</time>
      </trkpt>
      <trkpt lat="43.47747" lon="6.57683">
        <ele>81.8</ele>
        <time>2025-02-26T15:53:58Z</time>
      </trkpt>
      <trkpt lat="43.47747" lon="6.57683">
        <ele>81.7</ele>
        <time>2025-02-26T15:53:59Z</time>
      </trkpt>
      <trkpt lat="43.47747" lon="6.57683">
        <ele>81.7</ele>
        <time>2025-02-26T15:54:00Z</time>
      </trkpt>
      <trkpt lat="43.47747" lon="6.57683">
        <ele>81.6</ele>
        <time>2025-02-26T15:54:01Z</time>
      </trkpt>
      <trkpt lat="43.47747" lon="6.57683">
        <ele>81.6</ele>
        <time>2025-02-26T15:54:02Z</time>
      </trkpt>
      <trkpt lat="43.47747" lon="6.57683">
        <ele>81.6</ele>
        <time>2025-02-26T15:54:03Z</time>
      </trkpt>
      <trkpt lat="43.47747" lon="6.57683">
        <ele>81.6</ele>
        <time>2025-02-26T15:54:04Z</time>
      </trkpt>
      <trkpt lat="43.47747" lon="6.57683">
        <ele>81.6</ele>
        <time>2025-02-26T15:54:05Z</time>
      </trkpt>
      <trkpt lat="43.47747" lon="6.57683">
        <ele>81.7</ele>
        <time>2025-02-26T15:54:06Z</time>
      </trkpt>
      <trkpt lat="43.47746" lon="6.57683">
        <ele>81.7</ele>
        <time>2025-02-26T15:54:07Z</time>
      </trkpt>
      <trkpt lat="43.47746" lon="6.57683">
        <ele>81.7</ele>
        <time>2025-02-26T15:54:08Z</time>
      </trkpt>
      <trkpt lat="43.47746" lon="6.57683">
        <ele>81.7</ele>
        <time>2025-02-26T15:54:09Z</time>
      </trkpt>
      <trkpt lat="43.47746" lon="6.57683">
        <ele>81.8</ele>
        <time>2025-02-26T15:54:10Z</time>
      </trkpt>
      <trkpt lat="43.47746" lon="6.57683">
        <ele>81.8</ele>
        <time>2025-02-26T15:54:11Z</time>
      </trkpt>
      <trkpt lat="43.47746" lon="6.57683">
        <ele>81.8</ele>
        <time>2025-02-26T15:54:12Z</time>
      </trkpt>
      <trkpt lat="43.47746" lon="6.57683">
        <ele>81.8</ele>
        <time>2025-02-26T15:54:13Z</time>
      </trkpt>
      <trkpt lat="43.47746" lon="6.57683">
        <ele>81.8</ele>
        <time>2025-02-26T15:54:14Z</time>
      </trkpt>
      <trkpt lat="43.47746" lon="6.57683">
        <ele>81.8</ele>
        <time>2025-02-26T15:54:15Z</time>
      </trkpt>
      <trkpt lat="43.47746" lon="6.57682">
        <ele>81.8</ele>
        <time>2025-02-26T15:54:16Z</time>
      </trkpt>
      <trkpt lat="43.47746" lon="6.57682">
        <ele>81.7</ele>
        <time>2025-02-26T15:54:17Z</time>
      </trkpt>
      <trkpt lat="43.47747" lon="6.57681">
        <ele>81.7</ele>
        <time>2025-02-26T15:54:18Z</time>
      </trkpt>
      <trkpt lat="43.47746" lon="6.57681">
        <ele>81.6</ele>
        <time>2025-02-26T15:54:19Z</time>
      </trkpt>
      <trkpt lat="43.47747" lon="6.57681">
        <ele>81.6</ele>
        <time>2025-02-26T15:54:20Z</time>
      </trkpt>
      <trkpt lat="43.47746" lon="6.5768">
        <ele>81.6</ele>
        <time>2025-02-26T15:54:21Z</time>
      </trkpt>
      <trkpt lat="43.47746" lon="6.5768">
        <ele>81.6</ele>
        <time>2025-02-26T15:54:22Z</time>
      </trkpt>
      <trkpt lat="43.47746" lon="6.5768">
        <ele>81.6</ele>
        <time>2025-02-26T15:54:23Z</time>
      </trkpt>
      <trkpt lat="43.47746" lon="6.5768">
        <ele>81.6</ele>
        <time>2025-02-26T15:54:24Z</time>
      </trkpt>
      <trkpt lat="43.47746" lon="6.5768">
        <ele>81.6</ele>
        <time>2025-02-26T15:54:25Z</time>
      </trkpt>
      <trkpt lat="43.47746" lon="6.5768">
        <ele>81.6</ele>
        <time>2025-02-26T15:54:26Z</time>
      </trkpt>
      <trkpt lat="43.47746" lon="6.5768">
        <ele>81.7</ele>
        <time>2025-02-26T15:54:27Z</time>
      </trkpt>
      <trkpt lat="43.47746" lon="6.5768">
        <ele>81.6</ele>
        <time>2025-02-26T15:54:28Z</time>
      </trkpt>
      <trkpt lat="43.47746" lon="6.5768">
        <ele>81.6</ele>
        <time>2025-02-26T15:54:29Z</time>
      </trkpt>
      <trkpt lat="43.47746" lon="6.5768">
        <ele>81.6</ele>
        <time>2025-02-26T15:54:30Z</time>
      </trkpt>
      <trkpt lat="43.47746" lon="6.57679">
        <ele>81.6</ele>
        <time>2025-02-26T15:54:31Z</time>
      </trkpt>
      <trkpt lat="43.47746" lon="6.57679">
        <ele>81.6</ele>
        <time>2025-02-26T15:54:32Z</time>
      </trkpt>
      <trkpt lat="43.47746" lon="6.57679">
        <ele>81.6</ele>
        <time>2025-02-26T15:54:33Z</time>
      </trkpt>
      <trkpt lat="43.47745" lon="6.57679">
        <ele>81.6</ele>
        <time>2025-02-26T15:54:34Z</time>
      </trkpt>
      <trkpt lat="43.47745" lon="6.57679">
        <ele>81.6</ele>
        <time>2025-02-26T15:54:35Z</time>
      </trkpt>
      <trkpt lat="43.47745" lon="6.57679">
        <ele>81.7</ele>
        <time>2025-02-26T15:54:36Z</time>
      </trkpt>
      <trkpt lat="43.47745" lon="6.57679">
        <ele>81.7</ele>
        <time>2025-02-26T15:54:37Z</time>
      </trkpt>
      <trkpt lat="43.47745" lon="6.57679">
        <ele>81.7</ele>
        <time>2025-02-26T15:54:38Z</time>
      </trkpt>
      <trkpt lat="43.47745" lon="6.57679">
        <ele>81.7</ele>
        <time>2025-02-26T15:54:39Z</time>
      </trkpt>
      <trkpt lat="43.47745" lon="6.57679">
        <ele>81.7</ele>
        <time>2025-02-26T15:54:40Z</time>
      </trkpt>
      <trkpt lat="43.47745" lon="6.57679">
        <ele>81.7</ele>
        <time>2025-02-26T15:54:41Z</time>
      </trkpt>
      <trkpt lat="43.47744" lon="6.57679">
        <ele>81.6</ele>
        <time>2025-02-26T15:54:42Z</time>
      </trkpt>
      <trkpt lat="43.47744" lon="6.57679">
        <ele>81.4</ele>
        <time>2025-02-26T15:54:43Z</time>
      </trkpt>
      <trkpt lat="43.47744" lon="6.57679">
        <ele>81.5</ele>
        <time>2025-02-26T15:54:44Z</time>
      </trkpt>
      <trkpt lat="43.47744" lon="6.57679">
        <ele>81.5</ele>
        <time>2025-02-26T15:54:45Z</time>
      </trkpt>
      <trkpt lat="43.47744" lon="6.57679">
        <ele>81.4</ele>
        <time>2025-02-26T15:54:46Z</time>
      </trkpt>
      <trkpt lat="43.47744" lon="6.57679">
        <ele>81.4</ele>
        <time>2025-02-26T15:54:47Z</time>
      </trkpt>
      <trkpt lat="43.47744" lon="6.57679">
        <ele>81.4</ele>
        <time>2025-02-26T15:54:48Z</time>
      </trkpt>
      <trkpt lat="43.47744" lon="6.57679">
        <ele>81.4</ele>
        <time>2025-02-26T15:54:49Z</time>
      </trkpt>
      <trkpt lat="43.47744" lon="6.57679">
        <ele>81.4</ele>
        <time>2025-02-26T15:54:50Z</time>
      </trkpt>
      <trkpt lat="43.47744" lon="6.57679">
        <ele>81.5</ele>
        <time>2025-02-26T15:54:51Z</time>
      </trkpt>
      <trkpt lat="43.47744" lon="6.57679">
        <ele>81.5</ele>
        <time>2025-02-26T15:54:52Z</time>
      </trkpt>
      <trkpt lat="43.47744" lon="6.57679">
        <ele>81.5</ele>
        <time>2025-02-26T15:54:53Z</time>
      </trkpt>
      <trkpt lat="43.47744" lon="6.57679">
        <ele>81.5</ele>
        <time>2025-02-26T15:54:54Z</time>
      </trkpt>
      <trkpt lat="43.47744" lon="6.57679">
        <ele>81.5</ele>
        <time>2025-02-26T15:54:55Z</time>
      </trkpt>
      <trkpt lat="43.47744" lon="6.57679">
        <ele>81.4</ele>
        <time>2025-02-26T15:54:56Z</time>
      </trkpt>
      <trkpt lat="43.47744" lon="6.57679">
        <ele>81.3</ele>
        <time>2025-02-26T15:54:57Z</time>
      </trkpt>
      <trkpt lat="43.47744" lon="6.57678">
        <ele>81.3</ele>
        <time>2025-02-26T15:54:58Z</time>
      </trkpt>
      <trkpt lat="43.47745" lon="6.57677">
        <ele>81.4</ele>
        <time>2025-02-26T15:54:59Z</time>
      </trkpt>
      <trkpt lat="43.47745" lon="6.57676">
        <ele>81.4</ele>
        <time>2025-02-26T15:55:00Z</time>
      </trkpt>
      <trkpt lat="43.47745" lon="6.57674">
        <ele>81.4</ele>
        <time>2025-02-26T15:55:01Z</time>
      </trkpt>
      <trkpt lat="43.47746" lon="6.57673">
        <ele>81.3</ele>
        <time>2025-02-26T15:55:02Z</time>
      </trkpt>
      <trkpt lat="43.47746" lon="6.57672">
        <ele>81.3</ele>
        <time>2025-02-26T15:55:03Z</time>
      </trkpt>
      <trkpt lat="43.47746" lon="6.5767">
        <ele>81.3</ele>
        <time>2025-02-26T15:55:04Z</time>
      </trkpt>
      <trkpt lat="43.47747" lon="6.57668">
        <ele>81.2</ele>
        <time>2025-02-26T15:55:05Z</time>
      </trkpt>
      <trkpt lat="43.47748" lon="6.57667">
        <ele>81.2</ele>
        <time>2025-02-26T15:55:06Z</time>
      </trkpt>
      <trkpt lat="43.47748" lon="6.57665">
        <ele>81.1</ele>
        <time>2025-02-26T15:55:07Z</time>
      </trkpt>
      <trkpt lat="43.47748" lon="6.57664">
        <ele>81.1</ele>
        <time>2025-02-26T15:55:08Z</time>
      </trkpt>
      <trkpt lat="43.47748" lon="6.57662">
        <ele>80.9</ele>
        <time>2025-02-26T15:55:09Z</time>
      </trkpt>
      <trkpt lat="43.47748" lon="6.57661">
        <ele>80.8</ele>
        <time>2025-02-26T15:55:10Z</time>
      </trkpt>
      <trkpt lat="43.47748" lon="6.57659">
        <ele>80.6</ele>
        <time>2025-02-26T15:55:11Z</time>
      </trkpt>
      <trkpt lat="43.47749" lon="6.57658">
        <ele>80.4</ele>
        <time>2025-02-26T15:55:12Z</time>
      </trkpt>
      <trkpt lat="43.4775" lon="6.57657">
        <ele>80.3</ele>
        <time>2025-02-26T15:55:13Z</time>
      </trkpt>
      <trkpt lat="43.4775" lon="6.57656">
        <ele>80.4</ele>
        <time>2025-02-26T15:55:14Z</time>
      </trkpt>
      <trkpt lat="43.4775" lon="6.57654">
        <ele>80.2</ele>
        <time>2025-02-26T15:55:15Z</time>
      </trkpt>
      <trkpt lat="43.4775" lon="6.57652">
        <ele>80.1</ele>
        <time>2025-02-26T15:55:16Z</time>
      </trkpt>
      <trkpt lat="43.47751" lon="6.57651">
        <ele>80</ele>
        <time>2025-02-26T15:55:17Z</time>
      </trkpt>
      <trkpt lat="43.47751" lon="6.57649">
        <ele>79.9</ele>
        <time>2025-02-26T15:55:18Z</time>
      </trkpt>
      <trkpt lat="43.47751" lon="6.57647">
        <ele>79.7</ele>
        <time>2025-02-26T15:55:19Z</time>
      </trkpt>
      <trkpt lat="43.47752" lon="6.57645">
        <ele>79.5</ele>
        <time>2025-02-26T15:55:20Z</time>
      </trkpt>
      <trkpt lat="43.47752" lon="6.57643">
        <ele>79.2</ele>
        <time>2025-02-26T15:55:21Z</time>
      </trkpt>
      <trkpt lat="43.47752" lon="6.57642">
        <ele>78.9</ele>
        <time>2025-02-26T15:55:22Z</time>
      </trkpt>
      <trkpt lat="43.47753" lon="6.57641">
        <ele>78.6</ele>
        <time>2025-02-26T15:55:23Z</time>
      </trkpt>
      <trkpt lat="43.47753" lon="6.57639">
        <ele>78.4</ele>
        <time>2025-02-26T15:55:24Z</time>
      </trkpt>
      <trkpt lat="43.47754" lon="6.57638">
        <ele>78.2</ele>
        <time>2025-02-26T15:55:25Z</time>
      </trkpt>
      <trkpt lat="43.47754" lon="6.57636">
        <ele>77.9</ele>
        <time>2025-02-26T15:55:26Z</time>
      </trkpt>
      <trkpt lat="43.47755" lon="6.57635">
        <ele>77.7</ele>
        <time>2025-02-26T15:55:27Z</time>
      </trkpt>
      <trkpt lat="43.47755" lon="6.57634">
        <ele>77.5</ele>
        <time>2025-02-26T15:55:28Z</time>
      </trkpt>
      <trkpt lat="43.47755" lon="6.57632">
        <ele>77.3</ele>
        <time>2025-02-26T15:55:29Z</time>
      </trkpt>
      <trkpt lat="43.47755" lon="6.5763">
        <ele>77.4</ele>
        <time>2025-02-26T15:55:30Z</time>
      </trkpt>
      <trkpt lat="43.47755" lon="6.57628">
        <ele>77.2</ele>
        <time>2025-02-26T15:55:31Z</time>
      </trkpt>
      <trkpt lat="43.47756" lon="6.57626">
        <ele>76.9</ele>
        <time>2025-02-26T15:55:32Z</time>
      </trkpt>
      <trkpt lat="43.47756" lon="6.57625">
        <ele>76.7</ele>
        <time>2025-02-26T15:55:33Z</time>
      </trkpt>
      <trkpt lat="43.47756" lon="6.57623">
        <ele>76.7</ele>
        <time>2025-02-26T15:55:34Z</time>
      </trkpt>
      <trkpt lat="43.47756" lon="6.57621">
        <ele>76.6</ele>
        <time>2025-02-26T15:55:35Z</time>
      </trkpt>
      <trkpt lat="43.47757" lon="6.5762">
        <ele>76.6</ele>
        <time>2025-02-26T15:55:36Z</time>
      </trkpt>
      <trkpt lat="43.47757" lon="6.57618">
        <ele>76.5</ele>
        <time>2025-02-26T15:55:37Z</time>
      </trkpt>
      <trkpt lat="43.47757" lon="6.57617">
        <ele>76.5</ele>
        <time>2025-02-26T15:55:38Z</time>
      </trkpt>
      <trkpt lat="43.47757" lon="6.57615">
        <ele>76.3</ele>
        <time>2025-02-26T15:55:39Z</time>
      </trkpt>
      <trkpt lat="43.47757" lon="6.57614">
        <ele>76.1</ele>
        <time>2025-02-26T15:55:40Z</time>
      </trkpt>
      <trkpt lat="43.47758" lon="6.57612">
        <ele>76</ele>
        <time>2025-02-26T15:55:41Z</time>
      </trkpt>
      <trkpt lat="43.47758" lon="6.5761">
        <ele>75.9</ele>
        <time>2025-02-26T15:55:42Z</time>
      </trkpt>
      <trkpt lat="43.47758" lon="6.57609">
        <ele>75.6</ele>
        <time>2025-02-26T15:55:43Z</time>
      </trkpt>
      <trkpt lat="43.47758" lon="6.57608">
        <ele>75.6</ele>
        <time>2025-02-26T15:55:44Z</time>
      </trkpt>
      <trkpt lat="43.47759" lon="6.57606">
        <ele>75.4</ele>
        <time>2025-02-26T15:55:45Z</time>
      </trkpt>
      <trkpt lat="43.47759" lon="6.57604">
        <ele>75.2</ele>
        <time>2025-02-26T15:55:46Z</time>
      </trkpt>
      <trkpt lat="43.47759" lon="6.57603">
        <ele>75.1</ele>
        <time>2025-02-26T15:55:47Z</time>
      </trkpt>
      <trkpt lat="43.4776" lon="6.57601">
        <ele>75</ele>
        <time>2025-02-26T15:55:48Z</time>
      </trkpt>
      <trkpt lat="43.47761" lon="6.576">
        <ele>74.9</ele>
        <time>2025-02-26T15:55:49Z</time>
      </trkpt>
      <trkpt lat="43.47761" lon="6.57598">
        <ele>74.9</ele>
        <time>2025-02-26T15:55:50Z</time>
      </trkpt>
      <trkpt lat="43.47762" lon="6.57597">
        <ele>74.9</ele>
        <time>2025-02-26T15:55:51Z</time>
      </trkpt>
      <trkpt lat="43.47763" lon="6.57595">
        <ele>74.9</ele>
        <time>2025-02-26T15:55:52Z</time>
      </trkpt>
      <trkpt lat="43.47763" lon="6.57594">
        <ele>74.8</ele>
        <time>2025-02-26T15:55:53Z</time>
      </trkpt>
      <trkpt lat="43.47763" lon="6.57592">
        <ele>74.8</ele>
        <time>2025-02-26T15:55:54Z</time>
      </trkpt>
      <trkpt lat="43.47764" lon="6.5759">
        <ele>74.7</ele>
        <time>2025-02-26T15:55:55Z</time>
      </trkpt>
      <trkpt lat="43.47764" lon="6.57589">
        <ele>74.7</ele>
        <time>2025-02-26T15:55:56Z</time>
      </trkpt>
      <trkpt lat="43.47764" lon="6.57587">
        <ele>74.6</ele>
        <time>2025-02-26T15:55:57Z</time>
      </trkpt>
      <trkpt lat="43.47765" lon="6.57585">
        <ele>74.4</ele>
        <time>2025-02-26T15:55:58Z</time>
      </trkpt>
      <trkpt lat="43.47765" lon="6.57584">
        <ele>74.3</ele>
        <time>2025-02-26T15:55:59Z</time>
      </trkpt>
      <trkpt lat="43.47765" lon="6.57582">
        <ele>74</ele>
        <time>2025-02-26T15:56:00Z</time>
      </trkpt>
      <trkpt lat="43.47766" lon="6.57581">
        <ele>73.8</ele>
        <time>2025-02-26T15:56:01Z</time>
      </trkpt>
      <trkpt lat="43.47766" lon="6.57579">
        <ele>73.6</ele>
        <time>2025-02-26T15:56:02Z</time>
      </trkpt>
      <trkpt lat="43.47766" lon="6.57578">
        <ele>73.4</ele>
        <time>2025-02-26T15:56:03Z</time>
      </trkpt>
      <trkpt lat="43.47766" lon="6.57576">
        <ele>73.3</ele>
        <time>2025-02-26T15:56:04Z</time>
      </trkpt>
      <trkpt lat="43.47766" lon="6.57574">
        <ele>73.1</ele>
        <time>2025-02-26T15:56:05Z</time>
      </trkpt>
      <trkpt lat="43.47767" lon="6.57573">
        <ele>72.7</ele>
        <time>2025-02-26T15:56:06Z</time>
      </trkpt>
      <trkpt lat="43.47767" lon="6.57572">
        <ele>72.4</ele>
        <time>2025-02-26T15:56:07Z</time>
      </trkpt>
      <trkpt lat="43.47767" lon="6.5757">
        <ele>72.2</ele>
        <time>2025-02-26T15:56:08Z</time>
      </trkpt>
      <trkpt lat="43.47767" lon="6.57568">
        <ele>72.1</ele>
        <time>2025-02-26T15:56:09Z</time>
      </trkpt>
      <trkpt lat="43.47767" lon="6.57566">
        <ele>72</ele>
        <time>2025-02-26T15:56:10Z</time>
      </trkpt>
      <trkpt lat="43.47767" lon="6.57564">
        <ele>71.9</ele>
        <time>2025-02-26T15:56:11Z</time>
      </trkpt>
      <trkpt lat="43.47767" lon="6.57563">
        <ele>71.7</ele>
        <time>2025-02-26T15:56:12Z</time>
      </trkpt>
      <trkpt lat="43.47768" lon="6.57561">
        <ele>71.6</ele>
        <time>2025-02-26T15:56:13Z</time>
      </trkpt>
      <trkpt lat="43.47768" lon="6.5756">
        <ele>71.5</ele>
        <time>2025-02-26T15:56:14Z</time>
      </trkpt>
      <trkpt lat="43.47768" lon="6.57558">
        <ele>71.5</ele>
        <time>2025-02-26T15:56:15Z</time>
      </trkpt>
      <trkpt lat="43.47769" lon="6.57556">
        <ele>71.5</ele>
        <time>2025-02-26T15:56:16Z</time>
      </trkpt>
      <trkpt lat="43.47769" lon="6.57554">
        <ele>71.4</ele>
        <time>2025-02-26T15:56:17Z</time>
      </trkpt>
      <trkpt lat="43.47769" lon="6.57552">
        <ele>71.3</ele>
        <time>2025-02-26T15:56:18Z</time>
      </trkpt>
      <trkpt lat="43.4777" lon="6.57551">
        <ele>71.1</ele>
        <time>2025-02-26T15:56:19Z</time>
      </trkpt>
      <trkpt lat="43.4777" lon="6.5755">
        <ele>70.7</ele>
        <time>2025-02-26T15:56:20Z</time>
      </trkpt>
      <trkpt lat="43.47771" lon="6.57548">
        <ele>70.6</ele>
        <time>2025-02-26T15:56:21Z</time>
      </trkpt>
      <trkpt lat="43.47771" lon="6.57547">
        <ele>70.4</ele>
        <time>2025-02-26T15:56:22Z</time>
      </trkpt>
      <trkpt lat="43.47771" lon="6.57545">
        <ele>70.3</ele>
        <time>2025-02-26T15:56:23Z</time>
      </trkpt>
      <trkpt lat="43.4777" lon="6.57543">
        <ele>70.4</ele>
        <time>2025-02-26T15:56:24Z</time>
      </trkpt>
      <trkpt lat="43.4777" lon="6.57541">
        <ele>70.4</ele>
        <time>2025-02-26T15:56:25Z</time>
      </trkpt>
      <trkpt lat="43.47771" lon="6.5754">
        <ele>70.4</ele>
        <time>2025-02-26T15:56:26Z</time>
      </trkpt>
      <trkpt lat="43.47771" lon="6.57538">
        <ele>70.1</ele>
        <time>2025-02-26T15:56:27Z</time>
      </trkpt>
      <trkpt lat="43.47771" lon="6.57537">
        <ele>70</ele>
        <time>2025-02-26T15:56:28Z</time>
      </trkpt>
      <trkpt lat="43.47772" lon="6.57535">
        <ele>69.8</ele>
        <time>2025-02-26T15:56:29Z</time>
      </trkpt>
      <trkpt lat="43.47772" lon="6.57533">
        <ele>69.6</ele>
        <time>2025-02-26T15:56:30Z</time>
      </trkpt>
      <trkpt lat="43.47773" lon="6.57531">
        <ele>69.4</ele>
        <time>2025-02-26T15:56:31Z</time>
      </trkpt>
      <trkpt lat="43.47773" lon="6.5753">
        <ele>69</ele>
        <time>2025-02-26T15:56:32Z</time>
      </trkpt>
      <trkpt lat="43.47773" lon="6.57528">
        <ele>68.9</ele>
        <time>2025-02-26T15:56:33Z</time>
      </trkpt>
      <trkpt lat="43.47773" lon="6.57527">
        <ele>68.8</ele>
        <time>2025-02-26T15:56:34Z</time>
      </trkpt>
      <trkpt lat="43.47774" lon="6.57525">
        <ele>68.7</ele>
        <time>2025-02-26T15:56:35Z</time>
      </trkpt>
      <trkpt lat="43.47774" lon="6.57523">
        <ele>68.5</ele>
        <time>2025-02-26T15:56:36Z</time>
      </trkpt>
      <trkpt lat="43.47775" lon="6.57521">
        <ele>68.4</ele>
        <time>2025-02-26T15:56:37Z</time>
      </trkpt>
      <trkpt lat="43.47775" lon="6.5752">
        <ele>68.4</ele>
        <time>2025-02-26T15:56:38Z</time>
      </trkpt>
      <trkpt lat="43.47776" lon="6.57518">
        <ele>68.1</ele>
        <time>2025-02-26T15:56:39Z</time>
      </trkpt>
      <trkpt lat="43.47777" lon="6.57516">
        <ele>67.9</ele>
        <time>2025-02-26T15:56:40Z</time>
      </trkpt>
      <trkpt lat="43.47777" lon="6.57514">
        <ele>67.7</ele>
        <time>2025-02-26T15:56:41Z</time>
      </trkpt>
      <trkpt lat="43.47778" lon="6.57512">
        <ele>67.5</ele>
        <time>2025-02-26T15:56:42Z</time>
      </trkpt>
      <trkpt lat="43.47778" lon="6.57511">
        <ele>67.3</ele>
        <time>2025-02-26T15:56:43Z</time>
      </trkpt>
      <trkpt lat="43.47779" lon="6.5751">
        <ele>67.2</ele>
        <time>2025-02-26T15:56:44Z</time>
      </trkpt>
      <trkpt lat="43.4778" lon="6.57509">
        <ele>67.1</ele>
        <time>2025-02-26T15:56:45Z</time>
      </trkpt>
      <trkpt lat="43.4778" lon="6.57507">
        <ele>67.1</ele>
        <time>2025-02-26T15:56:46Z</time>
      </trkpt>
      <trkpt lat="43.47781" lon="6.57506">
        <ele>66.9</ele>
        <time>2025-02-26T15:56:47Z</time>
      </trkpt>
      <trkpt lat="43.47781" lon="6.57504">
        <ele>67</ele>
        <time>2025-02-26T15:56:48Z</time>
      </trkpt>
      <trkpt lat="43.47782" lon="6.57502">
        <ele>66.9</ele>
        <time>2025-02-26T15:56:49Z</time>
      </trkpt>
      <trkpt lat="43.47782" lon="6.575">
        <ele>66.8</ele>
        <time>2025-02-26T15:56:50Z</time>
      </trkpt>
      <trkpt lat="43.47783" lon="6.57499">
        <ele>66.8</ele>
        <time>2025-02-26T15:56:51Z</time>
      </trkpt>
      <trkpt lat="43.47783" lon="6.57498">
        <ele>66.7</ele>
        <time>2025-02-26T15:56:52Z</time>
      </trkpt>
      <trkpt lat="43.47783" lon="6.57496">
        <ele>66.6</ele>
        <time>2025-02-26T15:56:53Z</time>
      </trkpt>
      <trkpt lat="43.47783" lon="6.57494">
        <ele>66.5</ele>
        <time>2025-02-26T15:56:54Z</time>
      </trkpt>
      <trkpt lat="43.47785" lon="6.57493">
        <ele>66.4</ele>
        <time>2025-02-26T15:56:55Z</time>
      </trkpt>
      <trkpt lat="43.47785" lon="6.57491">
        <ele>66.4</ele>
        <time>2025-02-26T15:56:56Z</time>
      </trkpt>
      <trkpt lat="43.47786" lon="6.57489">
        <ele>66.3</ele>
        <time>2025-02-26T15:56:57Z</time>
      </trkpt>
      <trkpt lat="43.47787" lon="6.57487">
        <ele>66.2</ele>
        <time>2025-02-26T15:56:58Z</time>
      </trkpt>
      <trkpt lat="43.47787" lon="6.57485">
        <ele>66.2</ele>
        <time>2025-02-26T15:56:59Z</time>
      </trkpt>
      <trkpt lat="43.47788" lon="6.57484">
        <ele>65.9</ele>
        <time>2025-02-26T15:57:00Z</time>
      </trkpt>
      <trkpt lat="43.47788" lon="6.57482">
        <ele>65.8</ele>
        <time>2025-02-26T15:57:01Z</time>
      </trkpt>
      <trkpt lat="43.47788" lon="6.57481">
        <ele>65.8</ele>
        <time>2025-02-26T15:57:02Z</time>
      </trkpt>
      <trkpt lat="43.47788" lon="6.57479">
        <ele>65.6</ele>
        <time>2025-02-26T15:57:03Z</time>
      </trkpt>
      <trkpt lat="43.47789" lon="6.57477">
        <ele>65.6</ele>
        <time>2025-02-26T15:57:04Z</time>
      </trkpt>
      <trkpt lat="43.47789" lon="6.57475">
        <ele>65.6</ele>
        <time>2025-02-26T15:57:05Z</time>
      </trkpt>
      <trkpt lat="43.47789" lon="6.57474">
        <ele>65.5</ele>
        <time>2025-02-26T15:57:06Z</time>
      </trkpt>
      <trkpt lat="43.47789" lon="6.57472">
        <ele>65.4</ele>
        <time>2025-02-26T15:57:07Z</time>
      </trkpt>
      <trkpt lat="43.47789" lon="6.5747">
        <ele>65.1</ele>
        <time>2025-02-26T15:57:08Z</time>
      </trkpt>
      <trkpt lat="43.47789" lon="6.57468">
        <ele>65</ele>
        <time>2025-02-26T15:57:09Z</time>
      </trkpt>
      <trkpt lat="43.4779" lon="6.57467">
        <ele>64.9</ele>
        <time>2025-02-26T15:57:10Z</time>
      </trkpt>
      <trkpt lat="43.47791" lon="6.57465">
        <ele>64.8</ele>
        <time>2025-02-26T15:57:11Z</time>
      </trkpt>
      <trkpt lat="43.4779" lon="6.57463">
        <ele>64.7</ele>
        <time>2025-02-26T15:57:12Z</time>
      </trkpt>
      <trkpt lat="43.4779" lon="6.57461">
        <ele>64.5</ele>
        <time>2025-02-26T15:57:13Z</time>
      </trkpt>
      <trkpt lat="43.4779" lon="6.57459">
        <ele>64.3</ele>
        <time>2025-02-26T15:57:14Z</time>
      </trkpt>
      <trkpt lat="43.4779" lon="6.57458">
        <ele>64.2</ele>
        <time>2025-02-26T15:57:15Z</time>
      </trkpt>
      <trkpt lat="43.47791" lon="6.57456">
        <ele>64.2</ele>
        <time>2025-02-26T15:57:16Z</time>
      </trkpt>
      <trkpt lat="43.47791" lon="6.57454">
        <ele>63.8</ele>
        <time>2025-02-26T15:57:17Z</time>
      </trkpt>
      <trkpt lat="43.47791" lon="6.57453">
        <ele>63.6</ele>
        <time>2025-02-26T15:57:18Z</time>
      </trkpt>
      <trkpt lat="43.47792" lon="6.57451">
        <ele>63.4</ele>
        <time>2025-02-26T15:57:19Z</time>
      </trkpt>
      <trkpt lat="43.47792" lon="6.57449">
        <ele>63.3</ele>
        <time>2025-02-26T15:57:20Z</time>
      </trkpt>
      <trkpt lat="43.47792" lon="6.57447">
        <ele>63.1</ele>
        <time>2025-02-26T15:57:21Z</time>
      </trkpt>
      <trkpt lat="43.47793" lon="6.57446">
        <ele>62.8</ele>
        <time>2025-02-26T15:57:22Z</time>
      </trkpt>
      <trkpt lat="43.47793" lon="6.57444">
        <ele>62.5</ele>
        <time>2025-02-26T15:57:23Z</time>
      </trkpt>
      <trkpt lat="43.47793" lon="6.57442">
        <ele>62.3</ele>
        <time>2025-02-26T15:57:24Z</time>
      </trkpt>
      <trkpt lat="43.47793" lon="6.5744">
        <ele>62.3</ele>
        <time>2025-02-26T15:57:25Z</time>
      </trkpt>
      <trkpt lat="43.47793" lon="6.57439">
        <ele>62.2</ele>
        <time>2025-02-26T15:57:26Z</time>
      </trkpt>
      <trkpt lat="43.47792" lon="6.57437">
        <ele>62.2</ele>
        <time>2025-02-26T15:57:27Z</time>
      </trkpt>
      <trkpt lat="43.47792" lon="6.57436">
        <ele>62.1</ele>
        <time>2025-02-26T15:57:28Z</time>
      </trkpt>
      <trkpt lat="43.47792" lon="6.57434">
        <ele>61.9</ele>
        <time>2025-02-26T15:57:29Z</time>
      </trkpt>
      <trkpt lat="43.47793" lon="6.57433">
        <ele>61.8</ele>
        <time>2025-02-26T15:57:30Z</time>
      </trkpt>
      <trkpt lat="43.47792" lon="6.57431">
        <ele>61.6</ele>
        <time>2025-02-26T15:57:31Z</time>
      </trkpt>
      <trkpt lat="43.47792" lon="6.5743">
        <ele>61.4</ele>
        <time>2025-02-26T15:57:32Z</time>
      </trkpt>
      <trkpt lat="43.47793" lon="6.57428">
        <ele>61.3</ele>
        <time>2025-02-26T15:57:33Z</time>
      </trkpt>
      <trkpt lat="43.47793" lon="6.57426">
        <ele>61.3</ele>
        <time>2025-02-26T15:57:34Z</time>
      </trkpt>
      <trkpt lat="43.47793" lon="6.57425">
        <ele>61.2</ele>
        <time>2025-02-26T15:57:35Z</time>
      </trkpt>
      <trkpt lat="43.47793" lon="6.57424">
        <ele>60.9</ele>
        <time>2025-02-26T15:57:36Z</time>
      </trkpt>
      <trkpt lat="43.47793" lon="6.57422">
        <ele>60.7</ele>
        <time>2025-02-26T15:57:37Z</time>
      </trkpt>
      <trkpt lat="43.47793" lon="6.5742">
        <ele>60.5</ele>
        <time>2025-02-26T15:57:38Z</time>
      </trkpt>
      <trkpt lat="43.47793" lon="6.57418">
        <ele>60.3</ele>
        <time>2025-02-26T15:57:39Z</time>
      </trkpt>
      <trkpt lat="43.47793" lon="6.57417">
        <ele>59.9</ele>
        <time>2025-02-26T15:57:40Z</time>
      </trkpt>
      <trkpt lat="43.47793" lon="6.57415">
        <ele>59.7</ele>
        <time>2025-02-26T15:57:41Z</time>
      </trkpt>
      <trkpt lat="43.47794" lon="6.57414">
        <ele>59.4</ele>
        <time>2025-02-26T15:57:42Z</time>
      </trkpt>
      <trkpt lat="43.47794" lon="6.57412">
        <ele>59.1</ele>
        <time>2025-02-26T15:57:43Z</time>
      </trkpt>
      <trkpt lat="43.47795" lon="6.5741">
        <ele>59.1</ele>
        <time>2025-02-26T15:57:44Z</time>
      </trkpt>
      <trkpt lat="43.47795" lon="6.57409">
        <ele>59</ele>
        <time>2025-02-26T15:57:45Z</time>
      </trkpt>
      <trkpt lat="43.47796" lon="6.57407">
        <ele>58.9</ele>
        <time>2025-02-26T15:57:46Z</time>
      </trkpt>
      <trkpt lat="43.47796" lon="6.57405">
        <ele>58.9</ele>
        <time>2025-02-26T15:57:47Z</time>
      </trkpt>
      <trkpt lat="43.47796" lon="6.57403">
        <ele>58.8</ele>
        <time>2025-02-26T15:57:48Z</time>
      </trkpt>
      <trkpt lat="43.47796" lon="6.57401">
        <ele>58.7</ele>
        <time>2025-02-26T15:57:49Z</time>
      </trkpt>
      <trkpt lat="43.47796" lon="6.574">
        <ele>58.6</ele>
        <time>2025-02-26T15:57:50Z</time>
      </trkpt>
      <trkpt lat="43.47796" lon="6.57398">
        <ele>58.4</ele>
        <time>2025-02-26T15:57:51Z</time>
      </trkpt>
      <trkpt lat="43.47795" lon="6.57396">
        <ele>58.2</ele>
        <time>2025-02-26T15:57:52Z</time>
      </trkpt>
      <trkpt lat="43.47795" lon="6.57395">
        <ele>58.1</ele>
        <time>2025-02-26T15:57:53Z</time>
      </trkpt>
      <trkpt lat="43.47795" lon="6.57394">
        <ele>58</ele>
        <time>2025-02-26T15:57:54Z</time>
      </trkpt>
      <trkpt lat="43.47795" lon="6.57393">
        <ele>58</ele>
        <time>2025-02-26T15:57:55Z</time>
      </trkpt>
      <trkpt lat="43.47795" lon="6.57392">
        <ele>57.9</ele>
        <time>2025-02-26T15:57:56Z</time>
      </trkpt>
      <trkpt lat="43.47795" lon="6.57391">
        <ele>57.9</ele>
        <time>2025-02-26T15:57:57Z</time>
      </trkpt>
      <trkpt lat="43.47794" lon="6.5739">
        <ele>58</ele>
        <time>2025-02-26T15:57:58Z</time>
      </trkpt>
      <trkpt lat="43.47794" lon="6.5739">
        <ele>58.1</ele>
        <time>2025-02-26T15:57:59Z</time>
      </trkpt>
      <trkpt lat="43.47794" lon="6.57389">
        <ele>58.1</ele>
        <time>2025-02-26T15:58:00Z</time>
      </trkpt>
      <trkpt lat="43.47794" lon="6.57389">
        <ele>58.1</ele>
        <time>2025-02-26T15:58:01Z</time>
      </trkpt>
      <trkpt lat="43.47794" lon="6.57389">
        <ele>58</ele>
        <time>2025-02-26T15:58:02Z</time>
      </trkpt>
      <trkpt lat="43.47794" lon="6.57388">
        <ele>57.9</ele>
        <time>2025-02-26T15:58:03Z</time>
      </trkpt>
      <trkpt lat="43.47794" lon="6.57388">
        <ele>57.9</ele>
        <time>2025-02-26T15:58:04Z</time>
      </trkpt>
      <trkpt lat="43.47794" lon="6.57388">
        <ele>57.9</ele>
        <time>2025-02-26T15:58:05Z</time>
      </trkpt>
      <trkpt lat="43.47794" lon="6.57388">
        <ele>57.9</ele>
        <time>2025-02-26T15:58:06Z</time>
      </trkpt>
      <trkpt lat="43.47794" lon="6.57388">
        <ele>57.8</ele>
        <time>2025-02-26T15:58:07Z</time>
      </trkpt>
      <trkpt lat="43.47794" lon="6.57388">
        <ele>57.8</ele>
        <time>2025-02-26T15:58:08Z</time>
      </trkpt>
      <trkpt lat="43.47795" lon="6.57388">
        <ele>57.9</ele>
        <time>2025-02-26T15:58:09Z</time>
      </trkpt>
      <trkpt lat="43.47795" lon="6.57388">
        <ele>58</ele>
        <time>2025-02-26T15:58:10Z</time>
      </trkpt>
      <trkpt lat="43.47795" lon="6.57388">
        <ele>58</ele>
        <time>2025-02-26T15:58:11Z</time>
      </trkpt>
      <trkpt lat="43.47795" lon="6.57388">
        <ele>58.1</ele>
        <time>2025-02-26T15:58:12Z</time>
      </trkpt>
      <trkpt lat="43.47795" lon="6.57388">
        <ele>58</ele>
        <time>2025-02-26T15:58:13Z</time>
      </trkpt>
      <trkpt lat="43.47795" lon="6.57388">
        <ele>57.9</ele>
        <time>2025-02-26T15:58:14Z</time>
      </trkpt>
      <trkpt lat="43.47795" lon="6.57388">
        <ele>57.9</ele>
        <time>2025-02-26T15:58:15Z</time>
      </trkpt>
      <trkpt lat="43.47795" lon="6.57388">
        <ele>57.8</ele>
        <time>2025-02-26T15:58:16Z</time>
      </trkpt>
      <trkpt lat="43.47795" lon="6.57388">
        <ele>57.8</ele>
        <time>2025-02-26T15:58:17Z</time>
      </trkpt>
      <trkpt lat="43.47794" lon="6.57387">
        <ele>57.8</ele>
        <time>2025-02-26T15:58:18Z</time>
      </trkpt>
      <trkpt lat="43.47794" lon="6.57387">
        <ele>57.8</ele>
        <time>2025-02-26T15:58:19Z</time>
      </trkpt>
      <trkpt lat="43.47794" lon="6.57387">
        <ele>57.9</ele>
        <time>2025-02-26T15:58:20Z</time>
      </trkpt>
      <trkpt lat="43.47794" lon="6.57387">
        <ele>57.9</ele>
        <time>2025-02-26T15:58:21Z</time>
      </trkpt>
      <trkpt lat="43.47794" lon="6.57387">
        <ele>57.9</ele>
        <time>2025-02-26T15:58:22Z</time>
      </trkpt>
      <trkpt lat="43.47794" lon="6.57386">
        <ele>57.9</ele>
        <time>2025-02-26T15:58:23Z</time>
      </trkpt>
      <trkpt lat="43.47794" lon="6.57386">
        <ele>58</ele>
        <time>2025-02-26T15:58:24Z</time>
      </trkpt>
      <trkpt lat="43.47794" lon="6.57386">
        <ele>57.9</ele>
        <time>2025-02-26T15:58:25Z</time>
      </trkpt>
      <trkpt lat="43.47794" lon="6.57386">
        <ele>57.9</ele>
        <time>2025-02-26T15:58:26Z</time>
      </trkpt>
      <trkpt lat="43.47794" lon="6.57386">
        <ele>57.8</ele>
        <time>2025-02-26T15:58:27Z</time>
      </trkpt>
      <trkpt lat="43.47794" lon="6.57386">
        <ele>57.8</ele>
        <time>2025-02-26T15:58:28Z</time>
      </trkpt>
      <trkpt lat="43.47794" lon="6.57386">
        <ele>57.9</ele>
        <time>2025-02-26T15:58:29Z</time>
      </trkpt>
      <trkpt lat="43.47794" lon="6.57386">
        <ele>57.9</ele>
        <time>2025-02-26T15:58:30Z</time>
      </trkpt>
      <trkpt lat="43.47794" lon="6.57386">
        <ele>57.9</ele>
        <time>2025-02-26T15:58:31Z</time>
      </trkpt>
      <trkpt lat="43.47794" lon="6.57386">
        <ele>58</ele>
        <time>2025-02-26T15:58:32Z</time>
      </trkpt>
      <trkpt lat="43.47794" lon="6.57386">
        <ele>58</ele>
        <time>2025-02-26T15:58:33Z</time>
      </trkpt>
      <trkpt lat="43.47794" lon="6.57386">
        <ele>57.9</ele>
        <time>2025-02-26T15:58:34Z</time>
      </trkpt>
      <trkpt lat="43.47794" lon="6.57386">
        <ele>57.9</ele>
        <time>2025-02-26T15:58:35Z</time>
      </trkpt>
      <trkpt lat="43.47794" lon="6.57385">
        <ele>57.9</ele>
        <time>2025-02-26T15:58:36Z</time>
      </trkpt>
      <trkpt lat="43.47794" lon="6.57385">
        <ele>57.8</ele>
        <time>2025-02-26T15:58:37Z</time>
      </trkpt>
      <trkpt lat="43.47794" lon="6.57385">
        <ele>57.8</ele>
        <time>2025-02-26T15:58:38Z</time>
      </trkpt>
      <trkpt lat="43.47793" lon="6.57384">
        <ele>57.9</ele>
        <time>2025-02-26T15:58:39Z</time>
      </trkpt>
      <trkpt lat="43.47792" lon="6.57384">
        <ele>57.9</ele>
        <time>2025-02-26T15:58:40Z</time>
      </trkpt>
      <trkpt lat="43.47791" lon="6.57383">
        <ele>57.7</ele>
        <time>2025-02-26T15:58:41Z</time>
      </trkpt>
      <trkpt lat="43.47791" lon="6.57383">
        <ele>57.6</ele>
        <time>2025-02-26T15:58:42Z</time>
      </trkpt>
      <trkpt lat="43.47791" lon="6.57382">
        <ele>57.4</ele>
        <time>2025-02-26T15:58:43Z</time>
      </trkpt>
      <trkpt lat="43.47791" lon="6.57383">
        <ele>57.2</ele>
        <time>2025-02-26T15:58:44Z</time>
      </trkpt>
      <trkpt lat="43.47791" lon="6.57382">
        <ele>57.2</ele>
        <time>2025-02-26T15:58:45Z</time>
      </trkpt>
      <trkpt lat="43.4779" lon="6.57382">
        <ele>57.2</ele>
        <time>2025-02-26T15:58:46Z</time>
      </trkpt>
      <trkpt lat="43.4779" lon="6.57381">
        <ele>57.2</ele>
        <time>2025-02-26T15:58:47Z</time>
      </trkpt>
      <trkpt lat="43.47789" lon="6.5738">
        <ele>57.3</ele>
        <time>2025-02-26T15:58:48Z</time>
      </trkpt>
      <trkpt lat="43.47788" lon="6.57379">
        <ele>57.4</ele>
        <time>2025-02-26T15:58:49Z</time>
      </trkpt>
      <trkpt lat="43.47787" lon="6.57379">
        <ele>57.4</ele>
        <time>2025-02-26T15:58:50Z</time>
      </trkpt>
      <trkpt lat="43.47786" lon="6.57378">
        <ele>57.4</ele>
        <time>2025-02-26T15:58:51Z</time>
      </trkpt>
      <trkpt lat="43.47785" lon="6.57377">
        <ele>57.3</ele>
        <time>2025-02-26T15:58:52Z</time>
      </trkpt>
      <trkpt lat="43.47784" lon="6.57376">
        <ele>57.3</ele>
        <time>2025-02-26T15:58:53Z</time>
      </trkpt>
      <trkpt lat="43.47783" lon="6.57375">
        <ele>57.1</ele>
        <time>2025-02-26T15:58:54Z</time>
      </trkpt>
      <trkpt lat="43.47782" lon="6.57374">
        <ele>56.9</ele>
        <time>2025-02-26T15:58:55Z</time>
      </trkpt>
      <trkpt lat="43.47781" lon="6.57374">
        <ele>56.8</ele>
        <time>2025-02-26T15:58:56Z</time>
      </trkpt>
      <trkpt lat="43.4778" lon="6.57373">
        <ele>56.8</ele>
        <time>2025-02-26T15:58:57Z</time>
      </trkpt>
      <trkpt lat="43.47779" lon="6.57372">
        <ele>56.7</ele>
        <time>2025-02-26T15:58:58Z</time>
      </trkpt>
      <trkpt lat="43.47778" lon="6.57372">
        <ele>56.4</ele>
        <time>2025-02-26T15:58:59Z</time>
      </trkpt>
      <trkpt lat="43.47776" lon="6.57371">
        <ele>56.3</ele>
        <time>2025-02-26T15:59:00Z</time>
      </trkpt>
      <trkpt lat="43.47775" lon="6.57371">
        <ele>56.2</ele>
        <time>2025-02-26T15:59:01Z</time>
      </trkpt>
      <trkpt lat="43.47774" lon="6.5737">
        <ele>56.1</ele>
        <time>2025-02-26T15:59:02Z</time>
      </trkpt>
      <trkpt lat="43.47773" lon="6.57369">
        <ele>56.1</ele>
        <time>2025-02-26T15:59:03Z</time>
      </trkpt>
      <trkpt lat="43.47772" lon="6.57369">
        <ele>56.1</ele>
        <time>2025-02-26T15:59:04Z</time>
      </trkpt>
      <trkpt lat="43.4777" lon="6.57368">
        <ele>56</ele>
        <time>2025-02-26T15:59:05Z</time>
      </trkpt>
      <trkpt lat="43.47769" lon="6.57368">
        <ele>56</ele>
        <time>2025-02-26T15:59:06Z</time>
      </trkpt>
      <trkpt lat="43.47768" lon="6.57368">
        <ele>55.9</ele>
        <time>2025-02-26T15:59:07Z</time>
      </trkpt>
      <trkpt lat="43.47767" lon="6.57368">
        <ele>55.9</ele>
        <time>2025-02-26T15:59:08Z</time>
      </trkpt>
      <trkpt lat="43.47766" lon="6.57367">
        <ele>55.7</ele>
        <time>2025-02-26T15:59:09Z</time>
      </trkpt>
      <trkpt lat="43.47765" lon="6.57367">
        <ele>55.6</ele>
        <time>2025-02-26T15:59:10Z</time>
      </trkpt>
      <trkpt lat="43.47764" lon="6.57367">
        <ele>55.5</ele>
        <time>2025-02-26T15:59:11Z</time>
      </trkpt>
      <trkpt lat="43.47763" lon="6.57367">
        <ele>55.4</ele>
        <time>2025-02-26T15:59:12Z</time>
      </trkpt>
      <trkpt lat="43.47762" lon="6.57367">
        <ele>55.3</ele>
        <time>2025-02-26T15:59:13Z</time>
      </trkpt>
      <trkpt lat="43.47761" lon="6.57366">
        <ele>55.2</ele>
        <time>2025-02-26T15:59:14Z</time>
      </trkpt>
      <trkpt lat="43.47759" lon="6.57365">
        <ele>55.1</ele>
        <time>2025-02-26T15:59:15Z</time>
      </trkpt>
      <trkpt lat="43.47758" lon="6.57364">
        <ele>55</ele>
        <time>2025-02-26T15:59:16Z</time>
      </trkpt>
      <trkpt lat="43.47757" lon="6.57364">
        <ele>54.9</ele>
        <time>2025-02-26T15:59:17Z</time>
      </trkpt>
      <trkpt lat="43.47756" lon="6.57363">
        <ele>54.8</ele>
        <time>2025-02-26T15:59:18Z</time>
      </trkpt>
      <trkpt lat="43.47755" lon="6.57362">
        <ele>54.5</ele>
        <time>2025-02-26T15:59:19Z</time>
      </trkpt>
      <trkpt lat="43.47754" lon="6.57361">
        <ele>54.4</ele>
        <time>2025-02-26T15:59:20Z</time>
      </trkpt>
      <trkpt lat="43.47753" lon="6.5736">
        <ele>54.3</ele>
        <time>2025-02-26T15:59:21Z</time>
      </trkpt>
      <trkpt lat="43.47751" lon="6.57359">
        <ele>54.2</ele>
        <time>2025-02-26T15:59:22Z</time>
      </trkpt>
      <trkpt lat="43.4775" lon="6.57358">
        <ele>54</ele>
        <time>2025-02-26T15:59:23Z</time>
      </trkpt>
      <trkpt lat="43.47749" lon="6.57357">
        <ele>53.9</ele>
        <time>2025-02-26T15:59:24Z</time>
      </trkpt>
      <trkpt lat="43.47748" lon="6.57356">
        <ele>53.8</ele>
        <time>2025-02-26T15:59:25Z</time>
      </trkpt>
      <trkpt lat="43.47746" lon="6.57355">
        <ele>53.6</ele>
        <time>2025-02-26T15:59:26Z</time>
      </trkpt>
      <trkpt lat="43.47745" lon="6.57354">
        <ele>53.5</ele>
        <time>2025-02-26T15:59:27Z</time>
      </trkpt>
      <trkpt lat="43.47744" lon="6.57354">
        <ele>53.4</ele>
        <time>2025-02-26T15:59:28Z</time>
      </trkpt>
      <trkpt lat="43.47743" lon="6.57353">
        <ele>53.3</ele>
        <time>2025-02-26T15:59:29Z</time>
      </trkpt>
      <trkpt lat="43.47742" lon="6.57353">
        <ele>53.2</ele>
        <time>2025-02-26T15:59:30Z</time>
      </trkpt>
      <trkpt lat="43.47741" lon="6.57352">
        <ele>53</ele>
        <time>2025-02-26T15:59:31Z</time>
      </trkpt>
      <trkpt lat="43.47739" lon="6.57351">
        <ele>53</ele>
        <time>2025-02-26T15:59:32Z</time>
      </trkpt>
      <trkpt lat="43.47738" lon="6.5735">
        <ele>52.8</ele>
        <time>2025-02-26T15:59:33Z</time>
      </trkpt>
      <trkpt lat="43.47737" lon="6.5735">
        <ele>52.8</ele>
        <time>2025-02-26T15:59:34Z</time>
      </trkpt>
      <trkpt lat="43.47736" lon="6.57349">
        <ele>52.7</ele>
        <time>2025-02-26T15:59:35Z</time>
      </trkpt>
      <trkpt lat="43.47734" lon="6.57348">
        <ele>52.5</ele>
        <time>2025-02-26T15:59:36Z</time>
      </trkpt>
      <trkpt lat="43.47733" lon="6.57347">
        <ele>52.4</ele>
        <time>2025-02-26T15:59:37Z</time>
      </trkpt>
      <trkpt lat="43.47732" lon="6.57346">
        <ele>52.2</ele>
        <time>2025-02-26T15:59:38Z</time>
      </trkpt>
      <trkpt lat="43.47731" lon="6.57345">
        <ele>52.1</ele>
        <time>2025-02-26T15:59:39Z</time>
      </trkpt>
      <trkpt lat="43.47729" lon="6.57345">
        <ele>52.1</ele>
        <time>2025-02-26T15:59:40Z</time>
      </trkpt>
      <trkpt lat="43.47728" lon="6.57344">
        <ele>52</ele>
        <time>2025-02-26T15:59:41Z</time>
      </trkpt>
      <trkpt lat="43.47727" lon="6.57343">
        <ele>52</ele>
        <time>2025-02-26T15:59:42Z</time>
      </trkpt>
      <trkpt lat="43.47726" lon="6.57343">
        <ele>51.8</ele>
        <time>2025-02-26T15:59:43Z</time>
      </trkpt>
      <trkpt lat="43.47725" lon="6.57342">
        <ele>51.7</ele>
        <time>2025-02-26T15:59:44Z</time>
      </trkpt>
      <trkpt lat="43.47723" lon="6.57341">
        <ele>51.7</ele>
        <time>2025-02-26T15:59:45Z</time>
      </trkpt>
      <trkpt lat="43.47722" lon="6.5734">
        <ele>51.6</ele>
        <time>2025-02-26T15:59:46Z</time>
      </trkpt>
      <trkpt lat="43.47721" lon="6.57339">
        <ele>51.6</ele>
        <time>2025-02-26T15:59:47Z</time>
      </trkpt>
      <trkpt lat="43.47719" lon="6.57339">
        <ele>51.5</ele>
        <time>2025-02-26T15:59:48Z</time>
      </trkpt>
      <trkpt lat="43.47718" lon="6.57338">
        <ele>51.3</ele>
        <time>2025-02-26T15:59:49Z</time>
      </trkpt>
      <trkpt lat="43.47716" lon="6.57338">
        <ele>51.2</ele>
        <time>2025-02-26T15:59:50Z</time>
      </trkpt>
      <trkpt lat="43.47715" lon="6.57337">
        <ele>51.1</ele>
        <time>2025-02-26T15:59:51Z</time>
      </trkpt>
      <trkpt lat="43.47714" lon="6.57337">
        <ele>51</ele>
        <time>2025-02-26T15:59:52Z</time>
      </trkpt>
      <trkpt lat="43.47712" lon="6.57336">
        <ele>50.9</ele>
        <time>2025-02-26T15:59:53Z</time>
      </trkpt>
      <trkpt lat="43.47711" lon="6.57335">
        <ele>50.8</ele>
        <time>2025-02-26T15:59:54Z</time>
      </trkpt>
      <trkpt lat="43.4771" lon="6.57335">
        <ele>50.7</ele>
        <time>2025-02-26T15:59:55Z</time>
      </trkpt>
      <trkpt lat="43.47709" lon="6.57335">
        <ele>50.7</ele>
        <time>2025-02-26T15:59:56Z</time>
      </trkpt>
      <trkpt lat="43.47707" lon="6.57335">
        <ele>50.7</ele>
        <time>2025-02-26T15:59:57Z</time>
      </trkpt>
      <trkpt lat="43.47706" lon="6.57335">
        <ele>50.7</ele>
        <time>2025-02-26T15:59:58Z</time>
      </trkpt>
      <trkpt lat="43.47705" lon="6.57335">
        <ele>50.7</ele>
        <time>2025-02-26T15:59:59Z</time>
      </trkpt>
      <trkpt lat="43.47703" lon="6.57335">
        <ele>50.6</ele>
        <time>2025-02-26T16:00:00Z</time>
      </trkpt>
      <trkpt lat="43.47702" lon="6.57334">
        <ele>50.5</ele>
        <time>2025-02-26T16:00:01Z</time>
      </trkpt>
      <trkpt lat="43.47701" lon="6.57334">
        <ele>50.6</ele>
        <time>2025-02-26T16:00:02Z</time>
      </trkpt>
      <trkpt lat="43.47699" lon="6.57334">
        <ele>50.6</ele>
        <time>2025-02-26T16:00:03Z</time>
      </trkpt>
      <trkpt lat="43.47698" lon="6.57334">
        <ele>50.6</ele>
        <time>2025-02-26T16:00:04Z</time>
      </trkpt>
      <trkpt lat="43.47696" lon="6.57334">
        <ele>50.7</ele>
        <time>2025-02-26T16:00:05Z</time>
      </trkpt>
      <trkpt lat="43.47695" lon="6.57333">
        <ele>50.8</ele>
        <time>2025-02-26T16:00:06Z</time>
      </trkpt>
      <trkpt lat="43.47694" lon="6.57333">
        <ele>50.9</ele>
        <time>2025-02-26T16:00:07Z</time>
      </trkpt>
      <trkpt lat="43.47692" lon="6.57332">
        <ele>50.9</ele>
        <time>2025-02-26T16:00:08Z</time>
      </trkpt>
      <trkpt lat="43.47691" lon="6.57332">
        <ele>50.9</ele>
        <time>2025-02-26T16:00:09Z</time>
      </trkpt>
      <trkpt lat="43.4769" lon="6.57331">
        <ele>50.8</ele>
        <time>2025-02-26T16:00:10Z</time>
      </trkpt>
      <trkpt lat="43.47689" lon="6.57331">
        <ele>50.7</ele>
        <time>2025-02-26T16:00:11Z</time>
      </trkpt>
      <trkpt lat="43.47687" lon="6.57331">
        <ele>50.6</ele>
        <time>2025-02-26T16:00:12Z</time>
      </trkpt>
      <trkpt lat="43.47686" lon="6.57331">
        <ele>50.5</ele>
        <time>2025-02-26T16:00:13Z</time>
      </trkpt>
      <trkpt lat="43.47684" lon="6.57331">
        <ele>50.3</ele>
        <time>2025-02-26T16:00:14Z</time>
      </trkpt>
      <trkpt lat="43.47683" lon="6.5733">
        <ele>50.2</ele>
        <time>2025-02-26T16:00:15Z</time>
      </trkpt>
      <trkpt lat="43.47681" lon="6.5733">
        <ele>50</ele>
        <time>2025-02-26T16:00:16Z</time>
      </trkpt>
      <trkpt lat="43.4768" lon="6.57329">
        <ele>49.9</ele>
        <time>2025-02-26T16:00:17Z</time>
      </trkpt>
      <trkpt lat="43.47679" lon="6.57329">
        <ele>49.9</ele>
        <time>2025-02-26T16:00:18Z</time>
      </trkpt>
      <trkpt lat="43.47678" lon="6.57329">
        <ele>49.8</ele>
        <time>2025-02-26T16:00:19Z</time>
      </trkpt>
      <trkpt lat="43.47676" lon="6.57329">
        <ele>49.7</ele>
        <time>2025-02-26T16:00:20Z</time>
      </trkpt>
      <trkpt lat="43.47675" lon="6.57329">
        <ele>49.5</ele>
        <time>2025-02-26T16:00:21Z</time>
      </trkpt>
      <trkpt lat="43.47673" lon="6.57329">
        <ele>49.5</ele>
        <time>2025-02-26T16:00:22Z</time>
      </trkpt>
      <trkpt lat="43.47672" lon="6.57328">
        <ele>49.5</ele>
        <time>2025-02-26T16:00:23Z</time>
      </trkpt>
      <trkpt lat="43.47671" lon="6.57328">
        <ele>49.4</ele>
        <time>2025-02-26T16:00:24Z</time>
      </trkpt>
      <trkpt lat="43.47669" lon="6.57328">
        <ele>49.4</ele>
        <time>2025-02-26T16:00:25Z</time>
      </trkpt>
      <trkpt lat="43.47668" lon="6.57328">
        <ele>49.3</ele>
        <time>2025-02-26T16:00:26Z</time>
      </trkpt>
      <trkpt lat="43.47667" lon="6.57329">
        <ele>49.2</ele>
        <time>2025-02-26T16:00:27Z</time>
      </trkpt>
      <trkpt lat="43.47665" lon="6.57328">
        <ele>49.1</ele>
        <time>2025-02-26T16:00:28Z</time>
      </trkpt>
      <trkpt lat="43.47664" lon="6.57328">
        <ele>49</ele>
        <time>2025-02-26T16:00:29Z</time>
      </trkpt>
      <trkpt lat="43.47662" lon="6.57328">
        <ele>48.9</ele>
        <time>2025-02-26T16:00:30Z</time>
      </trkpt>
      <trkpt lat="43.47661" lon="6.57328">
        <ele>48.9</ele>
        <time>2025-02-26T16:00:31Z</time>
      </trkpt>
      <trkpt lat="43.4766" lon="6.57327">
        <ele>48.8</ele>
        <time>2025-02-26T16:00:32Z</time>
      </trkpt>
      <trkpt lat="43.47659" lon="6.57327">
        <ele>48.8</ele>
        <time>2025-02-26T16:00:33Z</time>
      </trkpt>
      <trkpt lat="43.47657" lon="6.57326">
        <ele>48.6</ele>
        <time>2025-02-26T16:00:34Z</time>
      </trkpt>
      <trkpt lat="43.47656" lon="6.57326">
        <ele>48.5</ele>
        <time>2025-02-26T16:00:35Z</time>
      </trkpt>
      <trkpt lat="43.47655" lon="6.57325">
        <ele>48.5</ele>
        <time>2025-02-26T16:00:36Z</time>
      </trkpt>
      <trkpt lat="43.47654" lon="6.57325">
        <ele>48.5</ele>
        <time>2025-02-26T16:00:37Z</time>
      </trkpt>
      <trkpt lat="43.47652" lon="6.57324">
        <ele>48.4</ele>
        <time>2025-02-26T16:00:38Z</time>
      </trkpt>
      <trkpt lat="43.47651" lon="6.57324">
        <ele>48.3</ele>
        <time>2025-02-26T16:00:39Z</time>
      </trkpt>
      <trkpt lat="43.4765" lon="6.57323">
        <ele>48.3</ele>
        <time>2025-02-26T16:00:40Z</time>
      </trkpt>
      <trkpt lat="43.47649" lon="6.57323">
        <ele>48.3</ele>
        <time>2025-02-26T16:00:41Z</time>
      </trkpt>
      <trkpt lat="43.47648" lon="6.57322">
        <ele>48.2</ele>
        <time>2025-02-26T16:00:42Z</time>
      </trkpt>
      <trkpt lat="43.47646" lon="6.57322">
        <ele>47.9</ele>
        <time>2025-02-26T16:00:43Z</time>
      </trkpt>
      <trkpt lat="43.47645" lon="6.57321">
        <ele>47.7</ele>
        <time>2025-02-26T16:00:44Z</time>
      </trkpt>
      <trkpt lat="43.47644" lon="6.57321">
        <ele>47.5</ele>
        <time>2025-02-26T16:00:45Z</time>
      </trkpt>
      <trkpt lat="43.47643" lon="6.57321">
        <ele>47.3</ele>
        <time>2025-02-26T16:00:46Z</time>
      </trkpt>
      <trkpt lat="43.47642" lon="6.5732">
        <ele>47.2</ele>
        <time>2025-02-26T16:00:47Z</time>
      </trkpt>
      <trkpt lat="43.47641" lon="6.57319">
        <ele>46.7</ele>
        <time>2025-02-26T16:00:48Z</time>
      </trkpt>
      <trkpt lat="43.4764" lon="6.57319">
        <ele>46.5</ele>
        <time>2025-02-26T16:00:49Z</time>
      </trkpt>
      <trkpt lat="43.4764" lon="6.57318">
        <ele>46.5</ele>
        <time>2025-02-26T16:00:50Z</time>
      </trkpt>
      <trkpt lat="43.47638" lon="6.57317">
        <ele>46.4</ele>
        <time>2025-02-26T16:00:51Z</time>
      </trkpt>
      <trkpt lat="43.47637" lon="6.57316">
        <ele>46.3</ele>
        <time>2025-02-26T16:00:52Z</time>
      </trkpt>
      <trkpt lat="43.47636" lon="6.57315">
        <ele>46.2</ele>
        <time>2025-02-26T16:00:53Z</time>
      </trkpt>
      <trkpt lat="43.47635" lon="6.57314">
        <ele>46.2</ele>
        <time>2025-02-26T16:00:54Z</time>
      </trkpt>
      <trkpt lat="43.47634" lon="6.57313">
        <ele>46.2</ele>
        <time>2025-02-26T16:00:55Z</time>
      </trkpt>
      <trkpt lat="43.47633" lon="6.57312">
        <ele>46.1</ele>
        <time>2025-02-26T16:00:56Z</time>
      </trkpt>
      <trkpt lat="43.47633" lon="6.57311">
        <ele>46</ele>
        <time>2025-02-26T16:00:57Z</time>
      </trkpt>
      <trkpt lat="43.47632" lon="6.57309">
        <ele>45.9</ele>
        <time>2025-02-26T16:00:58Z</time>
      </trkpt>
      <trkpt lat="43.47631" lon="6.57308">
        <ele>45.9</ele>
        <time>2025-02-26T16:00:59Z</time>
      </trkpt>
      <trkpt lat="43.47631" lon="6.57306">
        <ele>45.9</ele>
        <time>2025-02-26T16:01:00Z</time>
      </trkpt>
      <trkpt lat="43.4763" lon="6.57305">
        <ele>45.6</ele>
        <time>2025-02-26T16:01:01Z</time>
      </trkpt>
      <trkpt lat="43.4763" lon="6.57303">
        <ele>45.5</ele>
        <time>2025-02-26T16:01:02Z</time>
      </trkpt>
      <trkpt lat="43.4763" lon="6.57302">
        <ele>45.3</ele>
        <time>2025-02-26T16:01:03Z</time>
      </trkpt>
      <trkpt lat="43.4763" lon="6.57301">
        <ele>45.2</ele>
        <time>2025-02-26T16:01:04Z</time>
      </trkpt>
      <trkpt lat="43.4763" lon="6.573">
        <ele>45</ele>
        <time>2025-02-26T16:01:05Z</time>
      </trkpt>
      <trkpt lat="43.4763" lon="6.57298">
        <ele>44.8</ele>
        <time>2025-02-26T16:01:06Z</time>
      </trkpt>
      <trkpt lat="43.4763" lon="6.57297">
        <ele>44.6</ele>
        <time>2025-02-26T16:01:07Z</time>
      </trkpt>
      <trkpt lat="43.4763" lon="6.57295">
        <ele>44.2</ele>
        <time>2025-02-26T16:01:08Z</time>
      </trkpt>
      <trkpt lat="43.47631" lon="6.57294">
        <ele>44.1</ele>
        <time>2025-02-26T16:01:09Z</time>
      </trkpt>
      <trkpt lat="43.47631" lon="6.57293">
        <ele>43.7</ele>
        <time>2025-02-26T16:01:10Z</time>
      </trkpt>
      <trkpt lat="43.47631" lon="6.57292">
        <ele>43.4</ele>
        <time>2025-02-26T16:01:11Z</time>
      </trkpt>
      <trkpt lat="43.47631" lon="6.5729">
        <ele>43.2</ele>
        <time>2025-02-26T16:01:12Z</time>
      </trkpt>
      <trkpt lat="43.47632" lon="6.57289">
        <ele>43.1</ele>
        <time>2025-02-26T16:01:13Z</time>
      </trkpt>
      <trkpt lat="43.47633" lon="6.57287">
        <ele>42.9</ele>
        <time>2025-02-26T16:01:14Z</time>
      </trkpt>
      <trkpt lat="43.47633" lon="6.57286">
        <ele>42.7</ele>
        <time>2025-02-26T16:01:15Z</time>
      </trkpt>
      <trkpt lat="43.47633" lon="6.57284">
        <ele>42.6</ele>
        <time>2025-02-26T16:01:16Z</time>
      </trkpt>
      <trkpt lat="43.47633" lon="6.57283">
        <ele>42.5</ele>
        <time>2025-02-26T16:01:17Z</time>
      </trkpt>
      <trkpt lat="43.47633" lon="6.57281">
        <ele>42.1</ele>
        <time>2025-02-26T16:01:18Z</time>
      </trkpt>
      <trkpt lat="43.47634" lon="6.5728">
        <ele>41.9</ele>
        <time>2025-02-26T16:01:19Z</time>
      </trkpt>
      <trkpt lat="43.47635" lon="6.57278">
        <ele>41.7</ele>
        <time>2025-02-26T16:01:20Z</time>
      </trkpt>
      <trkpt lat="43.47635" lon="6.57276">
        <ele>41.5</ele>
        <time>2025-02-26T16:01:21Z</time>
      </trkpt>
      <trkpt lat="43.47635" lon="6.57275">
        <ele>41.4</ele>
        <time>2025-02-26T16:01:22Z</time>
      </trkpt>
      <trkpt lat="43.47636" lon="6.57273">
        <ele>41.3</ele>
        <time>2025-02-26T16:01:23Z</time>
      </trkpt>
      <trkpt lat="43.47636" lon="6.57272">
        <ele>41</ele>
        <time>2025-02-26T16:01:24Z</time>
      </trkpt>
      <trkpt lat="43.47637" lon="6.5727">
        <ele>40.9</ele>
        <time>2025-02-26T16:01:25Z</time>
      </trkpt>
      <trkpt lat="43.47638" lon="6.57269">
        <ele>40.7</ele>
        <time>2025-02-26T16:01:26Z</time>
      </trkpt>
      <trkpt lat="43.47639" lon="6.57267">
        <ele>40.7</ele>
        <time>2025-02-26T16:01:27Z</time>
      </trkpt>
      <trkpt lat="43.47639" lon="6.57266">
        <ele>40.5</ele>
        <time>2025-02-26T16:01:28Z</time>
      </trkpt>
      <trkpt lat="43.4764" lon="6.57264">
        <ele>40.4</ele>
        <time>2025-02-26T16:01:29Z</time>
      </trkpt>
      <trkpt lat="43.4764" lon="6.57263">
        <ele>40.3</ele>
        <time>2025-02-26T16:01:30Z</time>
      </trkpt>
      <trkpt lat="43.47641" lon="6.57262">
        <ele>40.2</ele>
        <time>2025-02-26T16:01:31Z</time>
      </trkpt>
      <trkpt lat="43.47641" lon="6.5726">
        <ele>40.1</ele>
        <time>2025-02-26T16:01:32Z</time>
      </trkpt>
      <trkpt lat="43.47642" lon="6.57259">
        <ele>39.9</ele>
        <time>2025-02-26T16:01:33Z</time>
      </trkpt>
      <trkpt lat="43.47643" lon="6.57258">
        <ele>39.7</ele>
        <time>2025-02-26T16:01:34Z</time>
      </trkpt>
      <trkpt lat="43.47644" lon="6.57256">
        <ele>39.6</ele>
        <time>2025-02-26T16:01:35Z</time>
      </trkpt>
      <trkpt lat="43.47645" lon="6.57255">
        <ele>39.7</ele>
        <time>2025-02-26T16:01:36Z</time>
      </trkpt>
      <trkpt lat="43.47646" lon="6.57253">
        <ele>39.7</ele>
        <time>2025-02-26T16:01:37Z</time>
      </trkpt>
      <trkpt lat="43.47646" lon="6.57251">
        <ele>39.7</ele>
        <time>2025-02-26T16:01:38Z</time>
      </trkpt>
      <trkpt lat="43.47647" lon="6.5725">
        <ele>39.7</ele>
        <time>2025-02-26T16:01:39Z</time>
      </trkpt>
      <trkpt lat="43.47648" lon="6.57249">
        <ele>39.5</ele>
        <time>2025-02-26T16:01:40Z</time>
      </trkpt>
      <trkpt lat="43.47649" lon="6.57247">
        <ele>39.4</ele>
        <time>2025-02-26T16:01:41Z</time>
      </trkpt>
      <trkpt lat="43.4765" lon="6.57246">
        <ele>39.3</ele>
        <time>2025-02-26T16:01:42Z</time>
      </trkpt>
      <trkpt lat="43.47651" lon="6.57245">
        <ele>39.3</ele>
        <time>2025-02-26T16:01:43Z</time>
      </trkpt>
      <trkpt lat="43.47652" lon="6.57243">
        <ele>39.2</ele>
        <time>2025-02-26T16:01:44Z</time>
      </trkpt>
      <trkpt lat="43.47652" lon="6.57242">
        <ele>39.2</ele>
        <time>2025-02-26T16:01:45Z</time>
      </trkpt>
      <trkpt lat="43.47653" lon="6.57241">
        <ele>39</ele>
        <time>2025-02-26T16:01:46Z</time>
      </trkpt>
      <trkpt lat="43.47654" lon="6.57239">
        <ele>38.8</ele>
        <time>2025-02-26T16:01:47Z</time>
      </trkpt>
      <trkpt lat="43.47655" lon="6.57238">
        <ele>38.7</ele>
        <time>2025-02-26T16:01:48Z</time>
      </trkpt>
      <trkpt lat="43.47655" lon="6.57237">
        <ele>38.5</ele>
        <time>2025-02-26T16:01:49Z</time>
      </trkpt>
      <trkpt lat="43.47656" lon="6.57236">
        <ele>38.3</ele>
        <time>2025-02-26T16:01:50Z</time>
      </trkpt>
      <trkpt lat="43.47657" lon="6.57235">
        <ele>38.2</ele>
        <time>2025-02-26T16:01:51Z</time>
      </trkpt>
      <trkpt lat="43.47658" lon="6.57235">
        <ele>38</ele>
        <time>2025-02-26T16:01:52Z</time>
      </trkpt>
      <trkpt lat="43.47658" lon="6.57234">
        <ele>37.9</ele>
        <time>2025-02-26T16:01:53Z</time>
      </trkpt>
      <trkpt lat="43.47659" lon="6.57233">
        <ele>37.9</ele>
        <time>2025-02-26T16:01:54Z</time>
      </trkpt>
      <trkpt lat="43.47661" lon="6.57233">
        <ele>37.8</ele>
        <time>2025-02-26T16:01:55Z</time>
      </trkpt>
      <trkpt lat="43.47661" lon="6.57232">
        <ele>37.8</ele>
        <time>2025-02-26T16:01:56Z</time>
      </trkpt>
      <trkpt lat="43.47662" lon="6.57232">
        <ele>37.7</ele>
        <time>2025-02-26T16:01:57Z</time>
      </trkpt>
      <trkpt lat="43.47663" lon="6.57232">
        <ele>37.7</ele>
        <time>2025-02-26T16:01:58Z</time>
      </trkpt>
      <trkpt lat="43.47665" lon="6.57233">
        <ele>37.7</ele>
        <time>2025-02-26T16:01:59Z</time>
      </trkpt>
      <trkpt lat="43.47666" lon="6.57233">
        <ele>37.5</ele>
        <time>2025-02-26T16:02:00Z</time>
      </trkpt>
      <trkpt lat="43.47667" lon="6.57233">
        <ele>37.4</ele>
        <time>2025-02-26T16:02:01Z</time>
      </trkpt>
      <trkpt lat="43.47669" lon="6.57233">
        <ele>37.3</ele>
        <time>2025-02-26T16:02:02Z</time>
      </trkpt>
      <trkpt lat="43.4767" lon="6.57233">
        <ele>37.1</ele>
        <time>2025-02-26T16:02:03Z</time>
      </trkpt>
      <trkpt lat="43.47671" lon="6.57233">
        <ele>36.9</ele>
        <time>2025-02-26T16:02:04Z</time>
      </trkpt>
      <trkpt lat="43.47672" lon="6.57233">
        <ele>36.7</ele>
        <time>2025-02-26T16:02:05Z</time>
      </trkpt>
      <trkpt lat="43.47674" lon="6.57233">
        <ele>36.6</ele>
        <time>2025-02-26T16:02:06Z</time>
      </trkpt>
      <trkpt lat="43.47675" lon="6.57233">
        <ele>36.1</ele>
        <time>2025-02-26T16:02:07Z</time>
      </trkpt>
      <trkpt lat="43.47676" lon="6.57234">
        <ele>35.9</ele>
        <time>2025-02-26T16:02:08Z</time>
      </trkpt>
      <trkpt lat="43.47677" lon="6.57234">
        <ele>35.4</ele>
        <time>2025-02-26T16:02:09Z</time>
      </trkpt>
      <trkpt lat="43.47678" lon="6.57234">
        <ele>35</ele>
        <time>2025-02-26T16:02:10Z</time>
      </trkpt>
      <trkpt lat="43.47679" lon="6.57234">
        <ele>35.1</ele>
        <time>2025-02-26T16:02:11Z</time>
      </trkpt>
      <trkpt lat="43.4768" lon="6.57234">
        <ele>34.6</ele>
        <time>2025-02-26T16:02:12Z</time>
      </trkpt>
      <trkpt lat="43.47681" lon="6.57235">
        <ele>34.4</ele>
        <time>2025-02-26T16:02:13Z</time>
      </trkpt>
      <trkpt lat="43.47682" lon="6.57235">
        <ele>34.3</ele>
        <time>2025-02-26T16:02:14Z</time>
      </trkpt>
      <trkpt lat="43.47683" lon="6.57236">
        <ele>34</ele>
        <time>2025-02-26T16:02:15Z</time>
      </trkpt>
      <trkpt lat="43.47684" lon="6.57236">
        <ele>33.8</ele>
        <time>2025-02-26T16:02:16Z</time>
      </trkpt>
      <trkpt lat="43.47685" lon="6.57236">
        <ele>33.6</ele>
        <time>2025-02-26T16:02:17Z</time>
      </trkpt>
      <trkpt lat="43.47687" lon="6.57236">
        <ele>33.4</ele>
        <time>2025-02-26T16:02:18Z</time>
      </trkpt>
      <trkpt lat="43.47688" lon="6.57236">
        <ele>33.3</ele>
        <time>2025-02-26T16:02:19Z</time>
      </trkpt>
      <trkpt lat="43.47689" lon="6.57236">
        <ele>33.1</ele>
        <time>2025-02-26T16:02:20Z</time>
      </trkpt>
      <trkpt lat="43.4769" lon="6.57237">
        <ele>32.6</ele>
        <time>2025-02-26T16:02:21Z</time>
      </trkpt>
      <trkpt lat="43.47691" lon="6.57237">
        <ele>32.5</ele>
        <time>2025-02-26T16:02:22Z</time>
      </trkpt>
      <trkpt lat="43.47692" lon="6.57237">
        <ele>32.5</ele>
        <time>2025-02-26T16:02:23Z</time>
      </trkpt>
      <trkpt lat="43.47694" lon="6.57237">
        <ele>32.4</ele>
        <time>2025-02-26T16:02:24Z</time>
      </trkpt>
      <trkpt lat="43.47694" lon="6.57238">
        <ele>32.2</ele>
        <time>2025-02-26T16:02:25Z</time>
      </trkpt>
      <trkpt lat="43.47695" lon="6.57238">
        <ele>31.9</ele>
        <time>2025-02-26T16:02:26Z</time>
      </trkpt>
      <trkpt lat="43.47696" lon="6.57239">
        <ele>31.2</ele>
        <time>2025-02-26T16:02:27Z</time>
      </trkpt>
      <trkpt lat="43.47697" lon="6.57239">
        <ele>30.9</ele>
        <time>2025-02-26T16:02:28Z</time>
      </trkpt>
      <trkpt lat="43.47698" lon="6.57239">
        <ele>31</ele>
        <time>2025-02-26T16:02:29Z</time>
      </trkpt>
      <trkpt lat="43.47699" lon="6.57239">
        <ele>30.9</ele>
        <time>2025-02-26T16:02:30Z</time>
      </trkpt>
      <trkpt lat="43.47699" lon="6.57239">
        <ele>30.8</ele>
        <time>2025-02-26T16:02:31Z</time>
      </trkpt>
      <trkpt lat="43.477" lon="6.57238">
        <ele>30.7</ele>
        <time>2025-02-26T16:02:32Z</time>
      </trkpt>
      <trkpt lat="43.47701" lon="6.57238">
        <ele>30.4</ele>
        <time>2025-02-26T16:02:33Z</time>
      </trkpt>
      <trkpt lat="43.47702" lon="6.57238">
        <ele>30.2</ele>
        <time>2025-02-26T16:02:34Z</time>
      </trkpt>
      <trkpt lat="43.47703" lon="6.57238">
        <ele>30.1</ele>
        <time>2025-02-26T16:02:35Z</time>
      </trkpt>
      <trkpt lat="43.47705" lon="6.57238">
        <ele>29.9</ele>
        <time>2025-02-26T16:02:36Z</time>
      </trkpt>
      <trkpt lat="43.47705" lon="6.57238">
        <ele>29.8</ele>
        <time>2025-02-26T16:02:37Z</time>
      </trkpt>
      <trkpt lat="43.47706" lon="6.57238">
        <ele>29.7</ele>
        <time>2025-02-26T16:02:38Z</time>
      </trkpt>
      <trkpt lat="43.47706" lon="6.57238">
        <ele>29.6</ele>
        <time>2025-02-26T16:02:39Z</time>
      </trkpt>
      <trkpt lat="43.47706" lon="6.57238">
        <ele>29.6</ele>
        <time>2025-02-26T16:02:40Z</time>
      </trkpt>
      <trkpt lat="43.47707" lon="6.57238">
        <ele>29.5</ele>
        <time>2025-02-26T16:02:41Z</time>
      </trkpt>
      <trkpt lat="43.47707" lon="6.57238">
        <ele>29.3</ele>
        <time>2025-02-26T16:02:42Z</time>
      </trkpt>
      <trkpt lat="43.47708" lon="6.57237">
        <ele>29.3</ele>
        <time>2025-02-26T16:02:43Z</time>
      </trkpt>
      <trkpt lat="43.47708" lon="6.57238">
        <ele>29.3</ele>
        <time>2025-02-26T16:02:44Z</time>
      </trkpt>
      <trkpt lat="43.47709" lon="6.57237">
        <ele>29.2</ele>
        <time>2025-02-26T16:02:45Z</time>
      </trkpt>
      <trkpt lat="43.47709" lon="6.57237">
        <ele>29</ele>
        <time>2025-02-26T16:02:46Z</time>
      </trkpt>
      <trkpt lat="43.47709" lon="6.57237">
        <ele>29</ele>
        <time>2025-02-26T16:02:47Z</time>
      </trkpt>
      <trkpt lat="43.47709" lon="6.57237">
        <ele>28.9</ele>
        <time>2025-02-26T16:02:48Z</time>
      </trkpt>
      <trkpt lat="43.4771" lon="6.57237">
        <ele>28.9</ele>
        <time>2025-02-26T16:02:49Z</time>
      </trkpt>
      <trkpt lat="43.4771" lon="6.57237">
        <ele>28.8</ele>
        <time>2025-02-26T16:02:50Z</time>
      </trkpt>
      <trkpt lat="43.4771" lon="6.57237">
        <ele>28.7</ele>
        <time>2025-02-26T16:02:51Z</time>
      </trkpt>
      <trkpt lat="43.4771" lon="6.57237">
        <ele>28.7</ele>
        <time>2025-02-26T16:02:52Z</time>
      </trkpt>
      <trkpt lat="43.4771" lon="6.57237">
        <ele>28.6</ele>
        <time>2025-02-26T16:02:53Z</time>
      </trkpt>
      <trkpt lat="43.4771" lon="6.57237">
        <ele>28.7</ele>
        <time>2025-02-26T16:02:54Z</time>
      </trkpt>
      <trkpt lat="43.4771" lon="6.57237">
        <ele>28.8</ele>
        <time>2025-02-26T16:02:55Z</time>
      </trkpt>
      <trkpt lat="43.47711" lon="6.57237">
        <ele>28.8</ele>
        <time>2025-02-26T16:02:56Z</time>
      </trkpt>
      <trkpt lat="43.47711" lon="6.57237">
        <ele>28.8</ele>
        <time>2025-02-26T16:02:57Z</time>
      </trkpt>
      <trkpt lat="43.47711" lon="6.57237">
        <ele>28.8</ele>
        <time>2025-02-26T16:02:58Z</time>
      </trkpt>
      <trkpt lat="43.47711" lon="6.57237">
        <ele>28.9</ele>
        <time>2025-02-26T16:02:59Z</time>
      </trkpt>
      <trkpt lat="43.47711" lon="6.57237">
        <ele>28.9</ele>
        <time>2025-02-26T16:03:00Z</time>
      </trkpt>
      <trkpt lat="43.47711" lon="6.57237">
        <ele>28.9</ele>
        <time>2025-02-26T16:03:01Z</time>
      </trkpt>
      <trkpt lat="43.47712" lon="6.57236">
        <ele>28.9</ele>
        <time>2025-02-26T16:03:02Z</time>
      </trkpt>
      <trkpt lat="43.47712" lon="6.57236">
        <ele>28.9</ele>
        <time>2025-02-26T16:03:03Z</time>
      </trkpt>
      <trkpt lat="43.47712" lon="6.57236">
        <ele>29</ele>
        <time>2025-02-26T16:03:04Z</time>
      </trkpt>
      <trkpt lat="43.47712" lon="6.57236">
        <ele>29.1</ele>
        <time>2025-02-26T16:03:05Z</time>
      </trkpt>
      <trkpt lat="43.47712" lon="6.57236">
        <ele>28.9</ele>
        <time>2025-02-26T16:03:06Z</time>
      </trkpt>
      <trkpt lat="43.47712" lon="6.57236">
        <ele>28.7</ele>
        <time>2025-02-26T16:03:07Z</time>
      </trkpt>
      <trkpt lat="43.47712" lon="6.57235">
        <ele>28.6</ele>
        <time>2025-02-26T16:03:08Z</time>
      </trkpt>
      <trkpt lat="43.47712" lon="6.57235">
        <ele>28.7</ele>
        <time>2025-02-26T16:03:09Z</time>
      </trkpt>
      <trkpt lat="43.47712" lon="6.57235">
        <ele>28.7</ele>
        <time>2025-02-26T16:03:10Z</time>
      </trkpt>
      <trkpt lat="43.47712" lon="6.57235">
        <ele>28.7</ele>
        <time>2025-02-26T16:03:11Z</time>
      </trkpt>
      <trkpt lat="43.47712" lon="6.57235">
        <ele>28.7</ele>
        <time>2025-02-26T16:03:12Z</time>
      </trkpt>
      <trkpt lat="43.47712" lon="6.57235">
        <ele>28.7</ele>
        <time>2025-02-26T16:03:13Z</time>
      </trkpt>
      <trkpt lat="43.47712" lon="6.57235">
        <ele>28.8</ele>
        <time>2025-02-26T16:03:14Z</time>
      </trkpt>
      <trkpt lat="43.47712" lon="6.57235">
        <ele>28.9</ele>
        <time>2025-02-26T16:03:15Z</time>
      </trkpt>
      <trkpt lat="43.47712" lon="6.57235">
        <ele>28.9</ele>
        <time>2025-02-26T16:03:16Z</time>
      </trkpt>
      <trkpt lat="43.47712" lon="6.57235">
        <ele>29</ele>
        <time>2025-02-26T16:03:17Z</time>
      </trkpt>
      <trkpt lat="43.47712" lon="6.57235">
        <ele>29</ele>
        <time>2025-02-26T16:03:18Z</time>
      </trkpt>
      <trkpt lat="43.47712" lon="6.57234">
        <ele>29</ele>
        <time>2025-02-26T16:03:19Z</time>
      </trkpt>
      <trkpt lat="43.47712" lon="6.57234">
        <ele>29</ele>
        <time>2025-02-26T16:03:20Z</time>
      </trkpt>
      <trkpt lat="43.47712" lon="6.57235">
        <ele>29</ele>
        <time>2025-02-26T16:03:21Z</time>
      </trkpt>
      <trkpt lat="43.47712" lon="6.57234">
        <ele>28.9</ele>
        <time>2025-02-26T16:03:22Z</time>
      </trkpt>
      <trkpt lat="43.47712" lon="6.57234">
        <ele>28.9</ele>
        <time>2025-02-26T16:03:23Z</time>
      </trkpt>
      <trkpt lat="43.47712" lon="6.57234">
        <ele>28.9</ele>
        <time>2025-02-26T16:03:24Z</time>
      </trkpt>
      <trkpt lat="43.47712" lon="6.57234">
        <ele>28.9</ele>
        <time>2025-02-26T16:03:25Z</time>
      </trkpt>
      <trkpt lat="43.47712" lon="6.57234">
        <ele>28.9</ele>
        <time>2025-02-26T16:03:26Z</time>
      </trkpt>
      <trkpt lat="43.47712" lon="6.57234">
        <ele>28.9</ele>
        <time>2025-02-26T16:03:27Z</time>
      </trkpt>
      <trkpt lat="43.47712" lon="6.57234">
        <ele>28.9</ele>
        <time>2025-02-26T16:03:28Z</time>
      </trkpt>
      <trkpt lat="43.47712" lon="6.57234">
        <ele>28.9</ele>
        <time>2025-02-26T16:03:29Z</time>
      </trkpt>
      <trkpt lat="43.47712" lon="6.57234">
        <ele>28.9</ele>
        <time>2025-02-26T16:03:30Z</time>
      </trkpt>
      <trkpt lat="43.47712" lon="6.57234">
        <ele>28.8</ele>
        <time>2025-02-26T16:03:31Z</time>
      </trkpt>
      <trkpt lat="43.47712" lon="6.57234">
        <ele>28.8</ele>
        <time>2025-02-26T16:03:32Z</time>
      </trkpt>
      <trkpt lat="43.47711" lon="6.57234">
        <ele>28.8</ele>
        <time>2025-02-26T16:03:33Z</time>
      </trkpt>
      <trkpt lat="43.47711" lon="6.57233">
        <ele>28.9</ele>
        <time>2025-02-26T16:03:34Z</time>
      </trkpt>
      <trkpt lat="43.47711" lon="6.57233">
        <ele>28.9</ele>
        <time>2025-02-26T16:03:35Z</time>
      </trkpt>
      <trkpt lat="43.47711" lon="6.57233">
        <ele>28.9</ele>
        <time>2025-02-26T16:03:36Z</time>
      </trkpt>
      <trkpt lat="43.47711" lon="6.57233">
        <ele>28.8</ele>
        <time>2025-02-26T16:03:37Z</time>
      </trkpt>
      <trkpt lat="43.47711" lon="6.57233">
        <ele>28.8</ele>
        <time>2025-02-26T16:03:38Z</time>
      </trkpt>
      <trkpt lat="43.47711" lon="6.57233">
        <ele>28.9</ele>
        <time>2025-02-26T16:03:39Z</time>
      </trkpt>
      <trkpt lat="43.47711" lon="6.57233">
        <ele>28.8</ele>
        <time>2025-02-26T16:03:40Z</time>
      </trkpt>
      <trkpt lat="43.47711" lon="6.57233">
        <ele>28.8</ele>
        <time>2025-02-26T16:03:41Z</time>
      </trkpt>
      <trkpt lat="43.47711" lon="6.57232">
        <ele>28.6</ele>
        <time>2025-02-26T16:03:42Z</time>
      </trkpt>
      <trkpt lat="43.47711" lon="6.57232">
        <ele>28.6</ele>
        <time>2025-02-26T16:03:43Z</time>
      </trkpt>
      <trkpt lat="43.47711" lon="6.57232">
        <ele>28.5</ele>
        <time>2025-02-26T16:03:44Z</time>
      </trkpt>
      <trkpt lat="43.47711" lon="6.57232">
        <ele>28.5</ele>
        <time>2025-02-26T16:03:45Z</time>
      </trkpt>
      <trkpt lat="43.47711" lon="6.57232">
        <ele>28.5</ele>
        <time>2025-02-26T16:03:46Z</time>
      </trkpt>
      <trkpt lat="43.47711" lon="6.57232">
        <ele>28.5</ele>
        <time>2025-02-26T16:03:47Z</time>
      </trkpt>
      <trkpt lat="43.47711" lon="6.57232">
        <ele>28.6</ele>
        <time>2025-02-26T16:03:48Z</time>
      </trkpt>
      <trkpt lat="43.47711" lon="6.57232">
        <ele>28.6</ele>
        <time>2025-02-26T16:03:49Z</time>
      </trkpt>
      <trkpt lat="43.47711" lon="6.57232">
        <ele>28.6</ele>
        <time>2025-02-26T16:03:50Z</time>
      </trkpt>
      <trkpt lat="43.47711" lon="6.57232">
        <ele>28.6</ele>
        <time>2025-02-26T16:03:51Z</time>
      </trkpt>
      <trkpt lat="43.47711" lon="6.57232">
        <ele>28.6</ele>
        <time>2025-02-26T16:03:52Z</time>
      </trkpt>
      <trkpt lat="43.47711" lon="6.57232">
        <ele>28.6</ele>
        <time>2025-02-26T16:03:53Z</time>
      </trkpt>
      <trkpt lat="43.47711" lon="6.57232">
        <ele>28.6</ele>
        <time>2025-02-26T16:03:54Z</time>
      </trkpt>
      <trkpt lat="43.47711" lon="6.57233">
        <ele>28.6</ele>
        <time>2025-02-26T16:03:55Z</time>
      </trkpt>
      <trkpt lat="43.47711" lon="6.57233">
        <ele>28.6</ele>
        <time>2025-02-26T16:03:56Z</time>
      </trkpt>
      <trkpt lat="43.47712" lon="6.57233">
        <ele>28.6</ele>
        <time>2025-02-26T16:03:57Z</time>
      </trkpt>
      <trkpt lat="43.47712" lon="6.57233">
        <ele>28.6</ele>
        <time>2025-02-26T16:03:58Z</time>
      </trkpt>
      <trkpt lat="43.47713" lon="6.57234">
        <ele>28.7</ele>
        <time>2025-02-26T16:03:59Z</time>
      </trkpt>
      <trkpt lat="43.47714" lon="6.57235">
        <ele>28.7</ele>
        <time>2025-02-26T16:04:00Z</time>
      </trkpt>
      <trkpt lat="43.47715" lon="6.57236">
        <ele>28.8</ele>
        <time>2025-02-26T16:04:01Z</time>
      </trkpt>
      <trkpt lat="43.47716" lon="6.57236">
        <ele>28.8</ele>
        <time>2025-02-26T16:04:02Z</time>
      </trkpt>
      <trkpt lat="43.47717" lon="6.57237">
        <ele>28.9</ele>
        <time>2025-02-26T16:04:03Z</time>
      </trkpt>
      <trkpt lat="43.47718" lon="6.57237">
        <ele>28.8</ele>
        <time>2025-02-26T16:04:04Z</time>
      </trkpt>
      <trkpt lat="43.47719" lon="6.57238">
        <ele>28.7</ele>
        <time>2025-02-26T16:04:05Z</time>
      </trkpt>
      <trkpt lat="43.4772" lon="6.57238">
        <ele>28.4</ele>
        <time>2025-02-26T16:04:06Z</time>
      </trkpt>
      <trkpt lat="43.47722" lon="6.57238">
        <ele>28.2</ele>
        <time>2025-02-26T16:04:07Z</time>
      </trkpt>
      <trkpt lat="43.47723" lon="6.57238">
        <ele>28</ele>
        <time>2025-02-26T16:04:08Z</time>
      </trkpt>
      <trkpt lat="43.47724" lon="6.57238">
        <ele>27.9</ele>
        <time>2025-02-26T16:04:09Z</time>
      </trkpt>
      <trkpt lat="43.47724" lon="6.57238">
        <ele>27.8</ele>
        <time>2025-02-26T16:04:10Z</time>
      </trkpt>
      <trkpt lat="43.47725" lon="6.57237">
        <ele>27.7</ele>
        <time>2025-02-26T16:04:11Z</time>
      </trkpt>
      <trkpt lat="43.47726" lon="6.57236">
        <ele>27.7</ele>
        <time>2025-02-26T16:04:12Z</time>
      </trkpt>
      <trkpt lat="43.47726" lon="6.57235">
        <ele>27.6</ele>
        <time>2025-02-26T16:04:13Z</time>
      </trkpt>
      <trkpt lat="43.47727" lon="6.57234">
        <ele>27.5</ele>
        <time>2025-02-26T16:04:14Z</time>
      </trkpt>
      <trkpt lat="43.47728" lon="6.57233">
        <ele>27.5</ele>
        <time>2025-02-26T16:04:15Z</time>
      </trkpt>
      <trkpt lat="43.47729" lon="6.57233">
        <ele>27.4</ele>
        <time>2025-02-26T16:04:16Z</time>
      </trkpt>
      <trkpt lat="43.4773" lon="6.57231">
        <ele>27.4</ele>
        <time>2025-02-26T16:04:17Z</time>
      </trkpt>
      <trkpt lat="43.47731" lon="6.5723">
        <ele>27.3</ele>
        <time>2025-02-26T16:04:18Z</time>
      </trkpt>
      <trkpt lat="43.47732" lon="6.57229">
        <ele>27.3</ele>
        <time>2025-02-26T16:04:19Z</time>
      </trkpt>
      <trkpt lat="43.47733" lon="6.57228">
        <ele>27.3</ele>
        <time>2025-02-26T16:04:20Z</time>
      </trkpt>
      <trkpt lat="43.47733" lon="6.57227">
        <ele>27.4</ele>
        <time>2025-02-26T16:04:21Z</time>
      </trkpt>
      <trkpt lat="43.47734" lon="6.57227">
        <ele>27.4</ele>
        <time>2025-02-26T16:04:22Z</time>
      </trkpt>
      <trkpt lat="43.47735" lon="6.57227">
        <ele>27.4</ele>
        <time>2025-02-26T16:04:23Z</time>
      </trkpt>
      <trkpt lat="43.47736" lon="6.57226">
        <ele>27.5</ele>
        <time>2025-02-26T16:04:24Z</time>
      </trkpt>
      <trkpt lat="43.47737" lon="6.57225">
        <ele>27.4</ele>
        <time>2025-02-26T16:04:25Z</time>
      </trkpt>
      <trkpt lat="43.47737" lon="6.57225">
        <ele>27.4</ele>
        <time>2025-02-26T16:04:26Z</time>
      </trkpt>
      <trkpt lat="43.47738" lon="6.57224">
        <ele>27.4</ele>
        <time>2025-02-26T16:04:27Z</time>
      </trkpt>
      <trkpt lat="43.47739" lon="6.57224">
        <ele>27.3</ele>
        <time>2025-02-26T16:04:28Z</time>
      </trkpt>
      <trkpt lat="43.4774" lon="6.57224">
        <ele>27</ele>
        <time>2025-02-26T16:04:29Z</time>
      </trkpt>
      <trkpt lat="43.47741" lon="6.57224">
        <ele>26.9</ele>
        <time>2025-02-26T16:04:30Z</time>
      </trkpt>
      <trkpt lat="43.47743" lon="6.57224">
        <ele>26.6</ele>
        <time>2025-02-26T16:04:31Z</time>
      </trkpt>
      <trkpt lat="43.47744" lon="6.57224">
        <ele>26.5</ele>
        <time>2025-02-26T16:04:32Z</time>
      </trkpt>
      <trkpt lat="43.47746" lon="6.57224">
        <ele>26.3</ele>
        <time>2025-02-26T16:04:33Z</time>
      </trkpt>
      <trkpt lat="43.47748" lon="6.57224">
        <ele>26.3</ele>
        <time>2025-02-26T16:04:34Z</time>
      </trkpt>
      <trkpt lat="43.4775" lon="6.57224">
        <ele>26.3</ele>
        <time>2025-02-26T16:04:35Z</time>
      </trkpt>
      <trkpt lat="43.47751" lon="6.57224">
        <ele>26.2</ele>
        <time>2025-02-26T16:04:36Z</time>
      </trkpt>
      <trkpt lat="43.47753" lon="6.57224">
        <ele>26.3</ele>
        <time>2025-02-26T16:04:37Z</time>
      </trkpt>
      <trkpt lat="43.47754" lon="6.57224">
        <ele>26.3</ele>
        <time>2025-02-26T16:04:38Z</time>
      </trkpt>
      <trkpt lat="43.47755" lon="6.57223">
        <ele>26.2</ele>
        <time>2025-02-26T16:04:39Z</time>
      </trkpt>
      <trkpt lat="43.47756" lon="6.57223">
        <ele>26.2</ele>
        <time>2025-02-26T16:04:40Z</time>
      </trkpt>
      <trkpt lat="43.47758" lon="6.57223">
        <ele>26.3</ele>
        <time>2025-02-26T16:04:41Z</time>
      </trkpt>
      <trkpt lat="43.47759" lon="6.57223">
        <ele>26.4</ele>
        <time>2025-02-26T16:04:42Z</time>
      </trkpt>
      <trkpt lat="43.4776" lon="6.57223">
        <ele>26.3</ele>
        <time>2025-02-26T16:04:43Z</time>
      </trkpt>
      <trkpt lat="43.47761" lon="6.57223">
        <ele>26.3</ele>
        <time>2025-02-26T16:04:44Z</time>
      </trkpt>
      <trkpt lat="43.47763" lon="6.57223">
        <ele>26.3</ele>
        <time>2025-02-26T16:04:45Z</time>
      </trkpt>
      <trkpt lat="43.47765" lon="6.57223">
        <ele>26.4</ele>
        <time>2025-02-26T16:04:46Z</time>
      </trkpt>
      <trkpt lat="43.47766" lon="6.57223">
        <ele>26.4</ele>
        <time>2025-02-26T16:04:47Z</time>
      </trkpt>
      <trkpt lat="43.47767" lon="6.57223">
        <ele>26.4</ele>
        <time>2025-02-26T16:04:48Z</time>
      </trkpt>
      <trkpt lat="43.47769" lon="6.57223">
        <ele>26.5</ele>
        <time>2025-02-26T16:04:49Z</time>
      </trkpt>
      <trkpt lat="43.4777" lon="6.57223">
        <ele>26.5</ele>
        <time>2025-02-26T16:04:50Z</time>
      </trkpt>
      <trkpt lat="43.47771" lon="6.57223">
        <ele>26.5</ele>
        <time>2025-02-26T16:04:51Z</time>
      </trkpt>
      <trkpt lat="43.47773" lon="6.57223">
        <ele>26.6</ele>
        <time>2025-02-26T16:04:52Z</time>
      </trkpt>
      <trkpt lat="43.47774" lon="6.57223">
        <ele>26.5</ele>
        <time>2025-02-26T16:04:53Z</time>
      </trkpt>
      <trkpt lat="43.47775" lon="6.57223">
        <ele>26.6</ele>
        <time>2025-02-26T16:04:54Z</time>
      </trkpt>
      <trkpt lat="43.47776" lon="6.57222">
        <ele>26.7</ele>
        <time>2025-02-26T16:04:55Z</time>
      </trkpt>
      <trkpt lat="43.47777" lon="6.57222">
        <ele>26.8</ele>
        <time>2025-02-26T16:04:56Z</time>
      </trkpt>
      <trkpt lat="43.47778" lon="6.57222">
        <ele>26.9</ele>
        <time>2025-02-26T16:04:57Z</time>
      </trkpt>
      <trkpt lat="43.47779" lon="6.57222">
        <ele>27</ele>
        <time>2025-02-26T16:04:58Z</time>
      </trkpt>
      <trkpt lat="43.4778" lon="6.57222">
        <ele>27.2</ele>
        <time>2025-02-26T16:04:59Z</time>
      </trkpt>
      <trkpt lat="43.4778" lon="6.57221">
        <ele>27.2</ele>
        <time>2025-02-26T16:05:00Z</time>
      </trkpt>
      <trkpt lat="43.47782" lon="6.57221">
        <ele>27.3</ele>
        <time>2025-02-26T16:05:01Z</time>
      </trkpt>
      <trkpt lat="43.47783" lon="6.5722">
        <ele>27.1</ele>
        <time>2025-02-26T16:05:02Z</time>
      </trkpt>
      <trkpt lat="43.47785" lon="6.57219">
        <ele>27.1</ele>
        <time>2025-02-26T16:05:03Z</time>
      </trkpt>
      <trkpt lat="43.47787" lon="6.57219">
        <ele>27.1</ele>
        <time>2025-02-26T16:05:04Z</time>
      </trkpt>
      <trkpt lat="43.47788" lon="6.57219">
        <ele>27.1</ele>
        <time>2025-02-26T16:05:05Z</time>
      </trkpt>
      <trkpt lat="43.47789" lon="6.57219">
        <ele>27.1</ele>
        <time>2025-02-26T16:05:06Z</time>
      </trkpt>
      <trkpt lat="43.4779" lon="6.57219">
        <ele>27.1</ele>
        <time>2025-02-26T16:05:07Z</time>
      </trkpt>
      <trkpt lat="43.47792" lon="6.57218">
        <ele>27</ele>
        <time>2025-02-26T16:05:08Z</time>
      </trkpt>
      <trkpt lat="43.47793" lon="6.57217">
        <ele>26.9</ele>
        <time>2025-02-26T16:05:09Z</time>
      </trkpt>
      <trkpt lat="43.47794" lon="6.57217">
        <ele>26.9</ele>
        <time>2025-02-26T16:05:10Z</time>
      </trkpt>
      <trkpt lat="43.47795" lon="6.57216">
        <ele>26.8</ele>
        <time>2025-02-26T16:05:11Z</time>
      </trkpt>
      <trkpt lat="43.47797" lon="6.57216">
        <ele>26.8</ele>
        <time>2025-02-26T16:05:12Z</time>
      </trkpt>
      <trkpt lat="43.47798" lon="6.57216">
        <ele>26.7</ele>
        <time>2025-02-26T16:05:13Z</time>
      </trkpt>
      <trkpt lat="43.47799" lon="6.57216">
        <ele>26.6</ele>
        <time>2025-02-26T16:05:14Z</time>
      </trkpt>
      <trkpt lat="43.478" lon="6.57216">
        <ele>26.3</ele>
        <time>2025-02-26T16:05:15Z</time>
      </trkpt>
      <trkpt lat="43.478" lon="6.57216">
        <ele>26.2</ele>
        <time>2025-02-26T16:05:16Z</time>
      </trkpt>
      <trkpt lat="43.47801" lon="6.57216">
        <ele>26</ele>
        <time>2025-02-26T16:05:17Z</time>
      </trkpt>
      <trkpt lat="43.47801" lon="6.57216">
        <ele>25.8</ele>
        <time>2025-02-26T16:05:18Z</time>
      </trkpt>
      <trkpt lat="43.47802" lon="6.57216">
        <ele>25.6</ele>
        <time>2025-02-26T16:05:19Z</time>
      </trkpt>
      <trkpt lat="43.47803" lon="6.57216">
        <ele>25.5</ele>
        <time>2025-02-26T16:05:20Z</time>
      </trkpt>
      <trkpt lat="43.47804" lon="6.57216">
        <ele>25.5</ele>
        <time>2025-02-26T16:05:21Z</time>
      </trkpt>
      <trkpt lat="43.47806" lon="6.57216">
        <ele>25.1</ele>
        <time>2025-02-26T16:05:22Z</time>
      </trkpt>
      <trkpt lat="43.47807" lon="6.57216">
        <ele>24.9</ele>
        <time>2025-02-26T16:05:23Z</time>
      </trkpt>
      <trkpt lat="43.47808" lon="6.57216">
        <ele>24.8</ele>
        <time>2025-02-26T16:05:24Z</time>
      </trkpt>
      <trkpt lat="43.47808" lon="6.57216">
        <ele>24.7</ele>
        <time>2025-02-26T16:05:25Z</time>
      </trkpt>
      <trkpt lat="43.47809" lon="6.57216">
        <ele>24.7</ele>
        <time>2025-02-26T16:05:26Z</time>
      </trkpt>
      <trkpt lat="43.4781" lon="6.57215">
        <ele>24.5</ele>
        <time>2025-02-26T16:05:27Z</time>
      </trkpt>
      <trkpt lat="43.47811" lon="6.57214">
        <ele>24.3</ele>
        <time>2025-02-26T16:05:28Z</time>
      </trkpt>
      <trkpt lat="43.47813" lon="6.57214">
        <ele>24.3</ele>
        <time>2025-02-26T16:05:29Z</time>
      </trkpt>
      <trkpt lat="43.47815" lon="6.57214">
        <ele>24.2</ele>
        <time>2025-02-26T16:05:30Z</time>
      </trkpt>
      <trkpt lat="43.47816" lon="6.57213">
        <ele>24.2</ele>
        <time>2025-02-26T16:05:31Z</time>
      </trkpt>
      <trkpt lat="43.47817" lon="6.57212">
        <ele>24.1</ele>
        <time>2025-02-26T16:05:32Z</time>
      </trkpt>
      <trkpt lat="43.47819" lon="6.57212">
        <ele>23.9</ele>
        <time>2025-02-26T16:05:33Z</time>
      </trkpt>
      <trkpt lat="43.47821" lon="6.57212">
        <ele>23.8</ele>
        <time>2025-02-26T16:05:34Z</time>
      </trkpt>
      <trkpt lat="43.47823" lon="6.57212">
        <ele>23.8</ele>
        <time>2025-02-26T16:05:35Z</time>
      </trkpt>
      <trkpt lat="43.47825" lon="6.57212">
        <ele>23.6</ele>
        <time>2025-02-26T16:05:36Z</time>
      </trkpt>
      <trkpt lat="43.47826" lon="6.57211">
        <ele>23.6</ele>
        <time>2025-02-26T16:05:37Z</time>
      </trkpt>
      <trkpt lat="43.47827" lon="6.5721">
        <ele>23.5</ele>
        <time>2025-02-26T16:05:38Z</time>
      </trkpt>
      <trkpt lat="43.47828" lon="6.57209">
        <ele>23.4</ele>
        <time>2025-02-26T16:05:39Z</time>
      </trkpt>
      <trkpt lat="43.47829" lon="6.57208">
        <ele>23.3</ele>
        <time>2025-02-26T16:05:40Z</time>
      </trkpt>
      <trkpt lat="43.47831" lon="6.57207">
        <ele>23</ele>
        <time>2025-02-26T16:05:41Z</time>
      </trkpt>
      <trkpt lat="43.47833" lon="6.57207">
        <ele>22.8</ele>
        <time>2025-02-26T16:05:42Z</time>
      </trkpt>
      <trkpt lat="43.47834" lon="6.57206">
        <ele>22.6</ele>
        <time>2025-02-26T16:05:43Z</time>
      </trkpt>
      <trkpt lat="43.47835" lon="6.57205">
        <ele>22.3</ele>
        <time>2025-02-26T16:05:44Z</time>
      </trkpt>
      <trkpt lat="43.47836" lon="6.57204">
        <ele>22.1</ele>
        <time>2025-02-26T16:05:45Z</time>
      </trkpt>
      <trkpt lat="43.47838" lon="6.57203">
        <ele>22.1</ele>
        <time>2025-02-26T16:05:46Z</time>
      </trkpt>
      <trkpt lat="43.47839" lon="6.57202">
        <ele>21.9</ele>
        <time>2025-02-26T16:05:47Z</time>
      </trkpt>
      <trkpt lat="43.47841" lon="6.57201">
        <ele>21.6</ele>
        <time>2025-02-26T16:05:48Z</time>
      </trkpt>
      <trkpt lat="43.47842" lon="6.572">
        <ele>21.5</ele>
        <time>2025-02-26T16:05:49Z</time>
      </trkpt>
      <trkpt lat="43.47843" lon="6.572">
        <ele>21.6</ele>
        <time>2025-02-26T16:05:50Z</time>
      </trkpt>
      <trkpt lat="43.47845" lon="6.57199">
        <ele>21.6</ele>
        <time>2025-02-26T16:05:51Z</time>
      </trkpt>
      <trkpt lat="43.47846" lon="6.57198">
        <ele>21.5</ele>
        <time>2025-02-26T16:05:52Z</time>
      </trkpt>
      <trkpt lat="43.47847" lon="6.57197">
        <ele>21.5</ele>
        <time>2025-02-26T16:05:53Z</time>
      </trkpt>
      <trkpt lat="43.47848" lon="6.57197">
        <ele>21.6</ele>
        <time>2025-02-26T16:05:54Z</time>
      </trkpt>
      <trkpt lat="43.47849" lon="6.57196">
        <ele>21.8</ele>
        <time>2025-02-26T16:05:55Z</time>
      </trkpt>
      <trkpt lat="43.4785" lon="6.57195">
        <ele>21.9</ele>
        <time>2025-02-26T16:05:56Z</time>
      </trkpt>
      <trkpt lat="43.47852" lon="6.57194">
        <ele>21.9</ele>
        <time>2025-02-26T16:05:57Z</time>
      </trkpt>
      <trkpt lat="43.47854" lon="6.57193">
        <ele>21.9</ele>
        <time>2025-02-26T16:05:58Z</time>
      </trkpt>
      <trkpt lat="43.47855" lon="6.57192">
        <ele>21.9</ele>
        <time>2025-02-26T16:05:59Z</time>
      </trkpt>
      <trkpt lat="43.47857" lon="6.57191">
        <ele>21.8</ele>
        <time>2025-02-26T16:06:00Z</time>
      </trkpt>
      <trkpt lat="43.47859" lon="6.57191">
        <ele>21.8</ele>
        <time>2025-02-26T16:06:01Z</time>
      </trkpt>
      <trkpt lat="43.4786" lon="6.5719">
        <ele>21.8</ele>
        <time>2025-02-26T16:06:02Z</time>
      </trkpt>
      <trkpt lat="43.47861" lon="6.57189">
        <ele>21.6</ele>
        <time>2025-02-26T16:06:03Z</time>
      </trkpt>
      <trkpt lat="43.47862" lon="6.57188">
        <ele>21.5</ele>
        <time>2025-02-26T16:06:04Z</time>
      </trkpt>
      <trkpt lat="43.47864" lon="6.57187">
        <ele>21.3</ele>
        <time>2025-02-26T16:06:05Z</time>
      </trkpt>
      <trkpt lat="43.47864" lon="6.57186">
        <ele>21.2</ele>
        <time>2025-02-26T16:06:06Z</time>
      </trkpt>
      <trkpt lat="43.47865" lon="6.57184">
        <ele>21.2</ele>
        <time>2025-02-26T16:06:07Z</time>
      </trkpt>
      <trkpt lat="43.47866" lon="6.57183">
        <ele>21.2</ele>
        <time>2025-02-26T16:06:08Z</time>
      </trkpt>
      <trkpt lat="43.47868" lon="6.57182">
        <ele>21.2</ele>
        <time>2025-02-26T16:06:09Z</time>
      </trkpt>
      <trkpt lat="43.47868" lon="6.57181">
        <ele>21.3</ele>
        <time>2025-02-26T16:06:10Z</time>
      </trkpt>
      <trkpt lat="43.47869" lon="6.57179">
        <ele>21.4</ele>
        <time>2025-02-26T16:06:11Z</time>
      </trkpt>
      <trkpt lat="43.4787" lon="6.57178">
        <ele>21.2</ele>
        <time>2025-02-26T16:06:12Z</time>
      </trkpt>
      <trkpt lat="43.47871" lon="6.57177">
        <ele>21.1</ele>
        <time>2025-02-26T16:06:13Z</time>
      </trkpt>
      <trkpt lat="43.47872" lon="6.57175">
        <ele>21</ele>
        <time>2025-02-26T16:06:14Z</time>
      </trkpt>
      <trkpt lat="43.47873" lon="6.57174">
        <ele>21</ele>
        <time>2025-02-26T16:06:15Z</time>
      </trkpt>
      <trkpt lat="43.47874" lon="6.57173">
        <ele>21</ele>
        <time>2025-02-26T16:06:16Z</time>
      </trkpt>
      <trkpt lat="43.47875" lon="6.57172">
        <ele>20.9</ele>
        <time>2025-02-26T16:06:17Z</time>
      </trkpt>
      <trkpt lat="43.47876" lon="6.5717">
        <ele>20.8</ele>
        <time>2025-02-26T16:06:18Z</time>
      </trkpt>
      <trkpt lat="43.47877" lon="6.57169">
        <ele>20.7</ele>
        <time>2025-02-26T16:06:19Z</time>
      </trkpt>
      <trkpt lat="43.47879" lon="6.57169">
        <ele>20.7</ele>
        <time>2025-02-26T16:06:20Z</time>
      </trkpt>
      <trkpt lat="43.47881" lon="6.57168">
        <ele>20.7</ele>
        <time>2025-02-26T16:06:21Z</time>
      </trkpt>
      <trkpt lat="43.47881" lon="6.57166">
        <ele>20.7</ele>
        <time>2025-02-26T16:06:22Z</time>
      </trkpt>
      <trkpt lat="43.47883" lon="6.57165">
        <ele>20.4</ele>
        <time>2025-02-26T16:06:23Z</time>
      </trkpt>
      <trkpt lat="43.47885" lon="6.57165">
        <ele>20.4</ele>
        <time>2025-02-26T16:06:24Z</time>
      </trkpt>
      <trkpt lat="43.47886" lon="6.57164">
        <ele>20.3</ele>
        <time>2025-02-26T16:06:25Z</time>
      </trkpt>
      <trkpt lat="43.47887" lon="6.57164">
        <ele>20.2</ele>
        <time>2025-02-26T16:06:26Z</time>
      </trkpt>
      <trkpt lat="43.47888" lon="6.57163">
        <ele>20.1</ele>
        <time>2025-02-26T16:06:27Z</time>
      </trkpt>
      <trkpt lat="43.47889" lon="6.57162">
        <ele>20</ele>
        <time>2025-02-26T16:06:28Z</time>
      </trkpt>
      <trkpt lat="43.47891" lon="6.57162">
        <ele>20.1</ele>
        <time>2025-02-26T16:06:29Z</time>
      </trkpt>
      <trkpt lat="43.47893" lon="6.57161">
        <ele>20</ele>
        <time>2025-02-26T16:06:30Z</time>
      </trkpt>
      <trkpt lat="43.47894" lon="6.5716">
        <ele>20</ele>
        <time>2025-02-26T16:06:31Z</time>
      </trkpt>
      <trkpt lat="43.47896" lon="6.5716">
        <ele>20</ele>
        <time>2025-02-26T16:06:32Z</time>
      </trkpt>
      <trkpt lat="43.47898" lon="6.57159">
        <ele>19.8</ele>
        <time>2025-02-26T16:06:33Z</time>
      </trkpt>
      <trkpt lat="43.47899" lon="6.57158">
        <ele>19.7</ele>
        <time>2025-02-26T16:06:34Z</time>
      </trkpt>
      <trkpt lat="43.479" lon="6.57157">
        <ele>19.7</ele>
        <time>2025-02-26T16:06:35Z</time>
      </trkpt>
      <trkpt lat="43.47902" lon="6.57156">
        <ele>19.6</ele>
        <time>2025-02-26T16:06:36Z</time>
      </trkpt>
      <trkpt lat="43.47903" lon="6.57155">
        <ele>19.6</ele>
        <time>2025-02-26T16:06:37Z</time>
      </trkpt>
      <trkpt lat="43.47904" lon="6.57154">
        <ele>19.5</ele>
        <time>2025-02-26T16:06:38Z</time>
      </trkpt>
      <trkpt lat="43.47905" lon="6.57153">
        <ele>19.5</ele>
        <time>2025-02-26T16:06:39Z</time>
      </trkpt>
      <trkpt lat="43.47907" lon="6.57152">
        <ele>19.4</ele>
        <time>2025-02-26T16:06:40Z</time>
      </trkpt>
      <trkpt lat="43.47908" lon="6.57151">
        <ele>19.4</ele>
        <time>2025-02-26T16:06:41Z</time>
      </trkpt>
      <trkpt lat="43.47908" lon="6.5715">
        <ele>19.4</ele>
        <time>2025-02-26T16:06:42Z</time>
      </trkpt>
      <trkpt lat="43.4791" lon="6.57149">
        <ele>19.3</ele>
        <time>2025-02-26T16:06:43Z</time>
      </trkpt>
      <trkpt lat="43.4791" lon="6.57148">
        <ele>19.3</ele>
        <time>2025-02-26T16:06:44Z</time>
      </trkpt>
      <trkpt lat="43.47911" lon="6.57147">
        <ele>19.3</ele>
        <time>2025-02-26T16:06:45Z</time>
      </trkpt>
      <trkpt lat="43.47912" lon="6.57147">
        <ele>19.4</ele>
        <time>2025-02-26T16:06:46Z</time>
      </trkpt>
      <trkpt lat="43.47913" lon="6.57148">
        <ele>19.4</ele>
        <time>2025-02-26T16:06:47Z</time>
      </trkpt>
      <trkpt lat="43.47915" lon="6.57147">
        <ele>19.2</ele>
        <time>2025-02-26T16:06:48Z</time>
      </trkpt>
      <trkpt lat="43.47916" lon="6.57147">
        <ele>19.1</ele>
        <time>2025-02-26T16:06:49Z</time>
      </trkpt>
      <trkpt lat="43.47917" lon="6.57147">
        <ele>19</ele>
        <time>2025-02-26T16:06:50Z</time>
      </trkpt>
      <trkpt lat="43.47918" lon="6.57147">
        <ele>19</ele>
        <time>2025-02-26T16:06:51Z</time>
      </trkpt>
      <trkpt lat="43.47919" lon="6.57147">
        <ele>19.1</ele>
        <time>2025-02-26T16:06:52Z</time>
      </trkpt>
      <trkpt lat="43.4792" lon="6.57146">
        <ele>19.1</ele>
        <time>2025-02-26T16:06:53Z</time>
      </trkpt>
      <trkpt lat="43.47921" lon="6.57146">
        <ele>19.1</ele>
        <time>2025-02-26T16:06:54Z</time>
      </trkpt>
      <trkpt lat="43.47921" lon="6.57145">
        <ele>19.1</ele>
        <time>2025-02-26T16:06:55Z</time>
      </trkpt>
      <trkpt lat="43.47922" lon="6.57145">
        <ele>19.1</ele>
        <time>2025-02-26T16:06:56Z</time>
      </trkpt>
      <trkpt lat="43.47924" lon="6.57145">
        <ele>19.1</ele>
        <time>2025-02-26T16:06:57Z</time>
      </trkpt>
      <trkpt lat="43.47925" lon="6.57144">
        <ele>19.2</ele>
        <time>2025-02-26T16:06:58Z</time>
      </trkpt>
      <trkpt lat="43.47926" lon="6.57143">
        <ele>19.2</ele>
        <time>2025-02-26T16:06:59Z</time>
      </trkpt>
      <trkpt lat="43.47928" lon="6.57143">
        <ele>19.2</ele>
        <time>2025-02-26T16:07:00Z</time>
      </trkpt>
      <trkpt lat="43.47929" lon="6.57142">
        <ele>19.2</ele>
        <time>2025-02-26T16:07:01Z</time>
      </trkpt>
      <trkpt lat="43.4793" lon="6.57142">
        <ele>19.2</ele>
        <time>2025-02-26T16:07:02Z</time>
      </trkpt>
      <trkpt lat="43.47931" lon="6.57141">
        <ele>19.2</ele>
        <time>2025-02-26T16:07:03Z</time>
      </trkpt>
      <trkpt lat="43.47932" lon="6.57141">
        <ele>19.3</ele>
        <time>2025-02-26T16:07:04Z</time>
      </trkpt>
      <trkpt lat="43.47933" lon="6.5714">
        <ele>19.5</ele>
        <time>2025-02-26T16:07:05Z</time>
      </trkpt>
      <trkpt lat="43.47934" lon="6.5714">
        <ele>19.6</ele>
        <time>2025-02-26T16:07:06Z</time>
      </trkpt>
      <trkpt lat="43.47934" lon="6.5714">
        <ele>19.6</ele>
        <time>2025-02-26T16:07:07Z</time>
      </trkpt>
      <trkpt lat="43.47935" lon="6.5714">
        <ele>19.8</ele>
        <time>2025-02-26T16:07:08Z</time>
      </trkpt>
      <trkpt lat="43.47937" lon="6.5714">
        <ele>19.8</ele>
        <time>2025-02-26T16:07:09Z</time>
      </trkpt>
      <trkpt lat="43.47938" lon="6.57139">
        <ele>19.9</ele>
        <time>2025-02-26T16:07:10Z</time>
      </trkpt>
      <trkpt lat="43.47939" lon="6.57139">
        <ele>20</ele>
        <time>2025-02-26T16:07:11Z</time>
      </trkpt>
      <trkpt lat="43.47939" lon="6.57139">
        <ele>20</ele>
        <time>2025-02-26T16:07:12Z</time>
      </trkpt>
      <trkpt lat="43.4794" lon="6.57139">
        <ele>20.3</ele>
        <time>2025-02-26T16:07:13Z</time>
      </trkpt>
      <trkpt lat="43.47941" lon="6.57139">
        <ele>20.4</ele>
        <time>2025-02-26T16:07:14Z</time>
      </trkpt>
      <trkpt lat="43.47942" lon="6.57139">
        <ele>20.5</ele>
        <time>2025-02-26T16:07:15Z</time>
      </trkpt>
      <trkpt lat="43.47943" lon="6.57138">
        <ele>20.6</ele>
        <time>2025-02-26T16:07:16Z</time>
      </trkpt>
      <trkpt lat="43.47944" lon="6.57138">
        <ele>20.6</ele>
        <time>2025-02-26T16:07:17Z</time>
      </trkpt>
      <trkpt lat="43.47945" lon="6.57138">
        <ele>20.6</ele>
        <time>2025-02-26T16:07:18Z</time>
      </trkpt>
      <trkpt lat="43.47946" lon="6.57138">
        <ele>20.5</ele>
        <time>2025-02-26T16:07:19Z</time>
      </trkpt>
      <trkpt lat="43.47948" lon="6.57138">
        <ele>20.6</ele>
        <time>2025-02-26T16:07:20Z</time>
      </trkpt>
      <trkpt lat="43.47949" lon="6.57138">
        <ele>20.7</ele>
        <time>2025-02-26T16:07:21Z</time>
      </trkpt>
      <trkpt lat="43.47949" lon="6.57138">
        <ele>20.7</ele>
        <time>2025-02-26T16:07:22Z</time>
      </trkpt>
      <trkpt lat="43.47949" lon="6.57139">
        <ele>20.8</ele>
        <time>2025-02-26T16:07:23Z</time>
      </trkpt>
      <trkpt lat="43.47949" lon="6.57137">
        <ele>20.8</ele>
        <time>2025-02-26T16:07:24Z</time>
      </trkpt>
      <trkpt lat="43.47951" lon="6.57137">
        <ele>20.9</ele>
        <time>2025-02-26T16:07:25Z</time>
      </trkpt>
      <trkpt lat="43.47951" lon="6.57136">
        <ele>20.9</ele>
        <time>2025-02-26T16:07:26Z</time>
      </trkpt>
      <trkpt lat="43.47952" lon="6.57136">
        <ele>21</ele>
        <time>2025-02-26T16:07:27Z</time>
      </trkpt>
      <trkpt lat="43.47953" lon="6.57136">
        <ele>20.9</ele>
        <time>2025-02-26T16:07:28Z</time>
      </trkpt>
      <trkpt lat="43.47954" lon="6.57136">
        <ele>20.9</ele>
        <time>2025-02-26T16:07:29Z</time>
      </trkpt>
      <trkpt lat="43.47955" lon="6.57136">
        <ele>20.9</ele>
        <time>2025-02-26T16:07:30Z</time>
      </trkpt>
      <trkpt lat="43.47955" lon="6.57136">
        <ele>20.8</ele>
        <time>2025-02-26T16:07:31Z</time>
      </trkpt>
      <trkpt lat="43.47955" lon="6.57135">
        <ele>20.8</ele>
        <time>2025-02-26T16:07:32Z</time>
      </trkpt>
      <trkpt lat="43.47955" lon="6.57135">
        <ele>20.8</ele>
        <time>2025-02-26T16:07:33Z</time>
      </trkpt>
      <trkpt lat="43.47956" lon="6.57135">
        <ele>20.7</ele>
        <time>2025-02-26T16:07:34Z</time>
      </trkpt>
      <trkpt lat="43.47956" lon="6.57135">
        <ele>20.6</ele>
        <time>2025-02-26T16:07:35Z</time>
      </trkpt>
      <trkpt lat="43.47956" lon="6.57135">
        <ele>20.5</ele>
        <time>2025-02-26T16:07:36Z</time>
      </trkpt>
      <trkpt lat="43.47957" lon="6.57135">
        <ele>20.6</ele>
        <time>2025-02-26T16:07:37Z</time>
      </trkpt>
      <trkpt lat="43.47957" lon="6.57136">
        <ele>20.6</ele>
        <time>2025-02-26T16:07:38Z</time>
      </trkpt>
      <trkpt lat="43.47957" lon="6.57135">
        <ele>20.6</ele>
        <time>2025-02-26T16:07:39Z</time>
      </trkpt>
      <trkpt lat="43.47957" lon="6.57135">
        <ele>20.6</ele>
        <time>2025-02-26T16:07:40Z</time>
      </trkpt>
      <trkpt lat="43.47957" lon="6.57135">
        <ele>20.5</ele>
        <time>2025-02-26T16:07:41Z</time>
      </trkpt>
      <trkpt lat="43.47957" lon="6.57135">
        <ele>20.6</ele>
        <time>2025-02-26T16:07:42Z</time>
      </trkpt>
      <trkpt lat="43.47957" lon="6.57135">
        <ele>20.6</ele>
        <time>2025-02-26T16:07:43Z</time>
      </trkpt>
      <trkpt lat="43.47958" lon="6.57135">
        <ele>20.5</ele>
        <time>2025-02-26T16:07:44Z</time>
      </trkpt>
      <trkpt lat="43.47958" lon="6.57135">
        <ele>20.5</ele>
        <time>2025-02-26T16:07:45Z</time>
      </trkpt>
      <trkpt lat="43.47958" lon="6.57135">
        <ele>20.4</ele>
        <time>2025-02-26T16:07:46Z</time>
      </trkpt>
      <trkpt lat="43.47958" lon="6.57135">
        <ele>20.4</ele>
        <time>2025-02-26T16:07:47Z</time>
      </trkpt>
      <trkpt lat="43.47958" lon="6.57135">
        <ele>20.3</ele>
        <time>2025-02-26T16:07:48Z</time>
      </trkpt>
      <trkpt lat="43.47959" lon="6.57134">
        <ele>20.4</ele>
        <time>2025-02-26T16:07:49Z</time>
      </trkpt>
      <trkpt lat="43.47959" lon="6.57134">
        <ele>20.4</ele>
        <time>2025-02-26T16:07:50Z</time>
      </trkpt>
      <trkpt lat="43.47959" lon="6.57135">
        <ele>20.4</ele>
        <time>2025-02-26T16:07:51Z</time>
      </trkpt>
      <trkpt lat="43.4796" lon="6.57134">
        <ele>20.4</ele>
        <time>2025-02-26T16:07:52Z</time>
      </trkpt>
      <trkpt lat="43.4796" lon="6.57134">
        <ele>20.5</ele>
        <time>2025-02-26T16:07:53Z</time>
      </trkpt>
      <trkpt lat="43.4796" lon="6.57135">
        <ele>20.5</ele>
        <time>2025-02-26T16:07:54Z</time>
      </trkpt>
      <trkpt lat="43.4796" lon="6.57135">
        <ele>20.5</ele>
        <time>2025-02-26T16:07:55Z</time>
      </trkpt>
      <trkpt lat="43.4796" lon="6.57135">
        <ele>20.6</ele>
        <time>2025-02-26T16:07:56Z</time>
      </trkpt>
      <trkpt lat="43.4796" lon="6.57135">
        <ele>20.6</ele>
        <time>2025-02-26T16:07:57Z</time>
      </trkpt>
      <trkpt lat="43.4796" lon="6.57134">
        <ele>20.7</ele>
        <time>2025-02-26T16:07:58Z</time>
      </trkpt>
      <trkpt lat="43.47961" lon="6.57134">
        <ele>20.8</ele>
        <time>2025-02-26T16:07:59Z</time>
      </trkpt>
      <trkpt lat="43.47961" lon="6.57135">
        <ele>20.8</ele>
        <time>2025-02-26T16:08:00Z</time>
      </trkpt>
      <trkpt lat="43.47961" lon="6.57135">
        <ele>20.9</ele>
        <time>2025-02-26T16:08:01Z</time>
      </trkpt>
      <trkpt lat="43.47961" lon="6.57135">
        <ele>20.9</ele>
        <time>2025-02-26T16:08:02Z</time>
      </trkpt>
      <trkpt lat="43.47961" lon="6.57135">
        <ele>21</ele>
        <time>2025-02-26T16:08:03Z</time>
      </trkpt>
      <trkpt lat="43.47962" lon="6.57135">
        <ele>20.9</ele>
        <time>2025-02-26T16:08:04Z</time>
      </trkpt>
      <trkpt lat="43.47962" lon="6.57135">
        <ele>20.9</ele>
        <time>2025-02-26T16:08:05Z</time>
      </trkpt>
      <trkpt lat="43.47962" lon="6.57135">
        <ele>20.9</ele>
        <time>2025-02-26T16:08:06Z</time>
      </trkpt>
      <trkpt lat="43.47962" lon="6.57135">
        <ele>20.8</ele>
        <time>2025-02-26T16:08:07Z</time>
      </trkpt>
      <trkpt lat="43.47962" lon="6.57135">
        <ele>20.9</ele>
        <time>2025-02-26T16:08:08Z</time>
      </trkpt>
      <trkpt lat="43.47962" lon="6.57135">
        <ele>20.9</ele>
        <time>2025-02-26T16:08:09Z</time>
      </trkpt>
      <trkpt lat="43.47962" lon="6.57135">
        <ele>20.9</ele>
        <time>2025-02-26T16:08:10Z</time>
      </trkpt>
      <trkpt lat="43.47962" lon="6.57135">
        <ele>20.9</ele>
        <time>2025-02-26T16:08:11Z</time>
      </trkpt>
      <trkpt lat="43.47962" lon="6.57135">
        <ele>20.9</ele>
        <time>2025-02-26T16:08:12Z</time>
      </trkpt>
      <trkpt lat="43.47962" lon="6.57135">
        <ele>20.8</ele>
        <time>2025-02-26T16:08:13Z</time>
      </trkpt>
      <trkpt lat="43.47962" lon="6.57135">
        <ele>20.8</ele>
        <time>2025-02-26T16:08:14Z</time>
      </trkpt>
      <trkpt lat="43.47962" lon="6.57135">
        <ele>20.8</ele>
        <time>2025-02-26T16:08:15Z</time>
      </trkpt>
      <trkpt lat="43.47962" lon="6.57135">
        <ele>20.8</ele>
        <time>2025-02-26T16:08:16Z</time>
      </trkpt>
      <trkpt lat="43.47962" lon="6.57135">
        <ele>20.8</ele>
        <time>2025-02-26T16:08:17Z</time>
      </trkpt>
      <trkpt lat="43.47962" lon="6.57135">
        <ele>20.8</ele>
        <time>2025-02-26T16:08:18Z</time>
      </trkpt>
      <trkpt lat="43.47962" lon="6.57135">
        <ele>20.8</ele>
        <time>2025-02-26T16:08:19Z</time>
      </trkpt>
      <trkpt lat="43.47962" lon="6.57135">
        <ele>20.8</ele>
        <time>2025-02-26T16:08:20Z</time>
      </trkpt>
      <trkpt lat="43.47962" lon="6.57135">
        <ele>20.7</ele>
        <time>2025-02-26T16:08:21Z</time>
      </trkpt>
      <trkpt lat="43.47962" lon="6.57135">
        <ele>20.8</ele>
        <time>2025-02-26T16:08:22Z</time>
      </trkpt>
      <trkpt lat="43.47962" lon="6.57135">
        <ele>20.8</ele>
        <time>2025-02-26T16:08:23Z</time>
      </trkpt>
      <trkpt lat="43.47962" lon="6.57135">
        <ele>20.8</ele>
        <time>2025-02-26T16:08:24Z</time>
      </trkpt>
      <trkpt lat="43.47962" lon="6.57135">
        <ele>20.9</ele>
        <time>2025-02-26T16:08:25Z</time>
      </trkpt>
      <trkpt lat="43.47962" lon="6.57135">
        <ele>20.9</ele>
        <time>2025-02-26T16:08:26Z</time>
      </trkpt>
      <trkpt lat="43.47962" lon="6.57135">
        <ele>21</ele>
        <time>2025-02-26T16:08:27Z</time>
      </trkpt>
      <trkpt lat="43.47961" lon="6.57135">
        <ele>21</ele>
        <time>2025-02-26T16:08:28Z</time>
      </trkpt>
      <trkpt lat="43.47961" lon="6.57135">
        <ele>20.9</ele>
        <time>2025-02-26T16:08:29Z</time>
      </trkpt>
      <trkpt lat="43.4796" lon="6.57135">
        <ele>20.9</ele>
        <time>2025-02-26T16:08:30Z</time>
      </trkpt>
      <trkpt lat="43.4796" lon="6.57135">
        <ele>20.9</ele>
        <time>2025-02-26T16:08:31Z</time>
      </trkpt>
      <trkpt lat="43.4796" lon="6.57135">
        <ele>20.8</ele>
        <time>2025-02-26T16:08:32Z</time>
      </trkpt>
      <trkpt lat="43.4796" lon="6.57136">
        <ele>20.8</ele>
        <time>2025-02-26T16:08:33Z</time>
      </trkpt>
      <trkpt lat="43.4796" lon="6.57136">
        <ele>20.8</ele>
        <time>2025-02-26T16:08:34Z</time>
      </trkpt>
      <trkpt lat="43.4796" lon="6.57136">
        <ele>20.9</ele>
        <time>2025-02-26T16:08:35Z</time>
      </trkpt>
      <trkpt lat="43.4796" lon="6.57136">
        <ele>20.9</ele>
        <time>2025-02-26T16:08:36Z</time>
      </trkpt>
      <trkpt lat="43.4796" lon="6.57136">
        <ele>20.9</ele>
        <time>2025-02-26T16:08:37Z</time>
      </trkpt>
      <trkpt lat="43.4796" lon="6.57136">
        <ele>20.8</ele>
        <time>2025-02-26T16:08:38Z</time>
      </trkpt>
      <trkpt lat="43.4796" lon="6.57136">
        <ele>20.7</ele>
        <time>2025-02-26T16:08:39Z</time>
      </trkpt>
      <trkpt lat="43.4796" lon="6.57136">
        <ele>20.6</ele>
        <time>2025-02-26T16:08:40Z</time>
      </trkpt>
      <trkpt lat="43.47959" lon="6.57136">
        <ele>20.5</ele>
        <time>2025-02-26T16:08:41Z</time>
      </trkpt>
      <trkpt lat="43.47959" lon="6.57136">
        <ele>20.4</ele>
        <time>2025-02-26T16:08:42Z</time>
      </trkpt>
      <trkpt lat="43.47959" lon="6.57136">
        <ele>20.3</ele>
        <time>2025-02-26T16:08:43Z</time>
      </trkpt>
      <trkpt lat="43.47959" lon="6.57136">
        <ele>20.3</ele>
        <time>2025-02-26T16:08:44Z</time>
      </trkpt>
      <trkpt lat="43.47959" lon="6.57136">
        <ele>20.3</ele>
        <time>2025-02-26T16:08:45Z</time>
      </trkpt>
      <trkpt lat="43.47959" lon="6.57136">
        <ele>20.2</ele>
        <time>2025-02-26T16:08:46Z</time>
      </trkpt>
      <trkpt lat="43.47959" lon="6.57136">
        <ele>20.1</ele>
        <time>2025-02-26T16:08:47Z</time>
      </trkpt>
      <trkpt lat="43.47959" lon="6.57136">
        <ele>20.1</ele>
        <time>2025-02-26T16:08:48Z</time>
      </trkpt>
      <trkpt lat="43.47959" lon="6.57136">
        <ele>20.1</ele>
        <time>2025-02-26T16:08:49Z</time>
      </trkpt>
      <trkpt lat="43.47959" lon="6.57136">
        <ele>20.1</ele>
        <time>2025-02-26T16:08:50Z</time>
      </trkpt>
      <trkpt lat="43.47959" lon="6.57136">
        <ele>20.2</ele>
        <time>2025-02-26T16:08:51Z</time>
      </trkpt>
      <trkpt lat="43.47959" lon="6.57136">
        <ele>20.2</ele>
        <time>2025-02-26T16:08:52Z</time>
      </trkpt>
      <trkpt lat="43.47959" lon="6.57136">
        <ele>20.2</ele>
        <time>2025-02-26T16:08:53Z</time>
      </trkpt>
      <trkpt lat="43.4796" lon="6.57136">
        <ele>20.1</ele>
        <time>2025-02-26T16:08:54Z</time>
      </trkpt>
      <trkpt lat="43.4796" lon="6.57136">
        <ele>20</ele>
        <time>2025-02-26T16:08:55Z</time>
      </trkpt>
      <trkpt lat="43.47961" lon="6.57136">
        <ele>19.9</ele>
        <time>2025-02-26T16:08:56Z</time>
      </trkpt>
      <trkpt lat="43.47961" lon="6.57136">
        <ele>19.9</ele>
        <time>2025-02-26T16:08:57Z</time>
      </trkpt>
      <trkpt lat="43.47961" lon="6.57136">
        <ele>19.9</ele>
        <time>2025-02-26T16:08:58Z</time>
      </trkpt>
      <trkpt lat="43.47961" lon="6.57136">
        <ele>19.8</ele>
        <time>2025-02-26T16:08:59Z</time>
      </trkpt>
      <trkpt lat="43.47961" lon="6.57136">
        <ele>19.8</ele>
        <time>2025-02-26T16:09:00Z</time>
      </trkpt>
      <trkpt lat="43.47962" lon="6.57136">
        <ele>19.8</ele>
        <time>2025-02-26T16:09:01Z</time>
      </trkpt>
      <trkpt lat="43.47962" lon="6.57136">
        <ele>20</ele>
        <time>2025-02-26T16:09:02Z</time>
      </trkpt>
      <trkpt lat="43.47962" lon="6.57136">
        <ele>20.1</ele>
        <time>2025-02-26T16:09:03Z</time>
      </trkpt>
      <trkpt lat="43.47962" lon="6.57136">
        <ele>20.2</ele>
        <time>2025-02-26T16:09:04Z</time>
      </trkpt>
      <trkpt lat="43.47963" lon="6.57136">
        <ele>20.2</ele>
        <time>2025-02-26T16:09:05Z</time>
      </trkpt>
      <trkpt lat="43.47963" lon="6.57136">
        <ele>20.2</ele>
        <time>2025-02-26T16:09:06Z</time>
      </trkpt>
      <trkpt lat="43.47963" lon="6.57136">
        <ele>20.2</ele>
        <time>2025-02-26T16:09:07Z</time>
      </trkpt>
      <trkpt lat="43.47963" lon="6.57136">
        <ele>20.3</ele>
        <time>2025-02-26T16:09:08Z</time>
      </trkpt>
      <trkpt lat="43.47963" lon="6.57136">
        <ele>20.3</ele>
        <time>2025-02-26T16:09:09Z</time>
      </trkpt>
      <trkpt lat="43.47963" lon="6.57135">
        <ele>20.3</ele>
        <time>2025-02-26T16:09:10Z</time>
      </trkpt>
      <trkpt lat="43.47964" lon="6.57135">
        <ele>20.4</ele>
        <time>2025-02-26T16:09:11Z</time>
      </trkpt>
      <trkpt lat="43.47964" lon="6.57134">
        <ele>20.3</ele>
        <time>2025-02-26T16:09:12Z</time>
      </trkpt>
      <trkpt lat="43.47965" lon="6.57134">
        <ele>20.3</ele>
        <time>2025-02-26T16:09:13Z</time>
      </trkpt>
      <trkpt lat="43.47966" lon="6.57135">
        <ele>20.3</ele>
        <time>2025-02-26T16:09:14Z</time>
      </trkpt>
      <trkpt lat="43.47966" lon="6.57135">
        <ele>20.3</ele>
        <time>2025-02-26T16:09:15Z</time>
      </trkpt>
      <trkpt lat="43.47967" lon="6.57136">
        <ele>20.4</ele>
        <time>2025-02-26T16:09:16Z</time>
      </trkpt>
      <trkpt lat="43.47967" lon="6.57136">
        <ele>20.5</ele>
        <time>2025-02-26T16:09:17Z</time>
      </trkpt>
      <trkpt lat="43.47967" lon="6.57136">
        <ele>20.5</ele>
        <time>2025-02-26T16:09:18Z</time>
      </trkpt>
      <trkpt lat="43.47968" lon="6.57136">
        <ele>20.5</ele>
        <time>2025-02-26T16:09:19Z</time>
      </trkpt>
      <trkpt lat="43.47969" lon="6.57136">
        <ele>20.6</ele>
        <time>2025-02-26T16:09:20Z</time>
      </trkpt>
      <trkpt lat="43.47969" lon="6.57136">
        <ele>20.6</ele>
        <time>2025-02-26T16:09:21Z</time>
      </trkpt>
      <trkpt lat="43.4797" lon="6.57137">
        <ele>20.7</ele>
        <time>2025-02-26T16:09:22Z</time>
      </trkpt>
      <trkpt lat="43.4797" lon="6.57137">
        <ele>20.6</ele>
        <time>2025-02-26T16:09:23Z</time>
      </trkpt>
      <trkpt lat="43.4797" lon="6.57138">
        <ele>20.8</ele>
        <time>2025-02-26T16:09:24Z</time>
      </trkpt>
      <trkpt lat="43.4797" lon="6.57138">
        <ele>21</ele>
        <time>2025-02-26T16:09:25Z</time>
      </trkpt>
      <trkpt lat="43.47971" lon="6.57139">
        <ele>21.1</ele>
        <time>2025-02-26T16:09:26Z</time>
      </trkpt>
      <trkpt lat="43.47972" lon="6.57139">
        <ele>21.2</ele>
        <time>2025-02-26T16:09:27Z</time>
      </trkpt>
      <trkpt lat="43.47973" lon="6.57139">
        <ele>21.3</ele>
        <time>2025-02-26T16:09:28Z</time>
      </trkpt>
      <trkpt lat="43.47974" lon="6.57139">
        <ele>21.4</ele>
        <time>2025-02-26T16:09:29Z</time>
      </trkpt>
      <trkpt lat="43.47974" lon="6.5714">
        <ele>21.4</ele>
        <time>2025-02-26T16:09:30Z</time>
      </trkpt>
      <trkpt lat="43.47975" lon="6.57141">
        <ele>21.3</ele>
        <time>2025-02-26T16:09:31Z</time>
      </trkpt>
      <trkpt lat="43.47976" lon="6.57142">
        <ele>21.4</ele>
        <time>2025-02-26T16:09:32Z</time>
      </trkpt>
      <trkpt lat="43.47977" lon="6.57142">
        <ele>21.4</ele>
        <time>2025-02-26T16:09:33Z</time>
      </trkpt>
      <trkpt lat="43.47977" lon="6.57143">
        <ele>21.4</ele>
        <time>2025-02-26T16:09:34Z</time>
      </trkpt>
      <trkpt lat="43.47979" lon="6.57144">
        <ele>21.4</ele>
        <time>2025-02-26T16:09:35Z</time>
      </trkpt>
      <trkpt lat="43.4798" lon="6.57144">
        <ele>21.3</ele>
        <time>2025-02-26T16:09:36Z</time>
      </trkpt>
      <trkpt lat="43.47981" lon="6.57144">
        <ele>21.3</ele>
        <time>2025-02-26T16:09:37Z</time>
      </trkpt>
      <trkpt lat="43.47981" lon="6.57144">
        <ele>21.2</ele>
        <time>2025-02-26T16:09:38Z</time>
      </trkpt>
      <trkpt lat="43.47982" lon="6.57145">
        <ele>21.2</ele>
        <time>2025-02-26T16:09:39Z</time>
      </trkpt>
      <trkpt lat="43.47984" lon="6.57145">
        <ele>21.2</ele>
        <time>2025-02-26T16:09:40Z</time>
      </trkpt>
      <trkpt lat="43.47985" lon="6.57145">
        <ele>21.2</ele>
        <time>2025-02-26T16:09:41Z</time>
      </trkpt>
      <trkpt lat="43.47986" lon="6.57145">
        <ele>21.2</ele>
        <time>2025-02-26T16:09:42Z</time>
      </trkpt>
      <trkpt lat="43.47987" lon="6.57145">
        <ele>21.3</ele>
        <time>2025-02-26T16:09:43Z</time>
      </trkpt>
      <trkpt lat="43.47988" lon="6.57145">
        <ele>21.3</ele>
        <time>2025-02-26T16:09:44Z</time>
      </trkpt>
      <trkpt lat="43.47989" lon="6.57145">
        <ele>21.3</ele>
        <time>2025-02-26T16:09:45Z</time>
      </trkpt>
      <trkpt lat="43.4799" lon="6.57145">
        <ele>21.4</ele>
        <time>2025-02-26T16:09:46Z</time>
      </trkpt>
      <trkpt lat="43.47991" lon="6.57144">
        <ele>21.5</ele>
        <time>2025-02-26T16:09:47Z</time>
      </trkpt>
      <trkpt lat="43.47992" lon="6.57144">
        <ele>21.5</ele>
        <time>2025-02-26T16:09:48Z</time>
      </trkpt>
      <trkpt lat="43.47993" lon="6.57144">
        <ele>21.6</ele>
        <time>2025-02-26T16:09:49Z</time>
      </trkpt>
      <trkpt lat="43.47994" lon="6.57144">
        <ele>21.7</ele>
        <time>2025-02-26T16:09:50Z</time>
      </trkpt>
      <trkpt lat="43.47995" lon="6.57144">
        <ele>21.7</ele>
        <time>2025-02-26T16:09:51Z</time>
      </trkpt>
      <trkpt lat="43.47996" lon="6.57144">
        <ele>21.7</ele>
        <time>2025-02-26T16:09:52Z</time>
      </trkpt>
      <trkpt lat="43.47997" lon="6.57144">
        <ele>21.7</ele>
        <time>2025-02-26T16:09:53Z</time>
      </trkpt>
      <trkpt lat="43.47998" lon="6.57143">
        <ele>21.7</ele>
        <time>2025-02-26T16:09:54Z</time>
      </trkpt>
      <trkpt lat="43.47999" lon="6.57142">
        <ele>21.6</ele>
        <time>2025-02-26T16:09:55Z</time>
      </trkpt>
      <trkpt lat="43.48001" lon="6.57142">
        <ele>21.7</ele>
        <time>2025-02-26T16:09:56Z</time>
      </trkpt>
      <trkpt lat="43.48003" lon="6.57141">
        <ele>21.6</ele>
        <time>2025-02-26T16:09:57Z</time>
      </trkpt>
      <trkpt lat="43.48005" lon="6.57141">
        <ele>21.5</ele>
        <time>2025-02-26T16:09:58Z</time>
      </trkpt>
      <trkpt lat="43.48005" lon="6.57141">
        <ele>21.5</ele>
        <time>2025-02-26T16:09:59Z</time>
      </trkpt>
      <trkpt lat="43.48007" lon="6.57141">
        <ele>21.4</ele>
        <time>2025-02-26T16:10:00Z</time>
      </trkpt>
      <trkpt lat="43.48008" lon="6.57141">
        <ele>21.5</ele>
        <time>2025-02-26T16:10:01Z</time>
      </trkpt>
      <trkpt lat="43.48009" lon="6.5714">
        <ele>21.5</ele>
        <time>2025-02-26T16:10:02Z</time>
      </trkpt>
      <trkpt lat="43.4801" lon="6.5714">
        <ele>21.6</ele>
        <time>2025-02-26T16:10:03Z</time>
      </trkpt>
      <trkpt lat="43.48011" lon="6.57139">
        <ele>21.7</ele>
        <time>2025-02-26T16:10:04Z</time>
      </trkpt>
      <trkpt lat="43.48012" lon="6.57139">
        <ele>21.8</ele>
        <time>2025-02-26T16:10:05Z</time>
      </trkpt>
      <trkpt lat="43.48013" lon="6.57138">
        <ele>21.8</ele>
        <time>2025-02-26T16:10:06Z</time>
      </trkpt>
      <trkpt lat="43.48014" lon="6.57137">
        <ele>21.9</ele>
        <time>2025-02-26T16:10:07Z</time>
      </trkpt>
      <trkpt lat="43.48015" lon="6.57136">
        <ele>21.9</ele>
        <time>2025-02-26T16:10:08Z</time>
      </trkpt>
      <trkpt lat="43.48016" lon="6.57134">
        <ele>22</ele>
        <time>2025-02-26T16:10:09Z</time>
      </trkpt>
      <trkpt lat="43.48016" lon="6.57133">
        <ele>21.9</ele>
        <time>2025-02-26T16:10:10Z</time>
      </trkpt>
      <trkpt lat="43.48017" lon="6.57132">
        <ele>21.9</ele>
        <time>2025-02-26T16:10:11Z</time>
      </trkpt>
      <trkpt lat="43.48018" lon="6.57131">
        <ele>21.9</ele>
        <time>2025-02-26T16:10:12Z</time>
      </trkpt>
      <trkpt lat="43.48018" lon="6.5713">
        <ele>21.9</ele>
        <time>2025-02-26T16:10:13Z</time>
      </trkpt>
      <trkpt lat="43.48019" lon="6.57129">
        <ele>21.9</ele>
        <time>2025-02-26T16:10:14Z</time>
      </trkpt>
      <trkpt lat="43.4802" lon="6.57128">
        <ele>21.9</ele>
        <time>2025-02-26T16:10:15Z</time>
      </trkpt>
      <trkpt lat="43.48021" lon="6.57126">
        <ele>21.9</ele>
        <time>2025-02-26T16:10:16Z</time>
      </trkpt>
      <trkpt lat="43.48022" lon="6.57125">
        <ele>21.8</ele>
        <time>2025-02-26T16:10:17Z</time>
      </trkpt>
      <trkpt lat="43.48023" lon="6.57123">
        <ele>22</ele>
        <time>2025-02-26T16:10:18Z</time>
      </trkpt>
      <trkpt lat="43.48023" lon="6.57122">
        <ele>22.1</ele>
        <time>2025-02-26T16:10:19Z</time>
      </trkpt>
      <trkpt lat="43.48024" lon="6.57121">
        <ele>22.2</ele>
        <time>2025-02-26T16:10:20Z</time>
      </trkpt>
      <trkpt lat="43.48024" lon="6.57119">
        <ele>22.2</ele>
        <time>2025-02-26T16:10:21Z</time>
      </trkpt>
      <trkpt lat="43.48025" lon="6.57117">
        <ele>22.2</ele>
        <time>2025-02-26T16:10:22Z</time>
      </trkpt>
      <trkpt lat="43.48026" lon="6.57116">
        <ele>22.3</ele>
        <time>2025-02-26T16:10:23Z</time>
      </trkpt>
      <trkpt lat="43.48026" lon="6.57114">
        <ele>22.4</ele>
        <time>2025-02-26T16:10:24Z</time>
      </trkpt>
      <trkpt lat="43.48027" lon="6.57112">
        <ele>22.4</ele>
        <time>2025-02-26T16:10:25Z</time>
      </trkpt>
      <trkpt lat="43.48028" lon="6.57111">
        <ele>22.4</ele>
        <time>2025-02-26T16:10:26Z</time>
      </trkpt>
      <trkpt lat="43.48029" lon="6.57109">
        <ele>22.6</ele>
        <time>2025-02-26T16:10:27Z</time>
      </trkpt>
      <trkpt lat="43.48029" lon="6.57108">
        <ele>22.6</ele>
        <time>2025-02-26T16:10:28Z</time>
      </trkpt>
      <trkpt lat="43.48029" lon="6.57106">
        <ele>22.6</ele>
        <time>2025-02-26T16:10:29Z</time>
      </trkpt>
      <trkpt lat="43.4803" lon="6.57105">
        <ele>22.6</ele>
        <time>2025-02-26T16:10:30Z</time>
      </trkpt>
      <trkpt lat="43.4803" lon="6.57103">
        <ele>22.5</ele>
        <time>2025-02-26T16:10:31Z</time>
      </trkpt>
      <trkpt lat="43.48031" lon="6.57101">
        <ele>22.5</ele>
        <time>2025-02-26T16:10:32Z</time>
      </trkpt>
      <trkpt lat="43.48031" lon="6.57099">
        <ele>22.5</ele>
        <time>2025-02-26T16:10:33Z</time>
      </trkpt>
      <trkpt lat="43.48031" lon="6.57098">
        <ele>22.4</ele>
        <time>2025-02-26T16:10:34Z</time>
      </trkpt>
      <trkpt lat="43.48032" lon="6.57096">
        <ele>22.4</ele>
        <time>2025-02-26T16:10:35Z</time>
      </trkpt>
      <trkpt lat="43.48032" lon="6.57095">
        <ele>22.4</ele>
        <time>2025-02-26T16:10:36Z</time>
      </trkpt>
      <trkpt lat="43.48033" lon="6.57093">
        <ele>22.4</ele>
        <time>2025-02-26T16:10:37Z</time>
      </trkpt>
      <trkpt lat="43.48033" lon="6.57092">
        <ele>22.4</ele>
        <time>2025-02-26T16:10:38Z</time>
      </trkpt>
      <trkpt lat="43.48034" lon="6.5709">
        <ele>22.5</ele>
        <time>2025-02-26T16:10:39Z</time>
      </trkpt>
      <trkpt lat="43.48034" lon="6.57089">
        <ele>22.5</ele>
        <time>2025-02-26T16:10:40Z</time>
      </trkpt>
      <trkpt lat="43.48035" lon="6.57087">
        <ele>22.6</ele>
        <time>2025-02-26T16:10:41Z</time>
      </trkpt>
      <trkpt lat="43.48036" lon="6.57086">
        <ele>22.6</ele>
        <time>2025-02-26T16:10:42Z</time>
      </trkpt>
      <trkpt lat="43.48036" lon="6.57084">
        <ele>22.6</ele>
        <time>2025-02-26T16:10:43Z</time>
      </trkpt>
      <trkpt lat="43.48037" lon="6.57083">
        <ele>22.7</ele>
        <time>2025-02-26T16:10:44Z</time>
      </trkpt>
      <trkpt lat="43.48037" lon="6.57081">
        <ele>22.6</ele>
        <time>2025-02-26T16:10:45Z</time>
      </trkpt>
      <trkpt lat="43.48037" lon="6.57079">
        <ele>22.6</ele>
        <time>2025-02-26T16:10:46Z</time>
      </trkpt>
      <trkpt lat="43.48037" lon="6.57077">
        <ele>22.6</ele>
        <time>2025-02-26T16:10:47Z</time>
      </trkpt>
      <trkpt lat="43.48038" lon="6.57076">
        <ele>22.7</ele>
        <time>2025-02-26T16:10:48Z</time>
      </trkpt>
      <trkpt lat="43.48038" lon="6.57074">
        <ele>22.7</ele>
        <time>2025-02-26T16:10:49Z</time>
      </trkpt>
      <trkpt lat="43.48038" lon="6.57073">
        <ele>22.8</ele>
        <time>2025-02-26T16:10:50Z</time>
      </trkpt>
      <trkpt lat="43.48039" lon="6.57072">
        <ele>22.8</ele>
        <time>2025-02-26T16:10:51Z</time>
      </trkpt>
      <trkpt lat="43.48039" lon="6.57071">
        <ele>22.8</ele>
        <time>2025-02-26T16:10:52Z</time>
      </trkpt>
      <trkpt lat="43.4804" lon="6.57069">
        <ele>22.9</ele>
        <time>2025-02-26T16:10:53Z</time>
      </trkpt>
      <trkpt lat="43.4804" lon="6.57068">
        <ele>22.9</ele>
        <time>2025-02-26T16:10:54Z</time>
      </trkpt>
      <trkpt lat="43.4804" lon="6.57066">
        <ele>22.9</ele>
        <time>2025-02-26T16:10:55Z</time>
      </trkpt>
      <trkpt lat="43.48041" lon="6.57065">
        <ele>23</ele>
        <time>2025-02-26T16:10:56Z</time>
      </trkpt>
      <trkpt lat="43.48041" lon="6.57063">
        <ele>23</ele>
        <time>2025-02-26T16:10:57Z</time>
      </trkpt>
      <trkpt lat="43.48041" lon="6.57062">
        <ele>22.9</ele>
        <time>2025-02-26T16:10:58Z</time>
      </trkpt>
      <trkpt lat="43.48042" lon="6.57061">
        <ele>22.9</ele>
        <time>2025-02-26T16:10:59Z</time>
      </trkpt>
      <trkpt lat="43.48042" lon="6.57059">
        <ele>23</ele>
        <time>2025-02-26T16:11:00Z</time>
      </trkpt>
      <trkpt lat="43.48042" lon="6.57058">
        <ele>23</ele>
        <time>2025-02-26T16:11:01Z</time>
      </trkpt>
      <trkpt lat="43.48043" lon="6.57057">
        <ele>23.1</ele>
        <time>2025-02-26T16:11:02Z</time>
      </trkpt>
      <trkpt lat="43.48044" lon="6.57055">
        <ele>23.1</ele>
        <time>2025-02-26T16:11:03Z</time>
      </trkpt>
      <trkpt lat="43.48044" lon="6.57053">
        <ele>23.1</ele>
        <time>2025-02-26T16:11:04Z</time>
      </trkpt>
      <trkpt lat="43.48044" lon="6.57052">
        <ele>23.1</ele>
        <time>2025-02-26T16:11:05Z</time>
      </trkpt>
      <trkpt lat="43.48044" lon="6.5705">
        <ele>23.1</ele>
        <time>2025-02-26T16:11:06Z</time>
      </trkpt>
      <trkpt lat="43.48044" lon="6.57048">
        <ele>23.1</ele>
        <time>2025-02-26T16:11:07Z</time>
      </trkpt>
      <trkpt lat="43.48044" lon="6.57047">
        <ele>23.3</ele>
        <time>2025-02-26T16:11:08Z</time>
      </trkpt>
      <trkpt lat="43.48044" lon="6.57045">
        <ele>23.3</ele>
        <time>2025-02-26T16:11:09Z</time>
      </trkpt>
      <trkpt lat="43.48044" lon="6.57044">
        <ele>23.3</ele>
        <time>2025-02-26T16:11:10Z</time>
      </trkpt>
      <trkpt lat="43.48044" lon="6.57042">
        <ele>23.4</ele>
        <time>2025-02-26T16:11:11Z</time>
      </trkpt>
      <trkpt lat="43.48045" lon="6.5704">
        <ele>23.4</ele>
        <time>2025-02-26T16:11:12Z</time>
      </trkpt>
      <trkpt lat="43.48045" lon="6.57039">
        <ele>23.4</ele>
        <time>2025-02-26T16:11:13Z</time>
      </trkpt>
      <trkpt lat="43.48045" lon="6.57038">
        <ele>23.4</ele>
        <time>2025-02-26T16:11:14Z</time>
      </trkpt>
      <trkpt lat="43.48046" lon="6.57036">
        <ele>23.4</ele>
        <time>2025-02-26T16:11:15Z</time>
      </trkpt>
      <trkpt lat="43.48046" lon="6.57034">
        <ele>23.4</ele>
        <time>2025-02-26T16:11:16Z</time>
      </trkpt>
      <trkpt lat="43.48046" lon="6.57032">
        <ele>23.4</ele>
        <time>2025-02-26T16:11:17Z</time>
      </trkpt>
      <trkpt lat="43.48047" lon="6.57031">
        <ele>23.4</ele>
        <time>2025-02-26T16:11:18Z</time>
      </trkpt>
      <trkpt lat="43.48047" lon="6.57029">
        <ele>23.4</ele>
        <time>2025-02-26T16:11:19Z</time>
      </trkpt>
      <trkpt lat="43.48047" lon="6.57028">
        <ele>23.4</ele>
        <time>2025-02-26T16:11:20Z</time>
      </trkpt>
      <trkpt lat="43.48047" lon="6.57026">
        <ele>23.4</ele>
        <time>2025-02-26T16:11:21Z</time>
      </trkpt>
      <trkpt lat="43.48048" lon="6.57025">
        <ele>23.5</ele>
        <time>2025-02-26T16:11:22Z</time>
      </trkpt>
      <trkpt lat="43.48048" lon="6.57023">
        <ele>23.5</ele>
        <time>2025-02-26T16:11:23Z</time>
      </trkpt>
      <trkpt lat="43.48048" lon="6.57022">
        <ele>23.5</ele>
        <time>2025-02-26T16:11:24Z</time>
      </trkpt>
      <trkpt lat="43.48048" lon="6.5702">
        <ele>23.6</ele>
        <time>2025-02-26T16:11:25Z</time>
      </trkpt>
      <trkpt lat="43.48049" lon="6.57019">
        <ele>23.8</ele>
        <time>2025-02-26T16:11:26Z</time>
      </trkpt>
      <trkpt lat="43.48049" lon="6.57018">
        <ele>23.9</ele>
        <time>2025-02-26T16:11:27Z</time>
      </trkpt>
      <trkpt lat="43.48049" lon="6.57016">
        <ele>24</ele>
        <time>2025-02-26T16:11:28Z</time>
      </trkpt>
      <trkpt lat="43.4805" lon="6.57015">
        <ele>24</ele>
        <time>2025-02-26T16:11:29Z</time>
      </trkpt>
      <trkpt lat="43.4805" lon="6.57013">
        <ele>24.1</ele>
        <time>2025-02-26T16:11:30Z</time>
      </trkpt>
      <trkpt lat="43.4805" lon="6.57012">
        <ele>24.1</ele>
        <time>2025-02-26T16:11:31Z</time>
      </trkpt>
      <trkpt lat="43.48051" lon="6.5701">
        <ele>24.3</ele>
        <time>2025-02-26T16:11:32Z</time>
      </trkpt>
      <trkpt lat="43.48051" lon="6.57009">
        <ele>24.4</ele>
        <time>2025-02-26T16:11:33Z</time>
      </trkpt>
      <trkpt lat="43.48051" lon="6.57007">
        <ele>24.5</ele>
        <time>2025-02-26T16:11:34Z</time>
      </trkpt>
      <trkpt lat="43.48051" lon="6.57006">
        <ele>24.4</ele>
        <time>2025-02-26T16:11:35Z</time>
      </trkpt>
      <trkpt lat="43.48051" lon="6.57005">
        <ele>24.5</ele>
        <time>2025-02-26T16:11:36Z</time>
      </trkpt>
      <trkpt lat="43.48052" lon="6.57003">
        <ele>24.5</ele>
        <time>2025-02-26T16:11:37Z</time>
      </trkpt>
      <trkpt lat="43.48053" lon="6.57002">
        <ele>24.5</ele>
        <time>2025-02-26T16:11:38Z</time>
      </trkpt>
      <trkpt lat="43.48053" lon="6.57">
        <ele>24.5</ele>
        <time>2025-02-26T16:11:39Z</time>
      </trkpt>
      <trkpt lat="43.48054" lon="6.56998">
        <ele>24.3</ele>
        <time>2025-02-26T16:11:40Z</time>
      </trkpt>
      <trkpt lat="43.48054" lon="6.56997">
        <ele>24.2</ele>
        <time>2025-02-26T16:11:41Z</time>
      </trkpt>
      <trkpt lat="43.48054" lon="6.56995">
        <ele>24.2</ele>
        <time>2025-02-26T16:11:42Z</time>
      </trkpt>
      <trkpt lat="43.48055" lon="6.56994">
        <ele>24.2</ele>
        <time>2025-02-26T16:11:43Z</time>
      </trkpt>
      <trkpt lat="43.48055" lon="6.56993">
        <ele>24.3</ele>
        <time>2025-02-26T16:11:44Z</time>
      </trkpt>
      <trkpt lat="43.48055" lon="6.56991">
        <ele>24.3</ele>
        <time>2025-02-26T16:11:45Z</time>
      </trkpt>
      <trkpt lat="43.48055" lon="6.5699">
        <ele>24.5</ele>
        <time>2025-02-26T16:11:46Z</time>
      </trkpt>
      <trkpt lat="43.48055" lon="6.56988">
        <ele>24.6</ele>
        <time>2025-02-26T16:11:47Z</time>
      </trkpt>
      <trkpt lat="43.48056" lon="6.56987">
        <ele>24.8</ele>
        <time>2025-02-26T16:11:48Z</time>
      </trkpt>
      <trkpt lat="43.48056" lon="6.56985">
        <ele>24.9</ele>
        <time>2025-02-26T16:11:49Z</time>
      </trkpt>
      <trkpt lat="43.48056" lon="6.56984">
        <ele>25</ele>
        <time>2025-02-26T16:11:50Z</time>
      </trkpt>
      <trkpt lat="43.48056" lon="6.56982">
        <ele>25.2</ele>
        <time>2025-02-26T16:11:51Z</time>
      </trkpt>
      <trkpt lat="43.48056" lon="6.56981">
        <ele>25.3</ele>
        <time>2025-02-26T16:11:52Z</time>
      </trkpt>
      <trkpt lat="43.48056" lon="6.56979">
        <ele>25.4</ele>
        <time>2025-02-26T16:11:53Z</time>
      </trkpt>
      <trkpt lat="43.48056" lon="6.56978">
        <ele>25.5</ele>
        <time>2025-02-26T16:11:54Z</time>
      </trkpt>
      <trkpt lat="43.48057" lon="6.56976">
        <ele>25.6</ele>
        <time>2025-02-26T16:11:55Z</time>
      </trkpt>
      <trkpt lat="43.48057" lon="6.56975">
        <ele>25.7</ele>
        <time>2025-02-26T16:11:56Z</time>
      </trkpt>
      <trkpt lat="43.48057" lon="6.56973">
        <ele>25.8</ele>
        <time>2025-02-26T16:11:57Z</time>
      </trkpt>
      <trkpt lat="43.48057" lon="6.56971">
        <ele>25.9</ele>
        <time>2025-02-26T16:11:58Z</time>
      </trkpt>
      <trkpt lat="43.48058" lon="6.5697">
        <ele>26</ele>
        <time>2025-02-26T16:11:59Z</time>
      </trkpt>
      <trkpt lat="43.48058" lon="6.56968">
        <ele>26.1</ele>
        <time>2025-02-26T16:12:00Z</time>
      </trkpt>
      <trkpt lat="43.48058" lon="6.56967">
        <ele>26.1</ele>
        <time>2025-02-26T16:12:01Z</time>
      </trkpt>
      <trkpt lat="43.48058" lon="6.56965">
        <ele>26.2</ele>
        <time>2025-02-26T16:12:02Z</time>
      </trkpt>
      <trkpt lat="43.48058" lon="6.56963">
        <ele>26.3</ele>
        <time>2025-02-26T16:12:03Z</time>
      </trkpt>
      <trkpt lat="43.48058" lon="6.56962">
        <ele>26.3</ele>
        <time>2025-02-26T16:12:04Z</time>
      </trkpt>
      <trkpt lat="43.48059" lon="6.5696">
        <ele>26.5</ele>
        <time>2025-02-26T16:12:05Z</time>
      </trkpt>
      <trkpt lat="43.48059" lon="6.56959">
        <ele>26.6</ele>
        <time>2025-02-26T16:12:06Z</time>
      </trkpt>
      <trkpt lat="43.48059" lon="6.56958">
        <ele>26.6</ele>
        <time>2025-02-26T16:12:07Z</time>
      </trkpt>
      <trkpt lat="43.48059" lon="6.56956">
        <ele>26.7</ele>
        <time>2025-02-26T16:12:08Z</time>
      </trkpt>
      <trkpt lat="43.4806" lon="6.56955">
        <ele>26.8</ele>
        <time>2025-02-26T16:12:09Z</time>
      </trkpt>
      <trkpt lat="43.4806" lon="6.56953">
        <ele>26.7</ele>
        <time>2025-02-26T16:12:10Z</time>
      </trkpt>
      <trkpt lat="43.4806" lon="6.56952">
        <ele>26.7</ele>
        <time>2025-02-26T16:12:11Z</time>
      </trkpt>
      <trkpt lat="43.48061" lon="6.5695">
        <ele>26.7</ele>
        <time>2025-02-26T16:12:12Z</time>
      </trkpt>
      <trkpt lat="43.48061" lon="6.56949">
        <ele>26.7</ele>
        <time>2025-02-26T16:12:13Z</time>
      </trkpt>
      <trkpt lat="43.48061" lon="6.56948">
        <ele>26.8</ele>
        <time>2025-02-26T16:12:14Z</time>
      </trkpt>
      <trkpt lat="43.48061" lon="6.56946">
        <ele>26.8</ele>
        <time>2025-02-26T16:12:15Z</time>
      </trkpt>
      <trkpt lat="43.48062" lon="6.56945">
        <ele>26.9</ele>
        <time>2025-02-26T16:12:16Z</time>
      </trkpt>
      <trkpt lat="43.48062" lon="6.56943">
        <ele>26.9</ele>
        <time>2025-02-26T16:12:17Z</time>
      </trkpt>
      <trkpt lat="43.48062" lon="6.56942">
        <ele>26.9</ele>
        <time>2025-02-26T16:12:18Z</time>
      </trkpt>
      <trkpt lat="43.48062" lon="6.5694">
        <ele>27</ele>
        <time>2025-02-26T16:12:19Z</time>
      </trkpt>
      <trkpt lat="43.48062" lon="6.56939">
        <ele>27</ele>
        <time>2025-02-26T16:12:20Z</time>
      </trkpt>
      <trkpt lat="43.48062" lon="6.56937">
        <ele>27</ele>
        <time>2025-02-26T16:12:21Z</time>
      </trkpt>
      <trkpt lat="43.48062" lon="6.56935">
        <ele>27.1</ele>
        <time>2025-02-26T16:12:22Z</time>
      </trkpt>
      <trkpt lat="43.48062" lon="6.56934">
        <ele>27.1</ele>
        <time>2025-02-26T16:12:23Z</time>
      </trkpt>
      <trkpt lat="43.48062" lon="6.56933">
        <ele>27.2</ele>
        <time>2025-02-26T16:12:24Z</time>
      </trkpt>
      <trkpt lat="43.48061" lon="6.56931">
        <ele>27.3</ele>
        <time>2025-02-26T16:12:25Z</time>
      </trkpt>
      <trkpt lat="43.4806" lon="6.56929">
        <ele>27.3</ele>
        <time>2025-02-26T16:12:26Z</time>
      </trkpt>
      <trkpt lat="43.4806" lon="6.56929">
        <ele>27.5</ele>
        <time>2025-02-26T16:12:27Z</time>
      </trkpt>
      <trkpt lat="43.48059" lon="6.56928">
        <ele>27.6</ele>
        <time>2025-02-26T16:12:28Z</time>
      </trkpt>
      <trkpt lat="43.48058" lon="6.56927">
        <ele>27.5</ele>
        <time>2025-02-26T16:12:29Z</time>
      </trkpt>
      <trkpt lat="43.48057" lon="6.56926">
        <ele>27.6</ele>
        <time>2025-02-26T16:12:30Z</time>
      </trkpt>
      <trkpt lat="43.48056" lon="6.56925">
        <ele>27.5</ele>
        <time>2025-02-26T16:12:31Z</time>
      </trkpt>
      <trkpt lat="43.48056" lon="6.56924">
        <ele>27.4</ele>
        <time>2025-02-26T16:12:32Z</time>
      </trkpt>
      <trkpt lat="43.48055" lon="6.56924">
        <ele>27.3</ele>
        <time>2025-02-26T16:12:33Z</time>
      </trkpt>
      <trkpt lat="43.48054" lon="6.56923">
        <ele>27.3</ele>
        <time>2025-02-26T16:12:34Z</time>
      </trkpt>
      <trkpt lat="43.48053" lon="6.56922">
        <ele>27.3</ele>
        <time>2025-02-26T16:12:35Z</time>
      </trkpt>
      <trkpt lat="43.48052" lon="6.56921">
        <ele>27.3</ele>
        <time>2025-02-26T16:12:36Z</time>
      </trkpt>
      <trkpt lat="43.48051" lon="6.5692">
        <ele>27.2</ele>
        <time>2025-02-26T16:12:37Z</time>
      </trkpt>
      <trkpt lat="43.4805" lon="6.5692">
        <ele>27.2</ele>
        <time>2025-02-26T16:12:38Z</time>
      </trkpt>
      <trkpt lat="43.48049" lon="6.5692">
        <ele>27.2</ele>
        <time>2025-02-26T16:12:39Z</time>
      </trkpt>
      <trkpt lat="43.48048" lon="6.5692">
        <ele>27.2</ele>
        <time>2025-02-26T16:12:40Z</time>
      </trkpt>
      <trkpt lat="43.48047" lon="6.5692">
        <ele>27.2</ele>
        <time>2025-02-26T16:12:41Z</time>
      </trkpt>
      <trkpt lat="43.48046" lon="6.5692">
        <ele>27.3</ele>
        <time>2025-02-26T16:12:42Z</time>
      </trkpt>
      <trkpt lat="43.48045" lon="6.56919">
        <ele>27.4</ele>
        <time>2025-02-26T16:12:43Z</time>
      </trkpt>
      <trkpt lat="43.48044" lon="6.56919">
        <ele>27.6</ele>
        <time>2025-02-26T16:12:44Z</time>
      </trkpt>
      <trkpt lat="43.48043" lon="6.56918">
        <ele>27.6</ele>
        <time>2025-02-26T16:12:45Z</time>
      </trkpt>
      <trkpt lat="43.48042" lon="6.56917">
        <ele>27.7</ele>
        <time>2025-02-26T16:12:46Z</time>
      </trkpt>
      <trkpt lat="43.48041" lon="6.56917">
        <ele>27.8</ele>
        <time>2025-02-26T16:12:47Z</time>
      </trkpt>
      <trkpt lat="43.4804" lon="6.56916">
        <ele>27.8</ele>
        <time>2025-02-26T16:12:48Z</time>
      </trkpt>
      <trkpt lat="43.4804" lon="6.56916">
        <ele>27.8</ele>
        <time>2025-02-26T16:12:49Z</time>
      </trkpt>
      <trkpt lat="43.48039" lon="6.56915">
        <ele>27.8</ele>
        <time>2025-02-26T16:12:50Z</time>
      </trkpt>
      <trkpt lat="43.48038" lon="6.56914">
        <ele>27.8</ele>
        <time>2025-02-26T16:12:51Z</time>
      </trkpt>
      <trkpt lat="43.48037" lon="6.56914">
        <ele>27.9</ele>
        <time>2025-02-26T16:12:52Z</time>
      </trkpt>
      <trkpt lat="43.48036" lon="6.56912">
        <ele>27.9</ele>
        <time>2025-02-26T16:12:53Z</time>
      </trkpt>
      <trkpt lat="43.48035" lon="6.56911">
        <ele>28</ele>
        <time>2025-02-26T16:12:54Z</time>
      </trkpt>
      <trkpt lat="43.48034" lon="6.5691">
        <ele>28</ele>
        <time>2025-02-26T16:12:55Z</time>
      </trkpt>
      <trkpt lat="43.48034" lon="6.56908">
        <ele>28.1</ele>
        <time>2025-02-26T16:12:56Z</time>
      </trkpt>
      <trkpt lat="43.48033" lon="6.56906">
        <ele>28</ele>
        <time>2025-02-26T16:12:57Z</time>
      </trkpt>
      <trkpt lat="43.48033" lon="6.56905">
        <ele>27.9</ele>
        <time>2025-02-26T16:12:58Z</time>
      </trkpt>
      <trkpt lat="43.48032" lon="6.56903">
        <ele>27.8</ele>
        <time>2025-02-26T16:12:59Z</time>
      </trkpt>
      <trkpt lat="43.48032" lon="6.56902">
        <ele>27.8</ele>
        <time>2025-02-26T16:13:00Z</time>
      </trkpt>
      <trkpt lat="43.48033" lon="6.569">
        <ele>27.8</ele>
        <time>2025-02-26T16:13:01Z</time>
      </trkpt>
      <trkpt lat="43.48033" lon="6.56898">
        <ele>27.8</ele>
        <time>2025-02-26T16:13:02Z</time>
      </trkpt>
      <trkpt lat="43.48034" lon="6.56897">
        <ele>27.9</ele>
        <time>2025-02-26T16:13:03Z</time>
      </trkpt>
      <trkpt lat="43.48034" lon="6.56896">
        <ele>28.2</ele>
        <time>2025-02-26T16:13:04Z</time>
      </trkpt>
      <trkpt lat="43.48035" lon="6.56895">
        <ele>28.2</ele>
        <time>2025-02-26T16:13:05Z</time>
      </trkpt>
      <trkpt lat="43.48036" lon="6.56893">
        <ele>28.3</ele>
        <time>2025-02-26T16:13:06Z</time>
      </trkpt>
      <trkpt lat="43.48036" lon="6.56891">
        <ele>28.2</ele>
        <time>2025-02-26T16:13:07Z</time>
      </trkpt>
      <trkpt lat="43.48037" lon="6.56889">
        <ele>28.2</ele>
        <time>2025-02-26T16:13:08Z</time>
      </trkpt>
      <trkpt lat="43.48037" lon="6.56888">
        <ele>28.1</ele>
        <time>2025-02-26T16:13:09Z</time>
      </trkpt>
      <trkpt lat="43.48037" lon="6.56887">
        <ele>28.2</ele>
        <time>2025-02-26T16:13:10Z</time>
      </trkpt>
      <trkpt lat="43.48037" lon="6.56885">
        <ele>28.2</ele>
        <time>2025-02-26T16:13:11Z</time>
      </trkpt>
      <trkpt lat="43.48037" lon="6.56884">
        <ele>28.1</ele>
        <time>2025-02-26T16:13:12Z</time>
      </trkpt>
      <trkpt lat="43.48038" lon="6.56883">
        <ele>28.1</ele>
        <time>2025-02-26T16:13:13Z</time>
      </trkpt>
      <trkpt lat="43.48038" lon="6.56881">
        <ele>28</ele>
        <time>2025-02-26T16:13:14Z</time>
      </trkpt>
      <trkpt lat="43.48039" lon="6.5688">
        <ele>28</ele>
        <time>2025-02-26T16:13:15Z</time>
      </trkpt>
      <trkpt lat="43.48039" lon="6.56879">
        <ele>28</ele>
        <time>2025-02-26T16:13:16Z</time>
      </trkpt>
      <trkpt lat="43.4804" lon="6.56878">
        <ele>27.9</ele>
        <time>2025-02-26T16:13:17Z</time>
      </trkpt>
      <trkpt lat="43.4804" lon="6.56877">
        <ele>28.2</ele>
        <time>2025-02-26T16:13:18Z</time>
      </trkpt>
      <trkpt lat="43.48041" lon="6.56876">
        <ele>28.2</ele>
        <time>2025-02-26T16:13:19Z</time>
      </trkpt>
      <trkpt lat="43.48041" lon="6.56875">
        <ele>28.3</ele>
        <time>2025-02-26T16:13:20Z</time>
      </trkpt>
      <trkpt lat="43.48041" lon="6.56873">
        <ele>28.3</ele>
        <time>2025-02-26T16:13:21Z</time>
      </trkpt>
      <trkpt lat="43.48042" lon="6.56871">
        <ele>28.4</ele>
        <time>2025-02-26T16:13:22Z</time>
      </trkpt>
      <trkpt lat="43.48043" lon="6.5687">
        <ele>28.4</ele>
        <time>2025-02-26T16:13:23Z</time>
      </trkpt>
      <trkpt lat="43.48044" lon="6.56868">
        <ele>28.4</ele>
        <time>2025-02-26T16:13:24Z</time>
      </trkpt>
      <trkpt lat="43.48044" lon="6.56867">
        <ele>28.4</ele>
        <time>2025-02-26T16:13:25Z</time>
      </trkpt>
      <trkpt lat="43.48045" lon="6.56865">
        <ele>28.4</ele>
        <time>2025-02-26T16:13:26Z</time>
      </trkpt>
      <trkpt lat="43.48045" lon="6.56863">
        <ele>28.3</ele>
        <time>2025-02-26T16:13:27Z</time>
      </trkpt>
      <trkpt lat="43.48045" lon="6.56862">
        <ele>28.3</ele>
        <time>2025-02-26T16:13:28Z</time>
      </trkpt>
      <trkpt lat="43.48045" lon="6.56861">
        <ele>28.3</ele>
        <time>2025-02-26T16:13:29Z</time>
      </trkpt>
      <trkpt lat="43.48046" lon="6.56859">
        <ele>28.3</ele>
        <time>2025-02-26T16:13:30Z</time>
      </trkpt>
      <trkpt lat="43.48046" lon="6.56857">
        <ele>28.3</ele>
        <time>2025-02-26T16:13:31Z</time>
      </trkpt>
      <trkpt lat="43.48047" lon="6.56855">
        <ele>28.2</ele>
        <time>2025-02-26T16:13:32Z</time>
      </trkpt>
      <trkpt lat="43.48047" lon="6.56854">
        <ele>28.2</ele>
        <time>2025-02-26T16:13:33Z</time>
      </trkpt>
      <trkpt lat="43.48048" lon="6.56852">
        <ele>28.2</ele>
        <time>2025-02-26T16:13:34Z</time>
      </trkpt>
      <trkpt lat="43.48049" lon="6.56851">
        <ele>28.2</ele>
        <time>2025-02-26T16:13:35Z</time>
      </trkpt>
      <trkpt lat="43.48049" lon="6.56849">
        <ele>28.1</ele>
        <time>2025-02-26T16:13:36Z</time>
      </trkpt>
      <trkpt lat="43.4805" lon="6.56847">
        <ele>28</ele>
        <time>2025-02-26T16:13:37Z</time>
      </trkpt>
      <trkpt lat="43.48051" lon="6.56846">
        <ele>28</ele>
        <time>2025-02-26T16:13:38Z</time>
      </trkpt>
      <trkpt lat="43.48052" lon="6.56844">
        <ele>28</ele>
        <time>2025-02-26T16:13:39Z</time>
      </trkpt>
      <trkpt lat="43.48052" lon="6.56843">
        <ele>27.9</ele>
        <time>2025-02-26T16:13:40Z</time>
      </trkpt>
      <trkpt lat="43.48052" lon="6.56841">
        <ele>28</ele>
        <time>2025-02-26T16:13:41Z</time>
      </trkpt>
      <trkpt lat="43.48053" lon="6.56839">
        <ele>28</ele>
        <time>2025-02-26T16:13:42Z</time>
      </trkpt>
      <trkpt lat="43.48053" lon="6.56837">
        <ele>28.1</ele>
        <time>2025-02-26T16:13:43Z</time>
      </trkpt>
      <trkpt lat="43.48053" lon="6.56836">
        <ele>28.2</ele>
        <time>2025-02-26T16:13:44Z</time>
      </trkpt>
      <trkpt lat="43.48054" lon="6.56834">
        <ele>28.3</ele>
        <time>2025-02-26T16:13:45Z</time>
      </trkpt>
      <trkpt lat="43.48054" lon="6.56832">
        <ele>28.4</ele>
        <time>2025-02-26T16:13:46Z</time>
      </trkpt>
      <trkpt lat="43.48054" lon="6.5683">
        <ele>28.5</ele>
        <time>2025-02-26T16:13:47Z</time>
      </trkpt>
      <trkpt lat="43.48055" lon="6.56829">
        <ele>28.6</ele>
        <time>2025-02-26T16:13:48Z</time>
      </trkpt>
      <trkpt lat="43.48055" lon="6.56828">
        <ele>28.7</ele>
        <time>2025-02-26T16:13:49Z</time>
      </trkpt>
      <trkpt lat="43.48055" lon="6.56826">
        <ele>28.8</ele>
        <time>2025-02-26T16:13:50Z</time>
      </trkpt>
      <trkpt lat="43.48055" lon="6.56825">
        <ele>28.7</ele>
        <time>2025-02-26T16:13:51Z</time>
      </trkpt>
      <trkpt lat="43.48055" lon="6.56823">
        <ele>28.7</ele>
        <time>2025-02-26T16:13:52Z</time>
      </trkpt>
      <trkpt lat="43.48056" lon="6.56821">
        <ele>28.6</ele>
        <time>2025-02-26T16:13:53Z</time>
      </trkpt>
      <trkpt lat="43.48056" lon="6.5682">
        <ele>28.7</ele>
        <time>2025-02-26T16:13:54Z</time>
      </trkpt>
      <trkpt lat="43.48056" lon="6.56819">
        <ele>28.7</ele>
        <time>2025-02-26T16:13:55Z</time>
      </trkpt>
      <trkpt lat="43.48056" lon="6.56818">
        <ele>28.7</ele>
        <time>2025-02-26T16:13:56Z</time>
      </trkpt>
      <trkpt lat="43.48056" lon="6.56816">
        <ele>28.7</ele>
        <time>2025-02-26T16:13:57Z</time>
      </trkpt>
      <trkpt lat="43.48057" lon="6.56814">
        <ele>28.8</ele>
        <time>2025-02-26T16:13:58Z</time>
      </trkpt>
      <trkpt lat="43.48057" lon="6.56812">
        <ele>28.8</ele>
        <time>2025-02-26T16:13:59Z</time>
      </trkpt>
      <trkpt lat="43.48057" lon="6.56811">
        <ele>28.9</ele>
        <time>2025-02-26T16:14:00Z</time>
      </trkpt>
      <trkpt lat="43.48057" lon="6.56809">
        <ele>28.9</ele>
        <time>2025-02-26T16:14:01Z</time>
      </trkpt>
      <trkpt lat="43.48058" lon="6.56808">
        <ele>28.9</ele>
        <time>2025-02-26T16:14:02Z</time>
      </trkpt>
      <trkpt lat="43.48058" lon="6.56806">
        <ele>28.9</ele>
        <time>2025-02-26T16:14:03Z</time>
      </trkpt>
      <trkpt lat="43.48058" lon="6.56805">
        <ele>29</ele>
        <time>2025-02-26T16:14:04Z</time>
      </trkpt>
      <trkpt lat="43.48058" lon="6.56803">
        <ele>29</ele>
        <time>2025-02-26T16:14:05Z</time>
      </trkpt>
      <trkpt lat="43.48059" lon="6.56802">
        <ele>29</ele>
        <time>2025-02-26T16:14:06Z</time>
      </trkpt>
      <trkpt lat="43.48059" lon="6.568">
        <ele>29</ele>
        <time>2025-02-26T16:14:07Z</time>
      </trkpt>
      <trkpt lat="43.48059" lon="6.56798">
        <ele>29.1</ele>
        <time>2025-02-26T16:14:08Z</time>
      </trkpt>
      <trkpt lat="43.4806" lon="6.56797">
        <ele>29</ele>
        <time>2025-02-26T16:14:09Z</time>
      </trkpt>
      <trkpt lat="43.4806" lon="6.56795">
        <ele>29</ele>
        <time>2025-02-26T16:14:10Z</time>
      </trkpt>
      <trkpt lat="43.4806" lon="6.56794">
        <ele>29.1</ele>
        <time>2025-02-26T16:14:11Z</time>
      </trkpt>
      <trkpt lat="43.4806" lon="6.56793">
        <ele>29.2</ele>
        <time>2025-02-26T16:14:12Z</time>
      </trkpt>
      <trkpt lat="43.4806" lon="6.56791">
        <ele>29.2</ele>
        <time>2025-02-26T16:14:13Z</time>
      </trkpt>
      <trkpt lat="43.4806" lon="6.5679">
        <ele>29.2</ele>
        <time>2025-02-26T16:14:14Z</time>
      </trkpt>
      <trkpt lat="43.48061" lon="6.56788">
        <ele>29.3</ele>
        <time>2025-02-26T16:14:15Z</time>
      </trkpt>
      <trkpt lat="43.48061" lon="6.56787">
        <ele>29.3</ele>
        <time>2025-02-26T16:14:16Z</time>
      </trkpt>
      <trkpt lat="43.48061" lon="6.56786">
        <ele>29.2</ele>
        <time>2025-02-26T16:14:17Z</time>
      </trkpt>
      <trkpt lat="43.4806" lon="6.56785">
        <ele>29.2</ele>
        <time>2025-02-26T16:14:18Z</time>
      </trkpt>
      <trkpt lat="43.4806" lon="6.56785">
        <ele>29.2</ele>
        <time>2025-02-26T16:14:19Z</time>
      </trkpt>
      <trkpt lat="43.4806" lon="6.56784">
        <ele>29.1</ele>
        <time>2025-02-26T16:14:20Z</time>
      </trkpt>
      <trkpt lat="43.48059" lon="6.56784">
        <ele>29.2</ele>
        <time>2025-02-26T16:14:21Z</time>
      </trkpt>
      <trkpt lat="43.4806" lon="6.56783">
        <ele>29.1</ele>
        <time>2025-02-26T16:14:22Z</time>
      </trkpt>
      <trkpt lat="43.4806" lon="6.56782">
        <ele>29.1</ele>
        <time>2025-02-26T16:14:23Z</time>
      </trkpt>
      <trkpt lat="43.4806" lon="6.56782">
        <ele>29</ele>
        <time>2025-02-26T16:14:24Z</time>
      </trkpt>
      <trkpt lat="43.4806" lon="6.56782">
        <ele>29</ele>
        <time>2025-02-26T16:14:25Z</time>
      </trkpt>
      <trkpt lat="43.4806" lon="6.56782">
        <ele>28.9</ele>
        <time>2025-02-26T16:14:26Z</time>
      </trkpt>
      <trkpt lat="43.4806" lon="6.56781">
        <ele>28.9</ele>
        <time>2025-02-26T16:14:27Z</time>
      </trkpt>
      <trkpt lat="43.4806" lon="6.5678">
        <ele>28.9</ele>
        <time>2025-02-26T16:14:28Z</time>
      </trkpt>
      <trkpt lat="43.4806" lon="6.56779">
        <ele>28.9</ele>
        <time>2025-02-26T16:14:29Z</time>
      </trkpt>
      <trkpt lat="43.4806" lon="6.56778">
        <ele>28.9</ele>
        <time>2025-02-26T16:14:30Z</time>
      </trkpt>
      <trkpt lat="43.4806" lon="6.56777">
        <ele>29</ele>
        <time>2025-02-26T16:14:31Z</time>
      </trkpt>
      <trkpt lat="43.4806" lon="6.56776">
        <ele>29</ele>
        <time>2025-02-26T16:14:32Z</time>
      </trkpt>
      <trkpt lat="43.4806" lon="6.56776">
        <ele>29.1</ele>
        <time>2025-02-26T16:14:33Z</time>
      </trkpt>
      <trkpt lat="43.4806" lon="6.56775">
        <ele>29.1</ele>
        <time>2025-02-26T16:14:34Z</time>
      </trkpt>
      <trkpt lat="43.48059" lon="6.56775">
        <ele>29.1</ele>
        <time>2025-02-26T16:14:35Z</time>
      </trkpt>
      <trkpt lat="43.48058" lon="6.56774">
        <ele>29</ele>
        <time>2025-02-26T16:14:36Z</time>
      </trkpt>
      <trkpt lat="43.48057" lon="6.56774">
        <ele>28.9</ele>
        <time>2025-02-26T16:14:37Z</time>
      </trkpt>
      <trkpt lat="43.48056" lon="6.56773">
        <ele>28.9</ele>
        <time>2025-02-26T16:14:38Z</time>
      </trkpt>
      <trkpt lat="43.48055" lon="6.56772">
        <ele>28.9</ele>
        <time>2025-02-26T16:14:39Z</time>
      </trkpt>
      <trkpt lat="43.48053" lon="6.56772">
        <ele>28.9</ele>
        <time>2025-02-26T16:14:40Z</time>
      </trkpt>
      <trkpt lat="43.48052" lon="6.56771">
        <ele>28.8</ele>
        <time>2025-02-26T16:14:41Z</time>
      </trkpt>
      <trkpt lat="43.48051" lon="6.5677">
        <ele>28.8</ele>
        <time>2025-02-26T16:14:42Z</time>
      </trkpt>
      <trkpt lat="43.4805" lon="6.56769">
        <ele>28.8</ele>
        <time>2025-02-26T16:14:43Z</time>
      </trkpt>
      <trkpt lat="43.48049" lon="6.56768">
        <ele>28.8</ele>
        <time>2025-02-26T16:14:44Z</time>
      </trkpt>
      <trkpt lat="43.48048" lon="6.56767">
        <ele>28.8</ele>
        <time>2025-02-26T16:14:45Z</time>
      </trkpt>
      <trkpt lat="43.48047" lon="6.56767">
        <ele>28.8</ele>
        <time>2025-02-26T16:14:46Z</time>
      </trkpt>
      <trkpt lat="43.48046" lon="6.56766">
        <ele>28.8</ele>
        <time>2025-02-26T16:14:47Z</time>
      </trkpt>
      <trkpt lat="43.48045" lon="6.56765">
        <ele>28.8</ele>
        <time>2025-02-26T16:14:48Z</time>
      </trkpt>
      <trkpt lat="43.48044" lon="6.56765">
        <ele>28.8</ele>
        <time>2025-02-26T16:14:49Z</time>
      </trkpt>
      <trkpt lat="43.48043" lon="6.56765">
        <ele>28.7</ele>
        <time>2025-02-26T16:14:50Z</time>
      </trkpt>
      <trkpt lat="43.48041" lon="6.56764">
        <ele>28.7</ele>
        <time>2025-02-26T16:14:51Z</time>
      </trkpt>
      <trkpt lat="43.4804" lon="6.56763">
        <ele>28.7</ele>
        <time>2025-02-26T16:14:52Z</time>
      </trkpt>
      <trkpt lat="43.48039" lon="6.56762">
        <ele>28.7</ele>
        <time>2025-02-26T16:14:53Z</time>
      </trkpt>
      <trkpt lat="43.48038" lon="6.56762">
        <ele>28.7</ele>
        <time>2025-02-26T16:14:54Z</time>
      </trkpt>
      <trkpt lat="43.48037" lon="6.56761">
        <ele>28.7</ele>
        <time>2025-02-26T16:14:55Z</time>
      </trkpt>
      <trkpt lat="43.48036" lon="6.56761">
        <ele>28.8</ele>
        <time>2025-02-26T16:14:56Z</time>
      </trkpt>
      <trkpt lat="43.48035" lon="6.56761">
        <ele>28.8</ele>
        <time>2025-02-26T16:14:57Z</time>
      </trkpt>
      <trkpt lat="43.48034" lon="6.56761">
        <ele>28.7</ele>
        <time>2025-02-26T16:14:58Z</time>
      </trkpt>
      <trkpt lat="43.48033" lon="6.56761">
        <ele>28.7</ele>
        <time>2025-02-26T16:14:59Z</time>
      </trkpt>
      <trkpt lat="43.48032" lon="6.5676">
        <ele>28.7</ele>
        <time>2025-02-26T16:15:00Z</time>
      </trkpt>
      <trkpt lat="43.48031" lon="6.56759">
        <ele>28.7</ele>
        <time>2025-02-26T16:15:01Z</time>
      </trkpt>
      <trkpt lat="43.4803" lon="6.56759">
        <ele>28.9</ele>
        <time>2025-02-26T16:15:02Z</time>
      </trkpt>
      <trkpt lat="43.48029" lon="6.56759">
        <ele>29</ele>
        <time>2025-02-26T16:15:03Z</time>
      </trkpt>
      <trkpt lat="43.48027" lon="6.56759">
        <ele>29</ele>
        <time>2025-02-26T16:15:04Z</time>
      </trkpt>
      <trkpt lat="43.48026" lon="6.56759">
        <ele>29.1</ele>
        <time>2025-02-26T16:15:05Z</time>
      </trkpt>
      <trkpt lat="43.48025" lon="6.56759">
        <ele>29.1</ele>
        <time>2025-02-26T16:15:06Z</time>
      </trkpt>
      <trkpt lat="43.48024" lon="6.56758">
        <ele>29</ele>
        <time>2025-02-26T16:15:07Z</time>
      </trkpt>
      <trkpt lat="43.48023" lon="6.56758">
        <ele>29</ele>
        <time>2025-02-26T16:15:08Z</time>
      </trkpt>
      <trkpt lat="43.48021" lon="6.56757">
        <ele>29.1</ele>
        <time>2025-02-26T16:15:09Z</time>
      </trkpt>
      <trkpt lat="43.4802" lon="6.56756">
        <ele>29.1</ele>
        <time>2025-02-26T16:15:10Z</time>
      </trkpt>
      <trkpt lat="43.48019" lon="6.56756">
        <ele>29.1</ele>
        <time>2025-02-26T16:15:11Z</time>
      </trkpt>
      <trkpt lat="43.48018" lon="6.56756">
        <ele>29.1</ele>
        <time>2025-02-26T16:15:12Z</time>
      </trkpt>
      <trkpt lat="43.48017" lon="6.56756">
        <ele>29.2</ele>
        <time>2025-02-26T16:15:13Z</time>
      </trkpt>
      <trkpt lat="43.48016" lon="6.56756">
        <ele>29.2</ele>
        <time>2025-02-26T16:15:14Z</time>
      </trkpt>
      <trkpt lat="43.48015" lon="6.56755">
        <ele>29.1</ele>
        <time>2025-02-26T16:15:15Z</time>
      </trkpt>
      <trkpt lat="43.48014" lon="6.56755">
        <ele>29.1</ele>
        <time>2025-02-26T16:15:16Z</time>
      </trkpt>
      <trkpt lat="43.48012" lon="6.56755">
        <ele>29.1</ele>
        <time>2025-02-26T16:15:17Z</time>
      </trkpt>
      <trkpt lat="43.48012" lon="6.56755">
        <ele>29.1</ele>
        <time>2025-02-26T16:15:18Z</time>
      </trkpt>
      <trkpt lat="43.4801" lon="6.56755">
        <ele>29.1</ele>
        <time>2025-02-26T16:15:19Z</time>
      </trkpt>
      <trkpt lat="43.4801" lon="6.56756">
        <ele>29</ele>
        <time>2025-02-26T16:15:20Z</time>
      </trkpt>
      <trkpt lat="43.48008" lon="6.56756">
        <ele>28.8</ele>
        <time>2025-02-26T16:15:21Z</time>
      </trkpt>
      <trkpt lat="43.48007" lon="6.56756">
        <ele>28.8</ele>
        <time>2025-02-26T16:15:22Z</time>
      </trkpt>
      <trkpt lat="43.48006" lon="6.56757">
        <ele>28.7</ele>
        <time>2025-02-26T16:15:23Z</time>
      </trkpt>
      <trkpt lat="43.48005" lon="6.56758">
        <ele>28.6</ele>
        <time>2025-02-26T16:15:24Z</time>
      </trkpt>
      <trkpt lat="43.48004" lon="6.56759">
        <ele>28.6</ele>
        <time>2025-02-26T16:15:25Z</time>
      </trkpt>
      <trkpt lat="43.48002" lon="6.5676">
        <ele>28.7</ele>
        <time>2025-02-26T16:15:26Z</time>
      </trkpt>
      <trkpt lat="43.48001" lon="6.5676">
        <ele>28.7</ele>
        <time>2025-02-26T16:15:27Z</time>
      </trkpt>
      <trkpt lat="43.48" lon="6.5676">
        <ele>28.8</ele>
        <time>2025-02-26T16:15:28Z</time>
      </trkpt>
      <trkpt lat="43.47998" lon="6.56761">
        <ele>28.9</ele>
        <time>2025-02-26T16:15:29Z</time>
      </trkpt>
      <trkpt lat="43.47997" lon="6.56761">
        <ele>28.9</ele>
        <time>2025-02-26T16:15:30Z</time>
      </trkpt>
      <trkpt lat="43.47996" lon="6.56761">
        <ele>28.8</ele>
        <time>2025-02-26T16:15:31Z</time>
      </trkpt>
      <trkpt lat="43.47995" lon="6.56761">
        <ele>28.7</ele>
        <time>2025-02-26T16:15:32Z</time>
      </trkpt>
      <trkpt lat="43.47994" lon="6.56762">
        <ele>28.6</ele>
        <time>2025-02-26T16:15:33Z</time>
      </trkpt>
      <trkpt lat="43.47993" lon="6.56763">
        <ele>28.7</ele>
        <time>2025-02-26T16:15:34Z</time>
      </trkpt>
      <trkpt lat="43.47992" lon="6.56764">
        <ele>28.6</ele>
        <time>2025-02-26T16:15:35Z</time>
      </trkpt>
      <trkpt lat="43.47991" lon="6.56765">
        <ele>28.6</ele>
        <time>2025-02-26T16:15:36Z</time>
      </trkpt>
      <trkpt lat="43.47991" lon="6.56766">
        <ele>28.5</ele>
        <time>2025-02-26T16:15:37Z</time>
      </trkpt>
      <trkpt lat="43.4799" lon="6.56767">
        <ele>28.4</ele>
        <time>2025-02-26T16:15:38Z</time>
      </trkpt>
      <trkpt lat="43.47989" lon="6.56768">
        <ele>28.3</ele>
        <time>2025-02-26T16:15:39Z</time>
      </trkpt>
      <trkpt lat="43.47988" lon="6.56769">
        <ele>28.2</ele>
        <time>2025-02-26T16:15:40Z</time>
      </trkpt>
      <trkpt lat="43.47987" lon="6.5677">
        <ele>28.1</ele>
        <time>2025-02-26T16:15:41Z</time>
      </trkpt>
      <trkpt lat="43.47986" lon="6.56771">
        <ele>28</ele>
        <time>2025-02-26T16:15:42Z</time>
      </trkpt>
      <trkpt lat="43.47986" lon="6.56771">
        <ele>27.9</ele>
        <time>2025-02-26T16:15:43Z</time>
      </trkpt>
      <trkpt lat="43.47985" lon="6.56772">
        <ele>27.7</ele>
        <time>2025-02-26T16:15:44Z</time>
      </trkpt>
      <trkpt lat="43.47984" lon="6.56773">
        <ele>27.7</ele>
        <time>2025-02-26T16:15:45Z</time>
      </trkpt>
      <trkpt lat="43.47984" lon="6.56773">
        <ele>27.7</ele>
        <time>2025-02-26T16:15:46Z</time>
      </trkpt>
      <trkpt lat="43.47983" lon="6.56774">
        <ele>27.7</ele>
        <time>2025-02-26T16:15:47Z</time>
      </trkpt>
      <trkpt lat="43.47983" lon="6.56776">
        <ele>27.6</ele>
        <time>2025-02-26T16:15:48Z</time>
      </trkpt>
      <trkpt lat="43.47983" lon="6.56777">
        <ele>27.6</ele>
        <time>2025-02-26T16:15:49Z</time>
      </trkpt>
      <trkpt lat="43.47982" lon="6.56778">
        <ele>27.6</ele>
        <time>2025-02-26T16:15:50Z</time>
      </trkpt>
      <trkpt lat="43.47981" lon="6.5678">
        <ele>27.4</ele>
        <time>2025-02-26T16:15:51Z</time>
      </trkpt>
      <trkpt lat="43.4798" lon="6.56782">
        <ele>26.3</ele>
        <time>2025-02-26T16:15:52Z</time>
      </trkpt>
      <trkpt lat="43.47979" lon="6.56783">
        <ele>26.2</ele>
        <time>2025-02-26T16:15:53Z</time>
      </trkpt>
      <trkpt lat="43.47978" lon="6.56784">
        <ele>26.2</ele>
        <time>2025-02-26T16:15:54Z</time>
      </trkpt>
      <trkpt lat="43.47977" lon="6.56786">
        <ele>26.2</ele>
        <time>2025-02-26T16:15:55Z</time>
      </trkpt>
      <trkpt lat="43.47976" lon="6.56788">
        <ele>26.3</ele>
        <time>2025-02-26T16:15:56Z</time>
      </trkpt>
      <trkpt lat="43.47975" lon="6.56789">
        <ele>26.3</ele>
        <time>2025-02-26T16:15:57Z</time>
      </trkpt>
      <trkpt lat="43.47975" lon="6.56791">
        <ele>26.4</ele>
        <time>2025-02-26T16:15:58Z</time>
      </trkpt>
      <trkpt lat="43.47974" lon="6.56792">
        <ele>26.3</ele>
        <time>2025-02-26T16:15:59Z</time>
      </trkpt>
      <trkpt lat="43.47974" lon="6.56793">
        <ele>26.3</ele>
        <time>2025-02-26T16:16:00Z</time>
      </trkpt>
      <trkpt lat="43.47973" lon="6.56795">
        <ele>26.3</ele>
        <time>2025-02-26T16:16:01Z</time>
      </trkpt>
      <trkpt lat="43.47972" lon="6.56797">
        <ele>26.2</ele>
        <time>2025-02-26T16:16:02Z</time>
      </trkpt>
      <trkpt lat="43.47971" lon="6.56798">
        <ele>26</ele>
        <time>2025-02-26T16:16:03Z</time>
      </trkpt>
      <trkpt lat="43.47971" lon="6.56799">
        <ele>25.9</ele>
        <time>2025-02-26T16:16:04Z</time>
      </trkpt>
      <trkpt lat="43.4797" lon="6.568">
        <ele>25.8</ele>
        <time>2025-02-26T16:16:05Z</time>
      </trkpt>
      <trkpt lat="43.47969" lon="6.56801">
        <ele>25.8</ele>
        <time>2025-02-26T16:16:06Z</time>
      </trkpt>
      <trkpt lat="43.47969" lon="6.56803">
        <ele>25.7</ele>
        <time>2025-02-26T16:16:07Z</time>
      </trkpt>
      <trkpt lat="43.47968" lon="6.56805">
        <ele>25.6</ele>
        <time>2025-02-26T16:16:08Z</time>
      </trkpt>
      <trkpt lat="43.47967" lon="6.56806">
        <ele>25.5</ele>
        <time>2025-02-26T16:16:09Z</time>
      </trkpt>
      <trkpt lat="43.47966" lon="6.56808">
        <ele>25.4</ele>
        <time>2025-02-26T16:16:10Z</time>
      </trkpt>
      <trkpt lat="43.47965" lon="6.56809">
        <ele>25.3</ele>
        <time>2025-02-26T16:16:11Z</time>
      </trkpt>
      <trkpt lat="43.47964" lon="6.5681">
        <ele>25.1</ele>
        <time>2025-02-26T16:16:12Z</time>
      </trkpt>
      <trkpt lat="43.47963" lon="6.56812">
        <ele>25.1</ele>
        <time>2025-02-26T16:16:13Z</time>
      </trkpt>
      <trkpt lat="43.47962" lon="6.56812">
        <ele>25.1</ele>
        <time>2025-02-26T16:16:14Z</time>
      </trkpt>
      <trkpt lat="43.47962" lon="6.56813">
        <ele>25.2</ele>
        <time>2025-02-26T16:16:15Z</time>
      </trkpt>
      <trkpt lat="43.47961" lon="6.56813">
        <ele>25.4</ele>
        <time>2025-02-26T16:16:16Z</time>
      </trkpt>
      <trkpt lat="43.4796" lon="6.56815">
        <ele>25.3</ele>
        <time>2025-02-26T16:16:17Z</time>
      </trkpt>
      <trkpt lat="43.47958" lon="6.56816">
        <ele>25.3</ele>
        <time>2025-02-26T16:16:18Z</time>
      </trkpt>
      <trkpt lat="43.47957" lon="6.56817">
        <ele>25.3</ele>
        <time>2025-02-26T16:16:19Z</time>
      </trkpt>
      <trkpt lat="43.47957" lon="6.56819">
        <ele>25.2</ele>
        <time>2025-02-26T16:16:20Z</time>
      </trkpt>
      <trkpt lat="43.47956" lon="6.56819">
        <ele>25.2</ele>
        <time>2025-02-26T16:16:21Z</time>
      </trkpt>
      <trkpt lat="43.47955" lon="6.5682">
        <ele>25.2</ele>
        <time>2025-02-26T16:16:22Z</time>
      </trkpt>
      <trkpt lat="43.47954" lon="6.56821">
        <ele>25.2</ele>
        <time>2025-02-26T16:16:23Z</time>
      </trkpt>
      <trkpt lat="43.47953" lon="6.56821">
        <ele>25.1</ele>
        <time>2025-02-26T16:16:24Z</time>
      </trkpt>
      <trkpt lat="43.47952" lon="6.56821">
        <ele>25.1</ele>
        <time>2025-02-26T16:16:25Z</time>
      </trkpt>
      <trkpt lat="43.47951" lon="6.56821">
        <ele>25.1</ele>
        <time>2025-02-26T16:16:26Z</time>
      </trkpt>
      <trkpt lat="43.47951" lon="6.56822">
        <ele>25</ele>
        <time>2025-02-26T16:16:27Z</time>
      </trkpt>
      <trkpt lat="43.4795" lon="6.56822">
        <ele>24.9</ele>
        <time>2025-02-26T16:16:28Z</time>
      </trkpt>
      <trkpt lat="43.47949" lon="6.56822">
        <ele>24.8</ele>
        <time>2025-02-26T16:16:29Z</time>
      </trkpt>
      <trkpt lat="43.47948" lon="6.56822">
        <ele>24.8</ele>
        <time>2025-02-26T16:16:30Z</time>
      </trkpt>
      <trkpt lat="43.47947" lon="6.56822">
        <ele>24.8</ele>
        <time>2025-02-26T16:16:31Z</time>
      </trkpt>
      <trkpt lat="43.47946" lon="6.56821">
        <ele>24.7</ele>
        <time>2025-02-26T16:16:32Z</time>
      </trkpt>
      <trkpt lat="43.47945" lon="6.56821">
        <ele>24.8</ele>
        <time>2025-02-26T16:16:33Z</time>
      </trkpt>
      <trkpt lat="43.47944" lon="6.5682">
        <ele>24.8</ele>
        <time>2025-02-26T16:16:34Z</time>
      </trkpt>
      <trkpt lat="43.47944" lon="6.5682">
        <ele>24.8</ele>
        <time>2025-02-26T16:16:35Z</time>
      </trkpt>
      <trkpt lat="43.47943" lon="6.56819">
        <ele>24.9</ele>
        <time>2025-02-26T16:16:36Z</time>
      </trkpt>
      <trkpt lat="43.47942" lon="6.56818">
        <ele>25</ele>
        <time>2025-02-26T16:16:37Z</time>
      </trkpt>
      <trkpt lat="43.47941" lon="6.56818">
        <ele>25</ele>
        <time>2025-02-26T16:16:38Z</time>
      </trkpt>
      <trkpt lat="43.47941" lon="6.56818">
        <ele>25.1</ele>
        <time>2025-02-26T16:16:39Z</time>
      </trkpt>
      <trkpt lat="43.47939" lon="6.56817">
        <ele>25.1</ele>
        <time>2025-02-26T16:16:40Z</time>
      </trkpt>
      <trkpt lat="43.47938" lon="6.56817">
        <ele>25.1</ele>
        <time>2025-02-26T16:16:41Z</time>
      </trkpt>
      <trkpt lat="43.47937" lon="6.56816">
        <ele>25.2</ele>
        <time>2025-02-26T16:16:42Z</time>
      </trkpt>
      <trkpt lat="43.47937" lon="6.56815">
        <ele>25.3</ele>
        <time>2025-02-26T16:16:43Z</time>
      </trkpt>
      <trkpt lat="43.47935" lon="6.56814">
        <ele>25.4</ele>
        <time>2025-02-26T16:16:44Z</time>
      </trkpt>
      <trkpt lat="43.47934" lon="6.56813">
        <ele>25.5</ele>
        <time>2025-02-26T16:16:45Z</time>
      </trkpt>
      <trkpt lat="43.47933" lon="6.56811">
        <ele>25.6</ele>
        <time>2025-02-26T16:16:46Z</time>
      </trkpt>
      <trkpt lat="43.47932" lon="6.5681">
        <ele>25.7</ele>
        <time>2025-02-26T16:16:47Z</time>
      </trkpt>
      <trkpt lat="43.47931" lon="6.56809">
        <ele>25.8</ele>
        <time>2025-02-26T16:16:48Z</time>
      </trkpt>
      <trkpt lat="43.4793" lon="6.56808">
        <ele>25.9</ele>
        <time>2025-02-26T16:16:49Z</time>
      </trkpt>
      <trkpt lat="43.4793" lon="6.56807">
        <ele>25.9</ele>
        <time>2025-02-26T16:16:50Z</time>
      </trkpt>
      <trkpt lat="43.47929" lon="6.56806">
        <ele>25.8</ele>
        <time>2025-02-26T16:16:51Z</time>
      </trkpt>
      <trkpt lat="43.47928" lon="6.56805">
        <ele>25.8</ele>
        <time>2025-02-26T16:16:52Z</time>
      </trkpt>
      <trkpt lat="43.47927" lon="6.56805">
        <ele>25.9</ele>
        <time>2025-02-26T16:16:53Z</time>
      </trkpt>
      <trkpt lat="43.47926" lon="6.56804">
        <ele>25.9</ele>
        <time>2025-02-26T16:16:54Z</time>
      </trkpt>
      <trkpt lat="43.47925" lon="6.56803">
        <ele>26</ele>
        <time>2025-02-26T16:16:55Z</time>
      </trkpt>
      <trkpt lat="43.47924" lon="6.56802">
        <ele>26</ele>
        <time>2025-02-26T16:16:56Z</time>
      </trkpt>
      <trkpt lat="43.47923" lon="6.568">
        <ele>26.1</ele>
        <time>2025-02-26T16:16:57Z</time>
      </trkpt>
      <trkpt lat="43.47922" lon="6.568">
        <ele>26.2</ele>
        <time>2025-02-26T16:16:58Z</time>
      </trkpt>
      <trkpt lat="43.47921" lon="6.56799">
        <ele>26.3</ele>
        <time>2025-02-26T16:16:59Z</time>
      </trkpt>
      <trkpt lat="43.4792" lon="6.56798">
        <ele>26.3</ele>
        <time>2025-02-26T16:17:00Z</time>
      </trkpt>
      <trkpt lat="43.47919" lon="6.56798">
        <ele>26.3</ele>
        <time>2025-02-26T16:17:01Z</time>
      </trkpt>
      <trkpt lat="43.47918" lon="6.56797">
        <ele>26.2</ele>
        <time>2025-02-26T16:17:02Z</time>
      </trkpt>
      <trkpt lat="43.47917" lon="6.56796">
        <ele>26.2</ele>
        <time>2025-02-26T16:17:03Z</time>
      </trkpt>
      <trkpt lat="43.47916" lon="6.56795">
        <ele>26</ele>
        <time>2025-02-26T16:17:04Z</time>
      </trkpt>
      <trkpt lat="43.47916" lon="6.56794">
        <ele>26</ele>
        <time>2025-02-26T16:17:05Z</time>
      </trkpt>
      <trkpt lat="43.47915" lon="6.56793">
        <ele>25.9</ele>
        <time>2025-02-26T16:17:06Z</time>
      </trkpt>
      <trkpt lat="43.47914" lon="6.56793">
        <ele>25.9</ele>
        <time>2025-02-26T16:17:07Z</time>
      </trkpt>
      <trkpt lat="43.47913" lon="6.56792">
        <ele>25.8</ele>
        <time>2025-02-26T16:17:08Z</time>
      </trkpt>
      <trkpt lat="43.47912" lon="6.56792">
        <ele>25.8</ele>
        <time>2025-02-26T16:17:09Z</time>
      </trkpt>
      <trkpt lat="43.47911" lon="6.56791">
        <ele>25.9</ele>
        <time>2025-02-26T16:17:10Z</time>
      </trkpt>
      <trkpt lat="43.4791" lon="6.5679">
        <ele>26.1</ele>
        <time>2025-02-26T16:17:11Z</time>
      </trkpt>
      <trkpt lat="43.47909" lon="6.56789">
        <ele>26.2</ele>
        <time>2025-02-26T16:17:12Z</time>
      </trkpt>
      <trkpt lat="43.47909" lon="6.56788">
        <ele>26.3</ele>
        <time>2025-02-26T16:17:13Z</time>
      </trkpt>
      <trkpt lat="43.47908" lon="6.56787">
        <ele>26.2</ele>
        <time>2025-02-26T16:17:14Z</time>
      </trkpt>
      <trkpt lat="43.47907" lon="6.56786">
        <ele>26.2</ele>
        <time>2025-02-26T16:17:15Z</time>
      </trkpt>
      <trkpt lat="43.47906" lon="6.56785">
        <ele>26.3</ele>
        <time>2025-02-26T16:17:16Z</time>
      </trkpt>
      <trkpt lat="43.47905" lon="6.56784">
        <ele>26.2</ele>
        <time>2025-02-26T16:17:17Z</time>
      </trkpt>
      <trkpt lat="43.47904" lon="6.56783">
        <ele>26.2</ele>
        <time>2025-02-26T16:17:18Z</time>
      </trkpt>
      <trkpt lat="43.47903" lon="6.56782">
        <ele>26.2</ele>
        <time>2025-02-26T16:17:19Z</time>
      </trkpt>
      <trkpt lat="43.47902" lon="6.56782">
        <ele>26.2</ele>
        <time>2025-02-26T16:17:20Z</time>
      </trkpt>
      <trkpt lat="43.47901" lon="6.5678">
        <ele>26.2</ele>
        <time>2025-02-26T16:17:21Z</time>
      </trkpt>
      <trkpt lat="43.479" lon="6.56779">
        <ele>26.2</ele>
        <time>2025-02-26T16:17:22Z</time>
      </trkpt>
      <trkpt lat="43.47899" lon="6.56778">
        <ele>26.2</ele>
        <time>2025-02-26T16:17:23Z</time>
      </trkpt>
      <trkpt lat="43.47898" lon="6.56777">
        <ele>26.2</ele>
        <time>2025-02-26T16:17:24Z</time>
      </trkpt>
      <trkpt lat="43.47898" lon="6.56775">
        <ele>26.2</ele>
        <time>2025-02-26T16:17:25Z</time>
      </trkpt>
      <trkpt lat="43.47897" lon="6.56774">
        <ele>26.2</ele>
        <time>2025-02-26T16:17:26Z</time>
      </trkpt>
      <trkpt lat="43.47896" lon="6.56773">
        <ele>26.1</ele>
        <time>2025-02-26T16:17:27Z</time>
      </trkpt>
      <trkpt lat="43.47896" lon="6.56771">
        <ele>26.1</ele>
        <time>2025-02-26T16:17:28Z</time>
      </trkpt>
      <trkpt lat="43.47895" lon="6.5677">
        <ele>26.1</ele>
        <time>2025-02-26T16:17:29Z</time>
      </trkpt>
      <trkpt lat="43.47894" lon="6.56769">
        <ele>26.1</ele>
        <time>2025-02-26T16:17:30Z</time>
      </trkpt>
      <trkpt lat="43.47894" lon="6.56768">
        <ele>26.1</ele>
        <time>2025-02-26T16:17:31Z</time>
      </trkpt>
      <trkpt lat="43.47893" lon="6.56766">
        <ele>26</ele>
        <time>2025-02-26T16:17:32Z</time>
      </trkpt>
      <trkpt lat="43.47893" lon="6.56765">
        <ele>26.1</ele>
        <time>2025-02-26T16:17:33Z</time>
      </trkpt>
      <trkpt lat="43.47892" lon="6.56764">
        <ele>26.1</ele>
        <time>2025-02-26T16:17:34Z</time>
      </trkpt>
      <trkpt lat="43.47892" lon="6.56762">
        <ele>26</ele>
        <time>2025-02-26T16:17:35Z</time>
      </trkpt>
      <trkpt lat="43.47891" lon="6.56761">
        <ele>26</ele>
        <time>2025-02-26T16:17:36Z</time>
      </trkpt>
      <trkpt lat="43.47891" lon="6.56759">
        <ele>26</ele>
        <time>2025-02-26T16:17:37Z</time>
      </trkpt>
      <trkpt lat="43.4789" lon="6.56757">
        <ele>26</ele>
        <time>2025-02-26T16:17:38Z</time>
      </trkpt>
      <trkpt lat="43.4789" lon="6.56756">
        <ele>26</ele>
        <time>2025-02-26T16:17:39Z</time>
      </trkpt>
      <trkpt lat="43.47889" lon="6.56755">
        <ele>26.2</ele>
        <time>2025-02-26T16:17:40Z</time>
      </trkpt>
      <trkpt lat="43.47889" lon="6.56753">
        <ele>26.3</ele>
        <time>2025-02-26T16:17:41Z</time>
      </trkpt>
      <trkpt lat="43.47889" lon="6.56751">
        <ele>26.4</ele>
        <time>2025-02-26T16:17:42Z</time>
      </trkpt>
      <trkpt lat="43.47889" lon="6.5675">
        <ele>26.3</ele>
        <time>2025-02-26T16:17:43Z</time>
      </trkpt>
      <trkpt lat="43.47888" lon="6.56748">
        <ele>26.2</ele>
        <time>2025-02-26T16:17:44Z</time>
      </trkpt>
      <trkpt lat="43.47888" lon="6.56746">
        <ele>26.3</ele>
        <time>2025-02-26T16:17:45Z</time>
      </trkpt>
      <trkpt lat="43.47888" lon="6.56745">
        <ele>26.3</ele>
        <time>2025-02-26T16:17:46Z</time>
      </trkpt>
      <trkpt lat="43.47888" lon="6.56743">
        <ele>26.3</ele>
        <time>2025-02-26T16:17:47Z</time>
      </trkpt>
      <trkpt lat="43.47888" lon="6.56741">
        <ele>26.4</ele>
        <time>2025-02-26T16:17:48Z</time>
      </trkpt>
      <trkpt lat="43.47888" lon="6.56739">
        <ele>26.4</ele>
        <time>2025-02-26T16:17:49Z</time>
      </trkpt>
      <trkpt lat="43.47888" lon="6.56737">
        <ele>26.4</ele>
        <time>2025-02-26T16:17:50Z</time>
      </trkpt>
      <trkpt lat="43.47887" lon="6.56735">
        <ele>26.4</ele>
        <time>2025-02-26T16:17:51Z</time>
      </trkpt>
      <trkpt lat="43.47887" lon="6.56734">
        <ele>26.4</ele>
        <time>2025-02-26T16:17:52Z</time>
      </trkpt>
      <trkpt lat="43.47887" lon="6.56732">
        <ele>26.4</ele>
        <time>2025-02-26T16:17:53Z</time>
      </trkpt>
      <trkpt lat="43.47886" lon="6.5673">
        <ele>26.5</ele>
        <time>2025-02-26T16:17:54Z</time>
      </trkpt>
      <trkpt lat="43.47886" lon="6.56728">
        <ele>26.4</ele>
        <time>2025-02-26T16:17:55Z</time>
      </trkpt>
      <trkpt lat="43.47886" lon="6.56726">
        <ele>26.4</ele>
        <time>2025-02-26T16:17:56Z</time>
      </trkpt>
      <trkpt lat="43.47885" lon="6.56725">
        <ele>26.4</ele>
        <time>2025-02-26T16:17:57Z</time>
      </trkpt>
      <trkpt lat="43.47885" lon="6.56723">
        <ele>26.5</ele>
        <time>2025-02-26T16:17:58Z</time>
      </trkpt>
      <trkpt lat="43.47884" lon="6.56721">
        <ele>26.6</ele>
        <time>2025-02-26T16:17:59Z</time>
      </trkpt>
      <trkpt lat="43.47884" lon="6.5672">
        <ele>26.6</ele>
        <time>2025-02-26T16:18:00Z</time>
      </trkpt>
      <trkpt lat="43.47884" lon="6.56719">
        <ele>26.6</ele>
        <time>2025-02-26T16:18:01Z</time>
      </trkpt>
      <trkpt lat="43.47884" lon="6.56717">
        <ele>26.6</ele>
        <time>2025-02-26T16:18:02Z</time>
      </trkpt>
      <trkpt lat="43.47883" lon="6.56716">
        <ele>26.5</ele>
        <time>2025-02-26T16:18:03Z</time>
      </trkpt>
      <trkpt lat="43.47883" lon="6.56714">
        <ele>26.5</ele>
        <time>2025-02-26T16:18:04Z</time>
      </trkpt>
      <trkpt lat="43.47883" lon="6.56713">
        <ele>26.5</ele>
        <time>2025-02-26T16:18:05Z</time>
      </trkpt>
      <trkpt lat="43.47882" lon="6.56711">
        <ele>26.4</ele>
        <time>2025-02-26T16:18:06Z</time>
      </trkpt>
      <trkpt lat="43.47882" lon="6.5671">
        <ele>26.4</ele>
        <time>2025-02-26T16:18:07Z</time>
      </trkpt>
      <trkpt lat="43.47882" lon="6.56708">
        <ele>26.4</ele>
        <time>2025-02-26T16:18:08Z</time>
      </trkpt>
      <trkpt lat="43.47882" lon="6.56706">
        <ele>26.5</ele>
        <time>2025-02-26T16:18:09Z</time>
      </trkpt>
      <trkpt lat="43.47882" lon="6.56705">
        <ele>26.6</ele>
        <time>2025-02-26T16:18:10Z</time>
      </trkpt>
      <trkpt lat="43.47882" lon="6.56703">
        <ele>26.7</ele>
        <time>2025-02-26T16:18:11Z</time>
      </trkpt>
      <trkpt lat="43.47882" lon="6.56701">
        <ele>26.7</ele>
        <time>2025-02-26T16:18:12Z</time>
      </trkpt>
      <trkpt lat="43.47881" lon="6.567">
        <ele>26.7</ele>
        <time>2025-02-26T16:18:13Z</time>
      </trkpt>
      <trkpt lat="43.47881" lon="6.56698">
        <ele>26.5</ele>
        <time>2025-02-26T16:18:14Z</time>
      </trkpt>
      <trkpt lat="43.4788" lon="6.56696">
        <ele>26.5</ele>
        <time>2025-02-26T16:18:15Z</time>
      </trkpt>
      <trkpt lat="43.4788" lon="6.56694">
        <ele>26.3</ele>
        <time>2025-02-26T16:18:16Z</time>
      </trkpt>
      <trkpt lat="43.4788" lon="6.56693">
        <ele>26.2</ele>
        <time>2025-02-26T16:18:17Z</time>
      </trkpt>
      <trkpt lat="43.4788" lon="6.56692">
        <ele>26.3</ele>
        <time>2025-02-26T16:18:18Z</time>
      </trkpt>
      <trkpt lat="43.47879" lon="6.56691">
        <ele>26.4</ele>
        <time>2025-02-26T16:18:19Z</time>
      </trkpt>
      <trkpt lat="43.47878" lon="6.5669">
        <ele>26.4</ele>
        <time>2025-02-26T16:18:20Z</time>
      </trkpt>
      <trkpt lat="43.47877" lon="6.56691">
        <ele>26.5</ele>
        <time>2025-02-26T16:18:21Z</time>
      </trkpt>
      <trkpt lat="43.47877" lon="6.5669">
        <ele>26.5</ele>
        <time>2025-02-26T16:18:22Z</time>
      </trkpt>
      <trkpt lat="43.47877" lon="6.56689">
        <ele>26.5</ele>
        <time>2025-02-26T16:18:23Z</time>
      </trkpt>
      <trkpt lat="43.47878" lon="6.56689">
        <ele>26.7</ele>
        <time>2025-02-26T16:18:24Z</time>
      </trkpt>
      <trkpt lat="43.47877" lon="6.56689">
        <ele>26.7</ele>
        <time>2025-02-26T16:18:25Z</time>
      </trkpt>
      <trkpt lat="43.47878" lon="6.56689">
        <ele>26.8</ele>
        <time>2025-02-26T16:18:26Z</time>
      </trkpt>
      <trkpt lat="43.47877" lon="6.56688">
        <ele>26.9</ele>
        <time>2025-02-26T16:18:27Z</time>
      </trkpt>
      <trkpt lat="43.47877" lon="6.56686">
        <ele>27</ele>
        <time>2025-02-26T16:18:28Z</time>
      </trkpt>
      <trkpt lat="43.47877" lon="6.56685">
        <ele>27.1</ele>
        <time>2025-02-26T16:18:29Z</time>
      </trkpt>
      <trkpt lat="43.47877" lon="6.56684">
        <ele>27.1</ele>
        <time>2025-02-26T16:18:30Z</time>
      </trkpt>
      <trkpt lat="43.47876" lon="6.56682">
        <ele>27.2</ele>
        <time>2025-02-26T16:18:31Z</time>
      </trkpt>
      <trkpt lat="43.47876" lon="6.56681">
        <ele>27.3</ele>
        <time>2025-02-26T16:18:32Z</time>
      </trkpt>
      <trkpt lat="43.47875" lon="6.56679">
        <ele>27.3</ele>
        <time>2025-02-26T16:18:33Z</time>
      </trkpt>
      <trkpt lat="43.47875" lon="6.56678">
        <ele>27.3</ele>
        <time>2025-02-26T16:18:34Z</time>
      </trkpt>
      <trkpt lat="43.47875" lon="6.56676">
        <ele>27.3</ele>
        <time>2025-02-26T16:18:35Z</time>
      </trkpt>
      <trkpt lat="43.47875" lon="6.56675">
        <ele>27.3</ele>
        <time>2025-02-26T16:18:36Z</time>
      </trkpt>
      <trkpt lat="43.47874" lon="6.56673">
        <ele>27.3</ele>
        <time>2025-02-26T16:18:37Z</time>
      </trkpt>
      <trkpt lat="43.47874" lon="6.56672">
        <ele>27.5</ele>
        <time>2025-02-26T16:18:38Z</time>
      </trkpt>
      <trkpt lat="43.47874" lon="6.5667">
        <ele>27.5</ele>
        <time>2025-02-26T16:18:39Z</time>
      </trkpt>
      <trkpt lat="43.47874" lon="6.56668">
        <ele>27.7</ele>
        <time>2025-02-26T16:18:40Z</time>
      </trkpt>
      <trkpt lat="43.47873" lon="6.56667">
        <ele>27.8</ele>
        <time>2025-02-26T16:18:41Z</time>
      </trkpt>
      <trkpt lat="43.47873" lon="6.56666">
        <ele>27.9</ele>
        <time>2025-02-26T16:18:42Z</time>
      </trkpt>
      <trkpt lat="43.47872" lon="6.56665">
        <ele>28</ele>
        <time>2025-02-26T16:18:43Z</time>
      </trkpt>
      <trkpt lat="43.47871" lon="6.56663">
        <ele>28</ele>
        <time>2025-02-26T16:18:44Z</time>
      </trkpt>
      <trkpt lat="43.4787" lon="6.56662">
        <ele>28</ele>
        <time>2025-02-26T16:18:45Z</time>
      </trkpt>
      <trkpt lat="43.47869" lon="6.56662">
        <ele>28</ele>
        <time>2025-02-26T16:18:46Z</time>
      </trkpt>
      <trkpt lat="43.47868" lon="6.56661">
        <ele>28.1</ele>
        <time>2025-02-26T16:18:47Z</time>
      </trkpt>
      <trkpt lat="43.47868" lon="6.56659">
        <ele>28.1</ele>
        <time>2025-02-26T16:18:48Z</time>
      </trkpt>
      <trkpt lat="43.47867" lon="6.56658">
        <ele>28.4</ele>
        <time>2025-02-26T16:18:49Z</time>
      </trkpt>
      <trkpt lat="43.47866" lon="6.56657">
        <ele>28.5</ele>
        <time>2025-02-26T16:18:50Z</time>
      </trkpt>
      <trkpt lat="43.47865" lon="6.56655">
        <ele>28.7</ele>
        <time>2025-02-26T16:18:51Z</time>
      </trkpt>
      <trkpt lat="43.47865" lon="6.56654">
        <ele>28.6</ele>
        <time>2025-02-26T16:18:52Z</time>
      </trkpt>
      <trkpt lat="43.47864" lon="6.56653">
        <ele>28.6</ele>
        <time>2025-02-26T16:18:53Z</time>
      </trkpt>
      <trkpt lat="43.47863" lon="6.56652">
        <ele>28.6</ele>
        <time>2025-02-26T16:18:54Z</time>
      </trkpt>
      <trkpt lat="43.47862" lon="6.56651">
        <ele>28.7</ele>
        <time>2025-02-26T16:18:55Z</time>
      </trkpt>
      <trkpt lat="43.47861" lon="6.5665">
        <ele>28.8</ele>
        <time>2025-02-26T16:18:56Z</time>
      </trkpt>
      <trkpt lat="43.4786" lon="6.56649">
        <ele>28.9</ele>
        <time>2025-02-26T16:18:57Z</time>
      </trkpt>
      <trkpt lat="43.4786" lon="6.56649">
        <ele>29</ele>
        <time>2025-02-26T16:18:58Z</time>
      </trkpt>
      <trkpt lat="43.47859" lon="6.56649">
        <ele>29</ele>
        <time>2025-02-26T16:18:59Z</time>
      </trkpt>
      <trkpt lat="43.47858" lon="6.56649">
        <ele>29.1</ele>
        <time>2025-02-26T16:19:00Z</time>
      </trkpt>
      <trkpt lat="43.47857" lon="6.56648">
        <ele>29.1</ele>
        <time>2025-02-26T16:19:01Z</time>
      </trkpt>
      <trkpt lat="43.47856" lon="6.56648">
        <ele>29.1</ele>
        <time>2025-02-26T16:19:02Z</time>
      </trkpt>
      <trkpt lat="43.47855" lon="6.56648">
        <ele>29.1</ele>
        <time>2025-02-26T16:19:03Z</time>
      </trkpt>
      <trkpt lat="43.47854" lon="6.56648">
        <ele>29.1</ele>
        <time>2025-02-26T16:19:04Z</time>
      </trkpt>
      <trkpt lat="43.47853" lon="6.56649">
        <ele>29.2</ele>
        <time>2025-02-26T16:19:05Z</time>
      </trkpt>
      <trkpt lat="43.47852" lon="6.5665">
        <ele>29.4</ele>
        <time>2025-02-26T16:19:06Z</time>
      </trkpt>
      <trkpt lat="43.47851" lon="6.5665">
        <ele>29.5</ele>
        <time>2025-02-26T16:19:07Z</time>
      </trkpt>
      <trkpt lat="43.4785" lon="6.5665">
        <ele>29.4</ele>
        <time>2025-02-26T16:19:08Z</time>
      </trkpt>
      <trkpt lat="43.47849" lon="6.5665">
        <ele>29.4</ele>
        <time>2025-02-26T16:19:09Z</time>
      </trkpt>
      <trkpt lat="43.47847" lon="6.5665">
        <ele>29.3</ele>
        <time>2025-02-26T16:19:10Z</time>
      </trkpt>
      <trkpt lat="43.47846" lon="6.56651">
        <ele>29.4</ele>
        <time>2025-02-26T16:19:11Z</time>
      </trkpt>
      <trkpt lat="43.47845" lon="6.56651">
        <ele>29.4</ele>
        <time>2025-02-26T16:19:12Z</time>
      </trkpt>
      <trkpt lat="43.47844" lon="6.56652">
        <ele>29.5</ele>
        <time>2025-02-26T16:19:13Z</time>
      </trkpt>
      <trkpt lat="43.47843" lon="6.56652">
        <ele>29.4</ele>
        <time>2025-02-26T16:19:14Z</time>
      </trkpt>
      <trkpt lat="43.47842" lon="6.56652">
        <ele>29.6</ele>
        <time>2025-02-26T16:19:15Z</time>
      </trkpt>
      <trkpt lat="43.47841" lon="6.56652">
        <ele>29.5</ele>
        <time>2025-02-26T16:19:16Z</time>
      </trkpt>
      <trkpt lat="43.47839" lon="6.56653">
        <ele>29.4</ele>
        <time>2025-02-26T16:19:17Z</time>
      </trkpt>
      <trkpt lat="43.47838" lon="6.56653">
        <ele>29.3</ele>
        <time>2025-02-26T16:19:18Z</time>
      </trkpt>
      <trkpt lat="43.47837" lon="6.56653">
        <ele>29.3</ele>
        <time>2025-02-26T16:19:19Z</time>
      </trkpt>
      <trkpt lat="43.47836" lon="6.56654">
        <ele>29.3</ele>
        <time>2025-02-26T16:19:20Z</time>
      </trkpt>
      <trkpt lat="43.47835" lon="6.56654">
        <ele>29.3</ele>
        <time>2025-02-26T16:19:21Z</time>
      </trkpt>
      <trkpt lat="43.47833" lon="6.56654">
        <ele>29.4</ele>
        <time>2025-02-26T16:19:22Z</time>
      </trkpt>
      <trkpt lat="43.47832" lon="6.56655">
        <ele>29.4</ele>
        <time>2025-02-26T16:19:23Z</time>
      </trkpt>
      <trkpt lat="43.47831" lon="6.56655">
        <ele>29.4</ele>
        <time>2025-02-26T16:19:24Z</time>
      </trkpt>
      <trkpt lat="43.4783" lon="6.56656">
        <ele>29.4</ele>
        <time>2025-02-26T16:19:25Z</time>
      </trkpt>
      <trkpt lat="43.47829" lon="6.56657">
        <ele>29.4</ele>
        <time>2025-02-26T16:19:26Z</time>
      </trkpt>
      <trkpt lat="43.47828" lon="6.56657">
        <ele>29.5</ele>
        <time>2025-02-26T16:19:27Z</time>
      </trkpt>
      <trkpt lat="43.47826" lon="6.56657">
        <ele>29.5</ele>
        <time>2025-02-26T16:19:28Z</time>
      </trkpt>
      <trkpt lat="43.47825" lon="6.56658">
        <ele>29.5</ele>
        <time>2025-02-26T16:19:29Z</time>
      </trkpt>
      <trkpt lat="43.47824" lon="6.56658">
        <ele>29.4</ele>
        <time>2025-02-26T16:19:30Z</time>
      </trkpt>
      <trkpt lat="43.47823" lon="6.56658">
        <ele>29.3</ele>
        <time>2025-02-26T16:19:31Z</time>
      </trkpt>
      <trkpt lat="43.47821" lon="6.56659">
        <ele>29.2</ele>
        <time>2025-02-26T16:19:32Z</time>
      </trkpt>
      <trkpt lat="43.4782" lon="6.56659">
        <ele>29.1</ele>
        <time>2025-02-26T16:19:33Z</time>
      </trkpt>
      <trkpt lat="43.47819" lon="6.56659">
        <ele>29.1</ele>
        <time>2025-02-26T16:19:34Z</time>
      </trkpt>
      <trkpt lat="43.47818" lon="6.56659">
        <ele>29.1</ele>
        <time>2025-02-26T16:19:35Z</time>
      </trkpt>
      <trkpt lat="43.47817" lon="6.5666">
        <ele>29.1</ele>
        <time>2025-02-26T16:19:36Z</time>
      </trkpt>
      <trkpt lat="43.47815" lon="6.56661">
        <ele>29.1</ele>
        <time>2025-02-26T16:19:37Z</time>
      </trkpt>
      <trkpt lat="43.47814" lon="6.56662">
        <ele>29</ele>
        <time>2025-02-26T16:19:38Z</time>
      </trkpt>
      <trkpt lat="43.47813" lon="6.56662">
        <ele>29</ele>
        <time>2025-02-26T16:19:39Z</time>
      </trkpt>
      <trkpt lat="43.47812" lon="6.56663">
        <ele>29</ele>
        <time>2025-02-26T16:19:40Z</time>
      </trkpt>
      <trkpt lat="43.47811" lon="6.56663">
        <ele>29</ele>
        <time>2025-02-26T16:19:41Z</time>
      </trkpt>
      <trkpt lat="43.47809" lon="6.56663">
        <ele>28.9</ele>
        <time>2025-02-26T16:19:42Z</time>
      </trkpt>
      <trkpt lat="43.47808" lon="6.56663">
        <ele>28.9</ele>
        <time>2025-02-26T16:19:43Z</time>
      </trkpt>
      <trkpt lat="43.47807" lon="6.56663">
        <ele>28.9</ele>
        <time>2025-02-26T16:19:44Z</time>
      </trkpt>
      <trkpt lat="43.47805" lon="6.56664">
        <ele>28.9</ele>
        <time>2025-02-26T16:19:45Z</time>
      </trkpt>
      <trkpt lat="43.47804" lon="6.56664">
        <ele>28.9</ele>
        <time>2025-02-26T16:19:46Z</time>
      </trkpt>
      <trkpt lat="43.47803" lon="6.56664">
        <ele>28.9</ele>
        <time>2025-02-26T16:19:47Z</time>
      </trkpt>
      <trkpt lat="43.47801" lon="6.56665">
        <ele>28.9</ele>
        <time>2025-02-26T16:19:48Z</time>
      </trkpt>
      <trkpt lat="43.478" lon="6.56665">
        <ele>28.9</ele>
        <time>2025-02-26T16:19:49Z</time>
      </trkpt>
      <trkpt lat="43.47798" lon="6.56665">
        <ele>29</ele>
        <time>2025-02-26T16:19:50Z</time>
      </trkpt>
      <trkpt lat="43.47797" lon="6.56665">
        <ele>29</ele>
        <time>2025-02-26T16:19:51Z</time>
      </trkpt>
      <trkpt lat="43.47796" lon="6.56666">
        <ele>29</ele>
        <time>2025-02-26T16:19:52Z</time>
      </trkpt>
      <trkpt lat="43.47795" lon="6.56666">
        <ele>29</ele>
        <time>2025-02-26T16:19:53Z</time>
      </trkpt>
      <trkpt lat="43.47793" lon="6.56665">
        <ele>29</ele>
        <time>2025-02-26T16:19:54Z</time>
      </trkpt>
      <trkpt lat="43.47792" lon="6.56665">
        <ele>29</ele>
        <time>2025-02-26T16:19:55Z</time>
      </trkpt>
      <trkpt lat="43.47791" lon="6.56665">
        <ele>28.8</ele>
        <time>2025-02-26T16:19:56Z</time>
      </trkpt>
      <trkpt lat="43.47789" lon="6.56665">
        <ele>28.9</ele>
        <time>2025-02-26T16:19:57Z</time>
      </trkpt>
      <trkpt lat="43.47788" lon="6.56666">
        <ele>28.9</ele>
        <time>2025-02-26T16:19:58Z</time>
      </trkpt>
      <trkpt lat="43.47787" lon="6.56666">
        <ele>28.9</ele>
        <time>2025-02-26T16:19:59Z</time>
      </trkpt>
      <trkpt lat="43.47786" lon="6.56666">
        <ele>28.9</ele>
        <time>2025-02-26T16:20:00Z</time>
      </trkpt>
      <trkpt lat="43.47784" lon="6.56666">
        <ele>28.9</ele>
        <time>2025-02-26T16:20:01Z</time>
      </trkpt>
      <trkpt lat="43.47783" lon="6.56666">
        <ele>28.9</ele>
        <time>2025-02-26T16:20:02Z</time>
      </trkpt>
      <trkpt lat="43.47782" lon="6.56666">
        <ele>28.9</ele>
        <time>2025-02-26T16:20:03Z</time>
      </trkpt>
      <trkpt lat="43.4778" lon="6.56666">
        <ele>28.9</ele>
        <time>2025-02-26T16:20:04Z</time>
      </trkpt>
      <trkpt lat="43.47779" lon="6.56666">
        <ele>28.9</ele>
        <time>2025-02-26T16:20:05Z</time>
      </trkpt>
      <trkpt lat="43.47778" lon="6.56666">
        <ele>28.8</ele>
        <time>2025-02-26T16:20:06Z</time>
      </trkpt>
      <trkpt lat="43.47776" lon="6.56666">
        <ele>28.7</ele>
        <time>2025-02-26T16:20:07Z</time>
      </trkpt>
      <trkpt lat="43.47775" lon="6.56666">
        <ele>28.6</ele>
        <time>2025-02-26T16:20:08Z</time>
      </trkpt>
      <trkpt lat="43.47774" lon="6.56666">
        <ele>28.6</ele>
        <time>2025-02-26T16:20:09Z</time>
      </trkpt>
      <trkpt lat="43.47773" lon="6.56666">
        <ele>28.5</ele>
        <time>2025-02-26T16:20:10Z</time>
      </trkpt>
      <trkpt lat="43.47772" lon="6.56665">
        <ele>28.6</ele>
        <time>2025-02-26T16:20:11Z</time>
      </trkpt>
      <trkpt lat="43.4777" lon="6.56665">
        <ele>28.6</ele>
        <time>2025-02-26T16:20:12Z</time>
      </trkpt>
      <trkpt lat="43.4777" lon="6.56665">
        <ele>28.7</ele>
        <time>2025-02-26T16:20:13Z</time>
      </trkpt>
      <trkpt lat="43.47768" lon="6.56665">
        <ele>28.5</ele>
        <time>2025-02-26T16:20:14Z</time>
      </trkpt>
      <trkpt lat="43.47767" lon="6.56665">
        <ele>28.4</ele>
        <time>2025-02-26T16:20:15Z</time>
      </trkpt>
      <trkpt lat="43.47766" lon="6.56665">
        <ele>28.4</ele>
        <time>2025-02-26T16:20:16Z</time>
      </trkpt>
      <trkpt lat="43.47764" lon="6.56664">
        <ele>28.5</ele>
        <time>2025-02-26T16:20:17Z</time>
      </trkpt>
      <trkpt lat="43.47763" lon="6.56665">
        <ele>28.4</ele>
        <time>2025-02-26T16:20:18Z</time>
      </trkpt>
      <trkpt lat="43.47762" lon="6.56664">
        <ele>28.3</ele>
        <time>2025-02-26T16:20:19Z</time>
      </trkpt>
      <trkpt lat="43.47761" lon="6.56664">
        <ele>28.3</ele>
        <time>2025-02-26T16:20:20Z</time>
      </trkpt>
      <trkpt lat="43.47759" lon="6.56664">
        <ele>28.3</ele>
        <time>2025-02-26T16:20:21Z</time>
      </trkpt>
      <trkpt lat="43.47758" lon="6.56664">
        <ele>28.3</ele>
        <time>2025-02-26T16:20:22Z</time>
      </trkpt>
      <trkpt lat="43.47757" lon="6.56664">
        <ele>28.3</ele>
        <time>2025-02-26T16:20:23Z</time>
      </trkpt>
      <trkpt lat="43.47756" lon="6.56664">
        <ele>28.3</ele>
        <time>2025-02-26T16:20:24Z</time>
      </trkpt>
      <trkpt lat="43.47754" lon="6.56664">
        <ele>28.3</ele>
        <time>2025-02-26T16:20:25Z</time>
      </trkpt>
      <trkpt lat="43.47753" lon="6.56664">
        <ele>28.3</ele>
        <time>2025-02-26T16:20:26Z</time>
      </trkpt>
      <trkpt lat="43.47752" lon="6.56664">
        <ele>28.3</ele>
        <time>2025-02-26T16:20:27Z</time>
      </trkpt>
      <trkpt lat="43.47751" lon="6.56664">
        <ele>28.2</ele>
        <time>2025-02-26T16:20:28Z</time>
      </trkpt>
      <trkpt lat="43.4775" lon="6.56664">
        <ele>28.1</ele>
        <time>2025-02-26T16:20:29Z</time>
      </trkpt>
      <trkpt lat="43.47749" lon="6.56664">
        <ele>28</ele>
        <time>2025-02-26T16:20:30Z</time>
      </trkpt>
      <trkpt lat="43.47748" lon="6.56665">
        <ele>27.9</ele>
        <time>2025-02-26T16:20:31Z</time>
      </trkpt>
      <trkpt lat="43.47746" lon="6.56665">
        <ele>27.9</ele>
        <time>2025-02-26T16:20:32Z</time>
      </trkpt>
      <trkpt lat="43.47745" lon="6.56665">
        <ele>27.8</ele>
        <time>2025-02-26T16:20:33Z</time>
      </trkpt>
      <trkpt lat="43.47744" lon="6.56665">
        <ele>27.7</ele>
        <time>2025-02-26T16:20:34Z</time>
      </trkpt>
      <trkpt lat="43.47743" lon="6.56665">
        <ele>27.8</ele>
        <time>2025-02-26T16:20:35Z</time>
      </trkpt>
      <trkpt lat="43.47742" lon="6.56665">
        <ele>27.9</ele>
        <time>2025-02-26T16:20:36Z</time>
      </trkpt>
      <trkpt lat="43.47741" lon="6.56665">
        <ele>27.9</ele>
        <time>2025-02-26T16:20:37Z</time>
      </trkpt>
      <trkpt lat="43.4774" lon="6.56665">
        <ele>27.8</ele>
        <time>2025-02-26T16:20:38Z</time>
      </trkpt>
      <trkpt lat="43.47739" lon="6.56665">
        <ele>27.9</ele>
        <time>2025-02-26T16:20:39Z</time>
      </trkpt>
      <trkpt lat="43.47739" lon="6.56665">
        <ele>27.8</ele>
        <time>2025-02-26T16:20:40Z</time>
      </trkpt>
      <trkpt lat="43.47739" lon="6.56665">
        <ele>27.8</ele>
        <time>2025-02-26T16:20:41Z</time>
      </trkpt>
      <trkpt lat="43.47739" lon="6.56665">
        <ele>27.8</ele>
        <time>2025-02-26T16:20:42Z</time>
      </trkpt>
      <trkpt lat="43.47739" lon="6.56665">
        <ele>27.8</ele>
        <time>2025-02-26T16:20:43Z</time>
      </trkpt>
      <trkpt lat="43.47739" lon="6.56665">
        <ele>27.7</ele>
        <time>2025-02-26T16:20:44Z</time>
      </trkpt>
      <trkpt lat="43.47739" lon="6.56665">
        <ele>27.6</ele>
        <time>2025-02-26T16:20:45Z</time>
      </trkpt>
      <trkpt lat="43.47739" lon="6.56665">
        <ele>27.6</ele>
        <time>2025-02-26T16:20:46Z</time>
      </trkpt>
      <trkpt lat="43.47739" lon="6.56665">
        <ele>27.6</ele>
        <time>2025-02-26T16:20:47Z</time>
      </trkpt>
      <trkpt lat="43.47739" lon="6.56665">
        <ele>27.5</ele>
        <time>2025-02-26T16:20:48Z</time>
      </trkpt>
      <trkpt lat="43.47739" lon="6.56665">
        <ele>27.5</ele>
        <time>2025-02-26T16:20:49Z</time>
      </trkpt>
      <trkpt lat="43.47739" lon="6.56665">
        <ele>27.5</ele>
        <time>2025-02-26T16:20:50Z</time>
      </trkpt>
      <trkpt lat="43.47739" lon="6.56665">
        <ele>27.5</ele>
        <time>2025-02-26T16:20:51Z</time>
      </trkpt>
      <trkpt lat="43.47739" lon="6.56665">
        <ele>27.5</ele>
        <time>2025-02-26T16:20:52Z</time>
      </trkpt>
      <trkpt lat="43.47739" lon="6.56665">
        <ele>27.6</ele>
        <time>2025-02-26T16:20:53Z</time>
      </trkpt>
      <trkpt lat="43.47739" lon="6.56665">
        <ele>27.6</ele>
        <time>2025-02-26T16:20:54Z</time>
      </trkpt>
      <trkpt lat="43.47739" lon="6.56665">
        <ele>27.6</ele>
        <time>2025-02-26T16:20:55Z</time>
      </trkpt>
      <trkpt lat="43.47739" lon="6.56665">
        <ele>27.6</ele>
        <time>2025-02-26T16:20:56Z</time>
      </trkpt>
      <trkpt lat="43.47739" lon="6.56665">
        <ele>27.6</ele>
        <time>2025-02-26T16:20:57Z</time>
      </trkpt>
      <trkpt lat="43.47739" lon="6.56665">
        <ele>27.6</ele>
        <time>2025-02-26T16:20:58Z</time>
      </trkpt>
      <trkpt lat="43.47739" lon="6.56665">
        <ele>27.7</ele>
        <time>2025-02-26T16:20:59Z</time>
      </trkpt>
      <trkpt lat="43.47739" lon="6.56665">
        <ele>27.7</ele>
        <time>2025-02-26T16:21:00Z</time>
      </trkpt>
      <trkpt lat="43.47739" lon="6.56665">
        <ele>27.6</ele>
        <time>2025-02-26T16:21:01Z</time>
      </trkpt>
      <trkpt lat="43.47739" lon="6.56665">
        <ele>27.5</ele>
        <time>2025-02-26T16:21:02Z</time>
      </trkpt>
      <trkpt lat="43.47739" lon="6.56666">
        <ele>27.5</ele>
        <time>2025-02-26T16:21:03Z</time>
      </trkpt>
      <trkpt lat="43.47739" lon="6.56665">
        <ele>27.5</ele>
        <time>2025-02-26T16:21:04Z</time>
      </trkpt>
      <trkpt lat="43.47739" lon="6.56665">
        <ele>35.9</ele>
        <time>2025-02-26T16:21:05Z</time>
      </trkpt>
      <trkpt lat="43.47738" lon="6.56666">
        <ele>34.4</ele>
        <time>2025-02-26T16:21:06Z</time>
      </trkpt>
      <trkpt lat="43.47738" lon="6.56666">
        <ele>33.2</ele>
        <time>2025-02-26T16:21:07Z</time>
      </trkpt>
      <trkpt lat="43.47739" lon="6.56666">
        <ele>32.2</ele>
        <time>2025-02-26T16:21:08Z</time>
      </trkpt>
      <trkpt lat="43.47738" lon="6.56666">
        <ele>31.3</ele>
        <time>2025-02-26T16:21:09Z</time>
      </trkpt>
      <trkpt lat="43.47738" lon="6.56666">
        <ele>30.6</ele>
        <time>2025-02-26T16:21:10Z</time>
      </trkpt>
      <trkpt lat="43.47738" lon="6.56666">
        <ele>30</ele>
        <time>2025-02-26T16:21:11Z</time>
      </trkpt>
      <trkpt lat="43.47738" lon="6.56666">
        <ele>29.6</ele>
        <time>2025-02-26T16:21:12Z</time>
      </trkpt>
      <trkpt lat="43.47738" lon="6.56666">
        <ele>29.2</ele>
        <time>2025-02-26T16:21:13Z</time>
      </trkpt>
      <trkpt lat="43.47738" lon="6.56666">
        <ele>28.9</ele>
        <time>2025-02-26T16:21:14Z</time>
      </trkpt>
      <trkpt lat="43.47738" lon="6.56666">
        <ele>28.6</ele>
        <time>2025-02-26T16:21:15Z</time>
      </trkpt>
      <trkpt lat="43.47738" lon="6.56666">
        <ele>28.4</ele>
        <time>2025-02-26T16:21:16Z</time>
      </trkpt>
      <trkpt lat="43.47738" lon="6.56667">
        <ele>28.2</ele>
        <time>2025-02-26T16:21:17Z</time>
      </trkpt>
      <trkpt lat="43.47738" lon="6.56666">
        <ele>28</ele>
        <time>2025-02-26T16:21:18Z</time>
      </trkpt>
      <trkpt lat="43.47738" lon="6.56666">
        <ele>27.8</ele>
        <time>2025-02-26T16:21:19Z</time>
      </trkpt>
      <trkpt lat="43.47738" lon="6.56666">
        <ele>27.7</ele>
        <time>2025-02-26T16:21:20Z</time>
      </trkpt>
      <trkpt lat="43.47738" lon="6.56666">
        <ele>27.6</ele>
        <time>2025-02-26T16:21:21Z</time>
      </trkpt>
      <trkpt lat="43.47738" lon="6.56666">
        <ele>27.5</ele>
        <time>2025-02-26T16:21:22Z</time>
      </trkpt>
      <trkpt lat="43.47738" lon="6.56666">
        <ele>27.5</ele>
        <time>2025-02-26T16:21:23Z</time>
      </trkpt>
      <trkpt lat="43.47738" lon="6.56666">
        <ele>27.4</ele>
        <time>2025-02-26T16:21:24Z</time>
      </trkpt>
      <trkpt lat="43.47738" lon="6.56666">
        <ele>27.4</ele>
        <time>2025-02-26T16:21:25Z</time>
      </trkpt>
      <trkpt lat="43.47738" lon="6.56666">
        <ele>27.3</ele>
        <time>2025-02-26T16:21:26Z</time>
      </trkpt>
      <trkpt lat="43.47738" lon="6.56666">
        <ele>27.4</ele>
        <time>2025-02-26T16:21:27Z</time>
      </trkpt>
      <trkpt lat="43.47738" lon="6.56666">
        <ele>27.5</ele>
        <time>2025-02-26T16:21:28Z</time>
      </trkpt>
      <trkpt lat="43.47738" lon="6.56666">
        <ele>27.5</ele>
        <time>2025-02-26T16:21:29Z</time>
      </trkpt>
      <trkpt lat="43.47738" lon="6.56666">
        <ele>27.5</ele>
        <time>2025-02-26T16:21:30Z</time>
      </trkpt>
      <trkpt lat="43.47738" lon="6.56666">
        <ele>27.5</ele>
        <time>2025-02-26T16:21:31Z</time>
      </trkpt>
      <trkpt lat="43.47738" lon="6.56666">
        <ele>27.5</ele>
        <time>2025-02-26T16:21:32Z</time>
      </trkpt>
      <trkpt lat="43.47738" lon="6.56665">
        <ele>27.3</ele>
        <time>2025-02-26T16:21:33Z</time>
      </trkpt>
      <trkpt lat="43.47738" lon="6.56664">
        <ele>27.3</ele>
        <time>2025-02-26T16:21:34Z</time>
      </trkpt>
      <trkpt lat="43.47738" lon="6.56662">
        <ele>27.4</ele>
        <time>2025-02-26T16:21:35Z</time>
      </trkpt>
      <trkpt lat="43.47738" lon="6.5666">
        <ele>27.4</ele>
        <time>2025-02-26T16:21:36Z</time>
      </trkpt>
      <trkpt lat="43.47737" lon="6.56659">
        <ele>27.4</ele>
        <time>2025-02-26T16:21:37Z</time>
      </trkpt>
      <trkpt lat="43.47737" lon="6.56658">
        <ele>27.4</ele>
        <time>2025-02-26T16:21:38Z</time>
      </trkpt>
      <trkpt lat="43.47736" lon="6.56656">
        <ele>27.4</ele>
        <time>2025-02-26T16:21:39Z</time>
      </trkpt>
      <trkpt lat="43.47735" lon="6.56655">
        <ele>27.3</ele>
        <time>2025-02-26T16:21:40Z</time>
      </trkpt>
      <trkpt lat="43.47734" lon="6.56654">
        <ele>27.1</ele>
        <time>2025-02-26T16:21:41Z</time>
      </trkpt>
      <trkpt lat="43.47734" lon="6.56654">
        <ele>27</ele>
        <time>2025-02-26T16:21:42Z</time>
      </trkpt>
      <trkpt lat="43.47734" lon="6.56652">
        <ele>27</ele>
        <time>2025-02-26T16:21:43Z</time>
      </trkpt>
      <trkpt lat="43.47734" lon="6.56651">
        <ele>27.1</ele>
        <time>2025-02-26T16:21:44Z</time>
      </trkpt>
      <trkpt lat="43.47734" lon="6.56649">
        <ele>27.2</ele>
        <time>2025-02-26T16:21:45Z</time>
      </trkpt>
      <trkpt lat="43.47734" lon="6.56648">
        <ele>27.2</ele>
        <time>2025-02-26T16:21:46Z</time>
      </trkpt>
      <trkpt lat="43.47734" lon="6.56646">
        <ele>27.5</ele>
        <time>2025-02-26T16:21:47Z</time>
      </trkpt>
      <trkpt lat="43.47734" lon="6.56644">
        <ele>27.5</ele>
        <time>2025-02-26T16:21:48Z</time>
      </trkpt>
      <trkpt lat="43.47734" lon="6.56643">
        <ele>27.5</ele>
        <time>2025-02-26T16:21:49Z</time>
      </trkpt>
      <trkpt lat="43.47734" lon="6.56641">
        <ele>27.4</ele>
        <time>2025-02-26T16:21:50Z</time>
      </trkpt>
      <trkpt lat="43.47735" lon="6.5664">
        <ele>27.3</ele>
        <time>2025-02-26T16:21:51Z</time>
      </trkpt>
      <trkpt lat="43.47735" lon="6.56638">
        <ele>27.3</ele>
        <time>2025-02-26T16:21:52Z</time>
      </trkpt>
      <trkpt lat="43.47736" lon="6.56637">
        <ele>27.5</ele>
        <time>2025-02-26T16:21:53Z</time>
      </trkpt>
      <trkpt lat="43.47736" lon="6.56635">
        <ele>27.5</ele>
        <time>2025-02-26T16:21:54Z</time>
      </trkpt>
      <trkpt lat="43.47736" lon="6.56634">
        <ele>27.5</ele>
        <time>2025-02-26T16:21:55Z</time>
      </trkpt>
      <trkpt lat="43.47736" lon="6.56632">
        <ele>27.6</ele>
        <time>2025-02-26T16:21:56Z</time>
      </trkpt>
      <trkpt lat="43.47736" lon="6.56631">
        <ele>27.7</ele>
        <time>2025-02-26T16:21:57Z</time>
      </trkpt>
      <trkpt lat="43.47737" lon="6.56629">
        <ele>27.7</ele>
        <time>2025-02-26T16:21:58Z</time>
      </trkpt>
      <trkpt lat="43.47737" lon="6.56627">
        <ele>27.8</ele>
        <time>2025-02-26T16:21:59Z</time>
      </trkpt>
      <trkpt lat="43.47737" lon="6.56626">
        <ele>27.9</ele>
        <time>2025-02-26T16:22:00Z</time>
      </trkpt>
      <trkpt lat="43.47737" lon="6.56624">
        <ele>27.9</ele>
        <time>2025-02-26T16:22:01Z</time>
      </trkpt>
      <trkpt lat="43.47737" lon="6.56623">
        <ele>28</ele>
        <time>2025-02-26T16:22:02Z</time>
      </trkpt>
      <trkpt lat="43.47737" lon="6.56622">
        <ele>28.1</ele>
        <time>2025-02-26T16:22:03Z</time>
      </trkpt>
      <trkpt lat="43.47738" lon="6.5662">
        <ele>28.1</ele>
        <time>2025-02-26T16:22:04Z</time>
      </trkpt>
      <trkpt lat="43.47738" lon="6.56619">
        <ele>28.2</ele>
        <time>2025-02-26T16:22:05Z</time>
      </trkpt>
      <trkpt lat="43.47738" lon="6.56617">
        <ele>28.3</ele>
        <time>2025-02-26T16:22:06Z</time>
      </trkpt>
      <trkpt lat="43.47739" lon="6.56615">
        <ele>28.4</ele>
        <time>2025-02-26T16:22:07Z</time>
      </trkpt>
      <trkpt lat="43.47739" lon="6.56614">
        <ele>28.5</ele>
        <time>2025-02-26T16:22:08Z</time>
      </trkpt>
      <trkpt lat="43.47739" lon="6.56612">
        <ele>28.6</ele>
        <time>2025-02-26T16:22:09Z</time>
      </trkpt>
      <trkpt lat="43.4774" lon="6.56611">
        <ele>28.6</ele>
        <time>2025-02-26T16:22:10Z</time>
      </trkpt>
      <trkpt lat="43.4774" lon="6.56609">
        <ele>28.6</ele>
        <time>2025-02-26T16:22:11Z</time>
      </trkpt>
      <trkpt lat="43.4774" lon="6.56608">
        <ele>28.7</ele>
        <time>2025-02-26T16:22:12Z</time>
      </trkpt>
      <trkpt lat="43.4774" lon="6.56606">
        <ele>28.8</ele>
        <time>2025-02-26T16:22:13Z</time>
      </trkpt>
      <trkpt lat="43.4774" lon="6.56604">
        <ele>28.7</ele>
        <time>2025-02-26T16:22:14Z</time>
      </trkpt>
      <trkpt lat="43.47741" lon="6.56603">
        <ele>28.7</ele>
        <time>2025-02-26T16:22:15Z</time>
      </trkpt>
      <trkpt lat="43.47742" lon="6.56601">
        <ele>28.7</ele>
        <time>2025-02-26T16:22:16Z</time>
      </trkpt>
      <trkpt lat="43.47742" lon="6.56599">
        <ele>28.6</ele>
        <time>2025-02-26T16:22:17Z</time>
      </trkpt>
      <trkpt lat="43.47742" lon="6.56598">
        <ele>28.6</ele>
        <time>2025-02-26T16:22:18Z</time>
      </trkpt>
      <trkpt lat="43.47743" lon="6.56597">
        <ele>28.8</ele>
        <time>2025-02-26T16:22:19Z</time>
      </trkpt>
      <trkpt lat="43.47743" lon="6.56595">
        <ele>28.9</ele>
        <time>2025-02-26T16:22:20Z</time>
      </trkpt>
      <trkpt lat="43.47743" lon="6.56594">
        <ele>29</ele>
        <time>2025-02-26T16:22:21Z</time>
      </trkpt>
      <trkpt lat="43.47743" lon="6.56593">
        <ele>29.1</ele>
        <time>2025-02-26T16:22:22Z</time>
      </trkpt>
      <trkpt lat="43.47743" lon="6.56591">
        <ele>29.1</ele>
        <time>2025-02-26T16:22:23Z</time>
      </trkpt>
      <trkpt lat="43.47743" lon="6.5659">
        <ele>29.1</ele>
        <time>2025-02-26T16:22:24Z</time>
      </trkpt>
      <trkpt lat="43.47744" lon="6.56588">
        <ele>29.1</ele>
        <time>2025-02-26T16:22:25Z</time>
      </trkpt>
      <trkpt lat="43.47744" lon="6.56587">
        <ele>29.1</ele>
        <time>2025-02-26T16:22:26Z</time>
      </trkpt>
      <trkpt lat="43.47744" lon="6.56586">
        <ele>29.1</ele>
        <time>2025-02-26T16:22:27Z</time>
      </trkpt>
      <trkpt lat="43.47744" lon="6.56585">
        <ele>29</ele>
        <time>2025-02-26T16:22:28Z</time>
      </trkpt>
      <trkpt lat="43.47744" lon="6.56584">
        <ele>29</ele>
        <time>2025-02-26T16:22:29Z</time>
      </trkpt>
      <trkpt lat="43.47744" lon="6.56582">
        <ele>28.9</ele>
        <time>2025-02-26T16:22:30Z</time>
      </trkpt>
      <trkpt lat="43.47743" lon="6.5658">
        <ele>28.9</ele>
        <time>2025-02-26T16:22:31Z</time>
      </trkpt>
      <trkpt lat="43.47743" lon="6.56579">
        <ele>29</ele>
        <time>2025-02-26T16:22:32Z</time>
      </trkpt>
      <trkpt lat="43.47744" lon="6.56577">
        <ele>29.1</ele>
        <time>2025-02-26T16:22:33Z</time>
      </trkpt>
      <trkpt lat="43.47744" lon="6.56576">
        <ele>29.2</ele>
        <time>2025-02-26T16:22:34Z</time>
      </trkpt>
      <trkpt lat="43.47744" lon="6.56574">
        <ele>29.2</ele>
        <time>2025-02-26T16:22:35Z</time>
      </trkpt>
      <trkpt lat="43.47744" lon="6.56572">
        <ele>29.3</ele>
        <time>2025-02-26T16:22:36Z</time>
      </trkpt>
      <trkpt lat="43.47744" lon="6.5657">
        <ele>29.4</ele>
        <time>2025-02-26T16:22:37Z</time>
      </trkpt>
      <trkpt lat="43.47744" lon="6.56568">
        <ele>29.6</ele>
        <time>2025-02-26T16:22:38Z</time>
      </trkpt>
      <trkpt lat="43.47744" lon="6.56567">
        <ele>29.7</ele>
        <time>2025-02-26T16:22:39Z</time>
      </trkpt>
      <trkpt lat="43.47744" lon="6.56565">
        <ele>29.7</ele>
        <time>2025-02-26T16:22:40Z</time>
      </trkpt>
      <trkpt lat="43.47744" lon="6.56563">
        <ele>29.9</ele>
        <time>2025-02-26T16:22:41Z</time>
      </trkpt>
      <trkpt lat="43.47744" lon="6.56561">
        <ele>30</ele>
        <time>2025-02-26T16:22:42Z</time>
      </trkpt>
      <trkpt lat="43.47743" lon="6.5656">
        <ele>30.1</ele>
        <time>2025-02-26T16:22:43Z</time>
      </trkpt>
      <trkpt lat="43.47743" lon="6.56558">
        <ele>30.3</ele>
        <time>2025-02-26T16:22:44Z</time>
      </trkpt>
      <trkpt lat="43.47743" lon="6.56557">
        <ele>30.3</ele>
        <time>2025-02-26T16:22:45Z</time>
      </trkpt>
      <trkpt lat="43.47743" lon="6.56555">
        <ele>30.3</ele>
        <time>2025-02-26T16:22:46Z</time>
      </trkpt>
      <trkpt lat="43.47743" lon="6.56554">
        <ele>30.3</ele>
        <time>2025-02-26T16:22:47Z</time>
      </trkpt>
      <trkpt lat="43.47743" lon="6.56552">
        <ele>30.3</ele>
        <time>2025-02-26T16:22:48Z</time>
      </trkpt>
      <trkpt lat="43.47743" lon="6.56551">
        <ele>30.2</ele>
        <time>2025-02-26T16:22:49Z</time>
      </trkpt>
      <trkpt lat="43.47742" lon="6.5655">
        <ele>30.3</ele>
        <time>2025-02-26T16:22:50Z</time>
      </trkpt>
      <trkpt lat="43.47742" lon="6.56548">
        <ele>30.3</ele>
        <time>2025-02-26T16:22:51Z</time>
      </trkpt>
      <trkpt lat="43.47742" lon="6.56547">
        <ele>30.3</ele>
        <time>2025-02-26T16:22:52Z</time>
      </trkpt>
      <trkpt lat="43.47742" lon="6.56545">
        <ele>30.3</ele>
        <time>2025-02-26T16:22:53Z</time>
      </trkpt>
      <trkpt lat="43.47742" lon="6.56543">
        <ele>30.3</ele>
        <time>2025-02-26T16:22:54Z</time>
      </trkpt>
      <trkpt lat="43.47742" lon="6.56541">
        <ele>30.2</ele>
        <time>2025-02-26T16:22:55Z</time>
      </trkpt>
      <trkpt lat="43.47742" lon="6.56539">
        <ele>30.3</ele>
        <time>2025-02-26T16:22:56Z</time>
      </trkpt>
      <trkpt lat="43.47742" lon="6.56538">
        <ele>30.4</ele>
        <time>2025-02-26T16:22:57Z</time>
      </trkpt>
      <trkpt lat="43.47742" lon="6.56536">
        <ele>30.6</ele>
        <time>2025-02-26T16:22:58Z</time>
      </trkpt>
      <trkpt lat="43.47743" lon="6.56535">
        <ele>30.7</ele>
        <time>2025-02-26T16:22:59Z</time>
      </trkpt>
      <trkpt lat="43.47743" lon="6.56534">
        <ele>30.7</ele>
        <time>2025-02-26T16:23:00Z</time>
      </trkpt>
      <trkpt lat="43.47743" lon="6.56532">
        <ele>30.7</ele>
        <time>2025-02-26T16:23:01Z</time>
      </trkpt>
      <trkpt lat="43.47743" lon="6.56531">
        <ele>30.7</ele>
        <time>2025-02-26T16:23:02Z</time>
      </trkpt>
      <trkpt lat="43.47742" lon="6.56529">
        <ele>30.8</ele>
        <time>2025-02-26T16:23:03Z</time>
      </trkpt>
      <trkpt lat="43.47742" lon="6.56527">
        <ele>30.8</ele>
        <time>2025-02-26T16:23:04Z</time>
      </trkpt>
      <trkpt lat="43.47741" lon="6.56526">
        <ele>30.8</ele>
        <time>2025-02-26T16:23:05Z</time>
      </trkpt>
      <trkpt lat="43.4774" lon="6.56524">
        <ele>30.8</ele>
        <time>2025-02-26T16:23:06Z</time>
      </trkpt>
      <trkpt lat="43.47739" lon="6.56524">
        <ele>30.8</ele>
        <time>2025-02-26T16:23:07Z</time>
      </trkpt>
      <trkpt lat="43.47738" lon="6.56523">
        <ele>30.8</ele>
        <time>2025-02-26T16:23:08Z</time>
      </trkpt>
      <trkpt lat="43.47737" lon="6.56522">
        <ele>30.6</ele>
        <time>2025-02-26T16:23:09Z</time>
      </trkpt>
      <trkpt lat="43.47736" lon="6.56522">
        <ele>30.6</ele>
        <time>2025-02-26T16:23:10Z</time>
      </trkpt>
      <trkpt lat="43.47735" lon="6.56521">
        <ele>30.6</ele>
        <time>2025-02-26T16:23:11Z</time>
      </trkpt>
      <trkpt lat="43.47734" lon="6.56521">
        <ele>30.5</ele>
        <time>2025-02-26T16:23:12Z</time>
      </trkpt>
      <trkpt lat="43.47733" lon="6.5652">
        <ele>30.3</ele>
        <time>2025-02-26T16:23:13Z</time>
      </trkpt>
      <trkpt lat="43.47732" lon="6.5652">
        <ele>30.3</ele>
        <time>2025-02-26T16:23:14Z</time>
      </trkpt>
      <trkpt lat="43.47731" lon="6.5652">
        <ele>30.2</ele>
        <time>2025-02-26T16:23:15Z</time>
      </trkpt>
      <trkpt lat="43.4773" lon="6.5652">
        <ele>30.1</ele>
        <time>2025-02-26T16:23:16Z</time>
      </trkpt>
      <trkpt lat="43.47729" lon="6.5652">
        <ele>30</ele>
        <time>2025-02-26T16:23:17Z</time>
      </trkpt>
      <trkpt lat="43.47728" lon="6.5652">
        <ele>30.1</ele>
        <time>2025-02-26T16:23:18Z</time>
      </trkpt>
      <trkpt lat="43.47727" lon="6.56521">
        <ele>30.1</ele>
        <time>2025-02-26T16:23:19Z</time>
      </trkpt>
      <trkpt lat="43.47726" lon="6.56521">
        <ele>30.1</ele>
        <time>2025-02-26T16:23:20Z</time>
      </trkpt>
      <trkpt lat="43.47724" lon="6.56521">
        <ele>30</ele>
        <time>2025-02-26T16:23:21Z</time>
      </trkpt>
      <trkpt lat="43.47723" lon="6.56522">
        <ele>30</ele>
        <time>2025-02-26T16:23:22Z</time>
      </trkpt>
      <trkpt lat="43.47722" lon="6.56522">
        <ele>30</ele>
        <time>2025-02-26T16:23:23Z</time>
      </trkpt>
      <trkpt lat="43.47721" lon="6.56522">
        <ele>30</ele>
        <time>2025-02-26T16:23:24Z</time>
      </trkpt>
      <trkpt lat="43.4772" lon="6.56522">
        <ele>30.1</ele>
        <time>2025-02-26T16:23:25Z</time>
      </trkpt>
      <trkpt lat="43.47719" lon="6.56522">
        <ele>30</ele>
        <time>2025-02-26T16:23:26Z</time>
      </trkpt>
      <trkpt lat="43.47717" lon="6.56522">
        <ele>30</ele>
        <time>2025-02-26T16:23:27Z</time>
      </trkpt>
      <trkpt lat="43.47716" lon="6.56523">
        <ele>30</ele>
        <time>2025-02-26T16:23:28Z</time>
      </trkpt>
      <trkpt lat="43.47715" lon="6.56523">
        <ele>30</ele>
        <time>2025-02-26T16:23:29Z</time>
      </trkpt>
      <trkpt lat="43.47713" lon="6.56524">
        <ele>30</ele>
        <time>2025-02-26T16:23:30Z</time>
      </trkpt>
      <trkpt lat="43.47712" lon="6.56524">
        <ele>30</ele>
        <time>2025-02-26T16:23:31Z</time>
      </trkpt>
      <trkpt lat="43.47711" lon="6.56525">
        <ele>29.9</ele>
        <time>2025-02-26T16:23:32Z</time>
      </trkpt>
      <trkpt lat="43.47709" lon="6.56525">
        <ele>29.9</ele>
        <time>2025-02-26T16:23:33Z</time>
      </trkpt>
      <trkpt lat="43.47708" lon="6.56525">
        <ele>29.8</ele>
        <time>2025-02-26T16:23:34Z</time>
      </trkpt>
      <trkpt lat="43.47707" lon="6.56525">
        <ele>29.7</ele>
        <time>2025-02-26T16:23:35Z</time>
      </trkpt>
      <trkpt lat="43.47705" lon="6.56525">
        <ele>29.7</ele>
        <time>2025-02-26T16:23:36Z</time>
      </trkpt>
      <trkpt lat="43.47704" lon="6.56525">
        <ele>29.6</ele>
        <time>2025-02-26T16:23:37Z</time>
      </trkpt>
      <trkpt lat="43.47703" lon="6.56525">
        <ele>29.6</ele>
        <time>2025-02-26T16:23:38Z</time>
      </trkpt>
      <trkpt lat="43.47701" lon="6.56525">
        <ele>29.5</ele>
        <time>2025-02-26T16:23:39Z</time>
      </trkpt>
      <trkpt lat="43.477" lon="6.56525">
        <ele>29.5</ele>
        <time>2025-02-26T16:23:40Z</time>
      </trkpt>
      <trkpt lat="43.47699" lon="6.56526">
        <ele>29.5</ele>
        <time>2025-02-26T16:23:41Z</time>
      </trkpt>
      <trkpt lat="43.47697" lon="6.56526">
        <ele>29.5</ele>
        <time>2025-02-26T16:23:42Z</time>
      </trkpt>
      <trkpt lat="43.47696" lon="6.56526">
        <ele>29.5</ele>
        <time>2025-02-26T16:23:43Z</time>
      </trkpt>
      <trkpt lat="43.47695" lon="6.56527">
        <ele>29.6</ele>
        <time>2025-02-26T16:23:44Z</time>
      </trkpt>
      <trkpt lat="43.47694" lon="6.56527">
        <ele>29.6</ele>
        <time>2025-02-26T16:23:45Z</time>
      </trkpt>
      <trkpt lat="43.47693" lon="6.56528">
        <ele>29.6</ele>
        <time>2025-02-26T16:23:46Z</time>
      </trkpt>
      <trkpt lat="43.47691" lon="6.56528">
        <ele>29.7</ele>
        <time>2025-02-26T16:23:47Z</time>
      </trkpt>
      <trkpt lat="43.4769" lon="6.56529">
        <ele>29.8</ele>
        <time>2025-02-26T16:23:48Z</time>
      </trkpt>
      <trkpt lat="43.47689" lon="6.56529">
        <ele>30</ele>
        <time>2025-02-26T16:23:49Z</time>
      </trkpt>
      <trkpt lat="43.47688" lon="6.5653">
        <ele>30</ele>
        <time>2025-02-26T16:23:50Z</time>
      </trkpt>
      <trkpt lat="43.47687" lon="6.56531">
        <ele>30.1</ele>
        <time>2025-02-26T16:23:51Z</time>
      </trkpt>
      <trkpt lat="43.47686" lon="6.56531">
        <ele>30</ele>
        <time>2025-02-26T16:23:52Z</time>
      </trkpt>
      <trkpt lat="43.47685" lon="6.56531">
        <ele>30</ele>
        <time>2025-02-26T16:23:53Z</time>
      </trkpt>
      <trkpt lat="43.47684" lon="6.56532">
        <ele>29.9</ele>
        <time>2025-02-26T16:23:54Z</time>
      </trkpt>
      <trkpt lat="43.47682" lon="6.56532">
        <ele>29.8</ele>
        <time>2025-02-26T16:23:55Z</time>
      </trkpt>
      <trkpt lat="43.47681" lon="6.56532">
        <ele>29.8</ele>
        <time>2025-02-26T16:23:56Z</time>
      </trkpt>
      <trkpt lat="43.4768" lon="6.56533">
        <ele>29.7</ele>
        <time>2025-02-26T16:23:57Z</time>
      </trkpt>
      <trkpt lat="43.4768" lon="6.56533">
        <ele>29.8</ele>
        <time>2025-02-26T16:23:58Z</time>
      </trkpt>
      <trkpt lat="43.47679" lon="6.56533">
        <ele>29.9</ele>
        <time>2025-02-26T16:23:59Z</time>
      </trkpt>
      <trkpt lat="43.47678" lon="6.56533">
        <ele>29.8</ele>
        <time>2025-02-26T16:24:00Z</time>
      </trkpt>
      <trkpt lat="43.47677" lon="6.56533">
        <ele>29.9</ele>
        <time>2025-02-26T16:24:01Z</time>
      </trkpt>
      <trkpt lat="43.47676" lon="6.56534">
        <ele>29.9</ele>
        <time>2025-02-26T16:24:02Z</time>
      </trkpt>
      <trkpt lat="43.47675" lon="6.56535">
        <ele>29.8</ele>
        <time>2025-02-26T16:24:03Z</time>
      </trkpt>
      <trkpt lat="43.47674" lon="6.56535">
        <ele>29.9</ele>
        <time>2025-02-26T16:24:04Z</time>
      </trkpt>
      <trkpt lat="43.47673" lon="6.56535">
        <ele>30</ele>
        <time>2025-02-26T16:24:05Z</time>
      </trkpt>
      <trkpt lat="43.47672" lon="6.56535">
        <ele>30</ele>
        <time>2025-02-26T16:24:06Z</time>
      </trkpt>
      <trkpt lat="43.47671" lon="6.56536">
        <ele>30.1</ele>
        <time>2025-02-26T16:24:07Z</time>
      </trkpt>
      <trkpt lat="43.4767" lon="6.56536">
        <ele>30.2</ele>
        <time>2025-02-26T16:24:08Z</time>
      </trkpt>
      <trkpt lat="43.47669" lon="6.56536">
        <ele>30.4</ele>
        <time>2025-02-26T16:24:09Z</time>
      </trkpt>
      <trkpt lat="43.47668" lon="6.56537">
        <ele>30.5</ele>
        <time>2025-02-26T16:24:10Z</time>
      </trkpt>
      <trkpt lat="43.47667" lon="6.56536">
        <ele>30.6</ele>
        <time>2025-02-26T16:24:11Z</time>
      </trkpt>
      <trkpt lat="43.47667" lon="6.56536">
        <ele>30.7</ele>
        <time>2025-02-26T16:24:12Z</time>
      </trkpt>
      <trkpt lat="43.47665" lon="6.56536">
        <ele>30.8</ele>
        <time>2025-02-26T16:24:13Z</time>
      </trkpt>
      <trkpt lat="43.47664" lon="6.56536">
        <ele>30.9</ele>
        <time>2025-02-26T16:24:14Z</time>
      </trkpt>
      <trkpt lat="43.47663" lon="6.56536">
        <ele>31</ele>
        <time>2025-02-26T16:24:15Z</time>
      </trkpt>
      <trkpt lat="43.47662" lon="6.56536">
        <ele>31.1</ele>
        <time>2025-02-26T16:24:16Z</time>
      </trkpt>
      <trkpt lat="43.47661" lon="6.56536">
        <ele>31.3</ele>
        <time>2025-02-26T16:24:17Z</time>
      </trkpt>
      <trkpt lat="43.47659" lon="6.56536">
        <ele>31.4</ele>
        <time>2025-02-26T16:24:18Z</time>
      </trkpt>
      <trkpt lat="43.47658" lon="6.56536">
        <ele>31.5</ele>
        <time>2025-02-26T16:24:19Z</time>
      </trkpt>
      <trkpt lat="43.47657" lon="6.56536">
        <ele>31.5</ele>
        <time>2025-02-26T16:24:20Z</time>
      </trkpt>
      <trkpt lat="43.47656" lon="6.56536">
        <ele>31.5</ele>
        <time>2025-02-26T16:24:21Z</time>
      </trkpt>
      <trkpt lat="43.47655" lon="6.56536">
        <ele>31.6</ele>
        <time>2025-02-26T16:24:22Z</time>
      </trkpt>
      <trkpt lat="43.47654" lon="6.56536">
        <ele>31.7</ele>
        <time>2025-02-26T16:24:23Z</time>
      </trkpt>
      <trkpt lat="43.47653" lon="6.56536">
        <ele>31.8</ele>
        <time>2025-02-26T16:24:24Z</time>
      </trkpt>
      <trkpt lat="43.47652" lon="6.56536">
        <ele>31.8</ele>
        <time>2025-02-26T16:24:25Z</time>
      </trkpt>
      <trkpt lat="43.47651" lon="6.56537">
        <ele>32</ele>
        <time>2025-02-26T16:24:26Z</time>
      </trkpt>
      <trkpt lat="43.4765" lon="6.56537">
        <ele>32.2</ele>
        <time>2025-02-26T16:24:27Z</time>
      </trkpt>
      <trkpt lat="43.47649" lon="6.56537">
        <ele>32.3</ele>
        <time>2025-02-26T16:24:28Z</time>
      </trkpt>
      <trkpt lat="43.47648" lon="6.56537">
        <ele>32.4</ele>
        <time>2025-02-26T16:24:29Z</time>
      </trkpt>
      <trkpt lat="43.47646" lon="6.56537">
        <ele>32.3</ele>
        <time>2025-02-26T16:24:30Z</time>
      </trkpt>
      <trkpt lat="43.47645" lon="6.56536">
        <ele>32.4</ele>
        <time>2025-02-26T16:24:31Z</time>
      </trkpt>
      <trkpt lat="43.47644" lon="6.56536">
        <ele>32.5</ele>
        <time>2025-02-26T16:24:32Z</time>
      </trkpt>
      <trkpt lat="43.47642" lon="6.56536">
        <ele>32.5</ele>
        <time>2025-02-26T16:24:33Z</time>
      </trkpt>
      <trkpt lat="43.47641" lon="6.56535">
        <ele>32.6</ele>
        <time>2025-02-26T16:24:34Z</time>
      </trkpt>
      <trkpt lat="43.47639" lon="6.56535">
        <ele>32.6</ele>
        <time>2025-02-26T16:24:35Z</time>
      </trkpt>
      <trkpt lat="43.47638" lon="6.56535">
        <ele>32.7</ele>
        <time>2025-02-26T16:24:36Z</time>
      </trkpt>
      <trkpt lat="43.47636" lon="6.56534">
        <ele>32.8</ele>
        <time>2025-02-26T16:24:37Z</time>
      </trkpt>
      <trkpt lat="43.47635" lon="6.56533">
        <ele>32.8</ele>
        <time>2025-02-26T16:24:38Z</time>
      </trkpt>
      <trkpt lat="43.47634" lon="6.56532">
        <ele>32.8</ele>
        <time>2025-02-26T16:24:39Z</time>
      </trkpt>
      <trkpt lat="43.47633" lon="6.56532">
        <ele>32.8</ele>
        <time>2025-02-26T16:24:40Z</time>
      </trkpt>
      <trkpt lat="43.47631" lon="6.56532">
        <ele>32.8</ele>
        <time>2025-02-26T16:24:41Z</time>
      </trkpt>
      <trkpt lat="43.4763" lon="6.56532">
        <ele>32.9</ele>
        <time>2025-02-26T16:24:42Z</time>
      </trkpt>
      <trkpt lat="43.47629" lon="6.56531">
        <ele>32.9</ele>
        <time>2025-02-26T16:24:43Z</time>
      </trkpt>
      <trkpt lat="43.47628" lon="6.5653">
        <ele>33</ele>
        <time>2025-02-26T16:24:44Z</time>
      </trkpt>
      <trkpt lat="43.47627" lon="6.56529">
        <ele>33</ele>
        <time>2025-02-26T16:24:45Z</time>
      </trkpt>
      <trkpt lat="43.47625" lon="6.56529">
        <ele>33</ele>
        <time>2025-02-26T16:24:46Z</time>
      </trkpt>
      <trkpt lat="43.47624" lon="6.56528">
        <ele>33</ele>
        <time>2025-02-26T16:24:47Z</time>
      </trkpt>
      <trkpt lat="43.47623" lon="6.56528">
        <ele>33</ele>
        <time>2025-02-26T16:24:48Z</time>
      </trkpt>
      <trkpt lat="43.47622" lon="6.56527">
        <ele>32.9</ele>
        <time>2025-02-26T16:24:49Z</time>
      </trkpt>
      <trkpt lat="43.47621" lon="6.56526">
        <ele>32.8</ele>
        <time>2025-02-26T16:24:50Z</time>
      </trkpt>
      <trkpt lat="43.4762" lon="6.56525">
        <ele>32.8</ele>
        <time>2025-02-26T16:24:51Z</time>
      </trkpt>
      <trkpt lat="43.47619" lon="6.56525">
        <ele>32.8</ele>
        <time>2025-02-26T16:24:52Z</time>
      </trkpt>
      <trkpt lat="43.47619" lon="6.56524">
        <ele>32.8</ele>
        <time>2025-02-26T16:24:53Z</time>
      </trkpt>
      <trkpt lat="43.47618" lon="6.56523">
        <ele>32.9</ele>
        <time>2025-02-26T16:24:54Z</time>
      </trkpt>
      <trkpt lat="43.47618" lon="6.56522">
        <ele>32.9</ele>
        <time>2025-02-26T16:24:55Z</time>
      </trkpt>
      <trkpt lat="43.47618" lon="6.56521">
        <ele>32.8</ele>
        <time>2025-02-26T16:24:56Z</time>
      </trkpt>
      <trkpt lat="43.47619" lon="6.5652">
        <ele>32.9</ele>
        <time>2025-02-26T16:24:57Z</time>
      </trkpt>
      <trkpt lat="43.4762" lon="6.56519">
        <ele>33</ele>
        <time>2025-02-26T16:24:58Z</time>
      </trkpt>
      <trkpt lat="43.4762" lon="6.56518">
        <ele>33</ele>
        <time>2025-02-26T16:24:59Z</time>
      </trkpt>
      <trkpt lat="43.47621" lon="6.56517">
        <ele>33</ele>
        <time>2025-02-26T16:25:00Z</time>
      </trkpt>
      <trkpt lat="43.47621" lon="6.56516">
        <ele>33</ele>
        <time>2025-02-26T16:25:01Z</time>
      </trkpt>
      <trkpt lat="43.47622" lon="6.56516">
        <ele>33</ele>
        <time>2025-02-26T16:25:02Z</time>
      </trkpt>
      <trkpt lat="43.47622" lon="6.56515">
        <ele>33.2</ele>
        <time>2025-02-26T16:25:03Z</time>
      </trkpt>
      <trkpt lat="43.47623" lon="6.56514">
        <ele>33.3</ele>
        <time>2025-02-26T16:25:04Z</time>
      </trkpt>
      <trkpt lat="43.47624" lon="6.56514">
        <ele>33.3</ele>
        <time>2025-02-26T16:25:05Z</time>
      </trkpt>
      <trkpt lat="43.47624" lon="6.56513">
        <ele>33.4</ele>
        <time>2025-02-26T16:25:06Z</time>
      </trkpt>
      <trkpt lat="43.47625" lon="6.56513">
        <ele>33.5</ele>
        <time>2025-02-26T16:25:07Z</time>
      </trkpt>
      <trkpt lat="43.47625" lon="6.56513">
        <ele>33.7</ele>
        <time>2025-02-26T16:25:08Z</time>
      </trkpt>
      <trkpt lat="43.47626" lon="6.56513">
        <ele>33.8</ele>
        <time>2025-02-26T16:25:09Z</time>
      </trkpt>
      <trkpt lat="43.47627" lon="6.56513">
        <ele>33.8</ele>
        <time>2025-02-26T16:25:10Z</time>
      </trkpt>
      <trkpt lat="43.47628" lon="6.56513">
        <ele>34.1</ele>
        <time>2025-02-26T16:25:11Z</time>
      </trkpt>
      <trkpt lat="43.47628" lon="6.56513">
        <ele>34.2</ele>
        <time>2025-02-26T16:25:12Z</time>
      </trkpt>
      <trkpt lat="43.47629" lon="6.56513">
        <ele>34.3</ele>
        <time>2025-02-26T16:25:13Z</time>
      </trkpt>
      <trkpt lat="43.47629" lon="6.56513">
        <ele>34.2</ele>
        <time>2025-02-26T16:25:14Z</time>
      </trkpt>
      <trkpt lat="43.47629" lon="6.56513">
        <ele>34.1</ele>
        <time>2025-02-26T16:25:15Z</time>
      </trkpt>
      <trkpt lat="43.47629" lon="6.56513">
        <ele>34.1</ele>
        <time>2025-02-26T16:25:16Z</time>
      </trkpt>
      <trkpt lat="43.47629" lon="6.56512">
        <ele>34.2</ele>
        <time>2025-02-26T16:25:17Z</time>
      </trkpt>
      <trkpt lat="43.47629" lon="6.56512">
        <ele>34.2</ele>
        <time>2025-02-26T16:25:18Z</time>
      </trkpt>
      <trkpt lat="43.47629" lon="6.56512">
        <ele>34.2</ele>
        <time>2025-02-26T16:25:19Z</time>
      </trkpt>
      <trkpt lat="43.47629" lon="6.56512">
        <ele>34.2</ele>
        <time>2025-02-26T16:25:20Z</time>
      </trkpt>
      <trkpt lat="43.4763" lon="6.56512">
        <ele>34.2</ele>
        <time>2025-02-26T16:25:21Z</time>
      </trkpt>
      <trkpt lat="43.4763" lon="6.56512">
        <ele>34.2</ele>
        <time>2025-02-26T16:25:22Z</time>
      </trkpt>
      <trkpt lat="43.47629" lon="6.56512">
        <ele>34.2</ele>
        <time>2025-02-26T16:25:23Z</time>
      </trkpt>
      <trkpt lat="43.47629" lon="6.56512">
        <ele>34.2</ele>
        <time>2025-02-26T16:25:24Z</time>
      </trkpt>
      <trkpt lat="43.47629" lon="6.56512">
        <ele>34.2</ele>
        <time>2025-02-26T16:25:25Z</time>
      </trkpt>
      <trkpt lat="43.47629" lon="6.56512">
        <ele>34.2</ele>
        <time>2025-02-26T16:25:26Z</time>
      </trkpt>
      <trkpt lat="43.47629" lon="6.56512">
        <ele>34.1</ele>
        <time>2025-02-26T16:25:27Z</time>
      </trkpt>
      <trkpt lat="43.47629" lon="6.56511">
        <ele>34</ele>
        <time>2025-02-26T16:25:28Z</time>
      </trkpt>
      <trkpt lat="43.47629" lon="6.56512">
        <ele>34</ele>
        <time>2025-02-26T16:25:29Z</time>
      </trkpt>
      <trkpt lat="43.47629" lon="6.56512">
        <ele>34</ele>
        <time>2025-02-26T16:25:30Z</time>
      </trkpt>
      <trkpt lat="43.47629" lon="6.56511">
        <ele>34</ele>
        <time>2025-02-26T16:25:31Z</time>
      </trkpt>
      <trkpt lat="43.47629" lon="6.56511">
        <ele>34.1</ele>
        <time>2025-02-26T16:25:32Z</time>
      </trkpt>
      <trkpt lat="43.47629" lon="6.56511">
        <ele>34.1</ele>
        <time>2025-02-26T16:25:33Z</time>
      </trkpt>
      <trkpt lat="43.47629" lon="6.56511">
        <ele>34.1</ele>
        <time>2025-02-26T16:25:34Z</time>
      </trkpt>
      <trkpt lat="43.47629" lon="6.56511">
        <ele>34</ele>
        <time>2025-02-26T16:25:35Z</time>
      </trkpt>
      <trkpt lat="43.4763" lon="6.56511">
        <ele>34.1</ele>
        <time>2025-02-26T16:25:36Z</time>
      </trkpt>
      <trkpt lat="43.4763" lon="6.56511">
        <ele>34.1</ele>
        <time>2025-02-26T16:25:37Z</time>
      </trkpt>
      <trkpt lat="43.4763" lon="6.56511">
        <ele>34.1</ele>
        <time>2025-02-26T16:25:38Z</time>
      </trkpt>
      <trkpt lat="43.4763" lon="6.56511">
        <ele>34</ele>
        <time>2025-02-26T16:25:39Z</time>
      </trkpt>
      <trkpt lat="43.4763" lon="6.56511">
        <ele>33.9</ele>
        <time>2025-02-26T16:25:40Z</time>
      </trkpt>
      <trkpt lat="43.4763" lon="6.56511">
        <ele>33.9</ele>
        <time>2025-02-26T16:25:41Z</time>
      </trkpt>
      <trkpt lat="43.4763" lon="6.56511">
        <ele>34</ele>
        <time>2025-02-26T16:25:42Z</time>
      </trkpt>
      <trkpt lat="43.4763" lon="6.56511">
        <ele>33.9</ele>
        <time>2025-02-26T16:25:43Z</time>
      </trkpt>
      <trkpt lat="43.4763" lon="6.56511">
        <ele>34</ele>
        <time>2025-02-26T16:25:44Z</time>
      </trkpt>
      <trkpt lat="43.4763" lon="6.56511">
        <ele>34.1</ele>
        <time>2025-02-26T16:25:45Z</time>
      </trkpt>
      <trkpt lat="43.47631" lon="6.56511">
        <ele>34.1</ele>
        <time>2025-02-26T16:25:46Z</time>
      </trkpt>
      <trkpt lat="43.47631" lon="6.56511">
        <ele>34.1</ele>
        <time>2025-02-26T16:25:47Z</time>
      </trkpt>
      <trkpt lat="43.47631" lon="6.56511">
        <ele>34.1</ele>
        <time>2025-02-26T16:25:48Z</time>
      </trkpt>
      <trkpt lat="43.47631" lon="6.56511">
        <ele>34.1</ele>
        <time>2025-02-26T16:25:49Z</time>
      </trkpt>
      <trkpt lat="43.47631" lon="6.56511">
        <ele>34.1</ele>
        <time>2025-02-26T16:25:50Z</time>
      </trkpt>
      <trkpt lat="43.47631" lon="6.56511">
        <ele>34</ele>
        <time>2025-02-26T16:25:51Z</time>
      </trkpt>
      <trkpt lat="43.47631" lon="6.56511">
        <ele>33.9</ele>
        <time>2025-02-26T16:25:52Z</time>
      </trkpt>
      <trkpt lat="43.47631" lon="6.56511">
        <ele>33.9</ele>
        <time>2025-02-26T16:25:53Z</time>
      </trkpt>
      <trkpt lat="43.47631" lon="6.56511">
        <ele>33.9</ele>
        <time>2025-02-26T16:25:54Z</time>
      </trkpt>
      <trkpt lat="43.47631" lon="6.56511">
        <ele>34</ele>
        <time>2025-02-26T16:25:55Z</time>
      </trkpt>
      <trkpt lat="43.47631" lon="6.5651">
        <ele>34</ele>
        <time>2025-02-26T16:25:56Z</time>
      </trkpt>
      <trkpt lat="43.47631" lon="6.5651">
        <ele>33.9</ele>
        <time>2025-02-26T16:25:57Z</time>
      </trkpt>
      <trkpt lat="43.47631" lon="6.5651">
        <ele>33.9</ele>
        <time>2025-02-26T16:25:58Z</time>
      </trkpt>
      <trkpt lat="43.47631" lon="6.5651">
        <ele>33.9</ele>
        <time>2025-02-26T16:25:59Z</time>
      </trkpt>
      <trkpt lat="43.47631" lon="6.5651">
        <ele>33.9</ele>
        <time>2025-02-26T16:26:00Z</time>
      </trkpt>
      <trkpt lat="43.47631" lon="6.56509">
        <ele>34</ele>
        <time>2025-02-26T16:26:01Z</time>
      </trkpt>
      <trkpt lat="43.47631" lon="6.5651">
        <ele>34</ele>
        <time>2025-02-26T16:26:02Z</time>
      </trkpt>
      <trkpt lat="43.47631" lon="6.5651">
        <ele>33.9</ele>
        <time>2025-02-26T16:26:03Z</time>
      </trkpt>
      <trkpt lat="43.47631" lon="6.5651">
        <ele>33.9</ele>
        <time>2025-02-26T16:26:04Z</time>
      </trkpt>
      <trkpt lat="43.47631" lon="6.5651">
        <ele>34</ele>
        <time>2025-02-26T16:26:05Z</time>
      </trkpt>
      <trkpt lat="43.47631" lon="6.56509">
        <ele>34.1</ele>
        <time>2025-02-26T16:26:06Z</time>
      </trkpt>
      <trkpt lat="43.47631" lon="6.5651">
        <ele>34.1</ele>
        <time>2025-02-26T16:26:07Z</time>
      </trkpt>
      <trkpt lat="43.47631" lon="6.56509">
        <ele>34.1</ele>
        <time>2025-02-26T16:26:08Z</time>
      </trkpt>
      <trkpt lat="43.47631" lon="6.56509">
        <ele>34.1</ele>
        <time>2025-02-26T16:26:09Z</time>
      </trkpt>
      <trkpt lat="43.47631" lon="6.56509">
        <ele>34.1</ele>
        <time>2025-02-26T16:26:10Z</time>
      </trkpt>
      <trkpt lat="43.47631" lon="6.5651">
        <ele>34.1</ele>
        <time>2025-02-26T16:26:11Z</time>
      </trkpt>
      <trkpt lat="43.4763" lon="6.5651">
        <ele>34.1</ele>
        <time>2025-02-26T16:26:12Z</time>
      </trkpt>
      <trkpt lat="43.4763" lon="6.5651">
        <ele>34.1</ele>
        <time>2025-02-26T16:26:13Z</time>
      </trkpt>
      <trkpt lat="43.4763" lon="6.5651">
        <ele>34.1</ele>
        <time>2025-02-26T16:26:14Z</time>
      </trkpt>
      <trkpt lat="43.4763" lon="6.56511">
        <ele>34.1</ele>
        <time>2025-02-26T16:26:15Z</time>
      </trkpt>
      <trkpt lat="43.4763" lon="6.56511">
        <ele>34.1</ele>
        <time>2025-02-26T16:26:16Z</time>
      </trkpt>
      <trkpt lat="43.4763" lon="6.56511">
        <ele>34.1</ele>
        <time>2025-02-26T16:26:17Z</time>
      </trkpt>
      <trkpt lat="43.4763" lon="6.56511">
        <ele>34.1</ele>
        <time>2025-02-26T16:26:18Z</time>
      </trkpt>
      <trkpt lat="43.4763" lon="6.56511">
        <ele>34.1</ele>
        <time>2025-02-26T16:26:19Z</time>
      </trkpt>
      <trkpt lat="43.4763" lon="6.56511">
        <ele>34.2</ele>
        <time>2025-02-26T16:26:20Z</time>
      </trkpt>
      <trkpt lat="43.4763" lon="6.56511">
        <ele>34.2</ele>
        <time>2025-02-26T16:26:21Z</time>
      </trkpt>
      <trkpt lat="43.4763" lon="6.56511">
        <ele>34.1</ele>
        <time>2025-02-26T16:26:22Z</time>
      </trkpt>
      <trkpt lat="43.4763" lon="6.56511">
        <ele>34</ele>
        <time>2025-02-26T16:26:23Z</time>
      </trkpt>
      <trkpt lat="43.4763" lon="6.56512">
        <ele>33.9</ele>
        <time>2025-02-26T16:26:24Z</time>
      </trkpt>
      <trkpt lat="43.4763" lon="6.56512">
        <ele>33.9</ele>
        <time>2025-02-26T16:26:25Z</time>
      </trkpt>
      <trkpt lat="43.4763" lon="6.56512">
        <ele>34</ele>
        <time>2025-02-26T16:26:26Z</time>
      </trkpt>
      <trkpt lat="43.4763" lon="6.56511">
        <ele>34</ele>
        <time>2025-02-26T16:26:27Z</time>
      </trkpt>
      <trkpt lat="43.4763" lon="6.56511">
        <ele>34</ele>
        <time>2025-02-26T16:26:28Z</time>
      </trkpt>
      <trkpt lat="43.4763" lon="6.56512">
        <ele>34</ele>
        <time>2025-02-26T16:26:29Z</time>
      </trkpt>
      <trkpt lat="43.4763" lon="6.56512">
        <ele>34</ele>
        <time>2025-02-26T16:26:30Z</time>
      </trkpt>
      <trkpt lat="43.4763" lon="6.56512">
        <ele>34.2</ele>
        <time>2025-02-26T16:26:31Z</time>
      </trkpt>
      <trkpt lat="43.47629" lon="6.56512">
        <ele>34.1</ele>
        <time>2025-02-26T16:26:32Z</time>
      </trkpt>
      <trkpt lat="43.47629" lon="6.56512">
        <ele>34</ele>
        <time>2025-02-26T16:26:33Z</time>
      </trkpt>
      <trkpt lat="43.47629" lon="6.56512">
        <ele>33.9</ele>
        <time>2025-02-26T16:26:34Z</time>
      </trkpt>
      <trkpt lat="43.47629" lon="6.56512">
        <ele>34.1</ele>
        <time>2025-02-26T16:26:35Z</time>
      </trkpt>
      <trkpt lat="43.47629" lon="6.56512">
        <ele>34.1</ele>
        <time>2025-02-26T16:26:36Z</time>
      </trkpt>
      <trkpt lat="43.4763" lon="6.56512">
        <ele>34.2</ele>
        <time>2025-02-26T16:26:37Z</time>
      </trkpt>
      <trkpt lat="43.4763" lon="6.56512">
        <ele>34.2</ele>
        <time>2025-02-26T16:26:38Z</time>
      </trkpt>
      <trkpt lat="43.47631" lon="6.56513">
        <ele>34.2</ele>
        <time>2025-02-26T16:26:39Z</time>
      </trkpt>
      <trkpt lat="43.47631" lon="6.56513">
        <ele>34.2</ele>
        <time>2025-02-26T16:26:40Z</time>
      </trkpt>
      <trkpt lat="43.47631" lon="6.56513">
        <ele>34.2</ele>
        <time>2025-02-26T16:26:41Z</time>
      </trkpt>
      <trkpt lat="43.47631" lon="6.56513">
        <ele>34.2</ele>
        <time>2025-02-26T16:26:42Z</time>
      </trkpt>
      <trkpt lat="43.47632" lon="6.56514">
        <ele>34.2</ele>
        <time>2025-02-26T16:26:43Z</time>
      </trkpt>
      <trkpt lat="43.47632" lon="6.56514">
        <ele>34.1</ele>
        <time>2025-02-26T16:26:44Z</time>
      </trkpt>
      <trkpt lat="43.47632" lon="6.56514">
        <ele>34.2</ele>
        <time>2025-02-26T16:26:45Z</time>
      </trkpt>
      <trkpt lat="43.47632" lon="6.56514">
        <ele>34.2</ele>
        <time>2025-02-26T16:26:46Z</time>
      </trkpt>
      <trkpt lat="43.47632" lon="6.56514">
        <ele>34.3</ele>
        <time>2025-02-26T16:26:47Z</time>
      </trkpt>
      <trkpt lat="43.47632" lon="6.56514">
        <ele>34.2</ele>
        <time>2025-02-26T16:26:48Z</time>
      </trkpt>
      <trkpt lat="43.47633" lon="6.56513">
        <ele>34.1</ele>
        <time>2025-02-26T16:26:49Z</time>
      </trkpt>
      <trkpt lat="43.47634" lon="6.56514">
        <ele>34.1</ele>
        <time>2025-02-26T16:26:50Z</time>
      </trkpt>
      <trkpt lat="43.47634" lon="6.56514">
        <ele>34</ele>
        <time>2025-02-26T16:26:51Z</time>
      </trkpt>
      <trkpt lat="43.47636" lon="6.56514">
        <ele>34</ele>
        <time>2025-02-26T16:26:52Z</time>
      </trkpt>
      <trkpt lat="43.47636" lon="6.56514">
        <ele>34.1</ele>
        <time>2025-02-26T16:26:53Z</time>
      </trkpt>
      <trkpt lat="43.47637" lon="6.56515">
        <ele>34.1</ele>
        <time>2025-02-26T16:26:54Z</time>
      </trkpt>
      <trkpt lat="43.47638" lon="6.56515">
        <ele>34.2</ele>
        <time>2025-02-26T16:26:55Z</time>
      </trkpt>
      <trkpt lat="43.47639" lon="6.56515">
        <ele>34.2</ele>
        <time>2025-02-26T16:26:56Z</time>
      </trkpt>
      <trkpt lat="43.4764" lon="6.56516">
        <ele>34.2</ele>
        <time>2025-02-26T16:26:57Z</time>
      </trkpt>
      <trkpt lat="43.4764" lon="6.56516">
        <ele>34.1</ele>
        <time>2025-02-26T16:26:58Z</time>
      </trkpt>
      <trkpt lat="43.47641" lon="6.56516">
        <ele>34.1</ele>
        <time>2025-02-26T16:26:59Z</time>
      </trkpt>
      <trkpt lat="43.47642" lon="6.56517">
        <ele>34.1</ele>
        <time>2025-02-26T16:27:00Z</time>
      </trkpt>
      <trkpt lat="43.47642" lon="6.56517">
        <ele>34.2</ele>
        <time>2025-02-26T16:27:01Z</time>
      </trkpt>
      <trkpt lat="43.47643" lon="6.56517">
        <ele>34.2</ele>
        <time>2025-02-26T16:27:02Z</time>
      </trkpt>
      <trkpt lat="43.47643" lon="6.56517">
        <ele>34.2</ele>
        <time>2025-02-26T16:27:03Z</time>
      </trkpt>
      <trkpt lat="43.47644" lon="6.56517">
        <ele>34.3</ele>
        <time>2025-02-26T16:27:04Z</time>
      </trkpt>
      <trkpt lat="43.47645" lon="6.56517">
        <ele>34.3</ele>
        <time>2025-02-26T16:27:05Z</time>
      </trkpt>
      <trkpt lat="43.47646" lon="6.56517">
        <ele>34.3</ele>
        <time>2025-02-26T16:27:06Z</time>
      </trkpt>
      <trkpt lat="43.47646" lon="6.56518">
        <ele>34.4</ele>
        <time>2025-02-26T16:27:07Z</time>
      </trkpt>
      <trkpt lat="43.47646" lon="6.56517">
        <ele>34.4</ele>
        <time>2025-02-26T16:27:08Z</time>
      </trkpt>
      <trkpt lat="43.47646" lon="6.56517">
        <ele>34.5</ele>
        <time>2025-02-26T16:27:09Z</time>
      </trkpt>
      <trkpt lat="43.47646" lon="6.56516">
        <ele>34.5</ele>
        <time>2025-02-26T16:27:10Z</time>
      </trkpt>
      <trkpt lat="43.47646" lon="6.56516">
        <ele>34.4</ele>
        <time>2025-02-26T16:27:11Z</time>
      </trkpt>
      <trkpt lat="43.47646" lon="6.56516">
        <ele>34.4</ele>
        <time>2025-02-26T16:27:12Z</time>
      </trkpt>
      <trkpt lat="43.47646" lon="6.56516">
        <ele>34.2</ele>
        <time>2025-02-26T16:27:13Z</time>
      </trkpt>
      <trkpt lat="43.47646" lon="6.56516">
        <ele>34.2</ele>
        <time>2025-02-26T16:27:14Z</time>
      </trkpt>
      <trkpt lat="43.47646" lon="6.56516">
        <ele>34.1</ele>
        <time>2025-02-26T16:27:15Z</time>
      </trkpt>
      <trkpt lat="43.47647" lon="6.56516">
        <ele>34</ele>
        <time>2025-02-26T16:27:16Z</time>
      </trkpt>
      <trkpt lat="43.47647" lon="6.56516">
        <ele>34.1</ele>
        <time>2025-02-26T16:27:17Z</time>
      </trkpt>
      <trkpt lat="43.47647" lon="6.56516">
        <ele>34.1</ele>
        <time>2025-02-26T16:27:18Z</time>
      </trkpt>
      <trkpt lat="43.47647" lon="6.56516">
        <ele>34</ele>
        <time>2025-02-26T16:27:19Z</time>
      </trkpt>
      <trkpt lat="43.47647" lon="6.56515">
        <ele>34</ele>
        <time>2025-02-26T16:27:20Z</time>
      </trkpt>
      <trkpt lat="43.47647" lon="6.56515">
        <ele>34</ele>
        <time>2025-02-26T16:27:21Z</time>
      </trkpt>
      <trkpt lat="43.47648" lon="6.56515">
        <ele>34</ele>
        <time>2025-02-26T16:27:22Z</time>
      </trkpt>
      <trkpt lat="43.47648" lon="6.56516">
        <ele>34</ele>
        <time>2025-02-26T16:27:23Z</time>
      </trkpt>
      <trkpt lat="43.47648" lon="6.56516">
        <ele>34</ele>
        <time>2025-02-26T16:27:24Z</time>
      </trkpt>
      <trkpt lat="43.47648" lon="6.56516">
        <ele>33.9</ele>
        <time>2025-02-26T16:27:25Z</time>
      </trkpt>
      <trkpt lat="43.47648" lon="6.56516">
        <ele>33.8</ele>
        <time>2025-02-26T16:27:26Z</time>
      </trkpt>
      <trkpt lat="43.47648" lon="6.56516">
        <ele>33.7</ele>
        <time>2025-02-26T16:27:27Z</time>
      </trkpt>
      <trkpt lat="43.47648" lon="6.56515">
        <ele>33.8</ele>
        <time>2025-02-26T16:27:28Z</time>
      </trkpt>
      <trkpt lat="43.47649" lon="6.56516">
        <ele>33.9</ele>
        <time>2025-02-26T16:27:29Z</time>
      </trkpt>
      <trkpt lat="43.47649" lon="6.56516">
        <ele>34</ele>
        <time>2025-02-26T16:27:30Z</time>
      </trkpt>
      <trkpt lat="43.47649" lon="6.56516">
        <ele>34</ele>
        <time>2025-02-26T16:27:31Z</time>
      </trkpt>
      <trkpt lat="43.47649" lon="6.56516">
        <ele>34</ele>
        <time>2025-02-26T16:27:32Z</time>
      </trkpt>
      <trkpt lat="43.47648" lon="6.56516">
        <ele>34.1</ele>
        <time>2025-02-26T16:27:33Z</time>
      </trkpt>
      <trkpt lat="43.47648" lon="6.56516">
        <ele>34.1</ele>
        <time>2025-02-26T16:27:34Z</time>
      </trkpt>
      <trkpt lat="43.47648" lon="6.56516">
        <ele>34.1</ele>
        <time>2025-02-26T16:27:35Z</time>
      </trkpt>
      <trkpt lat="43.47648" lon="6.56516">
        <ele>34.1</ele>
        <time>2025-02-26T16:27:36Z</time>
      </trkpt>
      <trkpt lat="43.47648" lon="6.56517">
        <ele>34.1</ele>
        <time>2025-02-26T16:27:37Z</time>
      </trkpt>
      <trkpt lat="43.47648" lon="6.56517">
        <ele>34.1</ele>
        <time>2025-02-26T16:27:38Z</time>
      </trkpt>
      <trkpt lat="43.47648" lon="6.56517">
        <ele>34.1</ele>
        <time>2025-02-26T16:27:39Z</time>
      </trkpt>
      <trkpt lat="43.47648" lon="6.56517">
        <ele>34.1</ele>
        <time>2025-02-26T16:27:40Z</time>
      </trkpt>
      <trkpt lat="43.47648" lon="6.56517">
        <ele>34.1</ele>
        <time>2025-02-26T16:27:41Z</time>
      </trkpt>
      <trkpt lat="43.47648" lon="6.56516">
        <ele>34</ele>
        <time>2025-02-26T16:27:42Z</time>
      </trkpt>
      <trkpt lat="43.47648" lon="6.56516">
        <ele>34</ele>
        <time>2025-02-26T16:27:43Z</time>
      </trkpt>
      <trkpt lat="43.47649" lon="6.56515">
        <ele>34</ele>
        <time>2025-02-26T16:27:44Z</time>
      </trkpt>
      <trkpt lat="43.47649" lon="6.56515">
        <ele>34.1</ele>
        <time>2025-02-26T16:27:45Z</time>
      </trkpt>
      <trkpt lat="43.47649" lon="6.56516">
        <ele>34</ele>
        <time>2025-02-26T16:27:46Z</time>
      </trkpt>
      <trkpt lat="43.47649" lon="6.56516">
        <ele>33.9</ele>
        <time>2025-02-26T16:27:47Z</time>
      </trkpt>
      <trkpt lat="43.47649" lon="6.56516">
        <ele>33.9</ele>
        <time>2025-02-26T16:27:48Z</time>
      </trkpt>
      <trkpt lat="43.47649" lon="6.56516">
        <ele>34</ele>
        <time>2025-02-26T16:27:49Z</time>
      </trkpt>
      <trkpt lat="43.47649" lon="6.56516">
        <ele>34</ele>
        <time>2025-02-26T16:27:50Z</time>
      </trkpt>
      <trkpt lat="43.47649" lon="6.56516">
        <ele>34</ele>
        <time>2025-02-26T16:27:51Z</time>
      </trkpt>
      <trkpt lat="43.47649" lon="6.56516">
        <ele>34</ele>
        <time>2025-02-26T16:27:52Z</time>
      </trkpt>
      <trkpt lat="43.47649" lon="6.56516">
        <ele>34</ele>
        <time>2025-02-26T16:27:53Z</time>
      </trkpt>
      <trkpt lat="43.47649" lon="6.56516">
        <ele>34.1</ele>
        <time>2025-02-26T16:27:54Z</time>
      </trkpt>
      <trkpt lat="43.47649" lon="6.56516">
        <ele>34.2</ele>
        <time>2025-02-26T16:27:55Z</time>
      </trkpt>
      <trkpt lat="43.47649" lon="6.56516">
        <ele>34.1</ele>
        <time>2025-02-26T16:27:56Z</time>
      </trkpt>
      <trkpt lat="43.47649" lon="6.56516">
        <ele>34.2</ele>
        <time>2025-02-26T16:27:57Z</time>
      </trkpt>
      <trkpt lat="43.47649" lon="6.56516">
        <ele>34</ele>
        <time>2025-02-26T16:27:58Z</time>
      </trkpt>
      <trkpt lat="43.47649" lon="6.56516">
        <ele>34</ele>
        <time>2025-02-26T16:27:59Z</time>
      </trkpt>
      <trkpt lat="43.47649" lon="6.56516">
        <ele>34</ele>
        <time>2025-02-26T16:28:00Z</time>
      </trkpt>
      <trkpt lat="43.47649" lon="6.56516">
        <ele>34.1</ele>
        <time>2025-02-26T16:28:01Z</time>
      </trkpt>
      <trkpt lat="43.47649" lon="6.56516">
        <ele>34.1</ele>
        <time>2025-02-26T16:28:02Z</time>
      </trkpt>
      <trkpt lat="43.47649" lon="6.56516">
        <ele>34.2</ele>
        <time>2025-02-26T16:28:03Z</time>
      </trkpt>
      <trkpt lat="43.47649" lon="6.56516">
        <ele>34.2</ele>
        <time>2025-02-26T16:28:04Z</time>
      </trkpt>
      <trkpt lat="43.47649" lon="6.56515">
        <ele>34.2</ele>
        <time>2025-02-26T16:28:05Z</time>
      </trkpt>
      <trkpt lat="43.47649" lon="6.56515">
        <ele>34.2</ele>
        <time>2025-02-26T16:28:06Z</time>
      </trkpt>
      <trkpt lat="43.4765" lon="6.56515">
        <ele>34.2</ele>
        <time>2025-02-26T16:28:07Z</time>
      </trkpt>
      <trkpt lat="43.4765" lon="6.56515">
        <ele>34.2</ele>
        <time>2025-02-26T16:28:08Z</time>
      </trkpt>
      <trkpt lat="43.4765" lon="6.56515">
        <ele>34.2</ele>
        <time>2025-02-26T16:28:09Z</time>
      </trkpt>
      <trkpt lat="43.47651" lon="6.56515">
        <ele>34.2</ele>
        <time>2025-02-26T16:28:10Z</time>
      </trkpt>
      <trkpt lat="43.47651" lon="6.56515">
        <ele>34.2</ele>
        <time>2025-02-26T16:28:11Z</time>
      </trkpt>
      <trkpt lat="43.47651" lon="6.56515">
        <ele>34.2</ele>
        <time>2025-02-26T16:28:12Z</time>
      </trkpt>
      <trkpt lat="43.47651" lon="6.56515">
        <ele>34.2</ele>
        <time>2025-02-26T16:28:13Z</time>
      </trkpt>
      <trkpt lat="43.47651" lon="6.56515">
        <ele>34.2</ele>
        <time>2025-02-26T16:28:14Z</time>
      </trkpt>
      <trkpt lat="43.47651" lon="6.56515">
        <ele>34.1</ele>
        <time>2025-02-26T16:28:15Z</time>
      </trkpt>
      <trkpt lat="43.47651" lon="6.56515">
        <ele>34.1</ele>
        <time>2025-02-26T16:28:16Z</time>
      </trkpt>
      <trkpt lat="43.47651" lon="6.56515">
        <ele>34</ele>
        <time>2025-02-26T16:28:17Z</time>
      </trkpt>
      <trkpt lat="43.47651" lon="6.56515">
        <ele>34</ele>
        <time>2025-02-26T16:28:18Z</time>
      </trkpt>
      <trkpt lat="43.47652" lon="6.56515">
        <ele>34</ele>
        <time>2025-02-26T16:28:19Z</time>
      </trkpt>
      <trkpt lat="43.47652" lon="6.56515">
        <ele>34</ele>
        <time>2025-02-26T16:28:20Z</time>
      </trkpt>
      <trkpt lat="43.47652" lon="6.56515">
        <ele>34.1</ele>
        <time>2025-02-26T16:28:21Z</time>
      </trkpt>
      <trkpt lat="43.47652" lon="6.56514">
        <ele>34</ele>
        <time>2025-02-26T16:28:22Z</time>
      </trkpt>
      <trkpt lat="43.47652" lon="6.56514">
        <ele>34</ele>
        <time>2025-02-26T16:28:23Z</time>
      </trkpt>
      <trkpt lat="43.47652" lon="6.56514">
        <ele>34.1</ele>
        <time>2025-02-26T16:28:23Z</time>
      </trkpt>
      <trkpt lat="43.47652" lon="6.56514">
        <ele>34.1</ele>
        <time>2025-02-26T16:28:23Z</time>
      </trkpt>
    </trkseg>
  </trk>
</gpx>